﻿<?xml version="1.0" encoding="utf-8"?><gpx creator="Garmin Desktop App" version="1.1" xsi:schemaLocation="http://www.topografix.com/GPX/1/1 http://www.topografix.com/GPX/1/1/gpx.xsd http://www.garmin.com/xmlschemas/WaypointExtension/v1 http://www8.garmin.com/xmlschemas/WaypointExtensionv1.xsd http://www.garmin.com/xmlschemas/TrackPointExtension/v1 http://www.garmin.com/xmlschemas/TrackPointExtensionv1.xsd http://www.garmin.com/xmlschemas/GpxExtensions/v3 http://www8.garmin.com/xmlschemas/GpxExtensionsv3.xsd http://www.garmin.com/xmlschemas/ActivityExtension/v1 http://www8.garmin.com/xmlschemas/ActivityExtensionv1.xsd http://www.garmin.com/xmlschemas/AdventuresExtensions/v1 http://www8.garmin.com/xmlschemas/AdventuresExtensionv1.xsd http://www.garmin.com/xmlschemas/PressureExtension/v1 http://www.garmin.com/xmlschemas/PressureExtensionv1.xsd http://www.garmin.com/xmlschemas/TripExtensions/v1 http://www.garmin.com/xmlschemas/TripExtensionsv1.xsd http://www.garmin.com/xmlschemas/TripMetaDataExtensions/v1 http://www.garmin.com/xmlschemas/TripMetaDataExtensionsv1.xsd http://www.garmin.com/xmlschemas/ViaPointTransportationModeExtensions/v1 http://www.garmin.com/xmlschemas/ViaPointTransportationModeExtensionsv1.xsd http://www.garmin.com/xmlschemas/CreationTimeExtension/v1 http://www.garmin.com/xmlschemas/CreationTimeExtensionsv1.xsd http://www.garmin.com/xmlschemas/AccelerationExtension/v1 http://www.garmin.com/xmlschemas/AccelerationExtensionv1.xsd http://www.garmin.com/xmlschemas/PowerExtension/v1 http://www.garmin.com/xmlschemas/PowerExtensionv1.xsd http://www.garmin.com/xmlschemas/VideoExtension/v1 http://www.garmin.com/xmlschemas/VideoExtensionv1.xsd" xmlns="http://www.topografix.com/GPX/1/1" xmlns:xsi="http://www.w3.org/2001/XMLSchema-instance" xmlns:wptx1="http://www.garmin.com/xmlschemas/WaypointExtension/v1" xmlns:gpxtrx="http://www.garmin.com/xmlschemas/GpxExtensions/v3" xmlns:gpxtpx="http://www.garmin.com/xmlschemas/TrackPointExtension/v1" xmlns:gpxx="http://www.garmin.com/xmlschemas/GpxExtensions/v3" xmlns:trp="http://www.garmin.com/xmlschemas/TripExtensions/v1" xmlns:adv="http://www.garmin.com/xmlschemas/AdventuresExtensions/v1" xmlns:prs="http://www.garmin.com/xmlschemas/PressureExtension/v1" xmlns:tmd="http://www.garmin.com/xmlschemas/TripMetaDataExtensions/v1" xmlns:vptm="http://www.garmin.com/xmlschemas/ViaPointTransportationModeExtensions/v1" xmlns:ctx="http://www.garmin.com/xmlschemas/CreationTimeExtension/v1" xmlns:gpxacc="http://www.garmin.com/xmlschemas/AccelerationExtension/v1" xmlns:gpxpx="http://www.garmin.com/xmlschemas/PowerExtension/v1" xmlns:vidx1="http://www.garmin.com/xmlschemas/VideoExtension/v1">

  <metadata>
    <link href="http://www.garmin.com">
      <text>Garmin International</text>
    </link>
    <time>2019-05-08T20:54:39Z</time>
    <bounds maxlat="54.522961992770433" maxlon="11.310186004266143" minlat="53.249113038182259" minlon="10.330324005335569" />
  </metadata>

  <trk>
    <name>Track vom: 2019-05-08 06:21</name>
    <extensions>
      <gpxx:TrackExtension>
        <gpxx:DisplayColor>DarkGray</gpxx:DisplayColor>
      </gpxx:TrackExtension>
    </extensions>
    <trkseg>
      <trkpt lat="53.249114966019988" lon="10.402994016185403">
        <ele>18.399999999999999</ele>
        <time>2019-05-08T04:21:11Z</time>
      </trkpt>
      <trkpt lat="53.249113960191607" lon="10.402998039498925">
        <ele>17.920000000000002</ele>
        <time>2019-05-08T04:21:39Z</time>
      </trkpt>
      <trkpt lat="53.249113038182259" lon="10.402993010357022">
        <ele>18.399999999999999</ele>
        <time>2019-05-08T04:22:16Z</time>
      </trkpt>
      <trkpt lat="53.249113038182259" lon="10.402987981215119">
        <ele>18.879999999999999</ele>
        <time>2019-05-08T04:22:49Z</time>
      </trkpt>
      <trkpt lat="53.249119995161891" lon="10.402811961248517">
        <ele>19.84</ele>
        <time>2019-05-08T04:23:02Z</time>
      </trkpt>
      <trkpt lat="53.249364998191595" lon="10.402791006490588">
        <ele>17.440000000000001</ele>
        <time>2019-05-08T04:23:12Z</time>
      </trkpt>
      <trkpt lat="53.249398022890091" lon="10.402769967913628">
        <ele>17.440000000000001</ele>
        <time>2019-05-08T04:23:18Z</time>
      </trkpt>
      <trkpt lat="53.249415960162878" lon="10.402715988457203">
        <ele>18.399999999999999</ele>
        <time>2019-05-08T04:23:20Z</time>
      </trkpt>
      <trkpt lat="53.249406991526484" lon="10.402683969587088">
        <ele>17.920000000000002</ele>
        <time>2019-05-08T04:23:21Z</time>
      </trkpt>
      <trkpt lat="53.249240024015307" lon="10.402083992958069">
        <ele>15.52</ele>
        <time>2019-05-08T04:23:33Z</time>
      </trkpt>
      <trkpt lat="53.249233989045024" lon="10.40206303820014">
        <ele>15.039999999999999</ele>
        <time>2019-05-08T04:23:34Z</time>
      </trkpt>
      <trkpt lat="53.249316969886422" lon="10.402014004066586">
        <ele>14.08</ele>
        <time>2019-05-08T04:23:36Z</time>
      </trkpt>
      <trkpt lat="53.249316969886422" lon="10.402014004066586">
        <ele>14.08</ele>
        <time>2019-05-08T04:23:37Z</time>
      </trkpt>
      <trkpt lat="53.249316969886422" lon="10.402014004066586">
        <ele>14.08</ele>
        <time>2019-05-08T04:23:38Z</time>
      </trkpt>
      <trkpt lat="53.249327028170228" lon="10.402019033208489">
        <ele>13.6</ele>
        <time>2019-05-08T04:23:39Z</time>
      </trkpt>
      <trkpt lat="53.249360974878073" lon="10.402034036815166">
        <ele>13.6</ele>
        <time>2019-05-08T04:23:40Z</time>
      </trkpt>
      <trkpt lat="53.249814016744494" lon="10.40215197019279">
        <ele>13.119999999999999</ele>
        <time>2019-05-08T04:23:54Z</time>
      </trkpt>
      <trkpt lat="53.250009985640645" lon="10.402162028476596">
        <ele>12.630000000000001</ele>
        <time>2019-05-08T04:24:00Z</time>
      </trkpt>
      <trkpt lat="53.250030018389225" lon="10.402207039296627">
        <ele>12.630000000000001</ele>
        <time>2019-05-08T04:24:01Z</time>
      </trkpt>
      <trkpt lat="53.250050973147154" lon="10.402251966297626">
        <ele>12.15</ele>
        <time>2019-05-08T04:24:02Z</time>
      </trkpt>
      <trkpt lat="53.250360013917089" lon="10.402731997892261">
        <ele>14.56</ele>
        <time>2019-05-08T04:24:15Z</time>
      </trkpt>
      <trkpt lat="53.250656984746456" lon="10.403064005076885">
        <ele>15.039999999999999</ele>
        <time>2019-05-08T04:24:27Z</time>
      </trkpt>
      <trkpt lat="53.25090098194778" lon="10.403389977291226">
        <ele>14.56</ele>
        <time>2019-05-08T04:24:40Z</time>
      </trkpt>
      <trkpt lat="53.250929983332753" lon="10.403429036960006">
        <ele>14.56</ele>
        <time>2019-05-08T04:24:49Z</time>
      </trkpt>
      <trkpt lat="53.250958984717727" lon="10.403377991169691">
        <ele>15.039999999999999</ele>
        <time>2019-05-08T04:24:50Z</time>
      </trkpt>
      <trkpt lat="53.250958984717727" lon="10.403377991169691">
        <ele>15.52</ele>
        <time>2019-05-08T04:25:06Z</time>
      </trkpt>
      <trkpt lat="53.250962002202868" lon="10.403358964249492">
        <ele>15.52</ele>
        <time>2019-05-08T04:25:26Z</time>
      </trkpt>
      <trkpt lat="53.250969965010881" lon="10.40331101976335">
        <ele>15.039999999999999</ele>
        <time>2019-05-08T04:25:27Z</time>
      </trkpt>
      <trkpt lat="53.250981029123068" lon="10.403242958709598">
        <ele>14.56</ele>
        <time>2019-05-08T04:25:28Z</time>
      </trkpt>
      <trkpt lat="53.250991003587842" lon="10.403175987303257">
        <ele>14.56</ele>
        <time>2019-05-08T04:25:29Z</time>
      </trkpt>
      <trkpt lat="53.251118995249271" lon="10.403043972328305">
        <ele>14.56</ele>
        <time>2019-05-08T04:25:30Z</time>
      </trkpt>
      <trkpt lat="53.251118995249271" lon="10.403043972328305">
        <ele>14.56</ele>
        <time>2019-05-08T04:25:31Z</time>
      </trkpt>
      <trkpt lat="53.251140033826232" lon="10.403036009520292">
        <ele>15.039999999999999</ele>
        <time>2019-05-08T04:25:32Z</time>
      </trkpt>
      <trkpt lat="53.251194013282657" lon="10.403012037277222">
        <ele>15.52</ele>
        <time>2019-05-08T04:25:33Z</time>
      </trkpt>
      <trkpt lat="53.251252016052604" lon="10.402987981215119">
        <ele>15.52</ele>
        <time>2019-05-08T04:25:34Z</time>
      </trkpt>
      <trkpt lat="53.251359974965453" lon="10.402940958738327">
        <ele>16</ele>
        <time>2019-05-08T04:25:36Z</time>
      </trkpt>
      <trkpt lat="53.251834977418184" lon="10.4027109593153">
        <ele>16.960000000000001</ele>
        <time>2019-05-08T04:25:43Z</time>
      </trkpt>
      <trkpt lat="53.251897003501654" lon="10.402673995122313">
        <ele>16.960000000000001</ele>
        <time>2019-05-08T04:25:44Z</time>
      </trkpt>
      <trkpt lat="53.251955006271601" lon="10.402639964595437">
        <ele>16.48</ele>
        <time>2019-05-08T04:25:45Z</time>
      </trkpt>
      <trkpt lat="53.252018038183451" lon="10.402603000402451">
        <ele>16.48</ele>
        <time>2019-05-08T04:25:46Z</time>
      </trkpt>
      <trkpt lat="53.25208299793303" lon="10.402565030381083">
        <ele>16.48</ele>
        <time>2019-05-08T04:25:47Z</time>
      </trkpt>
      <trkpt lat="53.252294976264238" lon="10.402523959055543">
        <ele>16</ele>
        <time>2019-05-08T04:25:50Z</time>
      </trkpt>
      <trkpt lat="53.25240695849061" lon="10.402508033439517">
        <ele>16</ele>
        <time>2019-05-08T04:25:51Z</time>
      </trkpt>
      <trkpt lat="53.252438977360725" lon="10.402547009289265">
        <ele>16</ele>
        <time>2019-05-08T04:25:52Z</time>
      </trkpt>
      <trkpt lat="53.252496980130672" lon="10.402615992352366">
        <ele>16</ele>
        <time>2019-05-08T04:25:53Z</time>
      </trkpt>
      <trkpt lat="53.25255498290062" lon="10.402698973193765">
        <ele>16.48</ele>
        <time>2019-05-08T04:25:54Z</time>
      </trkpt>
      <trkpt lat="53.252608962357044" lon="10.402782959863544">
        <ele>16.48</ele>
        <time>2019-05-08T04:25:55Z</time>
      </trkpt>
      <trkpt lat="53.252750029787421" lon="10.403000973165035">
        <ele>17.440000000000001</ele>
        <time>2019-05-08T04:25:57Z</time>
      </trkpt>
      <trkpt lat="53.252771990373731" lon="10.403042966499925">
        <ele>17.920000000000002</ele>
        <time>2019-05-08T04:25:58Z</time>
      </trkpt>
      <trkpt lat="53.252928983420134" lon="10.403341026976705">
        <ele>19.359999999999999</ele>
        <time>2019-05-08T04:26:01Z</time>
      </trkpt>
      <trkpt lat="53.252979023382068" lon="10.403434988111258">
        <ele>19.84</ele>
        <time>2019-05-08T04:26:02Z</time>
      </trkpt>
      <trkpt lat="53.253052029758692" lon="10.403586030006409">
        <ele>20.32</ele>
        <time>2019-05-08T04:26:03Z</time>
      </trkpt>
      <trkpt lat="53.253058986738324" lon="10.403722990304232">
        <ele>21.289999999999999</ele>
        <time>2019-05-08T04:26:04Z</time>
      </trkpt>
      <trkpt lat="53.253066027536988" lon="10.403874032199383">
        <ele>21.289999999999999</ele>
        <time>2019-05-08T04:26:05Z</time>
      </trkpt>
      <trkpt lat="53.253073990345001" lon="10.404025996103883">
        <ele>21.289999999999999</ele>
        <time>2019-05-08T04:26:06Z</time>
      </trkpt>
      <trkpt lat="53.253088993951678" lon="10.404323972761631">
        <ele>22.25</ele>
        <time>2019-05-08T04:26:08Z</time>
      </trkpt>
      <trkpt lat="53.253097040578723" lon="10.404475014656782">
        <ele>22.73</ele>
        <time>2019-05-08T04:26:09Z</time>
      </trkpt>
      <trkpt lat="53.253143979236484" lon="10.40561000816524">
        <ele>19.359999999999999</ele>
        <time>2019-05-08T04:26:16Z</time>
      </trkpt>
      <trkpt lat="53.253209022805095" lon="10.407179016619921">
        <ele>13.119999999999999</ele>
        <time>2019-05-08T04:26:26Z</time>
      </trkpt>
      <trkpt lat="53.253266019746661" lon="10.408570999279618">
        <ele>14.56</ele>
        <time>2019-05-08T04:26:35Z</time>
      </trkpt>
      <trkpt lat="53.253274988383055" lon="10.408847015351057">
        <ele>15.039999999999999</ele>
        <time>2019-05-08T04:26:37Z</time>
      </trkpt>
      <trkpt lat="53.253278005868196" lon="10.408965032547712">
        <ele>15.039999999999999</ele>
        <time>2019-05-08T04:26:38Z</time>
      </trkpt>
      <trkpt lat="53.25328697450459" lon="10.409291004762053">
        <ele>16.48</ele>
        <time>2019-05-08T04:26:45Z</time>
      </trkpt>
      <trkpt lat="53.25328697450459" lon="10.409291004762053">
        <ele>16.48</ele>
        <time>2019-05-08T04:27:15Z</time>
      </trkpt>
      <trkpt lat="53.25328697450459" lon="10.409302990883589">
        <ele>16.48</ele>
        <time>2019-05-08T04:27:27Z</time>
      </trkpt>
      <trkpt lat="53.25328697450459" lon="10.409417990595102">
        <ele>16.960000000000001</ele>
        <time>2019-05-08T04:27:29Z</time>
      </trkpt>
      <trkpt lat="53.253197958692908" lon="10.409902967512608">
        <ele>16.960000000000001</ele>
        <time>2019-05-08T04:27:33Z</time>
      </trkpt>
      <trkpt lat="53.253155965358019" lon="10.410041017457843">
        <ele>16.48</ele>
        <time>2019-05-08T04:27:34Z</time>
      </trkpt>
      <trkpt lat="53.253111038357019" lon="10.410189041867852">
        <ele>16.48</ele>
        <time>2019-05-08T04:27:35Z</time>
      </trkpt>
      <trkpt lat="53.252792023122311" lon="10.411193026229739">
        <ele>15.039999999999999</ele>
        <time>2019-05-08T04:27:41Z</time>
      </trkpt>
      <trkpt lat="53.252778025344014" lon="10.411382960155606">
        <ele>14.56</ele>
        <time>2019-05-08T04:27:42Z</time>
      </trkpt>
      <trkpt lat="53.252750029787421" lon="10.411770036444068">
        <ele>14.56</ele>
        <time>2019-05-08T04:27:44Z</time>
      </trkpt>
      <trkpt lat="53.252751035615802" lon="10.411967011168599">
        <ele>15.039999999999999</ele>
        <time>2019-05-08T04:27:45Z</time>
      </trkpt>
      <trkpt lat="53.25281398370862" lon="10.413928963243961">
        <ele>16</ele>
        <time>2019-05-08T04:27:55Z</time>
      </trkpt>
      <trkpt lat="53.25281398370862" lon="10.414090985432267">
        <ele>16</ele>
        <time>2019-05-08T04:27:56Z</time>
      </trkpt>
      <trkpt lat="53.25281398370862" lon="10.414558025076985">
        <ele>15.52</ele>
        <time>2019-05-08T04:28:00Z</time>
      </trkpt>
      <trkpt lat="53.252809960395098" lon="10.414621978998184">
        <ele>15.52</ele>
        <time>2019-05-08T04:28:01Z</time>
      </trkpt>
      <trkpt lat="53.252806020900607" lon="10.414675958454609">
        <ele>15.52</ele>
        <time>2019-05-08T04:28:02Z</time>
      </trkpt>
      <trkpt lat="53.252762015908957" lon="10.415149033069611">
        <ele>16</ele>
        <time>2019-05-08T04:28:10Z</time>
      </trkpt>
      <trkpt lat="53.252751035615802" lon="10.415244000032544">
        <ele>16</ele>
        <time>2019-05-08T04:28:11Z</time>
      </trkpt>
      <trkpt lat="53.252809038385749" lon="10.415276018902659">
        <ele>15.52</ele>
        <time>2019-05-08T04:28:12Z</time>
      </trkpt>
      <trkpt lat="53.252922026440501" lon="10.415318012237549">
        <ele>15.52</ele>
        <time>2019-05-08T04:28:13Z</time>
      </trkpt>
      <trkpt lat="53.252982962876558" lon="10.415369980037212">
        <ele>15.039999999999999</ele>
        <time>2019-05-08T04:28:14Z</time>
      </trkpt>
      <trkpt lat="53.253063010051847" lon="10.415438963100314">
        <ele>15.039999999999999</ele>
        <time>2019-05-08T04:28:15Z</time>
      </trkpt>
      <trkpt lat="53.253144985064864" lon="10.415544994175434">
        <ele>15.039999999999999</ele>
        <time>2019-05-08T04:28:16Z</time>
      </trkpt>
      <trkpt lat="53.253222014755011" lon="10.415645996108651">
        <ele>14.56</ele>
        <time>2019-05-08T04:28:17Z</time>
      </trkpt>
      <trkpt lat="53.253301978111267" lon="10.415759989991784">
        <ele>14.56</ele>
        <time>2019-05-08T04:28:18Z</time>
      </trkpt>
      <trkpt lat="53.253380013629794" lon="10.415877001360059">
        <ele>14.56</ele>
        <time>2019-05-08T04:28:19Z</time>
      </trkpt>
      <trkpt lat="53.25345897115767" lon="10.415996024385095">
        <ele>14.08</ele>
        <time>2019-05-08T04:28:20Z</time>
      </trkpt>
      <trkpt lat="53.253975966945291" lon="10.41671703569591">
        <ele>12.630000000000001</ele>
        <time>2019-05-08T04:28:26Z</time>
      </trkpt>
      <trkpt lat="53.254062971100211" lon="10.416827006265521">
        <ele>12.630000000000001</ele>
        <time>2019-05-08T04:28:27Z</time>
      </trkpt>
      <trkpt lat="53.254239996895194" lon="10.417049964889884">
        <ele>12.15</ele>
        <time>2019-05-08T04:28:29Z</time>
      </trkpt>
      <trkpt lat="53.254330018535256" lon="10.417159013450146">
        <ele>12.15</ele>
        <time>2019-05-08T04:28:30Z</time>
      </trkpt>
      <trkpt lat="53.25442498549819" lon="10.417264960706234">
        <ele>12.15</ele>
        <time>2019-05-08T04:28:31Z</time>
      </trkpt>
      <trkpt lat="53.254520958289504" lon="10.417367974296212">
        <ele>12.630000000000001</ele>
        <time>2019-05-08T04:28:32Z</time>
      </trkpt>
      <trkpt lat="53.254616009071469" lon="10.417463025078177">
        <ele>12.630000000000001</ele>
        <time>2019-05-08T04:28:33Z</time>
      </trkpt>
      <trkpt lat="53.254709970206022" lon="10.41755598038435">
        <ele>13.119999999999999</ele>
        <time>2019-05-08T04:28:34Z</time>
      </trkpt>
      <trkpt lat="53.255700040608644" lon="10.418367013335228">
        <ele>16.960000000000001</ele>
        <time>2019-05-08T04:28:43Z</time>
      </trkpt>
      <trkpt lat="53.256381992250681" lon="10.41886699385941">
        <ele>17.920000000000002</ele>
        <time>2019-05-08T04:28:49Z</time>
      </trkpt>
      <trkpt lat="53.256496991962194" lon="10.418950980529189">
        <ele>18.399999999999999</ele>
        <time>2019-05-08T04:28:50Z</time>
      </trkpt>
      <trkpt lat="53.256608974188566" lon="10.419033039361238">
        <ele>18.399999999999999</ele>
        <time>2019-05-08T04:28:51Z</time>
      </trkpt>
      <trkpt lat="53.257064027711749" lon="10.419337972998619">
        <ele>19.359999999999999</ele>
        <time>2019-05-08T04:28:55Z</time>
      </trkpt>
      <trkpt lat="53.257298972457647" lon="10.419437969103456">
        <ele>19.359999999999999</ele>
        <time>2019-05-08T04:28:57Z</time>
      </trkpt>
      <trkpt lat="53.257414977997541" lon="10.419437969103456">
        <ele>19.359999999999999</ele>
        <time>2019-05-08T04:28:58Z</time>
      </trkpt>
      <trkpt lat="53.257532995194197" lon="10.419437969103456">
        <ele>18.879999999999999</ele>
        <time>2019-05-08T04:28:59Z</time>
      </trkpt>
      <trkpt lat="53.257641959935427" lon="10.419437969103456">
        <ele>18.879999999999999</ele>
        <time>2019-05-08T04:29:00Z</time>
      </trkpt>
      <trkpt lat="53.25775695964694" lon="10.419386001303792">
        <ele>18.399999999999999</ele>
        <time>2019-05-08T04:29:01Z</time>
      </trkpt>
      <trkpt lat="53.257869025692344" lon="10.419335039332509">
        <ele>18.399999999999999</ele>
        <time>2019-05-08T04:29:02Z</time>
      </trkpt>
      <trkpt lat="53.257975978776813" lon="10.419286005198956">
        <ele>17.920000000000002</ele>
        <time>2019-05-08T04:29:03Z</time>
      </trkpt>
      <trkpt lat="53.258081004023552" lon="10.419238982722163">
        <ele>17.440000000000001</ele>
        <time>2019-05-08T04:29:04Z</time>
      </trkpt>
      <trkpt lat="53.258853983134031" lon="10.41884302161634">
        <ele>16</ele>
        <time>2019-05-08T04:29:11Z</time>
      </trkpt>
      <trkpt lat="53.259095968678594" lon="10.418793987482786">
        <ele>15.52</ele>
        <time>2019-05-08T04:29:13Z</time>
      </trkpt>
      <trkpt lat="53.259340971708298" lon="10.418813014402986">
        <ele>14.56</ele>
        <time>2019-05-08T04:29:15Z</time>
      </trkpt>
      <trkpt lat="53.259464018046856" lon="10.418846039101481">
        <ele>14.56</ele>
        <time>2019-05-08T04:29:16Z</time>
      </trkpt>
      <trkpt lat="53.259700974449515" lon="10.418992973864079">
        <ele>13.6</ele>
        <time>2019-05-08T04:29:18Z</time>
      </trkpt>
      <trkpt lat="53.260041028261185" lon="10.419307965785265">
        <ele>13.119999999999999</ele>
        <time>2019-05-08T04:29:21Z</time>
      </trkpt>
      <trkpt lat="53.260325007140636" lon="10.419717002660036">
        <ele>13.6</ele>
        <time>2019-05-08T04:29:24Z</time>
      </trkpt>
      <trkpt lat="53.260561041533947" lon="10.420059990137815">
        <ele>13.6</ele>
        <time>2019-05-08T04:29:26Z</time>
      </trkpt>
      <trkpt lat="53.260809984058142" lon="10.420441031455994">
        <ele>14.08</ele>
        <time>2019-05-08T04:29:29Z</time>
      </trkpt>
      <trkpt lat="53.260908974334598" lon="10.420591989532113">
        <ele>14.56</ele>
        <time>2019-05-08T04:29:30Z</time>
      </trkpt>
      <trkpt lat="53.261997029185295" lon="10.422292007133365">
        <ele>18.879999999999999</ele>
        <time>2019-05-08T04:29:41Z</time>
      </trkpt>
      <trkpt lat="53.262870004400611" lon="10.423670997843146">
        <ele>19.84</ele>
        <time>2019-05-08T04:29:50Z</time>
      </trkpt>
      <trkpt lat="53.264037016779184" lon="10.425595985725522">
        <ele>21.289999999999999</ele>
        <time>2019-05-08T04:30:02Z</time>
      </trkpt>
      <trkpt lat="53.265646006911993" lon="10.42767402715981">
        <ele>20.32</ele>
        <time>2019-05-08T04:30:15Z</time>
      </trkpt>
      <trkpt lat="53.266596011817455" lon="10.428426973521709">
        <ele>21.289999999999999</ele>
        <time>2019-05-08T04:30:23Z</time>
      </trkpt>
      <trkpt lat="53.267604019492865" lon="10.428870040923357">
        <ele>23.210000000000001</ele>
        <time>2019-05-08T04:30:34Z</time>
      </trkpt>
      <trkpt lat="53.269026009365916" lon="10.428869035094976">
        <ele>24.649999999999999</ele>
        <time>2019-05-08T04:30:46Z</time>
      </trkpt>
      <trkpt lat="53.270619995892048" lon="10.42842797935009">
        <ele>22.25</ele>
        <time>2019-05-08T04:30:57Z</time>
      </trkpt>
      <trkpt lat="53.272258993238211" lon="10.428054984658957">
        <ele>18.879999999999999</ele>
        <time>2019-05-08T04:31:08Z</time>
      </trkpt>
      <trkpt lat="53.273054016754031" lon="10.427949959412217">
        <ele>20.32</ele>
        <time>2019-05-08T04:31:14Z</time>
      </trkpt>
      <trkpt lat="53.27427702024579" lon="10.427838983014226">
        <ele>18.399999999999999</ele>
        <time>2019-05-08T04:31:24Z</time>
      </trkpt>
      <trkpt lat="53.274778006598353" lon="10.427799001336098">
        <ele>17.920000000000002</ele>
        <time>2019-05-08T04:31:28Z</time>
      </trkpt>
      <trkpt lat="53.276035040616989" lon="10.427678972482681">
        <ele>17.920000000000002</ele>
        <time>2019-05-08T04:31:38Z</time>
      </trkpt>
      <trkpt lat="53.276155991479754" lon="10.427666986361146">
        <ele>17.920000000000002</ele>
        <time>2019-05-08T04:31:39Z</time>
      </trkpt>
      <trkpt lat="53.276989990845323" lon="10.427587023004889">
        <ele>20.32</ele>
        <time>2019-05-08T04:31:46Z</time>
      </trkpt>
      <trkpt lat="53.277610000222921" lon="10.427520973607898">
        <ele>24.649999999999999</ele>
        <time>2019-05-08T04:31:51Z</time>
      </trkpt>
      <trkpt lat="53.277734974399209" lon="10.427505970001221">
        <ele>25.129999999999999</ele>
        <time>2019-05-08T04:31:52Z</time>
      </trkpt>
      <trkpt lat="53.278970969840884" lon="10.427376972511411">
        <ele>28.5</ele>
        <time>2019-05-08T04:32:02Z</time>
      </trkpt>
      <trkpt lat="53.280214006081223" lon="10.427277982234955">
        <ele>33.299999999999997</ele>
        <time>2019-05-08T04:32:12Z</time>
      </trkpt>
      <trkpt lat="53.281331984326243" lon="10.427189972251654">
        <ele>41.469999999999999</ele>
        <time>2019-05-08T04:32:21Z</time>
      </trkpt>
      <trkpt lat="53.282474018633366" lon="10.427060974761844">
        <ele>45.32</ele>
        <time>2019-05-08T04:32:30Z</time>
      </trkpt>
      <trkpt lat="53.283739015460014" lon="10.426883026957512">
        <ele>42.439999999999998</ele>
        <time>2019-05-08T04:32:40Z</time>
      </trkpt>
      <trkpt lat="53.284937962889671" lon="10.426628971472383">
        <ele>37.630000000000003</ele>
        <time>2019-05-08T04:32:50Z</time>
      </trkpt>
      <trkpt lat="53.286125008016825" lon="10.426423028111458">
        <ele>36.189999999999998</ele>
        <time>2019-05-08T04:33:00Z</time>
      </trkpt>
      <trkpt lat="53.286769995465875" lon="10.426293024793267">
        <ele>39.07</ele>
        <time>2019-05-08T04:33:05Z</time>
      </trkpt>
      <trkpt lat="53.288267003372312" lon="10.426117004826665">
        <ele>41.469999999999999</ele>
        <time>2019-05-08T04:33:16Z</time>
      </trkpt>
      <trkpt lat="53.290273966267705" lon="10.426121028140187">
        <ele>36.670000000000002</ele>
        <time>2019-05-08T04:33:30Z</time>
      </trkpt>
      <trkpt lat="53.291770974174142" lon="10.426196968182921">
        <ele>31.859999999999999</ele>
        <time>2019-05-08T04:33:41Z</time>
      </trkpt>
      <trkpt lat="53.292726008221507" lon="10.426208032295108">
        <ele>28.5</ele>
        <time>2019-05-08T04:33:48Z</time>
      </trkpt>
      <trkpt lat="53.292875960469246" lon="10.426219012588263">
        <ele>28.02</ele>
        <time>2019-05-08T04:33:49Z</time>
      </trkpt>
      <trkpt lat="53.29417297616601" lon="10.426503997296095">
        <ele>26.09</ele>
        <time>2019-05-08T04:33:57Z</time>
      </trkpt>
      <trkpt lat="53.295671995729208" lon="10.426871962845325">
        <ele>24.170000000000002</ele>
        <time>2019-05-08T04:34:06Z</time>
      </trkpt>
      <trkpt lat="53.296963982284069" lon="10.427167005836964">
        <ele>18.879999999999999</ele>
        <time>2019-05-08T04:34:14Z</time>
      </trkpt>
      <trkpt lat="53.297529006376863" lon="10.427297009155154">
        <ele>14.08</ele>
        <time>2019-05-08T04:34:20Z</time>
      </trkpt>
      <trkpt lat="53.29756798222661" lon="10.427307989448309">
        <ele>13.6</ele>
        <time>2019-05-08T04:34:21Z</time>
      </trkpt>
      <trkpt lat="53.297663033008575" lon="10.427334979176521">
        <ele>10.710000000000001</ele>
        <time>2019-05-08T04:34:27Z</time>
      </trkpt>
      <trkpt lat="53.298138035461307" lon="10.427470011636615">
        <ele>10.23</ele>
        <time>2019-05-08T04:34:34Z</time>
      </trkpt>
      <trkpt lat="53.299227012321353" lon="10.427757008001208">
        <ele>13.119999999999999</ele>
        <time>2019-05-08T04:34:42Z</time>
      </trkpt>
      <trkpt lat="53.300881013274193" lon="10.428197979927063">
        <ele>18.879999999999999</ele>
        <time>2019-05-08T04:34:52Z</time>
      </trkpt>
      <trkpt lat="53.302360000088811" lon="10.42859997600317">
        <ele>18.879999999999999</ele>
        <time>2019-05-08T04:35:01Z</time>
      </trkpt>
      <trkpt lat="53.304099999368191" lon="10.428972970694304">
        <ele>19.84</ele>
        <time>2019-05-08T04:35:11Z</time>
      </trkpt>
      <trkpt lat="53.305652998387814" lon="10.429390976205468">
        <ele>19.84</ele>
        <time>2019-05-08T04:35:18Z</time>
      </trkpt>
      <trkpt lat="53.307389980182052" lon="10.429857010021806">
        <ele>19.359999999999999</ele>
        <time>2019-05-08T04:35:26Z</time>
      </trkpt>
      <trkpt lat="53.309152023866773" lon="10.430331006646156">
        <ele>18.879999999999999</ele>
        <time>2019-05-08T04:35:35Z</time>
      </trkpt>
      <trkpt lat="53.309338018298149" lon="10.430380962789059">
        <ele>18.879999999999999</ele>
        <time>2019-05-08T04:35:36Z</time>
      </trkpt>
      <trkpt lat="53.311191005632281" lon="10.430879015475512">
        <ele>17.440000000000001</ele>
        <time>2019-05-08T04:35:45Z</time>
      </trkpt>
      <trkpt lat="53.312779041007161" lon="10.43149801902473">
        <ele>16.48</ele>
        <time>2019-05-08T04:35:53Z</time>
      </trkpt>
      <trkpt lat="53.312960006296635" lon="10.431611007079482">
        <ele>16</ele>
        <time>2019-05-08T04:35:54Z</time>
      </trkpt>
      <trkpt lat="53.31462599337101" lon="10.432816995307803">
        <ele>14.08</ele>
        <time>2019-05-08T04:36:04Z</time>
      </trkpt>
      <trkpt lat="53.315897025167942" lon="10.433792984113097">
        <ele>13.119999999999999</ele>
        <time>2019-05-08T04:36:12Z</time>
      </trkpt>
      <trkpt lat="53.317122962325811" lon="10.434718010947108">
        <ele>13.6</ele>
        <time>2019-05-08T04:36:21Z</time>
      </trkpt>
      <trkpt lat="53.318401034921408" lon="10.435704980045557">
        <ele>10.23</ele>
        <time>2019-05-08T04:36:33Z</time>
      </trkpt>
      <trkpt lat="53.319573998451233" lon="10.436620032414794">
        <ele>8.789999999999999</ele>
        <time>2019-05-08T04:36:44Z</time>
      </trkpt>
      <trkpt lat="53.320655012503266" lon="10.437455959618092">
        <ele>11.67</ele>
        <time>2019-05-08T04:36:53Z</time>
      </trkpt>
      <trkpt lat="53.321576016023755" lon="10.438198009505868">
        <ele>10.710000000000001</ele>
        <time>2019-05-08T04:37:00Z</time>
      </trkpt>
      <trkpt lat="53.323168996721506" lon="10.439653024077415">
        <ele>8.310000000000001</ele>
        <time>2019-05-08T04:37:12Z</time>
      </trkpt>
      <trkpt lat="53.324565002694726" lon="10.441097980365157">
        <ele>7.83</ele>
        <time>2019-05-08T04:37:24Z</time>
      </trkpt>
      <trkpt lat="53.325950028374791" lon="10.442484011873603">
        <ele>6.87</ele>
        <time>2019-05-08T04:37:36Z</time>
      </trkpt>
      <trkpt lat="53.326341966167092" lon="10.442836973816156">
        <ele>6.39</ele>
        <time>2019-05-08T04:37:40Z</time>
      </trkpt>
      <trkpt lat="53.327234974130988" lon="10.443429993465543">
        <ele>3.02</ele>
        <time>2019-05-08T04:37:49Z</time>
      </trkpt>
      <trkpt lat="53.328249016776681" lon="10.444061988964677">
        <ele>3.5</ele>
        <time>2019-05-08T04:37:59Z</time>
      </trkpt>
      <trkpt lat="53.329887008294463" lon="10.445080976933241">
        <ele>4.94</ele>
        <time>2019-05-08T04:38:14Z</time>
      </trkpt>
      <trkpt lat="53.330535013228655" lon="10.445482973009348">
        <ele>4.94</ele>
        <time>2019-05-08T04:38:20Z</time>
      </trkpt>
      <trkpt lat="53.330644983798265" lon="10.445569977164268">
        <ele>5.42</ele>
        <time>2019-05-08T04:38:21Z</time>
      </trkpt>
      <trkpt lat="53.331066006794572" lon="10.445978008210659">
        <ele>7.35</ele>
        <time>2019-05-08T04:38:25Z</time>
      </trkpt>
      <trkpt lat="53.331823982298374" lon="10.44699096120894">
        <ele>8.789999999999999</ele>
        <time>2019-05-08T04:38:33Z</time>
      </trkpt>
      <trkpt lat="53.332121958956122" lon="10.447353981435299">
        <ele>8.789999999999999</ele>
        <time>2019-05-08T04:38:36Z</time>
      </trkpt>
      <trkpt lat="53.332237964496017" lon="10.447433022782207">
        <ele>9.27</ele>
        <time>2019-05-08T04:38:37Z</time>
      </trkpt>
      <trkpt lat="53.333173971623182" lon="10.448030987754464">
        <ele>7.83</ele>
        <time>2019-05-08T04:38:46Z</time>
      </trkpt>
      <trkpt lat="53.333413023501635" lon="10.448243971914053">
        <ele>7.35</ele>
        <time>2019-05-08T04:38:52Z</time>
      </trkpt>
      <trkpt lat="53.333947034552693" lon="10.448764991015196">
        <ele>7.35</ele>
        <time>2019-05-08T04:38:59Z</time>
      </trkpt>
      <trkpt lat="53.334895027801394" lon="10.449950024485588">
        <ele>9.75</ele>
        <time>2019-05-08T04:39:07Z</time>
      </trkpt>
      <trkpt lat="53.336169999092817" lon="10.45072803273797">
        <ele>8.310000000000001</ele>
        <time>2019-05-08T04:39:15Z</time>
      </trkpt>
      <trkpt lat="53.338062968105078" lon="10.451629003509879">
        <ele>5.91</ele>
        <time>2019-05-08T04:39:25Z</time>
      </trkpt>
      <trkpt lat="53.339895000681281" lon="10.452551012858748">
        <ele>5.42</ele>
        <time>2019-05-08T04:39:33Z</time>
      </trkpt>
      <trkpt lat="53.341063018888235" lon="10.453825984150171">
        <ele>5.42</ele>
        <time>2019-05-08T04:39:39Z</time>
      </trkpt>
      <trkpt lat="53.342091981321573" lon="10.455682994797826">
        <ele>3.02</ele>
        <time>2019-05-08T04:39:46Z</time>
      </trkpt>
      <trkpt lat="53.342796983197331" lon="10.45678898692131">
        <ele>2.06</ele>
        <time>2019-05-08T04:39:51Z</time>
      </trkpt>
      <trkpt lat="53.343517994508147" lon="10.45732500962913">
        <ele>1.58</ele>
        <time>2019-05-08T04:39:55Z</time>
      </trkpt>
      <trkpt lat="53.345047021284699" lon="10.45781803317368">
        <ele>-1.79</ele>
        <time>2019-05-08T04:40:03Z</time>
      </trkpt>
      <trkpt lat="53.346818033605814" lon="10.458145011216402">
        <ele>-2.75</ele>
        <time>2019-05-08T04:40:12Z</time>
      </trkpt>
      <trkpt lat="53.348737992346287" lon="10.458492022007704">
        <ele>-2.27</ele>
        <time>2019-05-08T04:40:22Z</time>
      </trkpt>
      <trkpt lat="53.351488010957837" lon="10.459165005013347">
        <ele>3.98</ele>
        <time>2019-05-08T04:40:36Z</time>
      </trkpt>
      <trkpt lat="53.352628033608198" lon="10.460427990183234">
        <ele>5.91</ele>
        <time>2019-05-08T04:40:43Z</time>
      </trkpt>
      <trkpt lat="53.35344904102385" lon="10.462327999994159">
        <ele>9.27</ele>
        <time>2019-05-08T04:40:50Z</time>
      </trkpt>
      <trkpt lat="53.354788972064853" lon="10.465905983000994">
        <ele>16</ele>
        <time>2019-05-08T04:41:02Z</time>
      </trkpt>
      <trkpt lat="53.356032008305192" lon="10.469006029888988">
        <ele>15.039999999999999</ele>
        <time>2019-05-08T04:41:11Z</time>
      </trkpt>
      <trkpt lat="53.356211967766285" lon="10.469301994889975">
        <ele>15.039999999999999</ele>
        <time>2019-05-08T04:41:12Z</time>
      </trkpt>
      <trkpt lat="53.356419000774622" lon="10.469525037333369">
        <ele>15.039999999999999</ele>
        <time>2019-05-08T04:41:13Z</time>
      </trkpt>
      <trkpt lat="53.356625027954578" lon="10.469747995957732">
        <ele>15.039999999999999</ele>
        <time>2019-05-08T04:41:14Z</time>
      </trkpt>
      <trkpt lat="53.35684304125607" lon="10.469946982339025">
        <ele>14.56</ele>
        <time>2019-05-08T04:41:15Z</time>
      </trkpt>
      <trkpt lat="53.357076980173588" lon="10.470133982598782">
        <ele>14.56</ele>
        <time>2019-05-08T04:41:16Z</time>
      </trkpt>
      <trkpt lat="53.357327012345195" lon="10.470298016443849">
        <ele>14.56</ele>
        <time>2019-05-08T04:41:17Z</time>
      </trkpt>
      <trkpt lat="53.359260968863964" lon="10.471506016328931">
        <ele>12.15</ele>
        <time>2019-05-08T04:41:25Z</time>
      </trkpt>
      <trkpt lat="53.361349990591407" lon="10.473112994804978">
        <ele>8.310000000000001</ele>
        <time>2019-05-08T04:41:35Z</time>
      </trkpt>
      <trkpt lat="53.363211024552584" lon="10.475178966298699">
        <ele>6.87</ele>
        <time>2019-05-08T04:41:45Z</time>
      </trkpt>
      <trkpt lat="53.364754971116781" lon="10.477635031566024">
        <ele>6.87</ele>
        <time>2019-05-08T04:41:54Z</time>
      </trkpt>
      <trkpt lat="53.366173021495342" lon="10.480772964656353">
        <ele>5.91</ele>
        <time>2019-05-08T04:42:03Z</time>
      </trkpt>
      <trkpt lat="53.36689998395741" lon="10.482920994982123">
        <ele>6.39</ele>
        <time>2019-05-08T04:42:10Z</time>
      </trkpt>
      <trkpt lat="53.367718979716301" lon="10.486588999629021">
        <ele>6.39</ele>
        <time>2019-05-08T04:42:22Z</time>
      </trkpt>
      <trkpt lat="53.368161963298917" lon="10.490686995908618">
        <ele>5.91</ele>
        <time>2019-05-08T04:42:34Z</time>
      </trkpt>
      <trkpt lat="53.368237987160683" lon="10.494996970519423">
        <ele>6.39</ele>
        <time>2019-05-08T04:42:46Z</time>
      </trkpt>
      <trkpt lat="53.368175039067864" lon="10.498800007626414">
        <ele>10.710000000000001</ele>
        <time>2019-05-08T04:42:57Z</time>
      </trkpt>
      <trkpt lat="53.36823103018105" lon="10.499825030565262">
        <ele>12.630000000000001</ele>
        <time>2019-05-08T04:43:00Z</time>
      </trkpt>
      <trkpt lat="53.368362039327621" lon="10.502975033596158">
        <ele>15.039999999999999</ele>
        <time>2019-05-08T04:43:09Z</time>
      </trkpt>
      <trkpt lat="53.367986027151346" lon="10.50594599917531">
        <ele>13.119999999999999</ele>
        <time>2019-05-08T04:43:17Z</time>
      </trkpt>
      <trkpt lat="53.367068963125348" lon="10.509927989915013">
        <ele>7.35</ele>
        <time>2019-05-08T04:43:27Z</time>
      </trkpt>
      <trkpt lat="53.366476027294993" lon="10.513608986511827">
        <ele>7.35</ele>
        <time>2019-05-08T04:43:36Z</time>
      </trkpt>
      <trkpt lat="53.366024997085333" lon="10.516771981492639">
        <ele>7.83</ele>
        <time>2019-05-08T04:43:45Z</time>
      </trkpt>
      <trkpt lat="53.366024997085333" lon="10.517119998112321">
        <ele>7.35</ele>
        <time>2019-05-08T04:43:46Z</time>
      </trkpt>
      <trkpt lat="53.366043018177152" lon="10.517475977540016">
        <ele>7.35</ele>
        <time>2019-05-08T04:43:47Z</time>
      </trkpt>
      <trkpt lat="53.36636396124959" lon="10.520128011703491">
        <ele>5.42</ele>
        <time>2019-05-08T04:43:55Z</time>
      </trkpt>
      <trkpt lat="53.366267988458276" lon="10.52283201366663">
        <ele>3.5</ele>
        <time>2019-05-08T04:44:03Z</time>
      </trkpt>
      <trkpt lat="53.365998007357121" lon="10.52592602558434">
        <ele>3.02</ele>
        <time>2019-05-08T04:44:12Z</time>
      </trkpt>
      <trkpt lat="53.365402976050973" lon="10.530658029019833">
        <ele>3.98</ele>
        <time>2019-05-08T04:44:26Z</time>
      </trkpt>
      <trkpt lat="53.365332987159491" lon="10.530985007062554">
        <ele>3.5</ele>
        <time>2019-05-08T04:44:27Z</time>
      </trkpt>
      <trkpt lat="53.365236008539796" lon="10.531287007033825">
        <ele>3.98</ele>
        <time>2019-05-08T04:44:28Z</time>
      </trkpt>
      <trkpt lat="53.364642988890409" lon="10.533853964880109">
        <ele>2.06</ele>
        <time>2019-05-08T04:44:36Z</time>
      </trkpt>
      <trkpt lat="53.364570988342166" lon="10.536924004554749">
        <ele>-0.34</ele>
        <time>2019-05-08T04:44:45Z</time>
      </trkpt>
      <trkpt lat="53.364538969472051" lon="10.541602028533816">
        <ele>-2.75</ele>
        <time>2019-05-08T04:44:59Z</time>
      </trkpt>
      <trkpt lat="53.364770980551839" lon="10.543803032487631">
        <ele>-2.75</ele>
        <time>2019-05-08T04:45:06Z</time>
      </trkpt>
      <trkpt lat="53.365224022418261" lon="10.547253023833036">
        <ele>-0.82</ele>
        <time>2019-05-08T04:45:18Z</time>
      </trkpt>
      <trkpt lat="53.365056971088052" lon="10.548885986208916">
        <ele>-0.34</ele>
        <time>2019-05-08T04:45:26Z</time>
      </trkpt>
      <trkpt lat="53.364476021379232" lon="10.550520960241556">
        <ele>-0.34</ele>
        <time>2019-05-08T04:45:35Z</time>
      </trkpt>
      <trkpt lat="53.363748975098133" lon="10.552447037771344">
        <ele>0.14</ele>
        <time>2019-05-08T04:45:46Z</time>
      </trkpt>
      <trkpt lat="53.363702958449721" lon="10.552642000839114">
        <ele>0.14</ele>
        <time>2019-05-08T04:45:47Z</time>
      </trkpt>
      <trkpt lat="53.363673035055399" lon="10.552842998877168">
        <ele>0.14</ele>
        <time>2019-05-08T04:45:48Z</time>
      </trkpt>
      <trkpt lat="53.363572033122182" lon="10.553874978795648">
        <ele>1.58</ele>
        <time>2019-05-08T04:45:53Z</time>
      </trkpt>
      <trkpt lat="53.363561974838376" lon="10.554087040945888">
        <ele>1.58</ele>
        <time>2019-05-08T04:45:54Z</time>
      </trkpt>
      <trkpt lat="53.363567003980279" lon="10.554294995963573">
        <ele>1.58</ele>
        <time>2019-05-08T04:45:55Z</time>
      </trkpt>
      <trkpt lat="53.363583013415337" lon="10.554505968466401">
        <ele>2.06</ele>
        <time>2019-05-08T04:45:56Z</time>
      </trkpt>
      <trkpt lat="53.363600028678775" lon="10.554729010909796">
        <ele>2.06</ele>
        <time>2019-05-08T04:45:57Z</time>
      </trkpt>
      <trkpt lat="53.363625006750226" lon="10.554919028654695">
        <ele>2.54</ele>
        <time>2019-05-08T04:45:58Z</time>
      </trkpt>
      <trkpt lat="53.36369700729847" lon="10.555329993367195">
        <ele>2.54</ele>
        <time>2019-05-08T04:46:00Z</time>
      </trkpt>
      <trkpt lat="53.36440796032548" lon="10.55701601319015">
        <ele>6.87</ele>
        <time>2019-05-08T04:46:10Z</time>
      </trkpt>
      <trkpt lat="53.365015983581543" lon="10.558246979489923">
        <ele>10.710000000000001</ele>
        <time>2019-05-08T04:46:19Z</time>
      </trkpt>
      <trkpt lat="53.365203989669681" lon="10.558621985837817">
        <ele>13.119999999999999</ele>
        <time>2019-05-08T04:46:27Z</time>
      </trkpt>
      <trkpt lat="53.365427032113075" lon="10.559067986905575">
        <ele>15.039999999999999</ele>
        <time>2019-05-08T04:46:38Z</time>
      </trkpt>
      <trkpt lat="53.365904968231916" lon="10.560058979317546">
        <ele>17.440000000000001</ele>
        <time>2019-05-08T04:46:48Z</time>
      </trkpt>
      <trkpt lat="53.366087023168802" lon="10.560438008978963">
        <ele>17.440000000000001</ele>
        <time>2019-05-08T04:46:51Z</time>
      </trkpt>
      <trkpt lat="53.366150977090001" lon="10.560569018125534">
        <ele>16.960000000000001</ele>
        <time>2019-05-08T04:46:52Z</time>
      </trkpt>
      <trkpt lat="53.36668498814106" lon="10.561672998592257">
        <ele>14.56</ele>
        <time>2019-05-08T04:47:02Z</time>
      </trkpt>
      <trkpt lat="53.366988999769092" lon="10.562285967171192">
        <ele>15.039999999999999</ele>
        <time>2019-05-08T04:47:10Z</time>
      </trkpt>
      <trkpt lat="53.367052031680942" lon="10.562414964661002">
        <ele>15.52</ele>
        <time>2019-05-08T04:47:12Z</time>
      </trkpt>
      <trkpt lat="53.367493003606796" lon="10.563305038958788">
        <ele>16</ele>
        <time>2019-05-08T04:47:22Z</time>
      </trkpt>
      <trkpt lat="53.368191970512271" lon="10.564717976376414">
        <ele>16.48</ele>
        <time>2019-05-08T04:47:33Z</time>
      </trkpt>
      <trkpt lat="53.368787001818419" lon="10.565834026783705">
        <ele>17.440000000000001</ele>
        <time>2019-05-08T04:47:42Z</time>
      </trkpt>
      <trkpt lat="53.368863025680184" lon="10.565949026495218">
        <ele>16.960000000000001</ele>
        <time>2019-05-08T04:47:43Z</time>
      </trkpt>
      <trkpt lat="53.36894097737968" lon="10.566053967922926">
        <ele>16.960000000000001</ele>
        <time>2019-05-08T04:47:44Z</time>
      </trkpt>
      <trkpt lat="53.369033010676503" lon="10.566136026754975">
        <ele>16.48</ele>
        <time>2019-05-08T04:47:45Z</time>
      </trkpt>
      <trkpt lat="53.369114985689521" lon="10.566208027303219">
        <ele>16</ele>
        <time>2019-05-08T04:47:46Z</time>
      </trkpt>
      <trkpt lat="53.36977799423039" lon="10.56644800119102">
        <ele>14.08</ele>
        <time>2019-05-08T04:47:53Z</time>
      </trkpt>
      <trkpt lat="53.370131039991975" lon="10.566381029784679">
        <ele>13.119999999999999</ele>
        <time>2019-05-08T04:47:58Z</time>
      </trkpt>
      <trkpt lat="53.370173033326864" lon="10.566351022571325">
        <ele>13.119999999999999</ele>
        <time>2019-05-08T04:47:59Z</time>
      </trkpt>
      <trkpt lat="53.370377970859408" lon="10.566204003989697">
        <ele>12.630000000000001</ele>
        <time>2019-05-08T04:48:09Z</time>
      </trkpt>
      <trkpt lat="53.370568994432688" lon="10.566066959872842">
        <ele>11.67</ele>
        <time>2019-05-08T04:48:18Z</time>
      </trkpt>
      <trkpt lat="53.370806034654379" lon="10.565896974876523">
        <ele>10.710000000000001</ele>
        <time>2019-05-08T04:48:22Z</time>
      </trkpt>
      <trkpt lat="53.370873006060719" lon="10.565849030390382">
        <ele>10.23</ele>
        <time>2019-05-08T04:48:23Z</time>
      </trkpt>
      <trkpt lat="53.370947018265724" lon="10.565794967114925">
        <ele>10.23</ele>
        <time>2019-05-08T04:48:24Z</time>
      </trkpt>
      <trkpt lat="53.371640034019947" lon="10.565077979117632">
        <ele>7.35</ele>
        <time>2019-05-08T04:48:33Z</time>
      </trkpt>
      <trkpt lat="53.371726032346487" lon="10.565016036853194">
        <ele>7.83</ele>
        <time>2019-05-08T04:48:34Z</time>
      </trkpt>
      <trkpt lat="53.371810019016266" lon="10.564963985234499">
        <ele>7.83</ele>
        <time>2019-05-08T04:48:35Z</time>
      </trkpt>
      <trkpt lat="53.37190599180758" lon="10.564963985234499">
        <ele>7.83</ele>
        <time>2019-05-08T04:48:36Z</time>
      </trkpt>
      <trkpt lat="53.371997019276023" lon="10.564991980791092">
        <ele>7.83</ele>
        <time>2019-05-08T04:48:37Z</time>
      </trkpt>
      <trkpt lat="53.372078994289041" lon="10.565074039623141">
        <ele>8.310000000000001</ele>
        <time>2019-05-08T04:48:38Z</time>
      </trkpt>
      <trkpt lat="53.372157029807568" lon="10.565151991322637">
        <ele>8.310000000000001</ele>
        <time>2019-05-08T04:48:39Z</time>
      </trkpt>
      <trkpt lat="53.372219977900386" lon="10.56524695828557">
        <ele>8.310000000000001</ele>
        <time>2019-05-08T04:48:40Z</time>
      </trkpt>
      <trkpt lat="53.372261971235275" lon="10.565384002402425">
        <ele>8.789999999999999</ele>
        <time>2019-05-08T04:48:41Z</time>
      </trkpt>
      <trkpt lat="53.372294995933771" lon="10.565508976578712">
        <ele>8.789999999999999</ele>
        <time>2019-05-08T04:48:42Z</time>
      </trkpt>
      <trkpt lat="53.372309999540448" lon="10.565635962411761">
        <ele>8.310000000000001</ele>
        <time>2019-05-08T04:48:43Z</time>
      </trkpt>
      <trkpt lat="53.372326008975506" lon="10.565759008750319">
        <ele>8.310000000000001</ele>
        <time>2019-05-08T04:48:44Z</time>
      </trkpt>
      <trkpt lat="53.372334977611899" lon="10.565890017896891">
        <ele>7.83</ele>
        <time>2019-05-08T04:48:45Z</time>
      </trkpt>
      <trkpt lat="53.372347969561815" lon="10.566626032814384">
        <ele>7.35</ele>
        <time>2019-05-08T04:48:51Z</time>
      </trkpt>
      <trkpt lat="53.372349981218576" lon="10.566740026697516">
        <ele>7.35</ele>
        <time>2019-05-08T04:48:52Z</time>
      </trkpt>
      <trkpt lat="53.372376970946789" lon="10.567205976694822">
        <ele>8.310000000000001</ele>
        <time>2019-05-08T04:48:56Z</time>
      </trkpt>
      <trkpt lat="53.372459029778838" lon="10.567797990515828">
        <ele>8.789999999999999</ele>
        <time>2019-05-08T04:49:01Z</time>
      </trkpt>
      <trkpt lat="53.372492976486683" lon="10.568042993545532">
        <ele>8.789999999999999</ele>
        <time>2019-05-08T04:49:03Z</time>
      </trkpt>
      <trkpt lat="53.372527007013559" lon="10.568289002403617">
        <ele>9.27</ele>
        <time>2019-05-08T04:49:05Z</time>
      </trkpt>
      <trkpt lat="53.372544022276998" lon="10.568417999893427">
        <ele>9.75</ele>
        <time>2019-05-08T04:49:06Z</time>
      </trkpt>
      <trkpt lat="53.372561959549785" lon="10.568543979898095">
        <ele>10.23</ele>
        <time>2019-05-08T04:49:07Z</time>
      </trkpt>
      <trkpt lat="53.372776033356786" lon="10.570096978917718">
        <ele>12.630000000000001</ele>
        <time>2019-05-08T04:49:18Z</time>
      </trkpt>
      <trkpt lat="53.372803023084998" lon="10.570436026901007">
        <ele>12.630000000000001</ele>
        <time>2019-05-08T04:49:20Z</time>
      </trkpt>
      <trkpt lat="53.372801011428237" lon="10.570611963048577">
        <ele>13.119999999999999</ele>
        <time>2019-05-08T04:49:21Z</time>
      </trkpt>
      <trkpt lat="53.372793970629573" lon="10.570784965530038">
        <ele>13.119999999999999</ele>
        <time>2019-05-08T04:49:22Z</time>
      </trkpt>
      <trkpt lat="53.372740997001529" lon="10.571378991007805">
        <ele>13.6</ele>
        <time>2019-05-08T04:49:26Z</time>
      </trkpt>
      <trkpt lat="53.372721970081329" lon="10.57151896879077">
        <ele>13.119999999999999</ele>
        <time>2019-05-08T04:49:27Z</time>
      </trkpt>
      <trkpt lat="53.372584003955126" lon="10.573217980563641">
        <ele>10.710000000000001</ele>
        <time>2019-05-08T04:49:39Z</time>
      </trkpt>
      <trkpt lat="53.372531030327082" lon="10.574839962646365">
        <ele>7.35</ele>
        <time>2019-05-08T04:49:51Z</time>
      </trkpt>
      <trkpt lat="53.372538993135095" lon="10.574969965964556">
        <ele>7.83</ele>
        <time>2019-05-08T04:49:52Z</time>
      </trkpt>
      <trkpt lat="53.372629014775157" lon="10.575467012822628">
        <ele>8.310000000000001</ele>
        <time>2019-05-08T04:49:56Z</time>
      </trkpt>
      <trkpt lat="53.372972002252936" lon="10.576665038242936">
        <ele>9.75</ele>
        <time>2019-05-08T04:50:06Z</time>
      </trkpt>
      <trkpt lat="53.373116003349423" lon="10.577121013775468">
        <ele>9.27</ele>
        <time>2019-05-08T04:50:10Z</time>
      </trkpt>
      <trkpt lat="53.37360399775207" lon="10.578448958694935">
        <ele>12.15</ele>
        <time>2019-05-08T04:50:22Z</time>
      </trkpt>
      <trkpt lat="53.374158041551709" lon="10.579718984663486">
        <ele>13.119999999999999</ele>
        <time>2019-05-08T04:50:34Z</time>
      </trkpt>
      <trkpt lat="53.374200034886599" lon="10.579813029617071">
        <ele>13.6</ele>
        <time>2019-05-08T04:50:35Z</time>
      </trkpt>
      <trkpt lat="53.374258959665895" lon="10.579912019893527">
        <ele>13.6</ele>
        <time>2019-05-08T04:50:36Z</time>
      </trkpt>
      <trkpt lat="53.37456900626421" lon="10.580445025116205">
        <ele>12.630000000000001</ele>
        <time>2019-05-08T04:50:42Z</time>
      </trkpt>
      <trkpt lat="53.374680988490582" lon="10.580635964870453">
        <ele>12.15</ele>
        <time>2019-05-08T04:50:44Z</time>
      </trkpt>
      <trkpt lat="53.374792970716953" lon="10.580827994272113">
        <ele>11.67</ele>
        <time>2019-05-08T04:50:46Z</time>
      </trkpt>
      <trkpt lat="53.375353971496224" lon="10.581743968650699">
        <ele>11.67</ele>
        <time>2019-05-08T04:50:56Z</time>
      </trkpt>
      <trkpt lat="53.375411974266171" lon="10.581829966977239">
        <ele>12.15</ele>
        <time>2019-05-08T04:50:57Z</time>
      </trkpt>
      <trkpt lat="53.376055033877492" lon="10.582593977451324">
        <ele>14.08</ele>
        <time>2019-05-08T04:51:07Z</time>
      </trkpt>
      <trkpt lat="53.376110019162297" lon="10.582616021856666">
        <ele>14.08</ele>
        <time>2019-05-08T04:51:08Z</time>
      </trkpt>
      <trkpt lat="53.376151006668806" lon="10.582633037120104">
        <ele>14.08</ele>
        <time>2019-05-08T04:51:09Z</time>
      </trkpt>
      <trkpt lat="53.37618101388216" lon="10.58264602907002">
        <ele>14.08</ele>
        <time>2019-05-08T04:51:10Z</time>
      </trkpt>
      <trkpt lat="53.376201968640089" lon="10.582654997706413">
        <ele>14.08</ele>
        <time>2019-05-08T04:51:11Z</time>
      </trkpt>
      <trkpt lat="53.376201968640089" lon="10.582654997706413">
        <ele>14.08</ele>
        <time>2019-05-08T04:51:24Z</time>
      </trkpt>
      <trkpt lat="53.376280004158616" lon="10.582687016576529">
        <ele>14.56</ele>
        <time>2019-05-08T04:51:27Z</time>
      </trkpt>
      <trkpt lat="53.376705972477794" lon="10.582742001861334">
        <ele>15.039999999999999</ele>
        <time>2019-05-08T04:51:34Z</time>
      </trkpt>
      <trkpt lat="53.376764981076121" lon="10.58277502655983">
        <ele>15.52</ele>
        <time>2019-05-08T04:51:35Z</time>
      </trkpt>
      <trkpt lat="53.376850979402661" lon="10.582767985761166">
        <ele>15.52</ele>
        <time>2019-05-08T04:51:36Z</time>
      </trkpt>
      <trkpt lat="53.376876041293144" lon="10.582661032676697">
        <ele>15.52</ele>
        <time>2019-05-08T04:51:37Z</time>
      </trkpt>
      <trkpt lat="53.376902025192976" lon="10.582545027136803">
        <ele>15.52</ele>
        <time>2019-05-08T04:51:38Z</time>
      </trkpt>
      <trkpt lat="53.376930020749569" lon="10.582428015768528">
        <ele>15.52</ele>
        <time>2019-05-08T04:51:39Z</time>
      </trkpt>
      <trkpt lat="53.376959022134542" lon="10.58230597525835">
        <ele>15.52</ele>
        <time>2019-05-08T04:51:40Z</time>
      </trkpt>
      <trkpt lat="53.376990035176277" lon="10.58217697776854">
        <ele>15.52</ele>
        <time>2019-05-08T04:51:41Z</time>
      </trkpt>
      <trkpt lat="53.377048959955573" lon="10.581523021683097">
        <ele>15.039999999999999</ele>
        <time>2019-05-08T04:51:45Z</time>
      </trkpt>
      <trkpt lat="53.377096988260746" lon="10.579601973295212">
        <ele>16</ele>
        <time>2019-05-08T04:51:55Z</time>
      </trkpt>
      <trkpt lat="53.377087013795972" lon="10.579413967207074">
        <ele>16.48</ele>
        <time>2019-05-08T04:51:56Z</time>
      </trkpt>
      <trkpt lat="53.376720976084471" lon="10.577775975689292">
        <ele>21.289999999999999</ele>
        <time>2019-05-08T04:52:05Z</time>
      </trkpt>
      <trkpt lat="53.376363990828395" lon="10.576812978833914">
        <ele>24.649999999999999</ele>
        <time>2019-05-08T04:52:11Z</time>
      </trkpt>
      <trkpt lat="53.376272963359952" lon="10.576685993000865">
        <ele>25.609999999999999</ele>
        <time>2019-05-08T04:52:12Z</time>
      </trkpt>
      <trkpt lat="53.375809025019407" lon="10.575990965589881">
        <ele>27.050000000000001</ele>
        <time>2019-05-08T04:52:17Z</time>
      </trkpt>
      <trkpt lat="53.375739958137274" lon="10.57581796310842">
        <ele>27.530000000000001</ele>
        <time>2019-05-08T04:52:18Z</time>
      </trkpt>
      <trkpt lat="53.375681033357978" lon="10.575633980333805">
        <ele>28.02</ele>
        <time>2019-05-08T04:52:19Z</time>
      </trkpt>
      <trkpt lat="53.375625964254141" lon="10.575444968417287">
        <ele>28.5</ele>
        <time>2019-05-08T04:52:20Z</time>
      </trkpt>
      <trkpt lat="53.37560098618269" lon="10.575242964550853">
        <ele>28.98</ele>
        <time>2019-05-08T04:52:21Z</time>
      </trkpt>
      <trkpt lat="53.37558195926249" lon="10.575037021189928">
        <ele>29.460000000000001</ele>
        <time>2019-05-08T04:52:22Z</time>
      </trkpt>
      <trkpt lat="53.375573996454477" lon="10.574836023151875">
        <ele>29.940000000000001</ele>
        <time>2019-05-08T04:52:23Z</time>
      </trkpt>
      <trkpt lat="53.375573996454477" lon="10.574631001800299">
        <ele>30.420000000000002</ele>
        <time>2019-05-08T04:52:24Z</time>
      </trkpt>
      <trkpt lat="53.375573996454477" lon="10.573576977476478">
        <ele>33.780000000000001</ele>
        <time>2019-05-08T04:52:29Z</time>
      </trkpt>
      <trkpt lat="53.375573996454477" lon="10.573362987488508">
        <ele>34.259999999999998</ele>
        <time>2019-05-08T04:52:30Z</time>
      </trkpt>
      <trkpt lat="53.375573996454477" lon="10.573156960308552">
        <ele>34.740000000000002</ele>
        <time>2019-05-08T04:52:31Z</time>
      </trkpt>
      <trkpt lat="53.375573996454477" lon="10.571148991584778">
        <ele>39.07</ele>
        <time>2019-05-08T04:52:41Z</time>
      </trkpt>
      <trkpt lat="53.375573996454477" lon="10.569457020610571">
        <ele>44.359999999999999</ele>
        <time>2019-05-08T04:52:51Z</time>
      </trkpt>
      <trkpt lat="53.375518005341291" lon="10.567707968875766">
        <ele>48.200000000000003</ele>
        <time>2019-05-08T04:53:01Z</time>
      </trkpt>
      <trkpt lat="53.375497972592711" lon="10.567573020234704">
        <ele>47.719999999999999</ele>
        <time>2019-05-08T04:53:02Z</time>
      </trkpt>
      <trkpt lat="53.375236038118601" lon="10.565856993198395">
        <ele>49.649999999999999</ele>
        <time>2019-05-08T04:53:15Z</time>
      </trkpt>
      <trkpt lat="53.37519396096468" lon="10.565604027360678">
        <ele>49.649999999999999</ele>
        <time>2019-05-08T04:53:17Z</time>
      </trkpt>
      <trkpt lat="53.375173006206751" lon="10.565474024042487">
        <ele>50.130000000000003</ele>
        <time>2019-05-08T04:53:18Z</time>
      </trkpt>
      <trkpt lat="53.37510896846652" lon="10.565091976895928">
        <ele>51.090000000000003</ele>
        <time>2019-05-08T04:53:21Z</time>
      </trkpt>
      <trkpt lat="53.375088013708591" lon="10.564967002719641">
        <ele>51.57</ele>
        <time>2019-05-08T04:53:22Z</time>
      </trkpt>
      <trkpt lat="53.374836975708604" lon="10.563541995361447">
        <ele>54.93</ele>
        <time>2019-05-08T04:53:33Z</time>
      </trkpt>
      <trkpt lat="53.374674031510949" lon="10.56258000433445">
        <ele>54.93</ele>
        <time>2019-05-08T04:53:41Z</time>
      </trkpt>
      <trkpt lat="53.374641006812453" lon="10.562384035438299">
        <ele>54.450000000000003</ele>
        <time>2019-05-08T04:53:43Z</time>
      </trkpt>
      <trkpt lat="53.374624997377396" lon="10.562290996313095">
        <ele>54.450000000000003</ele>
        <time>2019-05-08T04:53:44Z</time>
      </trkpt>
      <trkpt lat="53.374575041234493" lon="10.561996037140489">
        <ele>53.969999999999999</ele>
        <time>2019-05-08T04:53:47Z</time>
      </trkpt>
      <trkpt lat="53.37450597435236" lon="10.561541989445686">
        <ele>53.490000000000002</ele>
        <time>2019-05-08T04:53:51Z</time>
      </trkpt>
      <trkpt lat="53.374480996280909" lon="10.561407040804625">
        <ele>53.490000000000002</ele>
        <time>2019-05-08T04:53:52Z</time>
      </trkpt>
      <trkpt lat="53.374320985749364" lon="10.559932999312878">
        <ele>48.68</ele>
        <time>2019-05-08T04:54:02Z</time>
      </trkpt>
      <trkpt lat="53.374264994636178" lon="10.559149039909244">
        <ele>46.280000000000001</ele>
        <time>2019-05-08T04:54:09Z</time>
      </trkpt>
      <trkpt lat="53.374259965494275" lon="10.559075027704239">
        <ele>46.759999999999998</ele>
        <time>2019-05-08T04:54:10Z</time>
      </trkpt>
      <trkpt lat="53.374256025999784" lon="10.559007972478867">
        <ele>46.280000000000001</ele>
        <time>2019-05-08T04:54:11Z</time>
      </trkpt>
      <trkpt lat="53.374252002686262" lon="10.558956004679203">
        <ele>46.280000000000001</ele>
        <time>2019-05-08T04:54:12Z</time>
      </trkpt>
      <trkpt lat="53.37424898520112" lon="10.558915017172694">
        <ele>45.799999999999997</ele>
        <time>2019-05-08T04:54:13Z</time>
      </trkpt>
      <trkpt lat="53.374246973544359" lon="10.558887021616101">
        <ele>45.32</ele>
        <time>2019-05-08T04:54:25Z</time>
      </trkpt>
      <trkpt lat="53.374221995472908" lon="10.558504974469543">
        <ele>43.880000000000003</ele>
        <time>2019-05-08T04:54:41Z</time>
      </trkpt>
      <trkpt lat="53.374221995472908" lon="10.557886976748705">
        <ele>40.509999999999998</ele>
        <time>2019-05-08T04:54:47Z</time>
      </trkpt>
      <trkpt lat="53.374221995472908" lon="10.557794021442533">
        <ele>40.509999999999998</ele>
        <time>2019-05-08T04:54:48Z</time>
      </trkpt>
      <trkpt lat="53.374281004071236" lon="10.557699976488948">
        <ele>40.030000000000001</ele>
        <time>2019-05-08T04:54:49Z</time>
      </trkpt>
      <trkpt lat="53.374327020719647" lon="10.557674998417497">
        <ele>39.07</ele>
        <time>2019-05-08T04:54:50Z</time>
      </trkpt>
      <trkpt lat="53.374382006004453" lon="10.557644991204143">
        <ele>38.590000000000003</ele>
        <time>2019-05-08T04:54:51Z</time>
      </trkpt>
      <trkpt lat="53.374444032087922" lon="10.557610038667917">
        <ele>38.109999999999999</ele>
        <time>2019-05-08T04:54:52Z</time>
      </trkpt>
      <trkpt lat="53.374514020979404" lon="10.557571984827518">
        <ele>37.630000000000003</ele>
        <time>2019-05-08T04:54:53Z</time>
      </trkpt>
      <trkpt lat="53.374589961022139" lon="10.55753099732101">
        <ele>37.630000000000003</ele>
        <time>2019-05-08T04:54:54Z</time>
      </trkpt>
      <trkpt lat="53.374667996540666" lon="10.55748799815774">
        <ele>37.149999999999999</ele>
        <time>2019-05-08T04:54:55Z</time>
      </trkpt>
      <trkpt lat="53.37482800707221" lon="10.557405017316341">
        <ele>36.670000000000002</ele>
        <time>2019-05-08T04:54:57Z</time>
      </trkpt>
      <trkpt lat="53.374909982085228" lon="10.557363023981452">
        <ele>36.670000000000002</ele>
        <time>2019-05-08T04:54:58Z</time>
      </trkpt>
      <trkpt lat="53.375240983441472" lon="10.557190021499991">
        <ele>36.670000000000002</ele>
        <time>2019-05-08T04:55:02Z</time>
      </trkpt>
      <trkpt lat="53.37532396428287" lon="10.557147022336721">
        <ele>37.149999999999999</ele>
        <time>2019-05-08T04:55:03Z</time>
      </trkpt>
      <trkpt lat="53.375491015613079" lon="10.557060018181801">
        <ele>37.630000000000003</ele>
        <time>2019-05-08T04:55:05Z</time>
      </trkpt>
      <trkpt lat="53.375573996454477" lon="10.557018024846911">
        <ele>38.590000000000003</ele>
        <time>2019-05-08T04:55:06Z</time>
      </trkpt>
      <trkpt lat="53.375647002831101" lon="10.556978965178132">
        <ele>39.07</ele>
        <time>2019-05-08T04:55:07Z</time>
      </trkpt>
      <trkpt lat="53.375711962580681" lon="10.556946024298668">
        <ele>39.549999999999997</ele>
        <time>2019-05-08T04:55:08Z</time>
      </trkpt>
      <trkpt lat="53.375767031684518" lon="10.556917022913694">
        <ele>40.509999999999998</ele>
        <time>2019-05-08T04:55:09Z</time>
      </trkpt>
      <trkpt lat="53.375850012525916" lon="10.556867988780141">
        <ele>40.990000000000002</ele>
        <time>2019-05-08T04:55:10Z</time>
      </trkpt>
      <trkpt lat="53.376261983066797" lon="10.556718036532402">
        <ele>44.359999999999999</ele>
        <time>2019-05-08T04:55:15Z</time>
      </trkpt>
      <trkpt lat="53.377227997407317" lon="10.556379994377494">
        <ele>51.090000000000003</ele>
        <time>2019-05-08T04:55:27Z</time>
      </trkpt>
      <trkpt lat="53.37751398794353" lon="10.556266000494361">
        <ele>51.57</ele>
        <time>2019-05-08T04:55:31Z</time>
      </trkpt>
      <trkpt lat="53.377581965178251" lon="10.556239010766149">
        <ele>51.57</ele>
        <time>2019-05-08T04:55:32Z</time>
      </trkpt>
      <trkpt lat="53.377651032060385" lon="10.556211015209556">
        <ele>52.049999999999997</ele>
        <time>2019-05-08T04:55:33Z</time>
      </trkpt>
      <trkpt lat="53.377722026780248" lon="10.556182013824582">
        <ele>52.049999999999997</ele>
        <time>2019-05-08T04:55:34Z</time>
      </trkpt>
      <trkpt lat="53.377795033156872" lon="10.556153012439609">
        <ele>52.049999999999997</ele>
        <time>2019-05-08T04:55:35Z</time>
      </trkpt>
      <trkpt lat="53.377868961542845" lon="10.556124011054635">
        <ele>52.049999999999997</ele>
        <time>2019-05-08T04:55:36Z</time>
      </trkpt>
      <trkpt lat="53.378700027242303" lon="10.555584970861673">
        <ele>52.049999999999997</ele>
        <time>2019-05-08T04:55:46Z</time>
      </trkpt>
      <trkpt lat="53.378803040832281" lon="10.555498972535133">
        <ele>52.530000000000001</ele>
        <time>2019-05-08T04:55:47Z</time>
      </trkpt>
      <trkpt lat="53.379209982231259" lon="10.555152967572212">
        <ele>53.009999999999998</ele>
        <time>2019-05-08T04:55:51Z</time>
      </trkpt>
      <trkpt lat="53.379409974440932" lon="10.554983988404274">
        <ele>52.530000000000001</ele>
        <time>2019-05-08T04:55:53Z</time>
      </trkpt>
      <trkpt lat="53.380322009325027" lon="10.55448199622333">
        <ele>51.090000000000003</ele>
        <time>2019-05-08T04:56:02Z</time>
      </trkpt>
      <trkpt lat="53.381761014461517" lon="10.553709017112851">
        <ele>51.57</ele>
        <time>2019-05-08T04:56:16Z</time>
      </trkpt>
      <trkpt lat="53.383138999342918" lon="10.553440963849425">
        <ele>51.090000000000003</ele>
        <time>2019-05-08T04:56:28Z</time>
      </trkpt>
      <trkpt lat="53.383764959871769" lon="10.553620001301169">
        <ele>51.090000000000003</ele>
        <time>2019-05-08T04:56:33Z</time>
      </trkpt>
      <trkpt lat="53.385231038555503" lon="10.554368002340198">
        <ele>49.159999999999997</ele>
        <time>2019-05-08T04:56:44Z</time>
      </trkpt>
      <trkpt lat="53.387175975367427" lon="10.555437030270696">
        <ele>51.090000000000003</ele>
        <time>2019-05-08T04:56:58Z</time>
      </trkpt>
      <trkpt lat="53.38881497271359" lon="10.556297013536096">
        <ele>53.969999999999999</ele>
        <time>2019-05-08T04:57:09Z</time>
      </trkpt>
      <trkpt lat="53.389195008203387" lon="10.556373037397861">
        <ele>53.969999999999999</ele>
        <time>2019-05-08T04:57:11Z</time>
      </trkpt>
      <trkpt lat="53.390260012820363" lon="10.556312017142773">
        <ele>53.969999999999999</ele>
        <time>2019-05-08T04:57:16Z</time>
      </trkpt>
      <trkpt lat="53.391976039856672" lon="10.555516993626952">
        <ele>50.609999999999999</ele>
        <time>2019-05-08T04:57:23Z</time>
      </trkpt>
      <trkpt lat="53.393923994153738" lon="10.554993962869048">
        <ele>46.759999999999998</ele>
        <time>2019-05-08T04:57:31Z</time>
      </trkpt>
      <trkpt lat="53.395544970408082" lon="10.555567033588886">
        <ele>46.280000000000001</ele>
        <time>2019-05-08T04:57:38Z</time>
      </trkpt>
      <trkpt lat="53.398472014814615" lon="10.557512976229191">
        <ele>43.880000000000003</ele>
        <time>2019-05-08T04:57:51Z</time>
      </trkpt>
      <trkpt lat="53.401051964610815" lon="10.558685017749667">
        <ele>41.469999999999999</ele>
        <time>2019-05-08T04:58:02Z</time>
      </trkpt>
      <trkpt lat="53.403572989627719" lon="10.559614989906549">
        <ele>38.109999999999999</ele>
        <time>2019-05-08T04:58:13Z</time>
      </trkpt>
      <trkpt lat="53.406035006046295" lon="10.560634983703494">
        <ele>38.109999999999999</ele>
        <time>2019-05-08T04:58:24Z</time>
      </trkpt>
      <trkpt lat="53.407051982358098" lon="10.561431013047695">
        <ele>37.149999999999999</ele>
        <time>2019-05-08T04:58:29Z</time>
      </trkpt>
      <trkpt lat="53.408796004951" lon="10.563823040574789">
        <ele>37.630000000000003</ele>
        <time>2019-05-08T04:58:39Z</time>
      </trkpt>
      <trkpt lat="53.410548996180296" lon="10.566327972337604">
        <ele>42.439999999999998</ele>
        <time>2019-05-08T04:58:48Z</time>
      </trkpt>
      <trkpt lat="53.413527002558112" lon="10.570538034662604">
        <ele>46.280000000000001</ele>
        <time>2019-05-08T04:59:02Z</time>
      </trkpt>
      <trkpt lat="53.416825029999018" lon="10.575158977881074">
        <ele>48.200000000000003</ele>
        <time>2019-05-08T04:59:17Z</time>
      </trkpt>
      <trkpt lat="53.417914006859064" lon="10.576702002435923">
        <ele>48.68</ele>
        <time>2019-05-08T04:59:23Z</time>
      </trkpt>
      <trkpt lat="53.419242035597563" lon="10.57856597006321">
        <ele>48.200000000000003</ele>
        <time>2019-05-08T04:59:33Z</time>
      </trkpt>
      <trkpt lat="53.420614991337061" lon="10.580545021221042">
        <ele>48.200000000000003</ele>
        <time>2019-05-08T04:59:44Z</time>
      </trkpt>
      <trkpt lat="53.422056008130312" lon="10.583146009594202">
        <ele>47.240000000000002</ele>
        <time>2019-05-08T04:59:55Z</time>
      </trkpt>
      <trkpt lat="53.423988036811352" lon="10.587564026936889">
        <ele>47.719999999999999</ele>
        <time>2019-05-08T05:00:10Z</time>
      </trkpt>
      <trkpt lat="53.425624016672373" lon="10.591376032680273">
        <ele>47.719999999999999</ele>
        <time>2019-05-08T05:00:21Z</time>
      </trkpt>
      <trkpt lat="53.427606001496315" lon="10.596057996153831">
        <ele>34.740000000000002</ele>
        <time>2019-05-08T05:00:34Z</time>
      </trkpt>
      <trkpt lat="53.429269976913929" lon="10.599593985825777">
        <ele>23.690000000000001</ele>
        <time>2019-05-08T05:00:44Z</time>
      </trkpt>
      <trkpt lat="53.430599011480808" lon="10.600981023162603">
        <ele>18.399999999999999</ele>
        <time>2019-05-08T05:00:50Z</time>
      </trkpt>
      <trkpt lat="53.43356997705996" lon="10.602720016613603">
        <ele>16</ele>
        <time>2019-05-08T05:01:02Z</time>
      </trkpt>
      <trkpt lat="53.436714028939605" lon="10.604547020047903">
        <ele>14.56</ele>
        <time>2019-05-08T05:01:15Z</time>
      </trkpt>
      <trkpt lat="53.439661022275686" lon="10.606252988800406">
        <ele>15.039999999999999</ele>
        <time>2019-05-08T05:01:28Z</time>
      </trkpt>
      <trkpt lat="53.442767020314932" lon="10.608050990849733">
        <ele>15.52</ele>
        <time>2019-05-08T05:01:42Z</time>
      </trkpt>
      <trkpt lat="53.445158964022994" lon="10.609426964074373">
        <ele>17.920000000000002</ele>
        <time>2019-05-08T05:01:53Z</time>
      </trkpt>
      <trkpt lat="53.446680027991533" lon="10.610311003401875">
        <ele>17.920000000000002</ele>
        <time>2019-05-08T05:02:02Z</time>
      </trkpt>
      <trkpt lat="53.448181981220841" lon="10.611111978068948">
        <ele>15.52</ele>
        <time>2019-05-08T05:02:14Z</time>
      </trkpt>
      <trkpt lat="53.449851991608739" lon="10.611959975212812">
        <ele>11.67</ele>
        <time>2019-05-08T05:02:27Z</time>
      </trkpt>
      <trkpt lat="53.451773039996624" lon="10.612922972068191">
        <ele>11.67</ele>
        <time>2019-05-08T05:02:41Z</time>
      </trkpt>
      <trkpt lat="53.453343976289034" lon="10.613932991400361">
        <ele>15.52</ele>
        <time>2019-05-08T05:02:52Z</time>
      </trkpt>
      <trkpt lat="53.454252993687987" lon="10.615203017368913">
        <ele>16.960000000000001</ele>
        <time>2019-05-08T05:02:58Z</time>
      </trkpt>
      <trkpt lat="53.455882016569376" lon="10.618024030700326">
        <ele>18.399999999999999</ele>
        <time>2019-05-08T05:03:08Z</time>
      </trkpt>
      <trkpt lat="53.457784960046411" lon="10.62082601711154">
        <ele>18.399999999999999</ele>
        <time>2019-05-08T05:03:18Z</time>
      </trkpt>
      <trkpt lat="53.459542980417609" lon="10.622463002800941">
        <ele>18.399999999999999</ele>
        <time>2019-05-08T05:03:26Z</time>
      </trkpt>
      <trkpt lat="53.461501998826861" lon="10.623478973284364">
        <ele>18.399999999999999</ele>
        <time>2019-05-08T05:03:34Z</time>
      </trkpt>
      <trkpt lat="53.464094018563628" lon="10.623794971033931">
        <ele>17.920000000000002</ele>
        <time>2019-05-08T05:03:44Z</time>
      </trkpt>
      <trkpt lat="53.467177972197533" lon="10.623806035146117">
        <ele>18.399999999999999</ele>
        <time>2019-05-08T05:03:56Z</time>
      </trkpt>
      <trkpt lat="53.46854598261416" lon="10.623788014054298">
        <ele>16.48</ele>
        <time>2019-05-08T05:04:03Z</time>
      </trkpt>
      <trkpt lat="53.469940982758999" lon="10.6237499602139">
        <ele>16</ele>
        <time>2019-05-08T05:04:12Z</time>
      </trkpt>
      <trkpt lat="53.471320979297161" lon="10.623696986585855">
        <ele>18.399999999999999</ele>
        <time>2019-05-08T05:04:23Z</time>
      </trkpt>
      <trkpt lat="53.472208036109805" lon="10.623629009351134">
        <ele>19.359999999999999</ele>
        <time>2019-05-08T05:04:30Z</time>
      </trkpt>
      <trkpt lat="53.473427016288042" lon="10.623017968609929">
        <ele>19.359999999999999</ele>
        <time>2019-05-08T05:04:40Z</time>
      </trkpt>
      <trkpt lat="53.474499983713031" lon="10.622424026951194">
        <ele>17.440000000000001</ele>
        <time>2019-05-08T05:04:49Z</time>
      </trkpt>
      <trkpt lat="53.475487036630511" lon="10.621840981766582">
        <ele>17.440000000000001</ele>
        <time>2019-05-08T05:04:58Z</time>
      </trkpt>
      <trkpt lat="53.475719969719648" lon="10.621688012033701">
        <ele>16.960000000000001</ele>
        <time>2019-05-08T05:05:00Z</time>
      </trkpt>
      <trkpt lat="53.475833041593432" lon="10.621597990393639">
        <ele>16.960000000000001</ele>
        <time>2019-05-08T05:05:01Z</time>
      </trkpt>
      <trkpt lat="53.475935971364379" lon="10.621480979025364">
        <ele>16.48</ele>
        <time>2019-05-08T05:05:02Z</time>
      </trkpt>
      <trkpt lat="53.476847000420094" lon="10.62005203217268">
        <ele>14.08</ele>
        <time>2019-05-08T05:05:12Z</time>
      </trkpt>
      <trkpt lat="53.47789297811687" lon="10.618217987939715">
        <ele>13.6</ele>
        <time>2019-05-08T05:05:24Z</time>
      </trkpt>
      <trkpt lat="53.478582976385951" lon="10.616967994719744">
        <ele>16.960000000000001</ele>
        <time>2019-05-08T05:05:32Z</time>
      </trkpt>
      <trkpt lat="53.478883970528841" lon="10.616383021697402">
        <ele>18.879999999999999</ele>
        <time>2019-05-08T05:05:37Z</time>
      </trkpt>
      <trkpt lat="53.478947002440691" lon="10.616203984245658">
        <ele>18.879999999999999</ele>
        <time>2019-05-08T05:05:40Z</time>
      </trkpt>
      <trkpt lat="53.478957982733846" lon="10.616171965375543">
        <ele>18.879999999999999</ele>
        <time>2019-05-08T05:05:41Z</time>
      </trkpt>
      <trkpt lat="53.47896602936089" lon="10.616146987304091">
        <ele>19.359999999999999</ele>
        <time>2019-05-08T05:05:42Z</time>
      </trkpt>
      <trkpt lat="53.478996958583593" lon="10.61605897732079">
        <ele>19.84</ele>
        <time>2019-05-08T05:05:54Z</time>
      </trkpt>
      <trkpt lat="53.479042975232005" lon="10.61592604033649">
        <ele>20.32</ele>
        <time>2019-05-08T05:05:56Z</time>
      </trkpt>
      <trkpt lat="53.479071976616979" lon="10.615829983726144">
        <ele>20.32</ele>
        <time>2019-05-08T05:05:57Z</time>
      </trkpt>
      <trkpt lat="53.479161998257041" lon="10.615761000663042">
        <ele>20.32</ele>
        <time>2019-05-08T05:05:58Z</time>
      </trkpt>
      <trkpt lat="53.479210026562214" lon="10.615806011483073">
        <ele>20.809999999999999</ele>
        <time>2019-05-08T05:05:59Z</time>
      </trkpt>
      <trkpt lat="53.47926702350378" lon="10.615857979282737">
        <ele>20.809999999999999</ele>
        <time>2019-05-08T05:06:00Z</time>
      </trkpt>
      <trkpt lat="53.479365007951856" lon="10.615946995094419">
        <ele>20.809999999999999</ele>
        <time>2019-05-08T05:06:01Z</time>
      </trkpt>
      <trkpt lat="53.479533987119794" lon="10.616240026429296">
        <ele>20.809999999999999</ele>
        <time>2019-05-08T05:06:05Z</time>
      </trkpt>
      <trkpt lat="53.479580003768206" lon="10.616349996998906">
        <ele>20.809999999999999</ele>
        <time>2019-05-08T05:06:06Z</time>
      </trkpt>
      <trkpt lat="53.479627026244998" lon="10.61646499671042">
        <ele>20.32</ele>
        <time>2019-05-08T05:06:07Z</time>
      </trkpt>
      <trkpt lat="53.479663990437984" lon="10.616586031392217">
        <ele>20.32</ele>
        <time>2019-05-08T05:06:08Z</time>
      </trkpt>
      <trkpt lat="53.479693997651339" lon="10.616707988083363">
        <ele>20.32</ele>
        <time>2019-05-08T05:06:09Z</time>
      </trkpt>
      <trkpt lat="53.479715036228299" lon="10.616831034421921">
        <ele>20.32</ele>
        <time>2019-05-08T05:06:10Z</time>
      </trkpt>
      <trkpt lat="53.479724004864693" lon="10.616928013041615">
        <ele>20.32</ele>
        <time>2019-05-08T05:06:11Z</time>
      </trkpt>
      <trkpt lat="53.479731967672706" lon="10.617005964741111">
        <ele>20.32</ele>
        <time>2019-05-08T05:06:12Z</time>
      </trkpt>
      <trkpt lat="53.479738002642989" lon="10.617062039673328">
        <ele>20.32</ele>
        <time>2019-05-08T05:06:13Z</time>
      </trkpt>
      <trkpt lat="53.479742025956511" lon="10.617102021351457">
        <ele>20.32</ele>
        <time>2019-05-08T05:06:14Z</time>
      </trkpt>
      <trkpt lat="53.479745965451002" lon="10.617138985544443">
        <ele>20.32</ele>
        <time>2019-05-08T05:06:15Z</time>
      </trkpt>
      <trkpt lat="53.479747977107763" lon="10.617166981101036">
        <ele>20.32</ele>
        <time>2019-05-08T05:06:16Z</time>
      </trkpt>
      <trkpt lat="53.479747977107763" lon="10.617166981101036">
        <ele>20.32</ele>
        <time>2019-05-08T05:06:31Z</time>
      </trkpt>
      <trkpt lat="53.479747977107763" lon="10.617166981101036">
        <ele>20.32</ele>
        <time>2019-05-08T05:06:42Z</time>
      </trkpt>
      <trkpt lat="53.479806985706091" lon="10.617765029892325">
        <ele>20.32</ele>
        <time>2019-05-08T05:06:48Z</time>
      </trkpt>
      <trkpt lat="53.479831963777542" lon="10.618040040135384">
        <ele>19.84</ele>
        <time>2019-05-08T05:06:50Z</time>
      </trkpt>
      <trkpt lat="53.479859037324786" lon="10.618342040106654">
        <ele>19.84</ele>
        <time>2019-05-08T05:06:52Z</time>
      </trkpt>
      <trkpt lat="53.479961967095733" lon="10.619379971176386">
        <ele>18.879999999999999</ele>
        <time>2019-05-08T05:06:59Z</time>
      </trkpt>
      <trkpt lat="53.480074033141136" lon="10.620926013216376">
        <ele>17.920000000000002</ele>
        <time>2019-05-08T05:07:07Z</time>
      </trkpt>
      <trkpt lat="53.48006296902895" lon="10.621818015351892">
        <ele>17.440000000000001</ele>
        <time>2019-05-08T05:07:11Z</time>
      </trkpt>
      <trkpt lat="53.48004000261426" lon="10.62205103226006">
        <ele>16.960000000000001</ele>
        <time>2019-05-08T05:07:12Z</time>
      </trkpt>
      <trkpt lat="53.479894995689392" lon="10.622790986672044">
        <ele>16.48</ele>
        <time>2019-05-08T05:07:15Z</time>
      </trkpt>
      <trkpt lat="53.479370037093759" lon="10.624819993972778">
        <ele>15.52</ele>
        <time>2019-05-08T05:07:23Z</time>
      </trkpt>
      <trkpt lat="53.479304993525147" lon="10.625357022508979">
        <ele>15.52</ele>
        <time>2019-05-08T05:07:25Z</time>
      </trkpt>
      <trkpt lat="53.479299964383245" lon="10.625630021095276">
        <ele>15.52</ele>
        <time>2019-05-08T05:07:26Z</time>
      </trkpt>
      <trkpt lat="53.47941898740828" lon="10.628170995041728">
        <ele>13.119999999999999</ele>
        <time>2019-05-08T05:07:35Z</time>
      </trkpt>
      <trkpt lat="53.479540022090077" lon="10.630080979317427">
        <ele>12.630000000000001</ele>
        <time>2019-05-08T05:07:43Z</time>
      </trkpt>
      <trkpt lat="53.479557037353516" lon="10.630320031195879">
        <ele>14.08</ele>
        <time>2019-05-08T05:07:49Z</time>
      </trkpt>
      <trkpt lat="53.479584027081728" lon="10.630758991464972">
        <ele>15.52</ele>
        <time>2019-05-08T05:08:01Z</time>
      </trkpt>
      <trkpt lat="53.479681005701423" lon="10.632351972162724">
        <ele>17.440000000000001</ele>
        <time>2019-05-08T05:08:11Z</time>
      </trkpt>
      <trkpt lat="53.479808997362852" lon="10.634143017232418">
        <ele>15.039999999999999</ele>
        <time>2019-05-08T05:08:20Z</time>
      </trkpt>
      <trkpt lat="53.480038996785879" lon="10.636996971443295">
        <ele>15.039999999999999</ele>
        <time>2019-05-08T05:08:32Z</time>
      </trkpt>
      <trkpt lat="53.480381984263659" lon="10.638270014896989">
        <ele>18.879999999999999</ele>
        <time>2019-05-08T05:08:39Z</time>
      </trkpt>
      <trkpt lat="53.480955976992846" lon="10.639792000874877">
        <ele>22.73</ele>
        <time>2019-05-08T05:08:50Z</time>
      </trkpt>
      <trkpt lat="53.481762986630201" lon="10.641911029815674">
        <ele>23.210000000000001</ele>
        <time>2019-05-08T05:09:01Z</time>
      </trkpt>
      <trkpt lat="53.482784992083907" lon="10.644674962386489">
        <ele>22.73</ele>
        <time>2019-05-08T05:09:13Z</time>
      </trkpt>
      <trkpt lat="53.483972037211061" lon="10.647912975400686">
        <ele>23.210000000000001</ele>
        <time>2019-05-08T05:09:25Z</time>
      </trkpt>
      <trkpt lat="53.485548002645373" lon="10.652211969718337">
        <ele>23.210000000000001</ele>
        <time>2019-05-08T05:09:41Z</time>
      </trkpt>
      <trkpt lat="53.48695800639689" lon="10.656025987118483">
        <ele>24.170000000000002</ele>
        <time>2019-05-08T05:09:54Z</time>
      </trkpt>
      <trkpt lat="53.488203976303339" lon="10.658751027658582">
        <ele>25.609999999999999</ele>
        <time>2019-05-08T05:10:04Z</time>
      </trkpt>
      <trkpt lat="53.489641975611448" lon="10.661812014877796">
        <ele>25.129999999999999</ele>
        <time>2019-05-08T05:10:15Z</time>
      </trkpt>
      <trkpt lat="53.491176031529903" lon="10.665076011791825">
        <ele>26.57</ele>
        <time>2019-05-08T05:10:25Z</time>
      </trkpt>
      <trkpt lat="53.493311991915107" lon="10.669453041628003">
        <ele>27.530000000000001</ele>
        <time>2019-05-08T05:10:38Z</time>
      </trkpt>
      <trkpt lat="53.494911007583141" lon="10.672349995002151">
        <ele>28.98</ele>
        <time>2019-05-08T05:10:48Z</time>
      </trkpt>
      <trkpt lat="53.495046962052584" lon="10.672594998031855">
        <ele>28.98</ele>
        <time>2019-05-08T05:10:49Z</time>
      </trkpt>
      <trkpt lat="53.496195031329989" lon="10.674700029194355">
        <ele>28.5</ele>
        <time>2019-05-08T05:10:58Z</time>
      </trkpt>
      <trkpt lat="53.496289998292923" lon="10.674959030002356">
        <ele>28.98</ele>
        <time>2019-05-08T05:10:59Z</time>
      </trkpt>
      <trkpt lat="53.496886035427451" lon="10.676518986001611">
        <ele>28.98</ele>
        <time>2019-05-08T05:11:05Z</time>
      </trkpt>
      <trkpt lat="53.497020984068513" lon="10.676726019009948">
        <ele>28.98</ele>
        <time>2019-05-08T05:11:06Z</time>
      </trkpt>
      <trkpt lat="53.497161967679858" lon="10.676931040361524">
        <ele>29.460000000000001</ele>
        <time>2019-05-08T05:11:07Z</time>
      </trkpt>
      <trkpt lat="53.497304040938616" lon="10.677137989550829">
        <ele>29.460000000000001</ele>
        <time>2019-05-08T05:11:08Z</time>
      </trkpt>
      <trkpt lat="53.497451981529593" lon="10.67733496427536">
        <ele>29.460000000000001</ele>
        <time>2019-05-08T05:11:09Z</time>
      </trkpt>
      <trkpt lat="53.499279990792274" lon="10.679602017626166">
        <ele>30.899999999999999</ele>
        <time>2019-05-08T05:11:20Z</time>
      </trkpt>
      <trkpt lat="53.500267965719104" lon="10.68075000308454">
        <ele>31.859999999999999</ele>
        <time>2019-05-08T05:11:25Z</time>
      </trkpt>
      <trkpt lat="53.502741968259215" lon="10.682959975674748">
        <ele>33.299999999999997</ele>
        <time>2019-05-08T05:11:36Z</time>
      </trkpt>
      <trkpt lat="53.505245978012681" lon="10.685185035690665">
        <ele>37.149999999999999</ele>
        <time>2019-05-08T05:11:47Z</time>
      </trkpt>
      <trkpt lat="53.507625013589859" lon="10.687338011339307">
        <ele>41.950000000000003</ele>
        <time>2019-05-08T05:11:58Z</time>
      </trkpt>
      <trkpt lat="53.507990967482328" lon="10.687831034883857">
        <ele>42.920000000000002</ele>
        <time>2019-05-08T05:12:00Z</time>
      </trkpt>
      <trkpt lat="53.510075965896249" lon="10.6910390406847">
        <ele>42.439999999999998</ele>
        <time>2019-05-08T05:12:11Z</time>
      </trkpt>
      <trkpt lat="53.512188037857413" lon="10.694289039820433">
        <ele>40.030000000000001</ele>
        <time>2019-05-08T05:12:22Z</time>
      </trkpt>
      <trkpt lat="53.514589034020901" lon="10.697176018729806">
        <ele>39.549999999999997</ele>
        <time>2019-05-08T05:12:33Z</time>
      </trkpt>
      <trkpt lat="53.516531959176064" lon="10.6999980378896">
        <ele>41.950000000000003</ele>
        <time>2019-05-08T05:12:43Z</time>
      </trkpt>
      <trkpt lat="53.517710035666823" lon="10.701577020809054">
        <ele>41.950000000000003</ele>
        <time>2019-05-08T05:12:50Z</time>
      </trkpt>
      <trkpt lat="53.518896996974945" lon="10.702516967430711">
        <ele>41.469999999999999</ele>
        <time>2019-05-08T05:12:56Z</time>
      </trkpt>
      <trkpt lat="53.520397022366524" lon="10.703573003411293">
        <ele>42.920000000000002</ele>
        <time>2019-05-08T05:13:03Z</time>
      </trkpt>
      <trkpt lat="53.520566001534462" lon="10.703753968700767">
        <ele>42.920000000000002</ele>
        <time>2019-05-08T05:13:04Z</time>
      </trkpt>
      <trkpt lat="53.521702000871301" lon="10.705420961603522">
        <ele>43.880000000000003</ele>
        <time>2019-05-08T05:13:11Z</time>
      </trkpt>
      <trkpt lat="53.523093983530998" lon="10.707538984715939">
        <ele>43.399999999999999</ele>
        <time>2019-05-08T05:13:19Z</time>
      </trkpt>
      <trkpt lat="53.525812989100814" lon="10.711622983217239">
        <ele>39.549999999999997</ele>
        <time>2019-05-08T05:13:33Z</time>
      </trkpt>
      <trkpt lat="53.529184022918344" lon="10.716706020757556">
        <ele>39.549999999999997</ele>
        <time>2019-05-08T05:13:50Z</time>
      </trkpt>
      <trkpt lat="53.53100398555398" lon="10.719451010227203">
        <ele>38.590000000000003</ele>
        <time>2019-05-08T05:13:59Z</time>
      </trkpt>
      <trkpt lat="53.532944982871413" lon="10.722378976643085">
        <ele>39.549999999999997</ele>
        <time>2019-05-08T05:14:09Z</time>
      </trkpt>
      <trkpt lat="53.533901022747159" lon="10.723819993436337">
        <ele>40.509999999999998</ele>
        <time>2019-05-08T05:14:16Z</time>
      </trkpt>
      <trkpt lat="53.535135006532073" lon="10.725771971046925">
        <ele>40.990000000000002</ele>
        <time>2019-05-08T05:14:27Z</time>
      </trkpt>
      <trkpt lat="53.535999013110995" lon="10.727456985041499">
        <ele>41.469999999999999</ele>
        <time>2019-05-08T05:14:36Z</time>
      </trkpt>
      <trkpt lat="53.536839969456196" lon="10.729161025956273">
        <ele>38.590000000000003</ele>
        <time>2019-05-08T05:14:46Z</time>
      </trkpt>
      <trkpt lat="53.537797015160322" lon="10.731102023273706">
        <ele>34.259999999999998</ele>
        <time>2019-05-08T05:14:56Z</time>
      </trkpt>
      <trkpt lat="53.538839975371957" lon="10.733205964788795">
        <ele>34.740000000000002</ele>
        <time>2019-05-08T05:15:06Z</time>
      </trkpt>
      <trkpt lat="53.540096003562212" lon="10.735737970098853">
        <ele>35.229999999999997</ele>
        <time>2019-05-08T05:15:17Z</time>
      </trkpt>
      <trkpt lat="53.541920995339751" lon="10.739406980574131">
        <ele>32.82</ele>
        <time>2019-05-08T05:15:32Z</time>
      </trkpt>
      <trkpt lat="53.543527973815799" lon="10.742766028270125">
        <ele>36.189999999999998</ele>
        <time>2019-05-08T05:15:45Z</time>
      </trkpt>
      <trkpt lat="53.544994974508882" lon="10.745973028242588">
        <ele>33.299999999999997</ele>
        <time>2019-05-08T05:15:56Z</time>
      </trkpt>
      <trkpt lat="53.546053022146225" lon="10.748386010527611">
        <ele>32.82</ele>
        <time>2019-05-08T05:16:04Z</time>
      </trkpt>
      <trkpt lat="53.547146022319794" lon="10.750836962834001">
        <ele>34.740000000000002</ele>
        <time>2019-05-08T05:16:13Z</time>
      </trkpt>
      <trkpt lat="53.547435030341148" lon="10.751449009403586">
        <ele>34.740000000000002</ele>
        <time>2019-05-08T05:16:16Z</time>
      </trkpt>
      <trkpt lat="53.547563022002578" lon="10.7515640091151">
        <ele>34.740000000000002</ele>
        <time>2019-05-08T05:16:17Z</time>
      </trkpt>
      <trkpt lat="53.54769503697753" lon="10.751670962199569">
        <ele>34.740000000000002</ele>
        <time>2019-05-08T05:16:18Z</time>
      </trkpt>
      <trkpt lat="53.547829985618591" lon="10.751777999103069">
        <ele>34.740000000000002</ele>
        <time>2019-05-08T05:16:19Z</time>
      </trkpt>
      <trkpt lat="53.547985972836614" lon="10.751902973279357">
        <ele>34.740000000000002</ele>
        <time>2019-05-08T05:16:20Z</time>
      </trkpt>
      <trkpt lat="53.549392037093639" lon="10.7529610209167">
        <ele>36.189999999999998</ele>
        <time>2019-05-08T05:16:29Z</time>
      </trkpt>
      <trkpt lat="53.550668014213443" lon="10.754735972732306">
        <ele>33.299999999999997</ele>
        <time>2019-05-08T05:16:37Z</time>
      </trkpt>
      <trkpt lat="53.551209988072515" lon="10.75525900349021">
        <ele>32.82</ele>
        <time>2019-05-08T05:16:40Z</time>
      </trkpt>
      <trkpt lat="53.551400005817413" lon="10.755399987101555">
        <ele>32.82</ele>
        <time>2019-05-08T05:16:41Z</time>
      </trkpt>
      <trkpt lat="53.551592035219073" lon="10.755541976541281">
        <ele>32.82</ele>
        <time>2019-05-08T05:16:42Z</time>
      </trkpt>
      <trkpt lat="53.551806025207043" lon="10.755700981244445">
        <ele>32.82</ele>
        <time>2019-05-08T05:16:43Z</time>
      </trkpt>
      <trkpt lat="53.551986990496516" lon="10.75577499344945">
        <ele>32.82</ele>
        <time>2019-05-08T05:16:44Z</time>
      </trkpt>
      <trkpt lat="53.55315400287509" lon="10.756321996450424">
        <ele>34.259999999999998</ele>
        <time>2019-05-08T05:16:50Z</time>
      </trkpt>
      <trkpt lat="53.55330697260797" lon="10.756482006981969">
        <ele>34.740000000000002</ele>
        <time>2019-05-08T05:16:51Z</time>
      </trkpt>
      <trkpt lat="53.553462037816644" lon="10.756645034998655">
        <ele>35.229999999999997</ele>
        <time>2019-05-08T05:16:52Z</time>
      </trkpt>
      <trkpt lat="53.553603021427989" lon="10.756819965317845">
        <ele>36.189999999999998</ele>
        <time>2019-05-08T05:16:53Z</time>
      </trkpt>
      <trkpt lat="53.553727995604277" lon="10.75704300776124">
        <ele>36.670000000000002</ele>
        <time>2019-05-08T05:16:54Z</time>
      </trkpt>
      <trkpt lat="53.553850036114454" lon="10.757261021062732">
        <ele>37.630000000000003</ele>
        <time>2019-05-08T05:16:55Z</time>
      </trkpt>
      <trkpt lat="53.553947014734149" lon="10.757502000778913">
        <ele>38.590000000000003</ele>
        <time>2019-05-08T05:16:56Z</time>
      </trkpt>
      <trkpt lat="53.554046005010605" lon="10.757762007415295">
        <ele>39.07</ele>
        <time>2019-05-08T05:16:57Z</time>
      </trkpt>
      <trkpt lat="53.554755030199885" lon="10.759636033326387">
        <ele>42.439999999999998</ele>
        <time>2019-05-08T05:17:05Z</time>
      </trkpt>
      <trkpt lat="53.555401023477316" lon="10.761407967656851">
        <ele>40.030000000000001</ele>
        <time>2019-05-08T05:17:15Z</time>
      </trkpt>
      <trkpt lat="53.555979039520025" lon="10.763234971091151">
        <ele>37.630000000000003</ele>
        <time>2019-05-08T05:17:26Z</time>
      </trkpt>
      <trkpt lat="53.555993959307671" lon="10.763411996886134">
        <ele>37.149999999999999</ele>
        <time>2019-05-08T05:17:27Z</time>
      </trkpt>
      <trkpt lat="53.556010974571109" lon="10.763619029894471">
        <ele>36.670000000000002</ele>
        <time>2019-05-08T05:17:28Z</time>
      </trkpt>
      <trkpt lat="53.555942997336388" lon="10.765870995819569">
        <ele>32.82</ele>
        <time>2019-05-08T05:17:39Z</time>
      </trkpt>
      <trkpt lat="53.555876025930047" lon="10.767425000667572">
        <ele>32.340000000000003</ele>
        <time>2019-05-08T05:17:47Z</time>
      </trkpt>
      <trkpt lat="53.555869990959764" lon="10.767628010362387">
        <ele>31.859999999999999</ele>
        <time>2019-05-08T05:17:48Z</time>
      </trkpt>
      <trkpt lat="53.555769994854927" lon="10.769279999658465">
        <ele>29.460000000000001</ele>
        <time>2019-05-08T05:17:56Z</time>
      </trkpt>
      <trkpt lat="53.55573202483356" lon="10.769627010449767">
        <ele>29.460000000000001</ele>
        <time>2019-05-08T05:17:58Z</time>
      </trkpt>
      <trkpt lat="53.555706040933728" lon="10.769789032638073">
        <ele>29.940000000000001</ele>
        <time>2019-05-08T05:17:59Z</time>
      </trkpt>
      <trkpt lat="53.555661030113697" lon="10.770061025395989">
        <ele>30.899999999999999</ele>
        <time>2019-05-08T05:18:01Z</time>
      </trkpt>
      <trkpt lat="53.555592969059944" lon="10.770478025078773">
        <ele>31.859999999999999</ele>
        <time>2019-05-08T05:18:06Z</time>
      </trkpt>
      <trkpt lat="53.555588023737073" lon="10.770505014806986">
        <ele>32.340000000000003</ele>
        <time>2019-05-08T05:18:07Z</time>
      </trkpt>
      <trkpt lat="53.555584000423551" lon="10.770533010363579">
        <ele>31.859999999999999</ele>
        <time>2019-05-08T05:18:08Z</time>
      </trkpt>
      <trkpt lat="53.555577965453267" lon="10.770565029233694">
        <ele>32.340000000000003</ele>
        <time>2019-05-08T05:18:09Z</time>
      </trkpt>
      <trkpt lat="53.555572014302015" lon="10.770604005083442">
        <ele>32.340000000000003</ele>
        <time>2019-05-08T05:18:10Z</time>
      </trkpt>
      <trkpt lat="53.555564973503351" lon="10.770645998418331">
        <ele>32.340000000000003</ele>
        <time>2019-05-08T05:18:11Z</time>
      </trkpt>
      <trkpt lat="53.555554999038577" lon="10.770706012845039">
        <ele>32.340000000000003</ele>
        <time>2019-05-08T05:18:12Z</time>
      </trkpt>
      <trkpt lat="53.555545024573803" lon="10.770767033100128">
        <ele>32.82</ele>
        <time>2019-05-08T05:18:13Z</time>
      </trkpt>
      <trkpt lat="53.555535972118378" lon="10.770822018384933">
        <ele>32.82</ele>
        <time>2019-05-08T05:18:14Z</time>
      </trkpt>
      <trkpt lat="53.555525997653604" lon="10.770880021154881">
        <ele>33.299999999999997</ele>
        <time>2019-05-08T05:18:15Z</time>
      </trkpt>
      <trkpt lat="53.555513005703688" lon="10.770960990339518">
        <ele>33.299999999999997</ele>
        <time>2019-05-08T05:18:16Z</time>
      </trkpt>
      <trkpt lat="53.555495990440249" lon="10.771065009757876">
        <ele>33.299999999999997</ele>
        <time>2019-05-08T05:18:17Z</time>
      </trkpt>
      <trkpt lat="53.555260039865971" lon="10.772738037630916">
        <ele>32.82</ele>
        <time>2019-05-08T05:18:29Z</time>
      </trkpt>
      <trkpt lat="53.555246964097023" lon="10.77309200540185">
        <ele>33.299999999999997</ele>
        <time>2019-05-08T05:18:31Z</time>
      </trkpt>
      <trkpt lat="53.55523900128901" lon="10.773317981511354">
        <ele>33.780000000000001</ele>
        <time>2019-05-08T05:18:32Z</time>
      </trkpt>
      <trkpt lat="53.555256016552448" lon="10.773475980386138">
        <ele>33.780000000000001</ele>
        <time>2019-05-08T05:18:33Z</time>
      </trkpt>
      <trkpt lat="53.555312007665634" lon="10.77365099452436">
        <ele>33.780000000000001</ele>
        <time>2019-05-08T05:18:34Z</time>
      </trkpt>
      <trkpt lat="53.555370010435581" lon="10.773807987570763">
        <ele>34.259999999999998</ele>
        <time>2019-05-08T05:18:35Z</time>
      </trkpt>
      <trkpt lat="53.555430024862289" lon="10.773970009759068">
        <ele>34.259999999999998</ele>
        <time>2019-05-08T05:18:36Z</time>
      </trkpt>
      <trkpt lat="53.555498002097011" lon="10.774132031947374">
        <ele>34.259999999999998</ele>
        <time>2019-05-08T05:18:37Z</time>
      </trkpt>
      <trkpt lat="53.556338036432862" lon="10.775666004046798">
        <ele>32.340000000000003</ele>
        <time>2019-05-08T05:18:47Z</time>
      </trkpt>
      <trkpt lat="53.557498008012772" lon="10.777612030506134">
        <ele>30.420000000000002</ele>
        <time>2019-05-08T05:19:00Z</time>
      </trkpt>
      <trkpt lat="53.557679979130626" lon="10.777881005778909">
        <ele>30.420000000000002</ele>
        <time>2019-05-08T05:19:02Z</time>
      </trkpt>
      <trkpt lat="53.55777402408421" lon="10.778010003268719">
        <ele>30.420000000000002</ele>
        <time>2019-05-08T05:19:03Z</time>
      </trkpt>
      <trkpt lat="53.558391015976667" lon="10.778750041499734">
        <ele>30.899999999999999</ele>
        <time>2019-05-08T05:19:10Z</time>
      </trkpt>
      <trkpt lat="53.55983697809279" lon="10.779554033651948">
        <ele>30.420000000000002</ele>
        <time>2019-05-08T05:19:21Z</time>
      </trkpt>
      <trkpt lat="53.560078041628003" lon="10.779588986188173">
        <ele>30.420000000000002</ele>
        <time>2019-05-08T05:19:23Z</time>
      </trkpt>
      <trkpt lat="53.560199998319149" lon="10.77960398979485">
        <ele>30.420000000000002</ele>
        <time>2019-05-08T05:19:24Z</time>
      </trkpt>
      <trkpt lat="53.561621988192201" lon="10.779423024505377">
        <ele>31.859999999999999</ele>
        <time>2019-05-08T05:19:35Z</time>
      </trkpt>
      <trkpt lat="53.563036015257239" lon="10.779642965644598">
        <ele>34.740000000000002</ele>
        <time>2019-05-08T05:19:44Z</time>
      </trkpt>
      <trkpt lat="53.56422197073698" lon="10.780555000528693">
        <ele>32.82</ele>
        <time>2019-05-08T05:19:51Z</time>
      </trkpt>
      <trkpt lat="53.566038999706507" lon="10.782120991498232">
        <ele>36.670000000000002</ele>
        <time>2019-05-08T05:20:01Z</time>
      </trkpt>
      <trkpt lat="53.566362038254738" lon="10.78237496316433">
        <ele>38.109999999999999</ele>
        <time>2019-05-08T05:20:03Z</time>
      </trkpt>
      <trkpt lat="53.566898982971907" lon="10.782766984775662">
        <ele>39.07</ele>
        <time>2019-05-08T05:20:07Z</time>
      </trkpt>
      <trkpt lat="53.567008031532168" lon="10.782874021679163">
        <ele>39.549999999999997</ele>
        <time>2019-05-08T05:20:08Z</time>
      </trkpt>
      <trkpt lat="53.56709998100996" lon="10.78301802277565">
        <ele>39.549999999999997</ele>
        <time>2019-05-08T05:20:09Z</time>
      </trkpt>
      <trkpt lat="53.567155972123146" lon="10.783207034692168">
        <ele>39.549999999999997</ele>
        <time>2019-05-08T05:20:10Z</time>
      </trkpt>
      <trkpt lat="53.567178016528487" lon="10.783407026901841">
        <ele>40.030000000000001</ele>
        <time>2019-05-08T05:20:11Z</time>
      </trkpt>
      <trkpt lat="53.567193020135164" lon="10.783634008839726">
        <ele>40.030000000000001</ele>
        <time>2019-05-08T05:20:12Z</time>
      </trkpt>
      <trkpt lat="53.567210035398602" lon="10.783885968849063">
        <ele>40.030000000000001</ele>
        <time>2019-05-08T05:20:13Z</time>
      </trkpt>
      <trkpt lat="53.567204000428319" lon="10.78415896743536">
        <ele>40.509999999999998</ele>
        <time>2019-05-08T05:20:14Z</time>
      </trkpt>
      <trkpt lat="53.567082965746522" lon="10.786727014929056">
        <ele>36.670000000000002</ele>
        <time>2019-05-08T05:20:22Z</time>
      </trkpt>
      <trkpt lat="53.567081037908792" lon="10.787173015996814">
        <ele>36.670000000000002</ele>
        <time>2019-05-08T05:20:24Z</time>
      </trkpt>
      <trkpt lat="53.567102998495102" lon="10.787335960194468">
        <ele>36.670000000000002</ele>
        <time>2019-05-08T05:20:25Z</time>
      </trkpt>
      <trkpt lat="53.567165024578571" lon="10.787436962127686">
        <ele>36.670000000000002</ele>
        <time>2019-05-08T05:20:26Z</time>
      </trkpt>
      <trkpt lat="53.567254962399602" lon="10.787565959617496">
        <ele>36.670000000000002</ele>
        <time>2019-05-08T05:20:27Z</time>
      </trkpt>
      <trkpt lat="53.5673569701612" lon="10.787618011236191">
        <ele>36.670000000000002</ele>
        <time>2019-05-08T05:20:28Z</time>
      </trkpt>
      <trkpt lat="53.567488985136151" lon="10.787685988470912">
        <ele>37.149999999999999</ele>
        <time>2019-05-08T05:20:29Z</time>
      </trkpt>
      <trkpt lat="53.56810899451375" lon="10.788019001483917">
        <ele>37.149999999999999</ele>
        <time>2019-05-08T05:20:33Z</time>
      </trkpt>
      <trkpt lat="53.56821795925498" lon="10.788168031722307">
        <ele>37.630000000000003</ele>
        <time>2019-05-08T05:20:34Z</time>
      </trkpt>
      <trkpt lat="53.568303035572171" lon="10.788350002840161">
        <ele>38.109999999999999</ele>
        <time>2019-05-08T05:20:35Z</time>
      </trkpt>
      <trkpt lat="53.568375036120415" lon="10.788563992828131">
        <ele>38.590000000000003</ele>
        <time>2019-05-08T05:20:36Z</time>
      </trkpt>
      <trkpt lat="53.568431027233601" lon="10.788815030828118">
        <ele>39.07</ele>
        <time>2019-05-08T05:20:37Z</time>
      </trkpt>
      <trkpt lat="53.568466985598207" lon="10.789090963080525">
        <ele>39.549999999999997</ele>
        <time>2019-05-08T05:20:38Z</time>
      </trkpt>
      <trkpt lat="53.568504033610225" lon="10.789380976930261">
        <ele>39.549999999999997</ele>
        <time>2019-05-08T05:20:39Z</time>
      </trkpt>
      <trkpt lat="53.568543009459972" lon="10.789677025750279">
        <ele>39.549999999999997</ele>
        <time>2019-05-08T05:20:40Z</time>
      </trkpt>
      <trkpt lat="53.568605035543442" lon="10.789954969659448">
        <ele>39.549999999999997</ele>
        <time>2019-05-08T05:20:41Z</time>
      </trkpt>
      <trkpt lat="53.568701008334756" lon="10.790223022922873">
        <ele>39.549999999999997</ele>
        <time>2019-05-08T05:20:42Z</time>
      </trkpt>
      <trkpt lat="53.569017006084323" lon="10.791046964004636">
        <ele>39.07</ele>
        <time>2019-05-08T05:20:45Z</time>
      </trkpt>
      <trkpt lat="53.569166958332062" lon="10.791278975084424">
        <ele>38.590000000000003</ele>
        <time>2019-05-08T05:20:46Z</time>
      </trkpt>
      <trkpt lat="53.570337994024158" lon="10.793217038735747">
        <ele>34.259999999999998</ele>
        <time>2019-05-08T05:20:54Z</time>
      </trkpt>
      <trkpt lat="53.57040898874402" lon="10.793485008180141">
        <ele>33.780000000000001</ele>
        <time>2019-05-08T05:20:55Z</time>
      </trkpt>
      <trkpt lat="53.570477971807122" lon="10.79376102425158">
        <ele>33.299999999999997</ele>
        <time>2019-05-08T05:20:56Z</time>
      </trkpt>
      <trkpt lat="53.570530023425817" lon="10.794043997302651">
        <ele>32.82</ele>
        <time>2019-05-08T05:20:57Z</time>
      </trkpt>
      <trkpt lat="53.570561958476901" lon="10.794353960081935">
        <ele>32.82</ele>
        <time>2019-05-08T05:20:58Z</time>
      </trkpt>
      <trkpt lat="53.57062398456037" lon="10.794946979731321">
        <ele>32.340000000000003</ele>
        <time>2019-05-08T05:21:00Z</time>
      </trkpt>
      <trkpt lat="53.570689028128982" lon="10.795225007459521">
        <ele>32.340000000000003</ele>
        <time>2019-05-08T05:21:01Z</time>
      </trkpt>
      <trkpt lat="53.57077200897038" lon="10.795459030196071">
        <ele>31.859999999999999</ele>
        <time>2019-05-08T05:21:02Z</time>
      </trkpt>
      <trkpt lat="53.570870999246836" lon="10.795691041275859">
        <ele>30.899999999999999</ele>
        <time>2019-05-08T05:21:03Z</time>
      </trkpt>
      <trkpt lat="53.570975018665195" lon="10.795935038477182">
        <ele>30.420000000000002</ele>
        <time>2019-05-08T05:21:04Z</time>
      </trkpt>
      <trkpt lat="53.572129039093852" lon="10.797811998054385">
        <ele>29.940000000000001</ele>
        <time>2019-05-08T05:21:12Z</time>
      </trkpt>
      <trkpt lat="53.572249989956617" lon="10.798054989427328">
        <ele>29.940000000000001</ele>
        <time>2019-05-08T05:21:13Z</time>
      </trkpt>
      <trkpt lat="53.572350991889834" lon="10.798305021598935">
        <ele>29.940000000000001</ele>
        <time>2019-05-08T05:21:14Z</time>
      </trkpt>
      <trkpt lat="53.57244897633791" lon="10.798547007143497">
        <ele>30.420000000000002</ele>
        <time>2019-05-08T05:21:15Z</time>
      </trkpt>
      <trkpt lat="53.572547966614366" lon="10.798791004344821">
        <ele>30.420000000000002</ele>
        <time>2019-05-08T05:21:16Z</time>
      </trkpt>
      <trkpt lat="53.572713006287813" lon="10.798968030139804">
        <ele>29.940000000000001</ele>
        <time>2019-05-08T05:21:17Z</time>
      </trkpt>
      <trkpt lat="53.572886008769274" lon="10.799140026792884">
        <ele>29.940000000000001</ele>
        <time>2019-05-08T05:21:18Z</time>
      </trkpt>
      <trkpt lat="53.573069991543889" lon="10.799324009567499">
        <ele>29.940000000000001</ele>
        <time>2019-05-08T05:21:19Z</time>
      </trkpt>
      <trkpt lat="53.574928008019924" lon="10.801264001056552">
        <ele>29.940000000000001</ele>
        <time>2019-05-08T05:21:28Z</time>
      </trkpt>
      <trkpt lat="53.577234959229827" lon="10.804141005501151">
        <ele>32.340000000000003</ele>
        <time>2019-05-08T05:21:39Z</time>
      </trkpt>
      <trkpt lat="53.579420959576964" lon="10.806916002184153">
        <ele>35.229999999999997</ele>
        <time>2019-05-08T05:21:50Z</time>
      </trkpt>
      <trkpt lat="53.580562993884087" lon="10.809469968080521">
        <ele>37.149999999999999</ele>
        <time>2019-05-08T05:21:58Z</time>
      </trkpt>
      <trkpt lat="53.582218000665307" lon="10.813298989087343">
        <ele>39.07</ele>
        <time>2019-05-08T05:22:10Z</time>
      </trkpt>
      <trkpt lat="53.583370009437203" lon="10.814888030290604">
        <ele>38.109999999999999</ele>
        <time>2019-05-08T05:22:16Z</time>
      </trkpt>
      <trkpt lat="53.585045970976353" lon="10.815991004928946">
        <ele>40.030000000000001</ele>
        <time>2019-05-08T05:22:23Z</time>
      </trkpt>
      <trkpt lat="53.587103979662061" lon="10.816997000947595">
        <ele>43.399999999999999</ele>
        <time>2019-05-08T05:22:32Z</time>
      </trkpt>
      <trkpt lat="53.587839994579554" lon="10.817410983145237">
        <ele>44.840000000000003</ele>
        <time>2019-05-08T05:22:38Z</time>
      </trkpt>
      <trkpt lat="53.587938984856009" lon="10.817486001178622">
        <ele>45.32</ele>
        <time>2019-05-08T05:22:39Z</time>
      </trkpt>
      <trkpt lat="53.588032023981214" lon="10.817556995898485">
        <ele>45.32</ele>
        <time>2019-05-08T05:22:40Z</time>
      </trkpt>
      <trkpt lat="53.588110981509089" lon="10.817665038630366">
        <ele>45.32</ele>
        <time>2019-05-08T05:22:41Z</time>
      </trkpt>
      <trkpt lat="53.58817501924932" lon="10.817788001149893">
        <ele>44.840000000000003</ele>
        <time>2019-05-08T05:22:42Z</time>
      </trkpt>
      <trkpt lat="53.588241990655661" lon="10.817914986982942">
        <ele>44.840000000000003</ele>
        <time>2019-05-08T05:22:43Z</time>
      </trkpt>
      <trkpt lat="53.588305022567511" lon="10.818036021664739">
        <ele>44.840000000000003</ele>
        <time>2019-05-08T05:22:44Z</time>
      </trkpt>
      <trkpt lat="53.588377023115754" lon="10.818129982799292">
        <ele>44.359999999999999</ele>
        <time>2019-05-08T05:22:45Z</time>
      </trkpt>
      <trkpt lat="53.588451035320759" lon="10.818225033581257">
        <ele>44.359999999999999</ele>
        <time>2019-05-08T05:22:46Z</time>
      </trkpt>
      <trkpt lat="53.588520018383861" lon="10.818314971402287">
        <ele>44.359999999999999</ele>
        <time>2019-05-08T05:22:47Z</time>
      </trkpt>
      <trkpt lat="53.588616997003555" lon="10.81836199387908">
        <ele>44.359999999999999</ele>
        <time>2019-05-08T05:22:48Z</time>
      </trkpt>
      <trkpt lat="53.588712969794869" lon="10.818409016355872">
        <ele>44.359999999999999</ele>
        <time>2019-05-08T05:22:49Z</time>
      </trkpt>
      <trkpt lat="53.588813971728086" lon="10.818458972498775">
        <ele>44.359999999999999</ele>
        <time>2019-05-08T05:22:50Z</time>
      </trkpt>
      <trkpt lat="53.588917991146445" lon="10.818509012460709">
        <ele>43.880000000000003</ele>
        <time>2019-05-08T05:22:51Z</time>
      </trkpt>
      <trkpt lat="53.589617041870952" lon="10.818887036293745">
        <ele>43.880000000000003</ele>
        <time>2019-05-08T05:22:58Z</time>
      </trkpt>
      <trkpt lat="53.59041198156774" lon="10.819589020684361">
        <ele>42.439999999999998</ele>
        <time>2019-05-08T05:23:07Z</time>
      </trkpt>
      <trkpt lat="53.590498985722661" lon="10.819623973220587">
        <ele>42.439999999999998</ele>
        <time>2019-05-08T05:23:08Z</time>
      </trkpt>
      <trkpt lat="53.590596970170736" lon="10.819623973220587">
        <ele>42.439999999999998</ele>
        <time>2019-05-08T05:23:09Z</time>
      </trkpt>
      <trkpt lat="53.590693026781082" lon="10.819603018462658">
        <ele>41.950000000000003</ele>
        <time>2019-05-08T05:23:10Z</time>
      </trkpt>
      <trkpt lat="53.590790005400777" lon="10.819561025127769">
        <ele>41.950000000000003</ele>
        <time>2019-05-08T05:23:11Z</time>
      </trkpt>
      <trkpt lat="53.590975999832153" lon="10.819481983780861">
        <ele>41.469999999999999</ele>
        <time>2019-05-08T05:23:13Z</time>
      </trkpt>
      <trkpt lat="53.591242963448167" lon="10.819430015981197">
        <ele>40.990000000000002</ele>
        <time>2019-05-08T05:23:16Z</time>
      </trkpt>
      <trkpt lat="53.591328961774707" lon="10.819430015981197">
        <ele>40.990000000000002</ele>
        <time>2019-05-08T05:23:17Z</time>
      </trkpt>
      <trkpt lat="53.591415965929627" lon="10.819442002102733">
        <ele>40.990000000000002</ele>
        <time>2019-05-08T05:23:18Z</time>
      </trkpt>
      <trkpt lat="53.59150598756969" lon="10.819490030407906">
        <ele>40.509999999999998</ele>
        <time>2019-05-08T05:23:19Z</time>
      </trkpt>
      <trkpt lat="53.591599026694894" lon="10.819539986550808">
        <ele>40.509999999999998</ele>
        <time>2019-05-08T05:23:20Z</time>
      </trkpt>
      <trkpt lat="53.59169801697135" lon="10.819596983492374">
        <ele>40.509999999999998</ele>
        <time>2019-05-08T05:23:21Z</time>
      </trkpt>
      <trkpt lat="53.59238700941205" lon="10.820162007585168">
        <ele>40.509999999999998</ele>
        <time>2019-05-08T05:23:28Z</time>
      </trkpt>
      <trkpt lat="53.592465966939926" lon="10.820284970104694">
        <ele>40.509999999999998</ele>
        <time>2019-05-08T05:23:29Z</time>
      </trkpt>
      <trkpt lat="53.592519024387002" lon="10.820453027263284">
        <ele>40.030000000000001</ele>
        <time>2019-05-08T05:23:30Z</time>
      </trkpt>
      <trkpt lat="53.592570992186666" lon="10.820616977289319">
        <ele>40.030000000000001</ele>
        <time>2019-05-08T05:23:31Z</time>
      </trkpt>
      <trkpt lat="53.59262203797698" lon="10.820778999477625">
        <ele>40.030000000000001</ele>
        <time>2019-05-08T05:23:32Z</time>
      </trkpt>
      <trkpt lat="53.592737959697843" lon="10.821106983348727">
        <ele>39.549999999999997</ele>
        <time>2019-05-08T05:23:34Z</time>
      </trkpt>
      <trkpt lat="53.592812977731228" lon="10.821258025243878">
        <ele>39.549999999999997</ele>
        <time>2019-05-08T05:23:35Z</time>
      </trkpt>
      <trkpt lat="53.592906016856432" lon="10.82136900164187">
        <ele>39.549999999999997</ele>
        <time>2019-05-08T05:23:36Z</time>
      </trkpt>
      <trkpt lat="53.593021016567945" lon="10.821431027725339">
        <ele>39.549999999999997</ele>
        <time>2019-05-08T05:23:37Z</time>
      </trkpt>
      <trkpt lat="53.593139033764601" lon="10.82145600579679">
        <ele>40.030000000000001</ele>
        <time>2019-05-08T05:23:38Z</time>
      </trkpt>
      <trkpt lat="53.59326601959765" lon="10.821421975269914">
        <ele>40.509999999999998</ele>
        <time>2019-05-08T05:23:39Z</time>
      </trkpt>
      <trkpt lat="53.59339602291584" lon="10.821387022733688">
        <ele>40.990000000000002</ele>
        <time>2019-05-08T05:23:40Z</time>
      </trkpt>
      <trkpt lat="53.5938919801265" lon="10.821277974173427">
        <ele>42.439999999999998</ele>
        <time>2019-05-08T05:23:44Z</time>
      </trkpt>
      <trkpt lat="53.594011003151536" lon="10.82126297056675">
        <ele>42.920000000000002</ele>
        <time>2019-05-08T05:23:45Z</time>
      </trkpt>
      <trkpt lat="53.594132959842682" lon="10.82128400914371">
        <ele>43.399999999999999</ele>
        <time>2019-05-08T05:23:46Z</time>
      </trkpt>
      <trkpt lat="53.594242008402944" lon="10.821343017742038">
        <ele>43.880000000000003</ele>
        <time>2019-05-08T05:23:47Z</time>
      </trkpt>
      <trkpt lat="53.594347033649683" lon="10.821400014683604">
        <ele>44.359999999999999</ele>
        <time>2019-05-08T05:23:48Z</time>
      </trkpt>
      <trkpt lat="53.594425991177559" lon="10.821551978588104">
        <ele>44.359999999999999</ele>
        <time>2019-05-08T05:23:49Z</time>
      </trkpt>
      <trkpt lat="53.594501009210944" lon="10.821708971634507">
        <ele>44.840000000000003</ele>
        <time>2019-05-08T05:23:50Z</time>
      </trkpt>
      <trkpt lat="53.594575021415949" lon="10.821889014914632">
        <ele>45.32</ele>
        <time>2019-05-08T05:23:51Z</time>
      </trkpt>
      <trkpt lat="53.594605028629303" lon="10.822110967710614">
        <ele>45.799999999999997</ele>
        <time>2019-05-08T05:23:52Z</time>
      </trkpt>
      <trkpt lat="53.594653978943825" lon="10.822345996275544">
        <ele>45.799999999999997</ele>
        <time>2019-05-08T05:23:53Z</time>
      </trkpt>
      <trkpt lat="53.594709970057011" lon="10.822581024840474">
        <ele>46.280000000000001</ele>
        <time>2019-05-08T05:23:54Z</time>
      </trkpt>
      <trkpt lat="53.594793034717441" lon="10.822791997343302">
        <ele>46.280000000000001</ele>
        <time>2019-05-08T05:23:55Z</time>
      </trkpt>
      <trkpt lat="53.594891019165516" lon="10.822986038401723">
        <ele>46.759999999999998</ele>
        <time>2019-05-08T05:23:56Z</time>
      </trkpt>
      <trkpt lat="53.595024039968848" lon="10.823090979829431">
        <ele>47.240000000000002</ele>
        <time>2019-05-08T05:23:57Z</time>
      </trkpt>
      <trkpt lat="53.595171980559826" lon="10.823206985369325">
        <ele>47.719999999999999</ele>
        <time>2019-05-08T05:23:58Z</time>
      </trkpt>
      <trkpt lat="53.595326039940119" lon="10.823255013674498">
        <ele>48.200000000000003</ele>
        <time>2019-05-08T05:23:59Z</time>
      </trkpt>
      <trkpt lat="53.595494013279676" lon="10.823307987302542">
        <ele>48.200000000000003</ele>
        <time>2019-05-08T05:24:00Z</time>
      </trkpt>
      <trkpt lat="53.59567497856915" lon="10.823274962604046">
        <ele>48.200000000000003</ele>
        <time>2019-05-08T05:24:01Z</time>
      </trkpt>
      <trkpt lat="53.595871031284332" lon="10.823225006461143">
        <ele>48.200000000000003</ele>
        <time>2019-05-08T05:24:02Z</time>
      </trkpt>
      <trkpt lat="53.597153965383768" lon="10.822812030091882">
        <ele>47.240000000000002</ele>
        <time>2019-05-08T05:24:08Z</time>
      </trkpt>
      <trkpt lat="53.597339959815145" lon="10.822621006518602">
        <ele>47.240000000000002</ele>
        <time>2019-05-08T05:24:09Z</time>
      </trkpt>
      <trkpt lat="53.597687976434827" lon="10.822261003777385">
        <ele>46.759999999999998</ele>
        <time>2019-05-08T05:24:11Z</time>
      </trkpt>
      <trkpt lat="53.597863996401429" lon="10.822118008509278">
        <ele>46.759999999999998</ele>
        <time>2019-05-08T05:24:12Z</time>
      </trkpt>
      <trkpt lat="53.598061976954341" lon="10.822055982425809">
        <ele>47.240000000000002</ele>
        <time>2019-05-08T05:24:13Z</time>
      </trkpt>
      <trkpt lat="53.598257023841143" lon="10.821995967999101">
        <ele>47.240000000000002</ele>
        <time>2019-05-08T05:24:14Z</time>
      </trkpt>
      <trkpt lat="53.598440000787377" lon="10.821940982714295">
        <ele>47.719999999999999</ele>
        <time>2019-05-08T05:24:15Z</time>
      </trkpt>
      <trkpt lat="53.598777959123254" lon="10.821923967450857">
        <ele>48.68</ele>
        <time>2019-05-08T05:24:17Z</time>
      </trkpt>
      <trkpt lat="53.600193997845054" lon="10.822152039036155">
        <ele>45.799999999999997</ele>
        <time>2019-05-08T05:24:27Z</time>
      </trkpt>
      <trkpt lat="53.60106797888875" lon="10.822224961593747">
        <ele>43.880000000000003</ele>
        <time>2019-05-08T05:24:34Z</time>
      </trkpt>
      <trkpt lat="53.601189013570547" lon="10.822193026542664">
        <ele>43.399999999999999</ele>
        <time>2019-05-08T05:24:35Z</time>
      </trkpt>
      <trkpt lat="53.601421024650335" lon="10.822128988802433">
        <ele>43.399999999999999</ele>
        <time>2019-05-08T05:24:37Z</time>
      </trkpt>
      <trkpt lat="53.601527977734804" lon="10.82203796133399">
        <ele>43.399999999999999</ele>
        <time>2019-05-08T05:24:38Z</time>
      </trkpt>
      <trkpt lat="53.601635014638305" lon="10.821947017684579">
        <ele>43.880000000000003</ele>
        <time>2019-05-08T05:24:39Z</time>
      </trkpt>
      <trkpt lat="53.602185035124421" lon="10.821375958621502">
        <ele>43.880000000000003</ele>
        <time>2019-05-08T05:24:44Z</time>
      </trkpt>
      <trkpt lat="53.602673029527068" lon="10.820709010586143">
        <ele>43.399999999999999</ele>
        <time>2019-05-08T05:24:49Z</time>
      </trkpt>
      <trkpt lat="53.602763973176479" lon="10.820628041401505">
        <ele>43.880000000000003</ele>
        <time>2019-05-08T05:24:50Z</time>
      </trkpt>
      <trkpt lat="53.6028509773314" lon="10.820593005046248">
        <ele>43.880000000000003</ele>
        <time>2019-05-08T05:24:51Z</time>
      </trkpt>
      <trkpt lat="53.60295700840652" lon="10.820601973682642">
        <ele>44.359999999999999</ele>
        <time>2019-05-08T05:24:52Z</time>
      </trkpt>
      <trkpt lat="53.603064967319369" lon="10.820625023916364">
        <ele>44.359999999999999</ele>
        <time>2019-05-08T05:24:53Z</time>
      </trkpt>
      <trkpt lat="53.603168986737728" lon="10.820708004757762">
        <ele>44.359999999999999</ele>
        <time>2019-05-08T05:24:54Z</time>
      </trkpt>
      <trkpt lat="53.603376019746065" lon="10.820819986984134">
        <ele>44.359999999999999</ele>
        <time>2019-05-08T05:24:56Z</time>
      </trkpt>
      <trkpt lat="53.603489007800817" lon="10.820806995034218">
        <ele>44.359999999999999</ele>
        <time>2019-05-08T05:24:57Z</time>
      </trkpt>
      <trkpt lat="53.604814019054174" lon="10.820565009489655">
        <ele>41.950000000000003</ele>
        <time>2019-05-08T05:25:07Z</time>
      </trkpt>
      <trkpt lat="53.606006009504199" lon="10.820235013961792">
        <ele>41.950000000000003</ele>
        <time>2019-05-08T05:25:15Z</time>
      </trkpt>
      <trkpt lat="53.606151016429067" lon="10.820119008421898">
        <ele>41.950000000000003</ele>
        <time>2019-05-08T05:25:16Z</time>
      </trkpt>
      <trkpt lat="53.607650035992265" lon="10.818873960524797">
        <ele>42.920000000000002</ele>
        <time>2019-05-08T05:25:25Z</time>
      </trkpt>
      <trkpt lat="53.609590027481318" lon="10.817271005362272">
        <ele>43.399999999999999</ele>
        <time>2019-05-08T05:25:34Z</time>
      </trkpt>
      <trkpt lat="53.610974969342351" lon="10.816112039610744">
        <ele>43.880000000000003</ele>
        <time>2019-05-08T05:25:41Z</time>
      </trkpt>
      <trkpt lat="53.612115997821093" lon="10.815158011391759">
        <ele>43.399999999999999</ele>
        <time>2019-05-08T05:25:47Z</time>
      </trkpt>
      <trkpt lat="53.613814003765583" lon="10.813752030953765">
        <ele>43.880000000000003</ele>
        <time>2019-05-08T05:25:57Z</time>
      </trkpt>
      <trkpt lat="53.615315034985542" lon="10.812494996935129">
        <ele>45.32</ele>
        <time>2019-05-08T05:26:07Z</time>
      </trkpt>
      <trkpt lat="53.616792010143399" lon="10.81125003285706">
        <ele>44.359999999999999</ele>
        <time>2019-05-08T05:26:17Z</time>
      </trkpt>
      <trkpt lat="53.617234993726015" lon="10.810903022065759">
        <ele>43.880000000000003</ele>
        <time>2019-05-08T05:26:22Z</time>
      </trkpt>
      <trkpt lat="53.617346975952387" lon="10.810833033174276">
        <ele>43.880000000000003</ele>
        <time>2019-05-08T05:26:25Z</time>
      </trkpt>
      <trkpt lat="53.617400033399463" lon="10.810835966840386">
        <ele>43.399999999999999</ele>
        <time>2019-05-08T05:26:26Z</time>
      </trkpt>
      <trkpt lat="53.617453007027507" lon="10.810849964618683">
        <ele>43.399999999999999</ele>
        <time>2019-05-08T05:26:27Z</time>
      </trkpt>
      <trkpt lat="53.617510003969073" lon="10.810863962396979">
        <ele>42.920000000000002</ele>
        <time>2019-05-08T05:26:28Z</time>
      </trkpt>
      <trkpt lat="53.617554008960724" lon="10.810920037329197">
        <ele>42.920000000000002</ele>
        <time>2019-05-08T05:26:29Z</time>
      </trkpt>
      <trkpt lat="53.6175880394876" lon="10.81099203787744">
        <ele>42.920000000000002</ele>
        <time>2019-05-08T05:26:30Z</time>
      </trkpt>
      <trkpt lat="53.617622992023826" lon="10.811067977920175">
        <ele>42.920000000000002</ele>
        <time>2019-05-08T05:26:31Z</time>
      </trkpt>
      <trkpt lat="53.617680994793773" lon="10.811191024258733">
        <ele>42.439999999999998</ele>
        <time>2019-05-08T05:26:32Z</time>
      </trkpt>
      <trkpt lat="53.617686023935676" lon="10.811268975958228">
        <ele>42.439999999999998</ele>
        <time>2019-05-08T05:26:33Z</time>
      </trkpt>
      <trkpt lat="53.61769599840045" lon="10.811415994539857">
        <ele>41.950000000000003</ele>
        <time>2019-05-08T05:26:34Z</time>
      </trkpt>
      <trkpt lat="53.617801023647189" lon="10.81299195997417">
        <ele>39.07</ele>
        <time>2019-05-08T05:26:42Z</time>
      </trkpt>
      <trkpt lat="53.617861038073897" lon="10.813639964908361">
        <ele>40.030000000000001</ele>
        <time>2019-05-08T05:26:45Z</time>
      </trkpt>
      <trkpt lat="53.617903031408787" lon="10.813811039552093">
        <ele>40.509999999999998</ele>
        <time>2019-05-08T05:26:46Z</time>
      </trkpt>
      <trkpt lat="53.617952987551689" lon="10.813960991799831">
        <ele>40.990000000000002</ele>
        <time>2019-05-08T05:26:47Z</time>
      </trkpt>
      <trkpt lat="53.617999004200101" lon="10.814098035916686">
        <ele>41.469999999999999</ele>
        <time>2019-05-08T05:26:48Z</time>
      </trkpt>
      <trkpt lat="53.618087014183402" lon="10.814156038686633">
        <ele>41.950000000000003</ele>
        <time>2019-05-08T05:26:49Z</time>
      </trkpt>
      <trkpt lat="53.618159014731646" lon="10.814197026193142">
        <ele>42.439999999999998</ele>
        <time>2019-05-08T05:26:50Z</time>
      </trkpt>
      <trkpt lat="53.618230009451509" lon="10.81423700787127">
        <ele>42.920000000000002</ele>
        <time>2019-05-08T05:26:51Z</time>
      </trkpt>
      <trkpt lat="53.61829899251461" lon="10.814274977892637">
        <ele>42.920000000000002</ele>
        <time>2019-05-08T05:26:52Z</time>
      </trkpt>
      <trkpt lat="53.61836495809257" lon="10.81430196762085">
        <ele>42.920000000000002</ele>
        <time>2019-05-08T05:26:53Z</time>
      </trkpt>
      <trkpt lat="53.618438970297575" lon="10.81429903395474">
        <ele>43.399999999999999</ele>
        <time>2019-05-08T05:26:54Z</time>
      </trkpt>
      <trkpt lat="53.618589006364346" lon="10.814295010641217">
        <ele>43.880000000000003</ele>
        <time>2019-05-08T05:26:56Z</time>
      </trkpt>
      <trkpt lat="53.618996031582355" lon="10.814282018691301">
        <ele>45.799999999999997</ele>
        <time>2019-05-08T05:27:02Z</time>
      </trkpt>
      <trkpt lat="53.619064008817077" lon="10.814325017854571">
        <ele>46.759999999999998</ele>
        <time>2019-05-08T05:27:03Z</time>
      </trkpt>
      <trkpt lat="53.619118994101882" lon="10.814403975382447">
        <ele>46.759999999999998</ele>
        <time>2019-05-08T05:27:04Z</time>
      </trkpt>
      <trkpt lat="53.619183031842113" lon="10.81449500285089">
        <ele>47.240000000000002</ele>
        <time>2019-05-08T05:27:05Z</time>
      </trkpt>
      <trkpt lat="53.619215972721577" lon="10.814589969813824">
        <ele>47.719999999999999</ele>
        <time>2019-05-08T05:27:06Z</time>
      </trkpt>
      <trkpt lat="53.619250003248453" lon="10.814688038080931">
        <ele>47.719999999999999</ele>
        <time>2019-05-08T05:27:07Z</time>
      </trkpt>
      <trkpt lat="53.61928503960371" lon="10.814788034185767">
        <ele>48.200000000000003</ele>
        <time>2019-05-08T05:27:08Z</time>
      </trkpt>
      <trkpt lat="53.619318986311555" lon="10.814884006977081">
        <ele>48.68</ele>
        <time>2019-05-08T05:27:09Z</time>
      </trkpt>
      <trkpt lat="53.619362991303205" lon="10.815089028328657">
        <ele>49.159999999999997</ele>
        <time>2019-05-08T05:27:11Z</time>
      </trkpt>
      <trkpt lat="53.619382018223405" lon="10.815191958099604">
        <ele>49.159999999999997</ele>
        <time>2019-05-08T05:27:12Z</time>
      </trkpt>
      <trkpt lat="53.619419988244772" lon="10.815403014421463">
        <ele>49.649999999999999</ele>
        <time>2019-05-08T05:27:14Z</time>
      </trkpt>
      <trkpt lat="53.619439015164971" lon="10.815508039668202">
        <ele>49.649999999999999</ele>
        <time>2019-05-08T05:27:15Z</time>
      </trkpt>
      <trkpt lat="53.619457958266139" lon="10.815610969439149">
        <ele>50.130000000000003</ele>
        <time>2019-05-08T05:27:16Z</time>
      </trkpt>
      <trkpt lat="53.619553009048104" lon="10.816137017682195">
        <ele>51.57</ele>
        <time>2019-05-08T05:27:21Z</time>
      </trkpt>
      <trkpt lat="53.619572035968304" lon="10.816237013787031">
        <ele>51.57</ele>
        <time>2019-05-08T05:27:22Z</time>
      </trkpt>
      <trkpt lat="53.619589973241091" lon="10.81634103320539">
        <ele>51.57</ele>
        <time>2019-05-08T05:27:23Z</time>
      </trkpt>
      <trkpt lat="53.619635989889503" lon="10.816764989867806">
        <ele>52.049999999999997</ele>
        <time>2019-05-08T05:27:27Z</time>
      </trkpt>
      <trkpt lat="53.619646970182657" lon="10.816870015114546">
        <ele>52.530000000000001</ele>
        <time>2019-05-08T05:27:28Z</time>
      </trkpt>
      <trkpt lat="53.619741015136242" lon="10.817156005650759">
        <ele>53.009999999999998</ele>
        <time>2019-05-08T05:27:31Z</time>
      </trkpt>
      <trkpt lat="53.619877975434065" lon="10.81739698536694">
        <ele>53.490000000000002</ele>
        <time>2019-05-08T05:27:34Z</time>
      </trkpt>
      <trkpt lat="53.619935978204012" lon="10.817451970651746">
        <ele>53.490000000000002</ele>
        <time>2019-05-08T05:27:35Z</time>
      </trkpt>
      <trkpt lat="53.620164971798658" lon="10.817667972296476">
        <ele>53.490000000000002</ele>
        <time>2019-05-08T05:27:39Z</time>
      </trkpt>
      <trkpt lat="53.620206965133548" lon="10.817736033350229">
        <ele>53.490000000000002</ele>
        <time>2019-05-08T05:27:40Z</time>
      </trkpt>
      <trkpt lat="53.620237978175282" lon="10.81782303750515">
        <ele>53.969999999999999</ele>
        <time>2019-05-08T05:27:41Z</time>
      </trkpt>
      <trkpt lat="53.620271002873778" lon="10.817916998639703">
        <ele>53.969999999999999</ele>
        <time>2019-05-08T05:27:42Z</time>
      </trkpt>
      <trkpt lat="53.620301010087132" lon="10.818007020279765">
        <ele>53.490000000000002</ele>
        <time>2019-05-08T05:27:43Z</time>
      </trkpt>
      <trkpt lat="53.620319031178951" lon="10.818116990849376">
        <ele>53.490000000000002</ele>
        <time>2019-05-08T05:27:44Z</time>
      </trkpt>
      <trkpt lat="53.620404023677111" lon="10.818658964708447">
        <ele>52.049999999999997</ele>
        <time>2019-05-08T05:27:49Z</time>
      </trkpt>
      <trkpt lat="53.620458003133535" lon="10.819081999361515">
        <ele>49.159999999999997</ele>
        <time>2019-05-08T05:27:53Z</time>
      </trkpt>
      <trkpt lat="53.620485998690128" lon="10.819296995177865">
        <ele>47.719999999999999</ele>
        <time>2019-05-08T05:27:55Z</time>
      </trkpt>
      <trkpt lat="53.620737036690116" lon="10.820650001987815">
        <ele>46.759999999999998</ele>
        <time>2019-05-08T05:28:07Z</time>
      </trkpt>
      <trkpt lat="53.620899980887771" lon="10.821229023858905">
        <ele>48.200000000000003</ele>
        <time>2019-05-08T05:28:13Z</time>
      </trkpt>
      <trkpt lat="53.620926970615983" lon="10.82132700830698">
        <ele>48.68</ele>
        <time>2019-05-08T05:28:14Z</time>
      </trkpt>
      <trkpt lat="53.621012968942523" lon="10.821596989408135">
        <ele>49.649999999999999</ele>
        <time>2019-05-08T05:28:17Z</time>
      </trkpt>
      <trkpt lat="53.621089998632669" lon="10.82177896052599">
        <ele>50.130000000000003</ele>
        <time>2019-05-08T05:28:19Z</time>
      </trkpt>
      <trkpt lat="53.621130986139178" lon="10.821873005479574">
        <ele>50.609999999999999</ele>
        <time>2019-05-08T05:28:20Z</time>
      </trkpt>
      <trkpt lat="53.621171973645687" lon="10.821969984099269">
        <ele>50.609999999999999</ele>
        <time>2019-05-08T05:28:21Z</time>
      </trkpt>
      <trkpt lat="53.621224025264382" lon="10.821999991312623">
        <ele>50.609999999999999</ele>
        <time>2019-05-08T05:28:22Z</time>
      </trkpt>
      <trkpt lat="53.621299965307117" lon="10.822027986869216">
        <ele>50.609999999999999</ele>
        <time>2019-05-08T05:28:23Z</time>
      </trkpt>
      <trkpt lat="53.621413959190249" lon="10.822069980204105">
        <ele>51.090000000000003</ele>
        <time>2019-05-08T05:28:24Z</time>
      </trkpt>
      <trkpt lat="53.62147799693048" lon="10.822054976597428">
        <ele>51.090000000000003</ele>
        <time>2019-05-08T05:28:25Z</time>
      </trkpt>
      <trkpt lat="53.621576987206936" lon="10.822031004354358">
        <ele>51.090000000000003</ele>
        <time>2019-05-08T05:28:26Z</time>
      </trkpt>
      <trkpt lat="53.621683018282056" lon="10.822006026282907">
        <ele>50.609999999999999</ele>
        <time>2019-05-08T05:28:27Z</time>
      </trkpt>
      <trkpt lat="53.622422972694039" lon="10.821793964132667">
        <ele>49.649999999999999</ele>
        <time>2019-05-08T05:28:34Z</time>
      </trkpt>
      <trkpt lat="53.62253000959754" lon="10.821748031303287">
        <ele>49.649999999999999</ele>
        <time>2019-05-08T05:28:35Z</time>
      </trkpt>
      <trkpt lat="53.623345987871289" lon="10.821211002767086">
        <ele>48.68</ele>
        <time>2019-05-08T05:28:43Z</time>
      </trkpt>
      <trkpt lat="53.623468028381467" lon="10.821211002767086">
        <ele>48.200000000000003</ele>
        <time>2019-05-08T05:28:44Z</time>
      </trkpt>
      <trkpt lat="53.62358302809298" lon="10.821211002767086">
        <ele>47.719999999999999</ele>
        <time>2019-05-08T05:28:45Z</time>
      </trkpt>
      <trkpt lat="53.623731974512339" lon="10.821211002767086">
        <ele>47.719999999999999</ele>
        <time>2019-05-08T05:28:46Z</time>
      </trkpt>
      <trkpt lat="53.623817972838879" lon="10.821297001093626">
        <ele>47.240000000000002</ele>
        <time>2019-05-08T05:28:47Z</time>
      </trkpt>
      <trkpt lat="53.623917968943715" lon="10.82145600579679">
        <ele>46.759999999999998</ele>
        <time>2019-05-08T05:28:48Z</time>
      </trkpt>
      <trkpt lat="53.624014025554061" lon="10.82164702937007">
        <ele>46.759999999999998</ele>
        <time>2019-05-08T05:28:49Z</time>
      </trkpt>
      <trkpt lat="53.624117961153388" lon="10.821853978559375">
        <ele>46.759999999999998</ele>
        <time>2019-05-08T05:28:50Z</time>
      </trkpt>
      <trkpt lat="53.624230027198792" lon="10.822090012952685">
        <ele>46.280000000000001</ele>
        <time>2019-05-08T05:28:51Z</time>
      </trkpt>
      <trkpt lat="53.624299010261893" lon="10.822369968518615">
        <ele>45.799999999999997</ele>
        <time>2019-05-08T05:28:52Z</time>
      </trkpt>
      <trkpt lat="53.624371010810137" lon="10.822660988196731">
        <ele>45.799999999999997</ele>
        <time>2019-05-08T05:28:53Z</time>
      </trkpt>
      <trkpt lat="53.62444200553" lon="10.822949996218085">
        <ele>45.32</ele>
        <time>2019-05-08T05:28:54Z</time>
      </trkpt>
      <trkpt lat="53.624568991363049" lon="10.823464980348945">
        <ele>45.799999999999997</ele>
        <time>2019-05-08T05:28:56Z</time>
      </trkpt>
      <trkpt lat="53.624684996902943" lon="10.823696991428733">
        <ele>45.799999999999997</ele>
        <time>2019-05-08T05:28:57Z</time>
      </trkpt>
      <trkpt lat="53.624794967472553" lon="10.823918022215366">
        <ele>45.799999999999997</ele>
        <time>2019-05-08T05:28:58Z</time>
      </trkpt>
      <trkpt lat="53.624920025467873" lon="10.824112985283136">
        <ele>46.280000000000001</ele>
        <time>2019-05-08T05:28:59Z</time>
      </trkpt>
      <trkpt lat="53.625082969665527" lon="10.824268972501159">
        <ele>46.280000000000001</ele>
        <time>2019-05-08T05:29:00Z</time>
      </trkpt>
      <trkpt lat="53.625254966318607" lon="10.824432000517845">
        <ele>46.280000000000001</ele>
        <time>2019-05-08T05:29:01Z</time>
      </trkpt>
      <trkpt lat="53.62620497122407" lon="10.825304975733161">
        <ele>47.719999999999999</ele>
        <time>2019-05-08T05:29:06Z</time>
      </trkpt>
      <trkpt lat="53.626435976475477" lon="10.82538602873683">
        <ele>47.719999999999999</ele>
        <time>2019-05-08T05:29:07Z</time>
      </trkpt>
      <trkpt lat="53.628143034875393" lon="10.825907969847322">
        <ele>51.57</ele>
        <time>2019-05-08T05:29:14Z</time>
      </trkpt>
      <trkpt lat="53.630493991076946" lon="10.82644097507">
        <ele>55.890000000000001</ele>
        <time>2019-05-08T05:29:23Z</time>
      </trkpt>
      <trkpt lat="53.630704963579774" lon="10.82648498006165">
        <ele>55.890000000000001</ele>
        <time>2019-05-08T05:29:24Z</time>
      </trkpt>
      <trkpt lat="53.630879977717996" lon="10.826628981158137">
        <ele>55.890000000000001</ele>
        <time>2019-05-08T05:29:25Z</time>
      </trkpt>
      <trkpt lat="53.631057003512979" lon="10.826789997518063">
        <ele>55.890000000000001</ele>
        <time>2019-05-08T05:29:26Z</time>
      </trkpt>
      <trkpt lat="53.632449992001057" lon="10.828296979889274">
        <ele>55.890000000000001</ele>
        <time>2019-05-08T05:29:33Z</time>
      </trkpt>
      <trkpt lat="53.633040999993682" lon="10.828881030902267">
        <ele>54.93</ele>
        <time>2019-05-08T05:29:36Z</time>
      </trkpt>
      <trkpt lat="53.633259013295174" lon="10.829021008685231">
        <ele>54.450000000000003</ele>
        <time>2019-05-08T05:29:37Z</time>
      </trkpt>
      <trkpt lat="53.633484989404678" lon="10.829167021438479">
        <ele>54.450000000000003</ele>
        <time>2019-05-08T05:29:38Z</time>
      </trkpt>
      <trkpt lat="53.635262958705425" lon="10.829582009464502">
        <ele>50.130000000000003</ele>
        <time>2019-05-08T05:29:45Z</time>
      </trkpt>
      <trkpt lat="53.636460984125733" lon="10.829838998615742">
        <ele>46.759999999999998</ele>
        <time>2019-05-08T05:29:51Z</time>
      </trkpt>
      <trkpt lat="53.637218037620187" lon="10.829998003318906">
        <ele>44.840000000000003</ele>
        <time>2019-05-08T05:29:57Z</time>
      </trkpt>
      <trkpt lat="53.638578001409769" lon="10.830186009407043">
        <ele>46.759999999999998</ele>
        <time>2019-05-08T05:30:08Z</time>
      </trkpt>
      <trkpt lat="53.640063023194671" lon="10.830076960846782">
        <ele>46.759999999999998</ele>
        <time>2019-05-08T05:30:19Z</time>
      </trkpt>
      <trkpt lat="53.640198977664113" lon="10.829982999712229">
        <ele>46.759999999999998</ele>
        <time>2019-05-08T05:30:20Z</time>
      </trkpt>
      <trkpt lat="53.640330992639065" lon="10.829855008050799">
        <ele>46.280000000000001</ele>
        <time>2019-05-08T05:30:21Z</time>
      </trkpt>
      <trkpt lat="53.640460995957255" lon="10.829702960327268">
        <ele>46.280000000000001</ele>
        <time>2019-05-08T05:30:22Z</time>
      </trkpt>
      <trkpt lat="53.640593010932207" lon="10.829545967280865">
        <ele>46.280000000000001</ele>
        <time>2019-05-08T05:30:23Z</time>
      </trkpt>
      <trkpt lat="53.641791958361864" lon="10.828091036528349">
        <ele>48.68</ele>
        <time>2019-05-08T05:30:32Z</time>
      </trkpt>
      <trkpt lat="53.643044969066978" lon="10.826850011944771">
        <ele>52.530000000000001</ele>
        <time>2019-05-08T05:30:40Z</time>
      </trkpt>
      <trkpt lat="53.644682038575411" lon="10.824760990217328">
        <ele>54.450000000000003</ele>
        <time>2019-05-08T05:30:49Z</time>
      </trkpt>
      <trkpt lat="53.646566038951278" lon="10.822309032082558">
        <ele>54.450000000000003</ele>
        <time>2019-05-08T05:30:59Z</time>
      </trkpt>
      <trkpt lat="53.647588966414332" lon="10.821022996678948">
        <ele>53.969999999999999</ele>
        <time>2019-05-08T05:31:05Z</time>
      </trkpt>
      <trkpt lat="53.647713018581271" lon="10.820762990042567">
        <ele>53.969999999999999</ele>
        <time>2019-05-08T05:31:06Z</time>
      </trkpt>
      <trkpt lat="53.647822989150882" lon="10.820487979799509">
        <ele>53.490000000000002</ele>
        <time>2019-05-08T05:31:07Z</time>
      </trkpt>
      <trkpt lat="53.649034006521106" lon="10.817415006458759">
        <ele>48.68</ele>
        <time>2019-05-08T05:31:17Z</time>
      </trkpt>
      <trkpt lat="53.649513032287359" lon="10.816250005736947">
        <ele>46.280000000000001</ele>
        <time>2019-05-08T05:31:21Z</time>
      </trkpt>
      <trkpt lat="53.649673964828253" lon="10.816027969121933">
        <ele>45.799999999999997</ele>
        <time>2019-05-08T05:31:22Z</time>
      </trkpt>
      <trkpt lat="53.649832969531417" lon="10.815807022154331">
        <ele>45.32</ele>
        <time>2019-05-08T05:31:23Z</time>
      </trkpt>
      <trkpt lat="53.649998009204865" lon="10.815588003024459">
        <ele>44.840000000000003</ele>
        <time>2019-05-08T05:31:24Z</time>
      </trkpt>
      <trkpt lat="53.650179980322719" lon="10.815405026078224">
        <ele>44.359999999999999</ele>
        <time>2019-05-08T05:31:25Z</time>
      </trkpt>
      <trkpt lat="53.65202902816236" lon="10.813632002100348">
        <ele>40.030000000000001</ele>
        <time>2019-05-08T05:31:35Z</time>
      </trkpt>
      <trkpt lat="53.653861982747912" lon="10.811758982017636">
        <ele>39.549999999999997</ele>
        <time>2019-05-08T05:31:45Z</time>
      </trkpt>
      <trkpt lat="53.656029962003231" lon="10.808431031182408">
        <ele>35.710000000000001</ele>
        <time>2019-05-08T05:31:58Z</time>
      </trkpt>
      <trkpt lat="53.657557982951403" lon="10.806090971454978">
        <ele>34.740000000000002</ele>
        <time>2019-05-08T05:32:07Z</time>
      </trkpt>
      <trkpt lat="53.657919997349381" lon="10.805753013119102">
        <ele>35.229999999999997</ele>
        <time>2019-05-08T05:32:09Z</time>
      </trkpt>
      <trkpt lat="53.658114038407803" lon="10.805646982043982">
        <ele>35.229999999999997</ele>
        <time>2019-05-08T05:32:10Z</time>
      </trkpt>
      <trkpt lat="53.659426979720592" lon="10.804780963808298">
        <ele>35.229999999999997</ele>
        <time>2019-05-08T05:32:17Z</time>
      </trkpt>
      <trkpt lat="53.659600988030434" lon="10.804597986862063">
        <ele>35.229999999999997</ele>
        <time>2019-05-08T05:32:18Z</time>
      </trkpt>
      <trkpt lat="53.659770973026752" lon="10.804420039057732">
        <ele>35.710000000000001</ele>
        <time>2019-05-08T05:32:19Z</time>
      </trkpt>
      <trkpt lat="53.659917991608381" lon="10.804176963865757">
        <ele>36.189999999999998</ele>
        <time>2019-05-08T05:32:20Z</time>
      </trkpt>
      <trkpt lat="53.660201970487833" lon="10.803690981119871">
        <ele>37.630000000000003</ele>
        <time>2019-05-08T05:32:22Z</time>
      </trkpt>
      <trkpt lat="53.66116002202034" lon="10.802049972116947">
        <ele>39.549999999999997</ele>
        <time>2019-05-08T05:32:28Z</time>
      </trkpt>
      <trkpt lat="53.662373973056674" lon="10.799797000363469">
        <ele>40.509999999999998</ele>
        <time>2019-05-08T05:32:36Z</time>
      </trkpt>
      <trkpt lat="53.663628995418549" lon="10.797615023329854">
        <ele>37.630000000000003</ele>
        <time>2019-05-08T05:32:44Z</time>
      </trkpt>
      <trkpt lat="53.663811972364783" lon="10.797387035563588">
        <ele>37.149999999999999</ele>
        <time>2019-05-08T05:32:45Z</time>
      </trkpt>
      <trkpt lat="53.66459802724421" lon="10.796524034813046">
        <ele>35.229999999999997</ele>
        <time>2019-05-08T05:32:49Z</time>
      </trkpt>
      <trkpt lat="53.665980035439134" lon="10.795127023011446">
        <ele>34.740000000000002</ele>
        <time>2019-05-08T05:32:56Z</time>
      </trkpt>
      <trkpt lat="53.667250983417034" lon="10.79399898648262">
        <ele>34.740000000000002</ele>
        <time>2019-05-08T05:33:02Z</time>
      </trkpt>
      <trkpt lat="53.667487017810345" lon="10.793861020356417">
        <ele>35.229999999999997</ele>
        <time>2019-05-08T05:33:03Z</time>
      </trkpt>
      <trkpt lat="53.669952973723412" lon="10.792588982731104">
        <ele>35.710000000000001</ele>
        <time>2019-05-08T05:33:13Z</time>
      </trkpt>
      <trkpt lat="53.672120030969381" lon="10.791830001398921">
        <ele>38.109999999999999</ele>
        <time>2019-05-08T05:33:22Z</time>
      </trkpt>
      <trkpt lat="53.674721019342542" lon="10.790949985384941">
        <ele>38.590000000000003</ele>
        <time>2019-05-08T05:33:33Z</time>
      </trkpt>
      <trkpt lat="53.674913970753551" lon="10.790871027857065">
        <ele>39.07</ele>
        <time>2019-05-08T05:33:34Z</time>
      </trkpt>
      <trkpt lat="53.675101976841688" lon="10.790784023702145">
        <ele>38.590000000000003</ele>
        <time>2019-05-08T05:33:35Z</time>
      </trkpt>
      <trkpt lat="53.675275985151529" lon="10.790637005120516">
        <ele>38.590000000000003</ele>
        <time>2019-05-08T05:33:36Z</time>
      </trkpt>
      <trkpt lat="53.675447981804609" lon="10.790464002639055">
        <ele>38.590000000000003</ele>
        <time>2019-05-08T05:33:37Z</time>
      </trkpt>
      <trkpt lat="53.675613021478057" lon="10.790257975459099">
        <ele>38.109999999999999</ele>
        <time>2019-05-08T05:33:38Z</time>
      </trkpt>
      <trkpt lat="53.676769975572824" lon="10.78875401057303">
        <ele>36.670000000000002</ele>
        <time>2019-05-08T05:33:46Z</time>
      </trkpt>
      <trkpt lat="53.677399959415197" lon="10.787970973178744">
        <ele>36.189999999999998</ele>
        <time>2019-05-08T05:33:51Z</time>
      </trkpt>
      <trkpt lat="53.677528034895658" lon="10.787842981517315">
        <ele>36.189999999999998</ele>
        <time>2019-05-08T05:33:52Z</time>
      </trkpt>
      <trkpt lat="53.67766298353672" lon="10.787723958492279">
        <ele>36.189999999999998</ele>
        <time>2019-05-08T05:33:53Z</time>
      </trkpt>
      <trkpt lat="53.677802961319685" lon="10.787657992914319">
        <ele>36.670000000000002</ele>
        <time>2019-05-08T05:33:54Z</time>
      </trkpt>
      <trkpt lat="53.677934976294637" lon="10.78759596683085">
        <ele>36.670000000000002</ele>
        <time>2019-05-08T05:33:55Z</time>
      </trkpt>
      <trkpt lat="53.678071014583111" lon="10.787562020123005">
        <ele>37.149999999999999</ele>
        <time>2019-05-08T05:33:56Z</time>
      </trkpt>
      <trkpt lat="53.678206969052553" lon="10.787555985152721">
        <ele>37.630000000000003</ele>
        <time>2019-05-08T05:33:57Z</time>
      </trkpt>
      <trkpt lat="53.678351975977421" lon="10.787549028173089">
        <ele>37.630000000000003</ele>
        <time>2019-05-08T05:33:58Z</time>
      </trkpt>
      <trkpt lat="53.678507041186094" lon="10.787549028173089">
        <ele>38.109999999999999</ele>
        <time>2019-05-08T05:33:59Z</time>
      </trkpt>
      <trkpt lat="53.678664034232497" lon="10.787561014294624">
        <ele>38.590000000000003</ele>
        <time>2019-05-08T05:34:00Z</time>
      </trkpt>
      <trkpt lat="53.680403027683496" lon="10.787693029269576">
        <ele>39.07</ele>
        <time>2019-05-08T05:34:10Z</time>
      </trkpt>
      <trkpt lat="53.682720037177205" lon="10.787868965417147">
        <ele>38.590000000000003</ele>
        <time>2019-05-08T05:34:22Z</time>
      </trkpt>
      <trkpt lat="53.684373032301664" lon="10.787994023412466">
        <ele>38.109999999999999</ele>
        <time>2019-05-08T05:34:31Z</time>
      </trkpt>
      <trkpt lat="53.685768032446504" lon="10.788094019517303">
        <ele>35.229999999999997</ele>
        <time>2019-05-08T05:34:40Z</time>
      </trkpt>
      <trkpt lat="53.686008006334305" lon="10.788106005638838">
        <ele>35.229999999999997</ele>
        <time>2019-05-08T05:34:42Z</time>
      </trkpt>
      <trkpt lat="53.686127029359341" lon="10.788112040609121">
        <ele>35.229999999999997</ele>
        <time>2019-05-08T05:34:43Z</time>
      </trkpt>
      <trkpt lat="53.687447011470795" lon="10.788203990086913">
        <ele>35.710000000000001</ele>
        <time>2019-05-08T05:34:55Z</time>
      </trkpt>
      <trkpt lat="53.687860993668437" lon="10.78823802061379">
        <ele>36.189999999999998</ele>
        <time>2019-05-08T05:34:59Z</time>
      </trkpt>
      <trkpt lat="53.687963001430035" lon="10.788243971765041">
        <ele>36.670000000000002</ele>
        <time>2019-05-08T05:35:00Z</time>
      </trkpt>
      <trkpt lat="53.688068026676774" lon="10.788249000906944">
        <ele>36.670000000000002</ele>
        <time>2019-05-08T05:35:01Z</time>
      </trkpt>
      <trkpt lat="53.689253982156515" lon="10.788333993405104">
        <ele>37.630000000000003</ele>
        <time>2019-05-08T05:35:13Z</time>
      </trkpt>
      <trkpt lat="53.69029400870204" lon="10.788415968418121">
        <ele>36.189999999999998</ele>
        <time>2019-05-08T05:35:24Z</time>
      </trkpt>
      <trkpt lat="53.69065803475678" lon="10.788437006995082">
        <ele>35.710000000000001</ele>
        <time>2019-05-08T05:35:28Z</time>
      </trkpt>
      <trkpt lat="53.690740009769797" lon="10.788442036136985">
        <ele>35.710000000000001</ele>
        <time>2019-05-08T05:35:29Z</time>
      </trkpt>
      <trkpt lat="53.691458003595471" lon="10.788484029471874">
        <ele>36.189999999999998</ele>
        <time>2019-05-08T05:35:39Z</time>
      </trkpt>
      <trkpt lat="53.691744999960065" lon="10.788414040580392">
        <ele>35.710000000000001</ele>
        <time>2019-05-08T05:35:47Z</time>
      </trkpt>
      <trkpt lat="53.692048005759716" lon="10.788586959242821">
        <ele>35.710000000000001</ele>
        <time>2019-05-08T05:35:55Z</time>
      </trkpt>
      <trkpt lat="53.692175997421145" lon="10.788659965619445">
        <ele>36.189999999999998</ele>
        <time>2019-05-08T05:35:57Z</time>
      </trkpt>
      <trkpt lat="53.692240035161376" lon="10.788697013631463">
        <ele>36.189999999999998</ele>
        <time>2019-05-08T05:35:58Z</time>
      </trkpt>
      <trkpt lat="53.692330978810787" lon="10.788619983941317">
        <ele>36.189999999999998</ele>
        <time>2019-05-08T05:35:59Z</time>
      </trkpt>
      <trkpt lat="53.692376995459199" lon="10.788508001714945">
        <ele>35.229999999999997</ele>
        <time>2019-05-08T05:36:00Z</time>
      </trkpt>
      <trkpt lat="53.69244497269392" lon="10.788413034752011">
        <ele>34.259999999999998</ele>
        <time>2019-05-08T05:36:01Z</time>
      </trkpt>
      <trkpt lat="53.69306699372828" lon="10.787614993751049">
        <ele>29.460000000000001</ele>
        <time>2019-05-08T05:36:10Z</time>
      </trkpt>
      <trkpt lat="53.693894958123565" lon="10.786578990519047">
        <ele>23.210000000000001</ele>
        <time>2019-05-08T05:36:20Z</time>
      </trkpt>
      <trkpt lat="53.694110959768295" lon="10.78622099943459">
        <ele>21.289999999999999</ele>
        <time>2019-05-08T05:36:23Z</time>
      </trkpt>
      <trkpt lat="53.694570036605" lon="10.785333020612597">
        <ele>17.920000000000002</ele>
        <time>2019-05-08T05:36:30Z</time>
      </trkpt>
      <trkpt lat="53.694740021601319" lon="10.784911997616291">
        <ele>17.440000000000001</ele>
        <time>2019-05-08T05:36:33Z</time>
      </trkpt>
      <trkpt lat="53.695314014330506" lon="10.783555973321199">
        <ele>15.039999999999999</ele>
        <time>2019-05-08T05:36:43Z</time>
      </trkpt>
      <trkpt lat="53.695382997393608" lon="10.783471986651421">
        <ele>14.56</ele>
        <time>2019-05-08T05:36:44Z</time>
      </trkpt>
      <trkpt lat="53.695448962971568" lon="10.783409960567951">
        <ele>13.6</ele>
        <time>2019-05-08T05:36:45Z</time>
      </trkpt>
      <trkpt lat="53.695535967126489" lon="10.783365033566952">
        <ele>13.119999999999999</ele>
        <time>2019-05-08T05:36:46Z</time>
      </trkpt>
      <trkpt lat="53.695622971281409" lon="10.783320022746921">
        <ele>12.630000000000001</ele>
        <time>2019-05-08T05:36:47Z</time>
      </trkpt>
      <trkpt lat="53.696229988709092" lon="10.783146014437079">
        <ele>10.23</ele>
        <time>2019-05-08T05:36:53Z</time>
      </trkpt>
      <trkpt lat="53.696342976763844" lon="10.783146014437079">
        <ele>10.23</ele>
        <time>2019-05-08T05:36:54Z</time>
      </trkpt>
      <trkpt lat="53.696472980082035" lon="10.783146014437079">
        <ele>9.75</ele>
        <time>2019-05-08T05:36:55Z</time>
      </trkpt>
      <trkpt lat="53.697097012773156" lon="10.783328991383314">
        <ele>6.39</ele>
        <time>2019-05-08T05:37:01Z</time>
      </trkpt>
      <trkpt lat="53.697371017187834" lon="10.783323962241411">
        <ele>4.46</ele>
        <time>2019-05-08T05:37:04Z</time>
      </trkpt>
      <trkpt lat="53.697456009685993" lon="10.783306024968624">
        <ele>4.46</ele>
        <time>2019-05-08T05:37:05Z</time>
      </trkpt>
      <trkpt lat="53.697510994970798" lon="10.783288003876805">
        <ele>3.98</ele>
        <time>2019-05-08T05:37:06Z</time>
      </trkpt>
      <trkpt lat="53.697567991912365" lon="10.783231006935239">
        <ele>3.98</ele>
        <time>2019-05-08T05:37:07Z</time>
      </trkpt>
      <trkpt lat="53.697602022439241" lon="10.783119024708867">
        <ele>3.98</ele>
        <time>2019-05-08T05:37:08Z</time>
      </trkpt>
      <trkpt lat="53.697652984410524" lon="10.782951973378658">
        <ele>3.98</ele>
        <time>2019-05-08T05:37:09Z</time>
      </trkpt>
      <trkpt lat="53.697675028815866" lon="10.782835967838764">
        <ele>3.5</ele>
        <time>2019-05-08T05:37:10Z</time>
      </trkpt>
      <trkpt lat="53.69770503602922" lon="10.782677968963981">
        <ele>3.5</ele>
        <time>2019-05-08T05:37:11Z</time>
      </trkpt>
      <trkpt lat="53.697970993816853" lon="10.781592009589076">
        <ele>4.46</ele>
        <time>2019-05-08T05:37:19Z</time>
      </trkpt>
      <trkpt lat="53.698079958558083" lon="10.78115195967257">
        <ele>5.91</ele>
        <time>2019-05-08T05:37:24Z</time>
      </trkpt>
      <trkpt lat="53.69818196631968" lon="10.780739989131689">
        <ele>6.39</ele>
        <time>2019-05-08T05:37:29Z</time>
      </trkpt>
      <trkpt lat="53.69822496548295" lon="10.780564974993467">
        <ele>6.39</ele>
        <time>2019-05-08T05:37:33Z</time>
      </trkpt>
      <trkpt lat="53.698231000453234" lon="10.780538991093636">
        <ele>6.39</ele>
        <time>2019-05-08T05:37:34Z</time>
      </trkpt>
      <trkpt lat="53.698238963261247" lon="10.780508983880281">
        <ele>6.87</ele>
        <time>2019-05-08T05:37:35Z</time>
      </trkpt>
      <trkpt lat="53.698238963261247" lon="10.780508983880281">
        <ele>7.35</ele>
        <time>2019-05-08T05:37:48Z</time>
      </trkpt>
      <trkpt lat="53.698238963261247" lon="10.780508983880281">
        <ele>7.35</ele>
        <time>2019-05-08T05:38:36Z</time>
      </trkpt>
      <trkpt lat="53.698296966031194" lon="10.780274961143732">
        <ele>7.83</ele>
        <time>2019-05-08T05:39:22Z</time>
      </trkpt>
      <trkpt lat="53.69852202013135" lon="10.77936502173543">
        <ele>7.83</ele>
        <time>2019-05-08T05:39:30Z</time>
      </trkpt>
      <trkpt lat="53.698693010956049" lon="10.778669994324446">
        <ele>5.91</ele>
        <time>2019-05-08T05:39:37Z</time>
      </trkpt>
      <trkpt lat="53.69888998568058" lon="10.777885029092431">
        <ele>2.06</ele>
        <time>2019-05-08T05:39:46Z</time>
      </trkpt>
      <trkpt lat="53.699010014533997" lon="10.7774100266397">
        <ele>2.06</ele>
        <time>2019-05-08T05:39:50Z</time>
      </trkpt>
      <trkpt lat="53.699025018140674" lon="10.777342971414328">
        <ele>2.54</ele>
        <time>2019-05-08T05:39:51Z</time>
      </trkpt>
      <trkpt lat="53.698943965137005" lon="10.777200981974602">
        <ele>2.54</ele>
        <time>2019-05-08T05:39:52Z</time>
      </trkpt>
      <trkpt lat="53.698886968195438" lon="10.777178015559912">
        <ele>2.54</ele>
        <time>2019-05-08T05:39:53Z</time>
      </trkpt>
      <trkpt lat="53.698819996789098" lon="10.777150020003319">
        <ele>2.54</ele>
        <time>2019-05-08T05:39:54Z</time>
      </trkpt>
      <trkpt lat="53.698739027604461" lon="10.777115989476442">
        <ele>3.02</ele>
        <time>2019-05-08T05:39:55Z</time>
      </trkpt>
      <trkpt lat="53.698284979909658" lon="10.776952039450407">
        <ele>3.02</ele>
        <time>2019-05-08T05:40:00Z</time>
      </trkpt>
      <trkpt lat="53.698125975206494" lon="10.776900993660092">
        <ele>3.02</ele>
        <time>2019-05-08T05:40:02Z</time>
      </trkpt>
      <trkpt lat="53.698059003800154" lon="10.776911973953247">
        <ele>3.02</ele>
        <time>2019-05-08T05:40:03Z</time>
      </trkpt>
      <trkpt lat="53.697847025468946" lon="10.776943992823362">
        <ele>2.06</ele>
        <time>2019-05-08T05:40:08Z</time>
      </trkpt>
      <trkpt lat="53.697833027690649" lon="10.776946004480124">
        <ele>2.06</ele>
        <time>2019-05-08T05:40:09Z</time>
      </trkpt>
      <trkpt lat="53.697833027690649" lon="10.776946004480124">
        <ele>2.54</ele>
        <time>2019-05-08T05:40:21Z</time>
      </trkpt>
      <trkpt lat="53.697790028527379" lon="10.776950027793646">
        <ele>3.5</ele>
        <time>2019-05-08T05:40:32Z</time>
      </trkpt>
      <trkpt lat="53.697847025468946" lon="10.776943992823362">
        <ele>3.5</ele>
        <time>2019-05-08T05:40:33Z</time>
      </trkpt>
      <trkpt lat="53.697847025468946" lon="10.776943992823362">
        <ele>3.02</ele>
        <time>2019-05-08T05:40:34Z</time>
      </trkpt>
      <trkpt lat="53.698484972119331" lon="10.777014987543225">
        <ele>1.1</ele>
        <time>2019-05-08T05:40:42Z</time>
      </trkpt>
      <trkpt lat="53.698798036202788" lon="10.777139961719513">
        <ele>2.06</ele>
        <time>2019-05-08T05:40:49Z</time>
      </trkpt>
      <trkpt lat="53.698882022872567" lon="10.77717499807477">
        <ele>2.06</ele>
        <time>2019-05-08T05:40:52Z</time>
      </trkpt>
      <trkpt lat="53.698917981237173" lon="10.777190001681447">
        <ele>2.54</ele>
        <time>2019-05-08T05:40:53Z</time>
      </trkpt>
      <trkpt lat="53.698998028412461" lon="10.777460988610983">
        <ele>2.54</ele>
        <time>2019-05-08T05:40:54Z</time>
      </trkpt>
      <trkpt lat="53.69897497817874" lon="10.777557967230678">
        <ele>2.54</ele>
        <time>2019-05-08T05:40:55Z</time>
      </trkpt>
      <trkpt lat="53.698946982622147" lon="10.777665004134178">
        <ele>2.54</ele>
        <time>2019-05-08T05:40:56Z</time>
      </trkpt>
      <trkpt lat="53.698916975408792" lon="10.777782015502453">
        <ele>2.54</ele>
        <time>2019-05-08T05:40:57Z</time>
      </trkpt>
      <trkpt lat="53.698884034529328" lon="10.777910007163882">
        <ele>2.54</ele>
        <time>2019-05-08T05:40:58Z</time>
      </trkpt>
      <trkpt lat="53.69884598068893" lon="10.77805501408875">
        <ele>3.02</ele>
        <time>2019-05-08T05:40:59Z</time>
      </trkpt>
      <trkpt lat="53.698638025671244" lon="10.778893958777189">
        <ele>1.58</ele>
        <time>2019-05-08T05:41:04Z</time>
      </trkpt>
      <trkpt lat="53.698195964097977" lon="10.780682992190123">
        <ele>-0.34</ele>
        <time>2019-05-08T05:41:13Z</time>
      </trkpt>
      <trkpt lat="53.69775197468698" lon="10.782471019774675">
        <ele>-0.82</ele>
        <time>2019-05-08T05:41:22Z</time>
      </trkpt>
      <trkpt lat="53.697661031037569" lon="10.782909980043769">
        <ele>-0.82</ele>
        <time>2019-05-08T05:41:25Z</time>
      </trkpt>
      <trkpt lat="53.697567991912365" lon="10.783231006935239">
        <ele>-0.34</ele>
        <time>2019-05-08T05:41:31Z</time>
      </trkpt>
      <trkpt lat="53.697567991912365" lon="10.783231006935239">
        <ele>-0.34</ele>
        <time>2019-05-08T05:41:33Z</time>
      </trkpt>
      <trkpt lat="53.69749397970736" lon="10.783390011638403">
        <ele>0.14</ele>
        <time>2019-05-08T05:41:36Z</time>
      </trkpt>
      <trkpt lat="53.697482999414206" lon="10.783495036885142">
        <ele>0.14</ele>
        <time>2019-05-08T05:41:37Z</time>
      </trkpt>
      <trkpt lat="53.697418039664626" lon="10.783829977735877">
        <ele>0.14</ele>
        <time>2019-05-08T05:41:40Z</time>
      </trkpt>
      <trkpt lat="53.697081003338099" lon="10.785244004800916">
        <ele>1.58</ele>
        <time>2019-05-08T05:41:49Z</time>
      </trkpt>
      <trkpt lat="53.696996010839939" lon="10.785568971186876">
        <ele>1.58</ele>
        <time>2019-05-08T05:41:51Z</time>
      </trkpt>
      <trkpt lat="53.696944965049624" lon="10.785763012245297">
        <ele>1.58</ele>
        <time>2019-05-08T05:41:52Z</time>
      </trkpt>
      <trkpt lat="53.696508016437292" lon="10.787439979612827">
        <ele>2.54</ele>
        <time>2019-05-08T05:42:02Z</time>
      </trkpt>
      <trkpt lat="53.696469962596893" lon="10.787603007629514">
        <ele>3.02</ele>
        <time>2019-05-08T05:42:03Z</time>
      </trkpt>
      <trkpt lat="53.696393016725779" lon="10.787925040349364">
        <ele>3.98</ele>
        <time>2019-05-08T05:42:05Z</time>
      </trkpt>
      <trkpt lat="53.69635496288538" lon="10.788082033395767">
        <ele>4.94</ele>
        <time>2019-05-08T05:42:06Z</time>
      </trkpt>
      <trkpt lat="53.696280028671026" lon="10.788399036973715">
        <ele>6.39</ele>
        <time>2019-05-08T05:42:08Z</time>
      </trkpt>
      <trkpt lat="53.696242980659008" lon="10.788557035848498">
        <ele>7.35</ele>
        <time>2019-05-08T05:42:09Z</time>
      </trkpt>
      <trkpt lat="53.696205010637641" lon="10.788713023066521">
        <ele>8.310000000000001</ele>
        <time>2019-05-08T05:42:10Z</time>
      </trkpt>
      <trkpt lat="53.696168968454003" lon="10.788865992799401">
        <ele>9.27</ele>
        <time>2019-05-08T05:42:11Z</time>
      </trkpt>
      <trkpt lat="53.696133010089397" lon="10.789010999724269">
        <ele>9.75</ele>
        <time>2019-05-08T05:42:12Z</time>
      </trkpt>
      <trkpt lat="53.695947015658021" lon="10.789725976064801">
        <ele>14.08</ele>
        <time>2019-05-08T05:42:17Z</time>
      </trkpt>
      <trkpt lat="53.695910973474383" lon="10.789863020181656">
        <ele>14.56</ele>
        <time>2019-05-08T05:42:18Z</time>
      </trkpt>
      <trkpt lat="53.695880966261029" lon="10.789978019893169">
        <ele>15.52</ele>
        <time>2019-05-08T05:42:19Z</time>
      </trkpt>
      <trkpt lat="53.695871997624636" lon="10.790100982412696">
        <ele>16</ele>
        <time>2019-05-08T05:42:20Z</time>
      </trkpt>
      <trkpt lat="53.695871997624636" lon="10.790162002667785">
        <ele>16.960000000000001</ele>
        <time>2019-05-08T05:42:21Z</time>
      </trkpt>
      <trkpt lat="53.695871997624636" lon="10.790198966860771">
        <ele>17.920000000000002</ele>
        <time>2019-05-08T05:42:22Z</time>
      </trkpt>
      <trkpt lat="53.695871997624636" lon="10.790211036801338">
        <ele>18.879999999999999</ele>
        <time>2019-05-08T05:42:29Z</time>
      </trkpt>
      <trkpt lat="53.695871997624636" lon="10.790248000994325">
        <ele>19.84</ele>
        <time>2019-05-08T05:42:30Z</time>
      </trkpt>
      <trkpt lat="53.695871997624636" lon="10.790282031521201">
        <ele>21.289999999999999</ele>
        <time>2019-05-08T05:42:31Z</time>
      </trkpt>
      <trkpt lat="53.695871997624636" lon="10.790326958522201">
        <ele>22.25</ele>
        <time>2019-05-08T05:42:32Z</time>
      </trkpt>
      <trkpt lat="53.695916002616286" lon="10.790371969342232">
        <ele>23.690000000000001</ele>
        <time>2019-05-08T05:42:33Z</time>
      </trkpt>
      <trkpt lat="53.69596897624433" lon="10.790365012362599">
        <ele>24.170000000000002</ele>
        <time>2019-05-08T05:42:34Z</time>
      </trkpt>
      <trkpt lat="53.696036031469703" lon="10.790356965735555">
        <ele>25.129999999999999</ele>
        <time>2019-05-08T05:42:35Z</time>
      </trkpt>
      <trkpt lat="53.696111971512437" lon="10.790347997099161">
        <ele>25.609999999999999</ele>
        <time>2019-05-08T05:42:36Z</time>
      </trkpt>
      <trkpt lat="53.69648496620357" lon="10.790301980450749">
        <ele>28.5</ele>
        <time>2019-05-08T05:42:40Z</time>
      </trkpt>
      <trkpt lat="53.697336986660957" lon="10.790198966860771">
        <ele>34.259999999999998</ele>
        <time>2019-05-08T05:42:50Z</time>
      </trkpt>
      <trkpt lat="53.698076019063592" lon="10.790101988241076">
        <ele>42.439999999999998</ele>
        <time>2019-05-08T05:42:58Z</time>
      </trkpt>
      <trkpt lat="53.698425963521004" lon="10.790054965764284">
        <ele>45.799999999999997</ele>
        <time>2019-05-08T05:43:03Z</time>
      </trkpt>
      <trkpt lat="53.698599971830845" lon="10.790027976036072">
        <ele>48.68</ele>
        <time>2019-05-08T05:43:11Z</time>
      </trkpt>
      <trkpt lat="53.698681024834514" lon="10.790014984086156">
        <ele>49.649999999999999</ele>
        <time>2019-05-08T05:43:17Z</time>
      </trkpt>
      <trkpt lat="53.699270021170378" lon="10.789940971881151">
        <ele>50.130000000000003</ele>
        <time>2019-05-08T05:43:24Z</time>
      </trkpt>
      <trkpt lat="53.700075019150972" lon="10.78985002823174">
        <ele>48.68</ele>
        <time>2019-05-08T05:43:35Z</time>
      </trkpt>
      <trkpt lat="53.700393028557301" lon="10.789809040725231">
        <ele>46.759999999999998</ele>
        <time>2019-05-08T05:43:40Z</time>
      </trkpt>
      <trkpt lat="53.701400030404329" lon="10.789702003821731">
        <ele>46.280000000000001</ele>
        <time>2019-05-08T05:43:52Z</time>
      </trkpt>
      <trkpt lat="53.701688032597303" lon="10.78959496691823">
        <ele>45.799999999999997</ele>
        <time>2019-05-08T05:43:55Z</time>
      </trkpt>
      <trkpt lat="53.701785011216998" lon="10.789540987461805">
        <ele>45.32</ele>
        <time>2019-05-08T05:43:56Z</time>
      </trkpt>
      <trkpt lat="53.701902022585273" lon="10.789476027712226">
        <ele>45.32</ele>
        <time>2019-05-08T05:43:57Z</time>
      </trkpt>
      <trkpt lat="53.702664021402597" lon="10.788922989740968">
        <ele>45.799999999999997</ele>
        <time>2019-05-08T05:44:05Z</time>
      </trkpt>
      <trkpt lat="53.702773991972208" lon="10.788870016112924">
        <ele>45.799999999999997</ele>
        <time>2019-05-08T05:44:06Z</time>
      </trkpt>
      <trkpt lat="53.703384026885033" lon="10.788763985037804">
        <ele>46.280000000000001</ele>
        <time>2019-05-08T05:44:11Z</time>
      </trkpt>
      <trkpt lat="53.703512018546462" lon="10.788745963945985">
        <ele>46.280000000000001</ele>
        <time>2019-05-08T05:44:12Z</time>
      </trkpt>
      <trkpt lat="53.704278040677309" lon="10.788563992828131">
        <ele>45.799999999999997</ele>
        <time>2019-05-08T05:44:18Z</time>
      </trkpt>
      <trkpt lat="53.705568015575409" lon="10.787781961262226">
        <ele>45.799999999999997</ele>
        <time>2019-05-08T05:44:28Z</time>
      </trkpt>
      <trkpt lat="53.706564959138632" lon="10.78697101213038">
        <ele>42.920000000000002</ele>
        <time>2019-05-08T05:44:37Z</time>
      </trkpt>
      <trkpt lat="53.706996040418744" lon="10.786509001627564">
        <ele>41.469999999999999</ele>
        <time>2019-05-08T05:44:41Z</time>
      </trkpt>
      <trkpt lat="53.707116991281509" lon="10.786431971937418">
        <ele>40.509999999999998</ele>
        <time>2019-05-08T05:44:42Z</time>
      </trkpt>
      <trkpt lat="53.707355037331581" lon="10.786363994702697">
        <ele>39.549999999999997</ele>
        <time>2019-05-08T05:44:44Z</time>
      </trkpt>
      <trkpt lat="53.707502977922559" lon="10.786320995539427">
        <ele>39.07</ele>
        <time>2019-05-08T05:44:45Z</time>
      </trkpt>
      <trkpt lat="53.707594005391002" lon="10.786331975832582">
        <ele>39.07</ele>
        <time>2019-05-08T05:44:46Z</time>
      </trkpt>
      <trkpt lat="53.708868976682425" lon="10.786488968878984">
        <ele>37.149999999999999</ele>
        <time>2019-05-08T05:44:56Z</time>
      </trkpt>
      <trkpt lat="53.709605997428298" lon="10.78671301715076">
        <ele>33.780000000000001</ele>
        <time>2019-05-08T05:45:02Z</time>
      </trkpt>
      <trkpt lat="53.710631020367146" lon="10.787377031520009">
        <ele>34.259999999999998</ele>
        <time>2019-05-08T05:45:11Z</time>
      </trkpt>
      <trkpt lat="53.712240010499954" lon="10.788285965099931">
        <ele>37.149999999999999</ele>
        <time>2019-05-08T05:45:24Z</time>
      </trkpt>
      <trkpt lat="53.712666984647512" lon="10.7883670181036">
        <ele>36.189999999999998</ele>
        <time>2019-05-08T05:45:27Z</time>
      </trkpt>
      <trkpt lat="53.712800005450845" lon="10.788371963426471">
        <ele>35.710000000000001</ele>
        <time>2019-05-08T05:45:28Z</time>
      </trkpt>
      <trkpt lat="53.713217005133629" lon="10.788285965099931">
        <ele>34.259999999999998</ele>
        <time>2019-05-08T05:45:31Z</time>
      </trkpt>
      <trkpt lat="53.713355977088213" lon="10.788200972601771">
        <ele>33.780000000000001</ele>
        <time>2019-05-08T05:45:32Z</time>
      </trkpt>
      <trkpt lat="53.71347701177001" lon="10.788101982325315">
        <ele>32.82</ele>
        <time>2019-05-08T05:45:33Z</time>
      </trkpt>
      <trkpt lat="53.71358597651124" lon="10.787949012592435">
        <ele>32.340000000000003</ele>
        <time>2019-05-08T05:45:34Z</time>
      </trkpt>
      <trkpt lat="53.713691001757979" lon="10.787801994010806">
        <ele>32.340000000000003</ele>
        <time>2019-05-08T05:45:35Z</time>
      </trkpt>
      <trkpt lat="53.713780017569661" lon="10.78766000457108">
        <ele>31.859999999999999</ele>
        <time>2019-05-08T05:45:36Z</time>
      </trkpt>
      <trkpt lat="53.71384397149086" lon="10.787478033453226">
        <ele>31.859999999999999</ele>
        <time>2019-05-08T05:45:37Z</time>
      </trkpt>
      <trkpt lat="53.713905997574329" lon="10.787298996001482">
        <ele>32.340000000000003</ele>
        <time>2019-05-08T05:45:38Z</time>
      </trkpt>
      <trkpt lat="53.713956037536263" lon="10.787119958549738">
        <ele>32.340000000000003</ele>
        <time>2019-05-08T05:45:39Z</time>
      </trkpt>
      <trkpt lat="53.71399300172925" lon="10.786934969946742">
        <ele>32.82</ele>
        <time>2019-05-08T05:45:40Z</time>
      </trkpt>
      <trkpt lat="53.714098026975989" lon="10.786410011351109">
        <ele>36.189999999999998</ele>
        <time>2019-05-08T05:45:45Z</time>
      </trkpt>
      <trkpt lat="53.714111018925905" lon="10.786343039944768">
        <ele>37.149999999999999</ele>
        <time>2019-05-08T05:45:47Z</time>
      </trkpt>
      <trkpt lat="53.714102972298861" lon="10.786324013024569">
        <ele>37.630000000000003</ele>
        <time>2019-05-08T05:45:48Z</time>
      </trkpt>
      <trkpt lat="53.714066008105874" lon="10.7862429600209">
        <ele>38.109999999999999</ele>
        <time>2019-05-08T05:45:49Z</time>
      </trkpt>
      <trkpt lat="53.713911026716232" lon="10.785906007513404">
        <ele>39.549999999999997</ele>
        <time>2019-05-08T05:45:52Z</time>
      </trkpt>
      <trkpt lat="53.713856041431427" lon="10.785753037780523">
        <ele>39.549999999999997</ele>
        <time>2019-05-08T05:45:53Z</time>
      </trkpt>
      <trkpt lat="53.713651020079851" lon="10.784584013745189">
        <ele>40.030000000000001</ele>
        <time>2019-05-08T05:45:59Z</time>
      </trkpt>
      <trkpt lat="53.713684966787696" lon="10.783611964434385">
        <ele>39.07</ele>
        <time>2019-05-08T05:46:04Z</time>
      </trkpt>
      <trkpt lat="53.713703993707895" lon="10.783403003588319">
        <ele>38.590000000000003</ele>
        <time>2019-05-08T05:46:05Z</time>
      </trkpt>
      <trkpt lat="53.713734000921249" lon="10.783256990835071">
        <ele>38.590000000000003</ele>
        <time>2019-05-08T05:46:06Z</time>
      </trkpt>
      <trkpt lat="53.713770965114236" lon="10.783081976696849">
        <ele>38.590000000000003</ele>
        <time>2019-05-08T05:46:07Z</time>
      </trkpt>
      <trkpt lat="53.713807007297873" lon="10.782906962558627">
        <ele>38.109999999999999</ele>
        <time>2019-05-08T05:46:08Z</time>
      </trkpt>
      <trkpt lat="53.713801978155971" lon="10.782731026411057">
        <ele>38.109999999999999</ele>
        <time>2019-05-08T05:46:09Z</time>
      </trkpt>
      <trkpt lat="53.713790997862816" lon="10.782532962039113">
        <ele>38.109999999999999</ele>
        <time>2019-05-08T05:46:10Z</time>
      </trkpt>
      <trkpt lat="53.713741041719913" lon="10.782364988699555">
        <ele>37.630000000000003</ele>
        <time>2019-05-08T05:46:11Z</time>
      </trkpt>
      <trkpt lat="53.713673986494541" lon="10.782174970954657">
        <ele>37.630000000000003</ele>
        <time>2019-05-08T05:46:12Z</time>
      </trkpt>
      <trkpt lat="53.713467037305236" lon="10.781595027074218">
        <ele>36.189999999999998</ele>
        <time>2019-05-08T05:46:15Z</time>
      </trkpt>
      <trkpt lat="53.713223040103912" lon="10.780907040461898">
        <ele>32.340000000000003</ele>
        <time>2019-05-08T05:46:19Z</time>
      </trkpt>
      <trkpt lat="53.713102005422115" lon="10.780588025227189">
        <ele>30.899999999999999</ele>
        <time>2019-05-08T05:46:21Z</time>
      </trkpt>
      <trkpt lat="53.712871000170708" lon="10.779985031113029">
        <ele>29.460000000000001</ele>
        <time>2019-05-08T05:46:25Z</time>
      </trkpt>
      <trkpt lat="53.712809979915619" lon="10.779739022254944">
        <ele>29.460000000000001</ele>
        <time>2019-05-08T05:46:27Z</time>
      </trkpt>
      <trkpt lat="53.712835963815451" lon="10.779601978138089">
        <ele>29.460000000000001</ele>
        <time>2019-05-08T05:46:28Z</time>
      </trkpt>
      <trkpt lat="53.712892038747668" lon="10.779514973983169">
        <ele>29.460000000000001</ele>
        <time>2019-05-08T05:46:29Z</time>
      </trkpt>
      <trkpt lat="53.712964039295912" lon="10.779442973434925">
        <ele>29.940000000000001</ele>
        <time>2019-05-08T05:46:30Z</time>
      </trkpt>
      <trkpt lat="53.713054982945323" lon="10.779368039220572">
        <ele>29.940000000000001</ele>
        <time>2019-05-08T05:46:31Z</time>
      </trkpt>
      <trkpt lat="53.713803989812732" lon="10.778854982927442">
        <ele>31.379999999999999</ele>
        <time>2019-05-08T05:46:37Z</time>
      </trkpt>
      <trkpt lat="53.713928963989019" lon="10.778702013194561">
        <ele>31.379999999999999</ele>
        <time>2019-05-08T05:46:38Z</time>
      </trkpt>
      <trkpt lat="53.714022003114223" lon="10.778501015156507">
        <ele>31.859999999999999</ele>
        <time>2019-05-08T05:46:39Z</time>
      </trkpt>
      <trkpt lat="53.714072965085506" lon="10.778252994641662">
        <ele>32.340000000000003</ele>
        <time>2019-05-08T05:46:40Z</time>
      </trkpt>
      <trkpt lat="53.714108001440763" lon="10.777993993833661">
        <ele>32.340000000000003</ele>
        <time>2019-05-08T05:46:41Z</time>
      </trkpt>
      <trkpt lat="53.714143959805369" lon="10.777723006904125">
        <ele>33.299999999999997</ele>
        <time>2019-05-08T05:46:42Z</time>
      </trkpt>
      <trkpt lat="53.714394997805357" lon="10.775858033448458">
        <ele>35.710000000000001</ele>
        <time>2019-05-08T05:46:50Z</time>
      </trkpt>
      <trkpt lat="53.714412013068795" lon="10.775726018473506">
        <ele>35.710000000000001</ele>
        <time>2019-05-08T05:46:51Z</time>
      </trkpt>
      <trkpt lat="53.714461969211698" lon="10.775569025427103">
        <ele>36.189999999999998</ele>
        <time>2019-05-08T05:46:52Z</time>
      </trkpt>
      <trkpt lat="53.714517960324883" lon="10.775566007941961">
        <ele>36.189999999999998</ele>
        <time>2019-05-08T05:46:53Z</time>
      </trkpt>
      <trkpt lat="53.714587027207017" lon="10.77556299045682">
        <ele>37.149999999999999</ele>
        <time>2019-05-08T05:46:54Z</time>
      </trkpt>
      <trkpt lat="53.714671013876796" lon="10.775557961314917">
        <ele>37.149999999999999</ele>
        <time>2019-05-08T05:46:55Z</time>
      </trkpt>
      <trkpt lat="53.715440975502133" lon="10.775516973808408">
        <ele>38.590000000000003</ele>
        <time>2019-05-08T05:47:01Z</time>
      </trkpt>
      <trkpt lat="53.716858020052314" lon="10.775441033765674">
        <ele>39.549999999999997</ele>
        <time>2019-05-08T05:47:11Z</time>
      </trkpt>
      <trkpt lat="53.718315968289971" lon="10.775251016020775">
        <ele>39.07</ele>
        <time>2019-05-08T05:47:20Z</time>
      </trkpt>
      <trkpt lat="53.720139032229781" lon="10.774932000786066">
        <ele>40.030000000000001</ele>
        <time>2019-05-08T05:47:28Z</time>
      </trkpt>
      <trkpt lat="53.723113015294075" lon="10.774411987513304">
        <ele>41.469999999999999</ele>
        <time>2019-05-08T05:47:40Z</time>
      </trkpt>
      <trkpt lat="53.725433964282274" lon="10.774005968123674">
        <ele>43.880000000000003</ele>
        <time>2019-05-08T05:47:49Z</time>
      </trkpt>
      <trkpt lat="53.727001966908574" lon="10.773731963708997">
        <ele>46.280000000000001</ele>
        <time>2019-05-08T05:47:56Z</time>
      </trkpt>
      <trkpt lat="53.72877599671483" lon="10.773431975394487">
        <ele>42.439999999999998</ele>
        <time>2019-05-08T05:48:04Z</time>
      </trkpt>
      <trkpt lat="53.730548014864326" lon="10.773132992908359">
        <ele>34.740000000000002</ele>
        <time>2019-05-08T05:48:12Z</time>
      </trkpt>
      <trkpt lat="53.731017988175154" lon="10.773059986531734">
        <ele>31.859999999999999</ele>
        <time>2019-05-08T05:48:17Z</time>
      </trkpt>
      <trkpt lat="53.73107397928834" lon="10.773059986531734">
        <ele>31.379999999999999</ele>
        <time>2019-05-08T05:48:18Z</time>
      </trkpt>
      <trkpt lat="53.731105998158455" lon="10.773059986531734">
        <ele>30.899999999999999</ele>
        <time>2019-05-08T05:48:19Z</time>
      </trkpt>
      <trkpt lat="53.731234995648265" lon="10.773038025945425">
        <ele>30.420000000000002</ele>
        <time>2019-05-08T05:48:20Z</time>
      </trkpt>
      <trkpt lat="53.731349995359778" lon="10.772808026522398">
        <ele>29.460000000000001</ele>
        <time>2019-05-08T05:48:22Z</time>
      </trkpt>
      <trkpt lat="53.731440016999841" lon="10.772644998505712">
        <ele>28.98</ele>
        <time>2019-05-08T05:48:23Z</time>
      </trkpt>
      <trkpt lat="53.731856010854244" lon="10.772382980212569">
        <ele>26.09</ele>
        <time>2019-05-08T05:48:26Z</time>
      </trkpt>
      <trkpt lat="53.732546009123325" lon="10.771948965266347">
        <ele>21.77</ele>
        <time>2019-05-08T05:48:31Z</time>
      </trkpt>
      <trkpt lat="53.732648016884923" lon="10.771815022453666">
        <ele>20.809999999999999</ele>
        <time>2019-05-08T05:48:32Z</time>
      </trkpt>
      <trkpt lat="53.733023023232818" lon="10.771152013912797">
        <ele>19.84</ele>
        <time>2019-05-08T05:48:36Z</time>
      </trkpt>
      <trkpt lat="53.733127964660525" lon="10.770966019481421">
        <ele>19.84</ele>
        <time>2019-05-08T05:48:37Z</time>
      </trkpt>
      <trkpt lat="53.733227038756013" lon="10.770791005343199">
        <ele>19.84</ele>
        <time>2019-05-08T05:48:38Z</time>
      </trkpt>
      <trkpt lat="53.733472041785717" lon="10.770598975941539">
        <ele>19.84</ele>
        <time>2019-05-08T05:48:40Z</time>
      </trkpt>
      <trkpt lat="53.734772996976972" lon="10.76959197409451">
        <ele>16.48</ele>
        <time>2019-05-08T05:48:48Z</time>
      </trkpt>
      <trkpt lat="53.735619988292456" lon="10.768937012180686">
        <ele>14.08</ele>
        <time>2019-05-08T05:48:53Z</time>
      </trkpt>
      <trkpt lat="53.735791984945536" lon="10.768803991377354">
        <ele>13.6</ele>
        <time>2019-05-08T05:48:54Z</time>
      </trkpt>
      <trkpt lat="53.735961969941854" lon="10.768671976402402">
        <ele>13.119999999999999</ele>
        <time>2019-05-08T05:48:55Z</time>
      </trkpt>
      <trkpt lat="53.736131032928824" lon="10.768541973084211">
        <ele>12.630000000000001</ele>
        <time>2019-05-08T05:48:56Z</time>
      </trkpt>
      <trkpt lat="53.736290037631989" lon="10.76838799752295">
        <ele>12.15</ele>
        <time>2019-05-08T05:48:57Z</time>
      </trkpt>
      <trkpt lat="53.736443007364869" lon="10.768228992819786">
        <ele>11.67</ele>
        <time>2019-05-08T05:48:58Z</time>
      </trkpt>
      <trkpt lat="53.73659698292613" lon="10.768070993945003">
        <ele>11.19</ele>
        <time>2019-05-08T05:48:59Z</time>
      </trkpt>
      <trkpt lat="53.736747018992901" lon="10.767917018383741">
        <ele>11.19</ele>
        <time>2019-05-08T05:49:00Z</time>
      </trkpt>
      <trkpt lat="53.736891020089388" lon="10.767776034772396">
        <ele>10.710000000000001</ele>
        <time>2019-05-08T05:49:01Z</time>
      </trkpt>
      <trkpt lat="53.738117963075638" lon="10.766735002398491">
        <ele>6.87</ele>
        <time>2019-05-08T05:49:09Z</time>
      </trkpt>
      <trkpt lat="53.73839900828898" lon="10.766428979113698">
        <ele>5.42</ele>
        <time>2019-05-08T05:49:11Z</time>
      </trkpt>
      <trkpt lat="53.73852800577879" lon="10.766258994117379">
        <ele>4.46</ele>
        <time>2019-05-08T05:49:12Z</time>
      </trkpt>
      <trkpt lat="53.739048019051552" lon="10.765644013881683">
        <ele>1.1</ele>
        <time>2019-05-08T05:49:16Z</time>
      </trkpt>
      <trkpt lat="53.740023002028465" lon="10.764946974813938">
        <ele>-6.11</ele>
        <time>2019-05-08T05:49:22Z</time>
      </trkpt>
      <trkpt lat="53.740173038095236" lon="10.76484203338623">
        <ele>-7.55</ele>
        <time>2019-05-08T05:49:23Z</time>
      </trkpt>
      <trkpt lat="53.740315027534962" lon="10.764746982604265">
        <ele>-9</ele>
        <time>2019-05-08T05:49:24Z</time>
      </trkpt>
      <trkpt lat="53.740448970347643" lon="10.764697026461363">
        <ele>-9.960000000000001</ele>
        <time>2019-05-08T05:49:25Z</time>
      </trkpt>
      <trkpt lat="53.740568999201059" lon="10.764707000926137">
        <ele>-11.4</ele>
        <time>2019-05-08T05:49:26Z</time>
      </trkpt>
      <trkpt lat="53.740697996690869" lon="10.764718987047672">
        <ele>-12.84</ele>
        <time>2019-05-08T05:49:27Z</time>
      </trkpt>
      <trkpt lat="53.741664011031389" lon="10.764745976775885">
        <ele>-19.57</ele>
        <time>2019-05-08T05:49:33Z</time>
      </trkpt>
      <trkpt lat="53.74183701351285" lon="10.764728039503098">
        <ele>-20.530000000000001</ele>
        <time>2019-05-08T05:49:34Z</time>
      </trkpt>
      <trkpt lat="53.742819959297776" lon="10.764629971235991">
        <ele>-24.379999999999999</ele>
        <time>2019-05-08T05:49:40Z</time>
      </trkpt>
      <trkpt lat="53.743058005347848" lon="10.76460599899292">
        <ele>-24.859999999999999</ele>
        <time>2019-05-08T05:49:42Z</time>
      </trkpt>
      <trkpt lat="53.743122965097427" lon="10.76458596624434">
        <ele>-24.379999999999999</ele>
        <time>2019-05-08T05:49:43Z</time>
      </trkpt>
      <trkpt lat="53.743180967867374" lon="10.764567023143172">
        <ele>-24.379999999999999</ele>
        <time>2019-05-08T05:49:44Z</time>
      </trkpt>
      <trkpt lat="53.743361011147499" lon="10.764510026201606">
        <ele>-21.489999999999998</ele>
        <time>2019-05-08T05:49:46Z</time>
      </trkpt>
      <trkpt lat="53.74409300275147" lon="10.763463964685798">
        <ele>-12.84</ele>
        <time>2019-05-08T05:49:56Z</time>
      </trkpt>
      <trkpt lat="53.744963966310024" lon="10.762284966185689">
        <ele>-2.75</ele>
        <time>2019-05-08T05:50:07Z</time>
      </trkpt>
      <trkpt lat="53.746185963973403" lon="10.760833974927664">
        <ele>-0.34</ele>
        <time>2019-05-08T05:50:23Z</time>
      </trkpt>
      <trkpt lat="53.746244972571731" lon="10.760762980207801">
        <ele>-0.82</ele>
        <time>2019-05-08T05:50:24Z</time>
      </trkpt>
      <trkpt lat="53.746339017525315" lon="10.760616967454553">
        <ele>-1.3</ele>
        <time>2019-05-08T05:50:26Z</time>
      </trkpt>
      <trkpt lat="53.746382016688585" lon="10.760529041290283">
        <ele>-1.79</ele>
        <time>2019-05-08T05:50:27Z</time>
      </trkpt>
      <trkpt lat="53.746473966166377" lon="10.760342041030526">
        <ele>-2.27</ele>
        <time>2019-05-08T05:50:29Z</time>
      </trkpt>
      <trkpt lat="53.746518976986408" lon="10.760250007733703">
        <ele>-2.27</ele>
        <time>2019-05-08T05:50:30Z</time>
      </trkpt>
      <trkpt lat="53.746875040233135" lon="10.759567972272635">
        <ele>-4.19</ele>
        <time>2019-05-08T05:50:37Z</time>
      </trkpt>
      <trkpt lat="53.747216016054153" lon="10.759117025882006">
        <ele>-6.59</ele>
        <time>2019-05-08T05:50:43Z</time>
      </trkpt>
      <trkpt lat="53.747369991615415" lon="10.758929019793868">
        <ele>-7.55</ele>
        <time>2019-05-08T05:50:46Z</time>
      </trkpt>
      <trkpt lat="53.747479962185025" lon="10.758862970396876">
        <ele>-8.51</ele>
        <time>2019-05-08T05:50:48Z</time>
      </trkpt>
      <trkpt lat="53.747565960511565" lon="10.758813014253974">
        <ele>-8.51</ele>
        <time>2019-05-08T05:50:49Z</time>
      </trkpt>
      <trkpt lat="53.747625974938273" lon="10.758835980668664">
        <ele>-9</ele>
        <time>2019-05-08T05:50:50Z</time>
      </trkpt>
      <trkpt lat="53.747685989364982" lon="10.758859030902386">
        <ele>-9.48</ele>
        <time>2019-05-08T05:50:51Z</time>
      </trkpt>
      <trkpt lat="53.747748015448451" lon="10.758883003145456">
        <ele>-9.48</ele>
        <time>2019-05-08T05:50:52Z</time>
      </trkpt>
      <trkpt lat="53.747810963541269" lon="10.758906975388527">
        <ele>-9.960000000000001</ele>
        <time>2019-05-08T05:50:53Z</time>
      </trkpt>
      <trkpt lat="53.747880030423403" lon="10.758959027007222">
        <ele>-9.960000000000001</ele>
        <time>2019-05-08T05:50:54Z</time>
      </trkpt>
      <trkpt lat="53.747933004051447" lon="10.759014012292027">
        <ele>-9.960000000000001</ele>
        <time>2019-05-08T05:50:55Z</time>
      </trkpt>
      <trkpt lat="53.747994024306536" lon="10.759078972041607">
        <ele>-9.960000000000001</ele>
        <time>2019-05-08T05:50:56Z</time>
      </trkpt>
      <trkpt lat="53.748060995712876" lon="10.759148960933089">
        <ele>-9.960000000000001</ele>
        <time>2019-05-08T05:50:57Z</time>
      </trkpt>
      <trkpt lat="53.748126961290836" lon="10.759218027815223">
        <ele>-9.48</ele>
        <time>2019-05-08T05:50:58Z</time>
      </trkpt>
      <trkpt lat="53.748190999031067" lon="10.759284999221563">
        <ele>-9</ele>
        <time>2019-05-08T05:50:59Z</time>
      </trkpt>
      <trkpt lat="53.748252019286156" lon="10.759349958971143">
        <ele>-8.51</ele>
        <time>2019-05-08T05:51:00Z</time>
      </trkpt>
      <trkpt lat="53.748379005119205" lon="10.759419025853276">
        <ele>-7.55</ele>
        <time>2019-05-08T05:51:02Z</time>
      </trkpt>
      <trkpt lat="53.748530969023705" lon="10.759477028623223">
        <ele>-6.59</ele>
        <time>2019-05-08T05:51:04Z</time>
      </trkpt>
      <trkpt lat="53.748607998713851" lon="10.759475016966462">
        <ele>-6.59</ele>
        <time>2019-05-08T05:51:05Z</time>
      </trkpt>
      <trkpt lat="53.748682010918856" lon="10.75947199948132">
        <ele>-5.63</ele>
        <time>2019-05-08T05:51:06Z</time>
      </trkpt>
      <trkpt lat="53.748769015073776" lon="10.759468981996179">
        <ele>-5.15</ele>
        <time>2019-05-08T05:51:07Z</time>
      </trkpt>
      <trkpt lat="53.74886498786509" lon="10.759465964511037">
        <ele>-4.67</ele>
        <time>2019-05-08T05:51:08Z</time>
      </trkpt>
      <trkpt lat="53.749149972572923" lon="10.759456995874643">
        <ele>-4.19</ele>
        <time>2019-05-08T05:51:11Z</time>
      </trkpt>
      <trkpt lat="53.749244017526507" lon="10.759453978389502">
        <ele>-4.19</ele>
        <time>2019-05-08T05:51:12Z</time>
      </trkpt>
      <trkpt lat="53.749335967004299" lon="10.75945096090436">
        <ele>-4.19</ele>
        <time>2019-05-08T05:51:13Z</time>
      </trkpt>
      <trkpt lat="53.749432023614645" lon="10.75944802723825">
        <ele>-3.71</ele>
        <time>2019-05-08T05:51:14Z</time>
      </trkpt>
      <trkpt lat="53.749532019719481" lon="10.759445009753108">
        <ele>-3.23</ele>
        <time>2019-05-08T05:51:15Z</time>
      </trkpt>
      <trkpt lat="53.749620029702783" lon="10.759441992267966">
        <ele>-3.23</ele>
        <time>2019-05-08T05:51:16Z</time>
      </trkpt>
      <trkpt lat="53.749708039686084" lon="10.759438974782825">
        <ele>-3.23</ele>
        <time>2019-05-08T05:51:17Z</time>
      </trkpt>
      <trkpt lat="53.749881964176893" lon="10.75944802723825">
        <ele>-2.75</ele>
        <time>2019-05-08T05:51:19Z</time>
      </trkpt>
      <trkpt lat="53.7501510232687" lon="10.759542994201183">
        <ele>-0.82</ele>
        <time>2019-05-08T05:51:22Z</time>
      </trkpt>
      <trkpt lat="53.751036990433931" lon="10.760140959173441">
        <ele>4.46</ele>
        <time>2019-05-08T05:51:31Z</time>
      </trkpt>
      <trkpt lat="53.751712990924716" lon="10.760598024353385">
        <ele>7.35</ele>
        <time>2019-05-08T05:51:38Z</time>
      </trkpt>
      <trkpt lat="53.751908037811518" lon="10.760682011023164">
        <ele>7.35</ele>
        <time>2019-05-08T05:51:40Z</time>
      </trkpt>
      <trkpt lat="53.752637011930346" lon="10.760707994922996">
        <ele>8.789999999999999</ele>
        <time>2019-05-08T05:51:46Z</time>
      </trkpt>
      <trkpt lat="53.752867011353374" lon="10.760716963559389">
        <ele>9.75</ele>
        <time>2019-05-08T05:51:48Z</time>
      </trkpt>
      <trkpt lat="53.752977987751365" lon="10.760720986872911">
        <ele>10.23</ele>
        <time>2019-05-08T05:51:49Z</time>
      </trkpt>
      <trkpt lat="53.753087036311626" lon="10.76076096855104">
        <ele>10.710000000000001</ele>
        <time>2019-05-08T05:51:50Z</time>
      </trkpt>
      <trkpt lat="53.75417198985815" lon="10.761143015697598">
        <ele>15.52</ele>
        <time>2019-05-08T05:52:00Z</time>
      </trkpt>
      <trkpt lat="53.754649003967643" lon="10.76127503067255">
        <ele>17.440000000000001</ele>
        <time>2019-05-08T05:52:06Z</time>
      </trkpt>
      <trkpt lat="53.754721004515886" lon="10.761293973773718">
        <ele>16.960000000000001</ele>
        <time>2019-05-08T05:52:07Z</time>
      </trkpt>
      <trkpt lat="53.754791999235749" lon="10.761313000693917">
        <ele>16.48</ele>
        <time>2019-05-08T05:52:08Z</time>
      </trkpt>
      <trkpt lat="53.754865005612373" lon="10.761332027614117">
        <ele>15.52</ele>
        <time>2019-05-08T05:52:09Z</time>
      </trkpt>
      <trkpt lat="53.754941029474139" lon="10.761351976543665">
        <ele>15.039999999999999</ele>
        <time>2019-05-08T05:52:10Z</time>
      </trkpt>
      <trkpt lat="53.755103973671794" lon="10.761393969878554">
        <ele>14.08</ele>
        <time>2019-05-08T05:52:12Z</time>
      </trkpt>
      <trkpt lat="53.755613006651402" lon="10.761635033413768">
        <ele>15.039999999999999</ele>
        <time>2019-05-08T05:52:18Z</time>
      </trkpt>
      <trkpt lat="53.755804030224681" lon="10.761731006205082">
        <ele>15.039999999999999</ele>
        <time>2019-05-08T05:52:21Z</time>
      </trkpt>
      <trkpt lat="53.755860021337867" lon="10.761772999539971">
        <ele>15.52</ele>
        <time>2019-05-08T05:52:22Z</time>
      </trkpt>
      <trkpt lat="53.756542978808284" lon="10.762449000030756">
        <ele>18.399999999999999</ele>
        <time>2019-05-08T05:52:33Z</time>
      </trkpt>
      <trkpt lat="53.756606010720134" lon="10.762529969215393">
        <ele>18.399999999999999</ele>
        <time>2019-05-08T05:52:34Z</time>
      </trkpt>
      <trkpt lat="53.756746994331479" lon="10.762756029143929">
        <ele>19.359999999999999</ele>
        <time>2019-05-08T05:52:37Z</time>
      </trkpt>
      <trkpt lat="53.756797034293413" lon="10.762839009985328">
        <ele>19.359999999999999</ele>
        <time>2019-05-08T05:52:38Z</time>
      </trkpt>
      <trkpt lat="53.756844978779554" lon="10.762917967513204">
        <ele>19.84</ele>
        <time>2019-05-08T05:52:39Z</time>
      </trkpt>
      <trkpt lat="53.75702996738255" lon="10.763109996914864">
        <ele>19.84</ele>
        <time>2019-05-08T05:52:42Z</time>
      </trkpt>
      <trkpt lat="53.757143039256334" lon="10.763183003291488">
        <ele>19.84</ele>
        <time>2019-05-08T05:52:44Z</time>
      </trkpt>
      <trkpt lat="53.75720196403563" lon="10.763220973312855">
        <ele>19.359999999999999</ele>
        <time>2019-05-08T05:52:45Z</time>
      </trkpt>
      <trkpt lat="53.7572639901191" lon="10.763274030759931">
        <ele>19.359999999999999</ele>
        <time>2019-05-08T05:52:46Z</time>
      </trkpt>
      <trkpt lat="53.757319981232285" lon="10.763324992731214">
        <ele>19.359999999999999</ele>
        <time>2019-05-08T05:52:47Z</time>
      </trkpt>
      <trkpt lat="53.757377984002233" lon="10.763378972187638">
        <ele>19.359999999999999</ele>
        <time>2019-05-08T05:52:48Z</time>
      </trkpt>
      <trkpt lat="53.758017020300031" lon="10.763972997665405">
        <ele>20.809999999999999</ele>
        <time>2019-05-08T05:52:55Z</time>
      </trkpt>
      <trkpt lat="53.759045982733369" lon="10.764882015064359">
        <ele>23.690000000000001</ele>
        <time>2019-05-08T05:53:04Z</time>
      </trkpt>
      <trkpt lat="53.760077962651849" lon="10.765747027471662">
        <ele>23.210000000000001</ele>
        <time>2019-05-08T05:53:12Z</time>
      </trkpt>
      <trkpt lat="53.761590979993343" lon="10.767265995964408">
        <ele>19.84</ele>
        <time>2019-05-08T05:53:22Z</time>
      </trkpt>
      <trkpt lat="53.761762976646423" lon="10.767374960705638">
        <ele>19.359999999999999</ele>
        <time>2019-05-08T05:53:23Z</time>
      </trkpt>
      <trkpt lat="53.761941008269787" lon="10.767455007880926">
        <ele>18.879999999999999</ele>
        <time>2019-05-08T05:53:24Z</time>
      </trkpt>
      <trkpt lat="53.762820018455386" lon="10.767771005630493">
        <ele>16.960000000000001</ele>
        <time>2019-05-08T05:53:29Z</time>
      </trkpt>
      <trkpt lat="53.762991009280086" lon="10.767845017835498">
        <ele>16.48</ele>
        <time>2019-05-08T05:53:30Z</time>
      </trkpt>
      <trkpt lat="53.763284962624311" lon="10.768133020028472">
        <ele>16</ele>
        <time>2019-05-08T05:53:32Z</time>
      </trkpt>
      <trkpt lat="53.76398703083396" lon="10.768820000812411">
        <ele>15.039999999999999</ele>
        <time>2019-05-08T05:53:37Z</time>
      </trkpt>
      <trkpt lat="53.76413899473846" lon="10.768912034109235">
        <ele>14.56</ele>
        <time>2019-05-08T05:53:38Z</time>
      </trkpt>
      <trkpt lat="53.76508598215878" lon="10.769348982721567">
        <ele>12.15</ele>
        <time>2019-05-08T05:53:45Z</time>
      </trkpt>
      <trkpt lat="53.766021989285946" lon="10.769578982144594">
        <ele>9.75</ele>
        <time>2019-05-08T05:53:56Z</time>
      </trkpt>
      <trkpt lat="53.766628000885248" lon="10.769649976864457">
        <ele>8.310000000000001</ele>
        <time>2019-05-08T05:54:05Z</time>
      </trkpt>
      <trkpt lat="53.76667401753366" lon="10.769660035148263">
        <ele>8.310000000000001</ele>
        <time>2019-05-08T05:54:06Z</time>
      </trkpt>
      <trkpt lat="53.766710981726646" lon="10.769666992127895">
        <ele>8.310000000000001</ele>
        <time>2019-05-08T05:54:07Z</time>
      </trkpt>
      <trkpt lat="53.766746018081903" lon="10.769674032926559">
        <ele>8.310000000000001</ele>
        <time>2019-05-08T05:54:08Z</time>
      </trkpt>
      <trkpt lat="53.766784993931651" lon="10.769681995734572">
        <ele>8.310000000000001</ele>
        <time>2019-05-08T05:54:09Z</time>
      </trkpt>
      <trkpt lat="53.766840985044837" lon="10.769796995446086">
        <ele>7.83</ele>
        <time>2019-05-08T05:54:10Z</time>
      </trkpt>
      <trkpt lat="53.766899993643165" lon="10.769747039303184">
        <ele>7.83</ele>
        <time>2019-05-08T05:54:11Z</time>
      </trkpt>
      <trkpt lat="53.76706201583147" lon="10.769673027098179">
        <ele>8.310000000000001</ele>
        <time>2019-05-08T05:54:13Z</time>
      </trkpt>
      <trkpt lat="53.767452025786042" lon="10.769587028771639">
        <ele>10.710000000000001</ele>
        <time>2019-05-08T05:54:17Z</time>
      </trkpt>
      <trkpt lat="53.767553027719259" lon="10.769568001851439">
        <ele>11.19</ele>
        <time>2019-05-08T05:54:18Z</time>
      </trkpt>
      <trkpt lat="53.767951000481844" lon="10.76941897161305">
        <ele>13.119999999999999</ele>
        <time>2019-05-08T05:54:22Z</time>
      </trkpt>
      <trkpt lat="53.768259035423398" lon="10.769232977181673">
        <ele>15.039999999999999</ele>
        <time>2019-05-08T05:54:26Z</time>
      </trkpt>
      <trkpt lat="53.768357019871473" lon="10.769145973026752">
        <ele>16</ele>
        <time>2019-05-08T05:54:28Z</time>
      </trkpt>
      <trkpt lat="53.768389038741589" lon="10.76911898329854">
        <ele>16.48</ele>
        <time>2019-05-08T05:54:29Z</time>
      </trkpt>
      <trkpt lat="53.768426002934575" lon="10.769198024645448">
        <ele>17.440000000000001</ele>
        <time>2019-05-08T05:54:30Z</time>
      </trkpt>
      <trkpt lat="53.768429020419717" lon="10.769258961081505">
        <ele>17.920000000000002</ele>
        <time>2019-05-08T05:54:31Z</time>
      </trkpt>
      <trkpt lat="53.768432959914207" lon="10.769336996600032">
        <ele>17.920000000000002</ele>
        <time>2019-05-08T05:54:32Z</time>
      </trkpt>
      <trkpt lat="53.76843798905611" lon="10.769436992704868">
        <ele>18.399999999999999</ele>
        <time>2019-05-08T05:54:33Z</time>
      </trkpt>
      <trkpt lat="53.768440000712872" lon="10.769550986588001">
        <ele>18.399999999999999</ele>
        <time>2019-05-08T05:54:34Z</time>
      </trkpt>
      <trkpt lat="53.768428014591336" lon="10.769681995734572">
        <ele>18.399999999999999</ele>
        <time>2019-05-08T05:54:35Z</time>
      </trkpt>
      <trkpt lat="53.768403036519885" lon="10.769977960735559">
        <ele>19.359999999999999</ele>
        <time>2019-05-08T05:54:37Z</time>
      </trkpt>
      <trkpt lat="53.768389038741589" lon="10.770134031772614">
        <ele>20.32</ele>
        <time>2019-05-08T05:54:38Z</time>
      </trkpt>
      <trkpt lat="53.768360959365964" lon="10.770461009815335">
        <ele>21.77</ele>
        <time>2019-05-08T05:54:40Z</time>
      </trkpt>
      <trkpt lat="53.768334975466132" lon="10.770764015614986">
        <ele>23.210000000000001</ele>
        <time>2019-05-08T05:54:42Z</time>
      </trkpt>
      <trkpt lat="53.768362971022725" lon="10.770891001448035">
        <ele>24.649999999999999</ele>
        <time>2019-05-08T05:54:44Z</time>
      </trkpt>
      <trkpt lat="53.768515018746257" lon="10.771321998909116">
        <ele>26.09</ele>
        <time>2019-05-08T05:54:46Z</time>
      </trkpt>
      <trkpt lat="53.768590958788991" lon="10.771458959206939">
        <ele>26.57</ele>
        <time>2019-05-08T05:54:47Z</time>
      </trkpt>
      <trkpt lat="53.769714972004294" lon="10.773209016770124">
        <ele>28.5</ele>
        <time>2019-05-08T05:55:00Z</time>
      </trkpt>
      <trkpt lat="53.770543020218611" lon="10.774734020233154">
        <ele>28.98</ele>
        <time>2019-05-08T05:55:11Z</time>
      </trkpt>
      <trkpt lat="53.771255984902382" lon="10.776099013164639">
        <ele>29.460000000000001</ele>
        <time>2019-05-08T05:55:20Z</time>
      </trkpt>
      <trkpt lat="53.771367967128754" lon="10.776217030361295">
        <ele>29.460000000000001</ele>
        <time>2019-05-08T05:55:21Z</time>
      </trkpt>
      <trkpt lat="53.772859023883939" lon="10.777166029438376">
        <ele>30.420000000000002</ele>
        <time>2019-05-08T05:55:32Z</time>
      </trkpt>
      <trkpt lat="53.774659959599376" lon="10.778183005750179">
        <ele>30.899999999999999</ele>
        <time>2019-05-08T05:55:43Z</time>
      </trkpt>
      <trkpt lat="53.776741018518806" lon="10.779356975108385">
        <ele>30.899999999999999</ele>
        <time>2019-05-08T05:55:54Z</time>
      </trkpt>
      <trkpt lat="53.778568021953106" lon="10.780212013050914">
        <ele>27.530000000000001</ele>
        <time>2019-05-08T05:56:03Z</time>
      </trkpt>
      <trkpt lat="53.78038203343749" lon="10.78121398575604">
        <ele>25.129999999999999</ele>
        <time>2019-05-08T05:56:11Z</time>
      </trkpt>
      <trkpt lat="53.782770959660411" lon="10.782873015850782">
        <ele>24.649999999999999</ele>
        <time>2019-05-08T05:56:22Z</time>
      </trkpt>
      <trkpt lat="53.783921962603927" lon="10.784129966050386">
        <ele>25.129999999999999</ele>
        <time>2019-05-08T05:56:29Z</time>
      </trkpt>
      <trkpt lat="53.784064035862684" lon="10.784267010167241">
        <ele>25.129999999999999</ele>
        <time>2019-05-08T05:56:30Z</time>
      </trkpt>
      <trkpt lat="53.784229997545481" lon="10.784314032644033">
        <ele>24.649999999999999</ele>
        <time>2019-05-08T05:56:31Z</time>
      </trkpt>
      <trkpt lat="53.785476973280311" lon="10.784665988758206">
        <ele>23.690000000000001</ele>
        <time>2019-05-08T05:56:37Z</time>
      </trkpt>
      <trkpt lat="53.787174979224801" lon="10.785144008696079">
        <ele>18.879999999999999</ele>
        <time>2019-05-08T05:56:45Z</time>
      </trkpt>
      <trkpt lat="53.788445005193353" lon="10.785262025892735">
        <ele>15.039999999999999</ele>
        <time>2019-05-08T05:56:51Z</time>
      </trkpt>
      <trkpt lat="53.790835021063685" lon="10.785499988123775">
        <ele>10.23</ele>
        <time>2019-05-08T05:57:01Z</time>
      </trkpt>
      <trkpt lat="53.791659967973828" lon="10.785655975341797">
        <ele>8.310000000000001</ele>
        <time>2019-05-08T05:57:05Z</time>
      </trkpt>
      <trkpt lat="53.791876975446939" lon="10.785644995048642">
        <ele>7.83</ele>
        <time>2019-05-08T05:57:06Z</time>
      </trkpt>
      <trkpt lat="53.793353028595448" lon="10.785389011725783">
        <ele>5.91</ele>
        <time>2019-05-08T05:57:13Z</time>
      </trkpt>
      <trkpt lat="53.793527958914638" lon="10.785389011725783">
        <ele>5.42</ele>
        <time>2019-05-08T05:57:14Z</time>
      </trkpt>
      <trkpt lat="53.793701967224479" lon="10.785422036424279">
        <ele>5.42</ele>
        <time>2019-05-08T05:57:15Z</time>
      </trkpt>
      <trkpt lat="53.793864995241165" lon="10.785538963973522">
        <ele>5.42</ele>
        <time>2019-05-08T05:57:16Z</time>
      </trkpt>
      <trkpt lat="53.794034980237484" lon="10.785671984776855">
        <ele>5.91</ele>
        <time>2019-05-08T05:57:17Z</time>
      </trkpt>
      <trkpt lat="53.794203959405422" lon="10.785846998915076">
        <ele>5.91</ele>
        <time>2019-05-08T05:57:18Z</time>
      </trkpt>
      <trkpt lat="53.794380985200405" lon="10.78602897003293">
        <ele>5.91</ele>
        <time>2019-05-08T05:57:19Z</time>
      </trkpt>
      <trkpt lat="53.794727995991707" lon="10.7863690238446">
        <ele>5.42</ele>
        <time>2019-05-08T05:57:21Z</time>
      </trkpt>
      <trkpt lat="53.794898986816406" lon="10.786475976929069">
        <ele>4.94</ele>
        <time>2019-05-08T05:57:22Z</time>
      </trkpt>
      <trkpt lat="53.795084981247783" lon="10.786573961377144">
        <ele>4.46</ele>
        <time>2019-05-08T05:57:23Z</time>
      </trkpt>
      <trkpt lat="53.796847024932504" lon="10.787109984084964">
        <ele>4.46</ele>
        <time>2019-05-08T05:57:32Z</time>
      </trkpt>
      <trkpt lat="53.79800096154213" lon="10.787372002378106">
        <ele>3.98</ele>
        <time>2019-05-08T05:57:39Z</time>
      </trkpt>
      <trkpt lat="53.798491973429918" lon="10.78763603232801">
        <ele>3.98</ele>
        <time>2019-05-08T05:57:44Z</time>
      </trkpt>
      <trkpt lat="53.798571014776826" lon="10.787678025662899">
        <ele>3.98</ele>
        <time>2019-05-08T05:57:45Z</time>
      </trkpt>
      <trkpt lat="53.798646032810211" lon="10.787718007341027">
        <ele>3.98</ele>
        <time>2019-05-08T05:57:46Z</time>
      </trkpt>
      <trkpt lat="53.798719039186835" lon="10.787756983190775">
        <ele>4.46</ele>
        <time>2019-05-08T05:57:47Z</time>
      </trkpt>
      <trkpt lat="53.798788022249937" lon="10.787794031202793">
        <ele>4.46</ele>
        <time>2019-05-08T05:57:48Z</time>
      </trkpt>
      <trkpt lat="53.798850970342755" lon="10.787827977910638">
        <ele>4.46</ele>
        <time>2019-05-08T05:57:49Z</time>
      </trkpt>
      <trkpt lat="53.798906039446592" lon="10.787857985123992">
        <ele>4.46</ele>
        <time>2019-05-08T05:57:50Z</time>
      </trkpt>
      <trkpt lat="53.79896798171103" lon="10.787891009822488">
        <ele>4.46</ele>
        <time>2019-05-08T05:57:51Z</time>
      </trkpt>
      <trkpt lat="53.799046017229557" lon="10.787933003157377">
        <ele>4.46</ele>
        <time>2019-05-08T05:57:52Z</time>
      </trkpt>
      <trkpt lat="53.799141990020871" lon="10.787985976785421">
        <ele>4.46</ele>
        <time>2019-05-08T05:57:53Z</time>
      </trkpt>
      <trkpt lat="53.799256989732385" lon="10.788049008697271">
        <ele>3.98</ele>
        <time>2019-05-08T05:57:54Z</time>
      </trkpt>
      <trkpt lat="53.80016902461648" lon="10.788547983393073">
        <ele>3.02</ele>
        <time>2019-05-08T05:58:00Z</time>
      </trkpt>
      <trkpt lat="53.800613014027476" lon="10.788886025547981">
        <ele>3.5</ele>
        <time>2019-05-08T05:58:03Z</time>
      </trkpt>
      <trkpt lat="53.800749974325299" lon="10.788990966975689">
        <ele>3.5</ele>
        <time>2019-05-08T05:58:04Z</time>
      </trkpt>
      <trkpt lat="53.800888024270535" lon="10.789151983335614">
        <ele>3.02</ele>
        <time>2019-05-08T05:58:05Z</time>
      </trkpt>
      <trkpt lat="53.801001012325287" lon="10.789332026615739">
        <ele>3.02</ele>
        <time>2019-05-08T05:58:06Z</time>
      </trkpt>
      <trkpt lat="53.801108971238136" lon="10.78950603492558">
        <ele>3.02</ele>
        <time>2019-05-08T05:58:07Z</time>
      </trkpt>
      <trkpt lat="53.801190024241805" lon="10.789746008813381">
        <ele>2.54</ele>
        <time>2019-05-08T05:58:08Z</time>
      </trkpt>
      <trkpt lat="53.80124400369823" lon="10.789963016286492">
        <ele>2.54</ele>
        <time>2019-05-08T05:58:09Z</time>
      </trkpt>
      <trkpt lat="53.801293959841132" lon="10.790195027366281">
        <ele>2.54</ele>
        <time>2019-05-08T05:58:10Z</time>
      </trkpt>
      <trkpt lat="53.801291026175022" lon="10.790430977940559">
        <ele>3.02</ele>
        <time>2019-05-08T05:58:11Z</time>
      </trkpt>
      <trkpt lat="53.80128800868988" lon="10.790692996233702">
        <ele>3.02</ele>
        <time>2019-05-08T05:58:12Z</time>
      </trkpt>
      <trkpt lat="53.801284991204739" lon="10.79096901230514">
        <ele>3.5</ele>
        <time>2019-05-08T05:58:13Z</time>
      </trkpt>
      <trkpt lat="53.801277028396726" lon="10.791783984750509">
        <ele>5.42</ele>
        <time>2019-05-08T05:58:16Z</time>
      </trkpt>
      <trkpt lat="53.801306029781699" lon="10.792274996638298">
        <ele>7.35</ele>
        <time>2019-05-08T05:58:18Z</time>
      </trkpt>
      <trkpt lat="53.801365960389376" lon="10.792483035475016">
        <ele>8.310000000000001</ele>
        <time>2019-05-08T05:58:19Z</time>
      </trkpt>
      <trkpt lat="53.801422035321593" lon="10.792674981057644">
        <ele>8.789999999999999</ele>
        <time>2019-05-08T05:58:20Z</time>
      </trkpt>
      <trkpt lat="53.80150199867785" lon="10.792952002957463">
        <ele>9.75</ele>
        <time>2019-05-08T05:58:22Z</time>
      </trkpt>
      <trkpt lat="53.80152496509254" lon="10.79303003847599">
        <ele>9.75</ele>
        <time>2019-05-08T05:58:23Z</time>
      </trkpt>
      <trkpt lat="53.80160903558135" lon="10.793081000447273">
        <ele>10.23</ele>
        <time>2019-05-08T05:58:24Z</time>
      </trkpt>
      <trkpt lat="53.801658991724253" lon="10.793044036254287">
        <ele>10.23</ele>
        <time>2019-05-08T05:58:25Z</time>
      </trkpt>
      <trkpt lat="53.801721017807722" lon="10.792999025434256">
        <ele>10.23</ele>
        <time>2019-05-08T05:58:26Z</time>
      </trkpt>
      <trkpt lat="53.801797963678837" lon="10.79294303432107">
        <ele>10.23</ele>
        <time>2019-05-08T05:58:27Z</time>
      </trkpt>
      <trkpt lat="53.80188899114728" lon="10.792874973267317">
        <ele>10.23</ele>
        <time>2019-05-08T05:58:28Z</time>
      </trkpt>
      <trkpt lat="53.802496008574963" lon="10.792428972199559">
        <ele>11.19</ele>
        <time>2019-05-08T05:58:34Z</time>
      </trkpt>
      <trkpt lat="53.802582006901503" lon="10.792366024106741">
        <ele>10.710000000000001</ele>
        <time>2019-05-08T05:58:35Z</time>
      </trkpt>
      <trkpt lat="53.803124986588955" lon="10.791970985010266">
        <ele>10.710000000000001</ele>
        <time>2019-05-08T05:58:42Z</time>
      </trkpt>
      <trkpt lat="53.803202016279101" lon="10.791918011382222">
        <ele>11.19</ele>
        <time>2019-05-08T05:58:43Z</time>
      </trkpt>
      <trkpt lat="53.803290026262403" lon="10.791856991127133">
        <ele>11.19</ele>
        <time>2019-05-08T05:58:44Z</time>
      </trkpt>
      <trkpt lat="53.803679030388594" lon="10.79167895950377">
        <ele>10.23</ele>
        <time>2019-05-08T05:58:49Z</time>
      </trkpt>
      <trkpt lat="53.803761005401611" lon="10.791640989482403">
        <ele>9.75</ele>
        <time>2019-05-08T05:58:50Z</time>
      </trkpt>
      <trkpt lat="53.803839962929487" lon="10.7915910333395">
        <ele>9.27</ele>
        <time>2019-05-08T05:58:51Z</time>
      </trkpt>
      <trkpt lat="53.803925961256027" lon="10.791518026962876">
        <ele>9.27</ele>
        <time>2019-05-08T05:58:52Z</time>
      </trkpt>
      <trkpt lat="53.804012965410948" lon="10.791444014757872">
        <ele>9.27</ele>
        <time>2019-05-08T05:58:53Z</time>
      </trkpt>
      <trkpt lat="53.804106004536152" lon="10.791364973410964">
        <ele>8.789999999999999</ele>
        <time>2019-05-08T05:58:54Z</time>
      </trkpt>
      <trkpt lat="53.80476800724864" lon="10.790610015392303">
        <ele>5.91</ele>
        <time>2019-05-08T05:59:01Z</time>
      </trkpt>
      <trkpt lat="53.80487697198987" lon="10.790539020672441">
        <ele>5.42</ele>
        <time>2019-05-08T05:59:02Z</time>
      </trkpt>
      <trkpt lat="53.804999012500048" lon="10.790510019287467">
        <ele>4.46</ele>
        <time>2019-05-08T05:59:03Z</time>
      </trkpt>
      <trkpt lat="53.805131027474999" lon="10.790479006245732">
        <ele>3.98</ele>
        <time>2019-05-08T05:59:04Z</time>
      </trkpt>
      <trkpt lat="53.805279973894358" lon="10.790481017902493">
        <ele>3.5</ele>
        <time>2019-05-08T05:59:05Z</time>
      </trkpt>
      <trkpt lat="53.806473976001143" lon="10.790769020095468">
        <ele>2.54</ele>
        <time>2019-05-08T05:59:12Z</time>
      </trkpt>
      <trkpt lat="53.807957991957664" lon="10.791492965072393">
        <ele>2.06</ele>
        <time>2019-05-08T05:59:20Z</time>
      </trkpt>
      <trkpt lat="53.808695012703538" lon="10.792037034407258">
        <ele>3.98</ele>
        <time>2019-05-08T05:59:25Z</time>
      </trkpt>
      <trkpt lat="53.809050992131233" lon="10.792455961927772">
        <ele>5.42</ele>
        <time>2019-05-08T05:59:29Z</time>
      </trkpt>
      <trkpt lat="53.80912902764976" lon="10.79257900826633">
        <ele>5.91</ele>
        <time>2019-05-08T05:59:30Z</time>
      </trkpt>
      <trkpt lat="53.809318039566278" lon="10.792981004342437">
        <ele>6.87</ele>
        <time>2019-05-08T05:59:33Z</time>
      </trkpt>
      <trkpt lat="53.809399008750916" lon="10.793081000447273">
        <ele>6.87</ele>
        <time>2019-05-08T05:59:34Z</time>
      </trkpt>
      <trkpt lat="53.809480983763933" lon="10.793174039572477">
        <ele>7.35</ele>
        <time>2019-05-08T05:59:35Z</time>
      </trkpt>
      <trkpt lat="53.809669995680451" lon="10.793300019577146">
        <ele>8.310000000000001</ele>
        <time>2019-05-08T05:59:37Z</time>
      </trkpt>
      <trkpt lat="53.809765968471766" lon="10.793431028723717">
        <ele>8.789999999999999</ele>
        <time>2019-05-08T05:59:38Z</time>
      </trkpt>
      <trkpt lat="53.809825982898474" lon="10.793573018163443">
        <ele>9.27</ele>
        <time>2019-05-08T05:59:39Z</time>
      </trkpt>
      <trkpt lat="53.809889014810324" lon="10.793722970411181">
        <ele>9.75</ele>
        <time>2019-05-08T05:59:40Z</time>
      </trkpt>
      <trkpt lat="53.809954980388284" lon="10.793879041448236">
        <ele>10.23</ele>
        <time>2019-05-08T05:59:41Z</time>
      </trkpt>
      <trkpt lat="53.810284975916147" lon="10.794660989195108">
        <ele>10.23</ele>
        <time>2019-05-08T05:59:46Z</time>
      </trkpt>
      <trkpt lat="53.810356976464391" lon="10.794797027483582">
        <ele>10.23</ele>
        <time>2019-05-08T05:59:47Z</time>
      </trkpt>
      <trkpt lat="53.810434006154537" lon="10.794928958639503">
        <ele>10.710000000000001</ele>
        <time>2019-05-08T05:59:48Z</time>
      </trkpt>
      <trkpt lat="53.81052796728909" lon="10.795018980279565">
        <ele>10.710000000000001</ele>
        <time>2019-05-08T05:59:49Z</time>
      </trkpt>
      <trkpt lat="53.810629975050688" lon="10.795089974999428">
        <ele>11.19</ele>
        <time>2019-05-08T05:59:50Z</time>
      </trkpt>
      <trkpt lat="53.810733994469047" lon="10.795143032446504">
        <ele>11.67</ele>
        <time>2019-05-08T05:59:51Z</time>
      </trkpt>
      <trkpt lat="53.810842037200928" lon="10.795184019953012">
        <ele>11.67</ele>
        <time>2019-05-08T05:59:52Z</time>
      </trkpt>
      <trkpt lat="53.811710989102721" lon="10.795550979673862">
        <ele>13.6</ele>
        <time>2019-05-08T06:00:00Z</time>
      </trkpt>
      <trkpt lat="53.812704998999834" lon="10.795989017933607">
        <ele>14.08</ele>
        <time>2019-05-08T06:00:07Z</time>
      </trkpt>
      <trkpt lat="53.813473032787442" lon="10.796328987926245">
        <ele>14.08</ele>
        <time>2019-05-08T06:00:12Z</time>
      </trkpt>
      <trkpt lat="53.813616028055549" lon="10.796317001804709">
        <ele>14.08</ele>
        <time>2019-05-08T06:00:13Z</time>
      </trkpt>
      <trkpt lat="53.813762040808797" lon="10.796284982934594">
        <ele>14.08</ele>
        <time>2019-05-08T06:00:14Z</time>
      </trkpt>
      <trkpt lat="53.814303008839488" lon="10.796138970181346">
        <ele>14.08</ele>
        <time>2019-05-08T06:00:18Z</time>
      </trkpt>
      <trkpt lat="53.81439596414566" lon="10.796028999611735">
        <ele>14.08</ele>
        <time>2019-05-08T06:00:19Z</time>
      </trkpt>
      <trkpt lat="53.8144819624722" lon="10.795926991850138">
        <ele>14.08</ele>
        <time>2019-05-08T06:00:20Z</time>
      </trkpt>
      <trkpt lat="53.814530996605754" lon="10.795799000188708">
        <ele>14.08</ele>
        <time>2019-05-08T06:00:21Z</time>
      </trkpt>
      <trkpt lat="53.81456502713263" lon="10.795639995485544">
        <ele>14.56</ele>
        <time>2019-05-08T06:00:22Z</time>
      </trkpt>
      <trkpt lat="53.814598973840475" lon="10.795476967468858">
        <ele>14.56</ele>
        <time>2019-05-08T06:00:23Z</time>
      </trkpt>
      <trkpt lat="53.814634010195732" lon="10.7953089941293">
        <ele>14.08</ele>
        <time>2019-05-08T06:00:24Z</time>
      </trkpt>
      <trkpt lat="53.814773987978697" lon="10.794645985588431">
        <ele>14.08</ele>
        <time>2019-05-08T06:00:28Z</time>
      </trkpt>
      <trkpt lat="53.814965011551976" lon="10.793732022866607">
        <ele>13.119999999999999</ele>
        <time>2019-05-08T06:00:33Z</time>
      </trkpt>
      <trkpt lat="53.815008010715246" lon="10.79352599568665">
        <ele>12.630000000000001</ele>
        <time>2019-05-08T06:00:34Z</time>
      </trkpt>
      <trkpt lat="53.815211020410061" lon="10.79255897551775">
        <ele>10.710000000000001</ele>
        <time>2019-05-08T06:00:38Z</time>
      </trkpt>
      <trkpt lat="53.815230969339609" lon="10.792297041043639">
        <ele>10.710000000000001</ele>
        <time>2019-05-08T06:00:39Z</time>
      </trkpt>
      <trkpt lat="53.81521001458168" lon="10.792054971680045">
        <ele>10.710000000000001</ele>
        <time>2019-05-08T06:00:40Z</time>
      </trkpt>
      <trkpt lat="53.815182019025087" lon="10.791810974478722">
        <ele>10.710000000000001</ele>
        <time>2019-05-08T06:00:41Z</time>
      </trkpt>
      <trkpt lat="53.815143965184689" lon="10.791558008641005">
        <ele>10.710000000000001</ele>
        <time>2019-05-08T06:00:42Z</time>
      </trkpt>
      <trkpt lat="53.81510398350656" lon="10.791296996176243">
        <ele>10.710000000000001</ele>
        <time>2019-05-08T06:00:43Z</time>
      </trkpt>
      <trkpt lat="53.815065007656813" lon="10.791036989539862">
        <ele>10.710000000000001</ele>
        <time>2019-05-08T06:00:44Z</time>
      </trkpt>
      <trkpt lat="53.815027037635446" lon="10.790784023702145">
        <ele>10.710000000000001</ele>
        <time>2019-05-08T06:00:45Z</time>
      </trkpt>
      <trkpt lat="53.815046986564994" lon="10.79051798209548">
        <ele>11.19</ele>
        <time>2019-05-08T06:00:46Z</time>
      </trkpt>
      <trkpt lat="53.815098032355309" lon="10.790286976844072">
        <ele>11.19</ele>
        <time>2019-05-08T06:00:47Z</time>
      </trkpt>
      <trkpt lat="53.815150000154972" lon="10.790055971592665">
        <ele>11.19</ele>
        <time>2019-05-08T06:00:48Z</time>
      </trkpt>
      <trkpt lat="53.815241027623415" lon="10.789776016026735">
        <ele>11.19</ele>
        <time>2019-05-08T06:00:49Z</time>
      </trkpt>
      <trkpt lat="53.815301964059472" lon="10.789631009101868">
        <ele>11.67</ele>
        <time>2019-05-08T06:00:50Z</time>
      </trkpt>
      <trkpt lat="53.816104028373957" lon="10.788099970668554">
        <ele>12.15</ele>
        <time>2019-05-08T06:00:57Z</time>
      </trkpt>
      <trkpt lat="53.816253980621696" lon="10.787944989278913">
        <ele>11.67</ele>
        <time>2019-05-08T06:00:58Z</time>
      </trkpt>
      <trkpt lat="53.81643402390182" lon="10.787795037031174">
        <ele>11.19</ele>
        <time>2019-05-08T06:00:59Z</time>
      </trkpt>
      <trkpt lat="53.816615995019674" lon="10.787674002349377">
        <ele>10.23</ele>
        <time>2019-05-08T06:01:00Z</time>
      </trkpt>
      <trkpt lat="53.816826967522502" lon="10.78757300041616">
        <ele>9.75</ele>
        <time>2019-05-08T06:01:01Z</time>
      </trkpt>
      <trkpt lat="53.817045986652374" lon="10.78746797516942">
        <ele>8.789999999999999</ele>
        <time>2019-05-08T06:01:02Z</time>
      </trkpt>
      <trkpt lat="53.817263999953866" lon="10.787363033741713">
        <ele>7.83</ele>
        <time>2019-05-08T06:01:03Z</time>
      </trkpt>
      <trkpt lat="53.819301975890994" lon="10.786384027451277">
        <ele>0.62</ele>
        <time>2019-05-08T06:01:12Z</time>
      </trkpt>
      <trkpt lat="53.821534998714924" lon="10.785311982035637">
        <ele>-7.55</ele>
        <time>2019-05-08T06:01:22Z</time>
      </trkpt>
      <trkpt lat="53.822459019720554" lon="10.78486799262464">
        <ele>-12.359999999999999</ele>
        <time>2019-05-08T06:01:27Z</time>
      </trkpt>
      <trkpt lat="53.822956988587976" lon="10.784594994038343">
        <ele>-15.720000000000001</ele>
        <time>2019-05-08T06:01:30Z</time>
      </trkpt>
      <trkpt lat="53.823103001341224" lon="10.784514024853706">
        <ele>-17.170000000000002</ele>
        <time>2019-05-08T06:01:31Z</time>
      </trkpt>
      <trkpt lat="53.82328798994422" lon="10.784412017092109">
        <ele>-18.129999999999999</ele>
        <time>2019-05-08T06:01:32Z</time>
      </trkpt>
      <trkpt lat="53.823410030454397" lon="10.784248989075422">
        <ele>-19.09</ele>
        <time>2019-05-08T06:01:33Z</time>
      </trkpt>
      <trkpt lat="53.823538022115827" lon="10.784044973552227">
        <ele>-20.050000000000001</ele>
        <time>2019-05-08T06:01:34Z</time>
      </trkpt>
      <trkpt lat="53.823641035705805" lon="10.783843975514174">
        <ele>-21.489999999999998</ele>
        <time>2019-05-08T06:01:35Z</time>
      </trkpt>
      <trkpt lat="53.824650971218944" lon="10.781885040923953">
        <ele>-33.030000000000001</ele>
        <time>2019-05-08T06:01:44Z</time>
      </trkpt>
      <trkpt lat="53.825270980596542" lon="10.780681986361742">
        <ele>-40.719999999999999</ele>
        <time>2019-05-08T06:01:50Z</time>
      </trkpt>
      <trkpt lat="53.825601981952786" lon="10.780041022226214">
        <ele>-44.079999999999998</ele>
        <time>2019-05-08T06:01:53Z</time>
      </trkpt>
      <trkpt lat="53.826288962736726" lon="10.778263974934816">
        <ele>-53.700000000000003</ele>
        <time>2019-05-08T06:02:00Z</time>
      </trkpt>
      <trkpt lat="53.826932022348046" lon="10.775969009846449">
        <ele>-61.390000000000001</ele>
        <time>2019-05-08T06:02:08Z</time>
      </trkpt>
      <trkpt lat="53.827194040641189" lon="10.775002995505929">
        <ele>-64.269999999999996</ele>
        <time>2019-05-08T06:02:12Z</time>
      </trkpt>
      <trkpt lat="53.827279033139348" lon="10.774691021069884">
        <ele>-64.75</ele>
        <time>2019-05-08T06:02:13Z</time>
      </trkpt>
      <trkpt lat="53.827407024800777" lon="10.774290030822158">
        <ele>-66.189999999999998</ele>
        <time>2019-05-08T06:02:15Z</time>
      </trkpt>
      <trkpt lat="53.827472990378737" lon="10.774082997813821">
        <ele>-66.670000000000002</ele>
        <time>2019-05-08T06:02:16Z</time>
      </trkpt>
      <trkpt lat="53.827600982040167" lon="10.773683013394475">
        <ele>-67.150000000000006</ele>
        <time>2019-05-08T06:02:17Z</time>
      </trkpt>
      <trkpt lat="53.827614979818463" lon="10.772765027359128">
        <ele>-68.120000000000005</ele>
        <time>2019-05-08T06:02:21Z</time>
      </trkpt>
      <trkpt lat="53.827623026445508" lon="10.772223975509405">
        <ele>-67.640000000000001</ele>
        <time>2019-05-08T06:02:22Z</time>
      </trkpt>
      <trkpt lat="53.827623026445508" lon="10.772223975509405">
        <ele>-67.640000000000001</ele>
        <time>2019-05-08T06:02:23Z</time>
      </trkpt>
      <trkpt lat="53.827708018943667" lon="10.771859027445316">
        <ele>-67.640000000000001</ele>
        <time>2019-05-08T06:02:24Z</time>
      </trkpt>
      <trkpt lat="53.827769039198756" lon="10.7717199716717">
        <ele>-67.150000000000006</ele>
        <time>2019-05-08T06:02:25Z</time>
      </trkpt>
      <trkpt lat="53.827899964526296" lon="10.771467005833983">
        <ele>-66.670000000000002</ele>
        <time>2019-05-08T06:02:26Z</time>
      </trkpt>
      <trkpt lat="53.828095011413097" lon="10.771237006410956">
        <ele>-66.189999999999998</ele>
        <time>2019-05-08T06:02:27Z</time>
      </trkpt>
      <trkpt lat="53.828249992802739" lon="10.771154025569558">
        <ele>-65.230000000000004</ele>
        <time>2019-05-08T06:02:28Z</time>
      </trkpt>
      <trkpt lat="53.829585984349251" lon="10.770367970690131">
        <ele>-59.950000000000003</ele>
        <time>2019-05-08T06:02:36Z</time>
      </trkpt>
      <trkpt lat="53.83039802312851" lon="10.769555009901524">
        <ele>-57.060000000000002</ele>
        <time>2019-05-08T06:02:43Z</time>
      </trkpt>
      <trkpt lat="53.831674000248313" lon="10.768812038004398">
        <ele>-50.329999999999998</ele>
        <time>2019-05-08T06:02:54Z</time>
      </trkpt>
      <trkpt lat="53.832457959651947" lon="10.768479024991393">
        <ele>-44.079999999999998</ele>
        <time>2019-05-08T06:03:01Z</time>
      </trkpt>
      <trkpt lat="53.833418022841215" lon="10.768170990049839">
        <ele>-34.950000000000003</ele>
        <time>2019-05-08T06:03:10Z</time>
      </trkpt>
      <trkpt lat="53.833499997854233" lon="10.768144000321627">
        <ele>-33.990000000000002</ele>
        <time>2019-05-08T06:03:11Z</time>
      </trkpt>
      <trkpt lat="53.833741983398795" lon="10.76806697063148">
        <ele>-29.18</ele>
        <time>2019-05-08T06:03:17Z</time>
      </trkpt>
      <trkpt lat="53.833758998662233" lon="10.768021959811449">
        <ele>-26.780000000000001</ele>
        <time>2019-05-08T06:03:18Z</time>
      </trkpt>
      <trkpt lat="53.833778025582433" lon="10.767535977065563">
        <ele>-24.379999999999999</ele>
        <time>2019-05-08T06:03:21Z</time>
      </trkpt>
      <trkpt lat="53.833873998373747" lon="10.766945974901319">
        <ele>-24.379999999999999</ele>
        <time>2019-05-08T06:03:24Z</time>
      </trkpt>
      <trkpt lat="53.833953961730003" lon="10.766719998791814">
        <ele>-24.859999999999999</ele>
        <time>2019-05-08T06:03:25Z</time>
      </trkpt>
      <trkpt lat="53.834036020562053" lon="10.766542972996831">
        <ele>-24.859999999999999</ele>
        <time>2019-05-08T06:03:26Z</time>
      </trkpt>
      <trkpt lat="53.834119001403451" lon="10.76636603102088">
        <ele>-24.379999999999999</ele>
        <time>2019-05-08T06:03:27Z</time>
      </trkpt>
      <trkpt lat="53.834188990294933" lon="10.76621700078249">
        <ele>-22.93</ele>
        <time>2019-05-08T06:03:28Z</time>
      </trkpt>
      <trkpt lat="53.8342459872365" lon="10.766100995242596">
        <ele>-22.93</ele>
        <time>2019-05-08T06:03:29Z</time>
      </trkpt>
      <trkpt lat="53.834296027198434" lon="10.766000999137759">
        <ele>-22.93</ele>
        <time>2019-05-08T06:03:30Z</time>
      </trkpt>
      <trkpt lat="53.834340032190084" lon="10.765912989154458">
        <ele>-21.969999999999999</ele>
        <time>2019-05-08T06:03:31Z</time>
      </trkpt>
      <trkpt lat="53.834378002211452" lon="10.765835959464312">
        <ele>-21.489999999999998</ele>
        <time>2019-05-08T06:03:32Z</time>
      </trkpt>
      <trkpt lat="53.834402980282903" lon="10.765786003321409">
        <ele>-21.010000000000002</ele>
        <time>2019-05-08T06:03:33Z</time>
      </trkpt>
      <trkpt lat="53.834428964182734" lon="10.765695981681347">
        <ele>-21.010000000000002</ele>
        <time>2019-05-08T06:03:34Z</time>
      </trkpt>
      <trkpt lat="53.834452014416456" lon="10.765614006668329">
        <ele>-20.530000000000001</ele>
        <time>2019-05-08T06:03:35Z</time>
      </trkpt>
      <trkpt lat="53.834475986659527" lon="10.765532031655312">
        <ele>-20.050000000000001</ele>
        <time>2019-05-08T06:03:36Z</time>
      </trkpt>
      <trkpt lat="53.834499036893249" lon="10.765451984480023">
        <ele>-20.050000000000001</ele>
        <time>2019-05-08T06:03:37Z</time>
      </trkpt>
      <trkpt lat="53.834531977772713" lon="10.765201030299067">
        <ele>-18.129999999999999</ele>
        <time>2019-05-08T06:03:40Z</time>
      </trkpt>
      <trkpt lat="53.834531977772713" lon="10.76510296203196">
        <ele>-18.129999999999999</ele>
        <time>2019-05-08T06:03:41Z</time>
      </trkpt>
      <trkpt lat="53.834591992199421" lon="10.763904014602304">
        <ele>-9.960000000000001</ele>
        <time>2019-05-08T06:03:53Z</time>
      </trkpt>
      <trkpt lat="53.834750996902585" lon="10.762618985027075">
        <ele>-6.11</ele>
        <time>2019-05-08T06:04:03Z</time>
      </trkpt>
      <trkpt lat="53.8347830157727" lon="10.762443970888853">
        <ele>-6.11</ele>
        <time>2019-05-08T06:04:04Z</time>
      </trkpt>
      <trkpt lat="53.834834983572364" lon="10.762318996712565">
        <ele>-5.63</ele>
        <time>2019-05-08T06:04:05Z</time>
      </trkpt>
      <trkpt lat="53.834885023534298" lon="10.762196034193039">
        <ele>-5.15</ele>
        <time>2019-05-08T06:04:06Z</time>
      </trkpt>
      <trkpt lat="53.8349349796772" lon="10.762072987854481">
        <ele>-4.67</ele>
        <time>2019-05-08T06:04:07Z</time>
      </trkpt>
      <trkpt lat="53.835242008790374" lon="10.761412996798754">
        <ele>-2.75</ele>
        <time>2019-05-08T06:04:13Z</time>
      </trkpt>
      <trkpt lat="53.835290037095547" lon="10.761310989037156">
        <ele>-2.75</ele>
        <time>2019-05-08T06:04:14Z</time>
      </trkpt>
      <trkpt lat="53.835808960720897" lon="10.760207008570433">
        <ele>-1.3</ele>
        <time>2019-05-08T06:04:26Z</time>
      </trkpt>
      <trkpt lat="53.835914991796017" lon="10.760080022737384">
        <ele>-1.3</ele>
        <time>2019-05-08T06:04:28Z</time>
      </trkpt>
      <trkpt lat="53.835968971252441" lon="10.760021014139056">
        <ele>-1.3</ele>
        <time>2019-05-08T06:04:29Z</time>
      </trkpt>
      <trkpt lat="53.836776986718178" lon="10.759244011715055">
        <ele>-0.82</ele>
        <time>2019-05-08T06:04:43Z</time>
      </trkpt>
      <trkpt lat="53.83740596473217" lon="10.758774960413575">
        <ele>2.54</ele>
        <time>2019-05-08T06:04:50Z</time>
      </trkpt>
      <trkpt lat="53.838514974340796" lon="10.75792302377522">
        <ele>4.46</ele>
        <time>2019-05-08T06:05:00Z</time>
      </trkpt>
      <trkpt lat="53.839701013639569" lon="10.757037978619337">
        <ele>6.39</ele>
        <time>2019-05-08T06:05:10Z</time>
      </trkpt>
      <trkpt lat="53.840945977717638" lon="10.756095014512539">
        <ele>9.27</ele>
        <time>2019-05-08T06:05:21Z</time>
      </trkpt>
      <trkpt lat="53.841419974341989" lon="10.755735011771321">
        <ele>9.75</ele>
        <time>2019-05-08T06:05:25Z</time>
      </trkpt>
      <trkpt lat="53.841538997367024" lon="10.755644990131259">
        <ele>9.75</ele>
        <time>2019-05-08T06:05:26Z</time>
      </trkpt>
      <trkpt lat="53.842592015862465" lon="10.754836974665523">
        <ele>10.23</ele>
        <time>2019-05-08T06:05:35Z</time>
      </trkpt>
      <trkpt lat="53.843992967158556" lon="10.753747997805476">
        <ele>9.27</ele>
        <time>2019-05-08T06:05:46Z</time>
      </trkpt>
      <trkpt lat="53.844652958214283" lon="10.753234019502997">
        <ele>8.789999999999999</ele>
        <time>2019-05-08T06:05:52Z</time>
      </trkpt>
      <trkpt lat="53.844756977632642" lon="10.753319012001157">
        <ele>8.789999999999999</ele>
        <time>2019-05-08T06:05:53Z</time>
      </trkpt>
      <trkpt lat="53.844835013151169" lon="10.753319012001157">
        <ele>8.310000000000001</ele>
        <time>2019-05-08T06:05:54Z</time>
      </trkpt>
      <trkpt lat="53.844907013699412" lon="10.753238964825869">
        <ele>8.310000000000001</ele>
        <time>2019-05-08T06:05:55Z</time>
      </trkpt>
      <trkpt lat="53.844949007034302" lon="10.753134023398161">
        <ele>8.310000000000001</ele>
        <time>2019-05-08T06:05:56Z</time>
      </trkpt>
      <trkpt lat="53.844969961792231" lon="10.752954985946417">
        <ele>7.83</ele>
        <time>2019-05-08T06:05:57Z</time>
      </trkpt>
      <trkpt lat="53.845044979825616" lon="10.752849960699677">
        <ele>7.35</ele>
        <time>2019-05-08T06:05:58Z</time>
      </trkpt>
      <trkpt lat="53.845131983980536" lon="10.752729009836912">
        <ele>6.87</ele>
        <time>2019-05-08T06:05:59Z</time>
      </trkpt>
      <trkpt lat="53.845227034762502" lon="10.75259699486196">
        <ele>6.39</ele>
        <time>2019-05-08T06:06:00Z</time>
      </trkpt>
      <trkpt lat="53.845745958387852" lon="10.751471975818276">
        <ele>4.46</ele>
        <time>2019-05-08T06:06:06Z</time>
      </trkpt>
      <trkpt lat="53.846070002764463" lon="10.750578967854381">
        <ele>3.5</ele>
        <time>2019-05-08T06:06:12Z</time>
      </trkpt>
      <trkpt lat="53.846202017739415" lon="10.750229023396969">
        <ele>4.46</ele>
        <time>2019-05-08T06:06:15Z</time>
      </trkpt>
      <trkpt lat="53.846251973882318" lon="10.750113017857075">
        <ele>5.42</ele>
        <time>2019-05-08T06:06:16Z</time>
      </trkpt>
      <trkpt lat="53.846301008015871" lon="10.749997012317181">
        <ele>5.42</ele>
        <time>2019-05-08T06:06:17Z</time>
      </trkpt>
      <trkpt lat="53.846519021317363" lon="10.749445986002684">
        <ele>6.39</ele>
        <time>2019-05-08T06:06:22Z</time>
      </trkpt>
      <trkpt lat="53.84655799716711" lon="10.749344984069467">
        <ele>6.39</ele>
        <time>2019-05-08T06:06:23Z</time>
      </trkpt>
      <trkpt lat="53.846669979393482" lon="10.749030997976661">
        <ele>6.39</ele>
        <time>2019-05-08T06:06:26Z</time>
      </trkpt>
      <trkpt lat="53.846957981586456" lon="10.748276961967349">
        <ele>7.83</ele>
        <time>2019-05-08T06:06:36Z</time>
      </trkpt>
      <trkpt lat="53.84737498126924" lon="10.74722696095705">
        <ele>9.27</ele>
        <time>2019-05-08T06:06:47Z</time>
      </trkpt>
      <trkpt lat="53.847563993185759" lon="10.746722035109997">
        <ele>8.310000000000001</ele>
        <time>2019-05-08T06:06:51Z</time>
      </trkpt>
      <trkpt lat="53.847614033147693" lon="10.746587002649903">
        <ele>8.310000000000001</ele>
        <time>2019-05-08T06:06:52Z</time>
      </trkpt>
      <trkpt lat="53.84806296788156" lon="10.745414039120078">
        <ele>6.87</ele>
        <time>2019-05-08T06:07:00Z</time>
      </trkpt>
      <trkpt lat="53.848118036985397" lon="10.74527196586132">
        <ele>6.39</ele>
        <time>2019-05-08T06:07:01Z</time>
      </trkpt>
      <trkpt lat="53.848280981183052" lon="10.744847003370523">
        <ele>5.91</ele>
        <time>2019-05-08T06:07:04Z</time>
      </trkpt>
      <trkpt lat="53.848526990041137" lon="10.74419598095119">
        <ele>5.42</ele>
        <time>2019-05-08T06:07:11Z</time>
      </trkpt>
      <trkpt lat="53.848713990300894" lon="10.743723995983601">
        <ele>5.42</ele>
        <time>2019-05-08T06:07:18Z</time>
      </trkpt>
      <trkpt lat="53.848901996389031" lon="10.743228038772941">
        <ele>4.94</ele>
        <time>2019-05-08T06:07:22Z</time>
      </trkpt>
      <trkpt lat="53.848958993330598" lon="10.743094012141228">
        <ele>4.94</ele>
        <time>2019-05-08T06:07:23Z</time>
      </trkpt>
      <trkpt lat="53.849018001928926" lon="10.742958979681134">
        <ele>5.42</ele>
        <time>2019-05-08T06:07:24Z</time>
      </trkpt>
      <trkpt lat="53.849123027175665" lon="10.742666032165289">
        <ele>6.39</ele>
        <time>2019-05-08T06:07:26Z</time>
      </trkpt>
      <trkpt lat="53.849895000457764" lon="10.740936007350683">
        <ele>8.789999999999999</ele>
        <time>2019-05-08T06:07:38Z</time>
      </trkpt>
      <trkpt lat="53.850346030667424" lon="10.740110976621509">
        <ele>7.83</ele>
        <time>2019-05-08T06:07:44Z</time>
      </trkpt>
      <trkpt lat="53.850426999852061" lon="10.739978961646557">
        <ele>8.310000000000001</ele>
        <time>2019-05-08T06:07:45Z</time>
      </trkpt>
      <trkpt lat="53.851167038083076" lon="10.738890990614891">
        <ele>9.27</ele>
        <time>2019-05-08T06:07:54Z</time>
      </trkpt>
      <trkpt lat="53.851843038573861" lon="10.737928999587893">
        <ele>10.23</ele>
        <time>2019-05-08T06:08:02Z</time>
      </trkpt>
      <trkpt lat="53.851928031072021" lon="10.737818023189902">
        <ele>10.23</ele>
        <time>2019-05-08T06:08:03Z</time>
      </trkpt>
      <trkpt lat="53.852218966931105" lon="10.737499007955194">
        <ele>10.23</ele>
        <time>2019-05-08T06:08:06Z</time>
      </trkpt>
      <trkpt lat="53.853391008451581" lon="10.736665008589625">
        <ele>9.75</ele>
        <time>2019-05-08T06:08:17Z</time>
      </trkpt>
      <trkpt lat="53.853953015059233" lon="10.736312968656421">
        <ele>9.75</ele>
        <time>2019-05-08T06:08:23Z</time>
      </trkpt>
      <trkpt lat="53.854028033092618" lon="10.736269969493151">
        <ele>9.75</ele>
        <time>2019-05-08T06:08:24Z</time>
      </trkpt>
      <trkpt lat="53.854581993073225" lon="10.735948020592332">
        <ele>5.91</ele>
        <time>2019-05-08T06:08:34Z</time>
      </trkpt>
      <trkpt lat="53.854756001383066" lon="10.735848024487495">
        <ele>3.5</ele>
        <time>2019-05-08T06:08:44Z</time>
      </trkpt>
      <trkpt lat="53.854964962229133" lon="10.735727995634079">
        <ele>3.02</ele>
        <time>2019-05-08T06:08:57Z</time>
      </trkpt>
      <trkpt lat="53.855845984071493" lon="10.735227009281516">
        <ele>1.1</ele>
        <time>2019-05-08T06:09:07Z</time>
      </trkpt>
      <trkpt lat="53.856953987851739" lon="10.734509015455842">
        <ele>-0.34</ele>
        <time>2019-05-08T06:09:18Z</time>
      </trkpt>
      <trkpt lat="53.857556981965899" lon="10.734015991911292">
        <ele>-2.27</ele>
        <time>2019-05-08T06:09:24Z</time>
      </trkpt>
      <trkpt lat="53.858238011598587" lon="10.733161959797144">
        <ele>-4.19</ele>
        <time>2019-05-08T06:09:32Z</time>
      </trkpt>
      <trkpt lat="53.85830900631845" lon="10.733050983399153">
        <ele>-3.71</ele>
        <time>2019-05-08T06:09:33Z</time>
      </trkpt>
      <trkpt lat="53.858429035171866" lon="10.732819978147745">
        <ele>-3.71</ele>
        <time>2019-05-08T06:09:35Z</time>
      </trkpt>
      <trkpt lat="53.858529031276703" lon="10.732617974281311">
        <ele>-3.23</ele>
        <time>2019-05-08T06:09:37Z</time>
      </trkpt>
      <trkpt lat="53.858944019302726" lon="10.731709962710738">
        <ele>2.54</ele>
        <time>2019-05-08T06:09:47Z</time>
      </trkpt>
      <trkpt lat="53.859251970425248" lon="10.730909993872046">
        <ele>5.91</ele>
        <time>2019-05-08T06:09:57Z</time>
      </trkpt>
      <trkpt lat="53.859758991748095" lon="10.729632005095482">
        <ele>9.75</ele>
        <time>2019-05-08T06:10:08Z</time>
      </trkpt>
      <trkpt lat="53.86037397198379" lon="10.728260977193713">
        <ele>9.27</ele>
        <time>2019-05-08T06:10:18Z</time>
      </trkpt>
      <trkpt lat="53.860430968925357" lon="10.728137008845806">
        <ele>9.27</ele>
        <time>2019-05-08T06:10:19Z</time>
      </trkpt>
      <trkpt lat="53.860604977235198" lon="10.727765019983053">
        <ele>9.27</ele>
        <time>2019-05-08T06:10:22Z</time>
      </trkpt>
      <trkpt lat="53.860667003318667" lon="10.727647002786398">
        <ele>8.789999999999999</ele>
        <time>2019-05-08T06:10:23Z</time>
      </trkpt>
      <trkpt lat="53.861259017139673" lon="10.726445959880948">
        <ele>11.19</ele>
        <time>2019-05-08T06:10:32Z</time>
      </trkpt>
      <trkpt lat="53.861944992095232" lon="10.725041991099715">
        <ele>12.15</ele>
        <time>2019-05-08T06:10:43Z</time>
      </trkpt>
      <trkpt lat="53.862010035663843" lon="10.724909976124763">
        <ele>12.630000000000001</ele>
        <time>2019-05-08T06:10:44Z</time>
      </trkpt>
      <trkpt lat="53.862073989585042" lon="10.724778966978192">
        <ele>12.630000000000001</ele>
        <time>2019-05-08T06:10:45Z</time>
      </trkpt>
      <trkpt lat="53.862573970109224" lon="10.723723014816642">
        <ele>13.6</ele>
        <time>2019-05-08T06:10:53Z</time>
      </trkpt>
      <trkpt lat="53.862634990364313" lon="10.723589994013309">
        <ele>13.6</ele>
        <time>2019-05-08T06:10:54Z</time>
      </trkpt>
      <trkpt lat="53.862812016159296" lon="10.723209958523512">
        <ele>14.56</ele>
        <time>2019-05-08T06:10:57Z</time>
      </trkpt>
      <trkpt lat="53.862871024757624" lon="10.723084984347224">
        <ele>14.56</ele>
        <time>2019-05-08T06:10:58Z</time>
      </trkpt>
      <trkpt lat="53.862926010042429" lon="10.722963027656078">
        <ele>14.56</ele>
        <time>2019-05-08T06:10:59Z</time>
      </trkpt>
      <trkpt lat="53.862975966185331" lon="10.722835035994649">
        <ele>15.039999999999999</ele>
        <time>2019-05-08T06:11:00Z</time>
      </trkpt>
      <trkpt lat="53.863025000318885" lon="10.72270997799933">
        <ele>15.039999999999999</ele>
        <time>2019-05-08T06:11:01Z</time>
      </trkpt>
      <trkpt lat="53.863074034452438" lon="10.722583997994661">
        <ele>14.56</ele>
        <time>2019-05-08T06:11:02Z</time>
      </trkpt>
      <trkpt lat="53.863123990595341" lon="10.722453994676471">
        <ele>14.56</ele>
        <time>2019-05-08T06:11:03Z</time>
      </trkpt>
      <trkpt lat="53.863176964223385" lon="10.722318040207028">
        <ele>14.08</ele>
        <time>2019-05-08T06:11:04Z</time>
      </trkpt>
      <trkpt lat="53.863450968638062" lon="10.721601974219084">
        <ele>13.119999999999999</ele>
        <time>2019-05-08T06:11:09Z</time>
      </trkpt>
      <trkpt lat="53.863783981651068" lon="10.720739979296923">
        <ele>9.75</ele>
        <time>2019-05-08T06:11:17Z</time>
      </trkpt>
      <trkpt lat="53.863811977207661" lon="10.720660015940666">
        <ele>9.27</ele>
        <time>2019-05-08T06:11:27Z</time>
      </trkpt>
      <trkpt lat="53.863834021613002" lon="10.720596984028816">
        <ele>8.310000000000001</ele>
        <time>2019-05-08T06:11:57Z</time>
      </trkpt>
      <trkpt lat="53.864039964973927" lon="10.72002399712801">
        <ele>8.789999999999999</ele>
        <time>2019-05-08T06:12:03Z</time>
      </trkpt>
      <trkpt lat="53.86430399492383" lon="10.719375992193818">
        <ele>7.83</ele>
        <time>2019-05-08T06:12:09Z</time>
      </trkpt>
      <trkpt lat="53.864342970773578" lon="10.719281025230885">
        <ele>8.310000000000001</ele>
        <time>2019-05-08T06:12:10Z</time>
      </trkpt>
      <trkpt lat="53.864341964945197" lon="10.719120008870959">
        <ele>8.789999999999999</ele>
        <time>2019-05-08T06:12:11Z</time>
      </trkpt>
      <trkpt lat="53.864325033500791" lon="10.71899302303791">
        <ele>8.789999999999999</ele>
        <time>2019-05-08T06:12:12Z</time>
      </trkpt>
      <trkpt lat="53.864309024065733" lon="10.718869976699352">
        <ele>9.27</ele>
        <time>2019-05-08T06:12:13Z</time>
      </trkpt>
      <trkpt lat="53.864294020459056" lon="10.718750031664968">
        <ele>9.27</ele>
        <time>2019-05-08T06:12:14Z</time>
      </trkpt>
      <trkpt lat="53.864166028797626" lon="10.717431977391243">
        <ele>12.15</ele>
        <time>2019-05-08T06:12:24Z</time>
      </trkpt>
      <trkpt lat="53.864155970513821" lon="10.717331981286407">
        <ele>12.630000000000001</ele>
        <time>2019-05-08T06:12:25Z</time>
      </trkpt>
      <trkpt lat="53.864138033241034" lon="10.71714598685503">
        <ele>14.08</ele>
        <time>2019-05-08T06:12:27Z</time>
      </trkpt>
      <trkpt lat="53.864128980785608" lon="10.717052025720477">
        <ele>14.56</ele>
        <time>2019-05-08T06:12:28Z</time>
      </trkpt>
      <trkpt lat="53.864121017977595" lon="10.716964015737176">
        <ele>15.039999999999999</ele>
        <time>2019-05-08T06:12:29Z</time>
      </trkpt>
      <trkpt lat="53.864087993279099" lon="10.716637037694454">
        <ele>17.440000000000001</ele>
        <time>2019-05-08T06:12:35Z</time>
      </trkpt>
      <trkpt lat="53.864085981622338" lon="10.716618010774255">
        <ele>17.440000000000001</ele>
        <time>2019-05-08T06:12:36Z</time>
      </trkpt>
      <trkpt lat="53.864082964137197" lon="10.716592026874423">
        <ele>17.920000000000002</ele>
        <time>2019-05-08T06:12:37Z</time>
      </trkpt>
      <trkpt lat="53.864078018814325" lon="10.71654399856925">
        <ele>18.399999999999999</ele>
        <time>2019-05-08T06:12:38Z</time>
      </trkpt>
      <trkpt lat="53.864071983844042" lon="10.716481972485781">
        <ele>18.879999999999999</ele>
        <time>2019-05-08T06:12:39Z</time>
      </trkpt>
      <trkpt lat="53.864032002165914" lon="10.716104032471776">
        <ele>19.84</ele>
        <time>2019-05-08T06:12:43Z</time>
      </trkpt>
      <trkpt lat="53.864014986902475" lon="10.715939998626709">
        <ele>20.32</ele>
        <time>2019-05-08T06:12:44Z</time>
      </trkpt>
      <trkpt lat="53.864009035751224" lon="10.715854000300169">
        <ele>20.809999999999999</ele>
        <time>2019-05-08T06:12:45Z</time>
      </trkpt>
      <trkpt lat="53.863817006349564" lon="10.713936975225806">
        <ele>18.879999999999999</ele>
        <time>2019-05-08T06:12:56Z</time>
      </trkpt>
      <trkpt lat="53.863662024959922" lon="10.712326979264617">
        <ele>17.440000000000001</ele>
        <time>2019-05-08T06:13:05Z</time>
      </trkpt>
      <trkpt lat="53.863650960847735" lon="10.712206028401852">
        <ele>17.920000000000002</ele>
        <time>2019-05-08T06:13:06Z</time>
      </trkpt>
      <trkpt lat="53.863629000261426" lon="10.711969994008541">
        <ele>17.920000000000002</ele>
        <time>2019-05-08T06:13:08Z</time>
      </trkpt>
      <trkpt lat="53.86361500248313" lon="10.711857005953789">
        <ele>17.440000000000001</ele>
        <time>2019-05-08T06:13:16Z</time>
      </trkpt>
      <trkpt lat="53.86361500248313" lon="10.711857005953789">
        <ele>17.920000000000002</ele>
        <time>2019-05-08T06:14:03Z</time>
      </trkpt>
      <trkpt lat="53.86355197057128" lon="10.711307991296053">
        <ele>17.440000000000001</ele>
        <time>2019-05-08T06:14:14Z</time>
      </trkpt>
      <trkpt lat="53.863407969474792" lon="10.709795979782939">
        <ele>14.56</ele>
        <time>2019-05-08T06:14:22Z</time>
      </trkpt>
      <trkpt lat="53.863296993076801" lon="10.708610024303198">
        <ele>11.67</ele>
        <time>2019-05-08T06:14:29Z</time>
      </trkpt>
      <trkpt lat="53.863279977813363" lon="10.708428975194693">
        <ele>11.67</ele>
        <time>2019-05-08T06:14:30Z</time>
      </trkpt>
      <trkpt lat="53.863261034712195" lon="10.708241974934936">
        <ele>11.19</ele>
        <time>2019-05-08T06:14:31Z</time>
      </trkpt>
      <trkpt lat="53.86318501085043" lon="10.707465978339314">
        <ele>10.710000000000001</ele>
        <time>2019-05-08T06:14:35Z</time>
      </trkpt>
      <trkpt lat="53.863129019737244" lon="10.706901038065553">
        <ele>9.75</ele>
        <time>2019-05-08T06:14:38Z</time>
      </trkpt>
      <trkpt lat="53.863091971725225" lon="10.706301983445883">
        <ele>9.75</ele>
        <time>2019-05-08T06:14:41Z</time>
      </trkpt>
      <trkpt lat="53.86307998560369" lon="10.704466011375189">
        <ele>12.630000000000001</ele>
        <time>2019-05-08T06:14:50Z</time>
      </trkpt>
      <trkpt lat="53.863071016967297" lon="10.702658034861088">
        <ele>9.75</ele>
        <time>2019-05-08T06:15:00Z</time>
      </trkpt>
      <trkpt lat="53.863080991432071" lon="10.702208010479808">
        <ele>7.83</ele>
        <time>2019-05-08T06:15:08Z</time>
      </trkpt>
      <trkpt lat="53.863089960068464" lon="10.702080018818378">
        <ele>6.39</ele>
        <time>2019-05-08T06:15:19Z</time>
      </trkpt>
      <trkpt lat="53.863085014745593" lon="10.701292036101222">
        <ele>5.91</ele>
        <time>2019-05-08T06:15:25Z</time>
      </trkpt>
      <trkpt lat="53.863075962290168" lon="10.700423000380397">
        <ele>6.87</ele>
        <time>2019-05-08T06:15:30Z</time>
      </trkpt>
      <trkpt lat="53.863071016967297" lon="10.698670009151101">
        <ele>10.23</ele>
        <time>2019-05-08T06:15:40Z</time>
      </trkpt>
      <trkpt lat="53.863071016967297" lon="10.698494995012879">
        <ele>10.23</ele>
        <time>2019-05-08T06:15:41Z</time>
      </trkpt>
      <trkpt lat="53.863102030009031" lon="10.697621013969183">
        <ele>8.310000000000001</ele>
        <time>2019-05-08T06:15:47Z</time>
      </trkpt>
      <trkpt lat="53.863112004473805" lon="10.69742102175951">
        <ele>8.310000000000001</ele>
        <time>2019-05-08T06:15:49Z</time>
      </trkpt>
      <trkpt lat="53.863128013908863" lon="10.697355978190899">
        <ele>7.83</ele>
        <time>2019-05-08T06:15:50Z</time>
      </trkpt>
      <trkpt lat="53.863146035000682" lon="10.697296969592571">
        <ele>7.83</ele>
        <time>2019-05-08T06:15:51Z</time>
      </trkpt>
      <trkpt lat="53.863161960616708" lon="10.69724902510643">
        <ele>7.83</ele>
        <time>2019-05-08T06:15:52Z</time>
      </trkpt>
      <trkpt lat="53.863171013072133" lon="10.697219017893076">
        <ele>7.83</ele>
        <time>2019-05-08T06:15:53Z</time>
      </trkpt>
      <trkpt lat="53.863171013072133" lon="10.697219017893076">
        <ele>7.83</ele>
        <time>2019-05-08T06:16:05Z</time>
      </trkpt>
      <trkpt lat="53.863176964223385" lon="10.697200996801257">
        <ele>7.35</ele>
        <time>2019-05-08T06:16:36Z</time>
      </trkpt>
      <trkpt lat="53.8632089830935" lon="10.697101000696421">
        <ele>7.83</ele>
        <time>2019-05-08T06:16:38Z</time>
      </trkpt>
      <trkpt lat="53.863234966993332" lon="10.697019025683403">
        <ele>7.35</ele>
        <time>2019-05-08T06:16:39Z</time>
      </trkpt>
      <trkpt lat="53.863222980871797" lon="10.696871001273394">
        <ele>7.35</ele>
        <time>2019-05-08T06:16:40Z</time>
      </trkpt>
      <trkpt lat="53.863170007243752" lon="10.696794977411628">
        <ele>7.83</ele>
        <time>2019-05-08T06:16:41Z</time>
      </trkpt>
      <trkpt lat="53.863114016130567" lon="10.696714008226991">
        <ele>7.83</ele>
        <time>2019-05-08T06:16:42Z</time>
      </trkpt>
      <trkpt lat="53.863030029460788" lon="10.696618035435677">
        <ele>7.83</ele>
        <time>2019-05-08T06:16:43Z</time>
      </trkpt>
      <trkpt lat="53.862951993942261" lon="10.696516027674079">
        <ele>7.83</ele>
        <time>2019-05-08T06:16:44Z</time>
      </trkpt>
      <trkpt lat="53.861982962116599" lon="10.695222029462457">
        <ele>7.83</ele>
        <time>2019-05-08T06:16:55Z</time>
      </trkpt>
      <trkpt lat="53.861092971637845" lon="10.694151995703578">
        <ele>7.83</ele>
        <time>2019-05-08T06:17:04Z</time>
      </trkpt>
      <trkpt lat="53.86011203750968" lon="10.693641034886241">
        <ele>7.35</ele>
        <time>2019-05-08T06:17:14Z</time>
      </trkpt>
      <trkpt lat="53.859868040308356" lon="10.693485969677567">
        <ele>5.91</ele>
        <time>2019-05-08T06:17:18Z</time>
      </trkpt>
      <trkpt lat="53.859821017831564" lon="10.693456968292594">
        <ele>5.91</ele>
        <time>2019-05-08T06:17:19Z</time>
      </trkpt>
      <trkpt lat="53.859785981476307" lon="10.693434001877904">
        <ele>5.42</ele>
        <time>2019-05-08T06:17:20Z</time>
      </trkpt>
      <trkpt lat="53.859757985919714" lon="10.693415980786085">
        <ele>4.94</ele>
        <time>2019-05-08T06:17:21Z</time>
      </trkpt>
      <trkpt lat="53.859734013676643" lon="10.693400977179408">
        <ele>4.46</ele>
        <time>2019-05-08T06:17:22Z</time>
      </trkpt>
      <trkpt lat="53.859711969271302" lon="10.693386979401112">
        <ele>4.46</ele>
        <time>2019-05-08T06:17:23Z</time>
      </trkpt>
      <trkpt lat="53.859692020341754" lon="10.693373987451196">
        <ele>4.46</ele>
        <time>2019-05-08T06:17:24Z</time>
      </trkpt>
      <trkpt lat="53.859677016735077" lon="10.693364012986422">
        <ele>3.98</ele>
        <time>2019-05-08T06:17:25Z</time>
      </trkpt>
      <trkpt lat="53.859656983986497" lon="10.693343980237842">
        <ele>3.98</ele>
        <time>2019-05-08T06:17:26Z</time>
      </trkpt>
      <trkpt lat="53.859656983986497" lon="10.693343980237842">
        <ele>3.5</ele>
        <time>2019-05-08T06:17:27Z</time>
      </trkpt>
      <trkpt lat="53.859621025621891" lon="10.693308021873236">
        <ele>3.5</ele>
        <time>2019-05-08T06:17:28Z</time>
      </trkpt>
      <trkpt lat="53.859538966789842" lon="10.693223029375076">
        <ele>4.46</ele>
        <time>2019-05-08T06:17:45Z</time>
      </trkpt>
      <trkpt lat="53.859538966789842" lon="10.693223029375076">
        <ele>4.94</ele>
        <time>2019-05-08T06:18:00Z</time>
      </trkpt>
      <trkpt lat="53.859538966789842" lon="10.693223029375076">
        <ele>5.91</ele>
        <time>2019-05-08T06:18:15Z</time>
      </trkpt>
      <trkpt lat="53.859215006232262" lon="10.692884987220168">
        <ele>5.91</ele>
        <time>2019-05-08T06:18:54Z</time>
      </trkpt>
      <trkpt lat="53.859162032604218" lon="10.692830001935363">
        <ele>6.39</ele>
        <time>2019-05-08T06:18:55Z</time>
      </trkpt>
      <trkpt lat="53.85912699624896" lon="10.692793037742376">
        <ele>7.35</ele>
        <time>2019-05-08T06:18:56Z</time>
      </trkpt>
      <trkpt lat="53.859101012349129" lon="10.692765964195132">
        <ele>7.83</ele>
        <time>2019-05-08T06:18:57Z</time>
      </trkpt>
      <trkpt lat="53.859101012349129" lon="10.692765964195132">
        <ele>8.310000000000001</ele>
        <time>2019-05-08T06:18:58Z</time>
      </trkpt>
      <trkpt lat="53.859101012349129" lon="10.692765964195132">
        <ele>8.789999999999999</ele>
        <time>2019-05-08T06:19:11Z</time>
      </trkpt>
      <trkpt lat="53.859101012349129" lon="10.692765964195132">
        <ele>3.02</ele>
        <time>2019-05-08T06:19:24Z</time>
      </trkpt>
      <trkpt lat="53.85897503234446" lon="10.692568989470601">
        <ele>1.1</ele>
        <time>2019-05-08T06:19:41Z</time>
      </trkpt>
      <trkpt lat="53.85884796269238" lon="10.69237201474607">
        <ele>0.62</ele>
        <time>2019-05-08T06:19:53Z</time>
      </trkpt>
      <trkpt lat="53.858682001009583" lon="10.692112008109689">
        <ele>1.58</ele>
        <time>2019-05-08T06:20:09Z</time>
      </trkpt>
      <trkpt lat="53.858621986582875" lon="10.692018968984485">
        <ele>2.06</ele>
        <time>2019-05-08T06:20:21Z</time>
      </trkpt>
      <trkpt lat="53.858548980206251" lon="10.691898018121719">
        <ele>2.54</ele>
        <time>2019-05-08T06:20:30Z</time>
      </trkpt>
      <trkpt lat="53.858508998528123" lon="10.691743036732078">
        <ele>2.54</ele>
        <time>2019-05-08T06:20:31Z</time>
      </trkpt>
      <trkpt lat="53.8585240021348" lon="10.691642034798861">
        <ele>3.02</ele>
        <time>2019-05-08T06:20:32Z</time>
      </trkpt>
      <trkpt lat="53.858541017398238" lon="10.691533992066979">
        <ele>3.02</ele>
        <time>2019-05-08T06:20:33Z</time>
      </trkpt>
      <trkpt lat="53.858543029054999" lon="10.691521000117064">
        <ele>3.02</ele>
        <time>2019-05-08T06:20:34Z</time>
      </trkpt>
      <trkpt lat="53.858629027381539" lon="10.691358977928758">
        <ele>3.02</ele>
        <time>2019-05-08T06:20:35Z</time>
      </trkpt>
      <trkpt lat="53.858690969645977" lon="10.691302986815572">
        <ele>3.02</ele>
        <time>2019-05-08T06:20:36Z</time>
      </trkpt>
      <trkpt lat="53.858756013214588" lon="10.691243978217244">
        <ele>2.54</ele>
        <time>2019-05-08T06:20:37Z</time>
      </trkpt>
      <trkpt lat="53.858823990449309" lon="10.691188992932439">
        <ele>2.06</ele>
        <time>2019-05-08T06:20:38Z</time>
      </trkpt>
      <trkpt lat="53.858903031796217" lon="10.691128978505731">
        <ele>1.58</ele>
        <time>2019-05-08T06:20:39Z</time>
      </trkpt>
      <trkpt lat="53.859647009521723" lon="10.690574012696743">
        <ele>-0.82</ele>
        <time>2019-05-08T06:20:50Z</time>
      </trkpt>
      <trkpt lat="53.859745999798179" lon="10.690505029633641">
        <ele>-1.3</ele>
        <time>2019-05-08T06:20:52Z</time>
      </trkpt>
      <trkpt lat="53.859830992296338" lon="10.690448032692075">
        <ele>-1.3</ele>
        <time>2019-05-08T06:21:00Z</time>
      </trkpt>
      <trkpt lat="53.859830992296338" lon="10.690448032692075">
        <ele>-1.3</ele>
        <time>2019-05-08T06:21:36Z</time>
      </trkpt>
      <trkpt lat="53.860261989757419" lon="10.690190037712455">
        <ele>0.14</ele>
        <time>2019-05-08T06:21:43Z</time>
      </trkpt>
      <trkpt lat="53.860337007790804" lon="10.690151983872056">
        <ele>0.14</ele>
        <time>2019-05-08T06:21:44Z</time>
      </trkpt>
      <trkpt lat="53.860639007762074" lon="10.689831040799618">
        <ele>-1.3</ele>
        <time>2019-05-08T06:21:49Z</time>
      </trkpt>
      <trkpt lat="53.860753001645207" lon="10.689697014167905">
        <ele>-1.3</ele>
        <time>2019-05-08T06:21:50Z</time>
      </trkpt>
      <trkpt lat="53.860766999423504" lon="10.689684022217989">
        <ele>-1.79</ele>
        <time>2019-05-08T06:21:51Z</time>
      </trkpt>
      <trkpt lat="53.860817961394787" lon="10.689632976427674">
        <ele>-1.3</ele>
        <time>2019-05-08T06:21:52Z</time>
      </trkpt>
      <trkpt lat="53.860902031883597" lon="10.689555024728179">
        <ele>-1.3</ele>
        <time>2019-05-08T06:21:53Z</time>
      </trkpt>
      <trkpt lat="53.8609519880265" lon="10.689468020573258">
        <ele>-1.3</ele>
        <time>2019-05-08T06:21:54Z</time>
      </trkpt>
      <trkpt lat="53.860999010503292" lon="10.68938797339797">
        <ele>-1.3</ele>
        <time>2019-05-08T06:21:55Z</time>
      </trkpt>
      <trkpt lat="53.861041003838181" lon="10.689314967021346">
        <ele>-0.82</ele>
        <time>2019-05-08T06:21:56Z</time>
      </trkpt>
      <trkpt lat="53.86108098551631" lon="10.689245983958244">
        <ele>-1.3</ele>
        <time>2019-05-08T06:21:57Z</time>
      </trkpt>
      <trkpt lat="53.86114502325654" lon="10.689134001731873">
        <ele>-1.3</ele>
        <time>2019-05-08T06:21:59Z</time>
      </trkpt>
      <trkpt lat="53.861171007156372" lon="10.689088990911841">
        <ele>-1.3</ele>
        <time>2019-05-08T06:22:00Z</time>
      </trkpt>
      <trkpt lat="53.861433025449514" lon="10.688636032864451">
        <ele>-2.27</ele>
        <time>2019-05-08T06:22:11Z</time>
      </trkpt>
      <trkpt lat="53.861462026834488" lon="10.688584987074137">
        <ele>-2.27</ele>
        <time>2019-05-08T06:22:12Z</time>
      </trkpt>
      <trkpt lat="53.861592030152678" lon="10.68839899264276">
        <ele>-2.75</ele>
        <time>2019-05-08T06:22:16Z</time>
      </trkpt>
      <trkpt lat="53.861631006002426" lon="10.68835599347949">
        <ele>-2.75</ele>
        <time>2019-05-08T06:22:17Z</time>
      </trkpt>
      <trkpt lat="53.861696971580386" lon="10.688280975446105">
        <ele>-2.27</ele>
        <time>2019-05-08T06:22:18Z</time>
      </trkpt>
      <trkpt lat="53.861710969358683" lon="10.688264966011047">
        <ele>-2.27</ele>
        <time>2019-05-08T06:22:19Z</time>
      </trkpt>
      <trkpt lat="53.86174600571394" lon="10.688224984332919">
        <ele>-2.27</ele>
        <time>2019-05-08T06:22:20Z</time>
      </trkpt>
      <trkpt lat="53.862011041492224" lon="10.687916027382016">
        <ele>-1.79</ele>
        <time>2019-05-08T06:22:29Z</time>
      </trkpt>
      <trkpt lat="53.862093016505241" lon="10.687813013792038">
        <ele>-1.3</ele>
        <time>2019-05-08T06:22:32Z</time>
      </trkpt>
      <trkpt lat="53.86213299818337" lon="10.687763979658484">
        <ele>-0.82</ele>
        <time>2019-05-08T06:22:33Z</time>
      </trkpt>
      <trkpt lat="53.862170968204737" lon="10.687716035172343">
        <ele>-0.82</ele>
        <time>2019-05-08T06:22:34Z</time>
      </trkpt>
      <trkpt lat="53.862506998702884" lon="10.68730398081243">
        <ele>0.14</ele>
        <time>2019-05-08T06:22:44Z</time>
      </trkpt>
      <trkpt lat="53.862538011744618" lon="10.687269028276205">
        <ele>-0.34</ele>
        <time>2019-05-08T06:22:45Z</time>
      </trkpt>
      <trkpt lat="53.86256298981607" lon="10.687239021062851">
        <ele>-0.34</ele>
        <time>2019-05-08T06:22:46Z</time>
      </trkpt>
      <trkpt lat="53.862681007012725" lon="10.687106000259519">
        <ele>-0.34</ele>
        <time>2019-05-08T06:22:50Z</time>
      </trkpt>
      <trkpt lat="53.862717971205711" lon="10.687071969732642">
        <ele>-0.34</ele>
        <time>2019-05-08T06:22:51Z</time>
      </trkpt>
      <trkpt lat="53.862754013389349" lon="10.687039028853178">
        <ele>0.14</ele>
        <time>2019-05-08T06:22:52Z</time>
      </trkpt>
      <trkpt lat="53.862899020314217" lon="10.686906008049846">
        <ele>0.62</ele>
        <time>2019-05-08T06:22:56Z</time>
      </trkpt>
      <trkpt lat="53.862935984507203" lon="10.686871977522969">
        <ele>0.62</ele>
        <time>2019-05-08T06:22:57Z</time>
      </trkpt>
      <trkpt lat="53.862974038347602" lon="10.686836019158363">
        <ele>1.1</ele>
        <time>2019-05-08T06:22:58Z</time>
      </trkpt>
      <trkpt lat="53.863012008368969" lon="10.686799976974726">
        <ele>1.58</ele>
        <time>2019-05-08T06:22:59Z</time>
      </trkpt>
      <trkpt lat="53.863047966733575" lon="10.686766030266881">
        <ele>1.58</ele>
        <time>2019-05-08T06:23:00Z</time>
      </trkpt>
      <trkpt lat="53.863084008917212" lon="10.686733005568385">
        <ele>2.06</ele>
        <time>2019-05-08T06:23:01Z</time>
      </trkpt>
      <trkpt lat="53.863506037741899" lon="10.686359005048871">
        <ele>5.42</ele>
        <time>2019-05-08T06:23:13Z</time>
      </trkpt>
      <trkpt lat="53.863538978621364" lon="10.686332015320659">
        <ele>5.91</ele>
        <time>2019-05-08T06:23:14Z</time>
      </trkpt>
      <trkpt lat="53.863565968349576" lon="10.686308965086937">
        <ele>5.91</ele>
        <time>2019-05-08T06:23:15Z</time>
      </trkpt>
      <trkpt lat="53.863590024411678" lon="10.686289016157389">
        <ele>5.91</ele>
        <time>2019-05-08T06:23:16Z</time>
      </trkpt>
      <trkpt lat="53.863612990826368" lon="10.686269989237189">
        <ele>5.91</ele>
        <time>2019-05-08T06:23:17Z</time>
      </trkpt>
      <trkpt lat="53.863670993596315" lon="10.686221038922668">
        <ele>5.91</ele>
        <time>2019-05-08T06:23:18Z</time>
      </trkpt>
      <trkpt lat="53.863799991086125" lon="10.686393035575747">
        <ele>5.91</ele>
        <time>2019-05-08T06:23:19Z</time>
      </trkpt>
      <trkpt lat="53.863722961395979" lon="10.686290021985769">
        <ele>5.91</ele>
        <time>2019-05-08T06:23:20Z</time>
      </trkpt>
      <trkpt lat="53.863752968609333" lon="10.686330003663898">
        <ele>5.91</ele>
        <time>2019-05-08T06:23:21Z</time>
      </trkpt>
      <trkpt lat="53.863799991086125" lon="10.686393035575747">
        <ele>5.91</ele>
        <time>2019-05-08T06:23:22Z</time>
      </trkpt>
      <trkpt lat="53.863914990797639" lon="10.686408039182425">
        <ele>5.91</ele>
        <time>2019-05-08T06:23:25Z</time>
      </trkpt>
      <trkpt lat="53.863964024931192" lon="10.686413990333676">
        <ele>5.91</ele>
        <time>2019-05-08T06:23:26Z</time>
      </trkpt>
      <trkpt lat="53.864070978015661" lon="10.686427988111973">
        <ele>6.87</ele>
        <time>2019-05-08T06:23:28Z</time>
      </trkpt>
      <trkpt lat="53.864264013245702" lon="10.686452966183424">
        <ele>7.35</ele>
        <time>2019-05-08T06:23:32Z</time>
      </trkpt>
      <trkpt lat="53.864300977438688" lon="10.686456989496946">
        <ele>6.87</ele>
        <time>2019-05-08T06:23:33Z</time>
      </trkpt>
      <trkpt lat="53.86432696133852" lon="10.686461012810469">
        <ele>6.39</ele>
        <time>2019-05-08T06:23:34Z</time>
      </trkpt>
      <trkpt lat="53.864465011283755" lon="10.686479033902287">
        <ele>5.42</ele>
        <time>2019-05-08T06:23:36Z</time>
      </trkpt>
      <trkpt lat="53.864465011283755" lon="10.686479033902287">
        <ele>5.42</ele>
        <time>2019-05-08T06:23:37Z</time>
      </trkpt>
      <trkpt lat="53.864550003781915" lon="10.68594804033637">
        <ele>5.42</ele>
        <time>2019-05-08T06:23:45Z</time>
      </trkpt>
      <trkpt lat="53.864595014601946" lon="10.685459040105343">
        <ele>6.39</ele>
        <time>2019-05-08T06:23:54Z</time>
      </trkpt>
      <trkpt lat="53.864585962146521" lon="10.685426015406847">
        <ele>6.87</ele>
        <time>2019-05-08T06:23:55Z</time>
      </trkpt>
      <trkpt lat="53.864577999338508" lon="10.685398019850254">
        <ele>7.35</ele>
        <time>2019-05-08T06:23:56Z</time>
      </trkpt>
      <trkpt lat="53.864511027932167" lon="10.685345968231559">
        <ele>7.83</ele>
        <time>2019-05-08T06:23:57Z</time>
      </trkpt>
      <trkpt lat="53.864492001011968" lon="10.685370024293661">
        <ele>8.310000000000001</ele>
        <time>2019-05-08T06:23:58Z</time>
      </trkpt>
      <trkpt lat="53.86447599157691" lon="10.685388967394829">
        <ele>8.789999999999999</ele>
        <time>2019-05-08T06:23:59Z</time>
      </trkpt>
      <trkpt lat="53.864455036818981" lon="10.685414029285312">
        <ele>9.75</ele>
        <time>2019-05-08T06:24:00Z</time>
      </trkpt>
      <trkpt lat="53.864455036818981" lon="10.685414029285312">
        <ele>9.75</ele>
        <time>2019-05-08T06:24:01Z</time>
      </trkpt>
      <trkpt lat="53.864455036818981" lon="10.685414029285312">
        <ele>10.710000000000001</ele>
        <time>2019-05-08T06:24:13Z</time>
      </trkpt>
      <trkpt lat="53.864455036818981" lon="10.685414029285312">
        <ele>13.119999999999999</ele>
        <time>2019-05-08T06:24:55Z</time>
      </trkpt>
      <trkpt lat="53.864455036818981" lon="10.685414029285312">
        <ele>14.56</ele>
        <time>2019-05-08T06:25:34Z</time>
      </trkpt>
      <trkpt lat="53.864401979371905" lon="10.685471026226878">
        <ele>17.920000000000002</ele>
        <time>2019-05-08T06:25:57Z</time>
      </trkpt>
      <trkpt lat="53.864383958280087" lon="10.685489969328046">
        <ele>17.920000000000002</ele>
        <time>2019-05-08T06:25:58Z</time>
      </trkpt>
      <trkpt lat="53.864356968551874" lon="10.685518970713019">
        <ele>18.399999999999999</ele>
        <time>2019-05-08T06:25:59Z</time>
      </trkpt>
      <trkpt lat="53.864315981045365" lon="10.685561969876289">
        <ele>18.879999999999999</ele>
        <time>2019-05-08T06:26:00Z</time>
      </trkpt>
      <trkpt lat="53.864270970225334" lon="10.685607986524701">
        <ele>19.359999999999999</ele>
        <time>2019-05-08T06:26:01Z</time>
      </trkpt>
      <trkpt lat="53.864223025739193" lon="10.685659032315016">
        <ele>19.359999999999999</ele>
        <time>2019-05-08T06:26:02Z</time>
      </trkpt>
      <trkpt lat="53.86357200331986" lon="10.686304019764066">
        <ele>16.48</ele>
        <time>2019-05-08T06:26:13Z</time>
      </trkpt>
      <trkpt lat="53.863472007215023" lon="10.686387000605464">
        <ele>16.48</ele>
        <time>2019-05-08T06:26:15Z</time>
      </trkpt>
      <trkpt lat="53.863415010273457" lon="10.686434023082256">
        <ele>16.48</ele>
        <time>2019-05-08T06:26:16Z</time>
      </trkpt>
      <trkpt lat="53.863354995846748" lon="10.686484985053539">
        <ele>16.48</ele>
        <time>2019-05-08T06:26:17Z</time>
      </trkpt>
      <trkpt lat="53.862719982862473" lon="10.687070041894913">
        <ele>17.920000000000002</ele>
        <time>2019-05-08T06:26:27Z</time>
      </trkpt>
      <trkpt lat="53.862187983468175" lon="10.687694996595383">
        <ele>19.84</ele>
        <time>2019-05-08T06:26:36Z</time>
      </trkpt>
      <trkpt lat="53.861784981563687" lon="10.688178967684507">
        <ele>21.77</ele>
        <time>2019-05-08T06:26:46Z</time>
      </trkpt>
      <trkpt lat="53.861482981592417" lon="10.688549028709531">
        <ele>19.359999999999999</ele>
        <time>2019-05-08T06:26:55Z</time>
      </trkpt>
      <trkpt lat="53.861409975215793" lon="10.688675008714199">
        <ele>18.879999999999999</ele>
        <time>2019-05-08T06:26:58Z</time>
      </trkpt>
      <trkpt lat="53.861375022679567" lon="10.688735023140907">
        <ele>18.879999999999999</ele>
        <time>2019-05-08T06:26:59Z</time>
      </trkpt>
      <trkpt lat="53.861261028796434" lon="10.688933003693819">
        <ele>17.920000000000002</ele>
        <time>2019-05-08T06:27:02Z</time>
      </trkpt>
      <trkpt lat="53.861222974956036" lon="10.688998969271779">
        <ele>17.440000000000001</ele>
        <time>2019-05-08T06:27:03Z</time>
      </trkpt>
      <trkpt lat="53.861007979139686" lon="10.689371963962913">
        <ele>16</ele>
        <time>2019-05-08T06:27:09Z</time>
      </trkpt>
      <trkpt lat="53.860974032431841" lon="10.68943097256124">
        <ele>16</ele>
        <time>2019-05-08T06:27:10Z</time>
      </trkpt>
      <trkpt lat="53.860940001904964" lon="10.689488975331187">
        <ele>15.52</ele>
        <time>2019-05-08T06:27:11Z</time>
      </trkpt>
      <trkpt lat="53.860905971378088" lon="10.689546978101134">
        <ele>15.52</ele>
        <time>2019-05-08T06:27:12Z</time>
      </trkpt>
      <trkpt lat="53.860881999135017" lon="10.689589977264404">
        <ele>15.52</ele>
        <time>2019-05-08T06:27:13Z</time>
      </trkpt>
      <trkpt lat="53.860753001645207" lon="10.689697014167905">
        <ele>15.039999999999999</ele>
        <time>2019-05-08T06:27:15Z</time>
      </trkpt>
      <trkpt lat="53.860751995816827" lon="10.689699025824666">
        <ele>15.039999999999999</ele>
        <time>2019-05-08T06:27:16Z</time>
      </trkpt>
      <trkpt lat="53.860725006088614" lon="10.689730038866401">
        <ele>15.52</ele>
        <time>2019-05-08T06:27:17Z</time>
      </trkpt>
      <trkpt lat="53.860692987218499" lon="10.689768008887768">
        <ele>15.52</ele>
        <time>2019-05-08T06:27:18Z</time>
      </trkpt>
      <trkpt lat="53.860656023025513" lon="10.689812013879418">
        <ele>15.52</ele>
        <time>2019-05-08T06:27:19Z</time>
      </trkpt>
      <trkpt lat="53.86062802746892" lon="10.689845038577914">
        <ele>16</ele>
        <time>2019-05-08T06:27:20Z</time>
      </trkpt>
      <trkpt lat="53.860606988891959" lon="10.689869010820985">
        <ele>16</ele>
        <time>2019-05-08T06:27:21Z</time>
      </trkpt>
      <trkpt lat="53.86058896780014" lon="10.689889965578914">
        <ele>16.48</ele>
        <time>2019-05-08T06:27:22Z</time>
      </trkpt>
      <trkpt lat="53.860572958365083" lon="10.689909998327494">
        <ele>16.48</ele>
        <time>2019-05-08T06:27:23Z</time>
      </trkpt>
      <trkpt lat="53.860560972243547" lon="10.68992299027741">
        <ele>16.960000000000001</ele>
        <time>2019-05-08T06:27:25Z</time>
      </trkpt>
      <trkpt lat="53.860384030267596" lon="10.690128011628985">
        <ele>16.960000000000001</ele>
        <time>2019-05-08T06:27:36Z</time>
      </trkpt>
      <trkpt lat="53.860239023342729" lon="10.69020101800561">
        <ele>17.440000000000001</ele>
        <time>2019-05-08T06:28:06Z</time>
      </trkpt>
      <trkpt lat="53.860081024467945" lon="10.690279975533485">
        <ele>18.879999999999999</ele>
        <time>2019-05-08T06:28:09Z</time>
      </trkpt>
      <trkpt lat="53.859952026978135" lon="10.690345019102097">
        <ele>20.32</ele>
        <time>2019-05-08T06:28:12Z</time>
      </trkpt>
      <trkpt lat="53.859911039471626" lon="10.690364968031645">
        <ele>20.809999999999999</ele>
        <time>2019-05-08T06:28:13Z</time>
      </trkpt>
      <trkpt lat="53.859843984246254" lon="10.690289027988911">
        <ele>21.289999999999999</ele>
        <time>2019-05-08T06:28:14Z</time>
      </trkpt>
      <trkpt lat="53.8598139770329" lon="10.690194983035326">
        <ele>21.77</ele>
        <time>2019-05-08T06:28:15Z</time>
      </trkpt>
      <trkpt lat="53.859766032546759" lon="10.690041007474065">
        <ele>22.25</ele>
        <time>2019-05-08T06:28:16Z</time>
      </trkpt>
      <trkpt lat="53.859206037595868" lon="10.689155040308833">
        <ele>24.170000000000002</ele>
        <time>2019-05-08T06:28:26Z</time>
      </trkpt>
      <trkpt lat="53.858991963788867" lon="10.688825966790318">
        <ele>24.649999999999999</ele>
        <time>2019-05-08T06:28:29Z</time>
      </trkpt>
      <trkpt lat="53.858922980725765" lon="10.688723037019372">
        <ele>25.129999999999999</ele>
        <time>2019-05-08T06:28:30Z</time>
      </trkpt>
      <trkpt lat="53.858852991834283" lon="10.688620023429394">
        <ele>25.609999999999999</ele>
        <time>2019-05-08T06:28:31Z</time>
      </trkpt>
      <trkpt lat="53.85878199711442" lon="10.688516004011035">
        <ele>26.09</ele>
        <time>2019-05-08T06:28:32Z</time>
      </trkpt>
      <trkpt lat="53.85871603153646" lon="10.688420031219721">
        <ele>26.57</ele>
        <time>2019-05-08T06:28:33Z</time>
      </trkpt>
      <trkpt lat="53.858649982139468" lon="10.688321962952614">
        <ele>27.050000000000001</ele>
        <time>2019-05-08T06:28:34Z</time>
      </trkpt>
      <trkpt lat="53.858545040711761" lon="10.688090035691857">
        <ele>27.050000000000001</ele>
        <time>2019-05-08T06:28:36Z</time>
      </trkpt>
      <trkpt lat="53.858502963557839" lon="10.687976963818073">
        <ele>27.050000000000001</ele>
        <time>2019-05-08T06:28:37Z</time>
      </trkpt>
      <trkpt lat="53.858457030728459" lon="10.687848972156644">
        <ele>27.050000000000001</ele>
        <time>2019-05-08T06:28:38Z</time>
      </trkpt>
      <trkpt lat="53.858430963009596" lon="10.687697008252144">
        <ele>27.050000000000001</ele>
        <time>2019-05-08T06:28:39Z</time>
      </trkpt>
      <trkpt lat="53.858416965231299" lon="10.6875179708004">
        <ele>26.57</ele>
        <time>2019-05-08T06:28:40Z</time>
      </trkpt>
      <trkpt lat="53.858423000201583" lon="10.68736701272428">
        <ele>26.57</ele>
        <time>2019-05-08T06:28:41Z</time>
      </trkpt>
      <trkpt lat="53.858428029343486" lon="10.687212031334639">
        <ele>26.09</ele>
        <time>2019-05-08T06:28:42Z</time>
      </trkpt>
      <trkpt lat="53.858435992151499" lon="10.687014972791076">
        <ele>26.09</ele>
        <time>2019-05-08T06:28:43Z</time>
      </trkpt>
      <trkpt lat="53.858458958566189" lon="10.686869965866208">
        <ele>26.09</ele>
        <time>2019-05-08T06:28:44Z</time>
      </trkpt>
      <trkpt lat="53.858465999364853" lon="10.686696963384748">
        <ele>26.09</ele>
        <time>2019-05-08T06:28:45Z</time>
      </trkpt>
      <trkpt lat="53.858473040163517" lon="10.686520021408796">
        <ele>25.609999999999999</ele>
        <time>2019-05-08T06:28:46Z</time>
      </trkpt>
      <trkpt lat="53.858478991314769" lon="10.686342995613813">
        <ele>25.609999999999999</ele>
        <time>2019-05-08T06:28:47Z</time>
      </trkpt>
      <trkpt lat="53.858469016849995" lon="10.685812002047896">
        <ele>26.09</ele>
        <time>2019-05-08T06:28:50Z</time>
      </trkpt>
      <trkpt lat="53.858456024900079" lon="10.685527017340064">
        <ele>25.129999999999999</ele>
        <time>2019-05-08T06:28:52Z</time>
      </trkpt>
      <trkpt lat="53.858435992151499" lon="10.685382010415196">
        <ele>24.649999999999999</ele>
        <time>2019-05-08T06:28:53Z</time>
      </trkpt>
      <trkpt lat="53.858449989929795" lon="10.685009015724063">
        <ele>23.210000000000001</ele>
        <time>2019-05-08T06:28:56Z</time>
      </trkpt>
      <trkpt lat="53.858465999364853" lon="10.684884963557124">
        <ele>22.73</ele>
        <time>2019-05-08T06:28:57Z</time>
      </trkpt>
      <trkpt lat="53.858478991314769" lon="10.684783961623907">
        <ele>22.73</ele>
        <time>2019-05-08T06:28:58Z</time>
      </trkpt>
      <trkpt lat="53.85854403488338" lon="10.684644989669323">
        <ele>21.77</ele>
        <time>2019-05-08T06:28:59Z</time>
      </trkpt>
      <trkpt lat="53.858600025996566" lon="10.684527978301048">
        <ele>21.289999999999999</ele>
        <time>2019-05-08T06:29:00Z</time>
      </trkpt>
      <trkpt lat="53.858656017109752" lon="10.684409039095044">
        <ele>20.32</ele>
        <time>2019-05-08T06:29:01Z</time>
      </trkpt>
      <trkpt lat="53.858721982687712" lon="10.684291021898389">
        <ele>19.84</ele>
        <time>2019-05-08T06:29:02Z</time>
      </trkpt>
      <trkpt lat="53.858923986554146" lon="10.683953985571861">
        <ele>17.920000000000002</ele>
        <time>2019-05-08T06:29:05Z</time>
      </trkpt>
      <trkpt lat="53.858989030122757" lon="10.683846026659012">
        <ele>17.440000000000001</ele>
        <time>2019-05-08T06:29:06Z</time>
      </trkpt>
      <trkpt lat="53.859554976224899" lon="10.682899039238691">
        <ele>13.6</ele>
        <time>2019-05-08T06:29:15Z</time>
      </trkpt>
      <trkpt lat="53.860210021957755" lon="10.681800004094839">
        <ele>11.67</ele>
        <time>2019-05-08T06:29:23Z</time>
      </trkpt>
      <trkpt lat="53.860538005828857" lon="10.6812649872154">
        <ele>10.23</ele>
        <time>2019-05-08T06:29:27Z</time>
      </trkpt>
      <trkpt lat="53.860616041347384" lon="10.681144958361983">
        <ele>9.75</ele>
        <time>2019-05-08T06:29:28Z</time>
      </trkpt>
      <trkpt lat="53.860990041866899" lon="10.680480021983385">
        <ele>6.39</ele>
        <time>2019-05-08T06:29:34Z</time>
      </trkpt>
      <trkpt lat="53.861039998009801" lon="10.680382959544659">
        <ele>5.91</ele>
        <time>2019-05-08T06:29:35Z</time>
      </trkpt>
      <trkpt lat="53.861092971637845" lon="10.680280029773712">
        <ele>5.42</ele>
        <time>2019-05-08T06:29:36Z</time>
      </trkpt>
      <trkpt lat="53.861143011599779" lon="10.680181961506605">
        <ele>4.94</ele>
        <time>2019-05-08T06:29:37Z</time>
      </trkpt>
      <trkpt lat="53.861183999106288" lon="10.680101998150349">
        <ele>4.46</ele>
        <time>2019-05-08T06:29:38Z</time>
      </trkpt>
      <trkpt lat="53.861214006319642" lon="10.680017005652189">
        <ele>3.98</ele>
        <time>2019-05-08T06:29:39Z</time>
      </trkpt>
      <trkpt lat="53.861234961077571" lon="10.679959002882242">
        <ele>3.5</ele>
        <time>2019-05-08T06:29:40Z</time>
      </trkpt>
      <trkpt lat="53.861234961077571" lon="10.679959002882242">
        <ele>3.02</ele>
        <time>2019-05-08T06:29:41Z</time>
      </trkpt>
      <trkpt lat="53.861249964684248" lon="10.679917009547353">
        <ele>2.06</ele>
        <time>2019-05-08T06:29:47Z</time>
      </trkpt>
      <trkpt lat="53.861290030181408" lon="10.679805027320981">
        <ele>1.1</ele>
        <time>2019-05-08T06:29:48Z</time>
      </trkpt>
      <trkpt lat="53.861291036009789" lon="10.679795974865556">
        <ele>0.62</ele>
        <time>2019-05-08T06:29:49Z</time>
      </trkpt>
      <trkpt lat="53.861303022131324" lon="10.679693967103958">
        <ele>-0.34</ele>
        <time>2019-05-08T06:29:50Z</time>
      </trkpt>
      <trkpt lat="53.86131601408124" lon="10.679583996534348">
        <ele>-0.82</ele>
        <time>2019-05-08T06:29:51Z</time>
      </trkpt>
      <trkpt lat="53.861328000202775" lon="10.679477965459228">
        <ele>-1.3</ele>
        <time>2019-05-08T06:29:52Z</time>
      </trkpt>
      <trkpt lat="53.861333029344678" lon="10.679441001266241">
        <ele>-1.79</ele>
        <time>2019-05-08T06:29:53Z</time>
      </trkpt>
      <trkpt lat="53.861333029344678" lon="10.679441001266241">
        <ele>-2.27</ele>
        <time>2019-05-08T06:29:54Z</time>
      </trkpt>
      <trkpt lat="53.861398994922638" lon="10.679146964102983">
        <ele>-2.75</ele>
        <time>2019-05-08T06:29:55Z</time>
      </trkpt>
      <trkpt lat="53.861464960500598" lon="10.679131960496306">
        <ele>-2.75</ele>
        <time>2019-05-08T06:29:56Z</time>
      </trkpt>
      <trkpt lat="53.861533021554351" lon="10.679117040708661">
        <ele>-3.23</ele>
        <time>2019-05-08T06:29:57Z</time>
      </trkpt>
      <trkpt lat="53.861604016274214" lon="10.679096002131701">
        <ele>-3.23</ele>
        <time>2019-05-08T06:29:58Z</time>
      </trkpt>
      <trkpt lat="53.861676016822457" lon="10.679075969383121">
        <ele>-3.23</ele>
        <time>2019-05-08T06:29:59Z</time>
      </trkpt>
      <trkpt lat="53.86256399564445" lon="10.678783021867275">
        <ele>-2.75</ele>
        <time>2019-05-08T06:30:10Z</time>
      </trkpt>
      <trkpt lat="53.862973032519221" lon="10.678638014942408">
        <ele>-1.79</ele>
        <time>2019-05-08T06:30:17Z</time>
      </trkpt>
      <trkpt lat="53.862991975620389" lon="10.678630974143744">
        <ele>-0.82</ele>
        <time>2019-05-08T06:30:29Z</time>
      </trkpt>
      <trkpt lat="53.863333035260439" lon="10.678508011624217">
        <ele>-0.34</ele>
        <time>2019-05-08T06:30:40Z</time>
      </trkpt>
      <trkpt lat="53.864302989095449" lon="10.678136022761464">
        <ele>3.5</ele>
        <time>2019-05-08T06:30:52Z</time>
      </trkpt>
      <trkpt lat="53.865125002339482" lon="10.677658002823591">
        <ele>8.789999999999999</ele>
        <time>2019-05-08T06:31:01Z</time>
      </trkpt>
      <trkpt lat="53.865818018093705" lon="10.677439989522099">
        <ele>16</ele>
        <time>2019-05-08T06:31:10Z</time>
      </trkpt>
      <trkpt lat="53.866025973111391" lon="10.677601005882025">
        <ele>18.879999999999999</ele>
        <time>2019-05-08T06:31:17Z</time>
      </trkpt>
      <trkpt lat="53.86602396145463" lon="10.677675018087029">
        <ele>18.399999999999999</ele>
        <time>2019-05-08T06:31:18Z</time>
      </trkpt>
      <trkpt lat="53.8660220336169" lon="10.677759004756808">
        <ele>18.399999999999999</ele>
        <time>2019-05-08T06:31:19Z</time>
      </trkpt>
      <trkpt lat="53.866019016131759" lon="10.677851038053632">
        <ele>18.399999999999999</ele>
        <time>2019-05-08T06:31:20Z</time>
      </trkpt>
      <trkpt lat="53.866017004474998" lon="10.677941981703043">
        <ele>17.920000000000002</ele>
        <time>2019-05-08T06:31:21Z</time>
      </trkpt>
      <trkpt lat="53.866013986989856" lon="10.678029991686344">
        <ele>17.920000000000002</ele>
        <time>2019-05-08T06:31:22Z</time>
      </trkpt>
      <trkpt lat="53.866011975333095" lon="10.678114984184504">
        <ele>17.440000000000001</ele>
        <time>2019-05-08T06:31:23Z</time>
      </trkpt>
      <trkpt lat="53.866009963676333" lon="10.678198970854282">
        <ele>17.440000000000001</ele>
        <time>2019-05-08T06:31:24Z</time>
      </trkpt>
      <trkpt lat="53.866009963676333" lon="10.679428009316325">
        <ele>11.67</ele>
        <time>2019-05-08T06:31:35Z</time>
      </trkpt>
      <trkpt lat="53.866009963676333" lon="10.679441001266241">
        <ele>11.19</ele>
        <time>2019-05-08T06:31:36Z</time>
      </trkpt>
      <trkpt lat="53.8660220336169" lon="10.679594976827502">
        <ele>10.710000000000001</ele>
        <time>2019-05-08T06:31:37Z</time>
      </trkpt>
      <trkpt lat="53.866027984768152" lon="10.679672006517649">
        <ele>10.23</ele>
        <time>2019-05-08T06:31:38Z</time>
      </trkpt>
      <trkpt lat="53.866034019738436" lon="10.679727997630835">
        <ele>9.75</ele>
        <time>2019-05-08T06:31:39Z</time>
      </trkpt>
      <trkpt lat="53.866049023345113" lon="10.679788012057543">
        <ele>9.75</ele>
        <time>2019-05-08T06:31:40Z</time>
      </trkpt>
      <trkpt lat="53.866080958396196" lon="10.679904017597437">
        <ele>7.83</ele>
        <time>2019-05-08T06:31:49Z</time>
      </trkpt>
      <trkpt lat="53.866096967831254" lon="10.679936036467552">
        <ele>7.83</ele>
        <time>2019-05-08T06:31:59Z</time>
      </trkpt>
      <trkpt lat="53.86610995978117" lon="10.679962020367384">
        <ele>7.35</ele>
        <time>2019-05-08T06:32:00Z</time>
      </trkpt>
      <trkpt lat="53.866123035550117" lon="10.679988004267216">
        <ele>6.87</ele>
        <time>2019-05-08T06:32:01Z</time>
      </trkpt>
      <trkpt lat="53.866133010014892" lon="10.680007031187415">
        <ele>6.87</ele>
        <time>2019-05-08T06:32:02Z</time>
      </trkpt>
      <trkpt lat="53.866133010014892" lon="10.680007031187415">
        <ele>6.39</ele>
        <time>2019-05-08T06:32:18Z</time>
      </trkpt>
    </trkseg>
  </trk>

  <trk>
    <name>Track vom: 2019-05-08 08:37</name>
    <extensions>
      <gpxx:TrackExtension>
        <gpxx:DisplayColor>DarkGray</gpxx:DisplayColor>
      </gpxx:TrackExtension>
    </extensions>
    <trkseg>
      <trkpt lat="53.866229988634586" lon="10.680094035342336">
        <ele>12.15</ele>
        <time>2019-05-08T06:37:27Z</time>
      </trkpt>
      <trkpt lat="53.866224959492683" lon="10.680095963180065">
        <ele>12.15</ele>
        <time>2019-05-08T06:38:00Z</time>
      </trkpt>
      <trkpt lat="53.866224037483335" lon="10.680134017020464">
        <ele>11.67</ele>
        <time>2019-05-08T06:38:06Z</time>
      </trkpt>
      <trkpt lat="53.866245998069644" lon="10.680235018953681">
        <ele>11.19</ele>
        <time>2019-05-08T06:38:08Z</time>
      </trkpt>
      <trkpt lat="53.866245998069644" lon="10.680235018953681">
        <ele>11.19</ele>
        <time>2019-05-08T06:38:09Z</time>
      </trkpt>
      <trkpt lat="53.866267958655953" lon="10.68075000308454">
        <ele>9.75</ele>
        <time>2019-05-08T06:38:15Z</time>
      </trkpt>
      <trkpt lat="53.866274999454618" lon="10.680839018896222">
        <ele>9.75</ele>
        <time>2019-05-08T06:38:16Z</time>
      </trkpt>
      <trkpt lat="53.866281034424901" lon="10.680905990302563">
        <ele>9.27</ele>
        <time>2019-05-08T06:38:17Z</time>
      </trkpt>
      <trkpt lat="53.866343982517719" lon="10.680989976972342">
        <ele>8.789999999999999</ele>
        <time>2019-05-08T06:38:18Z</time>
      </trkpt>
      <trkpt lat="53.866378013044596" lon="10.680980002507567">
        <ele>8.310000000000001</ele>
        <time>2019-05-08T06:38:19Z</time>
      </trkpt>
      <trkpt lat="53.866415983065963" lon="10.680968016386032">
        <ele>7.83</ele>
        <time>2019-05-08T06:38:20Z</time>
      </trkpt>
      <trkpt lat="53.866449007764459" lon="10.680957958102226">
        <ele>7.83</ele>
        <time>2019-05-08T06:38:21Z</time>
      </trkpt>
      <trkpt lat="53.866477003321052" lon="10.680948989465833">
        <ele>6.87</ele>
        <time>2019-05-08T06:38:22Z</time>
      </trkpt>
      <trkpt lat="53.866501981392503" lon="10.6809420324862">
        <ele>6.39</ele>
        <time>2019-05-08T06:38:23Z</time>
      </trkpt>
      <trkpt lat="53.866524025797844" lon="10.680934991687536">
        <ele>5.42</ele>
        <time>2019-05-08T06:38:24Z</time>
      </trkpt>
      <trkpt lat="53.866543974727392" lon="10.680929040536284">
        <ele>4.94</ele>
        <time>2019-05-08T06:38:25Z</time>
      </trkpt>
      <trkpt lat="53.866582028567791" lon="10.680915964767337">
        <ele>3.02</ele>
        <time>2019-05-08T06:38:28Z</time>
      </trkpt>
      <trkpt lat="53.86628296226263" lon="10.680932980030775">
        <ele>2.54</ele>
        <time>2019-05-08T06:38:29Z</time>
      </trkpt>
      <trkpt lat="53.866535006090999" lon="10.680930968374014">
        <ele>1.58</ele>
        <time>2019-05-08T06:38:31Z</time>
      </trkpt>
      <trkpt lat="53.866512961685658" lon="10.680938009172678">
        <ele>1.1</ele>
        <time>2019-05-08T06:38:32Z</time>
      </trkpt>
      <trkpt lat="53.866491001099348" lon="10.68094496615231">
        <ele>0.14</ele>
        <time>2019-05-08T06:38:33Z</time>
      </trkpt>
      <trkpt lat="53.866491001099348" lon="10.68094496615231">
        <ele>-0.82</ele>
        <time>2019-05-08T06:38:49Z</time>
      </trkpt>
      <trkpt lat="53.866491001099348" lon="10.68094496615231">
        <ele>-1.3</ele>
        <time>2019-05-08T06:39:20Z</time>
      </trkpt>
      <trkpt lat="53.866413971409202" lon="10.680968016386032">
        <ele>-1.79</ele>
        <time>2019-05-08T06:39:37Z</time>
      </trkpt>
      <trkpt lat="53.866271981969476" lon="10.680804988369346">
        <ele>-1.79</ele>
        <time>2019-05-08T06:39:38Z</time>
      </trkpt>
      <trkpt lat="53.866267958655953" lon="10.68075000308454">
        <ele>-1.79</ele>
        <time>2019-05-08T06:39:39Z</time>
      </trkpt>
      <trkpt lat="53.866262007504702" lon="10.680616982281208">
        <ele>-2.27</ele>
        <time>2019-05-08T06:39:40Z</time>
      </trkpt>
      <trkpt lat="53.86625899001956" lon="10.680524026975036">
        <ele>-2.75</ele>
        <time>2019-05-08T06:39:41Z</time>
      </trkpt>
      <trkpt lat="53.866255972534418" lon="10.680456971749663">
        <ele>-3.23</ele>
        <time>2019-05-08T06:39:42Z</time>
      </trkpt>
      <trkpt lat="53.866253960877657" lon="10.680403998121619">
        <ele>-3.23</ele>
        <time>2019-05-08T06:39:43Z</time>
      </trkpt>
      <trkpt lat="53.866252033039927" lon="10.680358987301588">
        <ele>-3.23</ele>
        <time>2019-05-08T06:39:44Z</time>
      </trkpt>
      <trkpt lat="53.866250021383166" lon="10.680323028936982">
        <ele>-3.71</ele>
        <time>2019-05-08T06:39:45Z</time>
      </trkpt>
      <trkpt lat="53.866249015554786" lon="10.680290004238486">
        <ele>-3.71</ele>
        <time>2019-05-08T06:39:46Z</time>
      </trkpt>
      <trkpt lat="53.866256978362799" lon="10.680209035053849">
        <ele>-4.19</ele>
        <time>2019-05-08T06:39:57Z</time>
      </trkpt>
      <trkpt lat="53.86628002859652" lon="10.680152960121632">
        <ele>-4.19</ele>
        <time>2019-05-08T06:39:58Z</time>
      </trkpt>
      <trkpt lat="53.866311041638255" lon="10.680079031735659">
        <ele>-4.19</ele>
        <time>2019-05-08T06:39:59Z</time>
      </trkpt>
      <trkpt lat="53.866384970024228" lon="10.679892031475902">
        <ele>-4.67</ele>
        <time>2019-05-08T06:40:01Z</time>
      </trkpt>
      <trkpt lat="53.866439033299685" lon="10.67974098958075">
        <ele>-4.67</ele>
        <time>2019-05-08T06:40:02Z</time>
      </trkpt>
      <trkpt lat="53.866460993885994" lon="10.679591037333012">
        <ele>-4.67</ele>
        <time>2019-05-08T06:40:03Z</time>
      </trkpt>
      <trkpt lat="53.866460993885994" lon="10.6795259937644">
        <ele>-5.15</ele>
        <time>2019-05-08T06:40:04Z</time>
      </trkpt>
      <trkpt lat="53.866460993885994" lon="10.679370006546378">
        <ele>-5.15</ele>
        <time>2019-05-08T06:40:05Z</time>
      </trkpt>
      <trkpt lat="53.866438027471304" lon="10.678126970306039">
        <ele>-5.63</ele>
        <time>2019-05-08T06:40:15Z</time>
      </trkpt>
      <trkpt lat="53.866423023864627" lon="10.677863024175167">
        <ele>-3.71</ele>
        <time>2019-05-08T06:40:22Z</time>
      </trkpt>
      <trkpt lat="53.866423023864627" lon="10.677863024175167">
        <ele>-3.71</ele>
        <time>2019-05-08T06:40:47Z</time>
      </trkpt>
      <trkpt lat="53.866374995559454" lon="10.677359020337462">
        <ele>-3.23</ele>
        <time>2019-05-08T06:40:57Z</time>
      </trkpt>
      <trkpt lat="53.866228982806206" lon="10.676074996590614">
        <ele>-2.27</ele>
        <time>2019-05-08T06:41:06Z</time>
      </trkpt>
      <trkpt lat="53.866204004734755" lon="10.675945999100804">
        <ele>-2.27</ele>
        <time>2019-05-08T06:41:07Z</time>
      </trkpt>
      <trkpt lat="53.866210961714387" lon="10.675819013267756">
        <ele>-1.79</ele>
        <time>2019-05-08T06:41:08Z</time>
      </trkpt>
      <trkpt lat="53.866334008052945" lon="10.67492600530386">
        <ele>-2.75</ele>
        <time>2019-05-08T06:41:14Z</time>
      </trkpt>
      <trkpt lat="53.866432998329401" lon="10.674866996705532">
        <ele>-3.23</ele>
        <time>2019-05-08T06:41:15Z</time>
      </trkpt>
      <trkpt lat="53.866482032462955" lon="10.674719978123903">
        <ele>-3.71</ele>
        <time>2019-05-08T06:41:16Z</time>
      </trkpt>
      <trkpt lat="53.866510028019547" lon="10.674558039754629">
        <ele>-3.71</ele>
        <time>2019-05-08T06:41:17Z</time>
      </trkpt>
      <trkpt lat="53.866574987769127" lon="10.674442034214735">
        <ele>-4.19</ele>
        <time>2019-05-08T06:41:18Z</time>
      </trkpt>
      <trkpt lat="53.866674983873963" lon="10.674326028674841">
        <ele>-4.67</ele>
        <time>2019-05-08T06:41:19Z</time>
      </trkpt>
      <trkpt lat="53.866765005514026" lon="10.674254028126597">
        <ele>-4.67</ele>
        <time>2019-05-08T06:41:20Z</time>
      </trkpt>
      <trkpt lat="53.866855027154088" lon="10.674182027578354">
        <ele>-5.15</ele>
        <time>2019-05-08T06:41:21Z</time>
      </trkpt>
      <trkpt lat="53.867278983816504" lon="10.673836022615433">
        <ele>-4.19</ele>
        <time>2019-05-08T06:41:27Z</time>
      </trkpt>
      <trkpt lat="53.867327012121677" lon="10.673782965168357">
        <ele>-4.19</ele>
        <time>2019-05-08T06:41:28Z</time>
      </trkpt>
      <trkpt lat="53.867372022941709" lon="10.673734014853835">
        <ele>-3.71</ele>
        <time>2019-05-08T06:41:29Z</time>
      </trkpt>
      <trkpt lat="53.867528010159731" lon="10.673565035685897">
        <ele>-1.79</ele>
        <time>2019-05-08T06:41:35Z</time>
      </trkpt>
      <trkpt lat="53.867535972967744" lon="10.673555983230472">
        <ele>-1.3</ele>
        <time>2019-05-08T06:41:36Z</time>
      </trkpt>
      <trkpt lat="53.867535972967744" lon="10.673555983230472">
        <ele>-1.3</ele>
        <time>2019-05-08T06:41:48Z</time>
      </trkpt>
      <trkpt lat="53.867539996281266" lon="10.673551959916949">
        <ele>-1.3</ele>
        <time>2019-05-08T06:41:59Z</time>
      </trkpt>
      <trkpt lat="53.867565980181098" lon="10.673522958531976">
        <ele>-0.82</ele>
        <time>2019-05-08T06:42:00Z</time>
      </trkpt>
      <trkpt lat="53.868049029260874" lon="10.672990959137678">
        <ele>-0.82</ele>
        <time>2019-05-08T06:42:07Z</time>
      </trkpt>
      <trkpt lat="53.868835000321269" lon="10.671969037503004">
        <ele>-0.34</ele>
        <time>2019-05-08T06:42:17Z</time>
      </trkpt>
      <trkpt lat="53.869679979979992" lon="10.67082398571074">
        <ele>-2.27</ele>
        <time>2019-05-08T06:42:27Z</time>
      </trkpt>
      <trkpt lat="53.870525965467095" lon="10.669342987239361">
        <ele>-7.07</ele>
        <time>2019-05-08T06:42:38Z</time>
      </trkpt>
      <trkpt lat="53.871569009497762" lon="10.667929966002703">
        <ele>-4.67</ele>
        <time>2019-05-08T06:42:49Z</time>
      </trkpt>
      <trkpt lat="53.872718000784516" lon="10.666778963059187">
        <ele>1.58</ele>
        <time>2019-05-08T06:43:00Z</time>
      </trkpt>
      <trkpt lat="53.873790968209505" lon="10.665867011994123">
        <ele>5.42</ele>
        <time>2019-05-08T06:43:10Z</time>
      </trkpt>
      <trkpt lat="53.874776009470224" lon="10.664941985160112">
        <ele>5.91</ele>
        <time>2019-05-08T06:43:20Z</time>
      </trkpt>
      <trkpt lat="53.875230979174376" lon="10.664518028497696">
        <ele>7.35</ele>
        <time>2019-05-08T06:43:29Z</time>
      </trkpt>
      <trkpt lat="53.87594997882843" lon="10.663836998865008">
        <ele>8.310000000000001</ele>
        <time>2019-05-08T06:43:38Z</time>
      </trkpt>
      <trkpt lat="53.876910964027047" lon="10.662819016724825">
        <ele>6.39</ele>
        <time>2019-05-08T06:43:49Z</time>
      </trkpt>
      <trkpt lat="53.877445980906487" lon="10.662176040932536">
        <ele>3.98</ele>
        <time>2019-05-08T06:43:57Z</time>
      </trkpt>
      <trkpt lat="53.877487974241376" lon="10.662123989313841">
        <ele>3.98</ele>
        <time>2019-05-08T06:43:59Z</time>
      </trkpt>
      <trkpt lat="53.877554023638368" lon="10.662041008472443">
        <ele>3.98</ele>
        <time>2019-05-08T06:44:00Z</time>
      </trkpt>
      <trkpt lat="53.877575984224677" lon="10.66201301291585">
        <ele>3.98</ele>
        <time>2019-05-08T06:44:01Z</time>
      </trkpt>
      <trkpt lat="53.877594005316496" lon="10.661990968510509">
        <ele>3.98</ele>
        <time>2019-05-08T06:44:02Z</time>
      </trkpt>
      <trkpt lat="53.877594005316496" lon="10.661990968510509">
        <ele>4.46</ele>
        <time>2019-05-08T06:44:03Z</time>
      </trkpt>
      <trkpt lat="53.877608003094792" lon="10.661974037066102">
        <ele>4.46</ele>
        <time>2019-05-08T06:44:04Z</time>
      </trkpt>
      <trkpt lat="53.877623006701469" lon="10.661955010145903">
        <ele>4.46</ele>
        <time>2019-05-08T06:44:16Z</time>
      </trkpt>
      <trkpt lat="53.877653013914824" lon="10.661916034296155">
        <ele>4.46</ele>
        <time>2019-05-08T06:44:17Z</time>
      </trkpt>
      <trkpt lat="53.877700958400965" lon="10.661856019869447">
        <ele>4.46</ele>
        <time>2019-05-08T06:44:18Z</time>
      </trkpt>
      <trkpt lat="53.878306970000267" lon="10.661126961931586">
        <ele>3.98</ele>
        <time>2019-05-08T06:44:25Z</time>
      </trkpt>
      <trkpt lat="53.878992022946477" lon="10.660300003364682">
        <ele>2.06</ele>
        <time>2019-05-08T06:44:32Z</time>
      </trkpt>
      <trkpt lat="53.879378009587526" lon="10.659871017560363">
        <ele>1.58</ele>
        <time>2019-05-08T06:44:36Z</time>
      </trkpt>
      <trkpt lat="53.880640994757414" lon="10.658629992976785">
        <ele>3.5</ele>
        <time>2019-05-08T06:44:48Z</time>
      </trkpt>
      <trkpt lat="53.88175000436604" lon="10.657463986426592">
        <ele>6.39</ele>
        <time>2019-05-08T06:45:00Z</time>
      </trkpt>
      <trkpt lat="53.881903979927301" lon="10.657317973673344">
        <ele>7.83</ele>
        <time>2019-05-08T06:45:07Z</time>
      </trkpt>
      <trkpt lat="53.881903979927301" lon="10.657317973673344">
        <ele>7.83</ele>
        <time>2019-05-08T06:45:31Z</time>
      </trkpt>
      <trkpt lat="53.882162980735302" lon="10.657082023099065">
        <ele>10.710000000000001</ele>
        <time>2019-05-08T06:45:43Z</time>
      </trkpt>
      <trkpt lat="53.882901007309556" lon="10.65608398988843">
        <ele>14.08</ele>
        <time>2019-05-08T06:45:52Z</time>
      </trkpt>
      <trkpt lat="53.883958971127868" lon="10.654851011931896">
        <ele>14.56</ele>
        <time>2019-05-08T06:46:03Z</time>
      </trkpt>
      <trkpt lat="53.88497200794518" lon="10.653687017038465">
        <ele>12.15</ele>
        <time>2019-05-08T06:46:13Z</time>
      </trkpt>
      <trkpt lat="53.885658988729119" lon="10.652869027107954">
        <ele>6.87</ele>
        <time>2019-05-08T06:46:22Z</time>
      </trkpt>
      <trkpt lat="53.885705005377531" lon="10.652809012681246">
        <ele>6.39</ele>
        <time>2019-05-08T06:46:23Z</time>
      </trkpt>
      <trkpt lat="53.885739035904408" lon="10.652764001861215">
        <ele>5.42</ele>
        <time>2019-05-08T06:46:24Z</time>
      </trkpt>
      <trkpt lat="53.885764013975859" lon="10.652731982991099">
        <ele>4.94</ele>
        <time>2019-05-08T06:46:25Z</time>
      </trkpt>
      <trkpt lat="53.885783040896058" lon="10.652708010748029">
        <ele>4.46</ele>
        <time>2019-05-08T06:46:26Z</time>
      </trkpt>
      <trkpt lat="53.885783040896058" lon="10.652708010748029">
        <ele>3.98</ele>
        <time>2019-05-08T06:46:27Z</time>
      </trkpt>
      <trkpt lat="53.886001976206899" lon="10.652382038533688">
        <ele>-0.34</ele>
        <time>2019-05-08T06:46:35Z</time>
      </trkpt>
      <trkpt lat="53.886085962876678" lon="10.652165031060576">
        <ele>-2.27</ele>
        <time>2019-05-08T06:46:42Z</time>
      </trkpt>
      <trkpt lat="53.886085962876678" lon="10.652166036888957">
        <ele>-2.75</ele>
        <time>2019-05-08T06:46:43Z</time>
      </trkpt>
      <trkpt lat="53.886124016717076" lon="10.652021029964089">
        <ele>-2.75</ele>
        <time>2019-05-08T06:46:44Z</time>
      </trkpt>
      <trkpt lat="53.886232981458306" lon="10.651925979182124">
        <ele>-3.23</ele>
        <time>2019-05-08T06:46:45Z</time>
      </trkpt>
      <trkpt lat="53.886330965906382" lon="10.651975013315678">
        <ele>-3.71</ele>
        <time>2019-05-08T06:46:46Z</time>
      </trkpt>
      <trkpt lat="53.886367008090019" lon="10.651967972517014">
        <ele>-4.19</ele>
        <time>2019-05-08T06:46:47Z</time>
      </trkpt>
      <trkpt lat="53.886448983103037" lon="10.651951041072607">
        <ele>-4.19</ele>
        <time>2019-05-08T06:46:48Z</time>
      </trkpt>
      <trkpt lat="53.886547973379493" lon="10.651930002495646">
        <ele>-4.19</ele>
        <time>2019-05-08T06:46:49Z</time>
      </trkpt>
      <trkpt lat="53.886622991412878" lon="10.651861019432545">
        <ele>-4.19</ele>
        <time>2019-05-08T06:46:50Z</time>
      </trkpt>
      <trkpt lat="53.886686023324728" lon="10.651803016662598">
        <ele>-4.19</ele>
        <time>2019-05-08T06:46:51Z</time>
      </trkpt>
      <trkpt lat="53.886741008609533" lon="10.651752976700664">
        <ele>-4.67</ele>
        <time>2019-05-08T06:46:52Z</time>
      </trkpt>
      <trkpt lat="53.886936977505684" lon="10.651575028896332">
        <ele>-5.15</ele>
        <time>2019-05-08T06:46:58Z</time>
      </trkpt>
      <trkpt lat="53.886951981112361" lon="10.651562036946416">
        <ele>-5.63</ele>
        <time>2019-05-08T06:46:59Z</time>
      </trkpt>
      <trkpt lat="53.886965978890657" lon="10.651549967005849">
        <ele>-5.15</ele>
        <time>2019-05-08T06:47:00Z</time>
      </trkpt>
      <trkpt lat="53.886980982497334" lon="10.651534963399172">
        <ele>-5.15</ele>
        <time>2019-05-08T06:47:01Z</time>
      </trkpt>
      <trkpt lat="53.887005960568786" lon="10.651513002812862">
        <ele>-4.67</ele>
        <time>2019-05-08T06:47:02Z</time>
      </trkpt>
      <trkpt lat="53.887284994125366" lon="10.651243021711707">
        <ele>-1.3</ele>
        <time>2019-05-08T06:47:12Z</time>
      </trkpt>
      <trkpt lat="53.887761002406478" lon="10.65077799372375">
        <ele>0.62</ele>
        <time>2019-05-08T06:47:22Z</time>
      </trkpt>
      <trkpt lat="53.887874996289611" lon="10.650666011497378">
        <ele>1.1</ele>
        <time>2019-05-08T06:47:25Z</time>
      </trkpt>
      <trkpt lat="53.88841001316905" lon="10.65015303902328">
        <ele>3.5</ele>
        <time>2019-05-08T06:47:33Z</time>
      </trkpt>
      <trkpt lat="53.888742020353675" lon="10.649849027395248">
        <ele>5.42</ele>
        <time>2019-05-08T06:47:38Z</time>
      </trkpt>
      <trkpt lat="53.889027005061507" lon="10.649623973295093">
        <ele>8.310000000000001</ele>
        <time>2019-05-08T06:47:47Z</time>
      </trkpt>
      <trkpt lat="53.889058018103242" lon="10.649602012708783">
        <ele>8.789999999999999</ele>
        <time>2019-05-08T06:47:48Z</time>
      </trkpt>
      <trkpt lat="53.889641985297203" lon="10.649253996089101">
        <ele>11.19</ele>
        <time>2019-05-08T06:47:58Z</time>
      </trkpt>
      <trkpt lat="53.889899980276823" lon="10.649118041619658">
        <ele>11.67</ele>
        <time>2019-05-08T06:48:01Z</time>
      </trkpt>
      <trkpt lat="53.889991007745266" lon="10.649062972515821">
        <ele>11.67</ele>
        <time>2019-05-08T06:48:02Z</time>
      </trkpt>
      <trkpt lat="53.890869012102485" lon="10.6484579667449">
        <ele>13.6</ele>
        <time>2019-05-08T06:48:11Z</time>
      </trkpt>
      <trkpt lat="53.891311995685101" lon="10.648238025605679">
        <ele>14.08</ele>
        <time>2019-05-08T06:48:15Z</time>
      </trkpt>
      <trkpt lat="53.892467021942139" lon="10.64789897762239">
        <ele>17.440000000000001</ele>
        <time>2019-05-08T06:48:25Z</time>
      </trkpt>
      <trkpt lat="53.893939973786473" lon="10.647682975977659">
        <ele>20.32</ele>
        <time>2019-05-08T06:48:37Z</time>
      </trkpt>
      <trkpt lat="53.895101035013795" lon="10.647376030683517">
        <ele>25.129999999999999</ele>
        <time>2019-05-08T06:48:47Z</time>
      </trkpt>
      <trkpt lat="53.895216034725308" lon="10.647326996549964">
        <ele>25.129999999999999</ele>
        <time>2019-05-08T06:48:48Z</time>
      </trkpt>
      <trkpt lat="53.896416993811727" lon="10.646861968562007">
        <ele>23.690000000000001</ele>
        <time>2019-05-08T06:48:58Z</time>
      </trkpt>
      <trkpt lat="53.897578977048397" lon="10.646557034924626">
        <ele>22.73</ele>
        <time>2019-05-08T06:49:08Z</time>
      </trkpt>
      <trkpt lat="53.897768994793296" lon="10.646449998021126">
        <ele>21.77</ele>
        <time>2019-05-08T06:49:10Z</time>
      </trkpt>
      <trkpt lat="53.897833032533526" lon="10.646359976381063">
        <ele>21.289999999999999</ele>
        <time>2019-05-08T06:49:11Z</time>
      </trkpt>
      <trkpt lat="53.897891035303473" lon="10.646278001368046">
        <ele>21.289999999999999</ele>
        <time>2019-05-08T06:49:12Z</time>
      </trkpt>
      <trkpt lat="53.898000000044703" lon="10.646206000819802">
        <ele>21.289999999999999</ele>
        <time>2019-05-08T06:49:13Z</time>
      </trkpt>
      <trkpt lat="53.898070994764566" lon="10.646250005811453">
        <ele>20.809999999999999</ele>
        <time>2019-05-08T06:49:14Z</time>
      </trkpt>
      <trkpt lat="53.898157998919487" lon="10.646278001368046">
        <ele>20.809999999999999</ele>
        <time>2019-05-08T06:49:15Z</time>
      </trkpt>
      <trkpt lat="53.898251038044691" lon="10.646241037175059">
        <ele>21.289999999999999</ele>
        <time>2019-05-08T06:49:16Z</time>
      </trkpt>
      <trkpt lat="53.898342987522483" lon="10.646203989163041">
        <ele>21.289999999999999</ele>
        <time>2019-05-08T06:49:17Z</time>
      </trkpt>
      <trkpt lat="53.899029968306422" lon="10.645937025547028">
        <ele>22.25</ele>
        <time>2019-05-08T06:49:24Z</time>
      </trkpt>
      <trkpt lat="53.899125019088387" lon="10.645904000848532">
        <ele>22.25</ele>
        <time>2019-05-08T06:49:25Z</time>
      </trkpt>
      <trkpt lat="53.899224009364843" lon="10.645869970321655">
        <ele>22.73</ele>
        <time>2019-05-08T06:49:26Z</time>
      </trkpt>
      <trkpt lat="53.899326017126441" lon="10.645834011957049">
        <ele>22.73</ele>
        <time>2019-05-08T06:49:27Z</time>
      </trkpt>
      <trkpt lat="53.899425007402897" lon="10.645785983651876">
        <ele>22.73</ele>
        <time>2019-05-08T06:49:28Z</time>
      </trkpt>
      <trkpt lat="53.899528020992875" lon="10.645719012245536">
        <ele>22.73</ele>
        <time>2019-05-08T06:49:29Z</time>
      </trkpt>
      <trkpt lat="53.900645999237895" lon="10.644721984863281">
        <ele>20.32</ele>
        <time>2019-05-08T06:49:41Z</time>
      </trkpt>
      <trkpt lat="53.901455020532012" lon="10.64334399998188">
        <ele>20.32</ele>
        <time>2019-05-08T06:49:52Z</time>
      </trkpt>
      <trkpt lat="53.902324978262186" lon="10.642338003963232">
        <ele>19.84</ele>
        <time>2019-05-08T06:50:01Z</time>
      </trkpt>
      <trkpt lat="53.903624005615711" lon="10.641671977937222">
        <ele>16.960000000000001</ele>
        <time>2019-05-08T06:50:10Z</time>
      </trkpt>
      <trkpt lat="53.904622960835695" lon="10.641309041529894">
        <ele>14.56</ele>
        <time>2019-05-08T06:50:18Z</time>
      </trkpt>
      <trkpt lat="53.904709964990616" lon="10.641249027103186">
        <ele>14.08</ele>
        <time>2019-05-08T06:50:19Z</time>
      </trkpt>
      <trkpt lat="53.904786994680762" lon="10.641156993806362">
        <ele>13.6</ele>
        <time>2019-05-08T06:50:20Z</time>
      </trkpt>
      <trkpt lat="53.904857989400625" lon="10.641072001308203">
        <ele>13.119999999999999</ele>
        <time>2019-05-08T06:50:21Z</time>
      </trkpt>
      <trkpt lat="53.904898976907134" lon="10.641006035730243">
        <ele>13.119999999999999</ele>
        <time>2019-05-08T06:50:22Z</time>
      </trkpt>
      <trkpt lat="53.904918003827333" lon="10.64093797467649">
        <ele>12.630000000000001</ele>
        <time>2019-05-08T06:50:23Z</time>
      </trkpt>
      <trkpt lat="53.905031997710466" lon="10.640540001913905">
        <ele>10.23</ele>
        <time>2019-05-08T06:50:34Z</time>
      </trkpt>
      <trkpt lat="53.905116990208626" lon="10.640445034950972">
        <ele>10.23</ele>
        <time>2019-05-08T06:50:36Z</time>
      </trkpt>
      <trkpt lat="53.905159989371896" lon="10.640457021072507">
        <ele>9.75</ele>
        <time>2019-05-08T06:50:37Z</time>
      </trkpt>
      <trkpt lat="53.905214974656701" lon="10.640472024679184">
        <ele>9.75</ele>
        <time>2019-05-08T06:50:38Z</time>
      </trkpt>
      <trkpt lat="53.905281024053693" lon="10.640489961951971">
        <ele>9.75</ele>
        <time>2019-05-08T06:50:39Z</time>
      </trkpt>
      <trkpt lat="53.905370039865375" lon="10.640514018014073">
        <ele>9.75</ele>
        <time>2019-05-08T06:50:40Z</time>
      </trkpt>
      <trkpt lat="53.905476992949843" lon="10.640543019399047">
        <ele>10.23</ele>
        <time>2019-05-08T06:50:41Z</time>
      </trkpt>
      <trkpt lat="53.90645700506866" lon="10.640632035210729">
        <ele>9.27</ele>
        <time>2019-05-08T06:50:48Z</time>
      </trkpt>
      <trkpt lat="53.908609980717301" lon="10.640360964462161">
        <ele>10.710000000000001</ele>
        <time>2019-05-08T06:51:00Z</time>
      </trkpt>
      <trkpt lat="53.910648040473461" lon="10.640584006905556">
        <ele>11.19</ele>
        <time>2019-05-08T06:51:10Z</time>
      </trkpt>
      <trkpt lat="53.912304975092411" lon="10.640426008030772">
        <ele>13.119999999999999</ele>
        <time>2019-05-08T06:51:16Z</time>
      </trkpt>
      <trkpt lat="53.91369997523725" lon="10.639985036104918">
        <ele>13.119999999999999</ele>
        <time>2019-05-08T06:51:22Z</time>
      </trkpt>
      <trkpt lat="53.915844988077879" lon="10.639507016167045">
        <ele>14.56</ele>
        <time>2019-05-08T06:51:33Z</time>
      </trkpt>
      <trkpt lat="53.917999975383282" lon="10.639609023928642">
        <ele>18.399999999999999</ele>
        <time>2019-05-08T06:51:44Z</time>
      </trkpt>
      <trkpt lat="53.920156974345446" lon="10.639642970636487">
        <ele>20.809999999999999</ele>
        <time>2019-05-08T06:51:55Z</time>
      </trkpt>
      <trkpt lat="53.922410029917955" lon="10.639064032584429">
        <ele>24.649999999999999</ele>
        <time>2019-05-08T06:52:07Z</time>
      </trkpt>
      <trkpt lat="53.924819994717836" lon="10.637712031602859">
        <ele>29.460000000000001</ele>
        <time>2019-05-08T06:52:20Z</time>
      </trkpt>
      <trkpt lat="53.927244963124394" lon="10.636012014001608">
        <ele>34.259999999999998</ele>
        <time>2019-05-08T06:52:33Z</time>
      </trkpt>
      <trkpt lat="53.929180009290576" lon="10.634973999112844">
        <ele>36.189999999999998</ele>
        <time>2019-05-08T06:52:43Z</time>
      </trkpt>
      <trkpt lat="53.931688964366913" lon="10.634150980040431">
        <ele>40.030000000000001</ele>
        <time>2019-05-08T06:52:56Z</time>
      </trkpt>
      <trkpt lat="53.933826014399529" lon="10.633535999804735">
        <ele>43.399999999999999</ele>
        <time>2019-05-08T06:53:07Z</time>
      </trkpt>
      <trkpt lat="53.935481021180749" lon="10.632884977385402">
        <ele>45.799999999999997</ele>
        <time>2019-05-08T06:53:15Z</time>
      </trkpt>
      <trkpt lat="53.937459988519549" lon="10.631792983040214">
        <ele>46.759999999999998</ele>
        <time>2019-05-08T06:53:22Z</time>
      </trkpt>
      <trkpt lat="53.94066003151238" lon="10.629884004592896">
        <ele>45.799999999999997</ele>
        <time>2019-05-08T06:53:33Z</time>
      </trkpt>
      <trkpt lat="53.943582968786359" lon="10.628140987828374">
        <ele>43.399999999999999</ele>
        <time>2019-05-08T06:53:44Z</time>
      </trkpt>
      <trkpt lat="53.945105038583279" lon="10.627261977642775">
        <ele>38.109999999999999</ele>
        <time>2019-05-08T06:53:51Z</time>
      </trkpt>
      <trkpt lat="53.94751500338316" lon="10.626281965523958">
        <ele>29.460000000000001</ele>
        <time>2019-05-08T06:54:03Z</time>
      </trkpt>
      <trkpt lat="53.948984015733004" lon="10.625699004158378">
        <ele>28.02</ele>
        <time>2019-05-08T06:54:11Z</time>
      </trkpt>
      <trkpt lat="53.94960000179708" lon="10.624992996454239">
        <ele>27.530000000000001</ele>
        <time>2019-05-08T06:54:15Z</time>
      </trkpt>
      <trkpt lat="53.949717013165355" lon="10.624774983152747">
        <ele>27.530000000000001</ele>
        <time>2019-05-08T06:54:16Z</time>
      </trkpt>
      <trkpt lat="53.950593005865812" lon="10.62301998026669">
        <ele>24.649999999999999</ele>
        <time>2019-05-08T06:54:25Z</time>
      </trkpt>
      <trkpt lat="53.951643006876111" lon="10.621496988460422">
        <ele>21.77</ele>
        <time>2019-05-08T06:54:34Z</time>
      </trkpt>
      <trkpt lat="53.952819993719459" lon="10.620645973831415">
        <ele>21.77</ele>
        <time>2019-05-08T06:54:40Z</time>
      </trkpt>
      <trkpt lat="53.954653032124043" lon="10.620041973888874">
        <ele>22.73</ele>
        <time>2019-05-08T06:54:47Z</time>
      </trkpt>
      <trkpt lat="53.956162026152015" lon="10.619045030325651">
        <ele>26.57</ele>
        <time>2019-05-08T06:54:53Z</time>
      </trkpt>
      <trkpt lat="53.957354016602039" lon="10.61728198081255">
        <ele>30.899999999999999</ele>
        <time>2019-05-08T06:54:59Z</time>
      </trkpt>
      <trkpt lat="53.958163037896156" lon="10.614966982975602">
        <ele>34.259999999999998</ele>
        <time>2019-05-08T06:55:05Z</time>
      </trkpt>
      <trkpt lat="53.959136009216309" lon="10.612226016819477">
        <ele>37.630000000000003</ele>
        <time>2019-05-08T06:55:12Z</time>
      </trkpt>
      <trkpt lat="53.960475018247962" lon="10.609857039526105">
        <ele>40.990000000000002</ele>
        <time>2019-05-08T06:55:19Z</time>
      </trkpt>
      <trkpt lat="53.962527997791767" lon="10.606430014595389">
        <ele>39.549999999999997</ele>
        <time>2019-05-08T06:55:31Z</time>
      </trkpt>
      <trkpt lat="53.964697988703847" lon="10.603152019903064">
        <ele>41.469999999999999</ele>
        <time>2019-05-08T06:55:42Z</time>
      </trkpt>
      <trkpt lat="53.9664860162884" lon="10.601655011996627">
        <ele>40.990000000000002</ele>
        <time>2019-05-08T06:55:49Z</time>
      </trkpt>
      <trkpt lat="53.96803398616612" lon="10.600610040128231">
        <ele>38.590000000000003</ele>
        <time>2019-05-08T06:55:56Z</time>
      </trkpt>
      <trkpt lat="53.969239974394441" lon="10.598983028903604">
        <ele>38.590000000000003</ele>
        <time>2019-05-08T06:56:02Z</time>
      </trkpt>
      <trkpt lat="53.970430959016085" lon="10.596221024170518">
        <ele>40.509999999999998</ele>
        <time>2019-05-08T06:56:09Z</time>
      </trkpt>
      <trkpt lat="53.97147199138999" lon="10.594154968857765">
        <ele>44.359999999999999</ele>
        <time>2019-05-08T06:56:15Z</time>
      </trkpt>
      <trkpt lat="53.972918959334493" lon="10.592523012310266">
        <ele>48.200000000000003</ele>
        <time>2019-05-08T06:56:21Z</time>
      </trkpt>
      <trkpt lat="53.974353019148111" lon="10.59083397500217">
        <ele>52.049999999999997</ele>
        <time>2019-05-08T06:56:27Z</time>
      </trkpt>
      <trkpt lat="53.975431015715003" lon="10.588969001546502">
        <ele>52.530000000000001</ele>
        <time>2019-05-08T06:56:33Z</time>
      </trkpt>
      <trkpt lat="53.975614998489618" lon="10.588705977424979">
        <ele>52.530000000000001</ele>
        <time>2019-05-08T06:56:34Z</time>
      </trkpt>
      <trkpt lat="53.976712021976709" lon="10.587665028870106">
        <ele>53.969999999999999</ele>
        <time>2019-05-08T06:56:39Z</time>
      </trkpt>
      <trkpt lat="53.976955013349652" lon="10.5875030066818">
        <ele>53.969999999999999</ele>
        <time>2019-05-08T06:56:40Z</time>
      </trkpt>
      <trkpt lat="53.97720898501575" lon="10.587393036112189">
        <ele>53.969999999999999</ele>
        <time>2019-05-08T06:56:41Z</time>
      </trkpt>
      <trkpt lat="53.97746697999537" lon="10.587307037785649">
        <ele>54.450000000000003</ele>
        <time>2019-05-08T06:56:42Z</time>
      </trkpt>
      <trkpt lat="53.977730004116893" lon="10.587293962016702">
        <ele>54.450000000000003</ele>
        <time>2019-05-08T06:56:43Z</time>
      </trkpt>
      <trkpt lat="53.977995039895177" lon="10.587285999208689">
        <ele>54.93</ele>
        <time>2019-05-08T06:56:44Z</time>
      </trkpt>
      <trkpt lat="53.97826200351119" lon="10.587290022522211">
        <ele>54.93</ele>
        <time>2019-05-08T06:56:45Z</time>
      </trkpt>
      <trkpt lat="53.979795975610614" lon="10.587298991158605">
        <ele>57.82</ele>
        <time>2019-05-08T06:56:51Z</time>
      </trkpt>
      <trkpt lat="53.981208996847272" lon="10.586478989571333">
        <ele>62.140000000000001</ele>
        <time>2019-05-08T06:56:58Z</time>
      </trkpt>
      <trkpt lat="53.982307026162744" lon="10.58490302413702">
        <ele>65.030000000000001</ele>
        <time>2019-05-08T06:57:05Z</time>
      </trkpt>
      <trkpt lat="53.983660032972693" lon="10.582170020788908">
        <ele>66.469999999999999</ele>
        <time>2019-05-08T06:57:14Z</time>
      </trkpt>
      <trkpt lat="53.985083028674126" lon="10.57985401712358">
        <ele>66.469999999999999</ele>
        <time>2019-05-08T06:57:23Z</time>
      </trkpt>
      <trkpt lat="53.985278997570276" lon="10.579710016027093">
        <ele>66.469999999999999</ele>
        <time>2019-05-08T06:57:24Z</time>
      </trkpt>
      <trkpt lat="53.985475972294807" lon="10.579585041850805">
        <ele>66.469999999999999</ele>
        <time>2019-05-08T06:57:25Z</time>
      </trkpt>
      <trkpt lat="53.98567596450448" lon="10.579482028260827">
        <ele>65.989999999999995</ele>
        <time>2019-05-08T06:57:26Z</time>
      </trkpt>
      <trkpt lat="53.985884003341198" lon="10.579435005784035">
        <ele>65.989999999999995</ele>
        <time>2019-05-08T06:57:27Z</time>
      </trkpt>
      <trkpt lat="53.986092964187264" lon="10.579386977478862">
        <ele>65.510000000000005</ele>
        <time>2019-05-08T06:57:28Z</time>
      </trkpt>
      <trkpt lat="53.986304020509124" lon="10.579410027712584">
        <ele>65.030000000000001</ele>
        <time>2019-05-08T06:57:29Z</time>
      </trkpt>
      <trkpt lat="53.986513987183571" lon="10.579439029097557">
        <ele>65.030000000000001</ele>
        <time>2019-05-08T06:57:30Z</time>
      </trkpt>
      <trkpt lat="53.986723031848669" lon="10.579468030482531">
        <ele>64.549999999999997</ele>
        <time>2019-05-08T06:57:31Z</time>
      </trkpt>
      <trkpt lat="53.988323975354433" lon="10.579452021047473">
        <ele>62.140000000000001</ele>
        <time>2019-05-08T06:57:39Z</time>
      </trkpt>
      <trkpt lat="53.988511981442571" lon="10.579372979700565">
        <ele>61.659999999999997</ele>
        <time>2019-05-08T06:57:40Z</time>
      </trkpt>
      <trkpt lat="53.988690013065934" lon="10.579250017181039">
        <ele>61.18</ele>
        <time>2019-05-08T06:57:41Z</time>
      </trkpt>
      <trkpt lat="53.988863015547395" lon="10.579081960022449">
        <ele>61.18</ele>
        <time>2019-05-08T06:57:42Z</time>
      </trkpt>
      <trkpt lat="53.989374982193112" lon="10.578581979498267">
        <ele>61.659999999999997</ele>
        <time>2019-05-08T06:57:45Z</time>
      </trkpt>
      <trkpt lat="53.989544967189431" lon="10.578448036685586">
        <ele>62.140000000000001</ele>
        <time>2019-05-08T06:57:46Z</time>
      </trkpt>
      <trkpt lat="53.989744037389755" lon="10.57839103974402">
        <ele>62.140000000000001</ele>
        <time>2019-05-08T06:57:47Z</time>
      </trkpt>
      <trkpt lat="53.989956015720963" lon="10.578330019488931">
        <ele>62.140000000000001</ele>
        <time>2019-05-08T06:57:48Z</time>
      </trkpt>
      <trkpt lat="53.990177968516946" lon="10.578266987577081">
        <ele>62.619999999999997</ele>
        <time>2019-05-08T06:57:49Z</time>
      </trkpt>
      <trkpt lat="53.992094993591309" lon="10.577796008437872">
        <ele>61.659999999999997</ele>
        <time>2019-05-08T06:57:58Z</time>
      </trkpt>
      <trkpt lat="53.993307016789913" lon="10.577740017324686">
        <ele>60.219999999999999</ele>
        <time>2019-05-08T06:58:04Z</time>
      </trkpt>
      <trkpt lat="53.995422022417188" lon="10.578303029760718">
        <ele>57.82</ele>
        <time>2019-05-08T06:58:13Z</time>
      </trkpt>
      <trkpt lat="53.996863961219788" lon="10.578206973150373">
        <ele>55.409999999999997</ele>
        <time>2019-05-08T06:58:19Z</time>
      </trkpt>
      <trkpt lat="53.998025022447109" lon="10.577772036194801">
        <ele>53.009999999999998</ele>
        <time>2019-05-08T06:58:24Z</time>
      </trkpt>
      <trkpt lat="53.998250998556614" lon="10.577715039253235">
        <ele>52.530000000000001</ele>
        <time>2019-05-08T06:58:25Z</time>
      </trkpt>
      <trkpt lat="53.998474041000009" lon="10.577733982354403">
        <ele>52.530000000000001</ele>
        <time>2019-05-08T06:58:26Z</time>
      </trkpt>
      <trkpt lat="53.998679984360933" lon="10.577752003446221">
        <ele>52.530000000000001</ele>
        <time>2019-05-08T06:58:27Z</time>
      </trkpt>
      <trkpt lat="53.998867990449071" lon="10.577768012881279">
        <ele>53.009999999999998</ele>
        <time>2019-05-08T06:58:28Z</time>
      </trkpt>
      <trkpt lat="53.999198991805315" lon="10.577809000387788">
        <ele>53.969999999999999</ele>
        <time>2019-05-08T06:58:30Z</time>
      </trkpt>
      <trkpt lat="53.999350033700466" lon="10.577811012044549">
        <ele>54.93</ele>
        <time>2019-05-08T06:58:31Z</time>
      </trkpt>
      <trkpt lat="53.999604005366564" lon="10.577796008437872">
        <ele>56.369999999999997</ele>
        <time>2019-05-08T06:58:33Z</time>
      </trkpt>
      <trkpt lat="53.999720010906458" lon="10.577789973467588">
        <ele>57.340000000000003</ele>
        <time>2019-05-08T06:58:34Z</time>
      </trkpt>
      <trkpt lat="53.999992003664374" lon="10.577773964032531">
        <ele>59.259999999999998</ele>
        <time>2019-05-08T06:58:37Z</time>
      </trkpt>
      <trkpt lat="54.000038020312786" lon="10.577767007052898">
        <ele>59.740000000000002</ele>
        <time>2019-05-08T06:58:38Z</time>
      </trkpt>
      <trkpt lat="54.000095017254353" lon="10.577857028692961">
        <ele>60.219999999999999</ele>
        <time>2019-05-08T06:58:39Z</time>
      </trkpt>
      <trkpt lat="54.000076996162534" lon="10.577927017584443">
        <ele>60.700000000000003</ele>
        <time>2019-05-08T06:58:40Z</time>
      </trkpt>
      <trkpt lat="54.00004799477756" lon="10.578043023124337">
        <ele>61.18</ele>
        <time>2019-05-08T06:58:41Z</time>
      </trkpt>
      <trkpt lat="54.000011030584574" lon="10.578191969543695">
        <ele>61.659999999999997</ele>
        <time>2019-05-08T06:58:42Z</time>
      </trkpt>
      <trkpt lat="53.999970965087414" lon="10.578357009217143">
        <ele>61.659999999999997</ele>
        <time>2019-05-08T06:58:43Z</time>
      </trkpt>
      <trkpt lat="53.9997230283916" lon="10.579417990520597">
        <ele>61.659999999999997</ele>
        <time>2019-05-08T06:58:49Z</time>
      </trkpt>
      <trkpt lat="53.999682040885091" lon="10.579590993002057">
        <ele>61.18</ele>
        <time>2019-05-08T06:58:50Z</time>
      </trkpt>
      <trkpt lat="53.99963803589344" lon="10.579780004918575">
        <ele>61.18</ele>
        <time>2019-05-08T06:58:51Z</time>
      </trkpt>
      <trkpt lat="53.999592019245028" lon="10.579977985471487">
        <ele>61.18</ele>
        <time>2019-05-08T06:58:52Z</time>
      </trkpt>
      <trkpt lat="53.999544996768236" lon="10.58017797768116">
        <ele>61.18</ele>
        <time>2019-05-08T06:58:53Z</time>
      </trkpt>
      <trkpt lat="53.999218018725514" lon="10.581469964236021">
        <ele>60.700000000000003</ele>
        <time>2019-05-08T06:58:59Z</time>
      </trkpt>
      <trkpt lat="53.998867990449071" lon="10.582721969112754">
        <ele>59.259999999999998</ele>
        <time>2019-05-08T06:59:04Z</time>
      </trkpt>
      <trkpt lat="53.998762965202332" lon="10.582955991849303">
        <ele>59.259999999999998</ele>
        <time>2019-05-08T06:59:05Z</time>
      </trkpt>
      <trkpt lat="53.99865198880434" lon="10.583195965737104">
        <ele>59.259999999999998</ele>
        <time>2019-05-08T06:59:06Z</time>
      </trkpt>
      <trkpt lat="53.998204981908202" lon="10.583897028118372">
        <ele>59.259999999999998</ele>
        <time>2019-05-08T06:59:09Z</time>
      </trkpt>
      <trkpt lat="53.998053018003702" lon="10.584135996177793">
        <ele>59.259999999999998</ele>
        <time>2019-05-08T06:59:10Z</time>
      </trkpt>
      <trkpt lat="53.99789703078568" lon="10.584378987550735">
        <ele>58.780000000000001</ele>
        <time>2019-05-08T06:59:11Z</time>
      </trkpt>
      <trkpt lat="53.996628010645509" lon="10.585939027369022">
        <ele>55.409999999999997</ele>
        <time>2019-05-08T06:59:18Z</time>
      </trkpt>
      <trkpt lat="53.996459031477571" lon="10.586159974336624">
        <ele>54.93</ele>
        <time>2019-05-08T06:59:19Z</time>
      </trkpt>
      <trkpt lat="53.995654033496976" lon="10.587118025869131">
        <ele>52.530000000000001</ele>
        <time>2019-05-08T06:59:24Z</time>
      </trkpt>
      <trkpt lat="53.995524030178785" lon="10.587291028350592">
        <ele>52.049999999999997</ele>
        <time>2019-05-08T06:59:25Z</time>
      </trkpt>
      <trkpt lat="53.995424034073949" lon="10.587499989196658">
        <ele>51.090000000000003</ele>
        <time>2019-05-08T06:59:26Z</time>
      </trkpt>
      <trkpt lat="53.995329989120364" lon="10.587696963921189">
        <ele>50.130000000000003</ele>
        <time>2019-05-08T06:59:27Z</time>
      </trkpt>
      <trkpt lat="53.995263017714024" lon="10.587908020243049">
        <ele>49.159999999999997</ele>
        <time>2019-05-08T06:59:28Z</time>
      </trkpt>
      <trkpt lat="53.995215995237231" lon="10.588117986917496">
        <ele>48.68</ele>
        <time>2019-05-08T06:59:29Z</time>
      </trkpt>
      <trkpt lat="53.995176013559103" lon="10.588322002440691">
        <ele>47.719999999999999</ele>
        <time>2019-05-08T06:59:30Z</time>
      </trkpt>
      <trkpt lat="53.995137037709355" lon="10.588527023792267">
        <ele>47.240000000000002</ele>
        <time>2019-05-08T06:59:31Z</time>
      </trkpt>
      <trkpt lat="53.99506201967597" lon="10.588720981031656">
        <ele>46.280000000000001</ele>
        <time>2019-05-08T06:59:32Z</time>
      </trkpt>
      <trkpt lat="53.994971998035908" lon="10.588888032361865">
        <ele>45.32</ele>
        <time>2019-05-08T06:59:33Z</time>
      </trkpt>
      <trkpt lat="53.994831014424562" lon="10.589003032073379">
        <ele>44.840000000000003</ele>
        <time>2019-05-08T06:59:34Z</time>
      </trkpt>
      <trkpt lat="53.994678966701031" lon="10.589122977107763">
        <ele>43.880000000000003</ele>
        <time>2019-05-08T06:59:35Z</time>
      </trkpt>
      <trkpt lat="53.994499007239938" lon="10.589253986254334">
        <ele>42.920000000000002</ele>
        <time>2019-05-08T06:59:36Z</time>
      </trkpt>
      <trkpt lat="53.994362968951464" lon="10.589379966259003">
        <ele>41.950000000000003</ele>
        <time>2019-05-08T06:59:37Z</time>
      </trkpt>
      <trkpt lat="53.994216034188867" lon="10.589520027860999">
        <ele>40.990000000000002</ele>
        <time>2019-05-08T06:59:38Z</time>
      </trkpt>
      <trkpt lat="53.99411897175014" lon="10.589726977050304">
        <ele>40.509999999999998</ele>
        <time>2019-05-08T06:59:39Z</time>
      </trkpt>
      <trkpt lat="53.994034985080361" lon="10.589936021715403">
        <ele>40.030000000000001</ele>
        <time>2019-05-08T06:59:40Z</time>
      </trkpt>
      <trkpt lat="53.993983017280698" lon="10.590170966461301">
        <ele>40.030000000000001</ele>
        <time>2019-05-08T06:59:41Z</time>
      </trkpt>
      <trkpt lat="53.993930965662003" lon="10.590402977541089">
        <ele>40.030000000000001</ele>
        <time>2019-05-08T06:59:42Z</time>
      </trkpt>
      <trkpt lat="53.993919985368848" lon="10.5906390119344">
        <ele>40.030000000000001</ele>
        <time>2019-05-08T06:59:43Z</time>
      </trkpt>
      <trkpt lat="53.993919985368848" lon="10.590888960286975">
        <ele>40.030000000000001</ele>
        <time>2019-05-08T06:59:44Z</time>
      </trkpt>
      <trkpt lat="53.993932977318764" lon="10.591147039085627">
        <ele>40.030000000000001</ele>
        <time>2019-05-08T06:59:45Z</time>
      </trkpt>
      <trkpt lat="53.994001038372517" lon="10.591383995488286">
        <ele>40.030000000000001</ele>
        <time>2019-05-08T06:59:46Z</time>
      </trkpt>
      <trkpt lat="53.99407597258687" lon="10.591646013781428">
        <ele>39.549999999999997</ele>
        <time>2019-05-08T06:59:47Z</time>
      </trkpt>
      <trkpt lat="53.9941590372473" lon="10.591936027631164">
        <ele>39.549999999999997</ele>
        <time>2019-05-08T06:59:48Z</time>
      </trkpt>
      <trkpt lat="53.994418038055301" lon="10.592844039201736">
        <ele>39.549999999999997</ele>
        <time>2019-05-08T06:59:51Z</time>
      </trkpt>
      <trkpt lat="53.994490038603544" lon="10.593117959797382">
        <ele>39.549999999999997</ele>
        <time>2019-05-08T06:59:52Z</time>
      </trkpt>
      <trkpt lat="53.994542006403208" lon="10.593397999182343">
        <ele>39.07</ele>
        <time>2019-05-08T06:59:53Z</time>
      </trkpt>
      <trkpt lat="53.994533037766814" lon="10.593680972233415">
        <ele>39.549999999999997</ele>
        <time>2019-05-08T06:59:54Z</time>
      </trkpt>
      <trkpt lat="53.994523985311389" lon="10.593985989689827">
        <ele>39.549999999999997</ele>
        <time>2019-05-08T06:59:55Z</time>
      </trkpt>
      <trkpt lat="53.994514010846615" lon="10.59431598521769">
        <ele>40.030000000000001</ele>
        <time>2019-05-08T06:59:56Z</time>
      </trkpt>
      <trkpt lat="53.9944629650563" lon="10.596037041395903">
        <ele>42.439999999999998</ele>
        <time>2019-05-08T07:00:01Z</time>
      </trkpt>
      <trkpt lat="53.994453996419907" lon="10.597197012975812">
        <ele>45.32</ele>
        <time>2019-05-08T07:00:05Z</time>
      </trkpt>
      <trkpt lat="53.994476962834597" lon="10.597420977428555">
        <ele>45.799999999999997</ele>
        <time>2019-05-08T07:00:06Z</time>
      </trkpt>
      <trkpt lat="53.994547035545111" lon="10.597604038193822">
        <ele>45.799999999999997</ele>
        <time>2019-05-08T07:00:07Z</time>
      </trkpt>
      <trkpt lat="53.994626998901367" lon="10.597781985998154">
        <ele>45.799999999999997</ele>
        <time>2019-05-08T07:00:08Z</time>
      </trkpt>
      <trkpt lat="53.994735041633248" lon="10.597940990701318">
        <ele>46.280000000000001</ele>
        <time>2019-05-08T07:00:09Z</time>
      </trkpt>
      <trkpt lat="53.994848029688001" lon="10.598107036203146">
        <ele>46.280000000000001</ele>
        <time>2019-05-08T07:00:10Z</time>
      </trkpt>
      <trkpt lat="53.994965041056275" lon="10.598279032856226">
        <ele>45.799999999999997</ele>
        <time>2019-05-08T07:00:11Z</time>
      </trkpt>
      <trkpt lat="53.995066964998841" lon="10.598508026450872">
        <ele>45.799999999999997</ele>
        <time>2019-05-08T07:00:12Z</time>
      </trkpt>
      <trkpt lat="53.995157992467284" lon="10.598775995895267">
        <ele>45.32</ele>
        <time>2019-05-08T07:00:13Z</time>
      </trkpt>
      <trkpt lat="53.995235022157431" lon="10.59908302500844">
        <ele>44.840000000000003</ele>
        <time>2019-05-08T07:00:14Z</time>
      </trkpt>
      <trkpt lat="53.99568697437644" lon="10.601003989577293">
        <ele>45.799999999999997</ele>
        <time>2019-05-08T07:00:20Z</time>
      </trkpt>
      <trkpt lat="53.995731985196471" lon="10.601301966235042">
        <ele>46.280000000000001</ele>
        <time>2019-05-08T07:00:21Z</time>
      </trkpt>
      <trkpt lat="53.995817983523011" lon="10.601867996156216">
        <ele>46.759999999999998</ele>
        <time>2019-05-08T07:00:23Z</time>
      </trkpt>
      <trkpt lat="53.995874980464578" lon="10.602172007784247">
        <ele>46.759999999999998</ele>
        <time>2019-05-08T07:00:24Z</time>
      </trkpt>
      <trkpt lat="53.996527008712292" lon="10.604426991194487">
        <ele>45.799999999999997</ele>
        <time>2019-05-08T07:00:31Z</time>
      </trkpt>
      <trkpt lat="53.997140983119607" lon="10.606251982972026">
        <ele>41.469999999999999</ele>
        <time>2019-05-08T07:00:37Z</time>
      </trkpt>
      <trkpt lat="53.997344998642802" lon="10.606913985684514">
        <ele>40.990000000000002</ele>
        <time>2019-05-08T07:00:39Z</time>
      </trkpt>
      <trkpt lat="53.99751397781074" lon="10.607510022819042">
        <ele>40.990000000000002</ele>
        <time>2019-05-08T07:00:41Z</time>
      </trkpt>
      <trkpt lat="53.997609028592706" lon="10.607754020020366">
        <ele>40.990000000000002</ele>
        <time>2019-05-08T07:00:42Z</time>
      </trkpt>
      <trkpt lat="53.997714975848794" lon="10.607975972816348">
        <ele>40.990000000000002</ele>
        <time>2019-05-08T07:00:43Z</time>
      </trkpt>
      <trkpt lat="53.997837016358972" lon="10.608183005824685">
        <ele>40.509999999999998</ele>
        <time>2019-05-08T07:00:44Z</time>
      </trkpt>
      <trkpt lat="53.997974982485175" lon="10.608381992205977">
        <ele>40.509999999999998</ele>
        <time>2019-05-08T07:00:45Z</time>
      </trkpt>
      <trkpt lat="53.998102974146605" lon="10.608566980808973">
        <ele>40.509999999999998</ele>
        <time>2019-05-08T07:00:46Z</time>
      </trkpt>
      <trkpt lat="53.998197019100189" lon="10.608764039352536">
        <ele>40.509999999999998</ele>
        <time>2019-05-08T07:00:47Z</time>
      </trkpt>
      <trkpt lat="53.998274970799685" lon="10.608974006026983">
        <ele>40.030000000000001</ele>
        <time>2019-05-08T07:00:48Z</time>
      </trkpt>
      <trkpt lat="53.998290980234742" lon="10.609195036813617">
        <ele>40.030000000000001</ele>
        <time>2019-05-08T07:00:49Z</time>
      </trkpt>
      <trkpt lat="53.998305983841419" lon="10.60941799543798">
        <ele>40.030000000000001</ele>
        <time>2019-05-08T07:00:50Z</time>
      </trkpt>
      <trkpt lat="53.998321993276477" lon="10.609640032052994">
        <ele>39.549999999999997</ele>
        <time>2019-05-08T07:00:51Z</time>
      </trkpt>
      <trkpt lat="53.998321993276477" lon="10.609640032052994">
        <ele>39.549999999999997</ele>
        <time>2019-05-08T07:00:52Z</time>
      </trkpt>
      <trkpt lat="53.998399022966623" lon="10.610097013413906">
        <ele>39.549999999999997</ele>
        <time>2019-05-08T07:00:53Z</time>
      </trkpt>
      <trkpt lat="53.998474041000009" lon="10.610351990908384">
        <ele>39.07</ele>
        <time>2019-05-08T07:00:54Z</time>
      </trkpt>
      <trkpt lat="53.998552998527884" lon="10.610620966181159">
        <ele>38.590000000000003</ele>
        <time>2019-05-08T07:00:55Z</time>
      </trkpt>
      <trkpt lat="53.998632039874792" lon="10.610891031101346">
        <ele>38.109999999999999</ele>
        <time>2019-05-08T07:00:56Z</time>
      </trkpt>
      <trkpt lat="53.998661963269114" lon="10.61118096113205">
        <ele>38.109999999999999</ele>
        <time>2019-05-08T07:00:57Z</time>
      </trkpt>
      <trkpt lat="53.998661963269114" lon="10.61148002743721">
        <ele>37.630000000000003</ele>
        <time>2019-05-08T07:00:58Z</time>
      </trkpt>
      <trkpt lat="53.998640002682805" lon="10.611788984388113">
        <ele>37.630000000000003</ele>
        <time>2019-05-08T07:00:59Z</time>
      </trkpt>
      <trkpt lat="53.998602032661438" lon="10.612102970480919">
        <ele>37.630000000000003</ele>
        <time>2019-05-08T07:01:00Z</time>
      </trkpt>
      <trkpt lat="53.998186038807034" lon="10.615505017340183">
        <ele>36.189999999999998</ele>
        <time>2019-05-08T07:01:10Z</time>
      </trkpt>
      <trkpt lat="53.997987974435091" lon="10.617441991344094">
        <ele>31.379999999999999</ele>
        <time>2019-05-08T07:01:17Z</time>
      </trkpt>
      <trkpt lat="53.997937012463808" lon="10.618718974292278">
        <ele>28.98</ele>
        <time>2019-05-08T07:01:21Z</time>
      </trkpt>
      <trkpt lat="53.997905999422073" lon="10.619046036154032">
        <ele>28.98</ele>
        <time>2019-05-08T07:01:22Z</time>
      </trkpt>
      <trkpt lat="53.997864006087184" lon="10.619375025853515">
        <ele>28.98</ele>
        <time>2019-05-08T07:01:23Z</time>
      </trkpt>
      <trkpt lat="53.997753029689193" lon="10.620240960270166">
        <ele>30.420000000000002</ele>
        <time>2019-05-08T07:01:26Z</time>
      </trkpt>
      <trkpt lat="53.997724028304219" lon="10.620472971349955">
        <ele>30.899999999999999</ele>
        <time>2019-05-08T07:01:27Z</time>
      </trkpt>
      <trkpt lat="53.997696032747626" lon="10.620689978823066">
        <ele>31.379999999999999</ele>
        <time>2019-05-08T07:01:28Z</time>
      </trkpt>
      <trkpt lat="53.997731991112232" lon="10.620871027931571">
        <ele>31.859999999999999</ele>
        <time>2019-05-08T07:01:29Z</time>
      </trkpt>
      <trkpt lat="53.997778007760644" lon="10.621061967685819">
        <ele>32.340000000000003</ele>
        <time>2019-05-08T07:01:30Z</time>
      </trkpt>
      <trkpt lat="53.997845984995365" lon="10.621260032057762">
        <ele>32.340000000000003</ele>
        <time>2019-05-08T07:01:31Z</time>
      </trkpt>
      <trkpt lat="53.997922008857131" lon="10.621480979025364">
        <ele>32.82</ele>
        <time>2019-05-08T07:01:32Z</time>
      </trkpt>
      <trkpt lat="53.998166006058455" lon="10.622187992557883">
        <ele>33.780000000000001</ele>
        <time>2019-05-08T07:01:35Z</time>
      </trkpt>
      <trkpt lat="53.998218979686499" lon="10.622410029172897">
        <ele>33.299999999999997</ele>
        <time>2019-05-08T07:01:36Z</time>
      </trkpt>
      <trkpt lat="53.998228032141924" lon="10.622641034424305">
        <ele>33.780000000000001</ele>
        <time>2019-05-08T07:01:37Z</time>
      </trkpt>
      <trkpt lat="53.998215962201357" lon="10.622885031625628">
        <ele>33.780000000000001</ele>
        <time>2019-05-08T07:01:38Z</time>
      </trkpt>
      <trkpt lat="53.99820196442306" lon="10.6231489777565">
        <ele>34.259999999999998</ele>
        <time>2019-05-08T07:01:39Z</time>
      </trkpt>
      <trkpt lat="53.998186960816383" lon="10.623439997434616">
        <ele>34.259999999999998</ele>
        <time>2019-05-08T07:01:40Z</time>
      </trkpt>
      <trkpt lat="53.998098028823733" lon="10.624359995126724">
        <ele>34.259999999999998</ele>
        <time>2019-05-08T07:01:43Z</time>
      </trkpt>
      <trkpt lat="53.997803991660476" lon="10.625527007505298">
        <ele>34.259999999999998</ele>
        <time>2019-05-08T07:01:49Z</time>
      </trkpt>
      <trkpt lat="53.997761998325586" lon="10.62566002830863">
        <ele>33.780000000000001</ele>
        <time>2019-05-08T07:01:50Z</time>
      </trkpt>
      <trkpt lat="53.997688991948962" lon="10.625896984711289">
        <ele>32.340000000000003</ele>
        <time>2019-05-08T07:01:52Z</time>
      </trkpt>
      <trkpt lat="53.997653033584356" lon="10.626010978594422">
        <ele>31.859999999999999</ele>
        <time>2019-05-08T07:01:53Z</time>
      </trkpt>
      <trkpt lat="53.997638029977679" lon="10.626127989962697">
        <ele>30.899999999999999</ele>
        <time>2019-05-08T07:01:54Z</time>
      </trkpt>
      <trkpt lat="53.997610034421086" lon="10.626333011314273">
        <ele>30.420000000000002</ele>
        <time>2019-05-08T07:01:55Z</time>
      </trkpt>
      <trkpt lat="53.997615985572338" lon="10.626396965235472">
        <ele>29.460000000000001</ele>
        <time>2019-05-08T07:01:56Z</time>
      </trkpt>
      <trkpt lat="53.997628977522254" lon="10.626535015180707">
        <ele>28.98</ele>
        <time>2019-05-08T07:01:57Z</time>
      </trkpt>
      <trkpt lat="53.997659990563989" lon="10.626630987972021">
        <ele>28.5</ele>
        <time>2019-05-08T07:01:58Z</time>
      </trkpt>
      <trkpt lat="53.997693015262485" lon="10.626700976863503">
        <ele>28.02</ele>
        <time>2019-05-08T07:01:59Z</time>
      </trkpt>
      <trkpt lat="53.997731991112232" lon="10.626786975190043">
        <ele>27.050000000000001</ele>
        <time>2019-05-08T07:02:00Z</time>
      </trkpt>
      <trkpt lat="53.998039020225406" lon="10.62755299732089">
        <ele>25.609999999999999</ele>
        <time>2019-05-08T07:02:05Z</time>
      </trkpt>
      <trkpt lat="53.998108003288507" lon="10.627750977873802">
        <ele>25.609999999999999</ele>
        <time>2019-05-08T07:02:06Z</time>
      </trkpt>
      <trkpt lat="53.998168017715216" lon="10.627944013103843">
        <ele>25.609999999999999</ele>
        <time>2019-05-08T07:02:07Z</time>
      </trkpt>
      <trkpt lat="53.998168017715216" lon="10.628163032233715">
        <ele>26.09</ele>
        <time>2019-05-08T07:02:08Z</time>
      </trkpt>
      <trkpt lat="53.998168017715216" lon="10.628382973372936">
        <ele>26.09</ele>
        <time>2019-05-08T07:02:09Z</time>
      </trkpt>
      <trkpt lat="53.998123006895185" lon="10.628622025251389">
        <ele>26.09</ele>
        <time>2019-05-08T07:02:10Z</time>
      </trkpt>
      <trkpt lat="53.998045977205038" lon="10.628832997754216">
        <ele>26.09</ele>
        <time>2019-05-08T07:02:11Z</time>
      </trkpt>
      <trkpt lat="53.997942041605711" lon="10.629043970257044">
        <ele>26.09</ele>
        <time>2019-05-08T07:02:12Z</time>
      </trkpt>
      <trkpt lat="53.997827041894197" lon="10.629249997437">
        <ele>25.609999999999999</ele>
        <time>2019-05-08T07:02:13Z</time>
      </trkpt>
      <trkpt lat="53.9977060072124" lon="10.629467004910111">
        <ele>25.609999999999999</ele>
        <time>2019-05-08T07:02:14Z</time>
      </trkpt>
      <trkpt lat="53.997569968923926" lon="10.62967898324132">
        <ele>25.609999999999999</ele>
        <time>2019-05-08T07:02:15Z</time>
      </trkpt>
      <trkpt lat="53.997416999191046" lon="10.629837987944484">
        <ele>25.609999999999999</ele>
        <time>2019-05-08T07:02:16Z</time>
      </trkpt>
      <trkpt lat="53.997265035286546" lon="10.629993975162506">
        <ele>25.609999999999999</ele>
        <time>2019-05-08T07:02:17Z</time>
      </trkpt>
      <trkpt lat="53.997008968144655" lon="10.630260016769171">
        <ele>26.09</ele>
        <time>2019-05-08T07:02:19Z</time>
      </trkpt>
      <trkpt lat="53.996926993131638" lon="10.630437964573503">
        <ele>26.57</ele>
        <time>2019-05-08T07:02:20Z</time>
      </trkpt>
      <trkpt lat="53.996881982311606" lon="10.630566962063313">
        <ele>26.57</ele>
        <time>2019-05-08T07:02:21Z</time>
      </trkpt>
      <trkpt lat="53.996889023110271" lon="10.630756979808211">
        <ele>27.050000000000001</ele>
        <time>2019-05-08T07:02:22Z</time>
      </trkpt>
      <trkpt lat="53.996896985918283" lon="10.630982033908367">
        <ele>27.530000000000001</ele>
        <time>2019-05-08T07:02:23Z</time>
      </trkpt>
      <trkpt lat="53.996964041143656" lon="10.632809959352016">
        <ele>29.460000000000001</ele>
        <time>2019-05-08T07:02:29Z</time>
      </trkpt>
      <trkpt lat="53.997224969789386" lon="10.63554598018527">
        <ele>32.340000000000003</ele>
        <time>2019-05-08T07:02:37Z</time>
      </trkpt>
      <trkpt lat="53.997285990044475" lon="10.636194990947843">
        <ele>31.859999999999999</ele>
        <time>2019-05-08T07:02:39Z</time>
      </trkpt>
      <trkpt lat="53.997281966730952" lon="10.636526998132467">
        <ele>31.379999999999999</ele>
        <time>2019-05-08T07:02:40Z</time>
      </trkpt>
      <trkpt lat="53.997278027236462" lon="10.636877026408911">
        <ele>30.899999999999999</ele>
        <time>2019-05-08T07:02:41Z</time>
      </trkpt>
      <trkpt lat="53.997327983379364" lon="10.63928397372365">
        <ele>27.530000000000001</ele>
        <time>2019-05-08T07:02:47Z</time>
      </trkpt>
      <trkpt lat="53.99740501306951" lon="10.641078036278486">
        <ele>30.420000000000002</ele>
        <time>2019-05-08T07:02:52Z</time>
      </trkpt>
      <trkpt lat="53.997411970049143" lon="10.641390010714531">
        <ele>30.899999999999999</ele>
        <time>2019-05-08T07:02:53Z</time>
      </trkpt>
      <trkpt lat="53.997411970049143" lon="10.641390010714531">
        <ele>31.379999999999999</ele>
        <time>2019-05-08T07:02:54Z</time>
      </trkpt>
      <trkpt lat="53.997367965057492" lon="10.641711037606001">
        <ele>31.859999999999999</ele>
        <time>2019-05-08T07:02:55Z</time>
      </trkpt>
      <trkpt lat="53.997243996709585" lon="10.642344960942864">
        <ele>32.340000000000003</ele>
        <time>2019-05-08T07:02:56Z</time>
      </trkpt>
      <trkpt lat="53.997170990332961" lon="10.642651990056038">
        <ele>32.82</ele>
        <time>2019-05-08T07:02:57Z</time>
      </trkpt>
      <trkpt lat="53.997041992843151" lon="10.643264958634973">
        <ele>33.780000000000001</ele>
        <time>2019-05-08T07:02:59Z</time>
      </trkpt>
      <trkpt lat="53.997010979801416" lon="10.64357902854681">
        <ele>34.259999999999998</ele>
        <time>2019-05-08T07:03:00Z</time>
      </trkpt>
      <trkpt lat="53.996662963181734" lon="10.64579201862216">
        <ele>34.740000000000002</ele>
        <time>2019-05-08T07:03:07Z</time>
      </trkpt>
      <trkpt lat="53.996629016473889" lon="10.646066023036838">
        <ele>34.740000000000002</ele>
        <time>2019-05-08T07:03:08Z</time>
      </trkpt>
      <trkpt lat="53.996602026745677" lon="10.646396018564701">
        <ele>34.740000000000002</ele>
        <time>2019-05-08T07:03:09Z</time>
      </trkpt>
      <trkpt lat="53.996623987331986" lon="10.646676979959011">
        <ele>34.740000000000002</ele>
        <time>2019-05-08T07:03:10Z</time>
      </trkpt>
      <trkpt lat="53.996677966788411" lon="10.64733998849988">
        <ele>34.740000000000002</ele>
        <time>2019-05-08T07:03:12Z</time>
      </trkpt>
      <trkpt lat="53.996708979830146" lon="10.647725975140929">
        <ele>35.229999999999997</ele>
        <time>2019-05-08T07:03:13Z</time>
      </trkpt>
      <trkpt lat="53.996676960960031" lon="10.651208991184831">
        <ele>35.229999999999997</ele>
        <time>2019-05-08T07:03:22Z</time>
      </trkpt>
      <trkpt lat="53.996663969010115" lon="10.654068980365992">
        <ele>34.259999999999998</ele>
        <time>2019-05-08T07:03:30Z</time>
      </trkpt>
      <trkpt lat="53.996615018695593" lon="10.654318006709218">
        <ele>33.780000000000001</ele>
        <time>2019-05-08T07:03:31Z</time>
      </trkpt>
      <trkpt lat="53.996461965143681" lon="10.655202968046069">
        <ele>32.82</ele>
        <time>2019-05-08T07:03:34Z</time>
      </trkpt>
      <trkpt lat="53.99643799290061" lon="10.65554603934288">
        <ele>32.340000000000003</ele>
        <time>2019-05-08T07:03:35Z</time>
      </trkpt>
      <trkpt lat="53.996368004009128" lon="10.656569972634315">
        <ele>31.379999999999999</ele>
        <time>2019-05-08T07:03:38Z</time>
      </trkpt>
      <trkpt lat="53.996347971260548" lon="10.656853029504418">
        <ele>31.379999999999999</ele>
        <time>2019-05-08T07:03:39Z</time>
      </trkpt>
      <trkpt lat="53.996292985975742" lon="10.657088980078697">
        <ele>31.379999999999999</ele>
        <time>2019-05-08T07:03:40Z</time>
      </trkpt>
      <trkpt lat="53.99622299708426" lon="10.65732803195715">
        <ele>31.379999999999999</ele>
        <time>2019-05-08T07:03:41Z</time>
      </trkpt>
      <trkpt lat="53.996150996536016" lon="10.657577980309725">
        <ele>31.379999999999999</ele>
        <time>2019-05-08T07:03:42Z</time>
      </trkpt>
      <trkpt lat="53.996078995987773" lon="10.657823989167809">
        <ele>31.859999999999999</ele>
        <time>2019-05-08T07:03:43Z</time>
      </trkpt>
      <trkpt lat="53.995946981012821" lon="10.658280970528722">
        <ele>31.379999999999999</ele>
        <time>2019-05-08T07:03:45Z</time>
      </trkpt>
      <trkpt lat="53.995905993506312" lon="10.658489009365439">
        <ele>31.379999999999999</ele>
        <time>2019-05-08T07:03:46Z</time>
      </trkpt>
      <trkpt lat="53.995885038748384" lon="10.658706016838551">
        <ele>30.899999999999999</ele>
        <time>2019-05-08T07:03:47Z</time>
      </trkpt>
      <trkpt lat="53.995903981849551" lon="10.65941303037107">
        <ele>29.460000000000001</ele>
        <time>2019-05-08T07:03:50Z</time>
      </trkpt>
      <trkpt lat="53.996060974895954" lon="10.660306038334966">
        <ele>26.09</ele>
        <time>2019-05-08T07:03:56Z</time>
      </trkpt>
      <trkpt lat="53.996080001816154" lon="10.660395976155996">
        <ele>24.649999999999999</ele>
        <time>2019-05-08T07:03:58Z</time>
      </trkpt>
      <trkpt lat="53.99609399959445" lon="10.660427995026112">
        <ele>23.690000000000001</ele>
        <time>2019-05-08T07:03:59Z</time>
      </trkpt>
      <trkpt lat="53.996144039556384" lon="10.660421038046479">
        <ele>23.210000000000001</ele>
        <time>2019-05-08T07:04:00Z</time>
      </trkpt>
      <trkpt lat="53.996212016791105" lon="10.660410979762673">
        <ele>22.73</ele>
        <time>2019-05-08T07:04:01Z</time>
      </trkpt>
      <trkpt lat="53.996296003460884" lon="10.660398993641138">
        <ele>22.25</ele>
        <time>2019-05-08T07:04:02Z</time>
      </trkpt>
      <trkpt lat="53.996390970423818" lon="10.660386001691222">
        <ele>21.77</ele>
        <time>2019-05-08T07:04:03Z</time>
      </trkpt>
      <trkpt lat="53.99650102481246" lon="10.660369992256165">
        <ele>21.77</ele>
        <time>2019-05-08T07:04:04Z</time>
      </trkpt>
      <trkpt lat="53.997608022764325" lon="10.660132030025125">
        <ele>22.25</ele>
        <time>2019-05-08T07:04:11Z</time>
      </trkpt>
      <trkpt lat="53.999228999018669" lon="10.659289984032512">
        <ele>26.09</ele>
        <time>2019-05-08T07:04:18Z</time>
      </trkpt>
      <trkpt lat="54.002270959317684" lon="10.657252008095384">
        <ele>27.050000000000001</ele>
        <time>2019-05-08T07:04:30Z</time>
      </trkpt>
      <trkpt lat="54.004181027412415" lon="10.655955998227">
        <ele>24.649999999999999</ele>
        <time>2019-05-08T07:04:39Z</time>
      </trkpt>
      <trkpt lat="54.006139039993286" lon="10.654692007228732">
        <ele>23.690000000000001</ele>
        <time>2019-05-08T07:04:48Z</time>
      </trkpt>
      <trkpt lat="54.007593970745802" lon="10.654361005872488">
        <ele>23.210000000000001</ele>
        <time>2019-05-08T07:04:54Z</time>
      </trkpt>
      <trkpt lat="54.009173037484288" lon="10.654950002208352">
        <ele>23.690000000000001</ele>
        <time>2019-05-08T07:05:00Z</time>
      </trkpt>
      <trkpt lat="54.010928040370345" lon="10.656533008441329">
        <ele>21.77</ele>
        <time>2019-05-08T07:05:07Z</time>
      </trkpt>
      <trkpt lat="54.012428987771273" lon="10.657232981175184">
        <ele>21.289999999999999</ele>
        <time>2019-05-08T07:05:13Z</time>
      </trkpt>
      <trkpt lat="54.013732960447669" lon="10.65722200088203">
        <ele>21.289999999999999</ele>
        <time>2019-05-08T07:05:19Z</time>
      </trkpt>
      <trkpt lat="54.014515997841954" lon="10.65715896897018">
        <ele>20.809999999999999</ele>
        <time>2019-05-08T07:05:25Z</time>
      </trkpt>
      <trkpt lat="54.014594033360481" lon="10.657152011990547">
        <ele>20.809999999999999</ele>
        <time>2019-05-08T07:05:26Z</time>
      </trkpt>
      <trkpt lat="54.014711966738105" lon="10.657317973673344">
        <ele>20.809999999999999</ele>
        <time>2019-05-08T07:05:27Z</time>
      </trkpt>
      <trkpt lat="54.014711966738105" lon="10.657317973673344">
        <ele>20.809999999999999</ele>
        <time>2019-05-08T07:05:28Z</time>
      </trkpt>
      <trkpt lat="54.014800982549787" lon="10.657547973096371">
        <ele>20.809999999999999</ele>
        <time>2019-05-08T07:05:29Z</time>
      </trkpt>
      <trkpt lat="54.014777010306716" lon="10.65773899666965">
        <ele>20.809999999999999</ele>
        <time>2019-05-08T07:05:30Z</time>
      </trkpt>
      <trkpt lat="54.014748008921742" lon="10.657964972779155">
        <ele>20.809999999999999</ele>
        <time>2019-05-08T07:05:31Z</time>
      </trkpt>
      <trkpt lat="54.014714984223247" lon="10.658222967758775">
        <ele>20.809999999999999</ele>
        <time>2019-05-08T07:05:32Z</time>
      </trkpt>
      <trkpt lat="54.014457995072007" lon="10.660215010866523">
        <ele>20.809999999999999</ele>
        <time>2019-05-08T07:05:39Z</time>
      </trkpt>
      <trkpt lat="54.01416496373713" lon="10.661964984610677">
        <ele>20.809999999999999</ele>
        <time>2019-05-08T07:05:44Z</time>
      </trkpt>
      <trkpt lat="54.01407896541059" lon="10.662363963201642">
        <ele>20.32</ele>
        <time>2019-05-08T07:05:45Z</time>
      </trkpt>
      <trkpt lat="54.012962998822331" lon="10.666052000597119">
        <ele>18.879999999999999</ele>
        <time>2019-05-08T07:05:54Z</time>
      </trkpt>
      <trkpt lat="54.01255102828145" lon="10.668478980660439">
        <ele>20.809999999999999</ele>
        <time>2019-05-08T07:06:00Z</time>
      </trkpt>
      <trkpt lat="54.012625962495804" lon="10.670890035107732">
        <ele>23.210000000000001</ele>
        <time>2019-05-08T07:06:06Z</time>
      </trkpt>
      <trkpt lat="54.012619005516171" lon="10.671259006485343">
        <ele>23.690000000000001</ele>
        <time>2019-05-08T07:06:07Z</time>
      </trkpt>
      <trkpt lat="54.012610958889127" lon="10.671607023105025">
        <ele>24.170000000000002</ele>
        <time>2019-05-08T07:06:08Z</time>
      </trkpt>
      <trkpt lat="54.012570977210999" lon="10.67193903028965">
        <ele>24.170000000000002</ele>
        <time>2019-05-08T07:06:09Z</time>
      </trkpt>
      <trkpt lat="54.012513980269432" lon="10.672267014160752">
        <ele>24.649999999999999</ele>
        <time>2019-05-08T07:06:10Z</time>
      </trkpt>
      <trkpt lat="54.012439968064427" lon="10.672574965283275">
        <ele>24.649999999999999</ele>
        <time>2019-05-08T07:06:11Z</time>
      </trkpt>
      <trkpt lat="54.012360004708171" lon="10.672881994396448">
        <ele>24.649999999999999</ele>
        <time>2019-05-08T07:06:12Z</time>
      </trkpt>
      <trkpt lat="54.012279035523534" lon="10.673190029338002">
        <ele>24.649999999999999</ele>
        <time>2019-05-08T07:06:13Z</time>
      </trkpt>
      <trkpt lat="54.011934958398342" lon="10.674022017046809">
        <ele>23.210000000000001</ele>
        <time>2019-05-08T07:06:16Z</time>
      </trkpt>
      <trkpt lat="54.011811995878816" lon="10.674295015633106">
        <ele>22.73</ele>
        <time>2019-05-08T07:06:17Z</time>
      </trkpt>
      <trkpt lat="54.010942038148642" lon="10.675541991367936">
        <ele>16.960000000000001</ele>
        <time>2019-05-08T07:06:23Z</time>
      </trkpt>
      <trkpt lat="54.010341977700591" lon="10.676465006545186">
        <ele>14.56</ele>
        <time>2019-05-08T07:06:30Z</time>
      </trkpt>
      <trkpt lat="54.010271988809109" lon="10.676619987934828">
        <ele>15.039999999999999</ele>
        <time>2019-05-08T07:06:31Z</time>
      </trkpt>
      <trkpt lat="54.010215997695923" lon="10.676788967102766">
        <ele>15.52</ele>
        <time>2019-05-08T07:06:32Z</time>
      </trkpt>
      <trkpt lat="54.01016604155302" lon="10.676961969584227">
        <ele>16.48</ele>
        <time>2019-05-08T07:06:33Z</time>
      </trkpt>
      <trkpt lat="54.010121030732989" lon="10.677157016471028">
        <ele>16.960000000000001</ele>
        <time>2019-05-08T07:06:34Z</time>
      </trkpt>
      <trkpt lat="54.010136034339666" lon="10.677535962313414">
        <ele>17.920000000000002</ele>
        <time>2019-05-08T07:06:36Z</time>
      </trkpt>
      <trkpt lat="54.01016604155302" lon="10.677736960351467">
        <ele>18.399999999999999</ele>
        <time>2019-05-08T07:06:37Z</time>
      </trkpt>
      <trkpt lat="54.010223038494587" lon="10.677914991974831">
        <ele>18.879999999999999</ele>
        <time>2019-05-08T07:06:38Z</time>
      </trkpt>
      <trkpt lat="54.01072796434164" lon="10.679491041228175">
        <ele>20.32</ele>
        <time>2019-05-08T07:06:47Z</time>
      </trkpt>
      <trkpt lat="54.010837012901902" lon="10.679828999564052">
        <ele>20.809999999999999</ele>
        <time>2019-05-08T07:06:49Z</time>
      </trkpt>
      <trkpt lat="54.010913036763668" lon="10.67997601814568">
        <ele>21.289999999999999</ele>
        <time>2019-05-08T07:06:50Z</time>
      </trkpt>
      <trkpt lat="54.011228028684855" lon="10.68053400143981">
        <ele>22.73</ele>
        <time>2019-05-08T07:06:54Z</time>
      </trkpt>
      <trkpt lat="54.011295000091195" lon="10.680697029456496">
        <ele>22.73</ele>
        <time>2019-05-08T07:06:55Z</time>
      </trkpt>
      <trkpt lat="54.011504966765642" lon="10.681547038257122">
        <ele>24.649999999999999</ele>
        <time>2019-05-08T07:06:59Z</time>
      </trkpt>
      <trkpt lat="54.011536985635757" lon="10.681787012144923">
        <ele>24.649999999999999</ele>
        <time>2019-05-08T07:07:00Z</time>
      </trkpt>
      <trkpt lat="54.011570010334253" lon="10.682028997689486">
        <ele>25.129999999999999</ele>
        <time>2019-05-08T07:07:01Z</time>
      </trkpt>
      <trkpt lat="54.011578978970647" lon="10.682286992669106">
        <ele>25.129999999999999</ele>
        <time>2019-05-08T07:07:02Z</time>
      </trkpt>
      <trkpt lat="54.011577973142266" lon="10.682556973770261">
        <ele>25.129999999999999</ele>
        <time>2019-05-08T07:07:03Z</time>
      </trkpt>
      <trkpt lat="54.011561963707209" lon="10.682835001498461">
        <ele>25.609999999999999</ele>
        <time>2019-05-08T07:07:04Z</time>
      </trkpt>
      <trkpt lat="54.011515025049448" lon="10.683725997805595">
        <ele>27.530000000000001</ele>
        <time>2019-05-08T07:07:07Z</time>
      </trkpt>
      <trkpt lat="54.011515025049448" lon="10.684044007211924">
        <ele>28.02</ele>
        <time>2019-05-08T07:07:08Z</time>
      </trkpt>
      <trkpt lat="54.011544026434422" lon="10.684353969991207">
        <ele>28.5</ele>
        <time>2019-05-08T07:07:09Z</time>
      </trkpt>
      <trkpt lat="54.011605968698859" lon="10.684666028246284">
        <ele>29.460000000000001</ele>
        <time>2019-05-08T07:07:10Z</time>
      </trkpt>
      <trkpt lat="54.01167000643909" lon="10.684987977147102">
        <ele>29.940000000000001</ele>
        <time>2019-05-08T07:07:11Z</time>
      </trkpt>
      <trkpt lat="54.01173597201705" lon="10.685320990160108">
        <ele>30.420000000000002</ele>
        <time>2019-05-08T07:07:12Z</time>
      </trkpt>
      <trkpt lat="54.012284986674786" lon="10.688060028478503">
        <ele>33.780000000000001</ele>
        <time>2019-05-08T07:07:21Z</time>
      </trkpt>
      <trkpt lat="54.012360004708171" lon="10.688428999856114">
        <ele>34.259999999999998</ele>
        <time>2019-05-08T07:07:23Z</time>
      </trkpt>
      <trkpt lat="54.012437034398317" lon="10.688813980668783">
        <ele>33.780000000000001</ele>
        <time>2019-05-08T07:07:28Z</time>
      </trkpt>
      <trkpt lat="54.012519009411335" lon="10.688867960125208">
        <ele>33.299999999999997</ele>
        <time>2019-05-08T07:07:37Z</time>
      </trkpt>
      <trkpt lat="54.012582041323185" lon="10.688810041174293">
        <ele>33.299999999999997</ele>
        <time>2019-05-08T07:07:38Z</time>
      </trkpt>
      <trkpt lat="54.012662004679441" lon="10.688734017312527">
        <ele>32.82</ele>
        <time>2019-05-08T07:07:39Z</time>
      </trkpt>
      <trkpt lat="54.013295006006956" lon="10.688152983784676">
        <ele>32.340000000000003</ele>
        <time>2019-05-08T07:07:44Z</time>
      </trkpt>
      <trkpt lat="54.014676008373499" lon="10.687449993565679">
        <ele>36.670000000000002</ele>
        <time>2019-05-08T07:07:51Z</time>
      </trkpt>
      <trkpt lat="54.016766035929322" lon="10.686523960903287">
        <ele>44.359999999999999</ele>
        <time>2019-05-08T07:08:00Z</time>
      </trkpt>
      <trkpt lat="54.019338022917509" lon="10.685381004586816">
        <ele>47.719999999999999</ele>
        <time>2019-05-08T07:08:11Z</time>
      </trkpt>
      <trkpt lat="54.021284971386194" lon="10.684514986351132">
        <ele>43.880000000000003</ele>
        <time>2019-05-08T07:08:19Z</time>
      </trkpt>
      <trkpt lat="54.02292899787426" lon="10.684133023023605">
        <ele>40.030000000000001</ele>
        <time>2019-05-08T07:08:27Z</time>
      </trkpt>
      <trkpt lat="54.025176018476486" lon="10.683684004470706">
        <ele>32.340000000000003</ele>
        <time>2019-05-08T07:08:39Z</time>
      </trkpt>
      <trkpt lat="54.026787020266056" lon="10.683334982022643">
        <ele>27.050000000000001</ele>
        <time>2019-05-08T07:08:47Z</time>
      </trkpt>
      <trkpt lat="54.029238978400826" lon="10.6828329898417">
        <ele>28.5</ele>
        <time>2019-05-08T07:08:57Z</time>
      </trkpt>
      <trkpt lat="54.032688969746232" lon="10.68212597630918">
        <ele>29.460000000000001</ele>
        <time>2019-05-08T07:09:10Z</time>
      </trkpt>
      <trkpt lat="54.036222025752068" lon="10.681420974433422">
        <ele>27.050000000000001</ele>
        <time>2019-05-08T07:09:23Z</time>
      </trkpt>
      <trkpt lat="54.039627006277442" lon="10.680708009749651">
        <ele>28.02</ele>
        <time>2019-05-08T07:09:36Z</time>
      </trkpt>
      <trkpt lat="54.04099996201694" lon="10.68040500395">
        <ele>28.98</ele>
        <time>2019-05-08T07:09:43Z</time>
      </trkpt>
      <trkpt lat="54.041325012221932" lon="10.680333003401756">
        <ele>29.940000000000001</ele>
        <time>2019-05-08T07:09:45Z</time>
      </trkpt>
      <trkpt lat="54.041479993611574" lon="10.680304002016783">
        <ele>30.899999999999999</ele>
        <time>2019-05-08T07:09:46Z</time>
      </trkpt>
      <trkpt lat="54.041628018021584" lon="10.68027701228857">
        <ele>31.859999999999999</ele>
        <time>2019-05-08T07:09:47Z</time>
      </trkpt>
      <trkpt lat="54.042649017646909" lon="10.680080037564039">
        <ele>36.189999999999998</ele>
        <time>2019-05-08T07:09:56Z</time>
      </trkpt>
      <trkpt lat="54.044638965278864" lon="10.679657002910972">
        <ele>34.259999999999998</ele>
        <time>2019-05-08T07:10:11Z</time>
      </trkpt>
      <trkpt lat="54.046000018715858" lon="10.679553989320993">
        <ele>29.940000000000001</ele>
        <time>2019-05-08T07:10:22Z</time>
      </trkpt>
      <trkpt lat="54.047362999990582" lon="10.679909968748689">
        <ele>27.050000000000001</ele>
        <time>2019-05-08T07:10:31Z</time>
      </trkpt>
      <trkpt lat="54.049037033692002" lon="10.68046803586185">
        <ele>27.530000000000001</ele>
        <time>2019-05-08T07:10:39Z</time>
      </trkpt>
      <trkpt lat="54.050654992461205" lon="10.68100799806416">
        <ele>28.98</ele>
        <time>2019-05-08T07:10:46Z</time>
      </trkpt>
      <trkpt lat="54.052587021142244" lon="10.681665977463126">
        <ele>27.530000000000001</ele>
        <time>2019-05-08T07:10:54Z</time>
      </trkpt>
      <trkpt lat="54.054989023134112" lon="10.682452032342553">
        <ele>22.73</ele>
        <time>2019-05-08T07:11:04Z</time>
      </trkpt>
      <trkpt lat="54.056042963638902" lon="10.682988977059722">
        <ele>22.73</ele>
        <time>2019-05-08T07:11:11Z</time>
      </trkpt>
      <trkpt lat="54.05704703181982" lon="10.683574033901095">
        <ele>23.210000000000001</ele>
        <time>2019-05-08T07:11:20Z</time>
      </trkpt>
      <trkpt lat="54.058282021433115" lon="10.684317005798221">
        <ele>22.25</ele>
        <time>2019-05-08T07:11:31Z</time>
      </trkpt>
      <trkpt lat="54.059533020481467" lon="10.684976996853948">
        <ele>25.129999999999999</ele>
        <time>2019-05-08T07:11:42Z</time>
      </trkpt>
      <trkpt lat="54.060815032571554" lon="10.685572028160095">
        <ele>30.420000000000002</ele>
        <time>2019-05-08T07:11:52Z</time>
      </trkpt>
      <trkpt lat="54.062275998294353" lon="10.686132023110986">
        <ele>30.899999999999999</ele>
        <time>2019-05-08T07:11:59Z</time>
      </trkpt>
      <trkpt lat="54.064775984734297" lon="10.687090996652842">
        <ele>27.530000000000001</ele>
        <time>2019-05-08T07:12:09Z</time>
      </trkpt>
      <trkpt lat="54.067168012261391" lon="10.687900017946959">
        <ele>28.5</ele>
        <time>2019-05-08T07:12:19Z</time>
      </trkpt>
      <trkpt lat="54.067406980320811" lon="10.687932958826423">
        <ele>28.02</ele>
        <time>2019-05-08T07:12:20Z</time>
      </trkpt>
      <trkpt lat="54.069311013445258" lon="10.687691979110241">
        <ele>25.129999999999999</ele>
        <time>2019-05-08T07:12:27Z</time>
      </trkpt>
      <trkpt lat="54.072058014571667" lon="10.687231980264187">
        <ele>24.170000000000002</ele>
        <time>2019-05-08T07:12:37Z</time>
      </trkpt>
      <trkpt lat="54.073577988892794" lon="10.687587959691882">
        <ele>23.690000000000001</ele>
        <time>2019-05-08T07:12:43Z</time>
      </trkpt>
      <trkpt lat="54.074953040108085" lon="10.68871901370585">
        <ele>25.129999999999999</ele>
        <time>2019-05-08T07:12:49Z</time>
      </trkpt>
      <trkpt lat="54.077375996857882" lon="10.691242972388864">
        <ele>23.690000000000001</ele>
        <time>2019-05-08T07:13:00Z</time>
      </trkpt>
      <trkpt lat="54.078194992616773" lon="10.692289033904672">
        <ele>23.690000000000001</ele>
        <time>2019-05-08T07:13:05Z</time>
      </trkpt>
      <trkpt lat="54.079738017171621" lon="10.694703022018075">
        <ele>24.649999999999999</ele>
        <time>2019-05-08T07:13:18Z</time>
      </trkpt>
      <trkpt lat="54.081005025655031" lon="10.69667000323534">
        <ele>29.460000000000001</ele>
        <time>2019-05-08T07:13:29Z</time>
      </trkpt>
      <trkpt lat="54.082061983644962" lon="10.698371026664972">
        <ele>35.710000000000001</ele>
        <time>2019-05-08T07:13:39Z</time>
      </trkpt>
      <trkpt lat="54.082678975537419" lon="10.699771977961063">
        <ele>37.149999999999999</ele>
        <time>2019-05-08T07:13:46Z</time>
      </trkpt>
      <trkpt lat="54.083569971844554" lon="10.702592991292477">
        <ele>36.670000000000002</ele>
        <time>2019-05-08T07:13:57Z</time>
      </trkpt>
      <trkpt lat="54.084329959005117" lon="10.705270003527403">
        <ele>33.780000000000001</ele>
        <time>2019-05-08T07:14:05Z</time>
      </trkpt>
      <trkpt lat="54.084702031686902" lon="10.706839011982083">
        <ele>31.379999999999999</ele>
        <time>2019-05-08T07:14:09Z</time>
      </trkpt>
      <trkpt lat="54.084774032235146" lon="10.7072629686445">
        <ele>30.899999999999999</ele>
        <time>2019-05-08T07:14:10Z</time>
      </trkpt>
      <trkpt lat="54.084790963679552" lon="10.707715004682541">
        <ele>30.899999999999999</ele>
        <time>2019-05-08T07:14:11Z</time>
      </trkpt>
      <trkpt lat="54.084927001968026" lon="10.711363982409239">
        <ele>31.379999999999999</ele>
        <time>2019-05-08T07:14:19Z</time>
      </trkpt>
      <trkpt lat="54.085057005286217" lon="10.715688960626721">
        <ele>35.229999999999997</ele>
        <time>2019-05-08T07:14:29Z</time>
      </trkpt>
      <trkpt lat="54.085173010826111" lon="10.719565004110336">
        <ele>38.109999999999999</ele>
        <time>2019-05-08T07:14:39Z</time>
      </trkpt>
      <trkpt lat="54.085282981395721" lon="10.72331003844738">
        <ele>34.259999999999998</ele>
        <time>2019-05-08T07:14:49Z</time>
      </trkpt>
      <trkpt lat="54.085347019135952" lon="10.724040018394589">
        <ele>33.299999999999997</ele>
        <time>2019-05-08T07:14:51Z</time>
      </trkpt>
      <trkpt lat="54.085398986935616" lon="10.724382000043988">
        <ele>32.82</ele>
        <time>2019-05-08T07:14:52Z</time>
      </trkpt>
      <trkpt lat="54.085488002747297" lon="10.724695986136794">
        <ele>32.340000000000003</ele>
        <time>2019-05-08T07:14:53Z</time>
      </trkpt>
      <trkpt lat="54.08558196388185" lon="10.72503000497818">
        <ele>31.859999999999999</ele>
        <time>2019-05-08T07:14:54Z</time>
      </trkpt>
      <trkpt lat="54.085692018270493" lon="10.725390007719398">
        <ele>31.859999999999999</ele>
        <time>2019-05-08T07:14:55Z</time>
      </trkpt>
      <trkpt lat="54.086443958804011" lon="10.72752102278173">
        <ele>32.340000000000003</ele>
        <time>2019-05-08T07:15:01Z</time>
      </trkpt>
      <trkpt lat="54.087366973981261" lon="10.730138020589948">
        <ele>31.859999999999999</ele>
        <time>2019-05-08T07:15:10Z</time>
      </trkpt>
      <trkpt lat="54.088567011058331" lon="10.7335389778018">
        <ele>30.899999999999999</ele>
        <time>2019-05-08T07:15:21Z</time>
      </trkpt>
      <trkpt lat="54.089394975453615" lon="10.735884988680482">
        <ele>33.780000000000001</ele>
        <time>2019-05-08T07:15:29Z</time>
      </trkpt>
      <trkpt lat="54.089936027303338" lon="10.737418960779905">
        <ele>37.149999999999999</ele>
        <time>2019-05-08T07:15:35Z</time>
      </trkpt>
      <trkpt lat="54.090369958430529" lon="10.738984029740095">
        <ele>40.509999999999998</ele>
        <time>2019-05-08T07:15:41Z</time>
      </trkpt>
      <trkpt lat="54.090718980878592" lon="10.741868996992707">
        <ele>43.880000000000003</ele>
        <time>2019-05-08T07:15:51Z</time>
      </trkpt>
      <trkpt lat="54.091065991669893" lon="10.744858989492059">
        <ele>45.32</ele>
        <time>2019-05-08T07:16:02Z</time>
      </trkpt>
      <trkpt lat="54.091417025774717" lon="10.747910002246499">
        <ele>45.799999999999997</ele>
        <time>2019-05-08T07:16:13Z</time>
      </trkpt>
      <trkpt lat="54.091803012415767" lon="10.751342978328466">
        <ele>46.280000000000001</ele>
        <time>2019-05-08T07:16:25Z</time>
      </trkpt>
      <trkpt lat="54.09223903901875" lon="10.755006037652493">
        <ele>44.840000000000003</ele>
        <time>2019-05-08T07:16:38Z</time>
      </trkpt>
      <trkpt lat="54.092639023438096" lon="10.758550995960832">
        <ele>42.439999999999998</ele>
        <time>2019-05-08T07:16:51Z</time>
      </trkpt>
      <trkpt lat="54.092993997037411" lon="10.761690018698573">
        <ele>40.030000000000001</ele>
        <time>2019-05-08T07:17:02Z</time>
      </trkpt>
      <trkpt lat="54.093331033363938" lon="10.764673976227641">
        <ele>32.82</ele>
        <time>2019-05-08T07:17:09Z</time>
      </trkpt>
      <trkpt lat="54.093840988352895" lon="10.769189978018403">
        <ele>30.899999999999999</ele>
        <time>2019-05-08T07:17:20Z</time>
      </trkpt>
      <trkpt lat="54.09419403411448" lon="10.772311985492706">
        <ele>27.530000000000001</ele>
        <time>2019-05-08T07:17:30Z</time>
      </trkpt>
      <trkpt lat="54.094497039914131" lon="10.774881038814783">
        <ele>29.940000000000001</ele>
        <time>2019-05-08T07:17:39Z</time>
      </trkpt>
      <trkpt lat="54.094865005463362" lon="10.778283001855016">
        <ele>30.899999999999999</ele>
        <time>2019-05-08T07:17:51Z</time>
      </trkpt>
      <trkpt lat="54.09522601403296" lon="10.781398974359035">
        <ele>27.530000000000001</ele>
        <time>2019-05-08T07:18:01Z</time>
      </trkpt>
      <trkpt lat="54.095520973205566" lon="10.783924022689462">
        <ele>25.609999999999999</ele>
        <time>2019-05-08T07:18:10Z</time>
      </trkpt>
      <trkpt lat="54.095543017610908" lon="10.784132983535528">
        <ele>25.609999999999999</ele>
        <time>2019-05-08T07:18:11Z</time>
      </trkpt>
      <trkpt lat="54.095543017610908" lon="10.784284025430679">
        <ele>25.609999999999999</ele>
        <time>2019-05-08T07:18:12Z</time>
      </trkpt>
      <trkpt lat="54.095435980707407" lon="10.784432971850038">
        <ele>25.609999999999999</ele>
        <time>2019-05-08T07:18:13Z</time>
      </trkpt>
      <trkpt lat="54.095362974330783" lon="10.784638999029994">
        <ele>25.129999999999999</ele>
        <time>2019-05-08T07:18:15Z</time>
      </trkpt>
      <trkpt lat="54.095352999866009" lon="10.784755004569888">
        <ele>24.649999999999999</ele>
        <time>2019-05-08T07:18:16Z</time>
      </trkpt>
      <trkpt lat="54.095394993200898" lon="10.78488802537322">
        <ele>24.170000000000002</ele>
        <time>2019-05-08T07:18:17Z</time>
      </trkpt>
      <trkpt lat="54.095470011234283" lon="10.785011993721128">
        <ele>23.690000000000001</ele>
        <time>2019-05-08T07:18:18Z</time>
      </trkpt>
      <trkpt lat="54.095552992075682" lon="10.785011993721128">
        <ele>23.690000000000001</ele>
        <time>2019-05-08T07:18:19Z</time>
      </trkpt>
      <trkpt lat="54.095564978197217" lon="10.785011993721128">
        <ele>23.690000000000001</ele>
        <time>2019-05-08T07:18:20Z</time>
      </trkpt>
      <trkpt lat="54.095732029527426" lon="10.785150965675712">
        <ele>23.690000000000001</ele>
        <time>2019-05-08T07:18:21Z</time>
      </trkpt>
      <trkpt lat="54.095803024247289" lon="10.785326985642314">
        <ele>23.690000000000001</ele>
        <time>2019-05-08T07:18:22Z</time>
      </trkpt>
      <trkpt lat="54.095883993431926" lon="10.785526977851987">
        <ele>23.690000000000001</ele>
        <time>2019-05-08T07:18:23Z</time>
      </trkpt>
      <trkpt lat="54.095972003415227" lon="10.785744991153479">
        <ele>23.210000000000001</ele>
        <time>2019-05-08T07:18:24Z</time>
      </trkpt>
      <trkpt lat="54.096999038010836" lon="10.788005003705621">
        <ele>18.399999999999999</ele>
        <time>2019-05-08T07:18:35Z</time>
      </trkpt>
      <trkpt lat="54.097896991297603" lon="10.789905013516545">
        <ele>14.08</ele>
        <time>2019-05-08T07:18:46Z</time>
      </trkpt>
      <trkpt lat="54.09851498901844" lon="10.791198005899787">
        <ele>13.119999999999999</ele>
        <time>2019-05-08T07:18:55Z</time>
      </trkpt>
      <trkpt lat="54.098582966253161" lon="10.791341001167893">
        <ele>12.630000000000001</ele>
        <time>2019-05-08T07:18:56Z</time>
      </trkpt>
      <trkpt lat="54.099226025864482" lon="10.79268797300756">
        <ele>9.75</ele>
        <time>2019-05-08T07:19:06Z</time>
      </trkpt>
      <trkpt lat="54.099274976179004" lon="10.792790986597538">
        <ele>8.789999999999999</ele>
        <time>2019-05-08T07:19:12Z</time>
      </trkpt>
      <trkpt lat="54.099301965907216" lon="10.792847983539104">
        <ele>8.310000000000001</ele>
        <time>2019-05-08T07:19:13Z</time>
      </trkpt>
      <trkpt lat="54.099335996434093" lon="10.792919984087348">
        <ele>7.83</ele>
        <time>2019-05-08T07:19:14Z</time>
      </trkpt>
      <trkpt lat="54.099341025575995" lon="10.793036995455623">
        <ele>7.83</ele>
        <time>2019-05-08T07:19:15Z</time>
      </trkpt>
      <trkpt lat="54.099341025575995" lon="10.793120982125401">
        <ele>7.35</ele>
        <time>2019-05-08T07:19:16Z</time>
      </trkpt>
      <trkpt lat="54.099368015304208" lon="10.79322399571538">
        <ele>7.35</ele>
        <time>2019-05-08T07:19:17Z</time>
      </trkpt>
      <trkpt lat="54.099404979497194" lon="10.793274035677314">
        <ele>6.87</ele>
        <time>2019-05-08T07:19:18Z</time>
      </trkpt>
      <trkpt lat="54.099510004743934" lon="10.793291972950101">
        <ele>6.87</ele>
        <time>2019-05-08T07:19:19Z</time>
      </trkpt>
      <trkpt lat="54.099559960886836" lon="10.79339599236846">
        <ele>6.39</ele>
        <time>2019-05-08T07:19:20Z</time>
      </trkpt>
      <trkpt lat="54.099617041647434" lon="10.793513003736734">
        <ele>5.91</ele>
        <time>2019-05-08T07:19:21Z</time>
      </trkpt>
      <trkpt lat="54.099677978083491" lon="10.793642001226544">
        <ele>5.91</ele>
        <time>2019-05-08T07:19:22Z</time>
      </trkpt>
      <trkpt lat="54.10044701769948" lon="10.795244034379721">
        <ele>3.02</ele>
        <time>2019-05-08T07:19:33Z</time>
      </trkpt>
      <trkpt lat="54.101470028981566" lon="10.797365996986628">
        <ele>3.02</ele>
        <time>2019-05-08T07:19:48Z</time>
      </trkpt>
      <trkpt lat="54.102119961753488" lon="10.7987230271101">
        <ele>1.58</ele>
        <time>2019-05-08T07:19:57Z</time>
      </trkpt>
      <trkpt lat="54.102450041100383" lon="10.799386035650969">
        <ele>1.1</ele>
        <time>2019-05-08T07:20:06Z</time>
      </trkpt>
      <trkpt lat="54.102995032444596" lon="10.800540978088975">
        <ele>2.06</ele>
        <time>2019-05-08T07:20:15Z</time>
      </trkpt>
      <trkpt lat="54.103775974363089" lon="10.802229009568691">
        <ele>3.5</ele>
        <time>2019-05-08T07:20:27Z</time>
      </trkpt>
      <trkpt lat="54.104584995657206" lon="10.803889967501163">
        <ele>2.54</ele>
        <time>2019-05-08T07:20:38Z</time>
      </trkpt>
      <trkpt lat="54.105092016980052" lon="10.804960001260042">
        <ele>2.54</ele>
        <time>2019-05-08T07:20:47Z</time>
      </trkpt>
      <trkpt lat="54.105670033022761" lon="10.806195996701717">
        <ele>4.94</ele>
        <time>2019-05-08T07:20:57Z</time>
      </trkpt>
      <trkpt lat="54.106079991906881" lon="10.807178020477295">
        <ele>7.35</ele>
        <time>2019-05-08T07:21:05Z</time>
      </trkpt>
      <trkpt lat="54.106143023818731" lon="10.807327972725034">
        <ele>7.35</ele>
        <time>2019-05-08T07:21:06Z</time>
      </trkpt>
      <trkpt lat="54.106198009103537" lon="10.807602982968092">
        <ele>8.310000000000001</ele>
        <time>2019-05-08T07:21:09Z</time>
      </trkpt>
      <trkpt lat="54.106208989396691" lon="10.807659979909658">
        <ele>8.789999999999999</ele>
        <time>2019-05-08T07:21:10Z</time>
      </trkpt>
      <trkpt lat="54.106213012710214" lon="10.807697027921677">
        <ele>8.789999999999999</ele>
        <time>2019-05-08T07:21:11Z</time>
      </trkpt>
      <trkpt lat="54.106213012710214" lon="10.807697027921677">
        <ele>9.27</ele>
        <time>2019-05-08T07:21:17Z</time>
      </trkpt>
      <trkpt lat="54.106218963861465" lon="10.807744972407818">
        <ele>9.27</ele>
        <time>2019-05-08T07:21:18Z</time>
      </trkpt>
      <trkpt lat="54.106224998831749" lon="10.807800041511655">
        <ele>9.75</ele>
        <time>2019-05-08T07:21:19Z</time>
      </trkpt>
      <trkpt lat="54.106323989108205" lon="10.808682991191745">
        <ele>11.67</ele>
        <time>2019-05-08T07:21:28Z</time>
      </trkpt>
      <trkpt lat="54.10637796856463" lon="10.8092310000211">
        <ele>11.19</ele>
        <time>2019-05-08T07:21:34Z</time>
      </trkpt>
      <trkpt lat="54.106347961351275" lon="10.809353040531278">
        <ele>11.19</ele>
        <time>2019-05-08T07:21:35Z</time>
      </trkpt>
      <trkpt lat="54.106327006593347" lon="10.809426968917251">
        <ele>11.19</ele>
        <time>2019-05-08T07:21:36Z</time>
      </trkpt>
      <trkpt lat="54.106303034350276" lon="10.809513973072171">
        <ele>11.19</ele>
        <time>2019-05-08T07:21:37Z</time>
      </trkpt>
      <trkpt lat="54.106278978288174" lon="10.809601983055472">
        <ele>11.19</ele>
        <time>2019-05-08T07:21:38Z</time>
      </trkpt>
      <trkpt lat="54.106256011873484" lon="10.809685969725251">
        <ele>10.710000000000001</ele>
        <time>2019-05-08T07:21:39Z</time>
      </trkpt>
      <trkpt lat="54.106143023818731" lon="10.810096012428403">
        <ele>9.27</ele>
        <time>2019-05-08T07:21:49Z</time>
      </trkpt>
      <trkpt lat="54.106143023818731" lon="10.810096012428403">
        <ele>9.75</ele>
        <time>2019-05-08T07:21:55Z</time>
      </trkpt>
      <trkpt lat="54.106014026328921" lon="10.810203971341252">
        <ele>9.27</ele>
        <time>2019-05-08T07:21:56Z</time>
      </trkpt>
      <trkpt lat="54.106108993291855" lon="10.810125013813376">
        <ele>9.75</ele>
        <time>2019-05-08T07:21:57Z</time>
      </trkpt>
      <trkpt lat="54.106126008555293" lon="10.810110010206699">
        <ele>9.75</ele>
        <time>2019-05-08T07:21:58Z</time>
      </trkpt>
      <trkpt lat="54.106143023818731" lon="10.810096012428403">
        <ele>9.27</ele>
        <time>2019-05-08T07:21:59Z</time>
      </trkpt>
      <trkpt lat="54.106143023818731" lon="10.810096012428403">
        <ele>8.789999999999999</ele>
        <time>2019-05-08T07:22:00Z</time>
      </trkpt>
      <trkpt lat="54.106143023818731" lon="10.810096012428403">
        <ele>8.789999999999999</ele>
        <time>2019-05-08T07:22:01Z</time>
      </trkpt>
      <trkpt lat="54.106143023818731" lon="10.810096012428403">
        <ele>8.310000000000001</ele>
        <time>2019-05-08T07:22:02Z</time>
      </trkpt>
      <trkpt lat="54.106143023818731" lon="10.810096012428403">
        <ele>7.83</ele>
        <time>2019-05-08T07:22:20Z</time>
      </trkpt>
      <trkpt lat="54.106143023818731" lon="10.810096012428403">
        <ele>6.39</ele>
        <time>2019-05-08T07:23:25Z</time>
      </trkpt>
      <trkpt lat="54.106161966919899" lon="10.810026023536921">
        <ele>5.91</ele>
        <time>2019-05-08T07:24:02Z</time>
      </trkpt>
      <trkpt lat="54.106176970526576" lon="10.809973971918225">
        <ele>5.42</ele>
        <time>2019-05-08T07:24:03Z</time>
      </trkpt>
      <trkpt lat="54.106194991618395" lon="10.809909012168646">
        <ele>5.42</ele>
        <time>2019-05-08T07:24:04Z</time>
      </trkpt>
      <trkpt lat="54.106214018538594" lon="10.809840029105544">
        <ele>4.94</ele>
        <time>2019-05-08T07:24:05Z</time>
      </trkpt>
      <trkpt lat="54.106232039630413" lon="10.809771968051791">
        <ele>4.94</ele>
        <time>2019-05-08T07:24:06Z</time>
      </trkpt>
      <trkpt lat="54.10624897107482" lon="10.809712037444115">
        <ele>4.46</ele>
        <time>2019-05-08T07:24:07Z</time>
      </trkpt>
      <trkpt lat="54.106262968853116" lon="10.809658979997039">
        <ele>3.98</ele>
        <time>2019-05-08T07:24:08Z</time>
      </trkpt>
      <trkpt lat="54.106342010200024" lon="10.809375001117587">
        <ele>3.02</ele>
        <time>2019-05-08T07:24:19Z</time>
      </trkpt>
      <trkpt lat="54.106342010200024" lon="10.809375001117587">
        <ele>3.02</ele>
        <time>2019-05-08T07:24:27Z</time>
      </trkpt>
      <trkpt lat="54.10635500214994" lon="10.809324961155653">
        <ele>2.54</ele>
        <time>2019-05-08T07:24:28Z</time>
      </trkpt>
      <trkpt lat="54.106392972171307" lon="10.809304006397724">
        <ele>2.54</ele>
        <time>2019-05-08T07:24:29Z</time>
      </trkpt>
      <trkpt lat="54.106403030455112" lon="10.809349017217755">
        <ele>2.06</ele>
        <time>2019-05-08T07:24:30Z</time>
      </trkpt>
      <trkpt lat="54.106419961899519" lon="10.809426968917251">
        <ele>1.58</ele>
        <time>2019-05-08T07:24:31Z</time>
      </trkpt>
      <trkpt lat="54.106444017961621" lon="10.809538029134274">
        <ele>1.58</ele>
        <time>2019-05-08T07:24:32Z</time>
      </trkpt>
      <trkpt lat="54.106475031003356" lon="10.809651017189026">
        <ele>1.58</ele>
        <time>2019-05-08T07:24:33Z</time>
      </trkpt>
      <trkpt lat="54.106711987406015" lon="10.810638992115855">
        <ele>0.14</ele>
        <time>2019-05-08T07:24:41Z</time>
      </trkpt>
      <trkpt lat="54.10672196187079" lon="10.810736976563931">
        <ele>0.14</ele>
        <time>2019-05-08T07:24:42Z</time>
      </trkpt>
      <trkpt lat="54.106674017384648" lon="10.810824986547232">
        <ele>-0.34</ele>
        <time>2019-05-08T07:24:43Z</time>
      </trkpt>
      <trkpt lat="54.10663696937263" lon="10.810890030115843">
        <ele>-0.82</ele>
        <time>2019-05-08T07:24:44Z</time>
      </trkpt>
      <trkpt lat="54.106554994359612" lon="10.810963958501816">
        <ele>-0.82</ele>
        <time>2019-05-08T07:24:45Z</time>
      </trkpt>
      <trkpt lat="54.10648399963975" lon="10.811027996242046">
        <ele>-1.3</ele>
        <time>2019-05-08T07:24:46Z</time>
      </trkpt>
      <trkpt lat="54.106417028233409" lon="10.811087004840374">
        <ele>-1.79</ele>
        <time>2019-05-08T07:24:47Z</time>
      </trkpt>
      <trkpt lat="54.106156015768647" lon="10.811321027576923">
        <ele>-5.15</ele>
        <time>2019-05-08T07:24:51Z</time>
      </trkpt>
      <trkpt lat="54.106080997735262" lon="10.811387998983264">
        <ele>-5.63</ele>
        <time>2019-05-08T07:24:52Z</time>
      </trkpt>
      <trkpt lat="54.105891985818744" lon="10.811468968167901">
        <ele>-6.11</ele>
        <time>2019-05-08T07:24:54Z</time>
      </trkpt>
      <trkpt lat="54.105486972257495" lon="10.811519008129835">
        <ele>-7.55</ele>
        <time>2019-05-08T07:24:58Z</time>
      </trkpt>
      <trkpt lat="54.105401979759336" lon="10.811480032280087">
        <ele>-7.55</ele>
        <time>2019-05-08T07:24:59Z</time>
      </trkpt>
      <trkpt lat="54.105215985327959" lon="10.811418006196618">
        <ele>-7.55</ele>
        <time>2019-05-08T07:25:01Z</time>
      </trkpt>
      <trkpt lat="54.105114983394742" lon="10.811405014246702">
        <ele>-7.07</ele>
        <time>2019-05-08T07:25:02Z</time>
      </trkpt>
      <trkpt lat="54.105033008381724" lon="10.811458993703127">
        <ele>-7.07</ele>
        <time>2019-05-08T07:25:03Z</time>
      </trkpt>
      <trkpt lat="54.104962013661861" lon="10.811528982594609">
        <ele>-7.07</ele>
        <time>2019-05-08T07:25:04Z</time>
      </trkpt>
      <trkpt lat="54.104897975921631" lon="10.811639036983252">
        <ele>-7.07</ele>
        <time>2019-05-08T07:25:05Z</time>
      </trkpt>
      <trkpt lat="54.104834022000432" lon="10.811749007552862">
        <ele>-7.07</ele>
        <time>2019-05-08T07:25:06Z</time>
      </trkpt>
      <trkpt lat="54.10478800535202" lon="10.811878005042672">
        <ele>-7.07</ele>
        <time>2019-05-08T07:25:07Z</time>
      </trkpt>
      <trkpt lat="54.104737965390086" lon="10.812018988654017">
        <ele>-6.59</ele>
        <time>2019-05-08T07:25:08Z</time>
      </trkpt>
      <trkpt lat="54.104717010632157" lon="10.812162989750504">
        <ele>-6.59</ele>
        <time>2019-05-08T07:25:09Z</time>
      </trkpt>
      <trkpt lat="54.104706030339003" lon="10.812312019988894">
        <ele>-6.11</ele>
        <time>2019-05-08T07:25:10Z</time>
      </trkpt>
      <trkpt lat="54.104736959561706" lon="10.812478987500072">
        <ele>-6.11</ele>
        <time>2019-05-08T07:25:11Z</time>
      </trkpt>
      <trkpt lat="54.104768978431821" lon="10.812654001638293">
        <ele>-6.11</ele>
        <time>2019-05-08T07:25:12Z</time>
      </trkpt>
      <trkpt lat="54.104808960109949" lon="10.812833039090037">
        <ele>-5.63</ele>
        <time>2019-05-08T07:25:13Z</time>
      </trkpt>
      <trkpt lat="54.104864029213786" lon="10.813002018257976">
        <ele>-5.63</ele>
        <time>2019-05-08T07:25:14Z</time>
      </trkpt>
      <trkpt lat="54.105234006419778" lon="10.814297022297978">
        <ele>-5.15</ele>
        <time>2019-05-08T07:25:23Z</time>
      </trkpt>
      <trkpt lat="54.105294020846486" lon="10.814591981470585">
        <ele>-4.67</ele>
        <time>2019-05-08T07:25:30Z</time>
      </trkpt>
      <trkpt lat="54.105311958119273" lon="10.814677979797125">
        <ele>-4.19</ele>
        <time>2019-05-08T07:25:34Z</time>
      </trkpt>
      <trkpt lat="54.105516979470849" lon="10.815771985799074">
        <ele>-2.75</ele>
        <time>2019-05-08T07:25:41Z</time>
      </trkpt>
      <trkpt lat="54.105837000533938" lon="10.816880995407701">
        <ele>-1.79</ele>
        <time>2019-05-08T07:25:47Z</time>
      </trkpt>
      <trkpt lat="54.105887040495872" lon="10.817045029252768">
        <ele>-1.79</ele>
        <time>2019-05-08T07:25:48Z</time>
      </trkpt>
      <trkpt lat="54.105914030224085" lon="10.81720202229917">
        <ele>-1.3</ele>
        <time>2019-05-08T07:25:49Z</time>
      </trkpt>
      <trkpt lat="54.10592501051724" lon="10.817351974546909">
        <ele>-1.3</ele>
        <time>2019-05-08T07:25:50Z</time>
      </trkpt>
      <trkpt lat="54.105934984982014" lon="10.817480972036719">
        <ele>-1.3</ele>
        <time>2019-05-08T07:25:51Z</time>
      </trkpt>
      <trkpt lat="54.105944037437439" lon="10.817595971748233">
        <ele>-0.82</ele>
        <time>2019-05-08T07:25:52Z</time>
      </trkpt>
      <trkpt lat="54.105944037437439" lon="10.817708959802985">
        <ele>-0.34</ele>
        <time>2019-05-08T07:25:53Z</time>
      </trkpt>
      <trkpt lat="54.105930039659142" lon="10.817801998928189">
        <ele>0.14</ele>
        <time>2019-05-08T07:25:54Z</time>
      </trkpt>
      <trkpt lat="54.105918975546956" lon="10.817875005304813">
        <ele>0.62</ele>
        <time>2019-05-08T07:25:55Z</time>
      </trkpt>
      <trkpt lat="54.105846974998713" lon="10.818347996100783">
        <ele>3.98</ele>
        <time>2019-05-08T07:26:02Z</time>
      </trkpt>
      <trkpt lat="54.105610018596053" lon="10.81962900236249">
        <ele>8.789999999999999</ele>
        <time>2019-05-08T07:26:11Z</time>
      </trkpt>
      <trkpt lat="54.105478003621101" lon="10.821386016905308">
        <ele>14.56</ele>
        <time>2019-05-08T07:26:21Z</time>
      </trkpt>
      <trkpt lat="54.105439027771354" lon="10.823580985888839">
        <ele>18.399999999999999</ele>
        <time>2019-05-08T07:26:32Z</time>
      </trkpt>
      <trkpt lat="54.105155970901251" lon="10.825271029025316">
        <ele>17.920000000000002</ele>
        <time>2019-05-08T07:26:42Z</time>
      </trkpt>
      <trkpt lat="54.104856988415122" lon="10.826939027756453">
        <ele>16.48</ele>
        <time>2019-05-08T07:26:52Z</time>
      </trkpt>
      <trkpt lat="54.104578038677573" lon="10.828418014571071">
        <ele>14.56</ele>
        <time>2019-05-08T07:27:01Z</time>
      </trkpt>
      <trkpt lat="54.104506960138679" lon="10.828870972618461">
        <ele>15.039999999999999</ele>
        <time>2019-05-08T07:27:04Z</time>
      </trkpt>
      <trkpt lat="54.104460021480918" lon="10.829162998124957">
        <ele>16</ele>
        <time>2019-05-08T07:27:06Z</time>
      </trkpt>
      <trkpt lat="54.104396989569068" lon="10.829564994201064">
        <ele>18.399999999999999</ele>
        <time>2019-05-08T07:27:13Z</time>
      </trkpt>
      <trkpt lat="54.104338986799121" lon="10.829927008599043">
        <ele>20.32</ele>
        <time>2019-05-08T07:27:24Z</time>
      </trkpt>
      <trkpt lat="54.104328006505966" lon="10.829999009147286">
        <ele>20.32</ele>
        <time>2019-05-08T07:27:25Z</time>
      </trkpt>
      <trkpt lat="54.104268997907639" lon="10.830076960846782">
        <ele>20.809999999999999</ele>
        <time>2019-05-08T07:27:26Z</time>
      </trkpt>
      <trkpt lat="54.104190962389112" lon="10.830116020515561">
        <ele>21.289999999999999</ele>
        <time>2019-05-08T07:27:27Z</time>
      </trkpt>
      <trkpt lat="54.104175036773086" lon="10.830203024670482">
        <ele>21.77</ele>
        <time>2019-05-08T07:27:28Z</time>
      </trkpt>
      <trkpt lat="54.104158021509647" lon="10.830297991633415">
        <ele>21.77</ele>
        <time>2019-05-08T07:27:29Z</time>
      </trkpt>
      <trkpt lat="54.104199009016156" lon="10.830423971638083">
        <ele>22.25</ele>
        <time>2019-05-08T07:27:30Z</time>
      </trkpt>
      <trkpt lat="54.104252988472581" lon="10.830499995499849">
        <ele>22.25</ele>
        <time>2019-05-08T07:27:31Z</time>
      </trkpt>
      <trkpt lat="54.104332029819489" lon="10.830469988286495">
        <ele>22.25</ele>
        <time>2019-05-08T07:27:32Z</time>
      </trkpt>
      <trkpt lat="54.104457003995776" lon="10.830513993278146">
        <ele>22.73</ele>
        <time>2019-05-08T07:27:33Z</time>
      </trkpt>
      <trkpt lat="54.1045300103724" lon="10.830620024353266">
        <ele>22.73</ele>
        <time>2019-05-08T07:27:34Z</time>
      </trkpt>
      <trkpt lat="54.104609973728657" lon="10.830735024064779">
        <ele>22.73</ele>
        <time>2019-05-08T07:27:35Z</time>
      </trkpt>
      <trkpt lat="54.104692032560706" lon="10.830853963270783">
        <ele>22.73</ele>
        <time>2019-05-08T07:27:36Z</time>
      </trkpt>
      <trkpt lat="54.104968970641494" lon="10.831141965463758">
        <ele>23.210000000000001</ele>
        <time>2019-05-08T07:27:39Z</time>
      </trkpt>
      <trkpt lat="54.105078019201756" lon="10.831207009032369">
        <ele>23.210000000000001</ele>
        <time>2019-05-08T07:27:40Z</time>
      </trkpt>
      <trkpt lat="54.105182038620114" lon="10.8312520198524">
        <ele>23.210000000000001</ele>
        <time>2019-05-08T07:27:41Z</time>
      </trkpt>
      <trkpt lat="54.10530399531126" lon="10.831241961568594">
        <ele>23.210000000000001</ele>
        <time>2019-05-08T07:27:42Z</time>
      </trkpt>
      <trkpt lat="54.105428969487548" lon="10.8312329929322">
        <ele>23.690000000000001</ele>
        <time>2019-05-08T07:27:43Z</time>
      </trkpt>
      <trkpt lat="54.105556039139628" lon="10.831223018467426">
        <ele>23.210000000000001</ele>
        <time>2019-05-08T07:27:44Z</time>
      </trkpt>
      <trkpt lat="54.107237029820681" lon="10.830894028767943">
        <ele>18.399999999999999</ele>
        <time>2019-05-08T07:27:58Z</time>
      </trkpt>
      <trkpt lat="54.108649967238307" lon="10.830881958827376">
        <ele>12.15</ele>
        <time>2019-05-08T07:28:10Z</time>
      </trkpt>
      <trkpt lat="54.109992999583483" lon="10.830818004906178">
        <ele>6.39</ele>
        <time>2019-05-08T07:28:21Z</time>
      </trkpt>
      <trkpt lat="54.111496964469552" lon="10.831013973802328">
        <ele>4.94</ele>
        <time>2019-05-08T07:28:31Z</time>
      </trkpt>
      <trkpt lat="54.113032026216388" lon="10.831625014543533">
        <ele>10.23</ele>
        <time>2019-05-08T07:28:42Z</time>
      </trkpt>
      <trkpt lat="54.113881029188633" lon="10.831885021179914">
        <ele>11.67</ele>
        <time>2019-05-08T07:28:49Z</time>
      </trkpt>
      <trkpt lat="54.114213036373258" lon="10.831860965117812">
        <ele>12.630000000000001</ele>
        <time>2019-05-08T07:28:52Z</time>
      </trkpt>
      <trkpt lat="54.114345973357558" lon="10.831946041435003">
        <ele>12.630000000000001</ele>
        <time>2019-05-08T07:28:53Z</time>
      </trkpt>
      <trkpt lat="54.114414034411311" lon="10.832072021439672">
        <ele>12.630000000000001</ele>
        <time>2019-05-08T07:28:54Z</time>
      </trkpt>
      <trkpt lat="54.114490980282426" lon="10.832216022536159">
        <ele>13.119999999999999</ele>
        <time>2019-05-08T07:28:55Z</time>
      </trkpt>
      <trkpt lat="54.114577984437346" lon="10.832377960905433">
        <ele>13.119999999999999</ele>
        <time>2019-05-08T07:28:56Z</time>
      </trkpt>
      <trkpt lat="54.114669011905789" lon="10.832560015842319">
        <ele>13.119999999999999</ele>
        <time>2019-05-08T07:28:57Z</time>
      </trkpt>
      <trkpt lat="54.114763978868723" lon="10.832761013880372">
        <ele>13.119999999999999</ele>
        <time>2019-05-08T07:28:58Z</time>
      </trkpt>
      <trkpt lat="54.115674002096057" lon="10.834581982344389">
        <ele>12.15</ele>
        <time>2019-05-08T07:29:06Z</time>
      </trkpt>
      <trkpt lat="54.116204995661974" lon="10.835929038003087">
        <ele>10.23</ele>
        <time>2019-05-08T07:29:11Z</time>
      </trkpt>
      <trkpt lat="54.117006976157427" lon="10.838488033041358">
        <ele>10.23</ele>
        <time>2019-05-08T07:29:20Z</time>
      </trkpt>
      <trkpt lat="54.117452977225184" lon="10.84029802121222">
        <ele>16</ele>
        <time>2019-05-08T07:29:28Z</time>
      </trkpt>
      <trkpt lat="54.117531012743711" lon="10.840488960966468">
        <ele>16.48</ele>
        <time>2019-05-08T07:29:29Z</time>
      </trkpt>
      <trkpt lat="54.117622040212154" lon="10.840671015903354">
        <ele>16.960000000000001</ele>
        <time>2019-05-08T07:29:30Z</time>
      </trkpt>
      <trkpt lat="54.117724969983101" lon="10.840833960101008">
        <ele>16.960000000000001</ele>
        <time>2019-05-08T07:29:31Z</time>
      </trkpt>
      <trkpt lat="54.117835024371743" lon="10.840994976460934">
        <ele>16.960000000000001</ele>
        <time>2019-05-08T07:29:32Z</time>
      </trkpt>
      <trkpt lat="54.119021985679865" lon="10.842700023204088">
        <ele>16.960000000000001</ele>
        <time>2019-05-08T07:29:44Z</time>
      </trkpt>
      <trkpt lat="54.120113980025053" lon="10.843931995332241">
        <ele>16.960000000000001</ele>
        <time>2019-05-08T07:29:53Z</time>
      </trkpt>
      <trkpt lat="54.120931969955564" lon="10.844558961689472">
        <ele>15.039999999999999</ele>
        <time>2019-05-08T07:29:59Z</time>
      </trkpt>
      <trkpt lat="54.121745014563203" lon="10.845600999891758">
        <ele>16</ele>
        <time>2019-05-08T07:30:05Z</time>
      </trkpt>
      <trkpt lat="54.121874012053013" lon="10.845869975164533">
        <ele>16.48</ele>
        <time>2019-05-08T07:30:06Z</time>
      </trkpt>
      <trkpt lat="54.122347002848983" lon="10.847064983099699">
        <ele>19.359999999999999</ele>
        <time>2019-05-08T07:30:11Z</time>
      </trkpt>
      <trkpt lat="54.122968018054962" lon="10.848398040980101">
        <ele>23.690000000000001</ele>
        <time>2019-05-08T07:30:18Z</time>
      </trkpt>
      <trkpt lat="54.123090980574489" lon="10.848582023754716">
        <ele>24.170000000000002</ele>
        <time>2019-05-08T07:30:19Z</time>
      </trkpt>
      <trkpt lat="54.123226013034582" lon="10.848744967952371">
        <ele>24.649999999999999</ele>
        <time>2019-05-08T07:30:20Z</time>
      </trkpt>
      <trkpt lat="54.123375965282321" lon="10.848880000412464">
        <ele>24.649999999999999</ele>
        <time>2019-05-08T07:30:21Z</time>
      </trkpt>
      <trkpt lat="54.123547039926052" lon="10.848916964605451">
        <ele>25.129999999999999</ele>
        <time>2019-05-08T07:30:22Z</time>
      </trkpt>
      <trkpt lat="54.123709984123707" lon="10.848907995969057">
        <ele>25.129999999999999</ele>
        <time>2019-05-08T07:30:23Z</time>
      </trkpt>
      <trkpt lat="54.123875023797154" lon="10.848842030391097">
        <ele>25.609999999999999</ele>
        <time>2019-05-08T07:30:24Z</time>
      </trkpt>
      <trkpt lat="54.124050037935376" lon="10.848745973780751">
        <ele>26.09</ele>
        <time>2019-05-08T07:30:25Z</time>
      </trkpt>
      <trkpt lat="54.124233014881611" lon="10.848644971847534">
        <ele>26.57</ele>
        <time>2019-05-08T07:30:26Z</time>
      </trkpt>
      <trkpt lat="54.124608021229506" lon="10.848493007943034">
        <ele>28.02</ele>
        <time>2019-05-08T07:30:28Z</time>
      </trkpt>
      <trkpt lat="54.124785969033837" lon="10.848476998507977">
        <ele>28.5</ele>
        <time>2019-05-08T07:30:29Z</time>
      </trkpt>
      <trkpt lat="54.124966012313962" lon="10.848544975742698">
        <ele>28.98</ele>
        <time>2019-05-08T07:30:30Z</time>
      </trkpt>
      <trkpt lat="54.125147983431816" lon="10.848626028746367">
        <ele>28.98</ele>
        <time>2019-05-08T07:30:31Z</time>
      </trkpt>
      <trkpt lat="54.125333977863193" lon="10.848738010972738">
        <ele>28.98</ele>
        <time>2019-05-08T07:30:32Z</time>
      </trkpt>
      <trkpt lat="54.125531036406755" lon="10.848813029006124">
        <ele>28.98</ele>
        <time>2019-05-08T07:30:33Z</time>
      </trkpt>
      <trkpt lat="54.12573697976768" lon="10.848861979320645">
        <ele>28.5</ele>
        <time>2019-05-08T07:30:34Z</time>
      </trkpt>
      <trkpt lat="54.125948958098888" lon="10.848882012069225">
        <ele>27.530000000000001</ele>
        <time>2019-05-08T07:30:35Z</time>
      </trkpt>
      <trkpt lat="54.12616403773427" lon="10.848824009299278">
        <ele>27.050000000000001</ele>
        <time>2019-05-08T07:30:36Z</time>
      </trkpt>
      <trkpt lat="54.12638196721673" lon="10.848728958517313">
        <ele>26.09</ele>
        <time>2019-05-08T07:30:37Z</time>
      </trkpt>
      <trkpt lat="54.126602998003364" lon="10.848632985725999">
        <ele>25.129999999999999</ele>
        <time>2019-05-08T07:30:38Z</time>
      </trkpt>
      <trkpt lat="54.128844989463687" lon="10.847632018849254">
        <ele>22.25</ele>
        <time>2019-05-08T07:30:48Z</time>
      </trkpt>
      <trkpt lat="54.130429001525044" lon="10.84775104187429">
        <ele>22.73</ele>
        <time>2019-05-08T07:30:55Z</time>
      </trkpt>
      <trkpt lat="54.133686041459441" lon="10.848384965211153">
        <ele>22.25</ele>
        <time>2019-05-08T07:31:09Z</time>
      </trkpt>
      <trkpt lat="54.135320009663701" lon="10.848527038469911">
        <ele>22.25</ele>
        <time>2019-05-08T07:31:17Z</time>
      </trkpt>
      <trkpt lat="54.136204971000552" lon="10.848476998507977">
        <ele>19.84</ele>
        <time>2019-05-08T07:31:23Z</time>
      </trkpt>
      <trkpt lat="54.137548003345728" lon="10.848239958286285">
        <ele>15.039999999999999</ele>
        <time>2019-05-08T07:31:33Z</time>
      </trkpt>
      <trkpt lat="54.138957001268864" lon="10.847803009673953">
        <ele>10.23</ele>
        <time>2019-05-08T07:31:41Z</time>
      </trkpt>
      <trkpt lat="54.140825998038054" lon="10.847048973664641">
        <ele>8.789999999999999</ele>
        <time>2019-05-08T07:31:48Z</time>
      </trkpt>
      <trkpt lat="54.14380501024425" lon="10.846113972365856">
        <ele>3.5</ele>
        <time>2019-05-08T07:31:59Z</time>
      </trkpt>
      <trkpt lat="54.14569403976202" lon="10.846682013943791">
        <ele>3.98</ele>
        <time>2019-05-08T07:32:06Z</time>
      </trkpt>
      <trkpt lat="54.147679964080453" lon="10.848124958574772">
        <ele>9.27</ele>
        <time>2019-05-08T07:32:14Z</time>
      </trkpt>
      <trkpt lat="54.149725986644626" lon="10.850192019715905">
        <ele>14.08</ele>
        <time>2019-05-08T07:32:23Z</time>
      </trkpt>
      <trkpt lat="54.152062023058534" lon="10.853015966713428">
        <ele>18.399999999999999</ele>
        <time>2019-05-08T07:32:34Z</time>
      </trkpt>
      <trkpt lat="54.154026992619038" lon="10.856022974476218">
        <ele>21.77</ele>
        <time>2019-05-08T07:32:44Z</time>
      </trkpt>
      <trkpt lat="54.155548978596926" lon="10.857693990692496">
        <ele>25.129999999999999</ele>
        <time>2019-05-08T07:32:51Z</time>
      </trkpt>
      <trkpt lat="54.157079011201859" lon="10.859437007457018">
        <ele>27.530000000000001</ele>
        <time>2019-05-08T07:32:58Z</time>
      </trkpt>
      <trkpt lat="54.159469027072191" lon="10.863298969343305">
        <ele>28.02</ele>
        <time>2019-05-08T07:33:10Z</time>
      </trkpt>
      <trkpt lat="54.159956015646458" lon="10.864173034206033">
        <ele>28.5</ele>
        <time>2019-05-08T07:33:13Z</time>
      </trkpt>
      <trkpt lat="54.160086018964648" lon="10.864487020298839">
        <ele>28.5</ele>
        <time>2019-05-08T07:33:14Z</time>
      </trkpt>
      <trkpt lat="54.160199007019401" lon="10.864826990291476">
        <ele>28.5</ele>
        <time>2019-05-08T07:33:15Z</time>
      </trkpt>
      <trkpt lat="54.160296991467476" lon="10.865181041881442">
        <ele>28.98</ele>
        <time>2019-05-08T07:33:16Z</time>
      </trkpt>
      <trkpt lat="54.160391958430409" lon="10.865525035187602">
        <ele>28.98</ele>
        <time>2019-05-08T07:33:17Z</time>
      </trkpt>
      <trkpt lat="54.160594968125224" lon="10.866109002381563">
        <ele>28.98</ele>
        <time>2019-05-08T07:33:19Z</time>
      </trkpt>
      <trkpt lat="54.160895962268114" lon="10.866711996495724">
        <ele>29.460000000000001</ele>
        <time>2019-05-08T07:33:22Z</time>
      </trkpt>
      <trkpt lat="54.160956982523203" lon="10.867079040035605">
        <ele>29.940000000000001</ele>
        <time>2019-05-08T07:33:23Z</time>
      </trkpt>
      <trkpt lat="54.160924041643739" lon="10.867307027801871">
        <ele>30.420000000000002</ele>
        <time>2019-05-08T07:33:24Z</time>
      </trkpt>
      <trkpt lat="54.160907026380301" lon="10.867583965882659">
        <ele>30.420000000000002</ele>
        <time>2019-05-08T07:33:25Z</time>
      </trkpt>
      <trkpt lat="54.160887999460101" lon="10.867892000824213">
        <ele>30.420000000000002</ele>
        <time>2019-05-08T07:33:26Z</time>
      </trkpt>
      <trkpt lat="54.160903003066778" lon="10.86823096498847">
        <ele>29.940000000000001</ele>
        <time>2019-05-08T07:33:27Z</time>
      </trkpt>
      <trkpt lat="54.160935021936893" lon="10.868588034063578">
        <ele>29.940000000000001</ele>
        <time>2019-05-08T07:33:28Z</time>
      </trkpt>
      <trkpt lat="54.161277003586292" lon="10.872275987640023">
        <ele>27.530000000000001</ele>
        <time>2019-05-08T07:33:37Z</time>
      </trkpt>
      <trkpt lat="54.161646980792284" lon="10.875948015600443">
        <ele>26.57</ele>
        <time>2019-05-08T07:33:46Z</time>
      </trkpt>
      <trkpt lat="54.162265984341502" lon="10.878175003454089">
        <ele>26.57</ele>
        <time>2019-05-08T07:33:52Z</time>
      </trkpt>
      <trkpt lat="54.163458980619907" lon="10.881148986518383">
        <ele>29.940000000000001</ele>
        <time>2019-05-08T07:34:01Z</time>
      </trkpt>
      <trkpt lat="54.164031967520714" lon="10.882663009688258">
        <ele>31.379999999999999</ele>
        <time>2019-05-08T07:34:06Z</time>
      </trkpt>
      <trkpt lat="54.164094999432564" lon="10.882993005216122">
        <ele>31.859999999999999</ele>
        <time>2019-05-08T07:34:07Z</time>
      </trkpt>
      <trkpt lat="54.164142021909356" lon="10.883319983258843">
        <ele>31.859999999999999</ele>
        <time>2019-05-08T07:34:08Z</time>
      </trkpt>
      <trkpt lat="54.164186026901007" lon="10.88363204151392">
        <ele>32.340000000000003</ele>
        <time>2019-05-08T07:34:09Z</time>
      </trkpt>
      <trkpt lat="54.164200024679303" lon="10.883930018171668">
        <ele>32.340000000000003</ele>
        <time>2019-05-08T07:34:10Z</time>
      </trkpt>
      <trkpt lat="54.164192983880639" lon="10.8842150028795">
        <ele>32.340000000000003</ele>
        <time>2019-05-08T07:34:11Z</time>
      </trkpt>
      <trkpt lat="54.164162976667285" lon="10.884476015344262">
        <ele>31.859999999999999</ele>
        <time>2019-05-08T07:34:12Z</time>
      </trkpt>
      <trkpt lat="54.164134981110692" lon="10.884714983403683">
        <ele>31.859999999999999</ele>
        <time>2019-05-08T07:34:13Z</time>
      </trkpt>
      <trkpt lat="54.164102962240577" lon="10.884929979220033">
        <ele>31.379999999999999</ele>
        <time>2019-05-08T07:34:14Z</time>
      </trkpt>
      <trkpt lat="54.163981005549431" lon="10.885479999706149">
        <ele>29.940000000000001</ele>
        <time>2019-05-08T07:34:19Z</time>
      </trkpt>
      <trkpt lat="54.163985028862953" lon="10.885562980547547">
        <ele>29.460000000000001</ele>
        <time>2019-05-08T07:34:20Z</time>
      </trkpt>
      <trkpt lat="54.164019981399179" lon="10.885562980547547">
        <ele>29.460000000000001</ele>
        <time>2019-05-08T07:34:21Z</time>
      </trkpt>
      <trkpt lat="54.164075972512364" lon="10.885562980547547">
        <ele>29.460000000000001</ele>
        <time>2019-05-08T07:34:22Z</time>
      </trkpt>
      <trkpt lat="54.164144033566117" lon="10.885562980547547">
        <ele>28.98</ele>
        <time>2019-05-08T07:34:23Z</time>
      </trkpt>
      <trkpt lat="54.164225002750754" lon="10.885562980547547">
        <ele>28.98</ele>
        <time>2019-05-08T07:34:24Z</time>
      </trkpt>
      <trkpt lat="54.164521973580122" lon="10.885562980547547">
        <ele>28.02</ele>
        <time>2019-05-08T07:34:27Z</time>
      </trkpt>
      <trkpt lat="54.164630016312003" lon="10.88556700386107">
        <ele>27.530000000000001</ele>
        <time>2019-05-08T07:34:28Z</time>
      </trkpt>
      <trkpt lat="54.164739986881614" lon="10.885600028559566">
        <ele>27.050000000000001</ele>
        <time>2019-05-08T07:34:29Z</time>
      </trkpt>
      <trkpt lat="54.164854986593127" lon="10.885644033551216">
        <ele>26.57</ele>
        <time>2019-05-08T07:34:30Z</time>
      </trkpt>
      <trkpt lat="54.164966968819499" lon="10.88571997359395">
        <ele>26.09</ele>
        <time>2019-05-08T07:34:31Z</time>
      </trkpt>
      <trkpt lat="54.166029961779714" lon="10.886282986029983">
        <ele>24.170000000000002</ele>
        <time>2019-05-08T07:34:39Z</time>
      </trkpt>
      <trkpt lat="54.166376972571015" lon="10.886416006833315">
        <ele>23.210000000000001</ele>
        <time>2019-05-08T07:34:42Z</time>
      </trkpt>
      <trkpt lat="54.166706968098879" lon="10.886671990156174">
        <ele>22.73</ele>
        <time>2019-05-08T07:34:45Z</time>
      </trkpt>
      <trkpt lat="54.167448012158275" lon="10.887429965659976">
        <ele>24.649999999999999</ele>
        <time>2019-05-08T07:34:52Z</time>
      </trkpt>
      <trkpt lat="54.167894013226032" lon="10.887686032801867">
        <ele>27.050000000000001</ele>
        <time>2019-05-08T07:34:57Z</time>
      </trkpt>
      <trkpt lat="54.167986968532205" lon="10.887702964246273">
        <ele>27.530000000000001</ele>
        <time>2019-05-08T07:34:58Z</time>
      </trkpt>
      <trkpt lat="54.168906966224313" lon="10.887877978384495">
        <ele>30.420000000000002</ele>
        <time>2019-05-08T07:35:07Z</time>
      </trkpt>
      <trkpt lat="54.169907011091709" lon="10.888129016384482">
        <ele>32.82</ele>
        <time>2019-05-08T07:35:17Z</time>
      </trkpt>
      <trkpt lat="54.170000972226262" lon="10.888214008882642">
        <ele>32.82</ele>
        <time>2019-05-08T07:35:18Z</time>
      </trkpt>
      <trkpt lat="54.170087976381183" lon="10.888326996937394">
        <ele>32.82</ele>
        <time>2019-05-08T07:35:19Z</time>
      </trkpt>
      <trkpt lat="54.170331973582506" lon="10.888644000515342">
        <ele>32.82</ele>
        <time>2019-05-08T07:35:22Z</time>
      </trkpt>
      <trkpt lat="54.170503970235586" lon="10.888866959139705">
        <ele>32.82</ele>
        <time>2019-05-08T07:35:28Z</time>
      </trkpt>
      <trkpt lat="54.170503970235586" lon="10.888866959139705">
        <ele>32.340000000000003</ele>
        <time>2019-05-08T07:35:42Z</time>
      </trkpt>
      <trkpt lat="54.170503970235586" lon="10.888866959139705">
        <ele>32.82</ele>
        <time>2019-05-08T07:36:24Z</time>
      </trkpt>
      <trkpt lat="54.170542024075985" lon="10.888915993273258">
        <ele>33.299999999999997</ele>
        <time>2019-05-08T07:36:58Z</time>
      </trkpt>
      <trkpt lat="54.170583011582494" lon="10.888968966901302">
        <ele>34.259999999999998</ele>
        <time>2019-05-08T07:36:59Z</time>
      </trkpt>
      <trkpt lat="54.170641014352441" lon="10.889043984934688">
        <ele>35.229999999999997</ele>
        <time>2019-05-08T07:37:00Z</time>
      </trkpt>
      <trkpt lat="54.171238979324698" lon="10.889819981530309">
        <ele>35.229999999999997</ele>
        <time>2019-05-08T07:37:07Z</time>
      </trkpt>
      <trkpt lat="54.17173401452601" lon="10.890462035313249">
        <ele>35.710000000000001</ele>
        <time>2019-05-08T07:37:12Z</time>
      </trkpt>
      <trkpt lat="54.171790005639195" lon="10.890534035861492">
        <ele>35.710000000000001</ele>
        <time>2019-05-08T07:37:13Z</time>
      </trkpt>
      <trkpt lat="54.171872986480594" lon="10.890641994774342">
        <ele>35.710000000000001</ele>
        <time>2019-05-08T07:37:15Z</time>
      </trkpt>
      <trkpt lat="54.17190601117909" lon="10.890684993937612">
        <ele>35.710000000000001</ele>
        <time>2019-05-08T07:37:16Z</time>
      </trkpt>
      <trkpt lat="54.171903999522328" lon="10.890759006142616">
        <ele>35.710000000000001</ele>
        <time>2019-05-08T07:37:17Z</time>
      </trkpt>
      <trkpt lat="54.171897964552045" lon="10.890825977548957">
        <ele>35.710000000000001</ele>
        <time>2019-05-08T07:37:18Z</time>
      </trkpt>
      <trkpt lat="54.171890001744032" lon="10.890906024724245">
        <ele>35.229999999999997</ele>
        <time>2019-05-08T07:37:19Z</time>
      </trkpt>
      <trkpt lat="54.171881033107638" lon="10.890998980030417">
        <ele>35.229999999999997</ele>
        <time>2019-05-08T07:37:20Z</time>
      </trkpt>
      <trkpt lat="54.171869968995452" lon="10.891108028590679">
        <ele>35.229999999999997</ele>
        <time>2019-05-08T07:37:21Z</time>
      </trkpt>
      <trkpt lat="54.171858988702297" lon="10.89121900498867">
        <ele>35.229999999999997</ele>
        <time>2019-05-08T07:37:22Z</time>
      </trkpt>
      <trkpt lat="54.171850020065904" lon="10.891320006921887">
        <ele>35.710000000000001</ele>
        <time>2019-05-08T07:37:23Z</time>
      </trkpt>
      <trkpt lat="54.171840967610478" lon="10.891408016905189">
        <ele>35.710000000000001</ele>
        <time>2019-05-08T07:37:24Z</time>
      </trkpt>
      <trkpt lat="54.171833004802465" lon="10.891485968604684">
        <ele>35.710000000000001</ele>
        <time>2019-05-08T07:37:25Z</time>
      </trkpt>
      <trkpt lat="54.171829987317324" lon="10.891589988023043">
        <ele>35.710000000000001</ele>
        <time>2019-05-08T07:37:26Z</time>
      </trkpt>
      <trkpt lat="54.171856977045536" lon="10.891682021319866">
        <ele>35.710000000000001</ele>
        <time>2019-05-08T07:37:27Z</time>
      </trkpt>
      <trkpt lat="54.171909028664231" lon="10.891771037131548">
        <ele>35.710000000000001</ele>
        <time>2019-05-08T07:37:28Z</time>
      </trkpt>
      <trkpt lat="54.171965019777417" lon="10.891838008537889">
        <ele>36.189999999999998</ele>
        <time>2019-05-08T07:37:29Z</time>
      </trkpt>
      <trkpt lat="54.172026040032506" lon="10.891911014914513">
        <ele>36.189999999999998</ele>
        <time>2019-05-08T07:37:30Z</time>
      </trkpt>
      <trkpt lat="54.172098962590098" lon="10.891989972442389">
        <ele>36.189999999999998</ele>
        <time>2019-05-08T07:37:31Z</time>
      </trkpt>
      <trkpt lat="54.172176998108625" lon="10.892045041546226">
        <ele>36.189999999999998</ele>
        <time>2019-05-08T07:37:32Z</time>
      </trkpt>
      <trkpt lat="54.172258973121643" lon="10.892102960497141">
        <ele>35.710000000000001</ele>
        <time>2019-05-08T07:37:33Z</time>
      </trkpt>
      <trkpt lat="54.172340026125312" lon="10.892159035429358">
        <ele>35.710000000000001</ele>
        <time>2019-05-08T07:37:34Z</time>
      </trkpt>
      <trkpt lat="54.172411020845175" lon="10.892208991572261">
        <ele>35.710000000000001</ele>
        <time>2019-05-08T07:37:35Z</time>
      </trkpt>
      <trkpt lat="54.172478998079896" lon="10.892257019877434">
        <ele>35.710000000000001</ele>
        <time>2019-05-08T07:37:36Z</time>
      </trkpt>
      <trkpt lat="54.172682007774711" lon="10.89240001514554">
        <ele>36.670000000000002</ele>
        <time>2019-05-08T07:37:39Z</time>
      </trkpt>
      <trkpt lat="54.172747973352671" lon="10.892445025965571">
        <ele>37.149999999999999</ele>
        <time>2019-05-08T07:37:40Z</time>
      </trkpt>
      <trkpt lat="54.172865990549326" lon="10.89252901263535">
        <ele>38.109999999999999</ele>
        <time>2019-05-08T07:37:42Z</time>
      </trkpt>
      <trkpt lat="54.172922987490892" lon="10.892568994313478">
        <ele>38.109999999999999</ele>
        <time>2019-05-08T07:37:43Z</time>
      </trkpt>
      <trkpt lat="54.172986019402742" lon="10.892612999305129">
        <ele>38.590000000000003</ele>
        <time>2019-05-08T07:37:44Z</time>
      </trkpt>
      <trkpt lat="54.17321702465415" lon="10.892802011221647">
        <ele>39.549999999999997</ele>
        <time>2019-05-08T07:37:47Z</time>
      </trkpt>
      <trkpt lat="54.173297993838787" lon="10.892876023426652">
        <ele>39.549999999999997</ele>
        <time>2019-05-08T07:37:48Z</time>
      </trkpt>
      <trkpt lat="54.173541991040111" lon="10.893098982051015">
        <ele>40.509999999999998</ele>
        <time>2019-05-08T07:37:51Z</time>
      </trkpt>
      <trkpt lat="54.173614997416735" lon="10.893191015347838">
        <ele>40.509999999999998</ele>
        <time>2019-05-08T07:37:52Z</time>
      </trkpt>
      <trkpt lat="54.173674006015062" lon="10.893296040594578">
        <ele>40.509999999999998</ele>
        <time>2019-05-08T07:37:53Z</time>
      </trkpt>
      <trkpt lat="54.173892019316554" lon="10.893649002537131">
        <ele>40.509999999999998</ele>
        <time>2019-05-08T07:37:57Z</time>
      </trkpt>
      <trkpt lat="54.173955973237753" lon="10.89368898421526">
        <ele>40.509999999999998</ele>
        <time>2019-05-08T07:37:58Z</time>
      </trkpt>
      <trkpt lat="54.174022022634745" lon="10.893729971721768">
        <ele>40.509999999999998</ele>
        <time>2019-05-08T07:37:59Z</time>
      </trkpt>
      <trkpt lat="54.174091005697846" lon="10.893772970885038">
        <ele>40.509999999999998</ele>
        <time>2019-05-08T07:38:00Z</time>
      </trkpt>
      <trkpt lat="54.174152025952935" lon="10.893811024725437">
        <ele>40.509999999999998</ele>
        <time>2019-05-08T07:38:01Z</time>
      </trkpt>
      <trkpt lat="54.17433500289917" lon="10.894005987793207">
        <ele>40.509999999999998</ele>
        <time>2019-05-08T07:38:06Z</time>
      </trkpt>
      <trkpt lat="54.174358975142241" lon="10.894035995006561">
        <ele>40.509999999999998</ele>
        <time>2019-05-08T07:38:07Z</time>
      </trkpt>
      <trkpt lat="54.174365010112524" lon="10.894081005826592">
        <ele>40.509999999999998</ele>
        <time>2019-05-08T07:38:08Z</time>
      </trkpt>
      <trkpt lat="54.174349000677466" lon="10.894106989726424">
        <ele>40.509999999999998</ele>
        <time>2019-05-08T07:38:09Z</time>
      </trkpt>
      <trkpt lat="54.174327040091157" lon="10.894141020253301">
        <ele>40.030000000000001</ele>
        <time>2019-05-08T07:38:10Z</time>
      </trkpt>
      <trkpt lat="54.174296027049422" lon="10.894189970567822">
        <ele>40.030000000000001</ele>
        <time>2019-05-08T07:38:11Z</time>
      </trkpt>
      <trkpt lat="54.174255961552262" lon="10.894251996651292">
        <ele>40.030000000000001</ele>
        <time>2019-05-08T07:38:12Z</time>
      </trkpt>
      <trkpt lat="54.174059992656112" lon="10.894558019936085">
        <ele>40.030000000000001</ele>
        <time>2019-05-08T07:38:16Z</time>
      </trkpt>
      <trkpt lat="54.174023028463125" lon="10.894638989120722">
        <ele>39.549999999999997</ele>
        <time>2019-05-08T07:38:17Z</time>
      </trkpt>
      <trkpt lat="54.173996038734913" lon="10.894732028245926">
        <ele>39.549999999999997</ele>
        <time>2019-05-08T07:38:18Z</time>
      </trkpt>
      <trkpt lat="54.173967037349939" lon="10.894829006865621">
        <ele>39.07</ele>
        <time>2019-05-08T07:38:19Z</time>
      </trkpt>
      <trkpt lat="54.173936024308205" lon="10.89493403211236">
        <ele>39.07</ele>
        <time>2019-05-08T07:38:20Z</time>
      </trkpt>
      <trkpt lat="54.173922026529908" lon="10.895047020167112">
        <ele>38.590000000000003</ele>
        <time>2019-05-08T07:38:21Z</time>
      </trkpt>
      <trkpt lat="54.173902999609709" lon="10.895326975733042">
        <ele>38.590000000000003</ele>
        <time>2019-05-08T07:38:24Z</time>
      </trkpt>
      <trkpt lat="54.173898976296186" lon="10.895387995988131">
        <ele>38.590000000000003</ele>
        <time>2019-05-08T07:38:25Z</time>
      </trkpt>
      <trkpt lat="54.173895958811045" lon="10.89542998932302">
        <ele>38.590000000000003</ele>
        <time>2019-05-08T07:38:26Z</time>
      </trkpt>
      <trkpt lat="54.173894030973315" lon="10.895459996536374">
        <ele>38.590000000000003</ele>
        <time>2019-05-08T07:38:27Z</time>
      </trkpt>
      <trkpt lat="54.17388497851789" lon="10.895583964884281">
        <ele>39.07</ele>
        <time>2019-05-08T07:38:28Z</time>
      </trkpt>
      <trkpt lat="54.17388497851789" lon="10.895583964884281">
        <ele>39.07</ele>
        <time>2019-05-08T07:38:29Z</time>
      </trkpt>
      <trkpt lat="54.173887996003032" lon="10.895548006519675">
        <ele>39.07</ele>
        <time>2019-05-08T07:38:30Z</time>
      </trkpt>
      <trkpt lat="54.17388497851789" lon="10.895583964884281">
        <ele>39.07</ele>
        <time>2019-05-08T07:38:31Z</time>
      </trkpt>
      <trkpt lat="54.173886990174651" lon="10.895645990967751">
        <ele>39.549999999999997</ele>
        <time>2019-05-08T07:38:34Z</time>
      </trkpt>
      <trkpt lat="54.173887996003032" lon="10.895685972645879">
        <ele>39.549999999999997</ele>
        <time>2019-05-08T07:38:35Z</time>
      </trkpt>
      <trkpt lat="54.173890007659793" lon="10.895740035921335">
        <ele>39.549999999999997</ele>
        <time>2019-05-08T07:38:36Z</time>
      </trkpt>
      <trkpt lat="54.173892019316554" lon="10.895808013156056">
        <ele>39.549999999999997</ele>
        <time>2019-05-08T07:38:37Z</time>
      </trkpt>
      <trkpt lat="54.173894030973315" lon="10.895873978734016">
        <ele>39.549999999999997</ele>
        <time>2019-05-08T07:38:38Z</time>
      </trkpt>
      <trkpt lat="54.173896964639425" lon="10.895938016474247">
        <ele>39.549999999999997</ele>
        <time>2019-05-08T07:38:39Z</time>
      </trkpt>
      <trkpt lat="54.173898976296186" lon="10.896006999537349">
        <ele>39.549999999999997</ele>
        <time>2019-05-08T07:38:40Z</time>
      </trkpt>
      <trkpt lat="54.173900987952948" lon="10.896086040884256">
        <ele>39.549999999999997</ele>
        <time>2019-05-08T07:38:41Z</time>
      </trkpt>
      <trkpt lat="54.173907022923231" lon="10.896241022273898">
        <ele>39.07</ele>
        <time>2019-05-08T07:38:43Z</time>
      </trkpt>
      <trkpt lat="54.173909034579992" lon="10.896310005337">
        <ele>39.07</ele>
        <time>2019-05-08T07:38:44Z</time>
      </trkpt>
      <trkpt lat="54.173910962417722" lon="10.896370019763708">
        <ele>38.590000000000003</ele>
        <time>2019-05-08T07:38:45Z</time>
      </trkpt>
      <trkpt lat="54.173912974074483" lon="10.896425005048513">
        <ele>38.590000000000003</ele>
        <time>2019-05-08T07:38:46Z</time>
      </trkpt>
      <trkpt lat="54.173913979902864" lon="10.896478984504938">
        <ele>38.109999999999999</ele>
        <time>2019-05-08T07:38:47Z</time>
      </trkpt>
      <trkpt lat="54.173915991559625" lon="10.896531958132982">
        <ele>37.630000000000003</ele>
        <time>2019-05-08T07:38:48Z</time>
      </trkpt>
      <trkpt lat="54.173918003216386" lon="10.896575963124633">
        <ele>37.630000000000003</ele>
        <time>2019-05-08T07:38:49Z</time>
      </trkpt>
      <trkpt lat="54.173919009044766" lon="10.896627008914948">
        <ele>37.149999999999999</ele>
        <time>2019-05-08T07:38:50Z</time>
      </trkpt>
      <trkpt lat="54.173922026529908" lon="10.896699009463191">
        <ele>36.670000000000002</ele>
        <time>2019-05-08T07:38:51Z</time>
      </trkpt>
      <trkpt lat="54.173914985731244" lon="10.896990029141307">
        <ele>35.710000000000001</ele>
        <time>2019-05-08T07:38:54Z</time>
      </trkpt>
      <trkpt lat="54.173889001831412" lon="10.897185998037457">
        <ele>35.710000000000001</ele>
        <time>2019-05-08T07:38:56Z</time>
      </trkpt>
      <trkpt lat="54.173875004053116" lon="10.897286999970675">
        <ele>35.710000000000001</ele>
        <time>2019-05-08T07:38:57Z</time>
      </trkpt>
      <trkpt lat="54.1738620121032" lon="10.897390013560653">
        <ele>35.710000000000001</ele>
        <time>2019-05-08T07:38:58Z</time>
      </trkpt>
      <trkpt lat="54.173848014324903" lon="10.89749202132225">
        <ele>35.229999999999997</ele>
        <time>2019-05-08T07:38:59Z</time>
      </trkpt>
      <trkpt lat="54.173833010718226" lon="10.897606015205383">
        <ele>35.229999999999997</ele>
        <time>2019-05-08T07:39:00Z</time>
      </trkpt>
      <trkpt lat="54.173817001283169" lon="10.897725960239768">
        <ele>34.740000000000002</ele>
        <time>2019-05-08T07:39:01Z</time>
      </trkpt>
      <trkpt lat="54.173800991848111" lon="10.897841965779662">
        <ele>34.259999999999998</ele>
        <time>2019-05-08T07:39:02Z</time>
      </trkpt>
      <trkpt lat="54.173752963542938" lon="10.898003987967968">
        <ele>32.82</ele>
        <time>2019-05-08T07:39:03Z</time>
      </trkpt>
      <trkpt lat="54.173717005178332" lon="10.89811697602272">
        <ele>31.859999999999999</ele>
        <time>2019-05-08T07:39:04Z</time>
      </trkpt>
      <trkpt lat="54.173681968823075" lon="10.898227030411363">
        <ele>30.420000000000002</ele>
        <time>2019-05-08T07:39:05Z</time>
      </trkpt>
      <trkpt lat="54.17364701628685" lon="10.898338006809354">
        <ele>29.460000000000001</ele>
        <time>2019-05-08T07:39:06Z</time>
      </trkpt>
      <trkpt lat="54.173611979931593" lon="10.898448983207345">
        <ele>28.5</ele>
        <time>2019-05-08T07:39:07Z</time>
      </trkpt>
      <trkpt lat="54.173468984663486" lon="10.898898001760244">
        <ele>25.129999999999999</ele>
        <time>2019-05-08T07:39:11Z</time>
      </trkpt>
      <trkpt lat="54.173431014642119" lon="10.8990160189569">
        <ele>24.649999999999999</ele>
        <time>2019-05-08T07:39:12Z</time>
      </trkpt>
      <trkpt lat="54.173393966630101" lon="10.899134958162904">
        <ele>24.170000000000002</ele>
        <time>2019-05-08T07:39:13Z</time>
      </trkpt>
      <trkpt lat="54.173245020210743" lon="10.899601997807622">
        <ele>23.210000000000001</ele>
        <time>2019-05-08T07:39:17Z</time>
      </trkpt>
      <trkpt lat="54.173210989683867" lon="10.899710962548852">
        <ele>23.210000000000001</ele>
        <time>2019-05-08T07:39:18Z</time>
      </trkpt>
      <trkpt lat="54.173179976642132" lon="10.899822022765875">
        <ele>23.690000000000001</ele>
        <time>2019-05-08T07:39:19Z</time>
      </trkpt>
      <trkpt lat="54.173148963600397" lon="10.899927970021963">
        <ele>23.690000000000001</ele>
        <time>2019-05-08T07:39:20Z</time>
      </trkpt>
      <trkpt lat="54.173121973872185" lon="10.900023020803928">
        <ele>24.649999999999999</ele>
        <time>2019-05-08T07:39:21Z</time>
      </trkpt>
      <trkpt lat="54.173094984143972" lon="10.900116981938481">
        <ele>25.609999999999999</ele>
        <time>2019-05-08T07:39:22Z</time>
      </trkpt>
      <trkpt lat="54.173066988587379" lon="10.900216978043318">
        <ele>27.050000000000001</ele>
        <time>2019-05-08T07:39:23Z</time>
      </trkpt>
      <trkpt lat="54.173037987202406" lon="10.900316974148154">
        <ele>28.02</ele>
        <time>2019-05-08T07:39:24Z</time>
      </trkpt>
      <trkpt lat="54.173008985817432" lon="10.90041596442461">
        <ele>29.460000000000001</ele>
        <time>2019-05-08T07:39:25Z</time>
      </trkpt>
      <trkpt lat="54.172978978604078" lon="10.90052199549973">
        <ele>30.899999999999999</ele>
        <time>2019-05-08T07:39:26Z</time>
      </trkpt>
      <trkpt lat="54.172891974449158" lon="10.900827012956142">
        <ele>32.82</ele>
        <time>2019-05-08T07:39:29Z</time>
      </trkpt>
      <trkpt lat="54.172861967235804" lon="10.900931032374501">
        <ele>33.299999999999997</ele>
        <time>2019-05-08T07:39:30Z</time>
      </trkpt>
      <trkpt lat="54.172685025259852" lon="10.901548024266958">
        <ele>34.259999999999998</ele>
        <time>2019-05-08T07:39:36Z</time>
      </trkpt>
      <trkpt lat="54.172653006389737" lon="10.901661012321711">
        <ele>34.259999999999998</ele>
        <time>2019-05-08T07:39:37Z</time>
      </trkpt>
      <trkpt lat="54.172621993348002" lon="10.90176897123456">
        <ele>34.740000000000002</ele>
        <time>2019-05-08T07:39:38Z</time>
      </trkpt>
      <trkpt lat="54.172591986134648" lon="10.901871984824538">
        <ele>35.229999999999997</ele>
        <time>2019-05-08T07:39:39Z</time>
      </trkpt>
      <trkpt lat="54.172563990578055" lon="10.901971980929375">
        <ele>35.710000000000001</ele>
        <time>2019-05-08T07:39:40Z</time>
      </trkpt>
      <trkpt lat="54.172535995021462" lon="10.902068959549069">
        <ele>36.670000000000002</ele>
        <time>2019-05-08T07:39:41Z</time>
      </trkpt>
      <trkpt lat="54.172416971996427" lon="10.902484031394124">
        <ele>38.590000000000003</ele>
        <time>2019-05-08T07:39:45Z</time>
      </trkpt>
      <trkpt lat="54.172351006418467" lon="10.90271302498877">
        <ele>38.590000000000003</ele>
        <time>2019-05-08T07:39:47Z</time>
      </trkpt>
      <trkpt lat="54.17231597006321" lon="10.902834981679916">
        <ele>38.590000000000003</ele>
        <time>2019-05-08T07:39:48Z</time>
      </trkpt>
      <trkpt lat="54.172282023355365" lon="10.902952998876572">
        <ele>38.590000000000003</ele>
        <time>2019-05-08T07:39:49Z</time>
      </trkpt>
      <trkpt lat="54.172087982296944" lon="10.903773000463843">
        <ele>38.590000000000003</ele>
        <time>2019-05-08T07:39:56Z</time>
      </trkpt>
      <trkpt lat="54.17203601449728" lon="10.903995037078857">
        <ele>39.07</ele>
        <time>2019-05-08T07:39:58Z</time>
      </trkpt>
      <trkpt lat="54.171991003677249" lon="10.904190000146627">
        <ele>39.07</ele>
        <time>2019-05-08T07:40:00Z</time>
      </trkpt>
      <trkpt lat="54.171968037262559" lon="10.904291002079844">
        <ele>39.07</ele>
        <time>2019-05-08T07:40:01Z</time>
      </trkpt>
      <trkpt lat="54.171944987028837" lon="10.904390998184681">
        <ele>39.07</ele>
        <time>2019-05-08T07:40:02Z</time>
      </trkpt>
      <trkpt lat="54.171922020614147" lon="10.904489988461137">
        <ele>39.549999999999997</ele>
        <time>2019-05-08T07:40:03Z</time>
      </trkpt>
      <trkpt lat="54.171899976208806" lon="10.904585039243102">
        <ele>39.549999999999997</ele>
        <time>2019-05-08T07:40:04Z</time>
      </trkpt>
      <trkpt lat="54.171879021450877" lon="10.904679000377655">
        <ele>39.549999999999997</ele>
        <time>2019-05-08T07:40:05Z</time>
      </trkpt>
      <trkpt lat="54.171856977045536" lon="10.904772039502859">
        <ele>39.549999999999997</ele>
        <time>2019-05-08T07:40:06Z</time>
      </trkpt>
      <trkpt lat="54.171835016459227" lon="10.904869018122554">
        <ele>39.549999999999997</ele>
        <time>2019-05-08T07:40:07Z</time>
      </trkpt>
      <trkpt lat="54.171810960397124" lon="10.904972031712532">
        <ele>39.549999999999997</ele>
        <time>2019-05-08T07:40:08Z</time>
      </trkpt>
      <trkpt lat="54.171765027567744" lon="10.905170012265444">
        <ele>39.549999999999997</ele>
        <time>2019-05-08T07:40:10Z</time>
      </trkpt>
      <trkpt lat="54.171739965677261" lon="10.905279982835054">
        <ele>39.549999999999997</ele>
        <time>2019-05-08T07:40:11Z</time>
      </trkpt>
      <trkpt lat="54.171686992049217" lon="10.905508976429701">
        <ele>40.030000000000001</ele>
        <time>2019-05-08T07:40:13Z</time>
      </trkpt>
      <trkpt lat="54.171661008149385" lon="10.905620036646724">
        <ele>40.509999999999998</ele>
        <time>2019-05-08T07:40:14Z</time>
      </trkpt>
      <trkpt lat="54.171636030077934" lon="10.905731013044715">
        <ele>40.990000000000002</ele>
        <time>2019-05-08T07:40:15Z</time>
      </trkpt>
      <trkpt lat="54.171583978459239" lon="10.905953971669078">
        <ele>40.990000000000002</ele>
        <time>2019-05-08T07:40:17Z</time>
      </trkpt>
      <trkpt lat="54.171556988731027" lon="10.906071988865733">
        <ele>40.509999999999998</ele>
        <time>2019-05-08T07:40:18Z</time>
      </trkpt>
      <trkpt lat="54.171396978199482" lon="10.906768022105098">
        <ele>40.990000000000002</ele>
        <time>2019-05-08T07:40:24Z</time>
      </trkpt>
      <trkpt lat="54.17137099429965" lon="10.90688000433147">
        <ele>41.469999999999999</ele>
        <time>2019-05-08T07:40:25Z</time>
      </trkpt>
      <trkpt lat="54.171345010399818" lon="10.906991986557841">
        <ele>41.469999999999999</ele>
        <time>2019-05-08T07:40:26Z</time>
      </trkpt>
      <trkpt lat="54.171294970437884" lon="10.907208994030952">
        <ele>41.950000000000003</ele>
        <time>2019-05-08T07:40:28Z</time>
      </trkpt>
      <trkpt lat="54.171276027336717" lon="10.90728996321559">
        <ele>41.950000000000003</ele>
        <time>2019-05-08T07:40:29Z</time>
      </trkpt>
      <trkpt lat="54.17126496322453" lon="10.907338997349143">
        <ele>41.950000000000003</ele>
        <time>2019-05-08T07:40:30Z</time>
      </trkpt>
      <trkpt lat="54.171255994588137" lon="10.90737696737051">
        <ele>41.950000000000003</ele>
        <time>2019-05-08T07:40:31Z</time>
      </trkpt>
      <trkpt lat="54.171247025951743" lon="10.907416027039289">
        <ele>41.950000000000003</ele>
        <time>2019-05-08T07:40:32Z</time>
      </trkpt>
      <trkpt lat="54.171239985153079" lon="10.907447040081024">
        <ele>41.950000000000003</ele>
        <time>2019-05-08T07:40:33Z</time>
      </trkpt>
      <trkpt lat="54.171239985153079" lon="10.907447040081024">
        <ele>41.950000000000003</ele>
        <time>2019-05-08T07:40:34Z</time>
      </trkpt>
      <trkpt lat="54.171229004859924" lon="10.907495990395546">
        <ele>41.950000000000003</ele>
        <time>2019-05-08T07:40:35Z</time>
      </trkpt>
      <trkpt lat="54.171229004859924" lon="10.907495990395546">
        <ele>41.950000000000003</ele>
        <time>2019-05-08T07:40:46Z</time>
      </trkpt>
      <trkpt lat="54.171229004859924" lon="10.907495990395546">
        <ele>41.469999999999999</ele>
        <time>2019-05-08T07:41:24Z</time>
      </trkpt>
      <trkpt lat="54.171163961291313" lon="10.907778041437268">
        <ele>46.759999999999998</ele>
        <time>2019-05-08T07:41:47Z</time>
      </trkpt>
      <trkpt lat="54.171163961291313" lon="10.907778041437268">
        <ele>46.759999999999998</ele>
        <time>2019-05-08T07:42:09Z</time>
      </trkpt>
      <trkpt lat="54.171331012621522" lon="10.907917013391852">
        <ele>44.359999999999999</ele>
        <time>2019-05-08T07:42:45Z</time>
      </trkpt>
      <trkpt lat="54.171395972371101" lon="10.907965041697025">
        <ele>43.399999999999999</ele>
        <time>2019-05-08T07:42:46Z</time>
      </trkpt>
      <trkpt lat="54.171500997617841" lon="10.908069983124733">
        <ele>41.950000000000003</ele>
        <time>2019-05-08T07:42:48Z</time>
      </trkpt>
      <trkpt lat="54.171567969024181" lon="10.908164028078318">
        <ele>41.950000000000003</ele>
        <time>2019-05-08T07:42:49Z</time>
      </trkpt>
      <trkpt lat="54.171612979844213" lon="10.908266035839915">
        <ele>41.950000000000003</ele>
        <time>2019-05-08T07:42:50Z</time>
      </trkpt>
      <trkpt lat="54.171661008149385" lon="10.908375000581145">
        <ele>41.469999999999999</ele>
        <time>2019-05-08T07:42:51Z</time>
      </trkpt>
      <trkpt lat="54.171709036454558" lon="10.908483965322375">
        <ele>41.469999999999999</ele>
        <time>2019-05-08T07:42:52Z</time>
      </trkpt>
      <trkpt lat="54.1717569809407" lon="10.908595025539398">
        <ele>41.469999999999999</ele>
        <time>2019-05-08T07:42:53Z</time>
      </trkpt>
      <trkpt lat="54.171806015074253" lon="10.90868404135108">
        <ele>40.990000000000002</ele>
        <time>2019-05-08T07:42:54Z</time>
      </trkpt>
      <trkpt lat="54.171876003965735" lon="10.908780014142394">
        <ele>40.990000000000002</ele>
        <time>2019-05-08T07:42:55Z</time>
      </trkpt>
      <trkpt lat="54.171954039484262" lon="10.908887973055243">
        <ele>40.509999999999998</ele>
        <time>2019-05-08T07:42:56Z</time>
      </trkpt>
      <trkpt lat="54.172046994790435" lon="10.908979000523686">
        <ele>40.509999999999998</ele>
        <time>2019-05-08T07:42:57Z</time>
      </trkpt>
      <trkpt lat="54.17216501198709" lon="10.9090940002352">
        <ele>40.509999999999998</ele>
        <time>2019-05-08T07:42:58Z</time>
      </trkpt>
      <trkpt lat="54.173256000503898" lon="10.910194963216782">
        <ele>42.920000000000002</ele>
        <time>2019-05-08T07:43:06Z</time>
      </trkpt>
      <trkpt lat="54.174674972891808" lon="10.9118000138551">
        <ele>47.719999999999999</ele>
        <time>2019-05-08T07:43:16Z</time>
      </trkpt>
      <trkpt lat="54.175178976729512" lon="10.91233997605741">
        <ele>47.240000000000002</ele>
        <time>2019-05-08T07:43:20Z</time>
      </trkpt>
      <trkpt lat="54.17530101723969" lon="10.912470985203981">
        <ele>47.240000000000002</ele>
        <time>2019-05-08T07:43:21Z</time>
      </trkpt>
      <trkpt lat="54.175379974767566" lon="10.912599982693791">
        <ele>46.759999999999998</ele>
        <time>2019-05-08T07:43:22Z</time>
      </trkpt>
      <trkpt lat="54.175536967813969" lon="10.912856971845031">
        <ele>46.759999999999998</ele>
        <time>2019-05-08T07:43:23Z</time>
      </trkpt>
      <trkpt lat="54.175576027482748" lon="10.913012959063053">
        <ele>46.280000000000001</ele>
        <time>2019-05-08T07:43:24Z</time>
      </trkpt>
      <trkpt lat="54.175635036081076" lon="10.913246981799603">
        <ele>45.799999999999997</ele>
        <time>2019-05-08T07:43:25Z</time>
      </trkpt>
      <trkpt lat="54.1756890155375" lon="10.913466000929475">
        <ele>45.32</ele>
        <time>2019-05-08T07:43:26Z</time>
      </trkpt>
      <trkpt lat="54.175736038014293" lon="10.913653001189232">
        <ele>45.32</ele>
        <time>2019-05-08T07:43:27Z</time>
      </trkpt>
      <trkpt lat="54.175771996378899" lon="10.913795996457338">
        <ele>44.840000000000003</ele>
        <time>2019-05-08T07:43:28Z</time>
      </trkpt>
      <trkpt lat="54.175808038562536" lon="10.913829021155834">
        <ele>44.840000000000003</ele>
        <time>2019-05-08T07:43:29Z</time>
      </trkpt>
      <trkpt lat="54.175868974998593" lon="10.913876965641975">
        <ele>44.840000000000003</ele>
        <time>2019-05-08T07:43:30Z</time>
      </trkpt>
      <trkpt lat="54.175937036052346" lon="10.913931028917432">
        <ele>44.840000000000003</ele>
        <time>2019-05-08T07:43:31Z</time>
      </trkpt>
      <trkpt lat="54.176016999408603" lon="10.913994982838631">
        <ele>44.840000000000003</ele>
        <time>2019-05-08T07:43:32Z</time>
      </trkpt>
      <trkpt lat="54.176759971305728" lon="10.91465899720788">
        <ele>43.880000000000003</ele>
        <time>2019-05-08T07:43:41Z</time>
      </trkpt>
      <trkpt lat="54.177267998456955" lon="10.915209017693996">
        <ele>42.439999999999998</ele>
        <time>2019-05-08T07:43:48Z</time>
      </trkpt>
      <trkpt lat="54.177372017875314" lon="10.915235001593828">
        <ele>41.950000000000003</ele>
        <time>2019-05-08T07:43:49Z</time>
      </trkpt>
      <trkpt lat="54.17749498039484" lon="10.915256962180138">
        <ele>41.469999999999999</ele>
        <time>2019-05-08T07:43:50Z</time>
      </trkpt>
      <trkpt lat="54.178596027195454" lon="10.915457960218191">
        <ele>38.109999999999999</ele>
        <time>2019-05-08T07:43:58Z</time>
      </trkpt>
      <trkpt lat="54.179525999352336" lon="10.916248960420489">
        <ele>34.740000000000002</ele>
        <time>2019-05-08T07:44:06Z</time>
      </trkpt>
      <trkpt lat="54.180500982329249" lon="10.917877983301878">
        <ele>34.259999999999998</ele>
        <time>2019-05-08T07:44:16Z</time>
      </trkpt>
      <trkpt lat="54.181642010807991" lon="10.919974967837334">
        <ele>33.299999999999997</ele>
        <time>2019-05-08T07:44:26Z</time>
      </trkpt>
      <trkpt lat="54.182697040960193" lon="10.922044962644577">
        <ele>33.780000000000001</ele>
        <time>2019-05-08T07:44:35Z</time>
      </trkpt>
      <trkpt lat="54.18342299759388" lon="10.92417698353529">
        <ele>35.710000000000001</ele>
        <time>2019-05-08T07:44:43Z</time>
      </trkpt>
      <trkpt lat="54.183980980888009" lon="10.925850011408329">
        <ele>35.710000000000001</ele>
        <time>2019-05-08T07:44:49Z</time>
      </trkpt>
      <trkpt lat="54.18402599170804" lon="10.926158968359232">
        <ele>35.710000000000001</ele>
        <time>2019-05-08T07:44:50Z</time>
      </trkpt>
      <trkpt lat="54.184060022234917" lon="10.926429033279419">
        <ele>35.710000000000001</ele>
        <time>2019-05-08T07:44:51Z</time>
      </trkpt>
      <trkpt lat="54.184098998084664" lon="10.926740001887083">
        <ele>35.710000000000001</ele>
        <time>2019-05-08T07:44:52Z</time>
      </trkpt>
      <trkpt lat="54.184104027226567" lon="10.926837986335158">
        <ele>35.710000000000001</ele>
        <time>2019-05-08T07:44:53Z</time>
      </trkpt>
      <trkpt lat="54.184119030833244" lon="10.927135962992907">
        <ele>35.710000000000001</ele>
        <time>2019-05-08T07:44:55Z</time>
      </trkpt>
      <trkpt lat="54.184129005298018" lon="10.927258003503084">
        <ele>35.229999999999997</ele>
        <time>2019-05-08T07:44:56Z</time>
      </trkpt>
      <trkpt lat="54.184149038046598" lon="10.927459001541138">
        <ele>34.259999999999998</ele>
        <time>2019-05-08T07:44:58Z</time>
      </trkpt>
      <trkpt lat="54.184168986976147" lon="10.927653964608908">
        <ele>32.82</ele>
        <time>2019-05-08T07:45:00Z</time>
      </trkpt>
      <trkpt lat="54.184178961440921" lon="10.927754966542125">
        <ele>32.340000000000003</ele>
        <time>2019-05-08T07:45:01Z</time>
      </trkpt>
      <trkpt lat="54.184208968654275" lon="10.928058978170156">
        <ele>31.379999999999999</ele>
        <time>2019-05-08T07:45:04Z</time>
      </trkpt>
      <trkpt lat="54.184220032766461" lon="10.928166015073657">
        <ele>30.899999999999999</ele>
        <time>2019-05-08T07:45:05Z</time>
      </trkpt>
      <trkpt lat="54.184249034151435" lon="10.928457034751773">
        <ele>30.420000000000002</ele>
        <time>2019-05-08T07:45:08Z</time>
      </trkpt>
      <trkpt lat="54.184266971424222" lon="10.928548984229565">
        <ele>29.940000000000001</ele>
        <time>2019-05-08T07:45:09Z</time>
      </trkpt>
      <trkpt lat="54.184285998344421" lon="10.928640011698008">
        <ele>29.460000000000001</ele>
        <time>2019-05-08T07:45:10Z</time>
      </trkpt>
      <trkpt lat="54.184378031641245" lon="10.929101016372442">
        <ele>27.530000000000001</ele>
        <time>2019-05-08T07:45:15Z</time>
      </trkpt>
      <trkpt lat="54.184408038854599" lon="10.929199000820518">
        <ele>27.050000000000001</ele>
        <time>2019-05-08T07:45:16Z</time>
      </trkpt>
      <trkpt lat="54.184450032189488" lon="10.929336966946721">
        <ele>26.57</ele>
        <time>2019-05-08T07:45:17Z</time>
      </trkpt>
      <trkpt lat="54.184794025495648" lon="10.930467015132308">
        <ele>25.129999999999999</ele>
        <time>2019-05-08T07:45:22Z</time>
      </trkpt>
      <trkpt lat="54.185210019350052" lon="10.931946001946926">
        <ele>25.129999999999999</ele>
        <time>2019-05-08T07:45:27Z</time>
      </trkpt>
      <trkpt lat="54.185289982706308" lon="10.932197961956263">
        <ele>25.129999999999999</ele>
        <time>2019-05-08T07:45:28Z</time>
      </trkpt>
      <trkpt lat="54.18539802543819" lon="10.932422010228038">
        <ele>25.609999999999999</ele>
        <time>2019-05-08T07:45:29Z</time>
      </trkpt>
      <trkpt lat="54.186161030083895" lon="10.93378197401762">
        <ele>27.050000000000001</ele>
        <time>2019-05-08T07:45:35Z</time>
      </trkpt>
      <trkpt lat="54.186234036460519" lon="10.933943996205926">
        <ele>27.050000000000001</ele>
        <time>2019-05-08T07:45:36Z</time>
      </trkpt>
      <trkpt lat="54.186350964009762" lon="10.934472978115082">
        <ele>27.530000000000001</ele>
        <time>2019-05-08T07:45:39Z</time>
      </trkpt>
      <trkpt lat="54.186383988708258" lon="10.934652015566826">
        <ele>27.530000000000001</ele>
        <time>2019-05-08T07:45:40Z</time>
      </trkpt>
      <trkpt lat="54.186417013406754" lon="10.934849996119738">
        <ele>28.02</ele>
        <time>2019-05-08T07:45:41Z</time>
      </trkpt>
      <trkpt lat="54.186422964558005" lon="10.935094999149442">
        <ele>28.02</ele>
        <time>2019-05-08T07:45:42Z</time>
      </trkpt>
      <trkpt lat="54.186428999528289" lon="10.935369003564119">
        <ele>28.5</ele>
        <time>2019-05-08T07:45:43Z</time>
      </trkpt>
      <trkpt lat="54.186423970386386" lon="10.937675032764673">
        <ele>28.98</ele>
        <time>2019-05-08T07:45:50Z</time>
      </trkpt>
      <trkpt lat="54.186460012570024" lon="10.939009012654424">
        <ele>25.609999999999999</ele>
        <time>2019-05-08T07:45:55Z</time>
      </trkpt>
      <trkpt lat="54.186518015339971" lon="10.939225014299154">
        <ele>24.649999999999999</ele>
        <time>2019-05-08T07:45:56Z</time>
      </trkpt>
      <trkpt lat="54.186573000624776" lon="10.93943196348846">
        <ele>23.690000000000001</ele>
        <time>2019-05-08T07:45:57Z</time>
      </trkpt>
      <trkpt lat="54.186825966462493" lon="10.940386997535825">
        <ele>17.920000000000002</ele>
        <time>2019-05-08T07:46:03Z</time>
      </trkpt>
      <trkpt lat="54.18686100281775" lon="10.940520018339157">
        <ele>16.48</ele>
        <time>2019-05-08T07:46:04Z</time>
      </trkpt>
      <trkpt lat="54.186896961182356" lon="10.94065697863698">
        <ele>16</ele>
        <time>2019-05-08T07:46:05Z</time>
      </trkpt>
      <trkpt lat="54.186933003365993" lon="10.940792011097074">
        <ele>15.039999999999999</ele>
        <time>2019-05-08T07:46:06Z</time>
      </trkpt>
      <trkpt lat="54.186966028064489" lon="10.940917991101742">
        <ele>14.08</ele>
        <time>2019-05-08T07:46:07Z</time>
      </trkpt>
      <trkpt lat="54.187026964500546" lon="10.941145978868008">
        <ele>12.630000000000001</ele>
        <time>2019-05-08T07:46:09Z</time>
      </trkpt>
      <trkpt lat="54.187049008905888" lon="10.941229965537786">
        <ele>12.15</ele>
        <time>2019-05-08T07:46:10Z</time>
      </trkpt>
      <trkpt lat="54.187081027776003" lon="10.941353011876345">
        <ele>11.19</ele>
        <time>2019-05-08T07:46:11Z</time>
      </trkpt>
      <trkpt lat="54.18709896504879" lon="10.941360974684358">
        <ele>10.710000000000001</ele>
        <time>2019-05-08T07:46:12Z</time>
      </trkpt>
      <trkpt lat="54.187142970040441" lon="10.941381007432938">
        <ele>10.23</ele>
        <time>2019-05-08T07:46:13Z</time>
      </trkpt>
      <trkpt lat="54.187187980860472" lon="10.941401040181518">
        <ele>9.75</ele>
        <time>2019-05-08T07:46:14Z</time>
      </trkpt>
      <trkpt lat="54.187232991680503" lon="10.941421994939446">
        <ele>9.27</ele>
        <time>2019-05-08T07:46:15Z</time>
      </trkpt>
      <trkpt lat="54.187287976965308" lon="10.941446973010898">
        <ele>8.789999999999999</ele>
        <time>2019-05-08T07:46:16Z</time>
      </trkpt>
      <trkpt lat="54.18744002468884" lon="10.941485026851296">
        <ele>7.83</ele>
        <time>2019-05-08T07:46:18Z</time>
      </trkpt>
      <trkpt lat="54.187531974166632" lon="10.941502964124084">
        <ele>8.310000000000001</ele>
        <time>2019-05-08T07:46:19Z</time>
      </trkpt>
      <trkpt lat="54.187639011070132" lon="10.941543029621243">
        <ele>8.789999999999999</ele>
        <time>2019-05-08T07:46:20Z</time>
      </trkpt>
      <trkpt lat="54.188918005675077" lon="10.94200998544693">
        <ele>12.630000000000001</ele>
        <time>2019-05-08T07:46:29Z</time>
      </trkpt>
      <trkpt lat="54.19032197445631" lon="10.942511977627873">
        <ele>14.08</ele>
        <time>2019-05-08T07:46:37Z</time>
      </trkpt>
      <trkpt lat="54.190423982217908" lon="10.942502003163099">
        <ele>14.56</ele>
        <time>2019-05-08T07:46:38Z</time>
      </trkpt>
      <trkpt lat="54.190559014678001" lon="10.942465960979462">
        <ele>15.039999999999999</ele>
        <time>2019-05-08T07:46:39Z</time>
      </trkpt>
      <trkpt lat="54.190670996904373" lon="10.942342998459935">
        <ele>15.039999999999999</ele>
        <time>2019-05-08T07:46:40Z</time>
      </trkpt>
      <trkpt lat="54.190788008272648" lon="10.942215006798506">
        <ele>15.039999999999999</ele>
        <time>2019-05-08T07:46:41Z</time>
      </trkpt>
      <trkpt lat="54.19137298129499" lon="10.941459964960814">
        <ele>14.56</ele>
        <time>2019-05-08T07:46:48Z</time>
      </trkpt>
      <trkpt lat="54.191450010985136" lon="10.941440016031265">
        <ele>14.08</ele>
        <time>2019-05-08T07:46:49Z</time>
      </trkpt>
      <trkpt lat="54.19158898293972" lon="10.941403973847628">
        <ele>13.6</ele>
        <time>2019-05-08T07:46:51Z</time>
      </trkpt>
      <trkpt lat="54.191827028989792" lon="10.94134203158319">
        <ele>13.6</ele>
        <time>2019-05-08T07:46:54Z</time>
      </trkpt>
      <trkpt lat="54.191919984295964" lon="10.941277993842959">
        <ele>13.119999999999999</ele>
        <time>2019-05-08T07:46:55Z</time>
      </trkpt>
      <trkpt lat="54.192007994279265" lon="10.941189983859658">
        <ele>13.119999999999999</ele>
        <time>2019-05-08T07:46:56Z</time>
      </trkpt>
      <trkpt lat="54.192821960896254" lon="10.940438965335488">
        <ele>14.56</ele>
        <time>2019-05-08T07:47:04Z</time>
      </trkpt>
      <trkpt lat="54.192879041656852" lon="10.940395966172218">
        <ele>15.039999999999999</ele>
        <time>2019-05-08T07:47:05Z</time>
      </trkpt>
      <trkpt lat="54.192918017506599" lon="10.940365958958864">
        <ele>15.52</ele>
        <time>2019-05-08T07:47:06Z</time>
      </trkpt>
      <trkpt lat="54.192924974486232" lon="10.94037601724267">
        <ele>15.52</ele>
        <time>2019-05-08T07:47:07Z</time>
      </trkpt>
      <trkpt lat="54.192974008619785" lon="10.940443994477391">
        <ele>15.52</ele>
        <time>2019-05-08T07:47:08Z</time>
      </trkpt>
      <trkpt lat="54.193034023046494" lon="10.940526975318789">
        <ele>16</ele>
        <time>2019-05-08T07:47:09Z</time>
      </trkpt>
      <trkpt lat="54.193597035482526" lon="10.941308001056314">
        <ele>15.52</ele>
        <time>2019-05-08T07:47:15Z</time>
      </trkpt>
      <trkpt lat="54.194647958502173" lon="10.942767038941383">
        <ele>14.56</ele>
        <time>2019-05-08T07:47:23Z</time>
      </trkpt>
      <trkpt lat="54.195442982017994" lon="10.943908989429474">
        <ele>12.15</ele>
        <time>2019-05-08T07:47:30Z</time>
      </trkpt>
      <trkpt lat="54.19551900587976" lon="10.94409397803247">
        <ele>11.67</ele>
        <time>2019-05-08T07:47:31Z</time>
      </trkpt>
      <trkpt lat="54.195594023913145" lon="10.94424401409924">
        <ele>10.710000000000001</ele>
        <time>2019-05-08T07:47:32Z</time>
      </trkpt>
      <trkpt lat="54.195665018633008" lon="10.944357002153993">
        <ele>10.710000000000001</ele>
        <time>2019-05-08T07:47:33Z</time>
      </trkpt>
      <trkpt lat="54.195751016959548" lon="10.944403018802404">
        <ele>10.23</ele>
        <time>2019-05-08T07:47:34Z</time>
      </trkpt>
      <trkpt lat="54.195855958387256" lon="10.94445800408721">
        <ele>9.75</ele>
        <time>2019-05-08T07:47:35Z</time>
      </trkpt>
      <trkpt lat="54.19597296975553" lon="10.944520030170679">
        <ele>9.75</ele>
        <time>2019-05-08T07:47:36Z</time>
      </trkpt>
      <trkpt lat="54.196092998608947" lon="10.944532016292214">
        <ele>9.75</ele>
        <time>2019-05-08T07:47:37Z</time>
      </trkpt>
      <trkpt lat="54.19622803106904" lon="10.944492034614086">
        <ele>10.23</ele>
        <time>2019-05-08T07:47:38Z</time>
      </trkpt>
      <trkpt lat="54.196364991366863" lon="10.944451969116926">
        <ele>10.23</ele>
        <time>2019-05-08T07:47:39Z</time>
      </trkpt>
      <trkpt lat="54.196497006341815" lon="10.944412993267179">
        <ele>10.23</ele>
        <time>2019-05-08T07:47:40Z</time>
      </trkpt>
      <trkpt lat="54.196627009660006" lon="10.944375023245811">
        <ele>10.23</ele>
        <time>2019-05-08T07:47:41Z</time>
      </trkpt>
      <trkpt lat="54.196759024634957" lon="10.944335963577032">
        <ele>10.23</ele>
        <time>2019-05-08T07:47:42Z</time>
      </trkpt>
      <trkpt lat="54.196907971054316" lon="10.944403018802404">
        <ele>10.710000000000001</ele>
        <time>2019-05-08T07:47:43Z</time>
      </trkpt>
      <trkpt lat="54.197057001292706" lon="10.944469990208745">
        <ele>10.710000000000001</ele>
        <time>2019-05-08T07:47:44Z</time>
      </trkpt>
      <trkpt lat="54.197202008217573" lon="10.944535033777356">
        <ele>10.710000000000001</ele>
        <time>2019-05-08T07:47:45Z</time>
      </trkpt>
      <trkpt lat="54.197332011535764" lon="10.944593958556652">
        <ele>10.710000000000001</ele>
        <time>2019-05-08T07:47:46Z</time>
      </trkpt>
      <trkpt lat="54.197443993762136" lon="10.944638969376683">
        <ele>10.23</ele>
        <time>2019-05-08T07:47:47Z</time>
      </trkpt>
      <trkpt lat="54.197552958503366" lon="10.944656990468502">
        <ele>10.23</ele>
        <time>2019-05-08T07:47:48Z</time>
      </trkpt>
      <trkpt lat="54.197650020942092" lon="10.944593036547303">
        <ele>10.23</ele>
        <time>2019-05-08T07:47:49Z</time>
      </trkpt>
      <trkpt lat="54.1977549623698" lon="10.944470996037126">
        <ele>10.23</ele>
        <time>2019-05-08T07:47:50Z</time>
      </trkpt>
      <trkpt lat="54.197868034243584" lon="10.944302016869187">
        <ele>10.710000000000001</ele>
        <time>2019-05-08T07:47:51Z</time>
      </trkpt>
      <trkpt lat="54.197966018691659" lon="10.944084003567696">
        <ele>10.710000000000001</ele>
        <time>2019-05-08T07:47:52Z</time>
      </trkpt>
      <trkpt lat="54.198358040302992" lon="10.943142967298627">
        <ele>11.19</ele>
        <time>2019-05-08T07:47:56Z</time>
      </trkpt>
      <trkpt lat="54.198735980316997" lon="10.941951982676983">
        <ele>12.15</ele>
        <time>2019-05-08T07:48:02Z</time>
      </trkpt>
      <trkpt lat="54.198802029713988" lon="10.941856009885669">
        <ele>12.15</ele>
        <time>2019-05-08T07:48:03Z</time>
      </trkpt>
      <trkpt lat="54.198869001120329" lon="10.941758025437593">
        <ele>12.15</ele>
        <time>2019-05-08T07:48:04Z</time>
      </trkpt>
      <trkpt lat="54.199054995551705" lon="10.941488966345787">
        <ele>12.15</ele>
        <time>2019-05-08T07:48:07Z</time>
      </trkpt>
      <trkpt lat="54.199119033291936" lon="10.941396011039615">
        <ele>12.15</ele>
        <time>2019-05-08T07:48:08Z</time>
      </trkpt>
      <trkpt lat="54.199164966121316" lon="10.94136499799788">
        <ele>12.15</ele>
        <time>2019-05-08T07:48:09Z</time>
      </trkpt>
      <trkpt lat="54.199250964447856" lon="10.941313030198216">
        <ele>11.67</ele>
        <time>2019-05-08T07:48:10Z</time>
      </trkpt>
      <trkpt lat="54.199304021894932" lon="10.941377989947796">
        <ele>11.67</ele>
        <time>2019-05-08T07:48:11Z</time>
      </trkpt>
      <trkpt lat="54.19936696998775" lon="10.941454013809562">
        <ele>11.67</ele>
        <time>2019-05-08T07:48:12Z</time>
      </trkpt>
      <trkpt lat="54.199436958879232" lon="10.941538000479341">
        <ele>11.67</ele>
        <time>2019-05-08T07:48:13Z</time>
      </trkpt>
      <trkpt lat="54.200277999043465" lon="10.942554976791143">
        <ele>15.039999999999999</ele>
        <time>2019-05-08T07:48:22Z</time>
      </trkpt>
      <trkpt lat="54.201510976999998" lon="10.944046033546329">
        <ele>17.920000000000002</ele>
        <time>2019-05-08T07:48:30Z</time>
      </trkpt>
      <trkpt lat="54.202690981328487" lon="10.945471962913871">
        <ele>18.399999999999999</ele>
        <time>2019-05-08T07:48:38Z</time>
      </trkpt>
      <trkpt lat="54.203118039295077" lon="10.945988036692142">
        <ele>19.359999999999999</ele>
        <time>2019-05-08T07:48:41Z</time>
      </trkpt>
      <trkpt lat="54.20323496684432" lon="10.946210995316505">
        <ele>19.84</ele>
        <time>2019-05-08T07:48:42Z</time>
      </trkpt>
      <trkpt lat="54.203351978212595" lon="10.946465972810984">
        <ele>20.32</ele>
        <time>2019-05-08T07:48:43Z</time>
      </trkpt>
      <trkpt lat="54.204073995351791" lon="10.948049984872341">
        <ele>22.73</ele>
        <time>2019-05-08T07:48:49Z</time>
      </trkpt>
      <trkpt lat="54.204382030293345" lon="10.948717016726732">
        <ele>22.25</ele>
        <time>2019-05-08T07:48:52Z</time>
      </trkpt>
      <trkpt lat="54.204511027783155" lon="10.948816007003188">
        <ele>22.25</ele>
        <time>2019-05-08T07:48:53Z</time>
      </trkpt>
      <trkpt lat="54.205487016588449" lon="10.949608013033867">
        <ele>21.77</ele>
        <time>2019-05-08T07:48:59Z</time>
      </trkpt>
      <trkpt lat="54.205969981849194" lon="10.950184017419815">
        <ele>22.25</ele>
        <time>2019-05-08T07:49:03Z</time>
      </trkpt>
      <trkpt lat="54.206080036237836" lon="10.95032500103116">
        <ele>22.73</ele>
        <time>2019-05-08T07:49:04Z</time>
      </trkpt>
      <trkpt lat="54.20615597628057" lon="10.950544020161033">
        <ele>22.73</ele>
        <time>2019-05-08T07:49:05Z</time>
      </trkpt>
      <trkpt lat="54.20634800568223" lon="10.950941992923617">
        <ele>23.690000000000001</ele>
        <time>2019-05-08T07:49:07Z</time>
      </trkpt>
      <trkpt lat="54.206483038142323" lon="10.951077025383711">
        <ele>23.690000000000001</ele>
        <time>2019-05-08T07:49:08Z</time>
      </trkpt>
      <trkpt lat="54.206631984561682" lon="10.951225971803069">
        <ele>23.690000000000001</ele>
        <time>2019-05-08T07:49:09Z</time>
      </trkpt>
      <trkpt lat="54.206785960122943" lon="10.951380031183362">
        <ele>23.690000000000001</ele>
        <time>2019-05-08T07:49:10Z</time>
      </trkpt>
      <trkpt lat="54.206930967047811" lon="10.95152503810823">
        <ele>23.690000000000001</ele>
        <time>2019-05-08T07:49:11Z</time>
      </trkpt>
      <trkpt lat="54.207064993679523" lon="10.95165403559804">
        <ele>23.210000000000001</ele>
        <time>2019-05-08T07:49:12Z</time>
      </trkpt>
      <trkpt lat="54.207217963412404" lon="10.95169996842742">
        <ele>23.210000000000001</ele>
        <time>2019-05-08T07:49:13Z</time>
      </trkpt>
      <trkpt lat="54.207369005307555" lon="10.951703991740942">
        <ele>23.210000000000001</ele>
        <time>2019-05-08T07:49:14Z</time>
      </trkpt>
      <trkpt lat="54.20750898309052" lon="10.951685970649123">
        <ele>23.690000000000001</ele>
        <time>2019-05-08T07:49:15Z</time>
      </trkpt>
      <trkpt lat="54.20763898640871" lon="10.951668033376336">
        <ele>23.690000000000001</ele>
        <time>2019-05-08T07:49:16Z</time>
      </trkpt>
      <trkpt lat="54.20785398222506" lon="10.951640037819743">
        <ele>24.170000000000002</ele>
        <time>2019-05-08T07:49:18Z</time>
      </trkpt>
      <trkpt lat="54.207937968894839" lon="10.951645988970995">
        <ele>24.170000000000002</ele>
        <time>2019-05-08T07:49:19Z</time>
      </trkpt>
      <trkpt lat="54.207937968894839" lon="10.951645988970995">
        <ele>24.649999999999999</ele>
        <time>2019-05-08T07:49:20Z</time>
      </trkpt>
      <trkpt lat="54.208027990534902" lon="10.951710026711226">
        <ele>24.649999999999999</ele>
        <time>2019-05-08T07:49:21Z</time>
      </trkpt>
      <trkpt lat="54.208059003576636" lon="10.951731987297535">
        <ele>25.129999999999999</ele>
        <time>2019-05-08T07:49:22Z</time>
      </trkpt>
      <trkpt lat="54.208102002739906" lon="10.951661998406053">
        <ele>25.129999999999999</ele>
        <time>2019-05-08T07:49:23Z</time>
      </trkpt>
      <trkpt lat="54.208138966932893" lon="10.951578011736274">
        <ele>25.609999999999999</ele>
        <time>2019-05-08T07:49:24Z</time>
      </trkpt>
      <trkpt lat="54.208190012723207" lon="10.95146301202476">
        <ele>26.09</ele>
        <time>2019-05-08T07:49:25Z</time>
      </trkpt>
      <trkpt lat="54.208254972472787" lon="10.951319010928273">
        <ele>26.57</ele>
        <time>2019-05-08T07:49:26Z</time>
      </trkpt>
      <trkpt lat="54.208957962691784" lon="10.950092989951372">
        <ele>28.5</ele>
        <time>2019-05-08T07:49:32Z</time>
      </trkpt>
      <trkpt lat="54.210200998932123" lon="10.947848986834288">
        <ele>28.5</ele>
        <time>2019-05-08T07:49:40Z</time>
      </trkpt>
      <trkpt lat="54.211417967453599" lon="10.945466011762619">
        <ele>27.050000000000001</ele>
        <time>2019-05-08T07:49:49Z</time>
      </trkpt>
      <trkpt lat="54.211775036528707" lon="10.944838961586356">
        <ele>26.09</ele>
        <time>2019-05-08T07:49:53Z</time>
      </trkpt>
      <trkpt lat="54.211844019591808" lon="10.944722034037113">
        <ele>26.09</ele>
        <time>2019-05-08T07:49:54Z</time>
      </trkpt>
      <trkpt lat="54.211914008483291" lon="10.944806020706892">
        <ele>25.609999999999999</ele>
        <time>2019-05-08T07:49:55Z</time>
      </trkpt>
      <trkpt lat="54.21197796240449" lon="10.944881960749626">
        <ele>25.129999999999999</ele>
        <time>2019-05-08T07:49:56Z</time>
      </trkpt>
      <trkpt lat="54.212059015408158" lon="10.944979023188353">
        <ele>25.129999999999999</ele>
        <time>2019-05-08T07:49:57Z</time>
      </trkpt>
      <trkpt lat="54.212158005684614" lon="10.945096034556627">
        <ele>24.649999999999999</ele>
        <time>2019-05-08T07:49:58Z</time>
      </trkpt>
      <trkpt lat="54.213013965636492" lon="10.946117034181952">
        <ele>24.170000000000002</ele>
        <time>2019-05-08T07:50:04Z</time>
      </trkpt>
      <trkpt lat="54.21446998603642" lon="10.947863990440965">
        <ele>24.649999999999999</ele>
        <time>2019-05-08T07:50:12Z</time>
      </trkpt>
      <trkpt lat="54.214609963819385" lon="10.948089966550469">
        <ele>25.129999999999999</ele>
        <time>2019-05-08T07:50:13Z</time>
      </trkpt>
      <trkpt lat="54.214729992672801" lon="10.948338992893696">
        <ele>25.609999999999999</ele>
        <time>2019-05-08T07:50:14Z</time>
      </trkpt>
      <trkpt lat="54.214818002656102" lon="10.948641998693347">
        <ele>25.609999999999999</ele>
        <time>2019-05-08T07:50:15Z</time>
      </trkpt>
      <trkpt lat="54.214888997375965" lon="10.948983980342746">
        <ele>25.609999999999999</ele>
        <time>2019-05-08T07:50:16Z</time>
      </trkpt>
      <trkpt lat="54.215562986209989" lon="10.951725030317903">
        <ele>27.050000000000001</ele>
        <time>2019-05-08T07:50:23Z</time>
      </trkpt>
      <trkpt lat="54.216780038550496" lon="10.955405021086335">
        <ele>29.460000000000001</ele>
        <time>2019-05-08T07:50:32Z</time>
      </trkpt>
      <trkpt lat="54.217248000204563" lon="10.956932958215475">
        <ele>30.420000000000002</ele>
        <time>2019-05-08T07:50:36Z</time>
      </trkpt>
      <trkpt lat="54.217379009351134" lon="10.957297990098596">
        <ele>30.420000000000002</ele>
        <time>2019-05-08T07:50:37Z</time>
      </trkpt>
      <trkpt lat="54.217548994347453" lon="10.957637960091233">
        <ele>30.420000000000002</ele>
        <time>2019-05-08T07:50:38Z</time>
      </trkpt>
      <trkpt lat="54.219297040253878" lon="10.960906986147165">
        <ele>28.02</ele>
        <time>2019-05-08T07:50:47Z</time>
      </trkpt>
      <trkpt lat="54.220466986298561" lon="10.963130034506321">
        <ele>26.57</ele>
        <time>2019-05-08T07:50:54Z</time>
      </trkpt>
      <trkpt lat="54.22072104178369" lon="10.963727999478579">
        <ele>26.09</ele>
        <time>2019-05-08T07:50:56Z</time>
      </trkpt>
      <trkpt lat="54.220844004303217" lon="10.964022036641836">
        <ele>25.609999999999999</ele>
        <time>2019-05-08T07:50:57Z</time>
      </trkpt>
      <trkpt lat="54.220946012064815" lon="10.964335016906261">
        <ele>25.609999999999999</ele>
        <time>2019-05-08T07:50:58Z</time>
      </trkpt>
      <trkpt lat="54.221012983471155" lon="10.964670041576028">
        <ele>25.129999999999999</ele>
        <time>2019-05-08T07:50:59Z</time>
      </trkpt>
      <trkpt lat="54.221049025654793" lon="10.965035995468497">
        <ele>24.170000000000002</ele>
        <time>2019-05-08T07:51:00Z</time>
      </trkpt>
      <trkpt lat="54.221049025654793" lon="10.965424999594688">
        <ele>23.690000000000001</ele>
        <time>2019-05-08T07:51:01Z</time>
      </trkpt>
      <trkpt lat="54.221049025654793" lon="10.96583403646946">
        <ele>23.690000000000001</ele>
        <time>2019-05-08T07:51:02Z</time>
      </trkpt>
      <trkpt lat="54.221003009006381" lon="10.966257993131876">
        <ele>23.210000000000001</ele>
        <time>2019-05-08T07:51:03Z</time>
      </trkpt>
      <trkpt lat="54.220712995156646" lon="10.96880299039185">
        <ele>21.77</ele>
        <time>2019-05-08T07:51:10Z</time>
      </trkpt>
      <trkpt lat="54.220663039013743" lon="10.969098033383489">
        <ele>21.77</ele>
        <time>2019-05-08T07:51:11Z</time>
      </trkpt>
      <trkpt lat="54.220567988231778" lon="10.96931797452271">
        <ele>21.77</ele>
        <time>2019-05-08T07:51:12Z</time>
      </trkpt>
      <trkpt lat="54.220321979373693" lon="10.969962039962411">
        <ele>21.289999999999999</ele>
        <time>2019-05-08T07:51:15Z</time>
      </trkpt>
      <trkpt lat="54.220255007967353" lon="10.970159014686942">
        <ele>21.289999999999999</ele>
        <time>2019-05-08T07:51:16Z</time>
      </trkpt>
      <trkpt lat="54.220255007967353" lon="10.970389014109969">
        <ele>21.289999999999999</ele>
        <time>2019-05-08T07:51:17Z</time>
      </trkpt>
      <trkpt lat="54.220255007967353" lon="10.97062798216939">
        <ele>21.289999999999999</ele>
        <time>2019-05-08T07:51:18Z</time>
      </trkpt>
      <trkpt lat="54.220255007967353" lon="10.970879020169377">
        <ele>21.289999999999999</ele>
        <time>2019-05-08T07:51:19Z</time>
      </trkpt>
      <trkpt lat="54.220264982432127" lon="10.971097033470869">
        <ele>21.77</ele>
        <time>2019-05-08T07:51:20Z</time>
      </trkpt>
      <trkpt lat="54.220275962725282" lon="10.971323009580374">
        <ele>21.77</ele>
        <time>2019-05-08T07:51:21Z</time>
      </trkpt>
      <trkpt lat="54.220318961888552" lon="10.972254993394017">
        <ele>22.73</ele>
        <time>2019-05-08T07:51:25Z</time>
      </trkpt>
      <trkpt lat="54.22029297798872" lon="10.97247401252389">
        <ele>22.73</ele>
        <time>2019-05-08T07:51:26Z</time>
      </trkpt>
      <trkpt lat="54.220266994088888" lon="10.972691019997001">
        <ele>23.210000000000001</ele>
        <time>2019-05-08T07:51:27Z</time>
      </trkpt>
      <trkpt lat="54.220217037945986" lon="10.973108019679785">
        <ele>23.210000000000001</ele>
        <time>2019-05-08T07:51:29Z</time>
      </trkpt>
      <trkpt lat="54.220190970227122" lon="10.973325027152896">
        <ele>23.210000000000001</ele>
        <time>2019-05-08T07:51:30Z</time>
      </trkpt>
      <trkpt lat="54.220202034339309" lon="10.973523007705808">
        <ele>23.210000000000001</ele>
        <time>2019-05-08T07:51:31Z</time>
      </trkpt>
      <trkpt lat="54.220223994925618" lon="10.973750995472074">
        <ele>23.210000000000001</ele>
        <time>2019-05-08T07:51:32Z</time>
      </trkpt>
      <trkpt lat="54.220246039330959" lon="10.973980994895101">
        <ele>22.73</ele>
        <time>2019-05-08T07:51:33Z</time>
      </trkpt>
      <trkpt lat="54.220370007678866" lon="10.975072989240289">
        <ele>22.25</ele>
        <time>2019-05-08T07:51:38Z</time>
      </trkpt>
      <trkpt lat="54.220416024327278" lon="10.975257977843285">
        <ele>22.25</ele>
        <time>2019-05-08T07:51:39Z</time>
      </trkpt>
      <trkpt lat="54.220607969909906" lon="10.975813027471304">
        <ele>22.25</ele>
        <time>2019-05-08T07:51:42Z</time>
      </trkpt>
      <trkpt lat="54.220705032348633" lon="10.975988963618875">
        <ele>22.25</ele>
        <time>2019-05-08T07:51:43Z</time>
      </trkpt>
      <trkpt lat="54.22080704011023" lon="10.97617101855576">
        <ele>21.77</ele>
        <time>2019-05-08T07:51:44Z</time>
      </trkpt>
      <trkpt lat="54.221391007304192" lon="10.977151030674577">
        <ele>20.32</ele>
        <time>2019-05-08T07:51:49Z</time>
      </trkpt>
      <trkpt lat="54.221479017287493" lon="10.977406008169055">
        <ele>19.84</ele>
        <time>2019-05-08T07:51:50Z</time>
      </trkpt>
      <trkpt lat="54.221551017835736" lon="10.977690992876887">
        <ele>19.84</ele>
        <time>2019-05-08T07:51:51Z</time>
      </trkpt>
      <trkpt lat="54.221617989242077" lon="10.977988969534636">
        <ele>19.359999999999999</ele>
        <time>2019-05-08T07:51:52Z</time>
      </trkpt>
      <trkpt lat="54.221668029204011" lon="10.978304967284203">
        <ele>18.879999999999999</ele>
        <time>2019-05-08T07:51:53Z</time>
      </trkpt>
      <trkpt lat="54.221713040024042" lon="10.978633034974337">
        <ele>18.399999999999999</ele>
        <time>2019-05-08T07:51:54Z</time>
      </trkpt>
      <trkpt lat="54.221694013103843" lon="10.978974010795355">
        <ele>17.920000000000002</ele>
        <time>2019-05-08T07:51:55Z</time>
      </trkpt>
      <trkpt lat="54.221673980355263" lon="10.979327978566289">
        <ele>17.920000000000002</ele>
        <time>2019-05-08T07:51:56Z</time>
      </trkpt>
      <trkpt lat="54.221653025597334" lon="10.979698961600661">
        <ele>17.440000000000001</ele>
        <time>2019-05-08T07:51:57Z</time>
      </trkpt>
      <trkpt lat="54.221540037542582" lon="10.982770007103682">
        <ele>15.039999999999999</ele>
        <time>2019-05-08T07:52:05Z</time>
      </trkpt>
      <trkpt lat="54.221601979807019" lon="10.983087010681629">
        <ele>15.039999999999999</ele>
        <time>2019-05-08T07:52:06Z</time>
      </trkpt>
      <trkpt lat="54.221684038639069" lon="10.983406025916338">
        <ele>15.039999999999999</ele>
        <time>2019-05-08T07:52:07Z</time>
      </trkpt>
      <trkpt lat="54.221770036965609" lon="10.983745995908976">
        <ele>15.039999999999999</ele>
        <time>2019-05-08T07:52:08Z</time>
      </trkpt>
      <trkpt lat="54.221871960908175" lon="10.984107004478574">
        <ele>14.56</ele>
        <time>2019-05-08T07:52:09Z</time>
      </trkpt>
      <trkpt lat="54.223024975508451" lon="10.987117029726505">
        <ele>14.08</ele>
        <time>2019-05-08T07:52:17Z</time>
      </trkpt>
      <trkpt lat="54.224128033965826" lon="10.989941982552409">
        <ele>12.15</ele>
        <time>2019-05-08T07:52:25Z</time>
      </trkpt>
      <trkpt lat="54.224607981741428" lon="10.992713961750269">
        <ele>9.75</ele>
        <time>2019-05-08T07:52:32Z</time>
      </trkpt>
      <trkpt lat="54.225257998332381" lon="10.996462013572454">
        <ele>5.91</ele>
        <time>2019-05-08T07:52:42Z</time>
      </trkpt>
      <trkpt lat="54.225355982780457" lon="10.996735012158751">
        <ele>5.91</ele>
        <time>2019-05-08T07:52:43Z</time>
      </trkpt>
      <trkpt lat="54.22544801607728" lon="10.996993007138371">
        <ele>5.91</ele>
        <time>2019-05-08T07:52:44Z</time>
      </trkpt>
      <trkpt lat="54.225584976375103" lon="10.997176989912987">
        <ele>5.42</ele>
        <time>2019-05-08T07:52:45Z</time>
      </trkpt>
      <trkpt lat="54.225726965814829" lon="10.997368013486266">
        <ele>5.42</ele>
        <time>2019-05-08T07:52:46Z</time>
      </trkpt>
      <trkpt lat="54.225864009931684" lon="10.997551996260881">
        <ele>5.42</ele>
        <time>2019-05-08T07:52:47Z</time>
      </trkpt>
      <trkpt lat="54.226654004305601" lon="10.998594034463167">
        <ele>3.5</ele>
        <time>2019-05-08T07:52:54Z</time>
      </trkpt>
      <trkpt lat="54.226733967661858" lon="10.998727977275848">
        <ele>3.5</ele>
        <time>2019-05-08T07:52:55Z</time>
      </trkpt>
      <trkpt lat="54.226800017058849" lon="10.9988599922508">
        <ele>3.02</ele>
        <time>2019-05-08T07:52:56Z</time>
      </trkpt>
      <trkpt lat="54.226833041757345" lon="10.999032994732261">
        <ele>3.02</ele>
        <time>2019-05-08T07:52:57Z</time>
      </trkpt>
      <trkpt lat="54.226862965151668" lon="10.999190993607044">
        <ele>2.54</ele>
        <time>2019-05-08T07:52:58Z</time>
      </trkpt>
      <trkpt lat="54.226884003728628" lon="10.999339018017054">
        <ele>2.54</ele>
        <time>2019-05-08T07:52:59Z</time>
      </trkpt>
      <trkpt lat="54.226877968758345" lon="10.999487964436412">
        <ele>2.06</ele>
        <time>2019-05-08T07:53:00Z</time>
      </trkpt>
      <trkpt lat="54.226872017607093" lon="10.999639006331563">
        <ele>2.06</ele>
        <time>2019-05-08T07:53:01Z</time>
      </trkpt>
      <trkpt lat="54.226863970980048" lon="10.999825000762939">
        <ele>2.06</ele>
        <time>2019-05-08T07:53:02Z</time>
      </trkpt>
      <trkpt lat="54.226845027878881" lon="10.999948969110847">
        <ele>2.06</ele>
        <time>2019-05-08T07:53:03Z</time>
      </trkpt>
      <trkpt lat="54.226434985175729" lon="11.001409012824297">
        <ele>4.94</ele>
        <time>2019-05-08T07:53:13Z</time>
      </trkpt>
      <trkpt lat="54.226387962698936" lon="11.001560976728797">
        <ele>4.94</ele>
        <time>2019-05-08T07:53:14Z</time>
      </trkpt>
      <trkpt lat="54.226058972999454" lon="11.003068964928389">
        <ele>5.91</ele>
        <time>2019-05-08T07:53:21Z</time>
      </trkpt>
      <trkpt lat="54.225462013855577" lon="11.005395026877522">
        <ele>5.91</ele>
        <time>2019-05-08T07:53:28Z</time>
      </trkpt>
      <trkpt lat="54.224922973662615" lon="11.006979960948229">
        <ele>5.42</ele>
        <time>2019-05-08T07:53:34Z</time>
      </trkpt>
      <trkpt lat="54.224325008690357" lon="11.009272998198867">
        <ele>12.15</ele>
        <time>2019-05-08T07:53:46Z</time>
      </trkpt>
      <trkpt lat="54.224268011748791" lon="11.009438037872314">
        <ele>12.630000000000001</ele>
        <time>2019-05-08T07:53:47Z</time>
      </trkpt>
      <trkpt lat="54.224178995937109" lon="11.009574998170137">
        <ele>12.630000000000001</ele>
        <time>2019-05-08T07:53:48Z</time>
      </trkpt>
      <trkpt lat="54.22409400343895" lon="11.009705001488328">
        <ele>13.119999999999999</ele>
        <time>2019-05-08T07:53:49Z</time>
      </trkpt>
      <trkpt lat="54.224011022597551" lon="11.009832993149757">
        <ele>13.119999999999999</ele>
        <time>2019-05-08T07:53:50Z</time>
      </trkpt>
      <trkpt lat="54.223918989300728" lon="11.009942963719368">
        <ele>13.6</ele>
        <time>2019-05-08T07:53:51Z</time>
      </trkpt>
      <trkpt lat="54.223543982952833" lon="11.010371027514338">
        <ele>15.039999999999999</ele>
        <time>2019-05-08T07:53:55Z</time>
      </trkpt>
      <trkpt lat="54.223466031253338" lon="11.01052600890398">
        <ele>14.56</ele>
        <time>2019-05-08T07:53:56Z</time>
      </trkpt>
      <trkpt lat="54.22338598407805" lon="11.010687025263906">
        <ele>14.56</ele>
        <time>2019-05-08T07:53:57Z</time>
      </trkpt>
      <trkpt lat="54.223261009901762" lon="11.011063037440181">
        <ele>15.039999999999999</ele>
        <time>2019-05-08T07:53:59Z</time>
      </trkpt>
      <trkpt lat="54.223195966333151" lon="11.01125699467957">
        <ele>14.56</ele>
        <time>2019-05-08T07:54:00Z</time>
      </trkpt>
      <trkpt lat="54.22304299660027" lon="11.011843979358673">
        <ele>13.119999999999999</ele>
        <time>2019-05-08T07:54:03Z</time>
      </trkpt>
      <trkpt lat="54.223017012700438" lon="11.012049000710249">
        <ele>12.15</ele>
        <time>2019-05-08T07:54:04Z</time>
      </trkpt>
      <trkpt lat="54.223006032407284" lon="11.012279000133276">
        <ele>11.67</ele>
        <time>2019-05-08T07:54:05Z</time>
      </trkpt>
      <trkpt lat="54.223012989386916" lon="11.012508999556303">
        <ele>11.19</ele>
        <time>2019-05-08T07:54:06Z</time>
      </trkpt>
      <trkpt lat="54.223050959408283" lon="11.012730030342937">
        <ele>10.710000000000001</ele>
        <time>2019-05-08T07:54:07Z</time>
      </trkpt>
      <trkpt lat="54.223119020462036" lon="11.012959023937583">
        <ele>10.23</ele>
        <time>2019-05-08T07:54:08Z</time>
      </trkpt>
      <trkpt lat="54.223190015181899" lon="11.013197991997004">
        <ele>9.75</ele>
        <time>2019-05-08T07:54:09Z</time>
      </trkpt>
      <trkpt lat="54.223301997408271" lon="11.013379041105509">
        <ele>8.789999999999999</ele>
        <time>2019-05-08T07:54:10Z</time>
      </trkpt>
      <trkpt lat="54.2234299890697" lon="11.013575010001659">
        <ele>8.310000000000001</ele>
        <time>2019-05-08T07:54:11Z</time>
      </trkpt>
      <trkpt lat="54.223566027358174" lon="11.013781037181616">
        <ele>7.83</ele>
        <time>2019-05-08T07:54:12Z</time>
      </trkpt>
      <trkpt lat="54.224042035639286" lon="11.014427030459046">
        <ele>6.87</ele>
        <time>2019-05-08T07:54:15Z</time>
      </trkpt>
      <trkpt lat="54.224192993715405" lon="11.014703968539834">
        <ele>6.87</ele>
        <time>2019-05-08T07:54:16Z</time>
      </trkpt>
      <trkpt lat="54.225204018875957" lon="11.017072023823857">
        <ele>6.39</ele>
        <time>2019-05-08T07:54:23Z</time>
      </trkpt>
      <trkpt lat="54.225843977183104" lon="11.018868014216423">
        <ele>7.35</ele>
        <time>2019-05-08T07:54:28Z</time>
      </trkpt>
      <trkpt lat="54.226003987714648" lon="11.019171020016074">
        <ele>7.35</ele>
        <time>2019-05-08T07:54:29Z</time>
      </trkpt>
      <trkpt lat="54.227529997006059" lon="11.021904023364186">
        <ele>6.39</ele>
        <time>2019-05-08T07:54:38Z</time>
      </trkpt>
      <trkpt lat="54.22779000364244" lon="11.022465024143457">
        <ele>5.91</ele>
        <time>2019-05-08T07:54:40Z</time>
      </trkpt>
      <trkpt lat="54.227900980040431" lon="11.022786973044276">
        <ele>5.91</ele>
        <time>2019-05-08T07:54:41Z</time>
      </trkpt>
      <trkpt lat="54.228835981339216" lon="11.026119031012058">
        <ele>5.42</ele>
        <time>2019-05-08T07:54:50Z</time>
      </trkpt>
      <trkpt lat="54.228877974674106" lon="11.026506023481488">
        <ele>5.42</ele>
        <time>2019-05-08T07:54:51Z</time>
      </trkpt>
      <trkpt lat="54.229247029870749" lon="11.030354993417859">
        <ele>3.98</ele>
        <time>2019-05-08T07:55:01Z</time>
      </trkpt>
      <trkpt lat="54.229343002662063" lon="11.031737001612782">
        <ele>3.5</ele>
        <time>2019-05-08T07:55:07Z</time>
      </trkpt>
      <trkpt lat="54.22931601293385" lon="11.03317198343575">
        <ele>4.46</ele>
        <time>2019-05-08T07:55:16Z</time>
      </trkpt>
      <trkpt lat="54.229346020147204" lon="11.033298969268799">
        <ele>4.46</ele>
        <time>2019-05-08T07:55:17Z</time>
      </trkpt>
      <trkpt lat="54.22937803901732" lon="11.033427966758609">
        <ele>4.46</ele>
        <time>2019-05-08T07:55:18Z</time>
      </trkpt>
      <trkpt lat="54.229408968240023" lon="11.03355897590518">
        <ele>4.46</ele>
        <time>2019-05-08T07:55:19Z</time>
      </trkpt>
      <trkpt lat="54.229441992938519" lon="11.033695014193654">
        <ele>4.46</ele>
        <time>2019-05-08T07:55:20Z</time>
      </trkpt>
      <trkpt lat="54.229751033708453" lon="11.03446003049612">
        <ele>3.98</ele>
        <time>2019-05-08T07:55:26Z</time>
      </trkpt>
      <trkpt lat="54.2299800273031" lon="11.034959005191922">
        <ele>5.42</ele>
        <time>2019-05-08T07:55:30Z</time>
      </trkpt>
      <trkpt lat="54.230382023379207" lon="11.03583499789238">
        <ele>7.83</ele>
        <time>2019-05-08T07:55:38Z</time>
      </trkpt>
      <trkpt lat="54.230414964258671" lon="11.035905992612243">
        <ele>7.83</ele>
        <time>2019-05-08T07:55:39Z</time>
      </trkpt>
      <trkpt lat="54.230436002835631" lon="11.035953015089035">
        <ele>8.310000000000001</ele>
        <time>2019-05-08T07:55:40Z</time>
      </trkpt>
      <trkpt lat="54.230451006442308" lon="11.03598503395915">
        <ele>8.789999999999999</ele>
        <time>2019-05-08T07:55:41Z</time>
      </trkpt>
      <trkpt lat="54.230469027534127" lon="11.036024009808898">
        <ele>9.27</ele>
        <time>2019-05-08T07:55:42Z</time>
      </trkpt>
      <trkpt lat="54.230506997555494" lon="11.036023003980517">
        <ele>9.75</ele>
        <time>2019-05-08T07:55:43Z</time>
      </trkpt>
      <trkpt lat="54.230569023638964" lon="11.036020992323756">
        <ele>9.75</ele>
        <time>2019-05-08T07:55:44Z</time>
      </trkpt>
      <trkpt lat="54.230642030015588" lon="11.036018980666995">
        <ele>10.23</ele>
        <time>2019-05-08T07:55:45Z</time>
      </trkpt>
      <trkpt lat="54.230724005028605" lon="11.036016969010234">
        <ele>10.710000000000001</ele>
        <time>2019-05-08T07:55:46Z</time>
      </trkpt>
      <trkpt lat="54.230813020840287" lon="11.036014035344124">
        <ele>10.710000000000001</ele>
        <time>2019-05-08T07:55:47Z</time>
      </trkpt>
      <trkpt lat="54.231192972511053" lon="11.036003977060318">
        <ele>11.19</ele>
        <time>2019-05-08T07:55:51Z</time>
      </trkpt>
      <trkpt lat="54.231935022398829" lon="11.036077989265323">
        <ele>10.710000000000001</ele>
        <time>2019-05-08T07:55:59Z</time>
      </trkpt>
      <trkpt lat="54.232973037287593" lon="11.036052005365491">
        <ele>10.710000000000001</ele>
        <time>2019-05-08T07:56:10Z</time>
      </trkpt>
      <trkpt lat="54.233726989477873" lon="11.035933988168836">
        <ele>11.19</ele>
        <time>2019-05-08T07:56:18Z</time>
      </trkpt>
      <trkpt lat="54.233820028603077" lon="11.035918984562159">
        <ele>11.19</ele>
        <time>2019-05-08T07:56:19Z</time>
      </trkpt>
      <trkpt lat="54.234762992709875" lon="11.03577196598053">
        <ele>10.710000000000001</ele>
        <time>2019-05-08T07:56:29Z</time>
      </trkpt>
      <trkpt lat="54.235044959932566" lon="11.035650009289384">
        <ele>9.27</ele>
        <time>2019-05-08T07:56:32Z</time>
      </trkpt>
      <trkpt lat="54.235133975744247" lon="11.035574991255999">
        <ele>8.789999999999999</ele>
        <time>2019-05-08T07:56:33Z</time>
      </trkpt>
      <trkpt lat="54.235215028747916" lon="11.035499973222613">
        <ele>7.83</ele>
        <time>2019-05-08T07:56:34Z</time>
      </trkpt>
      <trkpt lat="54.235276971012354" lon="11.035355972126126">
        <ele>6.87</ele>
        <time>2019-05-08T07:56:35Z</time>
      </trkpt>
      <trkpt lat="54.235338997095823" lon="11.035210965201259">
        <ele>6.87</ele>
        <time>2019-05-08T07:56:36Z</time>
      </trkpt>
      <trkpt lat="54.235401023179293" lon="11.035065036267042">
        <ele>6.39</ele>
        <time>2019-05-08T07:56:37Z</time>
      </trkpt>
      <trkpt lat="54.23546296544373" lon="11.034921035170555">
        <ele>5.91</ele>
        <time>2019-05-08T07:56:38Z</time>
      </trkpt>
      <trkpt lat="54.23556899651885" lon="11.034824978560209">
        <ele>5.42</ele>
        <time>2019-05-08T07:56:39Z</time>
      </trkpt>
      <trkpt lat="54.235673015937209" lon="11.034778039902449">
        <ele>4.94</ele>
        <time>2019-05-08T07:56:40Z</time>
      </trkpt>
      <trkpt lat="54.235777035355568" lon="11.034746021032333">
        <ele>3.98</ele>
        <time>2019-05-08T07:56:41Z</time>
      </trkpt>
      <trkpt lat="54.235884994268417" lon="11.034719031304121">
        <ele>3.5</ele>
        <time>2019-05-08T07:56:42Z</time>
      </trkpt>
      <trkpt lat="54.235999993979931" lon="11.034765969961882">
        <ele>2.54</ele>
        <time>2019-05-08T07:56:43Z</time>
      </trkpt>
      <trkpt lat="54.236119017004967" lon="11.034813998267055">
        <ele>1.58</ele>
        <time>2019-05-08T07:56:44Z</time>
      </trkpt>
      <trkpt lat="54.236243991181254" lon="11.034865966066718">
        <ele>1.1</ele>
        <time>2019-05-08T07:56:45Z</time>
      </trkpt>
      <trkpt lat="54.236376006156206" lon="11.034920029342175">
        <ele>0.14</ele>
        <time>2019-05-08T07:56:46Z</time>
      </trkpt>
      <trkpt lat="54.237300027161837" lon="11.035211971029639">
        <ele>-3.23</ele>
        <time>2019-05-08T07:56:52Z</time>
      </trkpt>
      <trkpt lat="54.237485015764832" lon="11.035195039585233">
        <ele>-3.71</ele>
        <time>2019-05-08T07:56:53Z</time>
      </trkpt>
      <trkpt lat="54.23767201602459" lon="11.035132007673383">
        <ele>-3.71</ele>
        <time>2019-05-08T07:56:54Z</time>
      </trkpt>
      <trkpt lat="54.237860022112727" lon="11.035027988255024">
        <ele>-3.71</ele>
        <time>2019-05-08T07:56:55Z</time>
      </trkpt>
      <trkpt lat="54.238054985180497" lon="11.034920029342175">
        <ele>-3.71</ele>
        <time>2019-05-08T07:56:56Z</time>
      </trkpt>
      <trkpt lat="54.24035900272429" lon="11.033402988687158">
        <ele>-3.23</ele>
        <time>2019-05-08T07:57:07Z</time>
      </trkpt>
      <trkpt lat="54.242017026990652" lon="11.032034978270531">
        <ele>-3.23</ele>
        <time>2019-05-08T07:57:14Z</time>
      </trkpt>
      <trkpt lat="54.243788961321115" lon="11.030939966440201">
        <ele>-4.19</ele>
        <time>2019-05-08T07:57:21Z</time>
      </trkpt>
      <trkpt lat="54.24493501894176" lon="11.030819015577435">
        <ele>-4.19</ele>
        <time>2019-05-08T07:57:26Z</time>
      </trkpt>
      <trkpt lat="54.246340999379754" lon="11.03095798753202">
        <ele>-4.19</ele>
        <time>2019-05-08T07:57:32Z</time>
      </trkpt>
      <trkpt lat="54.249011976644397" lon="11.03123601526022">
        <ele>-3.71</ele>
        <time>2019-05-08T07:57:41Z</time>
      </trkpt>
      <trkpt lat="54.251653030514717" lon="11.031514964997768">
        <ele>-4.67</ele>
        <time>2019-05-08T07:57:50Z</time>
      </trkpt>
      <trkpt lat="54.252869999036193" lon="11.031656032428145">
        <ele>-4.19</ele>
        <time>2019-05-08T07:57:56Z</time>
      </trkpt>
      <trkpt lat="54.25430498085916" lon="11.032273024320602">
        <ele>-3.71</ele>
        <time>2019-05-08T07:58:04Z</time>
      </trkpt>
      <trkpt lat="54.255712972953916" lon="11.033282037824392">
        <ele>-2.75</ele>
        <time>2019-05-08T07:58:11Z</time>
      </trkpt>
      <trkpt lat="54.257029015570879" lon="11.033490998670459">
        <ele>-0.82</ele>
        <time>2019-05-08T07:58:16Z</time>
      </trkpt>
      <trkpt lat="54.25965397618711" lon="11.033592000603676">
        <ele>1.58</ele>
        <time>2019-05-08T07:58:24Z</time>
      </trkpt>
      <trkpt lat="54.262005016207695" lon="11.033658972010016">
        <ele>4.94</ele>
        <time>2019-05-08T07:58:32Z</time>
      </trkpt>
      <trkpt lat="54.263722971081734" lon="11.033728960901499">
        <ele>6.87</ele>
        <time>2019-05-08T07:58:39Z</time>
      </trkpt>
      <trkpt lat="54.265136998146772" lon="11.033766008913517">
        <ele>8.789999999999999</ele>
        <time>2019-05-08T07:58:46Z</time>
      </trkpt>
      <trkpt lat="54.267090987414122" lon="11.033835997804999">
        <ele>10.710000000000001</ele>
        <time>2019-05-08T07:58:54Z</time>
      </trkpt>
      <trkpt lat="54.270360013470054" lon="11.033868016675115">
        <ele>11.67</ele>
        <time>2019-05-08T07:59:06Z</time>
      </trkpt>
      <trkpt lat="54.272150974720716" lon="11.033542966470122">
        <ele>10.23</ele>
        <time>2019-05-08T07:59:13Z</time>
      </trkpt>
      <trkpt lat="54.273197958245873" lon="11.033252030611038">
        <ele>7.35</ele>
        <time>2019-05-08T07:59:19Z</time>
      </trkpt>
      <trkpt lat="54.275062009692192" lon="11.032595979049802">
        <ele>5.91</ele>
        <time>2019-05-08T07:59:32Z</time>
      </trkpt>
      <trkpt lat="54.277051035314798" lon="11.031729960814118">
        <ele>4.46</ele>
        <time>2019-05-08T07:59:46Z</time>
      </trkpt>
      <trkpt lat="54.278533961623907" lon="11.03160398080945">
        <ele>6.39</ele>
        <time>2019-05-08T07:59:57Z</time>
      </trkpt>
      <trkpt lat="54.279521014541388" lon="11.030967039987445">
        <ele>7.35</ele>
        <time>2019-05-08T08:00:05Z</time>
      </trkpt>
      <trkpt lat="54.279843969270587" lon="11.030574012547731">
        <ele>7.83</ele>
        <time>2019-05-08T08:00:08Z</time>
      </trkpt>
      <trkpt lat="54.280548971146345" lon="11.029058983549476">
        <ele>11.19</ele>
        <time>2019-05-08T08:00:15Z</time>
      </trkpt>
      <trkpt lat="54.280860023573041" lon="11.027157967910171">
        <ele>14.08</ele>
        <time>2019-05-08T08:00:20Z</time>
      </trkpt>
      <trkpt lat="54.281222959980369" lon="11.023118980228901">
        <ele>16</ele>
        <time>2019-05-08T08:00:29Z</time>
      </trkpt>
      <trkpt lat="54.281467963010073" lon="11.021857000887394">
        <ele>15.52</ele>
        <time>2019-05-08T08:00:32Z</time>
      </trkpt>
      <trkpt lat="54.281597966328263" lon="11.021469002589583">
        <ele>15.039999999999999</ele>
        <time>2019-05-08T08:00:33Z</time>
      </trkpt>
      <trkpt lat="54.281726041808724" lon="11.021084021776915">
        <ele>15.039999999999999</ele>
        <time>2019-05-08T08:00:34Z</time>
      </trkpt>
      <trkpt lat="54.281861996278167" lon="11.020704992115498">
        <ele>14.56</ele>
        <time>2019-05-08T08:00:35Z</time>
      </trkpt>
      <trkpt lat="54.282015971839428" lon="11.020339960232377">
        <ele>14.56</ele>
        <time>2019-05-08T08:00:36Z</time>
      </trkpt>
      <trkpt lat="54.282204983755946" lon="11.0200210288167">
        <ele>15.039999999999999</ele>
        <time>2019-05-08T08:00:37Z</time>
      </trkpt>
      <trkpt lat="54.282404975965619" lon="11.019715005531907">
        <ele>15.039999999999999</ele>
        <time>2019-05-08T08:00:38Z</time>
      </trkpt>
      <trkpt lat="54.283966021612287" lon="11.017817007377744">
        <ele>17.440000000000001</ele>
        <time>2019-05-08T08:00:45Z</time>
      </trkpt>
      <trkpt lat="54.285531006753445" lon="11.016840012744069">
        <ele>20.32</ele>
        <time>2019-05-08T08:00:51Z</time>
      </trkpt>
      <trkpt lat="54.286840008571744" lon="11.016690982505679">
        <ele>23.690000000000001</ele>
        <time>2019-05-08T08:00:56Z</time>
      </trkpt>
      <trkpt lat="54.287899984046817" lon="11.016989964991808">
        <ele>26.09</ele>
        <time>2019-05-08T08:01:02Z</time>
      </trkpt>
      <trkpt lat="54.289304036647081" lon="11.017525987699628">
        <ele>28.02</ele>
        <time>2019-05-08T08:01:11Z</time>
      </trkpt>
      <trkpt lat="54.290276002138853" lon="11.017319038510323">
        <ele>25.609999999999999</ele>
        <time>2019-05-08T08:01:17Z</time>
      </trkpt>
      <trkpt lat="54.290443975478411" lon="11.017235973849893">
        <ele>25.129999999999999</ele>
        <time>2019-05-08T08:01:18Z</time>
      </trkpt>
      <trkpt lat="54.291602019220591" lon="11.016151020303369">
        <ele>24.170000000000002</ele>
        <time>2019-05-08T08:01:24Z</time>
      </trkpt>
      <trkpt lat="54.293304970487952" lon="11.014655018225312">
        <ele>24.649999999999999</ele>
        <time>2019-05-08T08:01:31Z</time>
      </trkpt>
      <trkpt lat="54.295686017721891" lon="11.013226993381977">
        <ele>22.25</ele>
        <time>2019-05-08T08:01:40Z</time>
      </trkpt>
      <trkpt lat="54.297137008979917" lon="11.012362986803055">
        <ele>19.359999999999999</ele>
        <time>2019-05-08T08:01:47Z</time>
      </trkpt>
      <trkpt lat="54.298568973317742" lon="11.011684974655509">
        <ele>16.48</ele>
        <time>2019-05-08T08:01:56Z</time>
      </trkpt>
      <trkpt lat="54.299962967634201" lon="11.011250037699938">
        <ele>12.15</ele>
        <time>2019-05-08T08:02:07Z</time>
      </trkpt>
      <trkpt lat="54.301100978627801" lon="11.010301960632205">
        <ele>10.23</ele>
        <time>2019-05-08T08:02:17Z</time>
      </trkpt>
      <trkpt lat="54.302445016801357" lon="11.008490966632962">
        <ele>11.19</ele>
        <time>2019-05-08T08:02:30Z</time>
      </trkpt>
      <trkpt lat="54.303954010829329" lon="11.006504036486149">
        <ele>18.879999999999999</ele>
        <time>2019-05-08T08:02:43Z</time>
      </trkpt>
      <trkpt lat="54.304309990257025" lon="11.006147973239422">
        <ele>20.32</ele>
        <time>2019-05-08T08:02:45Z</time>
      </trkpt>
      <trkpt lat="54.304511994123459" lon="11.005966002121568">
        <ele>20.809999999999999</ele>
        <time>2019-05-08T08:02:46Z</time>
      </trkpt>
      <trkpt lat="54.304737970232964" lon="11.005842033773661">
        <ele>21.77</ele>
        <time>2019-05-08T08:02:47Z</time>
      </trkpt>
      <trkpt lat="54.304966041818261" lon="11.005728039890528">
        <ele>22.73</ele>
        <time>2019-05-08T08:02:48Z</time>
      </trkpt>
      <trkpt lat="54.305202998220921" lon="11.005689986050129">
        <ele>23.690000000000001</ele>
        <time>2019-05-08T08:02:49Z</time>
      </trkpt>
      <trkpt lat="54.305440038442612" lon="11.005654027685523">
        <ele>24.170000000000002</ele>
        <time>2019-05-08T08:02:50Z</time>
      </trkpt>
      <trkpt lat="54.305667020380497" lon="11.005650004372001">
        <ele>25.129999999999999</ele>
        <time>2019-05-08T08:02:51Z</time>
      </trkpt>
      <trkpt lat="54.305880004540086" lon="11.005676994100213">
        <ele>26.09</ele>
        <time>2019-05-08T08:02:52Z</time>
      </trkpt>
      <trkpt lat="54.306078990921378" lon="11.005737008526921">
        <ele>26.57</ele>
        <time>2019-05-08T08:02:53Z</time>
      </trkpt>
      <trkpt lat="54.306265991181135" lon="11.005797022953629">
        <ele>27.530000000000001</ele>
        <time>2019-05-08T08:02:54Z</time>
      </trkpt>
      <trkpt lat="54.306428013369441" lon="11.005916967988014">
        <ele>28.02</ele>
        <time>2019-05-08T08:02:55Z</time>
      </trkpt>
      <trkpt lat="54.307205015793443" lon="11.00665801204741">
        <ele>31.859999999999999</ele>
        <time>2019-05-08T08:03:01Z</time>
      </trkpt>
      <trkpt lat="54.308012025430799" lon="11.008136998862028">
        <ele>32.82</ele>
        <time>2019-05-08T08:03:08Z</time>
      </trkpt>
      <trkpt lat="54.309153975918889" lon="11.010560039430857">
        <ele>30.899999999999999</ele>
        <time>2019-05-08T08:03:15Z</time>
      </trkpt>
      <trkpt lat="54.310453003272414" lon="11.012153020128608">
        <ele>26.57</ele>
        <time>2019-05-08T08:03:21Z</time>
      </trkpt>
      <trkpt lat="54.311710959300399" lon="11.012944020330906">
        <ele>22.73</ele>
        <time>2019-05-08T08:03:27Z</time>
      </trkpt>
      <trkpt lat="54.313166979700327" lon="11.013521030545235">
        <ele>20.809999999999999</ele>
        <time>2019-05-08T08:03:35Z</time>
      </trkpt>
      <trkpt lat="54.314730037003756" lon="11.014139028266072">
        <ele>18.399999999999999</ele>
        <time>2019-05-08T08:03:41Z</time>
      </trkpt>
      <trkpt lat="54.318040972575545" lon="11.015649028122425">
        <ele>16.960000000000001</ele>
        <time>2019-05-08T08:03:53Z</time>
      </trkpt>
      <trkpt lat="54.320783028379083" lon="11.017268998548388">
        <ele>16</ele>
        <time>2019-05-08T08:04:04Z</time>
      </trkpt>
      <trkpt lat="54.3226039968431" lon="11.018375996500254">
        <ele>16.48</ele>
        <time>2019-05-08T08:04:12Z</time>
      </trkpt>
      <trkpt lat="54.32475496083498" lon="11.019649039953947">
        <ele>18.879999999999999</ele>
        <time>2019-05-08T08:04:22Z</time>
      </trkpt>
      <trkpt lat="54.327261988073587" lon="11.02118200622499">
        <ele>19.359999999999999</ele>
        <time>2019-05-08T08:04:34Z</time>
      </trkpt>
      <trkpt lat="54.329784018918872" lon="11.022684965282679">
        <ele>18.879999999999999</ele>
        <time>2019-05-08T08:04:46Z</time>
      </trkpt>
      <trkpt lat="54.332434041425586" lon="11.024264032021165">
        <ele>18.399999999999999</ele>
        <time>2019-05-08T08:04:58Z</time>
      </trkpt>
      <trkpt lat="54.334956994280219" lon="11.025573033839464">
        <ele>18.399999999999999</ele>
        <time>2019-05-08T08:05:09Z</time>
      </trkpt>
      <trkpt lat="54.337765015661716" lon="11.026267977431417">
        <ele>18.879999999999999</ele>
        <time>2019-05-08T08:05:21Z</time>
      </trkpt>
      <trkpt lat="54.340425012633204" lon="11.026224978268147">
        <ele>18.399999999999999</ele>
        <time>2019-05-08T08:05:32Z</time>
      </trkpt>
      <trkpt lat="54.343269998207688" lon="11.025399025529623">
        <ele>23.210000000000001</ele>
        <time>2019-05-08T08:05:43Z</time>
      </trkpt>
      <trkpt lat="54.345138994976878" lon="11.02408298291266">
        <ele>26.09</ele>
        <time>2019-05-08T08:05:51Z</time>
      </trkpt>
      <trkpt lat="54.346480015665293" lon="11.022156989201903">
        <ele>27.050000000000001</ele>
        <time>2019-05-08T08:05:58Z</time>
      </trkpt>
      <trkpt lat="54.347889013588428" lon="11.019221981987357">
        <ele>29.940000000000001</ele>
        <time>2019-05-08T08:06:07Z</time>
      </trkpt>
      <trkpt lat="54.348917976021767" lon="11.017672000452876">
        <ele>32.82</ele>
        <time>2019-05-08T08:06:13Z</time>
      </trkpt>
      <trkpt lat="54.350338038057089" lon="11.016115983948112">
        <ele>37.149999999999999</ele>
        <time>2019-05-08T08:06:22Z</time>
      </trkpt>
      <trkpt lat="54.351470014080405" lon="11.014578994363546">
        <ele>45.32</ele>
        <time>2019-05-08T08:06:30Z</time>
      </trkpt>
      <trkpt lat="54.352475004270673" lon="11.012866990640759">
        <ele>51.090000000000003</ele>
        <time>2019-05-08T08:06:39Z</time>
      </trkpt>
      <trkpt lat="54.353603962808847" lon="11.011665025725961">
        <ele>51.57</ele>
        <time>2019-05-08T08:06:47Z</time>
      </trkpt>
      <trkpt lat="54.354695035144687" lon="11.011094972491264">
        <ele>50.609999999999999</ele>
        <time>2019-05-08T08:06:54Z</time>
      </trkpt>
      <trkpt lat="54.356560008600354" lon="11.010914007201791">
        <ele>44.359999999999999</ele>
        <time>2019-05-08T08:07:05Z</time>
      </trkpt>
      <trkpt lat="54.357743030413985" lon="11.010686019435525">
        <ele>40.030000000000001</ele>
        <time>2019-05-08T08:07:11Z</time>
      </trkpt>
      <trkpt lat="54.359407005831599" lon="11.00979502312839">
        <ele>31.379999999999999</ele>
        <time>2019-05-08T08:07:20Z</time>
      </trkpt>
      <trkpt lat="54.36089102178812" lon="11.009371988475323">
        <ele>23.210000000000001</ele>
        <time>2019-05-08T08:07:28Z</time>
      </trkpt>
      <trkpt lat="54.361705994233489" lon="11.009491011500359">
        <ele>17.920000000000002</ele>
        <time>2019-05-08T08:07:33Z</time>
      </trkpt>
      <trkpt lat="54.361829040572047" lon="11.009523030370474">
        <ele>16.960000000000001</ele>
        <time>2019-05-08T08:07:34Z</time>
      </trkpt>
      <trkpt lat="54.361925013363361" lon="11.009699972346425">
        <ele>16</ele>
        <time>2019-05-08T08:07:35Z</time>
      </trkpt>
      <trkpt lat="54.361991984769702" lon="11.009827964007854">
        <ele>15.039999999999999</ele>
        <time>2019-05-08T08:07:36Z</time>
      </trkpt>
      <trkpt lat="54.362055016681552" lon="11.009948998689651">
        <ele>14.56</ele>
        <time>2019-05-08T08:07:37Z</time>
      </trkpt>
      <trkpt lat="54.362063985317945" lon="11.010141028091311">
        <ele>14.08</ele>
        <time>2019-05-08T08:07:38Z</time>
      </trkpt>
      <trkpt lat="54.362057028338313" lon="11.010360969230533">
        <ele>13.6</ele>
        <time>2019-05-08T08:07:39Z</time>
      </trkpt>
      <trkpt lat="54.362048981711268" lon="11.010608989745378">
        <ele>13.6</ele>
        <time>2019-05-08T08:07:40Z</time>
      </trkpt>
      <trkpt lat="54.36203096061945" lon="11.011167978867888">
        <ele>13.6</ele>
        <time>2019-05-08T08:07:42Z</time>
      </trkpt>
      <trkpt lat="54.362043030560017" lon="11.011450029909611">
        <ele>14.08</ele>
        <time>2019-05-08T08:07:43Z</time>
      </trkpt>
      <trkpt lat="54.362107990309596" lon="11.011705007404089">
        <ele>14.56</ele>
        <time>2019-05-08T08:07:44Z</time>
      </trkpt>
      <trkpt lat="54.362217038869858" lon="11.011893013492227">
        <ele>15.039999999999999</ele>
        <time>2019-05-08T08:07:45Z</time>
      </trkpt>
      <trkpt lat="54.362346036359668" lon="11.012055035680532">
        <ele>15.52</ele>
        <time>2019-05-08T08:07:46Z</time>
      </trkpt>
      <trkpt lat="54.36248098500073" lon="11.012225020676851">
        <ele>16</ele>
        <time>2019-05-08T08:07:47Z</time>
      </trkpt>
      <trkpt lat="54.362620040774345" lon="11.012400034815073">
        <ele>16.48</ele>
        <time>2019-05-08T08:07:48Z</time>
      </trkpt>
      <trkpt lat="54.362757001072168" lon="11.012575970962644">
        <ele>16.960000000000001</ele>
        <time>2019-05-08T08:07:49Z</time>
      </trkpt>
      <trkpt lat="54.362860014662147" lon="11.012842012569308">
        <ele>16.960000000000001</ele>
        <time>2019-05-08T08:07:50Z</time>
      </trkpt>
      <trkpt lat="54.362967973574996" lon="11.013122973963618">
        <ele>17.440000000000001</ele>
        <time>2019-05-08T08:07:51Z</time>
      </trkpt>
      <trkpt lat="54.363080039620399" lon="11.013455986976624">
        <ele>17.920000000000002</ele>
        <time>2019-05-08T08:07:52Z</time>
      </trkpt>
      <trkpt lat="54.363100994378328" lon="11.013827975839376">
        <ele>18.399999999999999</ele>
        <time>2019-05-08T08:07:53Z</time>
      </trkpt>
      <trkpt lat="54.363123038783669" lon="11.014216979965568">
        <ele>18.399999999999999</ele>
        <time>2019-05-08T08:07:54Z</time>
      </trkpt>
      <trkpt lat="54.363349014893174" lon="11.018082965165377">
        <ele>19.84</ele>
        <time>2019-05-08T08:08:03Z</time>
      </trkpt>
      <trkpt lat="54.363674987107515" lon="11.023452999070287">
        <ele>22.25</ele>
        <time>2019-05-08T08:08:15Z</time>
      </trkpt>
      <trkpt lat="54.364129034802318" lon="11.028364961966872">
        <ele>24.649999999999999</ele>
        <time>2019-05-08T08:08:26Z</time>
      </trkpt>
      <trkpt lat="54.364943001419306" lon="11.033723009750247">
        <ele>24.649999999999999</ele>
        <time>2019-05-08T08:08:38Z</time>
      </trkpt>
      <trkpt lat="54.366036001592875" lon="11.038561966270208">
        <ele>18.879999999999999</ele>
        <time>2019-05-08T08:08:49Z</time>
      </trkpt>
      <trkpt lat="54.367417003959417" lon="11.043420033529401">
        <ele>13.6</ele>
        <time>2019-05-08T08:09:00Z</time>
      </trkpt>
      <trkpt lat="54.368834970518947" lon="11.048459988087416">
        <ele>9.27</ele>
        <time>2019-05-08T08:09:11Z</time>
      </trkpt>
      <trkpt lat="54.369974993169308" lon="11.052986970171332">
        <ele>5.91</ele>
        <time>2019-05-08T08:09:21Z</time>
      </trkpt>
      <trkpt lat="54.371281983330846" lon="11.058617010712624">
        <ele>3.02</ele>
        <time>2019-05-08T08:09:33Z</time>
      </trkpt>
      <trkpt lat="54.372346987947822" lon="11.063211970031261">
        <ele>1.58</ele>
        <time>2019-05-08T08:09:43Z</time>
      </trkpt>
      <trkpt lat="54.372997004538774" lon="11.066014040261507">
        <ele>2.06</ele>
        <time>2019-05-08T08:09:50Z</time>
      </trkpt>
      <trkpt lat="54.373938962817192" lon="11.06988899409771">
        <ele>3.02</ele>
        <time>2019-05-08T08:10:00Z</time>
      </trkpt>
      <trkpt lat="54.375380985438824" lon="11.075334968045354">
        <ele>2.06</ele>
        <time>2019-05-08T08:10:12Z</time>
      </trkpt>
      <trkpt lat="54.377264985814691" lon="11.081636985763907">
        <ele>3.02</ele>
        <time>2019-05-08T08:10:26Z</time>
      </trkpt>
      <trkpt lat="54.378145001828671" lon="11.084212996065617">
        <ele>2.06</ele>
        <time>2019-05-08T08:10:33Z</time>
      </trkpt>
      <trkpt lat="54.379508988931775" lon="11.087816962972283">
        <ele>2.54</ele>
        <time>2019-05-08T08:10:44Z</time>
      </trkpt>
      <trkpt lat="54.380736015737057" lon="11.090715005993843">
        <ele>4.46</ele>
        <time>2019-05-08T08:10:54Z</time>
      </trkpt>
      <trkpt lat="54.382081981748343" lon="11.093445997685194">
        <ele>3.5</ele>
        <time>2019-05-08T08:11:06Z</time>
      </trkpt>
      <trkpt lat="54.383582007139921" lon="11.096157962456346">
        <ele>2.54</ele>
        <time>2019-05-08T08:11:17Z</time>
      </trkpt>
      <trkpt lat="54.385683014988899" lon="11.099356999620795">
        <ele>2.54</ele>
        <time>2019-05-08T08:11:30Z</time>
      </trkpt>
      <trkpt lat="54.387517981231213" lon="11.101727988570929">
        <ele>3.02</ele>
        <time>2019-05-08T08:11:41Z</time>
      </trkpt>
      <trkpt lat="54.389815041795373" lon="11.10409302636981">
        <ele>3.5</ele>
        <time>2019-05-08T08:11:54Z</time>
      </trkpt>
      <trkpt lat="54.391381032764912" lon="11.105415020138025">
        <ele>5.42</ele>
        <time>2019-05-08T08:12:03Z</time>
      </trkpt>
      <trkpt lat="54.394158963114023" lon="11.107491971924901">
        <ele>12.630000000000001</ele>
        <time>2019-05-08T08:12:20Z</time>
      </trkpt>
      <trkpt lat="54.396742014214396" lon="11.109209004789591">
        <ele>17.920000000000002</ele>
        <time>2019-05-08T08:12:36Z</time>
      </trkpt>
      <trkpt lat="54.39797499217093" lon="11.11002397723496">
        <ele>19.359999999999999</ele>
        <time>2019-05-08T08:12:46Z</time>
      </trkpt>
      <trkpt lat="54.399804007261992" lon="11.111208004876971">
        <ele>20.809999999999999</ele>
        <time>2019-05-08T08:13:01Z</time>
      </trkpt>
      <trkpt lat="54.401248041540384" lon="11.11214904114604">
        <ele>22.25</ele>
        <time>2019-05-08T08:13:14Z</time>
      </trkpt>
      <trkpt lat="54.402834987267852" lon="11.113183032721281">
        <ele>22.73</ele>
        <time>2019-05-08T08:13:27Z</time>
      </trkpt>
      <trkpt lat="54.404366025701165" lon="11.114179976284504">
        <ele>21.77</ele>
        <time>2019-05-08T08:13:38Z</time>
      </trkpt>
      <trkpt lat="54.406214989721775" lon="11.115383030846715">
        <ele>19.359999999999999</ele>
        <time>2019-05-08T08:13:52Z</time>
      </trkpt>
      <trkpt lat="54.407893968746066" lon="11.116458009928465">
        <ele>16.960000000000001</ele>
        <time>2019-05-08T08:14:04Z</time>
      </trkpt>
      <trkpt lat="54.409588035196066" lon="11.117569031193852">
        <ele>13.6</ele>
        <time>2019-05-08T08:14:15Z</time>
      </trkpt>
      <trkpt lat="54.411152014508843" lon="11.118611991405487">
        <ele>11.67</ele>
        <time>2019-05-08T08:14:23Z</time>
      </trkpt>
      <trkpt lat="54.412697972729802" lon="11.11964900046587">
        <ele>9.75</ele>
        <time>2019-05-08T08:14:33Z</time>
      </trkpt>
      <trkpt lat="54.413904966786504" lon="11.120515018701553">
        <ele>9.27</ele>
        <time>2019-05-08T08:14:39Z</time>
      </trkpt>
      <trkpt lat="54.414996961131692" lon="11.121370978653431">
        <ele>8.789999999999999</ele>
        <time>2019-05-08T08:14:45Z</time>
      </trkpt>
      <trkpt lat="54.416391961276531" lon="11.122483005747199">
        <ele>8.310000000000001</ele>
        <time>2019-05-08T08:14:52Z</time>
      </trkpt>
      <trkpt lat="54.418649040162563" lon="11.124522993341088">
        <ele>7.35</ele>
        <time>2019-05-08T08:15:02Z</time>
      </trkpt>
      <trkpt lat="54.421076020225883" lon="11.12693103030324">
        <ele>7.35</ele>
        <time>2019-05-08T08:15:13Z</time>
      </trkpt>
      <trkpt lat="54.42296396009624" lon="11.129003036767244">
        <ele>7.35</ele>
        <time>2019-05-08T08:15:23Z</time>
      </trkpt>
      <trkpt lat="54.42493999376893" lon="11.131361033767462">
        <ele>6.87</ele>
        <time>2019-05-08T08:15:35Z</time>
      </trkpt>
      <trkpt lat="54.426716035231948" lon="11.133804023265839">
        <ele>6.39</ele>
        <time>2019-05-08T08:15:47Z</time>
      </trkpt>
      <trkpt lat="54.42762597464025" lon="11.135208997875452">
        <ele>6.39</ele>
        <time>2019-05-08T08:15:53Z</time>
      </trkpt>
      <trkpt lat="54.428970012813807" lon="11.137389969080687">
        <ele>5.91</ele>
        <time>2019-05-08T08:16:00Z</time>
      </trkpt>
      <trkpt lat="54.431419959291816" lon="11.141947964206338">
        <ele>6.39</ele>
        <time>2019-05-08T08:16:12Z</time>
      </trkpt>
      <trkpt lat="54.434144999831915" lon="11.147469040006399">
        <ele>5.42</ele>
        <time>2019-05-08T08:16:26Z</time>
      </trkpt>
      <trkpt lat="54.4370779953897" lon="11.153449025005102">
        <ele>3.5</ele>
        <time>2019-05-08T08:16:41Z</time>
      </trkpt>
      <trkpt lat="54.440823029726744" lon="11.161085022613406">
        <ele>4.46</ele>
        <time>2019-05-08T08:17:00Z</time>
      </trkpt>
      <trkpt lat="54.443290997296572" lon="11.165609993040562">
        <ele>3.98</ele>
        <time>2019-05-08T08:17:12Z</time>
      </trkpt>
      <trkpt lat="54.444636041298509" lon="11.168461013585329">
        <ele>5.42</ele>
        <time>2019-05-08T08:17:21Z</time>
      </trkpt>
      <trkpt lat="54.445268958806992" lon="11.170013006776571">
        <ele>8.789999999999999</ele>
        <time>2019-05-08T08:17:28Z</time>
      </trkpt>
      <trkpt lat="54.445321010425687" lon="11.170103028416634">
        <ele>9.75</ele>
        <time>2019-05-08T08:17:33Z</time>
      </trkpt>
      <trkpt lat="54.445354035124183" lon="11.1701600253582">
        <ele>10.710000000000001</ele>
        <time>2019-05-08T08:17:41Z</time>
      </trkpt>
      <trkpt lat="54.445377001538873" lon="11.170301008969545">
        <ele>10.710000000000001</ele>
        <time>2019-05-08T08:17:44Z</time>
      </trkpt>
      <trkpt lat="54.445361997932196" lon="11.170402010902762">
        <ele>10.710000000000001</ele>
        <time>2019-05-08T08:17:45Z</time>
      </trkpt>
      <trkpt lat="54.445340959355235" lon="11.170542994514108">
        <ele>10.710000000000001</ele>
        <time>2019-05-08T08:17:46Z</time>
      </trkpt>
      <trkpt lat="54.445315981283784" lon="11.170712979510427">
        <ele>10.710000000000001</ele>
        <time>2019-05-08T08:17:47Z</time>
      </trkpt>
      <trkpt lat="54.44528697989881" lon="11.170912971720099">
        <ele>10.710000000000001</ele>
        <time>2019-05-08T08:17:48Z</time>
      </trkpt>
      <trkpt lat="54.445010041818023" lon="11.172553980723023">
        <ele>9.27</ele>
        <time>2019-05-08T08:17:54Z</time>
      </trkpt>
      <trkpt lat="54.44453596137464" lon="11.174198007211089">
        <ele>6.87</ele>
        <time>2019-05-08T08:18:01Z</time>
      </trkpt>
      <trkpt lat="54.444074034690857" lon="11.175457974895835">
        <ele>5.91</ele>
        <time>2019-05-08T08:18:09Z</time>
      </trkpt>
      <trkpt lat="54.443677989766002" lon="11.176815005019307">
        <ele>6.39</ele>
        <time>2019-05-08T08:18:17Z</time>
      </trkpt>
      <trkpt lat="54.443339025601745" lon="11.178212016820908">
        <ele>5.91</ele>
        <time>2019-05-08T08:18:26Z</time>
      </trkpt>
      <trkpt lat="54.443288985639811" lon="11.178455008193851">
        <ele>5.91</ele>
        <time>2019-05-08T08:18:29Z</time>
      </trkpt>
      <trkpt lat="54.443175997585058" lon="11.17901399731636">
        <ele>4.94</ele>
        <time>2019-05-08T08:18:40Z</time>
      </trkpt>
      <trkpt lat="54.443107014521956" lon="11.179385986179113">
        <ele>4.94</ele>
        <time>2019-05-08T08:18:51Z</time>
      </trkpt>
      <trkpt lat="54.443035013973713" lon="11.17983098141849">
        <ele>4.46</ele>
        <time>2019-05-08T08:19:04Z</time>
      </trkpt>
      <trkpt lat="54.442995032295585" lon="11.180076990276575">
        <ele>6.39</ele>
        <time>2019-05-08T08:19:13Z</time>
      </trkpt>
      <trkpt lat="54.442899981513619" lon="11.180176986381412">
        <ele>6.39</ele>
        <time>2019-05-08T08:19:14Z</time>
      </trkpt>
      <trkpt lat="54.442869974300265" lon="11.180235994979739">
        <ele>6.39</ele>
        <time>2019-05-08T08:19:16Z</time>
      </trkpt>
      <trkpt lat="54.44283502176404" lon="11.180331967771053">
        <ele>6.39</ele>
        <time>2019-05-08T08:19:17Z</time>
      </trkpt>
      <trkpt lat="54.44283502176404" lon="11.180425006896257">
        <ele>6.39</ele>
        <time>2019-05-08T08:19:18Z</time>
      </trkpt>
      <trkpt lat="54.44283502176404" lon="11.180433975532651">
        <ele>6.39</ele>
        <time>2019-05-08T08:19:19Z</time>
      </trkpt>
      <trkpt lat="54.442909033969045" lon="11.18064503185451">
        <ele>6.39</ele>
        <time>2019-05-08T08:19:20Z</time>
      </trkpt>
      <trkpt lat="54.442895036190748" lon="11.180760031566024">
        <ele>5.91</ele>
        <time>2019-05-08T08:19:21Z</time>
      </trkpt>
      <trkpt lat="54.442880032584071" lon="11.180885005742311">
        <ele>5.42</ele>
        <time>2019-05-08T08:19:22Z</time>
      </trkpt>
      <trkpt lat="54.442864023149014" lon="11.181015009060502">
        <ele>5.42</ele>
        <time>2019-05-08T08:19:23Z</time>
      </trkpt>
      <trkpt lat="54.442848013713956" lon="11.181148029863834">
        <ele>4.94</ele>
        <time>2019-05-08T08:19:24Z</time>
      </trkpt>
      <trkpt lat="54.442754974588752" lon="11.181888990104198">
        <ele>3.02</ele>
        <time>2019-05-08T08:19:29Z</time>
      </trkpt>
      <trkpt lat="54.442731002345681" lon="11.182045983150601">
        <ele>3.02</ele>
        <time>2019-05-08T08:19:30Z</time>
      </trkpt>
      <trkpt lat="54.442510977387428" lon="11.18360904045403">
        <ele>2.54</ele>
        <time>2019-05-08T08:19:40Z</time>
      </trkpt>
      <trkpt lat="54.442393966019154" lon="11.184424012899399">
        <ele>3.02</ele>
        <time>2019-05-08T08:19:47Z</time>
      </trkpt>
      <trkpt lat="54.44238499738276" lon="11.184489978477359">
        <ele>3.02</ele>
        <time>2019-05-08T08:19:48Z</time>
      </trkpt>
      <trkpt lat="54.442239990457892" lon="11.18539203889668">
        <ele>3.02</ele>
        <time>2019-05-08T08:19:55Z</time>
      </trkpt>
      <trkpt lat="54.442218029871583" lon="11.185527993366122">
        <ele>3.02</ele>
        <time>2019-05-08T08:19:56Z</time>
      </trkpt>
      <trkpt lat="54.441873030737042" lon="11.187196997925639">
        <ele>2.06</ele>
        <time>2019-05-08T08:20:08Z</time>
      </trkpt>
      <trkpt lat="54.441509004682302" lon="11.188763994723558">
        <ele>0.62</ele>
        <time>2019-05-08T08:20:20Z</time>
      </trkpt>
      <trkpt lat="54.441451001912355" lon="11.189271016046405">
        <ele>0.62</ele>
        <time>2019-05-08T08:20:27Z</time>
      </trkpt>
      <trkpt lat="54.441351005807519" lon="11.190097974613309">
        <ele>0.14</ele>
        <time>2019-05-08T08:20:37Z</time>
      </trkpt>
      <trkpt lat="54.441342959180474" lon="11.190167963504791">
        <ele>0.14</ele>
        <time>2019-05-08T08:20:38Z</time>
      </trkpt>
      <trkpt lat="54.441305994987488" lon="11.190469963476062">
        <ele>-0.34</ele>
        <time>2019-05-08T08:20:43Z</time>
      </trkpt>
      <trkpt lat="54.441299960017204" lon="11.190525032579899">
        <ele>0.14</ele>
        <time>2019-05-08T08:20:44Z</time>
      </trkpt>
      <trkpt lat="54.441242041066289" lon="11.191076980903745">
        <ele>1.1</ele>
        <time>2019-05-08T08:20:54Z</time>
      </trkpt>
      <trkpt lat="54.441232988610864" lon="11.191161973401904">
        <ele>1.1</ele>
        <time>2019-05-08T08:20:56Z</time>
      </trkpt>
      <trkpt lat="54.441118994727731" lon="11.191270016133785">
        <ele>1.1</ele>
        <time>2019-05-08T08:20:57Z</time>
      </trkpt>
      <trkpt lat="54.441101979464293" lon="11.191369006410241">
        <ele>0.62</ele>
        <time>2019-05-08T08:20:58Z</time>
      </trkpt>
      <trkpt lat="54.44111798889935" lon="11.19149599224329">
        <ele>0.62</ele>
        <time>2019-05-08T08:20:59Z</time>
      </trkpt>
      <trkpt lat="54.441174985840917" lon="11.191627001389861">
        <ele>0.62</ele>
        <time>2019-05-08T08:21:00Z</time>
      </trkpt>
      <trkpt lat="54.441113965585828" lon="11.192095968872309">
        <ele>0.14</ele>
        <time>2019-05-08T08:21:07Z</time>
      </trkpt>
      <trkpt lat="54.441088987514377" lon="11.192244999110699">
        <ele>0.62</ele>
        <time>2019-05-08T08:21:17Z</time>
      </trkpt>
      <trkpt lat="54.441034002229571" lon="11.19257097132504">
        <ele>1.1</ele>
        <time>2019-05-08T08:21:21Z</time>
      </trkpt>
      <trkpt lat="54.441012041643262" lon="11.192708015441895">
        <ele>1.1</ele>
        <time>2019-05-08T08:21:22Z</time>
      </trkpt>
      <trkpt lat="54.440996032208204" lon="11.192776998504996">
        <ele>0.62</ele>
        <time>2019-05-08T08:21:23Z</time>
      </trkpt>
      <trkpt lat="54.44096895866096" lon="11.192900966852903">
        <ele>0.62</ele>
        <time>2019-05-08T08:21:24Z</time>
      </trkpt>
      <trkpt lat="54.440943980589509" lon="11.193006997928023">
        <ele>0.62</ele>
        <time>2019-05-08T08:21:25Z</time>
      </trkpt>
      <trkpt lat="54.440814983099699" lon="11.193492980673909">
        <ele>0.62</ele>
        <time>2019-05-08T08:21:29Z</time>
      </trkpt>
      <trkpt lat="54.440749017521739" lon="11.193725997582078">
        <ele>0.14</ele>
        <time>2019-05-08T08:21:31Z</time>
      </trkpt>
      <trkpt lat="54.440652960911393" lon="11.194065967574716">
        <ele>0.14</ele>
        <time>2019-05-08T08:21:34Z</time>
      </trkpt>
      <trkpt lat="54.440480964258313" lon="11.194669967517257">
        <ele>0.14</ele>
        <time>2019-05-08T08:21:39Z</time>
      </trkpt>
      <trkpt lat="54.44044902920723" lon="11.19478396140039">
        <ele>-0.34</ele>
        <time>2019-05-08T08:21:40Z</time>
      </trkpt>
      <trkpt lat="54.440414998680353" lon="11.194901978597045">
        <ele>-0.34</ele>
        <time>2019-05-08T08:21:41Z</time>
      </trkpt>
      <trkpt lat="54.44032397121191" lon="11.195388967171311">
        <ele>-2.75</ele>
        <time>2019-05-08T08:21:45Z</time>
      </trkpt>
      <trkpt lat="54.440307961776853" lon="11.195501033216715">
        <ele>-2.75</ele>
        <time>2019-05-08T08:21:46Z</time>
      </trkpt>
      <trkpt lat="54.440292958170176" lon="11.195611003786325">
        <ele>-3.23</ele>
        <time>2019-05-08T08:21:47Z</time>
      </trkpt>
      <trkpt lat="54.440238978713751" lon="11.195996990427375">
        <ele>-2.75</ele>
        <time>2019-05-08T08:21:50Z</time>
      </trkpt>
      <trkpt lat="54.440221963450313" lon="11.196122970432043">
        <ele>-2.75</ele>
        <time>2019-05-08T08:21:51Z</time>
      </trkpt>
      <trkpt lat="54.440208971500397" lon="11.196215003728867">
        <ele>-2.75</ele>
        <time>2019-05-08T08:21:52Z</time>
      </trkpt>
      <trkpt lat="54.440200002864003" lon="11.196279963478446">
        <ele>-2.75</ele>
        <time>2019-05-08T08:21:53Z</time>
      </trkpt>
      <trkpt lat="54.44019396789372" lon="11.196324974298477">
        <ele>-2.75</ele>
        <time>2019-05-08T08:21:54Z</time>
      </trkpt>
      <trkpt lat="54.440189022570848" lon="11.196359004825354">
        <ele>-2.75</ele>
        <time>2019-05-08T08:21:59Z</time>
      </trkpt>
      <trkpt lat="54.440181981772184" lon="11.196411978453398">
        <ele>-2.75</ele>
        <time>2019-05-08T08:22:00Z</time>
      </trkpt>
      <trkpt lat="54.440167983993888" lon="11.196497976779938">
        <ele>-2.75</ele>
        <time>2019-05-08T08:22:01Z</time>
      </trkpt>
      <trkpt lat="54.440152980387211" lon="11.196570983156562">
        <ele>-3.23</ele>
        <time>2019-05-08T08:22:02Z</time>
      </trkpt>
      <trkpt lat="54.440081985667348" lon="11.196641977876425">
        <ele>-3.71</ele>
        <time>2019-05-08T08:22:03Z</time>
      </trkpt>
      <trkpt lat="54.440025994554162" lon="11.19669402949512">
        <ele>-3.71</ele>
        <time>2019-05-08T08:22:04Z</time>
      </trkpt>
      <trkpt lat="54.439965980127454" lon="11.196742979809642">
        <ele>-4.19</ele>
        <time>2019-05-08T08:22:05Z</time>
      </trkpt>
      <trkpt lat="54.439834970980883" lon="11.196848005056381">
        <ele>-4.67</ele>
        <time>2019-05-08T08:22:07Z</time>
      </trkpt>
      <trkpt lat="54.439236000180244" lon="11.197333987802267">
        <ele>-6.59</ele>
        <time>2019-05-08T08:22:17Z</time>
      </trkpt>
      <trkpt lat="54.439093004912138" lon="11.197437001392245">
        <ele>-6.11</ele>
        <time>2019-05-08T08:22:20Z</time>
      </trkpt>
      <trkpt lat="54.439044976606965" lon="11.197464996948838">
        <ele>-6.11</ele>
        <time>2019-05-08T08:22:21Z</time>
      </trkpt>
      <trkpt lat="54.438998037949204" lon="11.19749098084867">
        <ele>-6.59</ele>
        <time>2019-05-08T08:22:22Z</time>
      </trkpt>
      <trkpt lat="54.438951015472412" lon="11.197517970576882">
        <ele>-6.59</ele>
        <time>2019-05-08T08:22:23Z</time>
      </trkpt>
      <trkpt lat="54.43890399299562" lon="11.197544960305095">
        <ele>-7.07</ele>
        <time>2019-05-08T08:22:24Z</time>
      </trkpt>
      <trkpt lat="54.438598975539207" lon="11.197671024128795">
        <ele>-6.59</ele>
        <time>2019-05-08T08:22:29Z</time>
      </trkpt>
      <trkpt lat="54.43854097276926" lon="11.197692984715104">
        <ele>-6.59</ele>
        <time>2019-05-08T08:22:30Z</time>
      </trkpt>
      <trkpt lat="54.438426978886127" lon="11.197734978049994">
        <ele>-6.59</ele>
        <time>2019-05-08T08:22:32Z</time>
      </trkpt>
      <trkpt lat="54.438378028571606" lon="11.197754004970193">
        <ele>-6.59</ele>
        <time>2019-05-08T08:22:33Z</time>
      </trkpt>
      <trkpt lat="54.437686018645763" lon="11.197719974443316">
        <ele>-7.07</ele>
        <time>2019-05-08T08:22:44Z</time>
      </trkpt>
      <trkpt lat="54.43757202476263" lon="11.197711005806923">
        <ele>-7.07</ele>
        <time>2019-05-08T08:22:46Z</time>
      </trkpt>
      <trkpt lat="54.43729299120605" lon="11.197595000267029">
        <ele>-6.11</ele>
        <time>2019-05-08T08:22:51Z</time>
      </trkpt>
      <trkpt lat="54.437238005921245" lon="11.197569016367197">
        <ele>-6.11</ele>
        <time>2019-05-08T08:22:52Z</time>
      </trkpt>
      <trkpt lat="54.437130969017744" lon="11.197510007768869">
        <ele>-5.63</ele>
        <time>2019-05-08T08:22:54Z</time>
      </trkpt>
      <trkpt lat="54.437076989561319" lon="11.197480000555515">
        <ele>-5.15</ele>
        <time>2019-05-08T08:22:55Z</time>
      </trkpt>
      <trkpt lat="54.437007000669837" lon="11.197570022195578">
        <ele>-5.15</ele>
        <time>2019-05-08T08:22:56Z</time>
      </trkpt>
      <trkpt lat="54.436966013163328" lon="11.19764001108706">
        <ele>-5.15</ele>
        <time>2019-05-08T08:22:57Z</time>
      </trkpt>
      <trkpt lat="54.436917984858155" lon="11.197721986100078">
        <ele>-5.15</ele>
        <time>2019-05-08T08:22:58Z</time>
      </trkpt>
      <trkpt lat="54.436870962381363" lon="11.197804966941476">
        <ele>-5.63</ele>
        <time>2019-05-08T08:22:59Z</time>
      </trkpt>
      <trkpt lat="54.436824023723602" lon="11.197889037430286">
        <ele>-6.11</ele>
        <time>2019-05-08T08:23:00Z</time>
      </trkpt>
      <trkpt lat="54.436789993196726" lon="11.1980040371418">
        <ele>-6.59</ele>
        <time>2019-05-08T08:23:01Z</time>
      </trkpt>
      <trkpt lat="54.436420015990734" lon="11.19940297678113">
        <ele>-9.960000000000001</ele>
        <time>2019-05-08T08:23:11Z</time>
      </trkpt>
      <trkpt lat="54.435884999111295" lon="11.200908031314611">
        <ele>-8.51</ele>
        <time>2019-05-08T08:23:21Z</time>
      </trkpt>
      <trkpt lat="54.435796989127994" lon="11.201240960508585">
        <ele>-8.029999999999999</ele>
        <time>2019-05-08T08:23:23Z</time>
      </trkpt>
      <trkpt lat="54.435761030763388" lon="11.201411029323936">
        <ele>-7.55</ele>
        <time>2019-05-08T08:23:24Z</time>
      </trkpt>
      <trkpt lat="54.435443021357059" lon="11.202919017523527">
        <ele>-3.71</ele>
        <time>2019-05-08T08:23:33Z</time>
      </trkpt>
      <trkpt lat="54.435407985001802" lon="11.203085985034704">
        <ele>-3.23</ele>
        <time>2019-05-08T08:23:34Z</time>
      </trkpt>
      <trkpt lat="54.435372026637197" lon="11.203256975859404">
        <ele>-2.75</ele>
        <time>2019-05-08T08:23:35Z</time>
      </trkpt>
      <trkpt lat="54.43501302972436" lon="11.2052689678967">
        <ele>0.62</ele>
        <time>2019-05-08T08:23:46Z</time>
      </trkpt>
      <trkpt lat="54.434958966448903" lon="11.205640034750104">
        <ele>0.62</ele>
        <time>2019-05-08T08:23:48Z</time>
      </trkpt>
      <trkpt lat="54.434926025569439" lon="11.20582602918148">
        <ele>1.1</ele>
        <time>2019-05-08T08:23:49Z</time>
      </trkpt>
      <trkpt lat="54.434676999226213" lon="11.206766981631517">
        <ele>1.58</ele>
        <time>2019-05-08T08:23:54Z</time>
      </trkpt>
      <trkpt lat="54.434291012585163" lon="11.208950970321894">
        <ele>1.1</ele>
        <time>2019-05-08T08:24:03Z</time>
      </trkpt>
      <trkpt lat="54.433839982375503" lon="11.211462020874023">
        <ele>1.58</ele>
        <time>2019-05-08T08:24:10Z</time>
      </trkpt>
      <trkpt lat="54.433175968006253" lon="11.214132998138666">
        <ele>1.58</ele>
        <time>2019-05-08T08:24:17Z</time>
      </trkpt>
      <trkpt lat="54.433020986616611" lon="11.214453019201756">
        <ele>1.58</ele>
        <time>2019-05-08T08:24:18Z</time>
      </trkpt>
      <trkpt lat="54.431954976171255" lon="11.216427963227034">
        <ele>2.06</ele>
        <time>2019-05-08T08:24:25Z</time>
      </trkpt>
      <trkpt lat="54.431101027876139" lon="11.219245959073305">
        <ele>3.02</ele>
        <time>2019-05-08T08:24:34Z</time>
      </trkpt>
      <trkpt lat="54.430409017950296" lon="11.221174970269203">
        <ele>2.54</ele>
        <time>2019-05-08T08:24:41Z</time>
      </trkpt>
      <trkpt lat="54.429921023547649" lon="11.223644027486444">
        <ele>2.54</ele>
        <time>2019-05-08T08:24:48Z</time>
      </trkpt>
      <trkpt lat="54.429381983354688" lon="11.226972984150052">
        <ele>2.54</ele>
        <time>2019-05-08T08:24:56Z</time>
      </trkpt>
      <trkpt lat="54.42910797894001" lon="11.22898799367249">
        <ele>1.58</ele>
        <time>2019-05-08T08:25:02Z</time>
      </trkpt>
      <trkpt lat="54.429029021412134" lon="11.229312960058451">
        <ele>1.58</ele>
        <time>2019-05-08T08:25:03Z</time>
      </trkpt>
      <trkpt lat="54.428896000608802" lon="11.229601968079805">
        <ele>1.1</ele>
        <time>2019-05-08T08:25:04Z</time>
      </trkpt>
      <trkpt lat="54.428137019276619" lon="11.231685038655996">
        <ele>3.5</ele>
        <time>2019-05-08T08:25:11Z</time>
      </trkpt>
      <trkpt lat="54.427211992442608" lon="11.234647035598755">
        <ele>3.5</ele>
        <time>2019-05-08T08:25:22Z</time>
      </trkpt>
      <trkpt lat="54.426628025248647" lon="11.237713973969221">
        <ele>4.46</ele>
        <time>2019-05-08T08:25:33Z</time>
      </trkpt>
      <trkpt lat="54.425868960097432" lon="11.24052501283586">
        <ele>3.98</ele>
        <time>2019-05-08T08:25:42Z</time>
      </trkpt>
      <trkpt lat="54.424835974350572" lon="11.244354033842683">
        <ele>4.94</ele>
        <time>2019-05-08T08:25:55Z</time>
      </trkpt>
      <trkpt lat="54.424703037366271" lon="11.244986029341817">
        <ele>5.91</ele>
        <time>2019-05-08T08:25:58Z</time>
      </trkpt>
      <trkpt lat="54.424684010446072" lon="11.245180992409587">
        <ele>5.91</ele>
        <time>2019-05-08T08:25:59Z</time>
      </trkpt>
      <trkpt lat="54.42466096021235" lon="11.245407974347472">
        <ele>6.39</ele>
        <time>2019-05-08T08:26:00Z</time>
      </trkpt>
      <trkpt lat="54.424619972705841" lon="11.246325960382819">
        <ele>6.87</ele>
        <time>2019-05-08T08:26:05Z</time>
      </trkpt>
      <trkpt lat="54.424592982977629" lon="11.246512960642576">
        <ele>6.87</ele>
        <time>2019-05-08T08:26:06Z</time>
      </trkpt>
      <trkpt lat="54.424560964107513" lon="11.246697027236223">
        <ele>6.87</ele>
        <time>2019-05-08T08:26:07Z</time>
      </trkpt>
      <trkpt lat="54.423973979428411" lon="11.2492919806391">
        <ele>11.67</ele>
        <time>2019-05-08T08:26:21Z</time>
      </trkpt>
      <trkpt lat="54.423620011657476" lon="11.251416960731149">
        <ele>14.56</ele>
        <time>2019-05-08T08:26:32Z</time>
      </trkpt>
      <trkpt lat="54.423587992787361" lon="11.251608990132809">
        <ele>15.039999999999999</ele>
        <time>2019-05-08T08:26:33Z</time>
      </trkpt>
      <trkpt lat="54.423505011945963" lon="11.25178400427103">
        <ele>15.52</ele>
        <time>2019-05-08T08:26:34Z</time>
      </trkpt>
      <trkpt lat="54.423427982255816" lon="11.251944014802575">
        <ele>16</ele>
        <time>2019-05-08T08:26:35Z</time>
      </trkpt>
      <trkpt lat="54.423123970627785" lon="11.252613980323076">
        <ele>16.48</ele>
        <time>2019-05-08T08:26:39Z</time>
      </trkpt>
      <trkpt lat="54.423064962029457" lon="11.252791006118059">
        <ele>16.48</ele>
        <time>2019-05-08T08:26:40Z</time>
      </trkpt>
      <trkpt lat="54.423035960644484" lon="11.252998039126396">
        <ele>16.48</ele>
        <time>2019-05-08T08:26:41Z</time>
      </trkpt>
      <trkpt lat="54.423017017543316" lon="11.253197025507689">
        <ele>16.48</ele>
        <time>2019-05-08T08:26:42Z</time>
      </trkpt>
      <trkpt lat="54.422997990623116" lon="11.253398023545742">
        <ele>16.960000000000001</ele>
        <time>2019-05-08T08:26:43Z</time>
      </trkpt>
      <trkpt lat="54.422902017831802" lon="11.254416005685925">
        <ele>18.399999999999999</ele>
        <time>2019-05-08T08:26:48Z</time>
      </trkpt>
      <trkpt lat="54.422685010358691" lon="11.255428036674857">
        <ele>18.879999999999999</ele>
        <time>2019-05-08T08:26:53Z</time>
      </trkpt>
      <trkpt lat="54.422632036730647" lon="11.255661975592375">
        <ele>19.359999999999999</ele>
        <time>2019-05-08T08:26:54Z</time>
      </trkpt>
      <trkpt lat="54.422561964020133" lon="11.255893986672163">
        <ele>19.359999999999999</ele>
        <time>2019-05-08T08:26:55Z</time>
      </trkpt>
      <trkpt lat="54.421771969646215" lon="11.257889969274402">
        <ele>18.879999999999999</ele>
        <time>2019-05-08T08:27:03Z</time>
      </trkpt>
      <trkpt lat="54.4205760397017" lon="11.26084802672267">
        <ele>16.48</ele>
        <time>2019-05-08T08:27:12Z</time>
      </trkpt>
      <trkpt lat="54.418590031564236" lon="11.265657981857657">
        <ele>12.630000000000001</ele>
        <time>2019-05-08T08:27:26Z</time>
      </trkpt>
      <trkpt lat="54.417401980608702" lon="11.267974991351366">
        <ele>10.23</ele>
        <time>2019-05-08T08:27:34Z</time>
      </trkpt>
      <trkpt lat="54.416750958189368" lon="11.26929497346282">
        <ele>10.23</ele>
        <time>2019-05-08T08:27:41Z</time>
      </trkpt>
      <trkpt lat="54.416699996218085" lon="11.269440986216068">
        <ele>9.75</ele>
        <time>2019-05-08T08:27:42Z</time>
      </trkpt>
      <trkpt lat="54.4166249781847" lon="11.269570989534259">
        <ele>9.75</ele>
        <time>2019-05-08T08:27:43Z</time>
      </trkpt>
      <trkpt lat="54.416613997891545" lon="11.269712978973985">
        <ele>9.75</ele>
        <time>2019-05-08T08:27:44Z</time>
      </trkpt>
      <trkpt lat="54.416613997891545" lon="11.269861003383994">
        <ele>10.23</ele>
        <time>2019-05-08T08:27:45Z</time>
      </trkpt>
      <trkpt lat="54.416613997891545" lon="11.270011961460114">
        <ele>10.23</ele>
        <time>2019-05-08T08:27:46Z</time>
      </trkpt>
      <trkpt lat="54.416613997891545" lon="11.270170966163278">
        <ele>10.23</ele>
        <time>2019-05-08T08:27:47Z</time>
      </trkpt>
      <trkpt lat="54.416787000373006" lon="11.271967962384224">
        <ele>8.789999999999999</ele>
        <time>2019-05-08T08:27:57Z</time>
      </trkpt>
      <trkpt lat="54.416803009808064" lon="11.272126967087388">
        <ele>8.310000000000001</ele>
        <time>2019-05-08T08:27:58Z</time>
      </trkpt>
      <trkpt lat="54.416740983724594" lon="11.272287983447313">
        <ele>7.83</ele>
        <time>2019-05-08T08:27:59Z</time>
      </trkpt>
      <trkpt lat="54.416675018146634" lon="11.27240801230073">
        <ele>7.83</ele>
        <time>2019-05-08T08:28:00Z</time>
      </trkpt>
      <trkpt lat="54.416607040911913" lon="11.272532986477017">
        <ele>7.83</ele>
        <time>2019-05-08T08:28:01Z</time>
      </trkpt>
      <trkpt lat="54.41653897985816" lon="11.272651003673673">
        <ele>7.83</ele>
        <time>2019-05-08T08:28:02Z</time>
      </trkpt>
      <trkpt lat="54.416450969874859" lon="11.272748988121748">
        <ele>8.310000000000001</ele>
        <time>2019-05-08T08:28:03Z</time>
      </trkpt>
      <trkpt lat="54.416362037882209" lon="11.272848984226584">
        <ele>8.310000000000001</ele>
        <time>2019-05-08T08:28:04Z</time>
      </trkpt>
      <trkpt lat="54.416276039555669" lon="11.272945962846279">
        <ele>8.310000000000001</ele>
        <time>2019-05-08T08:28:05Z</time>
      </trkpt>
      <trkpt lat="54.416188029572368" lon="11.273045036941767">
        <ele>7.83</ele>
        <time>2019-05-08T08:28:06Z</time>
      </trkpt>
      <trkpt lat="54.415401974692941" lon="11.273923041298985">
        <ele>6.87</ele>
        <time>2019-05-08T08:28:15Z</time>
      </trkpt>
      <trkpt lat="54.415323017165065" lon="11.274026976898313">
        <ele>6.87</ele>
        <time>2019-05-08T08:28:16Z</time>
      </trkpt>
      <trkpt lat="54.415316982194781" lon="11.274201991036534">
        <ele>6.87</ele>
        <time>2019-05-08T08:28:17Z</time>
      </trkpt>
      <trkpt lat="54.41533399745822" lon="11.274360995739698">
        <ele>6.87</ele>
        <time>2019-05-08T08:28:18Z</time>
      </trkpt>
      <trkpt lat="54.415353024378419" lon="11.27453600987792">
        <ele>6.87</ele>
        <time>2019-05-08T08:28:19Z</time>
      </trkpt>
      <trkpt lat="54.415371967479587" lon="11.274710018187761">
        <ele>6.87</ele>
        <time>2019-05-08T08:28:20Z</time>
      </trkpt>
      <trkpt lat="54.415389988571405" lon="11.274884026497602">
        <ele>6.39</ele>
        <time>2019-05-08T08:28:21Z</time>
      </trkpt>
      <trkpt lat="54.415402980521321" lon="11.275057028979063">
        <ele>5.91</ele>
        <time>2019-05-08T08:28:22Z</time>
      </trkpt>
      <trkpt lat="54.415427036583424" lon="11.275370009243488">
        <ele>5.91</ele>
        <time>2019-05-08T08:28:24Z</time>
      </trkpt>
      <trkpt lat="54.415432987734675" lon="11.275485008955002">
        <ele>6.39</ele>
        <time>2019-05-08T08:28:25Z</time>
      </trkpt>
      <trkpt lat="54.415413038805127" lon="11.275663962587714">
        <ele>6.87</ele>
        <time>2019-05-08T08:28:26Z</time>
      </trkpt>
      <trkpt lat="54.415368027985096" lon="11.275719031691551">
        <ele>6.87</ele>
        <time>2019-05-08T08:28:27Z</time>
      </trkpt>
      <trkpt lat="54.415285969153047" lon="11.275788014754653">
        <ele>7.35</ele>
        <time>2019-05-08T08:28:28Z</time>
      </trkpt>
      <trkpt lat="54.415194019675255" lon="11.275827996432781">
        <ele>7.83</ele>
        <time>2019-05-08T08:28:29Z</time>
      </trkpt>
      <trkpt lat="54.414778025820851" lon="11.276028994470835">
        <ele>7.83</ele>
        <time>2019-05-08T08:28:33Z</time>
      </trkpt>
      <trkpt lat="54.414681969210505" lon="11.276106024160981">
        <ele>7.83</ele>
        <time>2019-05-08T08:28:34Z</time>
      </trkpt>
      <trkpt lat="54.414590019732714" lon="11.276179030537605">
        <ele>7.83</ele>
        <time>2019-05-08T08:28:35Z</time>
      </trkpt>
      <trkpt lat="54.414502009749413" lon="11.276278020814061">
        <ele>7.35</ele>
        <time>2019-05-08T08:28:36Z</time>
      </trkpt>
      <trkpt lat="54.414455993101001" lon="11.276446999981999">
        <ele>6.87</ele>
        <time>2019-05-08T08:28:37Z</time>
      </trkpt>
      <trkpt lat="54.414405031129718" lon="11.276639029383659">
        <ele>6.87</ele>
        <time>2019-05-08T08:28:38Z</time>
      </trkpt>
      <trkpt lat="54.414350967854261" lon="11.276841033250093">
        <ele>6.87</ele>
        <time>2019-05-08T08:28:39Z</time>
      </trkpt>
      <trkpt lat="54.413805976510048" lon="11.278816983103752">
        <ele>3.98</ele>
        <time>2019-05-08T08:28:49Z</time>
      </trkpt>
      <trkpt lat="54.412869969382882" lon="11.281356029212475">
        <ele>3.5</ele>
        <time>2019-05-08T08:28:59Z</time>
      </trkpt>
      <trkpt lat="54.412189023569226" lon="11.283288979902864">
        <ele>2.54</ele>
        <time>2019-05-08T08:29:06Z</time>
      </trkpt>
      <trkpt lat="54.411535989493132" lon="11.285211034119129">
        <ele>0.14</ele>
        <time>2019-05-08T08:29:14Z</time>
      </trkpt>
      <trkpt lat="54.411481004208326" lon="11.285466011613607">
        <ele>-0.34</ele>
        <time>2019-05-08T08:29:15Z</time>
      </trkpt>
      <trkpt lat="54.411420989781618" lon="11.285748984664679">
        <ele>0.14</ele>
        <time>2019-05-08T08:29:16Z</time>
      </trkpt>
      <trkpt lat="54.411420989781618" lon="11.286014020442963">
        <ele>0.62</ele>
        <time>2019-05-08T08:29:17Z</time>
      </trkpt>
      <trkpt lat="54.411420989781618" lon="11.286289030686021">
        <ele>1.1</ele>
        <time>2019-05-08T08:29:18Z</time>
      </trkpt>
      <trkpt lat="54.41159700974822" lon="11.28847997635603">
        <ele>2.54</ele>
        <time>2019-05-08T08:29:25Z</time>
      </trkpt>
      <trkpt lat="54.411929016932845" lon="11.292129037901759">
        <ele>6.87</ele>
        <time>2019-05-08T08:29:36Z</time>
      </trkpt>
      <trkpt lat="54.412239985540509" lon="11.294069029390812">
        <ele>8.789999999999999</ele>
        <time>2019-05-08T08:29:47Z</time>
      </trkpt>
      <trkpt lat="54.412537962198257" lon="11.295694028958678">
        <ele>9.27</ele>
        <time>2019-05-08T08:29:56Z</time>
      </trkpt>
      <trkpt lat="54.41301497630775" lon="11.297683976590633">
        <ele>8.789999999999999</ele>
        <time>2019-05-08T08:30:04Z</time>
      </trkpt>
      <trkpt lat="54.413275988772511" lon="11.29834002815187">
        <ele>7.83</ele>
        <time>2019-05-08T08:30:10Z</time>
      </trkpt>
      <trkpt lat="54.413298033177853" lon="11.298393001779914">
        <ele>7.83</ele>
        <time>2019-05-08T08:30:11Z</time>
      </trkpt>
      <trkpt lat="54.413264002650976" lon="11.29851202480495">
        <ele>7.35</ele>
        <time>2019-05-08T08:30:12Z</time>
      </trkpt>
      <trkpt lat="54.413231983780861" lon="11.298530967906117">
        <ele>7.35</ele>
        <time>2019-05-08T08:30:13Z</time>
      </trkpt>
      <trkpt lat="54.413193007931113" lon="11.298553012311459">
        <ele>6.87</ele>
        <time>2019-05-08T08:30:14Z</time>
      </trkpt>
      <trkpt lat="54.413155037909746" lon="11.298575978726149">
        <ele>6.87</ele>
        <time>2019-05-08T08:30:15Z</time>
      </trkpt>
      <trkpt lat="54.413115978240967" lon="11.29859802313149">
        <ele>6.87</ele>
        <time>2019-05-08T08:30:16Z</time>
      </trkpt>
      <trkpt lat="54.413072979077697" lon="11.298623001202941">
        <ele>6.39</ele>
        <time>2019-05-08T08:30:17Z</time>
      </trkpt>
      <trkpt lat="54.412496974691749" lon="11.298783011734486">
        <ele>6.87</ele>
        <time>2019-05-08T08:30:24Z</time>
      </trkpt>
      <trkpt lat="54.411399029195309" lon="11.299148965626955">
        <ele>9.27</ele>
        <time>2019-05-08T08:30:34Z</time>
      </trkpt>
      <trkpt lat="54.411319987848401" lon="11.299189031124115">
        <ele>9.75</ele>
        <time>2019-05-08T08:30:35Z</time>
      </trkpt>
      <trkpt lat="54.411255028098822" lon="11.299248961731791">
        <ele>9.75</ele>
        <time>2019-05-08T08:30:36Z</time>
      </trkpt>
      <trkpt lat="54.411208005622029" lon="11.2993089761585">
        <ele>9.75</ele>
        <time>2019-05-08T08:30:37Z</time>
      </trkpt>
      <trkpt lat="54.41123298369348" lon="11.299431016668677">
        <ele>10.23</ele>
        <time>2019-05-08T08:30:38Z</time>
      </trkpt>
      <trkpt lat="54.41125201061368" lon="11.299521960318089">
        <ele>9.75</ele>
        <time>2019-05-08T08:30:39Z</time>
      </trkpt>
      <trkpt lat="54.411273971199989" lon="11.299625979736447">
        <ele>9.75</ele>
        <time>2019-05-08T08:30:40Z</time>
      </trkpt>
      <trkpt lat="54.411299033090472" lon="11.299742991104722">
        <ele>9.27</ele>
        <time>2019-05-08T08:30:41Z</time>
      </trkpt>
      <trkpt lat="54.411460971459746" lon="11.300315978005528">
        <ele>7.83</ele>
        <time>2019-05-08T08:30:45Z</time>
      </trkpt>
      <trkpt lat="54.411518974229693" lon="11.30047095939517">
        <ele>7.35</ele>
        <time>2019-05-08T08:30:46Z</time>
      </trkpt>
      <trkpt lat="54.411713015288115" lon="11.300858035683632">
        <ele>6.39</ele>
        <time>2019-05-08T08:30:49Z</time>
      </trkpt>
      <trkpt lat="54.411760959774256" lon="11.300954008474946">
        <ele>5.91</ele>
        <time>2019-05-08T08:30:50Z</time>
      </trkpt>
      <trkpt lat="54.411776969209313" lon="11.301040006801486">
        <ele>5.91</ele>
        <time>2019-05-08T08:30:51Z</time>
      </trkpt>
      <trkpt lat="54.411759031936526" lon="11.30111200734973">
        <ele>5.42</ele>
        <time>2019-05-08T08:30:52Z</time>
      </trkpt>
      <trkpt lat="54.411736987531185" lon="11.301185013726354">
        <ele>5.42</ele>
        <time>2019-05-08T08:30:53Z</time>
      </trkpt>
      <trkpt lat="54.411688959226012" lon="11.30124201066792">
        <ele>4.94</ele>
        <time>2019-05-08T08:30:54Z</time>
      </trkpt>
      <trkpt lat="54.411630034446716" lon="11.301313005387783">
        <ele>4.46</ele>
        <time>2019-05-08T08:30:55Z</time>
      </trkpt>
      <trkpt lat="54.410978006199002" lon="11.302096964791417">
        <ele>4.46</ele>
        <time>2019-05-08T08:31:03Z</time>
      </trkpt>
      <trkpt lat="54.409735975787044" lon="11.303588021546602">
        <ele>4.46</ele>
        <time>2019-05-08T08:31:16Z</time>
      </trkpt>
      <trkpt lat="54.40886601805687" lon="11.304633999243379">
        <ele>3.02</ele>
        <time>2019-05-08T08:31:26Z</time>
      </trkpt>
      <trkpt lat="54.40848296508193" lon="11.305093998089433">
        <ele>1.58</ele>
        <time>2019-05-08T08:31:31Z</time>
      </trkpt>
      <trkpt lat="54.408425968140364" lon="11.305202962830663">
        <ele>1.1</ele>
        <time>2019-05-08T08:31:32Z</time>
      </trkpt>
      <trkpt lat="54.408401995897293" lon="11.305314023047686">
        <ele>0.62</ele>
        <time>2019-05-08T08:31:33Z</time>
      </trkpt>
      <trkpt lat="54.408369977027178" lon="11.305403960868716">
        <ele>0.14</ele>
        <time>2019-05-08T08:31:34Z</time>
      </trkpt>
      <trkpt lat="54.408335024490952" lon="11.305490965023637">
        <ele>-0.34</ele>
        <time>2019-05-08T08:31:35Z</time>
      </trkpt>
      <trkpt lat="54.408281967043877" lon="11.305576963350177">
        <ele>-0.82</ele>
        <time>2019-05-08T08:31:36Z</time>
      </trkpt>
      <trkpt lat="54.408206027001143" lon="11.305639995262027">
        <ele>-1.79</ele>
        <time>2019-05-08T08:31:37Z</time>
      </trkpt>
      <trkpt lat="54.407393988221884" lon="11.306257992982864">
        <ele>-4.67</ele>
        <time>2019-05-08T08:31:46Z</time>
      </trkpt>
      <trkpt lat="54.407302960753441" lon="11.306324964389205">
        <ele>-5.15</ele>
        <time>2019-05-08T08:31:47Z</time>
      </trkpt>
      <trkpt lat="54.406241979449987" lon="11.307116970419884">
        <ele>-7.07</ele>
        <time>2019-05-08T08:31:58Z</time>
      </trkpt>
      <trkpt lat="54.405543012544513" lon="11.30768702365458">
        <ele>-5.63</ele>
        <time>2019-05-08T08:32:08Z</time>
      </trkpt>
      <trkpt lat="54.404674982652068" lon="11.308540971949697">
        <ele>-3.23</ele>
        <time>2019-05-08T08:32:23Z</time>
      </trkpt>
      <trkpt lat="54.403889011591673" lon="11.309380000457168">
        <ele>-1.79</ele>
        <time>2019-05-08T08:32:37Z</time>
      </trkpt>
      <trkpt lat="54.4032590277493" lon="11.31005197763443">
        <ele>0.62</ele>
        <time>2019-05-08T08:32:51Z</time>
      </trkpt>
      <trkpt lat="54.4031329639256" lon="11.310186004266143">
        <ele>2.06</ele>
        <time>2019-05-08T08:32:59Z</time>
      </trkpt>
      <trkpt lat="54.4031329639256" lon="11.310186004266143">
        <ele>3.02</ele>
        <time>2019-05-08T08:33:13Z</time>
      </trkpt>
      <trkpt lat="54.403365980833769" lon="11.309937983751297">
        <ele>3.98</ele>
        <time>2019-05-08T08:33:20Z</time>
      </trkpt>
      <trkpt lat="54.404430985450745" lon="11.308801984414458">
        <ele>4.46</ele>
        <time>2019-05-08T08:33:33Z</time>
      </trkpt>
      <trkpt lat="54.405500013381243" lon="11.307721976190805">
        <ele>5.42</ele>
        <time>2019-05-08T08:33:44Z</time>
      </trkpt>
      <trkpt lat="54.406606005504727" lon="11.306835003197193">
        <ele>6.39</ele>
        <time>2019-05-08T08:33:51Z</time>
      </trkpt>
      <trkpt lat="54.408064037561417" lon="11.305757006630301">
        <ele>3.98</ele>
        <time>2019-05-08T08:34:00Z</time>
      </trkpt>
      <trkpt lat="54.408324966207147" lon="11.305518038570881">
        <ele>3.98</ele>
        <time>2019-05-08T08:34:03Z</time>
      </trkpt>
      <trkpt lat="54.408361008390784" lon="11.305427011102438">
        <ele>3.98</ele>
        <time>2019-05-08T08:34:04Z</time>
      </trkpt>
      <trkpt lat="54.408400990068913" lon="11.305316034704447">
        <ele>3.98</ele>
        <time>2019-05-08T08:34:05Z</time>
      </trkpt>
      <trkpt lat="54.408429991453886" lon="11.305184019729495">
        <ele>3.98</ele>
        <time>2019-05-08T08:34:06Z</time>
      </trkpt>
      <trkpt lat="54.40850199200213" lon="11.305070025846362">
        <ele>3.5</ele>
        <time>2019-05-08T08:34:07Z</time>
      </trkpt>
      <trkpt lat="54.408603999763727" lon="11.304948991164565">
        <ele>3.5</ele>
        <time>2019-05-08T08:34:08Z</time>
      </trkpt>
      <trkpt lat="54.408722016960382" lon="11.304805995896459">
        <ele>3.98</ele>
        <time>2019-05-08T08:34:09Z</time>
      </trkpt>
      <trkpt lat="54.409686019644141" lon="11.30364803597331">
        <ele>4.94</ele>
        <time>2019-05-08T08:34:15Z</time>
      </trkpt>
      <trkpt lat="54.411257039755583" lon="11.301760012283921">
        <ele>5.42</ele>
        <time>2019-05-08T08:34:24Z</time>
      </trkpt>
      <trkpt lat="54.411701029166579" lon="11.301227007061243">
        <ele>5.42</ele>
        <time>2019-05-08T08:34:29Z</time>
      </trkpt>
      <trkpt lat="54.41174603998661" lon="11.301165986806154">
        <ele>5.42</ele>
        <time>2019-05-08T08:34:30Z</time>
      </trkpt>
      <trkpt lat="54.411765988916159" lon="11.301087029278278">
        <ele>5.42</ele>
        <time>2019-05-08T08:34:31Z</time>
      </trkpt>
      <trkpt lat="54.411754002794623" lon="11.30094101652503">
        <ele>5.42</ele>
        <time>2019-05-08T08:34:32Z</time>
      </trkpt>
      <trkpt lat="54.41170597448945" lon="11.300844037905335">
        <ele>5.42</ele>
        <time>2019-05-08T08:34:33Z</time>
      </trkpt>
      <trkpt lat="54.411642020568252" lon="11.300716968253255">
        <ele>5.91</ele>
        <time>2019-05-08T08:34:34Z</time>
      </trkpt>
      <trkpt lat="54.411485027521849" lon="11.30038202740252">
        <ele>6.39</ele>
        <time>2019-05-08T08:34:36Z</time>
      </trkpt>
      <trkpt lat="54.411409003660083" lon="11.30016703158617">
        <ele>6.87</ele>
        <time>2019-05-08T08:34:37Z</time>
      </trkpt>
      <trkpt lat="54.411247987300158" lon="11.299504023045301">
        <ele>8.310000000000001</ele>
        <time>2019-05-08T08:34:41Z</time>
      </trkpt>
      <trkpt lat="54.411228038370609" lon="11.299408972263336">
        <ele>8.789999999999999</ele>
        <time>2019-05-08T08:34:42Z</time>
      </trkpt>
      <trkpt lat="54.411214962601662" lon="11.299300007522106">
        <ele>9.27</ele>
        <time>2019-05-08T08:34:43Z</time>
      </trkpt>
      <trkpt lat="54.411254022270441" lon="11.299250973388553">
        <ele>9.27</ele>
        <time>2019-05-08T08:34:44Z</time>
      </trkpt>
      <trkpt lat="54.411314958706498" lon="11.299191964790225">
        <ele>9.75</ele>
        <time>2019-05-08T08:34:45Z</time>
      </trkpt>
      <trkpt lat="54.411401962861419" lon="11.299147959798574">
        <ele>9.75</ele>
        <time>2019-05-08T08:34:46Z</time>
      </trkpt>
      <trkpt lat="54.411506988108158" lon="11.29909498617053">
        <ele>9.75</ele>
        <time>2019-05-08T08:34:47Z</time>
      </trkpt>
      <trkpt lat="54.412410976365209" lon="11.298806983977556">
        <ele>9.75</ele>
        <time>2019-05-08T08:34:53Z</time>
      </trkpt>
      <trkpt lat="54.413145985454321" lon="11.298581007868052">
        <ele>9.27</ele>
        <time>2019-05-08T08:34:59Z</time>
      </trkpt>
      <trkpt lat="54.413195019587874" lon="11.298553012311459">
        <ele>9.27</ele>
        <time>2019-05-08T08:35:00Z</time>
      </trkpt>
      <trkpt lat="54.413231983780861" lon="11.298530967906117">
        <ele>9.27</ele>
        <time>2019-05-08T08:35:01Z</time>
      </trkpt>
      <trkpt lat="54.413256039842963" lon="11.298516970127821">
        <ele>9.27</ele>
        <time>2019-05-08T08:35:02Z</time>
      </trkpt>
      <trkpt lat="54.413300966843963" lon="11.298399958759546">
        <ele>9.27</ele>
        <time>2019-05-08T08:35:03Z</time>
      </trkpt>
      <trkpt lat="54.413285963237286" lon="11.29836400039494">
        <ele>9.27</ele>
        <time>2019-05-08T08:35:04Z</time>
      </trkpt>
      <trkpt lat="54.413259979337454" lon="11.29829996265471">
        <ele>9.27</ele>
        <time>2019-05-08T08:35:05Z</time>
      </trkpt>
      <trkpt lat="54.413217986002564" lon="11.298198960721493">
        <ele>9.27</ele>
        <time>2019-05-08T08:35:06Z</time>
      </trkpt>
      <trkpt lat="54.412827976047993" lon="11.296990960836411">
        <ele>11.67</ele>
        <time>2019-05-08T08:35:12Z</time>
      </trkpt>
      <trkpt lat="54.412290025502443" lon="11.294341022148728">
        <ele>14.08</ele>
        <time>2019-05-08T08:35:20Z</time>
      </trkpt>
      <trkpt lat="54.411778980866075" lon="11.290515018627048">
        <ele>15.52</ele>
        <time>2019-05-08T08:35:30Z</time>
      </trkpt>
      <trkpt lat="54.411471029743552" lon="11.287078019231558">
        <ele>14.56</ele>
        <time>2019-05-08T08:35:40Z</time>
      </trkpt>
      <trkpt lat="54.411496007815003" lon="11.285395016893744">
        <ele>14.08</ele>
        <time>2019-05-08T08:35:49Z</time>
      </trkpt>
      <trkpt lat="54.411539006978273" lon="11.285195024684072">
        <ele>13.6</ele>
        <time>2019-05-08T08:35:50Z</time>
      </trkpt>
      <trkpt lat="54.41159600391984" lon="11.284969970583916">
        <ele>12.630000000000001</ele>
        <time>2019-05-08T08:35:51Z</time>
      </trkpt>
      <trkpt lat="54.412100007757545" lon="11.283542029559612">
        <ele>11.67</ele>
        <time>2019-05-08T08:35:56Z</time>
      </trkpt>
      <trkpt lat="54.413374979048967" lon="11.279963040724397">
        <ele>15.039999999999999</ele>
        <time>2019-05-08T08:36:06Z</time>
      </trkpt>
      <trkpt lat="54.414120968431234" lon="11.277775028720498">
        <ele>14.56</ele>
        <time>2019-05-08T08:36:13Z</time>
      </trkpt>
      <trkpt lat="54.41441098228097" lon="11.276615979149938">
        <ele>14.08</ele>
        <time>2019-05-08T08:36:19Z</time>
      </trkpt>
      <trkpt lat="54.414449958130717" lon="11.276469966396689">
        <ele>13.6</ele>
        <time>2019-05-08T08:36:20Z</time>
      </trkpt>
      <trkpt lat="54.414489017799497" lon="11.276324959471822">
        <ele>13.6</ele>
        <time>2019-05-08T08:36:21Z</time>
      </trkpt>
      <trkpt lat="54.41456001251936" lon="11.276204008609056">
        <ele>13.6</ele>
        <time>2019-05-08T08:36:22Z</time>
      </trkpt>
      <trkpt lat="54.4146460108459" lon="11.276136031374335">
        <ele>13.119999999999999</ele>
        <time>2019-05-08T08:36:23Z</time>
      </trkpt>
      <trkpt lat="54.41473301500082" lon="11.276065036654472">
        <ele>13.119999999999999</ele>
        <time>2019-05-08T08:36:24Z</time>
      </trkpt>
      <trkpt lat="54.414824964478612" lon="11.275992030277848">
        <ele>12.630000000000001</ele>
        <time>2019-05-08T08:36:25Z</time>
      </trkpt>
      <trkpt lat="54.414921021088958" lon="11.275947019457817">
        <ele>12.15</ele>
        <time>2019-05-08T08:36:26Z</time>
      </trkpt>
      <trkpt lat="54.41501397639513" lon="11.275907037779689">
        <ele>12.15</ele>
        <time>2019-05-08T08:36:27Z</time>
      </trkpt>
      <trkpt lat="54.415327040478587" lon="11.275770999491215">
        <ele>10.710000000000001</ele>
        <time>2019-05-08T08:36:31Z</time>
      </trkpt>
      <trkpt lat="54.415387976914644" lon="11.275693969801068">
        <ele>10.23</ele>
        <time>2019-05-08T08:36:32Z</time>
      </trkpt>
      <trkpt lat="54.415418989956379" lon="11.275607971474528">
        <ele>10.23</ele>
        <time>2019-05-08T08:36:33Z</time>
      </trkpt>
      <trkpt lat="54.415433993563056" lon="11.275470005348325">
        <ele>10.23</ele>
        <time>2019-05-08T08:36:34Z</time>
      </trkpt>
      <trkpt lat="54.415425024926662" lon="11.275343019515276">
        <ele>10.23</ele>
        <time>2019-05-08T08:36:35Z</time>
      </trkpt>
      <trkpt lat="54.415413038805127" lon="11.275182003155351">
        <ele>10.23</ele>
        <time>2019-05-08T08:36:36Z</time>
      </trkpt>
      <trkpt lat="54.415304996073246" lon="11.274096965789795">
        <ele>8.789999999999999</ele>
        <time>2019-05-08T08:36:42Z</time>
      </trkpt>
      <trkpt lat="54.415326034650207" lon="11.274014990776777">
        <ele>8.310000000000001</ele>
        <time>2019-05-08T08:36:43Z</time>
      </trkpt>
      <trkpt lat="54.415417984127998" lon="11.273904014378786">
        <ele>7.83</ele>
        <time>2019-05-08T08:36:44Z</time>
      </trkpt>
      <trkpt lat="54.415496019646525" lon="11.273810975253582">
        <ele>6.87</ele>
        <time>2019-05-08T08:36:45Z</time>
      </trkpt>
      <trkpt lat="54.415582017973065" lon="11.273710979148746">
        <ele>6.39</ele>
        <time>2019-05-08T08:36:46Z</time>
      </trkpt>
      <trkpt lat="54.415674973279238" lon="11.273610983043909">
        <ele>5.42</ele>
        <time>2019-05-08T08:36:47Z</time>
      </trkpt>
      <trkpt lat="54.416479971259832" lon="11.272716969251633">
        <ele>3.02</ele>
        <time>2019-05-08T08:36:56Z</time>
      </trkpt>
      <trkpt lat="54.416616009548306" lon="11.272515971213579">
        <ele>3.02</ele>
        <time>2019-05-08T08:36:58Z</time>
      </trkpt>
      <trkpt lat="54.416677029803395" lon="11.272403988987207">
        <ele>3.5</ele>
        <time>2019-05-08T08:36:59Z</time>
      </trkpt>
      <trkpt lat="54.416736960411072" lon="11.272295024245977">
        <ele>3.5</ele>
        <time>2019-05-08T08:37:00Z</time>
      </trkpt>
      <trkpt lat="54.416799992322922" lon="11.272097965702415">
        <ele>3.5</ele>
        <time>2019-05-08T08:37:01Z</time>
      </trkpt>
      <trkpt lat="54.416783982887864" lon="11.271940972656012">
        <ele>3.98</ele>
        <time>2019-05-08T08:37:02Z</time>
      </trkpt>
      <trkpt lat="54.416766967624426" lon="11.271774005144835">
        <ele>3.98</ele>
        <time>2019-05-08T08:37:03Z</time>
      </trkpt>
      <trkpt lat="54.416749030351639" lon="11.271595973521471">
        <ele>3.98</ele>
        <time>2019-05-08T08:37:04Z</time>
      </trkpt>
      <trkpt lat="54.416613997891545" lon="11.269770981743932">
        <ele>5.42</ele>
        <time>2019-05-08T08:37:14Z</time>
      </trkpt>
      <trkpt lat="54.416613997891545" lon="11.269592028111219">
        <ele>5.42</ele>
        <time>2019-05-08T08:37:15Z</time>
      </trkpt>
      <trkpt lat="54.416701002046466" lon="11.269436962902546">
        <ele>5.42</ele>
        <time>2019-05-08T08:37:16Z</time>
      </trkpt>
      <trkpt lat="54.416760010644794" lon="11.269268989562988">
        <ele>5.42</ele>
        <time>2019-05-08T08:37:17Z</time>
      </trkpt>
      <trkpt lat="54.416823964565992" lon="11.269086012616754">
        <ele>5.42</ele>
        <time>2019-05-08T08:37:18Z</time>
      </trkpt>
      <trkpt lat="54.416909962892532" lon="11.268900018185377">
        <ele>5.91</ele>
        <time>2019-05-08T08:37:19Z</time>
      </trkpt>
      <trkpt lat="54.417016999796033" lon="11.268700025975704">
        <ele>5.91</ele>
        <time>2019-05-08T08:37:20Z</time>
      </trkpt>
      <trkpt lat="54.417989971116185" lon="11.266873022541404">
        <ele>7.35</ele>
        <time>2019-05-08T08:37:27Z</time>
      </trkpt>
      <trkpt lat="54.419219009578228" lon="11.26420296728611">
        <ele>9.75</ele>
        <time>2019-05-08T08:37:35Z</time>
      </trkpt>
      <trkpt lat="54.42079296335578" lon="11.26031200401485">
        <ele>14.56</ele>
        <time>2019-05-08T08:37:46Z</time>
      </trkpt>
      <trkpt lat="54.422258958220482" lon="11.256683981046081">
        <ele>19.359999999999999</ele>
        <time>2019-05-08T08:37:57Z</time>
      </trkpt>
      <trkpt lat="54.422699008136988" lon="11.255363998934627">
        <ele>21.77</ele>
        <time>2019-05-08T08:38:03Z</time>
      </trkpt>
      <trkpt lat="54.422745024785399" lon="11.255147997289896">
        <ele>21.289999999999999</ele>
        <time>2019-05-08T08:38:04Z</time>
      </trkpt>
      <trkpt lat="54.422792969271541" lon="11.254925038665533">
        <ele>20.809999999999999</ele>
        <time>2019-05-08T08:38:05Z</time>
      </trkpt>
      <trkpt lat="54.423029003664851" lon="11.25307397916913">
        <ele>17.440000000000001</ele>
        <time>2019-05-08T08:38:14Z</time>
      </trkpt>
      <trkpt lat="54.423099998384714" lon="11.252687992528081">
        <ele>17.920000000000002</ele>
        <time>2019-05-08T08:38:16Z</time>
      </trkpt>
      <trkpt lat="54.423153977841139" lon="11.252523958683014">
        <ele>17.920000000000002</ele>
        <time>2019-05-08T08:38:17Z</time>
      </trkpt>
      <trkpt lat="54.423216003924608" lon="11.252391021698713">
        <ele>17.920000000000002</ele>
        <time>2019-05-08T08:38:18Z</time>
      </trkpt>
      <trkpt lat="54.423280963674188" lon="11.252252971753478">
        <ele>18.399999999999999</ele>
        <time>2019-05-08T08:38:19Z</time>
      </trkpt>
      <trkpt lat="54.423345001414418" lon="11.252120034769177">
        <ele>18.399999999999999</ele>
        <time>2019-05-08T08:38:20Z</time>
      </trkpt>
      <trkpt lat="54.423446003347635" lon="11.251906966790557">
        <ele>17.920000000000002</ele>
        <time>2019-05-08T08:38:22Z</time>
      </trkpt>
      <trkpt lat="54.423483973369002" lon="11.251828009262681">
        <ele>17.920000000000002</ele>
        <time>2019-05-08T08:38:23Z</time>
      </trkpt>
      <trkpt lat="54.423518003895879" lon="11.251756008714437">
        <ele>17.440000000000001</ele>
        <time>2019-05-08T08:38:24Z</time>
      </trkpt>
      <trkpt lat="54.423587992787361" lon="11.251608990132809">
        <ele>17.440000000000001</ele>
        <time>2019-05-08T08:38:25Z</time>
      </trkpt>
      <trkpt lat="54.423652030527592" lon="11.25163204036653">
        <ele>16.960000000000001</ele>
        <time>2019-05-08T08:38:26Z</time>
      </trkpt>
      <trkpt lat="54.423730988055468" lon="11.251660035923123">
        <ele>16.960000000000001</ele>
        <time>2019-05-08T08:38:27Z</time>
      </trkpt>
      <trkpt lat="54.423813968896866" lon="11.251689037308097">
        <ele>16.48</ele>
        <time>2019-05-08T08:38:28Z</time>
      </trkpt>
      <trkpt lat="54.423953024670482" lon="11.251737987622619">
        <ele>16</ele>
        <time>2019-05-08T08:38:29Z</time>
      </trkpt>
      <trkpt lat="54.423983031883836" lon="11.25173999927938">
        <ele>16</ele>
        <time>2019-05-08T08:38:30Z</time>
      </trkpt>
      <trkpt lat="54.424068024381995" lon="11.251744022592902">
        <ele>15.52</ele>
        <time>2019-05-08T08:38:31Z</time>
      </trkpt>
      <trkpt lat="54.424149999395013" lon="11.251747962087393">
        <ele>15.039999999999999</ele>
        <time>2019-05-08T08:38:32Z</time>
      </trkpt>
      <trkpt lat="54.424229962751269" lon="11.251751985400915">
        <ele>15.039999999999999</ele>
        <time>2019-05-08T08:38:33Z</time>
      </trkpt>
      <trkpt lat="54.424571022391319" lon="11.251769000664353">
        <ele>13.6</ele>
        <time>2019-05-08T08:38:38Z</time>
      </trkpt>
      <trkpt lat="54.424634976312518" lon="11.251772018149495">
        <ele>13.119999999999999</ele>
        <time>2019-05-08T08:38:39Z</time>
      </trkpt>
      <trkpt lat="54.424705971032381" lon="11.251776041463017">
        <ele>12.630000000000001</ele>
        <time>2019-05-08T08:38:40Z</time>
      </trkpt>
      <trkpt lat="54.424775037914515" lon="11.251778975129128">
        <ele>12.15</ele>
        <time>2019-05-08T08:38:41Z</time>
      </trkpt>
      <trkpt lat="54.424841003492475" lon="11.251773023977876">
        <ele>12.15</ele>
        <time>2019-05-08T08:38:42Z</time>
      </trkpt>
      <trkpt lat="54.424905963242054" lon="11.251753997057676">
        <ele>12.15</ele>
        <time>2019-05-08T08:38:43Z</time>
      </trkpt>
      <trkpt lat="54.424977041780949" lon="11.25171703286469">
        <ele>12.15</ele>
        <time>2019-05-08T08:38:44Z</time>
      </trkpt>
      <trkpt lat="54.425026997923851" lon="11.251649977639318">
        <ele>12.15</ele>
        <time>2019-05-08T08:38:45Z</time>
      </trkpt>
      <trkpt lat="54.425097992643714" lon="11.251529026776552">
        <ele>12.15</ele>
        <time>2019-05-08T08:38:46Z</time>
      </trkpt>
      <trkpt lat="54.425379959866405" lon="11.250242991372943">
        <ele>10.710000000000001</ele>
        <time>2019-05-08T08:38:52Z</time>
      </trkpt>
      <trkpt lat="54.425460007041693" lon="11.250007962808013">
        <ele>10.23</ele>
        <time>2019-05-08T08:38:53Z</time>
      </trkpt>
      <trkpt lat="54.425563020631671" lon="11.249778969213367">
        <ele>10.23</ele>
        <time>2019-05-08T08:38:54Z</time>
      </trkpt>
      <trkpt lat="54.426591983065009" lon="11.248283972963691">
        <ele>10.710000000000001</ele>
        <time>2019-05-08T08:39:01Z</time>
      </trkpt>
      <trkpt lat="54.427706021815538" lon="11.247575031593442">
        <ele>11.67</ele>
        <time>2019-05-08T08:39:07Z</time>
      </trkpt>
      <trkpt lat="54.427907019853592" lon="11.247568996623158">
        <ele>11.67</ele>
        <time>2019-05-08T08:39:08Z</time>
      </trkpt>
      <trkpt lat="54.429760007187724" lon="11.247487021610141">
        <ele>12.15</ele>
        <time>2019-05-08T08:39:16Z</time>
      </trkpt>
      <trkpt lat="54.432090008631349" lon="11.24712098389864">
        <ele>12.630000000000001</ele>
        <time>2019-05-08T08:39:26Z</time>
      </trkpt>
      <trkpt lat="54.433537982404232" lon="11.246729968115687">
        <ele>12.15</ele>
        <time>2019-05-08T08:39:33Z</time>
      </trkpt>
      <trkpt lat="54.434009967371821" lon="11.246601976454258">
        <ele>11.19</ele>
        <time>2019-05-08T08:39:38Z</time>
      </trkpt>
      <trkpt lat="54.434034023433924" lon="11.246595019474626">
        <ele>11.19</ele>
        <time>2019-05-08T08:39:39Z</time>
      </trkpt>
      <trkpt lat="54.434063024818897" lon="11.246570963412523">
        <ele>11.19</ele>
        <time>2019-05-08T08:39:40Z</time>
      </trkpt>
      <trkpt lat="54.43409102037549" lon="11.246449006721377">
        <ele>11.19</ele>
        <time>2019-05-08T08:39:42Z</time>
      </trkpt>
      <trkpt lat="54.434118010103703" lon="11.24632797203958">
        <ele>11.19</ele>
        <time>2019-05-08T08:39:43Z</time>
      </trkpt>
      <trkpt lat="54.434406012296677" lon="11.245043026283383">
        <ele>11.67</ele>
        <time>2019-05-08T08:39:49Z</time>
      </trkpt>
      <trkpt lat="54.434813037514687" lon="11.243139998987317">
        <ele>11.67</ele>
        <time>2019-05-08T08:39:57Z</time>
      </trkpt>
      <trkpt lat="54.434877997264266" lon="11.243019970133901">
        <ele>11.19</ele>
        <time>2019-05-08T08:39:58Z</time>
      </trkpt>
      <trkpt lat="54.434936000034213" lon="11.242985017597675">
        <ele>11.19</ele>
        <time>2019-05-08T08:39:59Z</time>
      </trkpt>
      <trkpt lat="54.434987967833877" lon="11.242954004555941">
        <ele>11.19</ele>
        <time>2019-05-08T08:40:00Z</time>
      </trkpt>
      <trkpt lat="54.435069020837545" lon="11.242948975414038">
        <ele>10.710000000000001</ele>
        <time>2019-05-08T08:40:01Z</time>
      </trkpt>
      <trkpt lat="54.435116965323687" lon="11.243011001497507">
        <ele>10.710000000000001</ele>
        <time>2019-05-08T08:40:02Z</time>
      </trkpt>
      <trkpt lat="54.435171028599143" lon="11.24308199621737">
        <ele>10.710000000000001</ele>
        <time>2019-05-08T08:40:03Z</time>
      </trkpt>
      <trkpt lat="54.43523095920682" lon="11.243160031735897">
        <ele>10.710000000000001</ele>
        <time>2019-05-08T08:40:04Z</time>
      </trkpt>
      <trkpt lat="54.435289967805147" lon="11.243237983435392">
        <ele>10.710000000000001</ele>
        <time>2019-05-08T08:40:05Z</time>
      </trkpt>
      <trkpt lat="54.435350988060236" lon="11.243293974548578">
        <ele>10.710000000000001</ele>
        <time>2019-05-08T08:40:06Z</time>
      </trkpt>
      <trkpt lat="54.43542399443686" lon="11.243322975933552">
        <ele>11.19</ele>
        <time>2019-05-08T08:40:07Z</time>
      </trkpt>
      <trkpt lat="54.435508986935019" lon="11.243316018953919">
        <ele>11.19</ele>
        <time>2019-05-08T08:40:08Z</time>
      </trkpt>
      <trkpt lat="54.435664974153042" lon="11.243292968720198">
        <ele>12.15</ele>
        <time>2019-05-08T08:40:10Z</time>
      </trkpt>
      <trkpt lat="54.435748038813472" lon="11.243279976770282">
        <ele>12.15</ele>
        <time>2019-05-08T08:40:11Z</time>
      </trkpt>
      <trkpt lat="54.435836970806122" lon="11.243266984820366">
        <ele>12.15</ele>
        <time>2019-05-08T08:40:12Z</time>
      </trkpt>
      <trkpt lat="54.436351032927632" lon="11.2431909609586">
        <ele>9.75</ele>
        <time>2019-05-08T08:40:18Z</time>
      </trkpt>
      <trkpt lat="54.436437031254172" lon="11.243177969008684">
        <ele>9.27</ele>
        <time>2019-05-08T08:40:19Z</time>
      </trkpt>
      <trkpt lat="54.436781024560332" lon="11.24314796179533">
        <ele>8.310000000000001</ele>
        <time>2019-05-08T08:40:23Z</time>
      </trkpt>
      <trkpt lat="54.436873979866505" lon="11.243138993158937">
        <ele>7.83</ele>
        <time>2019-05-08T08:40:24Z</time>
      </trkpt>
      <trkpt lat="54.437758019194007" lon="11.243009995669127">
        <ele>7.35</ele>
        <time>2019-05-08T08:40:31Z</time>
      </trkpt>
      <trkpt lat="54.439348988234997" lon="11.242732973769307">
        <ele>8.310000000000001</ele>
        <time>2019-05-08T08:40:40Z</time>
      </trkpt>
      <trkpt lat="54.439903032034636" lon="11.242635995149612">
        <ele>7.83</ele>
        <time>2019-05-08T08:40:43Z</time>
      </trkpt>
      <trkpt lat="54.440068993717432" lon="11.242645969614387">
        <ele>7.83</ele>
        <time>2019-05-08T08:40:44Z</time>
      </trkpt>
      <trkpt lat="54.440229004248977" lon="11.242712019011378">
        <ele>7.83</ele>
        <time>2019-05-08T08:40:45Z</time>
      </trkpt>
      <trkpt lat="54.440394965931773" lon="11.242793994024396">
        <ele>7.83</ele>
        <time>2019-05-08T08:40:46Z</time>
      </trkpt>
      <trkpt lat="54.440548019483685" lon="11.242937995120883">
        <ele>7.83</ele>
        <time>2019-05-08T08:40:47Z</time>
      </trkpt>
      <trkpt lat="54.440706018358469" lon="11.243087025359273">
        <ele>7.35</ele>
        <time>2019-05-08T08:40:48Z</time>
      </trkpt>
      <trkpt lat="54.440860999748111" lon="11.243289029225707">
        <ele>7.83</ele>
        <time>2019-05-08T08:40:49Z</time>
      </trkpt>
      <trkpt lat="54.441012041643262" lon="11.243497990071774">
        <ele>7.83</ele>
        <time>2019-05-08T08:40:50Z</time>
      </trkpt>
      <trkpt lat="54.441153025254607" lon="11.243759002536535">
        <ele>7.35</ele>
        <time>2019-05-08T08:40:51Z</time>
      </trkpt>
      <trkpt lat="54.442810965701938" lon="11.246729968115687">
        <ele>7.83</ele>
        <time>2019-05-08T08:41:02Z</time>
      </trkpt>
      <trkpt lat="54.444348039105535" lon="11.24853802844882">
        <ele>9.27</ele>
        <time>2019-05-08T08:41:10Z</time>
      </trkpt>
      <trkpt lat="54.445545980706811" lon="11.250013997778296">
        <ele>12.15</ele>
        <time>2019-05-08T08:41:17Z</time>
      </trkpt>
      <trkpt lat="54.445913024246693" lon="11.250283978879452">
        <ele>13.119999999999999</ele>
        <time>2019-05-08T08:41:20Z</time>
      </trkpt>
      <trkpt lat="54.44601402617991" lon="11.250334018841386">
        <ele>13.6</ele>
        <time>2019-05-08T08:41:21Z</time>
      </trkpt>
      <trkpt lat="54.446121985092759" lon="11.250385986641049">
        <ele>13.6</ele>
        <time>2019-05-08T08:41:22Z</time>
      </trkpt>
      <trkpt lat="54.446223992854357" lon="11.250360002741218">
        <ele>14.08</ele>
        <time>2019-05-08T08:41:23Z</time>
      </trkpt>
      <trkpt lat="54.446324994787574" lon="11.250335024669766">
        <ele>14.08</ele>
        <time>2019-05-08T08:41:24Z</time>
      </trkpt>
      <trkpt lat="54.446910973638296" lon="11.250160010531545">
        <ele>13.6</ele>
        <time>2019-05-08T08:41:30Z</time>
      </trkpt>
      <trkpt lat="54.447993999347091" lon="11.249778969213367">
        <ele>10.710000000000001</ele>
        <time>2019-05-08T08:41:37Z</time>
      </trkpt>
      <trkpt lat="54.449586980044842" lon="11.249259961768985">
        <ele>4.94</ele>
        <time>2019-05-08T08:41:46Z</time>
      </trkpt>
      <trkpt lat="54.44977599196136" lon="11.249201958999038">
        <ele>4.46</ele>
        <time>2019-05-08T08:41:48Z</time>
      </trkpt>
      <trkpt lat="54.449843969196081" lon="11.249126018956304">
        <ele>4.46</ele>
        <time>2019-05-08T08:41:49Z</time>
      </trkpt>
      <trkpt lat="54.449865007773042" lon="11.249029040336609">
        <ele>3.98</ele>
        <time>2019-05-08T08:41:50Z</time>
      </trkpt>
      <trkpt lat="54.449873976409435" lon="11.248917980119586">
        <ele>3.98</ele>
        <time>2019-05-08T08:41:51Z</time>
      </trkpt>
      <trkpt lat="54.449873976409435" lon="11.248784037306905">
        <ele>3.5</ele>
        <time>2019-05-08T08:41:52Z</time>
      </trkpt>
      <trkpt lat="54.449873976409435" lon="11.248627966269851">
        <ele>3.5</ele>
        <time>2019-05-08T08:41:53Z</time>
      </trkpt>
      <trkpt lat="54.449873976409435" lon="11.248467033728957">
        <ele>3.98</ele>
        <time>2019-05-08T08:41:54Z</time>
      </trkpt>
      <trkpt lat="54.449873976409435" lon="11.248318003490567">
        <ele>3.5</ele>
        <time>2019-05-08T08:41:55Z</time>
      </trkpt>
      <trkpt lat="54.449873976409435" lon="11.248175008222461">
        <ele>3.5</ele>
        <time>2019-05-08T08:41:56Z</time>
      </trkpt>
      <trkpt lat="54.449894009158015" lon="11.247983984649181">
        <ele>3.5</ele>
        <time>2019-05-08T08:41:57Z</time>
      </trkpt>
      <trkpt lat="54.449958968907595" lon="11.247919024899602">
        <ele>3.02</ele>
        <time>2019-05-08T08:41:58Z</time>
      </trkpt>
      <trkpt lat="54.450070029124618" lon="11.247863033786416">
        <ele>3.02</ele>
        <time>2019-05-08T08:41:59Z</time>
      </trkpt>
      <trkpt lat="54.450187962502241" lon="11.247805031016469">
        <ele>2.54</ele>
        <time>2019-05-08T08:42:00Z</time>
      </trkpt>
      <trkpt lat="54.450321989133954" lon="11.247737975791097">
        <ele>2.54</ele>
        <time>2019-05-08T08:42:01Z</time>
      </trkpt>
      <trkpt lat="54.451614981517196" lon="11.247244030237198">
        <ele>1.58</ele>
        <time>2019-05-08T08:42:08Z</time>
      </trkpt>
      <trkpt lat="54.453780027106404" lon="11.246555959805846">
        <ele>3.02</ele>
        <time>2019-05-08T08:42:17Z</time>
      </trkpt>
      <trkpt lat="54.455363033339381" lon="11.246005017310381">
        <ele>4.94</ele>
        <time>2019-05-08T08:42:24Z</time>
      </trkpt>
      <trkpt lat="54.457850027829409" lon="11.245005978271365">
        <ele>4.94</ele>
        <time>2019-05-08T08:42:34Z</time>
      </trkpt>
      <trkpt lat="54.459093986079097" lon="11.244623009115458">
        <ele>5.91</ele>
        <time>2019-05-08T08:42:40Z</time>
      </trkpt>
      <trkpt lat="54.45940101519227" lon="11.244527958333492">
        <ele>5.42</ele>
        <time>2019-05-08T08:42:42Z</time>
      </trkpt>
      <trkpt lat="54.460403993725777" lon="11.244562994688749">
        <ele>6.87</ele>
        <time>2019-05-08T08:42:50Z</time>
      </trkpt>
      <trkpt lat="54.460584037005901" lon="11.244548996910453">
        <ele>7.35</ele>
        <time>2019-05-08T08:42:52Z</time>
      </trkpt>
      <trkpt lat="54.460741030052304" lon="11.244536004960537">
        <ele>7.83</ele>
        <time>2019-05-08T08:42:54Z</time>
      </trkpt>
      <trkpt lat="54.461209997534752" lon="11.244430979713798">
        <ele>8.789999999999999</ele>
        <time>2019-05-08T08:43:00Z</time>
      </trkpt>
      <trkpt lat="54.461739985272288" lon="11.243968969210982">
        <ele>7.35</ele>
        <time>2019-05-08T08:43:08Z</time>
      </trkpt>
      <trkpt lat="54.461787007749081" lon="11.243875008076429">
        <ele>6.87</ele>
        <time>2019-05-08T08:43:09Z</time>
      </trkpt>
      <trkpt lat="54.461865965276957" lon="11.243639979511499">
        <ele>6.39</ele>
        <time>2019-05-08T08:43:11Z</time>
      </trkpt>
      <trkpt lat="54.462069980800152" lon="11.242834981530905">
        <ele>6.39</ele>
        <time>2019-05-08T08:43:17Z</time>
      </trkpt>
      <trkpt lat="54.462099988013506" lon="11.242716964334249">
        <ele>6.39</ele>
        <time>2019-05-08T08:43:18Z</time>
      </trkpt>
      <trkpt lat="54.462128989398479" lon="11.242601964622736">
        <ele>6.39</ele>
        <time>2019-05-08T08:43:19Z</time>
      </trkpt>
      <trkpt lat="54.462157990783453" lon="11.242488976567984">
        <ele>6.39</ele>
        <time>2019-05-08T08:43:20Z</time>
      </trkpt>
      <trkpt lat="54.462234014645219" lon="11.242396021261811">
        <ele>6.39</ele>
        <time>2019-05-08T08:43:21Z</time>
      </trkpt>
      <trkpt lat="54.462307021021843" lon="11.242339024320245">
        <ele>6.87</ele>
        <time>2019-05-08T08:43:22Z</time>
      </trkpt>
      <trkpt lat="54.462379021570086" lon="11.242282027378678">
        <ele>6.87</ele>
        <time>2019-05-08T08:43:23Z</time>
      </trkpt>
      <trkpt lat="54.462468959391117" lon="11.242211032658815">
        <ele>6.87</ele>
        <time>2019-05-08T08:43:24Z</time>
      </trkpt>
      <trkpt lat="54.463604036718607" lon="11.241657994687557">
        <ele>5.91</ele>
        <time>2019-05-08T08:43:36Z</time>
      </trkpt>
      <trkpt lat="54.46391399949789" lon="11.241589011624455">
        <ele>4.94</ele>
        <time>2019-05-08T08:43:39Z</time>
      </trkpt>
      <trkpt lat="54.464016007259488" lon="11.241589011624455">
        <ele>4.46</ele>
        <time>2019-05-08T08:43:40Z</time>
      </trkpt>
      <trkpt lat="54.464116003364325" lon="11.241589011624455">
        <ele>3.98</ele>
        <time>2019-05-08T08:43:41Z</time>
      </trkpt>
      <trkpt lat="54.46421499364078" lon="11.241589011624455">
        <ele>3.98</ele>
        <time>2019-05-08T08:43:42Z</time>
      </trkpt>
      <trkpt lat="54.464311972260475" lon="11.241589011624455">
        <ele>3.5</ele>
        <time>2019-05-08T08:43:43Z</time>
      </trkpt>
      <trkpt lat="54.464410962536931" lon="11.241589011624455">
        <ele>3.5</ele>
        <time>2019-05-08T08:43:44Z</time>
      </trkpt>
      <trkpt lat="54.464511964470148" lon="11.241562021896243">
        <ele>3.02</ele>
        <time>2019-05-08T08:43:45Z</time>
      </trkpt>
      <trkpt lat="54.464607015252113" lon="11.241507036611438">
        <ele>3.02</ele>
        <time>2019-05-08T08:43:46Z</time>
      </trkpt>
      <trkpt lat="54.464704999700189" lon="11.241451967507601">
        <ele>3.02</ele>
        <time>2019-05-08T08:43:47Z</time>
      </trkpt>
      <trkpt lat="54.464896023273468" lon="11.24132196418941">
        <ele>3.02</ele>
        <time>2019-05-08T08:43:49Z</time>
      </trkpt>
      <trkpt lat="54.464990990236402" lon="11.241252981126308">
        <ele>3.02</ele>
        <time>2019-05-08T08:43:50Z</time>
      </trkpt>
      <trkpt lat="54.46543900296092" lon="11.240927008911967">
        <ele>2.54</ele>
        <time>2019-05-08T08:43:55Z</time>
      </trkpt>
      <trkpt lat="54.465515026822686" lon="11.240872023627162">
        <ele>2.54</ele>
        <time>2019-05-08T08:43:56Z</time>
      </trkpt>
      <trkpt lat="54.465817026793957" lon="11.240662978962064">
        <ele>2.54</ele>
        <time>2019-05-08T08:44:00Z</time>
      </trkpt>
      <trkpt lat="54.466852024197578" lon="11.240010028705001">
        <ele>2.06</ele>
        <time>2019-05-08T08:44:10Z</time>
      </trkpt>
      <trkpt lat="54.467617040500045" lon="11.239528991281986">
        <ele>6.39</ele>
        <time>2019-05-08T08:44:16Z</time>
      </trkpt>
      <trkpt lat="54.467855002731085" lon="11.239379039034247">
        <ele>7.35</ele>
        <time>2019-05-08T08:44:18Z</time>
      </trkpt>
      <trkpt lat="54.467891966924071" lon="11.239313995465636">
        <ele>7.35</ele>
        <time>2019-05-08T08:44:19Z</time>
      </trkpt>
      <trkpt lat="54.467947036027908" lon="11.239175023511052">
        <ele>7.35</ele>
        <time>2019-05-08T08:44:20Z</time>
      </trkpt>
      <trkpt lat="54.467962961643934" lon="11.23901903629303">
        <ele>7.83</ele>
        <time>2019-05-08T08:44:21Z</time>
      </trkpt>
      <trkpt lat="54.467980982735753" lon="11.23885097913444">
        <ele>7.83</ele>
        <time>2019-05-08T08:44:22Z</time>
      </trkpt>
      <trkpt lat="54.467997997999191" lon="11.238690968602896">
        <ele>7.83</ele>
        <time>2019-05-08T08:44:23Z</time>
      </trkpt>
      <trkpt lat="54.468042002990842" lon="11.238590972498059">
        <ele>7.83</ele>
        <time>2019-05-08T08:44:24Z</time>
      </trkpt>
      <trkpt lat="54.468120960518718" lon="11.238512014970183">
        <ele>7.83</ele>
        <time>2019-05-08T08:44:25Z</time>
      </trkpt>
      <trkpt lat="54.468203019350767" lon="11.238431967794895">
        <ele>7.83</ele>
        <time>2019-05-08T08:44:26Z</time>
      </trkpt>
      <trkpt lat="54.468290023505688" lon="11.238388968631625">
        <ele>8.310000000000001</ele>
        <time>2019-05-08T08:44:27Z</time>
      </trkpt>
      <trkpt lat="54.468367975205183" lon="11.238349992781878">
        <ele>8.310000000000001</ele>
        <time>2019-05-08T08:44:28Z</time>
      </trkpt>
      <trkpt lat="54.468436036258936" lon="11.238315962255001">
        <ele>8.310000000000001</ele>
        <time>2019-05-08T08:44:29Z</time>
      </trkpt>
      <trkpt lat="54.468533014878631" lon="11.238157041370869">
        <ele>8.310000000000001</ele>
        <time>2019-05-08T08:44:30Z</time>
      </trkpt>
      <trkpt lat="54.468521028757095" lon="11.238022008910775">
        <ele>8.789999999999999</ele>
        <time>2019-05-08T08:44:31Z</time>
      </trkpt>
      <trkpt lat="54.468507030978799" lon="11.237854035571218">
        <ele>8.789999999999999</ele>
        <time>2019-05-08T08:44:32Z</time>
      </trkpt>
      <trkpt lat="54.46848900988698" lon="11.237642979249358">
        <ele>8.789999999999999</ele>
        <time>2019-05-08T08:44:33Z</time>
      </trkpt>
      <trkpt lat="54.468355989083648" lon="11.236078999936581">
        <ele>9.27</ele>
        <time>2019-05-08T08:44:38Z</time>
      </trkpt>
      <trkpt lat="54.468017024919391" lon="11.232847021892667">
        <ele>8.789999999999999</ele>
        <time>2019-05-08T08:44:46Z</time>
      </trkpt>
      <trkpt lat="54.467873023822904" lon="11.231770031154156">
        <ele>7.35</ele>
        <time>2019-05-08T08:44:49Z</time>
      </trkpt>
      <trkpt lat="54.467790964990854" lon="11.231482028961182">
        <ele>6.87</ele>
        <time>2019-05-08T08:44:50Z</time>
      </trkpt>
      <trkpt lat="54.467658028006554" lon="11.231177011504769">
        <ele>6.39</ele>
        <time>2019-05-08T08:44:51Z</time>
      </trkpt>
      <trkpt lat="54.467528024688363" lon="11.230875011533499">
        <ele>6.39</ele>
        <time>2019-05-08T08:44:52Z</time>
      </trkpt>
      <trkpt lat="54.467391986399889" lon="11.230561025440693">
        <ele>5.91</ele>
        <time>2019-05-08T08:44:53Z</time>
      </trkpt>
      <trkpt lat="54.466417003422976" lon="11.228070007637143">
        <ele>3.98</ele>
        <time>2019-05-08T08:45:01Z</time>
      </trkpt>
      <trkpt lat="54.466366963461041" lon="11.227713022381067">
        <ele>3.5</ele>
        <time>2019-05-08T08:45:02Z</time>
      </trkpt>
      <trkpt lat="54.466314995661378" lon="11.227352013811469">
        <ele>3.5</ele>
        <time>2019-05-08T08:45:03Z</time>
      </trkpt>
      <trkpt lat="54.46627501398325" lon="11.22696996666491">
        <ele>3.02</ele>
        <time>2019-05-08T08:45:04Z</time>
      </trkpt>
      <trkpt lat="54.466279037296772" lon="11.224417006596923">
        <ele>2.54</ele>
        <time>2019-05-08T08:45:10Z</time>
      </trkpt>
      <trkpt lat="54.466481041163206" lon="11.221715016290545">
        <ele>2.06</ele>
        <time>2019-05-08T08:45:17Z</time>
      </trkpt>
      <trkpt lat="54.466639962047338" lon="11.220538029447198">
        <ele>2.06</ele>
        <time>2019-05-08T08:45:22Z</time>
      </trkpt>
      <trkpt lat="54.466979010030627" lon="11.218818984925747">
        <ele>3.5</ele>
        <time>2019-05-08T08:45:31Z</time>
      </trkpt>
      <trkpt lat="54.467074982821941" lon="11.218249015510082">
        <ele>4.46</ele>
        <time>2019-05-08T08:45:35Z</time>
      </trkpt>
      <trkpt lat="54.46707003749907" lon="11.218105014413595">
        <ele>4.46</ele>
        <time>2019-05-08T08:45:36Z</time>
      </trkpt>
      <trkpt lat="54.467046987265348" lon="11.21792396530509">
        <ele>4.46</ele>
        <time>2019-05-08T08:45:37Z</time>
      </trkpt>
      <trkpt lat="54.466908015310764" lon="11.216725017875433">
        <ele>4.94</ele>
        <time>2019-05-08T08:45:43Z</time>
      </trkpt>
      <trkpt lat="54.466882031410933" lon="11.215514000505209">
        <ele>5.91</ele>
        <time>2019-05-08T08:45:49Z</time>
      </trkpt>
      <trkpt lat="54.466925030574203" lon="11.212932961061597">
        <ele>8.310000000000001</ele>
        <time>2019-05-08T08:46:00Z</time>
      </trkpt>
      <trkpt lat="54.467111025005579" lon="11.210337001830339">
        <ele>8.310000000000001</ele>
        <time>2019-05-08T08:46:11Z</time>
      </trkpt>
      <trkpt lat="54.467142038047314" lon="11.209901981055737">
        <ele>8.310000000000001</ele>
        <time>2019-05-08T08:46:16Z</time>
      </trkpt>
      <trkpt lat="54.467185959219933" lon="11.209827968850732">
        <ele>7.83</ele>
        <time>2019-05-08T08:46:17Z</time>
      </trkpt>
      <trkpt lat="54.46724496781826" lon="11.209823023527861">
        <ele>7.83</ele>
        <time>2019-05-08T08:46:18Z</time>
      </trkpt>
      <trkpt lat="54.467323003336787" lon="11.209815982729197">
        <ele>8.310000000000001</ele>
        <time>2019-05-08T08:46:19Z</time>
      </trkpt>
      <trkpt lat="54.467425011098385" lon="11.209807014092803">
        <ele>8.310000000000001</ele>
        <time>2019-05-08T08:46:20Z</time>
      </trkpt>
      <trkpt lat="54.468355989083648" lon="11.209726966917515">
        <ele>9.75</ele>
        <time>2019-05-08T08:46:26Z</time>
      </trkpt>
      <trkpt lat="54.470325987786055" lon="11.209567040205002">
        <ele>11.67</ele>
        <time>2019-05-08T08:46:35Z</time>
      </trkpt>
      <trkpt lat="54.471149006858468" lon="11.209506019949913">
        <ele>10.710000000000001</ele>
        <time>2019-05-08T08:46:40Z</time>
      </trkpt>
      <trkpt lat="54.472474018111825" lon="11.209428990259767">
        <ele>8.789999999999999</ele>
        <time>2019-05-08T08:46:49Z</time>
      </trkpt>
      <trkpt lat="54.474083008244634" lon="11.20945799164474">
        <ele>6.87</ele>
        <time>2019-05-08T08:46:56Z</time>
      </trkpt>
      <trkpt lat="54.477436020970345" lon="11.20973601937294">
        <ele>6.87</ele>
        <time>2019-05-08T08:47:10Z</time>
      </trkpt>
      <trkpt lat="54.479578016325831" lon="11.209912961348891">
        <ele>7.35</ele>
        <time>2019-05-08T08:47:20Z</time>
      </trkpt>
      <trkpt lat="54.481892008334398" lon="11.209964007139206">
        <ele>-0.34</ele>
        <time>2019-05-08T08:47:30Z</time>
      </trkpt>
      <trkpt lat="54.483925038948655" lon="11.209947997704148">
        <ele>-3.71</ele>
        <time>2019-05-08T08:47:38Z</time>
      </trkpt>
      <trkpt lat="54.486805982887745" lon="11.210082024335861">
        <ele>-3.23</ele>
        <time>2019-05-08T08:47:49Z</time>
      </trkpt>
      <trkpt lat="54.488481022417545" lon="11.210006000474095">
        <ele>-1.79</ele>
        <time>2019-05-08T08:47:56Z</time>
      </trkpt>
      <trkpt lat="54.489827994257212" lon="11.209530998021364">
        <ele>-1.3</ele>
        <time>2019-05-08T08:48:02Z</time>
      </trkpt>
      <trkpt lat="54.490028992295265" lon="11.209547007456422">
        <ele>-1.3</ele>
        <time>2019-05-08T08:48:03Z</time>
      </trkpt>
      <trkpt lat="54.490215992555022" lon="11.209563016891479">
        <ele>-1.79</ele>
        <time>2019-05-08T08:48:04Z</time>
      </trkpt>
      <trkpt lat="54.490401986986399" lon="11.209601992741227">
        <ele>-1.79</ele>
        <time>2019-05-08T08:48:05Z</time>
      </trkpt>
      <trkpt lat="54.490573983639479" lon="11.209682039916515">
        <ele>-1.79</ele>
        <time>2019-05-08T08:48:06Z</time>
      </trkpt>
      <trkpt lat="54.491841997951269" lon="11.210242034867406">
        <ele>-2.75</ele>
        <time>2019-05-08T08:48:15Z</time>
      </trkpt>
      <trkpt lat="54.492007959634066" lon="11.210296014323831">
        <ele>-2.27</ele>
        <time>2019-05-08T08:48:17Z</time>
      </trkpt>
      <trkpt lat="54.492070991545916" lon="11.210315963253379">
        <ele>-1.79</ele>
        <time>2019-05-08T08:48:18Z</time>
      </trkpt>
      <trkpt lat="54.492118014022708" lon="11.210330966860056">
        <ele>-1.3</ele>
        <time>2019-05-08T08:48:19Z</time>
      </trkpt>
      <trkpt lat="54.492184985429049" lon="11.210243962705135">
        <ele>-0.82</ele>
        <time>2019-05-08T08:48:20Z</time>
      </trkpt>
      <trkpt lat="54.492203006520867" lon="11.210141032934189">
        <ele>-0.34</ele>
        <time>2019-05-08T08:48:21Z</time>
      </trkpt>
      <trkpt lat="54.492226978763938" lon="11.210004994645715">
        <ele>0.14</ele>
        <time>2019-05-08T08:48:22Z</time>
      </trkpt>
      <trkpt lat="54.492256985977292" lon="11.209836015477777">
        <ele>0.14</ele>
        <time>2019-05-08T08:48:23Z</time>
      </trkpt>
      <trkpt lat="54.492537025362253" lon="11.208249991759658">
        <ele>0.62</ele>
        <time>2019-05-08T08:48:29Z</time>
      </trkpt>
      <trkpt lat="54.49319701641798" lon="11.205559987574816">
        <ele>-0.82</ele>
        <time>2019-05-08T08:48:37Z</time>
      </trkpt>
      <trkpt lat="54.493414023891091" lon="11.20492497459054">
        <ele>-1.3</ele>
        <time>2019-05-08T08:48:39Z</time>
      </trkpt>
      <trkpt lat="54.49349700473249" lon="11.204589027911425">
        <ele>-1.3</ele>
        <time>2019-05-08T08:48:40Z</time>
      </trkpt>
      <trkpt lat="54.493547966703773" lon="11.204220978543162">
        <ele>-1.3</ele>
        <time>2019-05-08T08:48:41Z</time>
      </trkpt>
      <trkpt lat="54.493995979428291" lon="11.200967039912939">
        <ele>1.1</ele>
        <time>2019-05-08T08:48:49Z</time>
      </trkpt>
      <trkpt lat="54.49493701569736" lon="11.196606019511819">
        <ele>2.06</ele>
        <time>2019-05-08T08:49:00Z</time>
      </trkpt>
      <trkpt lat="54.495161985978484" lon="11.194027997553349">
        <ele>1.1</ele>
        <time>2019-05-08T08:49:06Z</time>
      </trkpt>
      <trkpt lat="54.495566999539733" lon="11.191101958975196">
        <ele>1.1</ele>
        <time>2019-05-08T08:49:13Z</time>
      </trkpt>
      <trkpt lat="54.496232019737363" lon="11.187727991491556">
        <ele>1.58</ele>
        <time>2019-05-08T08:49:21Z</time>
      </trkpt>
      <trkpt lat="54.49740900658071" lon="11.184611013159156">
        <ele>1.58</ele>
        <time>2019-05-08T08:49:29Z</time>
      </trkpt>
      <trkpt lat="54.498490020632744" lon="11.182594997808337">
        <ele>1.1</ele>
        <time>2019-05-08T08:49:35Z</time>
      </trkpt>
      <trkpt lat="54.499044986441731" lon="11.181768039241433">
        <ele>0.62</ele>
        <time>2019-05-08T08:49:38Z</time>
      </trkpt>
      <trkpt lat="54.4991709664464" lon="11.181464027613401">
        <ele>0.62</ele>
        <time>2019-05-08T08:49:39Z</time>
      </trkpt>
      <trkpt lat="54.499281020835042" lon="11.181163033470511">
        <ele>0.14</ele>
        <time>2019-05-08T08:49:40Z</time>
      </trkpt>
      <trkpt lat="54.499351009726524" lon="11.180848963558674">
        <ele>0.14</ele>
        <time>2019-05-08T08:49:41Z</time>
      </trkpt>
      <trkpt lat="54.499410018324852" lon="11.180497007444501">
        <ele>0.14</ele>
        <time>2019-05-08T08:49:42Z</time>
      </trkpt>
      <trkpt lat="54.499699026346207" lon="11.179193034768105">
        <ele>0.14</ele>
        <time>2019-05-08T08:49:46Z</time>
      </trkpt>
      <trkpt lat="54.499789969995618" lon="11.178896985948086">
        <ele>0.14</ele>
        <time>2019-05-08T08:49:47Z</time>
      </trkpt>
      <trkpt lat="54.499932965263724" lon="11.178658017888665">
        <ele>0.14</ele>
        <time>2019-05-08T08:49:48Z</time>
      </trkpt>
      <trkpt lat="54.500092975795269" lon="11.178421983495355">
        <ele>0.14</ele>
        <time>2019-05-08T08:49:49Z</time>
      </trkpt>
      <trkpt lat="54.500261032953858" lon="11.178212016820908">
        <ele>0.14</ele>
        <time>2019-05-08T08:49:50Z</time>
      </trkpt>
      <trkpt lat="54.500445015728474" lon="11.178082013502717">
        <ele>0.14</ele>
        <time>2019-05-08T08:49:51Z</time>
      </trkpt>
      <trkpt lat="54.500620029866695" lon="11.177972964942455">
        <ele>0.62</ele>
        <time>2019-05-08T08:49:52Z</time>
      </trkpt>
      <trkpt lat="54.500795966014266" lon="11.177905993536115">
        <ele>0.62</ele>
        <time>2019-05-08T08:49:53Z</time>
      </trkpt>
      <trkpt lat="54.501436008140445" lon="11.177601981908083">
        <ele>1.1</ele>
        <time>2019-05-08T08:49:57Z</time>
      </trkpt>
      <trkpt lat="54.501588977873325" lon="11.177436020225286">
        <ele>1.1</ele>
        <time>2019-05-08T08:49:58Z</time>
      </trkpt>
      <trkpt lat="54.501733984798193" lon="11.177279027178884">
        <ele>1.1</ele>
        <time>2019-05-08T08:49:59Z</time>
      </trkpt>
      <trkpt lat="54.502790020778775" lon="11.175622008740902">
        <ele>1.1</ele>
        <time>2019-05-08T08:50:07Z</time>
      </trkpt>
      <trkpt lat="54.503341969102621" lon="11.173671036958694">
        <ele>1.58</ele>
        <time>2019-05-08T08:50:13Z</time>
      </trkpt>
      <trkpt lat="54.504189966246486" lon="11.17011702619493">
        <ele>5.42</ele>
        <time>2019-05-08T08:50:22Z</time>
      </trkpt>
      <trkpt lat="54.504307983443141" lon="11.169354021549225">
        <ele>5.91</ele>
        <time>2019-05-08T08:50:24Z</time>
      </trkpt>
      <trkpt lat="54.504350982606411" lon="11.168985972180963">
        <ele>5.91</ele>
        <time>2019-05-08T08:50:25Z</time>
      </trkpt>
      <trkpt lat="54.504346959292889" lon="11.168625969439745">
        <ele>5.91</ele>
        <time>2019-05-08T08:50:26Z</time>
      </trkpt>
      <trkpt lat="54.504336984828115" lon="11.168249035254121">
        <ele>5.91</ele>
        <time>2019-05-08T08:50:27Z</time>
      </trkpt>
      <trkpt lat="54.504320975393057" lon="11.167873023077846">
        <ele>5.91</ele>
        <time>2019-05-08T08:50:28Z</time>
      </trkpt>
      <trkpt lat="54.504208993166685" lon="11.163832023739815">
        <ele>6.39</ele>
        <time>2019-05-08T08:50:38Z</time>
      </trkpt>
      <trkpt lat="54.504547035321593" lon="11.161065995693207">
        <ele>5.42</ele>
        <time>2019-05-08T08:50:45Z</time>
      </trkpt>
      <trkpt lat="54.504536977037787" lon="11.160699035972357">
        <ele>5.42</ele>
        <time>2019-05-08T08:50:46Z</time>
      </trkpt>
      <trkpt lat="54.504525996744633" lon="11.160370968282223">
        <ele>5.42</ele>
        <time>2019-05-08T08:50:47Z</time>
      </trkpt>
      <trkpt lat="54.504447961226106" lon="11.159995039924979">
        <ele>5.42</ele>
        <time>2019-05-08T08:50:48Z</time>
      </trkpt>
      <trkpt lat="54.504372021183372" lon="11.159634031355381">
        <ele>5.42</ele>
        <time>2019-05-08T08:50:49Z</time>
      </trkpt>
      <trkpt lat="54.504279987886548" lon="11.159275034442544">
        <ele>4.94</ele>
        <time>2019-05-08T08:50:50Z</time>
      </trkpt>
      <trkpt lat="54.503425033763051" lon="11.157019967213273">
        <ele>4.46</ele>
        <time>2019-05-08T08:50:57Z</time>
      </trkpt>
      <trkpt lat="54.502634033560753" lon="11.156054958701134">
        <ele>4.46</ele>
        <time>2019-05-08T08:51:01Z</time>
      </trkpt>
      <trkpt lat="54.500349964946508" lon="11.154284030199051">
        <ele>5.91</ele>
        <time>2019-05-08T08:51:11Z</time>
      </trkpt>
      <trkpt lat="54.498755978420377" lon="11.152666993439198">
        <ele>6.39</ele>
        <time>2019-05-08T08:51:19Z</time>
      </trkpt>
      <trkpt lat="54.498089030385017" lon="11.152088977396488">
        <ele>6.39</ele>
        <time>2019-05-08T08:51:23Z</time>
      </trkpt>
      <trkpt lat="54.497957015410066" lon="11.151860989630222">
        <ele>6.39</ele>
        <time>2019-05-08T08:51:24Z</time>
      </trkpt>
      <trkpt lat="54.497852995991707" lon="11.151681030169129">
        <ele>6.39</ele>
        <time>2019-05-08T08:51:25Z</time>
      </trkpt>
      <trkpt lat="54.497799016535282" lon="11.151437032967806">
        <ele>6.39</ele>
        <time>2019-05-08T08:51:26Z</time>
      </trkpt>
      <trkpt lat="54.497746964916587" lon="11.151206027716398">
        <ele>6.87</ele>
        <time>2019-05-08T08:51:27Z</time>
      </trkpt>
      <trkpt lat="54.497700026258826" lon="11.150992959737778">
        <ele>6.87</ele>
        <time>2019-05-08T08:51:28Z</time>
      </trkpt>
      <trkpt lat="54.497660966590047" lon="11.150807971134782">
        <ele>6.87</ele>
        <time>2019-05-08T08:51:29Z</time>
      </trkpt>
      <trkpt lat="54.497590977698565" lon="11.150459032505751">
        <ele>6.39</ele>
        <time>2019-05-08T08:51:32Z</time>
      </trkpt>
      <trkpt lat="54.49757999740541" lon="11.150401029735804">
        <ele>6.39</ele>
        <time>2019-05-08T08:51:33Z</time>
      </trkpt>
      <trkpt lat="54.497657027095556" lon="11.150320982560515">
        <ele>6.39</ele>
        <time>2019-05-08T08:51:34Z</time>
      </trkpt>
      <trkpt lat="54.4977100007236" lon="11.150287035852671">
        <ele>5.91</ele>
        <time>2019-05-08T08:51:35Z</time>
      </trkpt>
      <trkpt lat="54.497780995443463" lon="11.150262979790568">
        <ele>5.91</ele>
        <time>2019-05-08T08:51:36Z</time>
      </trkpt>
      <trkpt lat="54.497870011255145" lon="11.150259962305427">
        <ele>5.91</ele>
        <time>2019-05-08T08:51:37Z</time>
      </trkpt>
      <trkpt lat="54.497975036501884" lon="11.150255016982555">
        <ele>5.42</ele>
        <time>2019-05-08T08:51:38Z</time>
      </trkpt>
      <trkpt lat="54.498919006437063" lon="11.150105986744165">
        <ele>4.46</ele>
        <time>2019-05-08T08:51:44Z</time>
      </trkpt>
      <trkpt lat="54.499767003580928" lon="11.149618998169899">
        <ele>3.5</ele>
        <time>2019-05-08T08:51:49Z</time>
      </trkpt>
      <trkpt lat="54.499913016334176" lon="11.14953501150012">
        <ele>3.5</ele>
        <time>2019-05-08T08:51:50Z</time>
      </trkpt>
      <trkpt lat="54.500053999945521" lon="11.149528976529837">
        <ele>3.5</ele>
        <time>2019-05-08T08:51:51Z</time>
      </trkpt>
      <trkpt lat="54.501234004274011" lon="11.149474997073412">
        <ele>3.02</ele>
        <time>2019-05-08T08:51:57Z</time>
      </trkpt>
      <trkpt lat="54.502775017172098" lon="11.149404002353549">
        <ele>4.46</ele>
        <time>2019-05-08T08:52:04Z</time>
      </trkpt>
      <trkpt lat="54.503077017143369" lon="11.149390004575253">
        <ele>3.98</ele>
        <time>2019-05-08T08:52:06Z</time>
      </trkpt>
      <trkpt lat="54.503215989097953" lon="11.149351028725505">
        <ele>3.98</ele>
        <time>2019-05-08T08:52:07Z</time>
      </trkpt>
      <trkpt lat="54.50333802960813" lon="11.149249020963907">
        <ele>3.98</ele>
        <time>2019-05-08T08:52:08Z</time>
      </trkpt>
      <trkpt lat="54.503460992127657" lon="11.149116000160575">
        <ele>3.5</ele>
        <time>2019-05-08T08:52:09Z</time>
      </trkpt>
      <trkpt lat="54.503558976575732" lon="11.14893302321434">
        <ele>3.5</ele>
        <time>2019-05-08T08:52:10Z</time>
      </trkpt>
      <trkpt lat="54.50366199016571" lon="11.148738982155919">
        <ele>3.02</ele>
        <time>2019-05-08T08:52:11Z</time>
      </trkpt>
      <trkpt lat="54.50376802124083" lon="11.148539995774627">
        <ele>2.54</ele>
        <time>2019-05-08T08:52:12Z</time>
      </trkpt>
      <trkpt lat="54.503877991810441" lon="11.14833396859467">
        <ele>2.06</ele>
        <time>2019-05-08T08:52:13Z</time>
      </trkpt>
      <trkpt lat="54.504000032320619" lon="11.148169012740254">
        <ele>1.58</ele>
        <time>2019-05-08T08:52:14Z</time>
      </trkpt>
      <trkpt lat="54.504158031195402" lon="11.148064993321896">
        <ele>1.58</ele>
        <time>2019-05-08T08:52:15Z</time>
      </trkpt>
      <trkpt lat="54.504332961514592" lon="11.14794697612524">
        <ele>1.1</ele>
        <time>2019-05-08T08:52:16Z</time>
      </trkpt>
      <trkpt lat="54.504517028108239" lon="11.147908000275493">
        <ele>0.62</ele>
        <time>2019-05-08T08:52:17Z</time>
      </trkpt>
      <trkpt lat="54.504725988954306" lon="11.147862989455462">
        <ele>0.62</ele>
        <time>2019-05-08T08:52:18Z</time>
      </trkpt>
      <trkpt lat="54.506699005141854" lon="11.147436015307903">
        <ele>-0.82</ele>
        <time>2019-05-08T08:52:26Z</time>
      </trkpt>
      <trkpt lat="54.507947992533445" lon="11.147108031436801">
        <ele>-1.3</ele>
        <time>2019-05-08T08:52:32Z</time>
      </trkpt>
      <trkpt lat="54.508069027215242" lon="11.147094033658504">
        <ele>-1.3</ele>
        <time>2019-05-08T08:52:33Z</time>
      </trkpt>
      <trkpt lat="54.508176986128092" lon="11.147100990638137">
        <ele>-1.79</ele>
        <time>2019-05-08T08:52:34Z</time>
      </trkpt>
      <trkpt lat="54.50830296613276" lon="11.147110965102911">
        <ele>-1.79</ele>
        <time>2019-05-08T08:52:35Z</time>
      </trkpt>
      <trkpt lat="54.508385024964809" lon="11.14719302393496">
        <ele>-1.79</ele>
        <time>2019-05-08T08:52:36Z</time>
      </trkpt>
      <trkpt lat="54.508487032726407" lon="11.147295031696558">
        <ele>-1.79</ele>
        <time>2019-05-08T08:52:37Z</time>
      </trkpt>
      <trkpt lat="54.508605971932411" lon="11.147414976730943">
        <ele>-2.27</ele>
        <time>2019-05-08T08:52:38Z</time>
      </trkpt>
      <trkpt lat="54.509478025138378" lon="11.148733031004667">
        <ele>-2.27</ele>
        <time>2019-05-08T08:52:45Z</time>
      </trkpt>
      <trkpt lat="54.509584978222847" lon="11.148893963545561">
        <ele>-2.27</ele>
        <time>2019-05-08T08:52:46Z</time>
      </trkpt>
      <trkpt lat="54.509665025398135" lon="11.149085992947221">
        <ele>-2.75</ele>
        <time>2019-05-08T08:52:47Z</time>
      </trkpt>
      <trkpt lat="54.509725039824843" lon="11.14925597794354">
        <ele>-3.23</ele>
        <time>2019-05-08T08:52:48Z</time>
      </trkpt>
      <trkpt lat="54.50976300984621" lon="11.149464016780257">
        <ele>-3.71</ele>
        <time>2019-05-08T08:52:49Z</time>
      </trkpt>
      <trkpt lat="54.509787987917662" lon="11.149647999554873">
        <ele>-3.71</ele>
        <time>2019-05-08T08:52:50Z</time>
      </trkpt>
      <trkpt lat="54.509823024272919" lon="11.149817984551191">
        <ele>-4.19</ele>
        <time>2019-05-08T08:52:51Z</time>
      </trkpt>
      <trkpt lat="54.509886978194118" lon="11.14998403005302">
        <ele>-4.19</ele>
        <time>2019-05-08T08:52:52Z</time>
      </trkpt>
      <trkpt lat="54.509964007884264" lon="11.150119984522462">
        <ele>-4.67</ele>
        <time>2019-05-08T08:52:53Z</time>
      </trkpt>
      <trkpt lat="54.510056963190436" lon="11.150229033082724">
        <ele>-5.15</ele>
        <time>2019-05-08T08:52:54Z</time>
      </trkpt>
      <trkpt lat="54.510176992043853" lon="11.150282006710768">
        <ele>-5.63</ele>
        <time>2019-05-08T08:52:55Z</time>
      </trkpt>
      <trkpt lat="54.51030096039176" lon="11.150305978953838">
        <ele>-6.11</ele>
        <time>2019-05-08T08:52:56Z</time>
      </trkpt>
      <trkpt lat="54.51043096370995" lon="11.150301033630967">
        <ele>-6.59</ele>
        <time>2019-05-08T08:52:57Z</time>
      </trkpt>
      <trkpt lat="54.510553004220128" lon="11.150296004489064">
        <ele>-7.07</ele>
        <time>2019-05-08T08:52:58Z</time>
      </trkpt>
      <trkpt lat="54.511381974443793" lon="11.150363981723785">
        <ele>-9</ele>
        <time>2019-05-08T08:53:05Z</time>
      </trkpt>
      <trkpt lat="54.511518012732267" lon="11.150384014472365">
        <ele>-9</ele>
        <time>2019-05-08T08:53:06Z</time>
      </trkpt>
      <trkpt lat="54.511662013828754" lon="11.150447968393564">
        <ele>-9.48</ele>
        <time>2019-05-08T08:53:07Z</time>
      </trkpt>
      <trkpt lat="54.512820979580283" lon="11.151279034093022">
        <ele>-8.51</ele>
        <time>2019-05-08T08:53:13Z</time>
      </trkpt>
      <trkpt lat="54.514279011636972" lon="11.152426013723016">
        <ele>-8.029999999999999</ele>
        <time>2019-05-08T08:53:20Z</time>
      </trkpt>
      <trkpt lat="54.514395017176867" lon="11.152635980397463">
        <ele>-8.029999999999999</ele>
        <time>2019-05-08T08:53:21Z</time>
      </trkpt>
      <trkpt lat="54.514515968039632" lon="11.152853993698955">
        <ele>-8.029999999999999</ele>
        <time>2019-05-08T08:53:22Z</time>
      </trkpt>
      <trkpt lat="54.514958029612899" lon="11.153652034699917">
        <ele>-7.55</ele>
        <time>2019-05-08T08:53:26Z</time>
      </trkpt>
      <trkpt lat="54.515056014060974" lon="11.153828976675868">
        <ele>-7.07</ele>
        <time>2019-05-08T08:53:27Z</time>
      </trkpt>
      <trkpt lat="54.515162967145443" lon="11.153994016349316">
        <ele>-7.55</ele>
        <time>2019-05-08T08:53:28Z</time>
      </trkpt>
      <trkpt lat="54.515859000384808" lon="11.154622994363308">
        <ele>-7.07</ele>
        <time>2019-05-08T08:53:33Z</time>
      </trkpt>
      <trkpt lat="54.516007024794817" lon="11.154717039316893">
        <ele>-7.07</ele>
        <time>2019-05-08T08:53:34Z</time>
      </trkpt>
      <trkpt lat="54.516156977042556" lon="11.15475500933826">
        <ele>-7.07</ele>
        <time>2019-05-08T08:53:35Z</time>
      </trkpt>
      <trkpt lat="54.5163169875741" lon="11.154716033488512">
        <ele>-7.07</ele>
        <time>2019-05-08T08:53:36Z</time>
      </trkpt>
      <trkpt lat="54.516484038904309" lon="11.154675967991352">
        <ele>-6.59</ele>
        <time>2019-05-08T08:53:37Z</time>
      </trkpt>
      <trkpt lat="54.51665704138577" lon="11.154633974656463">
        <ele>-6.59</ele>
        <time>2019-05-08T08:53:38Z</time>
      </trkpt>
      <trkpt lat="54.51781902462244" lon="11.153672989457846">
        <ele>-5.63</ele>
        <time>2019-05-08T08:53:45Z</time>
      </trkpt>
      <trkpt lat="54.518117001280189" lon="11.153399990871549">
        <ele>-5.63</ele>
        <time>2019-05-08T08:53:47Z</time>
      </trkpt>
      <trkpt lat="54.518266031518579" lon="11.153268981724977">
        <ele>-5.63</ele>
        <time>2019-05-08T08:53:48Z</time>
      </trkpt>
      <trkpt lat="54.518403997644782" lon="11.153154987841845">
        <ele>-5.63</ele>
        <time>2019-05-08T08:53:49Z</time>
      </trkpt>
      <trkpt lat="54.518556967377663" lon="11.153096985071898">
        <ele>-5.15</ele>
        <time>2019-05-08T08:53:50Z</time>
      </trkpt>
      <trkpt lat="54.518717983737588" lon="11.153034958988428">
        <ele>-5.15</ele>
        <time>2019-05-08T08:53:51Z</time>
      </trkpt>
      <trkpt lat="54.518876988440752" lon="11.152974022552371">
        <ele>-5.15</ele>
        <time>2019-05-08T08:53:52Z</time>
      </trkpt>
      <trkpt lat="54.51902199536562" lon="11.152900010347366">
        <ele>-4.67</ele>
        <time>2019-05-08T08:53:53Z</time>
      </trkpt>
      <trkpt lat="54.519163984805346" lon="11.152810994535685">
        <ele>-4.67</ele>
        <time>2019-05-08T08:53:54Z</time>
      </trkpt>
      <trkpt lat="54.51930002309382" lon="11.152724996209145">
        <ele>-4.19</ele>
        <time>2019-05-08T08:53:55Z</time>
      </trkpt>
      <trkpt lat="54.519423991441727" lon="11.152647966518998">
        <ele>-4.19</ele>
        <time>2019-05-08T08:53:56Z</time>
      </trkpt>
      <trkpt lat="54.519527005031705" lon="11.15262902341783">
        <ele>-4.19</ele>
        <time>2019-05-08T08:53:57Z</time>
      </trkpt>
      <trkpt lat="54.519629012793303" lon="11.152634974569082">
        <ele>-4.19</ele>
        <time>2019-05-08T08:53:58Z</time>
      </trkpt>
      <trkpt lat="54.519718028604984" lon="11.152640003710985">
        <ele>-4.19</ele>
        <time>2019-05-08T08:53:59Z</time>
      </trkpt>
      <trkpt lat="54.519825987517834" lon="11.152646960690618">
        <ele>-4.19</ele>
        <time>2019-05-08T08:54:00Z</time>
      </trkpt>
      <trkpt lat="54.519888013601303" lon="11.152680991217494">
        <ele>-4.19</ele>
        <time>2019-05-08T08:54:01Z</time>
      </trkpt>
      <trkpt lat="54.52007400803268" lon="11.152781993150711">
        <ele>-5.15</ele>
        <time>2019-05-08T08:54:03Z</time>
      </trkpt>
      <trkpt lat="54.520177021622658" lon="11.152837984263897">
        <ele>-5.15</ele>
        <time>2019-05-08T08:54:04Z</time>
      </trkpt>
      <trkpt lat="54.521211013197899" lon="11.15340200252831">
        <ele>-5.63</ele>
        <time>2019-05-08T08:54:13Z</time>
      </trkpt>
      <trkpt lat="54.521477976813912" lon="11.153548015281558">
        <ele>-6.11</ele>
        <time>2019-05-08T08:54:17Z</time>
      </trkpt>
      <trkpt lat="54.521515024825931" lon="11.153581039980054">
        <ele>-6.11</ele>
        <time>2019-05-08T08:54:18Z</time>
      </trkpt>
      <trkpt lat="54.521541008725762" lon="11.153604006394744">
        <ele>-6.11</ele>
        <time>2019-05-08T08:54:19Z</time>
      </trkpt>
      <trkpt lat="54.521562969312072" lon="11.153623033314943">
        <ele>-6.11</ele>
        <time>2019-05-08T08:54:20Z</time>
      </trkpt>
      <trkpt lat="54.521580990403891" lon="11.15363996475935">
        <ele>-6.11</ele>
        <time>2019-05-08T08:54:21Z</time>
      </trkpt>
      <trkpt lat="54.521731026470661" lon="11.153771979734302">
        <ele>-6.11</ele>
        <time>2019-05-08T08:54:29Z</time>
      </trkpt>
    </trkseg>
  </trk>

  <trk>
    <name>Track vom: 2019-05-08 11:32</name>
    <extensions>
      <gpxx:TrackExtension>
        <gpxx:DisplayColor>DarkGray</gpxx:DisplayColor>
      </gpxx:TrackExtension>
    </extensions>
    <trkseg>
      <trkpt lat="54.521834962069988" lon="11.153725041076541">
        <ele>3.02</ele>
        <time>2019-05-08T09:32:03Z</time>
      </trkpt>
      <trkpt lat="54.521803027018905" lon="11.153593026101589">
        <ele>-1.3</ele>
        <time>2019-05-08T09:32:43Z</time>
      </trkpt>
      <trkpt lat="54.521809983998537" lon="11.15361800417304">
        <ele>1.58</ele>
        <time>2019-05-08T09:33:31Z</time>
      </trkpt>
      <trkpt lat="54.521811995655298" lon="11.15361699834466">
        <ele>1.58</ele>
        <time>2019-05-08T09:34:18Z</time>
      </trkpt>
      <trkpt lat="54.521811995655298" lon="11.15361800417304">
        <ele>2.06</ele>
        <time>2019-05-08T09:34:47Z</time>
      </trkpt>
      <trkpt lat="54.521745024248958" lon="11.153784971684217">
        <ele>1.58</ele>
        <time>2019-05-08T09:34:49Z</time>
      </trkpt>
      <trkpt lat="54.521722979843616" lon="11.15376602858305">
        <ele>1.58</ele>
        <time>2019-05-08T09:34:50Z</time>
      </trkpt>
      <trkpt lat="54.521690038964152" lon="11.153736021369696">
        <ele>1.1</ele>
        <time>2019-05-08T09:34:51Z</time>
      </trkpt>
      <trkpt lat="54.521647039800882" lon="11.153697967529297">
        <ele>1.1</ele>
        <time>2019-05-08T09:34:52Z</time>
      </trkpt>
      <trkpt lat="54.521596999838948" lon="11.153653962537646">
        <ele>0.62</ele>
        <time>2019-05-08T09:34:53Z</time>
      </trkpt>
      <trkpt lat="54.521542014554143" lon="11.153605012223125">
        <ele>0.62</ele>
        <time>2019-05-08T09:34:54Z</time>
      </trkpt>
      <trkpt lat="54.521477976813912" lon="11.153548015281558">
        <ele>0.14</ele>
        <time>2019-05-08T09:34:55Z</time>
      </trkpt>
      <trkpt lat="54.521417962387204" lon="11.153515996411443">
        <ele>0.14</ele>
        <time>2019-05-08T09:34:56Z</time>
      </trkpt>
      <trkpt lat="54.521163990721107" lon="11.153377024456859">
        <ele>-0.82</ele>
        <time>2019-05-08T09:35:00Z</time>
      </trkpt>
      <trkpt lat="54.521096013486385" lon="11.15333897061646">
        <ele>-0.82</ele>
        <time>2019-05-08T09:35:01Z</time>
      </trkpt>
      <trkpt lat="54.520851010456681" lon="11.153206033632159">
        <ele>-2.27</ele>
        <time>2019-05-08T09:35:04Z</time>
      </trkpt>
      <trkpt lat="54.519984992220998" lon="11.152732959017158">
        <ele>-6.59</ele>
        <time>2019-05-08T09:35:12Z</time>
      </trkpt>
      <trkpt lat="54.519825987517834" lon="11.152646960690618">
        <ele>-7.07</ele>
        <time>2019-05-08T09:35:14Z</time>
      </trkpt>
      <trkpt lat="54.519685003906488" lon="11.152637992054224">
        <ele>-6.59</ele>
        <time>2019-05-08T09:35:15Z</time>
      </trkpt>
      <trkpt lat="54.519586013630033" lon="11.152632962912321">
        <ele>-6.11</ele>
        <time>2019-05-08T09:35:16Z</time>
      </trkpt>
      <trkpt lat="54.519461039453745" lon="11.152625000104308">
        <ele>-5.63</ele>
        <time>2019-05-08T09:35:17Z</time>
      </trkpt>
      <trkpt lat="54.519377974793315" lon="11.152676967903972">
        <ele>-5.63</ele>
        <time>2019-05-08T09:35:18Z</time>
      </trkpt>
      <trkpt lat="54.519269010052085" lon="11.152745028957725">
        <ele>-5.15</ele>
        <time>2019-05-08T09:35:19Z</time>
      </trkpt>
      <trkpt lat="54.519157027825713" lon="11.152815017849207">
        <ele>-4.67</ele>
        <time>2019-05-08T09:35:20Z</time>
      </trkpt>
      <trkpt lat="54.51904596760869" lon="11.152884000912309">
        <ele>-4.19</ele>
        <time>2019-05-08T09:35:21Z</time>
      </trkpt>
      <trkpt lat="54.518940020352602" lon="11.152948960661888">
        <ele>-4.19</ele>
        <time>2019-05-08T09:35:22Z</time>
      </trkpt>
      <trkpt lat="54.518825020641088" lon="11.152993971481919">
        <ele>-4.19</ele>
        <time>2019-05-08T09:35:23Z</time>
      </trkpt>
      <trkpt lat="54.518296960741282" lon="11.153240986168385">
        <ele>-5.15</ele>
        <time>2019-05-08T09:35:28Z</time>
      </trkpt>
      <trkpt lat="54.51820501126349" lon="11.153322961181402">
        <ele>-5.15</ele>
        <time>2019-05-08T09:35:29Z</time>
      </trkpt>
      <trkpt lat="54.518111972138286" lon="11.153404014185071">
        <ele>-5.15</ele>
        <time>2019-05-08T09:35:30Z</time>
      </trkpt>
      <trkpt lat="54.518017005175352" lon="11.15348800085485">
        <ele>-4.67</ele>
        <time>2019-05-08T09:35:31Z</time>
      </trkpt>
      <trkpt lat="54.517922038212419" lon="11.153571987524629">
        <ele>-4.67</ele>
        <time>2019-05-08T09:35:32Z</time>
      </trkpt>
      <trkpt lat="54.517824975773692" lon="11.153665026649833">
        <ele>-4.67</ele>
        <time>2019-05-08T09:35:33Z</time>
      </trkpt>
      <trkpt lat="54.516945965588093" lon="11.154529033228755">
        <ele>-3.71</ele>
        <time>2019-05-08T09:35:41Z</time>
      </trkpt>
      <trkpt lat="54.516264013946056" lon="11.154729025438428">
        <ele>-3.71</ele>
        <time>2019-05-08T09:35:46Z</time>
      </trkpt>
      <trkpt lat="54.516125964000821" lon="11.154762972146273">
        <ele>-3.71</ele>
        <time>2019-05-08T09:35:47Z</time>
      </trkpt>
      <trkpt lat="54.515991015359759" lon="11.154706981033087">
        <ele>-3.71</ele>
        <time>2019-05-08T09:35:48Z</time>
      </trkpt>
      <trkpt lat="54.515855982899666" lon="11.154620982706547">
        <ele>-3.71</ele>
        <time>2019-05-08T09:35:49Z</time>
      </trkpt>
      <trkpt lat="54.515721034258604" lon="11.154534984380007">
        <ele>-3.71</ele>
        <time>2019-05-08T09:35:50Z</time>
      </trkpt>
      <trkpt lat="54.515581978484988" lon="11.154431970790029">
        <ele>-3.71</ele>
        <time>2019-05-08T09:35:51Z</time>
      </trkpt>
      <trkpt lat="54.515059031546116" lon="11.153834005817771">
        <ele>-3.71</ele>
        <time>2019-05-08T09:35:55Z</time>
      </trkpt>
      <trkpt lat="54.514950988814235" lon="11.153638958930969">
        <ele>-3.71</ele>
        <time>2019-05-08T09:35:56Z</time>
      </trkpt>
      <trkpt lat="54.514839006587863" lon="11.153437038883567">
        <ele>-3.23</ele>
        <time>2019-05-08T09:35:57Z</time>
      </trkpt>
      <trkpt lat="54.514383031055331" lon="11.152615025639534">
        <ele>-3.23</ele>
        <time>2019-05-08T09:36:01Z</time>
      </trkpt>
      <trkpt lat="54.514278005808592" lon="11.152424002066255">
        <ele>-3.23</ele>
        <time>2019-05-08T09:36:02Z</time>
      </trkpt>
      <trkpt lat="54.514157976955175" lon="11.152288969606161">
        <ele>-3.23</ele>
        <time>2019-05-08T09:36:03Z</time>
      </trkpt>
      <trkpt lat="54.51401699334383" lon="11.152162989601493">
        <ele>-3.23</ele>
        <time>2019-05-08T09:36:04Z</time>
      </trkpt>
      <trkpt lat="54.513860000297427" lon="11.152024017646909">
        <ele>-3.71</ele>
        <time>2019-05-08T09:36:05Z</time>
      </trkpt>
      <trkpt lat="54.51216802932322" lon="11.150810988619924">
        <ele>-2.27</ele>
        <time>2019-05-08T09:36:15Z</time>
      </trkpt>
      <trkpt lat="54.511407036334276" lon="11.150368005037308">
        <ele>-2.27</ele>
        <time>2019-05-08T09:36:20Z</time>
      </trkpt>
      <trkpt lat="54.511272003874183" lon="11.150348978117108">
        <ele>-2.27</ele>
        <time>2019-05-08T09:36:21Z</time>
      </trkpt>
      <trkpt lat="54.511134037747979" lon="11.15032902918756">
        <ele>-2.27</ele>
        <time>2019-05-08T09:36:22Z</time>
      </trkpt>
      <trkpt lat="54.510993976145983" lon="11.15030899643898">
        <ele>-2.27</ele>
        <time>2019-05-08T09:36:23Z</time>
      </trkpt>
      <trkpt lat="54.510834971442819" lon="11.15028603002429">
        <ele>-2.27</ele>
        <time>2019-05-08T09:36:24Z</time>
      </trkpt>
      <trkpt lat="54.51025896705687" lon="11.150306984782219">
        <ele>-2.75</ele>
        <time>2019-05-08T09:36:28Z</time>
      </trkpt>
      <trkpt lat="54.510133992880583" lon="11.150262979790568">
        <ele>-2.75</ele>
        <time>2019-05-08T09:36:29Z</time>
      </trkpt>
      <trkpt lat="54.510024022310972" lon="11.15020003169775">
        <ele>-2.75</ele>
        <time>2019-05-08T09:36:30Z</time>
      </trkpt>
      <trkpt lat="54.50993500649929" lon="11.150081008672714">
        <ele>-3.23</ele>
        <time>2019-05-08T09:36:31Z</time>
      </trkpt>
      <trkpt lat="54.50986904092133" lon="11.149938013404608">
        <ele>-3.23</ele>
        <time>2019-05-08T09:36:32Z</time>
      </trkpt>
      <trkpt lat="54.5098050031811" lon="11.14977196790278">
        <ele>-3.71</ele>
        <time>2019-05-08T09:36:33Z</time>
      </trkpt>
      <trkpt lat="54.509780025109649" lon="11.149586979299784">
        <ele>-3.71</ele>
        <time>2019-05-08T09:36:34Z</time>
      </trkpt>
      <trkpt lat="54.509752029553056" lon="11.14938598126173">
        <ele>-3.71</ele>
        <time>2019-05-08T09:36:35Z</time>
      </trkpt>
      <trkpt lat="54.509699977934361" lon="11.149182971566916">
        <ele>-3.71</ele>
        <time>2019-05-08T09:36:36Z</time>
      </trkpt>
      <trkpt lat="54.509639963507652" lon="11.149013992398977">
        <ele>-3.71</ele>
        <time>2019-05-08T09:36:37Z</time>
      </trkpt>
      <trkpt lat="54.509555976837873" lon="11.148850964382291">
        <ele>-3.71</ele>
        <time>2019-05-08T09:36:38Z</time>
      </trkpt>
      <trkpt lat="54.509462015703321" lon="11.148707969114184">
        <ele>-3.23</ele>
        <time>2019-05-08T09:36:39Z</time>
      </trkpt>
      <trkpt lat="54.509362019598484" lon="11.148558016866446">
        <ele>-3.71</ele>
        <time>2019-05-08T09:36:40Z</time>
      </trkpt>
      <trkpt lat="54.508503964170814" lon="11.147311963140965">
        <ele>-3.23</ele>
        <time>2019-05-08T09:36:48Z</time>
      </trkpt>
      <trkpt lat="54.508420983329415" lon="11.147228982299566">
        <ele>-3.23</ele>
        <time>2019-05-08T09:36:49Z</time>
      </trkpt>
      <trkpt lat="54.508310006931424" lon="11.147118005901575">
        <ele>-2.75</ele>
        <time>2019-05-08T09:36:51Z</time>
      </trkpt>
      <trkpt lat="54.50830296613276" lon="11.147110965102911">
        <ele>-2.27</ele>
        <time>2019-05-08T09:36:52Z</time>
      </trkpt>
      <trkpt lat="54.508314030244946" lon="11.147007029503584">
        <ele>-2.27</ele>
        <time>2019-05-08T09:36:53Z</time>
      </trkpt>
      <trkpt lat="54.50832299888134" lon="11.146928993985057">
        <ele>-2.27</ele>
        <time>2019-05-08T09:36:54Z</time>
      </trkpt>
      <trkpt lat="54.508334985002875" lon="11.146821035072207">
        <ele>-1.79</ele>
        <time>2019-05-08T09:36:55Z</time>
      </trkpt>
      <trkpt lat="54.50834303162992" lon="11.146652977913618">
        <ele>-1.79</ele>
        <time>2019-05-08T09:36:56Z</time>
      </trkpt>
      <trkpt lat="54.508335990831256" lon="11.146473018452525">
        <ele>-1.79</ele>
        <time>2019-05-08T09:36:57Z</time>
      </trkpt>
      <trkpt lat="54.508297014981508" lon="11.144506959244609">
        <ele>-0.82</ele>
        <time>2019-05-08T09:37:05Z</time>
      </trkpt>
      <trkpt lat="54.508354011923075" lon="11.142690014094114">
        <ele>-1.79</ele>
        <time>2019-05-08T09:37:13Z</time>
      </trkpt>
      <trkpt lat="54.508464988321066" lon="11.141258971765637">
        <ele>-1.3</ele>
        <time>2019-05-08T09:37:20Z</time>
      </trkpt>
      <trkpt lat="54.508860027417541" lon="11.139517966657877">
        <ele>0.62</ele>
        <time>2019-05-08T09:37:28Z</time>
      </trkpt>
      <trkpt lat="54.509201003238559" lon="11.138064963743091">
        <ele>0.62</ele>
        <time>2019-05-08T09:37:35Z</time>
      </trkpt>
      <trkpt lat="54.509265040978789" lon="11.137909982353449">
        <ele>0.62</ele>
        <time>2019-05-08T09:37:36Z</time>
      </trkpt>
      <trkpt lat="54.509345004335046" lon="11.137790037319064">
        <ele>0.62</ele>
        <time>2019-05-08T09:37:37Z</time>
      </trkpt>
      <trkpt lat="54.509427985176444" lon="11.137665985152125">
        <ele>0.62</ele>
        <time>2019-05-08T09:37:38Z</time>
      </trkpt>
      <trkpt lat="54.50954801402986" lon="11.137618040665984">
        <ele>0.62</ele>
        <time>2019-05-08T09:37:39Z</time>
      </trkpt>
      <trkpt lat="54.509665025398135" lon="11.137585015967488">
        <ele>0.14</ele>
        <time>2019-05-08T09:37:40Z</time>
      </trkpt>
      <trkpt lat="54.509788993746042" lon="11.137550985440612">
        <ele>0.14</ele>
        <time>2019-05-08T09:37:41Z</time>
      </trkpt>
      <trkpt lat="54.509915979579091" lon="11.137516032904387">
        <ele>0.14</ele>
        <time>2019-05-08T09:37:42Z</time>
      </trkpt>
      <trkpt lat="54.510046988725662" lon="11.137478984892368">
        <ele>0.14</ele>
        <time>2019-05-08T09:37:43Z</time>
      </trkpt>
      <trkpt lat="54.511870974674821" lon="11.136998031288385">
        <ele>0.62</ele>
        <time>2019-05-08T09:37:55Z</time>
      </trkpt>
      <trkpt lat="54.512685025110841" lon="11.136720003560185">
        <ele>1.58</ele>
        <time>2019-05-08T09:38:01Z</time>
      </trkpt>
      <trkpt lat="54.512765994295478" lon="11.136639034375548">
        <ele>1.58</ele>
        <time>2019-05-08T09:38:02Z</time>
      </trkpt>
      <trkpt lat="54.512818967923522" lon="11.13651498220861">
        <ele>1.58</ele>
        <time>2019-05-08T09:38:03Z</time>
      </trkpt>
      <trkpt lat="54.512869007885456" lon="11.136353965848684">
        <ele>1.58</ele>
        <time>2019-05-08T09:38:04Z</time>
      </trkpt>
      <trkpt lat="54.512897003442049" lon="11.136177023872733">
        <ele>1.58</ele>
        <time>2019-05-08T09:38:05Z</time>
      </trkpt>
      <trkpt lat="54.512927010655403" lon="11.13597996532917">
        <ele>1.58</ele>
        <time>2019-05-08T09:38:06Z</time>
      </trkpt>
      <trkpt lat="54.512944025918841" lon="11.135777961462736">
        <ele>1.1</ele>
        <time>2019-05-08T09:38:07Z</time>
      </trkpt>
      <trkpt lat="54.512955006211996" lon="11.13554997369647">
        <ele>1.1</ele>
        <time>2019-05-08T09:38:08Z</time>
      </trkpt>
      <trkpt lat="54.513075035065413" lon="11.133007993921638">
        <ele>0.14</ele>
        <time>2019-05-08T09:38:17Z</time>
      </trkpt>
      <trkpt lat="54.513347027823329" lon="11.129883974790573">
        <ele>1.1</ele>
        <time>2019-05-08T09:38:28Z</time>
      </trkpt>
      <trkpt lat="54.513367982581258" lon="11.128387972712517">
        <ele>1.1</ele>
        <time>2019-05-08T09:38:35Z</time>
      </trkpt>
      <trkpt lat="54.513374017551541" lon="11.127965021878481">
        <ele>1.1</ele>
        <time>2019-05-08T09:38:39Z</time>
      </trkpt>
      <trkpt lat="54.513379968702793" lon="11.127609964460135">
        <ele>1.1</ele>
        <time>2019-05-08T09:38:43Z</time>
      </trkpt>
      <trkpt lat="54.513380974531174" lon="11.127521032467484">
        <ele>1.1</ele>
        <time>2019-05-08T09:38:44Z</time>
      </trkpt>
      <trkpt lat="54.513400001451373" lon="11.126548983156681">
        <ele>-0.34</ele>
        <time>2019-05-08T09:38:53Z</time>
      </trkpt>
      <trkpt lat="54.51343503780663" lon="11.125192036852241">
        <ele>-0.82</ele>
        <time>2019-05-08T09:39:00Z</time>
      </trkpt>
      <trkpt lat="54.513473007827997" lon="11.123749008402228">
        <ele>-0.82</ele>
        <time>2019-05-08T09:39:07Z</time>
      </trkpt>
      <trkpt lat="54.513537967577577" lon="11.121233012527227">
        <ele>-0.34</ele>
        <time>2019-05-08T09:39:17Z</time>
      </trkpt>
      <trkpt lat="54.513570992276073" lon="11.121037965640426">
        <ele>-0.34</ele>
        <time>2019-05-08T09:39:18Z</time>
      </trkpt>
      <trkpt lat="54.513605022802949" lon="11.12085398286581">
        <ele>0.14</ele>
        <time>2019-05-08T09:39:19Z</time>
      </trkpt>
      <trkpt lat="54.513666965067387" lon="11.120467996224761">
        <ele>0.14</ele>
        <time>2019-05-08T09:39:21Z</time>
      </trkpt>
      <trkpt lat="54.513666965067387" lon="11.120266998186707">
        <ele>0.14</ele>
        <time>2019-05-08T09:39:22Z</time>
      </trkpt>
      <trkpt lat="54.513643998652697" lon="11.120048984885216">
        <ele>-0.34</ele>
        <time>2019-05-08T09:39:23Z</time>
      </trkpt>
      <trkpt lat="54.513511983677745" lon="11.118826987221837">
        <ele>0.14</ele>
        <time>2019-05-08T09:39:29Z</time>
      </trkpt>
      <trkpt lat="54.51348097063601" lon="11.118628000840545">
        <ele>0.14</ele>
        <time>2019-05-08T09:39:30Z</time>
      </trkpt>
      <trkpt lat="54.513293970376253" lon="11.117278011515737">
        <ele>0.62</ele>
        <time>2019-05-08T09:39:37Z</time>
      </trkpt>
      <trkpt lat="54.513280978426337" lon="11.117141973227262">
        <ele>0.62</ele>
        <time>2019-05-08T09:39:38Z</time>
      </trkpt>
      <trkpt lat="54.513280978426337" lon="11.116990009322762">
        <ele>0.62</ele>
        <time>2019-05-08T09:39:39Z</time>
      </trkpt>
      <trkpt lat="54.513280978426337" lon="11.116814995184541">
        <ele>0.14</ele>
        <time>2019-05-08T09:39:40Z</time>
      </trkpt>
      <trkpt lat="54.513257006183267" lon="11.116611985489726">
        <ele>-0.34</ele>
        <time>2019-05-08T09:39:41Z</time>
      </trkpt>
      <trkpt lat="54.513211995363235" lon="11.116391038522124">
        <ele>-0.82</ele>
        <time>2019-05-08T09:39:42Z</time>
      </trkpt>
      <trkpt lat="54.513032035902143" lon="11.115515967831016">
        <ele>-1.3</ele>
        <time>2019-05-08T09:39:46Z</time>
      </trkpt>
      <trkpt lat="54.513003034517169" lon="11.115375990048051">
        <ele>-1.3</ele>
        <time>2019-05-08T09:39:47Z</time>
      </trkpt>
      <trkpt lat="54.513009991496801" lon="11.115199970081449">
        <ele>-1.3</ele>
        <time>2019-05-08T09:39:48Z</time>
      </trkpt>
      <trkpt lat="54.513062965124846" lon="11.115078013390303">
        <ele>-1.3</ele>
        <time>2019-05-08T09:39:49Z</time>
      </trkpt>
      <trkpt lat="54.513124991208315" lon="11.114934012293816">
        <ele>-1.3</ele>
        <time>2019-05-08T09:39:50Z</time>
      </trkpt>
      <trkpt lat="54.513197997584939" lon="11.114768972620368">
        <ele>-1.3</ele>
        <time>2019-05-08T09:39:51Z</time>
      </trkpt>
      <trkpt lat="54.51330796815455" lon="11.114608962088823">
        <ele>-1.3</ele>
        <time>2019-05-08T09:39:52Z</time>
      </trkpt>
      <trkpt lat="54.513426991179585" lon="11.114433025941253">
        <ele>-1.3</ele>
        <time>2019-05-08T09:39:53Z</time>
      </trkpt>
      <trkpt lat="54.513549031689763" lon="11.114267986267805">
        <ele>-1.3</ele>
        <time>2019-05-08T09:39:54Z</time>
      </trkpt>
      <trkpt lat="54.513766039162874" lon="11.114033963531256">
        <ele>-1.3</ele>
        <time>2019-05-08T09:39:56Z</time>
      </trkpt>
      <trkpt lat="54.513838039711118" lon="11.113890968263149">
        <ele>-1.3</ele>
        <time>2019-05-08T09:39:57Z</time>
      </trkpt>
      <trkpt lat="54.513902999460697" lon="11.113721989095211">
        <ele>-1.3</ele>
        <time>2019-05-08T09:39:58Z</time>
      </trkpt>
      <trkpt lat="54.513956978917122" lon="11.113515039905906">
        <ele>-1.3</ele>
        <time>2019-05-08T09:39:59Z</time>
      </trkpt>
      <trkpt lat="54.514014981687069" lon="11.113285962492228">
        <ele>-1.3</ele>
        <time>2019-05-08T09:40:00Z</time>
      </trkpt>
      <trkpt lat="54.514498030766845" lon="11.111403973773122">
        <ele>-0.34</ele>
        <time>2019-05-08T09:40:08Z</time>
      </trkpt>
      <trkpt lat="54.514994993805885" lon="11.108867023140192">
        <ele>0.62</ele>
        <time>2019-05-08T09:40:16Z</time>
      </trkpt>
      <trkpt lat="54.515061965212226" lon="11.10727203078568">
        <ele>1.1</ele>
        <time>2019-05-08T09:40:21Z</time>
      </trkpt>
      <trkpt lat="54.515061965212226" lon="11.106990985572338">
        <ele>0.62</ele>
        <time>2019-05-08T09:40:22Z</time>
      </trkpt>
      <trkpt lat="54.515036987140775" lon="11.106688985601068">
        <ele>0.62</ele>
        <time>2019-05-08T09:40:23Z</time>
      </trkpt>
      <trkpt lat="54.514969009906054" lon="11.106404000893235">
        <ele>0.14</ele>
        <time>2019-05-08T09:40:24Z</time>
      </trkpt>
      <trkpt lat="54.514898015186191" lon="11.106109041720629">
        <ele>0.14</ele>
        <time>2019-05-08T09:40:25Z</time>
      </trkpt>
      <trkpt lat="54.514826014637947" lon="11.105810981243849">
        <ele>0.14</ele>
        <time>2019-05-08T09:40:26Z</time>
      </trkpt>
      <trkpt lat="54.514548992738128" lon="11.104659978300333">
        <ele>0.14</ele>
        <time>2019-05-08T09:40:30Z</time>
      </trkpt>
      <trkpt lat="54.514490989968181" lon="11.104362001642585">
        <ele>0.14</ele>
        <time>2019-05-08T09:40:31Z</time>
      </trkpt>
      <trkpt lat="54.514257973060012" lon="11.101295985281467">
        <ele>0.62</ele>
        <time>2019-05-08T09:40:40Z</time>
      </trkpt>
      <trkpt lat="54.514025961980224" lon="11.097797965630889">
        <ele>1.58</ele>
        <time>2019-05-08T09:40:51Z</time>
      </trkpt>
      <trkpt lat="54.513982040807605" lon="11.09713202342391">
        <ele>1.58</ele>
        <time>2019-05-08T09:40:55Z</time>
      </trkpt>
      <trkpt lat="54.513976005837321" lon="11.097040995955467">
        <ele>1.1</ele>
        <time>2019-05-08T09:40:56Z</time>
      </trkpt>
      <trkpt lat="54.513970976695418" lon="11.096968995407224">
        <ele>1.1</ele>
        <time>2019-05-08T09:40:57Z</time>
      </trkpt>
      <trkpt lat="54.514050018042326" lon="11.096893977373838">
        <ele>1.1</ele>
        <time>2019-05-08T09:40:58Z</time>
      </trkpt>
      <trkpt lat="54.514121012762189" lon="11.096871010959148">
        <ele>1.1</ele>
        <time>2019-05-08T09:40:59Z</time>
      </trkpt>
      <trkpt lat="54.51420902274549" lon="11.096843015402555">
        <ele>1.1</ele>
        <time>2019-05-08T09:41:00Z</time>
      </trkpt>
      <trkpt lat="54.514312958344817" lon="11.096808984875679">
        <ele>1.58</ele>
        <time>2019-05-08T09:41:01Z</time>
      </trkpt>
      <trkpt lat="54.515238991007209" lon="11.09651000238955">
        <ele>1.1</ele>
        <time>2019-05-08T09:41:07Z</time>
      </trkpt>
      <trkpt lat="54.516975972801447" lon="11.095946989953518">
        <ele>1.1</ele>
        <time>2019-05-08T09:41:16Z</time>
      </trkpt>
      <trkpt lat="54.517744006589055" lon="11.095697963610291">
        <ele>0.14</ele>
        <time>2019-05-08T09:41:22Z</time>
      </trkpt>
      <trkpt lat="54.517787005752325" lon="11.095641972497106">
        <ele>0.14</ele>
        <time>2019-05-08T09:41:23Z</time>
      </trkpt>
      <trkpt lat="54.51782195828855" lon="11.095530996099114">
        <ele>0.14</ele>
        <time>2019-05-08T09:41:24Z</time>
      </trkpt>
      <trkpt lat="54.517828999087214" lon="11.095388000831008">
        <ele>0.14</ele>
        <time>2019-05-08T09:41:25Z</time>
      </trkpt>
      <trkpt lat="54.517827993258834" lon="11.095211980864406">
        <ele>-0.34</ele>
        <time>2019-05-08T09:41:26Z</time>
      </trkpt>
      <trkpt lat="54.517826987430453" lon="11.095002014189959">
        <ele>-0.34</ele>
        <time>2019-05-08T09:41:27Z</time>
      </trkpt>
      <trkpt lat="54.517813995480537" lon="11.093036038801074">
        <ele>-0.82</ele>
        <time>2019-05-08T09:41:34Z</time>
      </trkpt>
      <trkpt lat="54.51781902462244" lon="11.09193398617208">
        <ele>-1.3</ele>
        <time>2019-05-08T09:41:40Z</time>
      </trkpt>
      <trkpt lat="54.517823969945312" lon="11.091828960925341">
        <ele>-1.79</ele>
        <time>2019-05-08T09:41:41Z</time>
      </trkpt>
      <trkpt lat="54.517826987430453" lon="11.091741034761071">
        <ele>-2.27</ele>
        <time>2019-05-08T09:41:42Z</time>
      </trkpt>
      <trkpt lat="54.517858000472188" lon="11.09167599119246">
        <ele>-2.75</ele>
        <time>2019-05-08T09:41:43Z</time>
      </trkpt>
      <trkpt lat="54.517898987978697" lon="11.091662999242544">
        <ele>-3.23</ele>
        <time>2019-05-08T09:41:44Z</time>
      </trkpt>
      <trkpt lat="54.517952967435122" lon="11.091644978150725">
        <ele>-3.71</ele>
        <time>2019-05-08T09:41:45Z</time>
      </trkpt>
      <trkpt lat="54.518019016832113" lon="11.091622011736035">
        <ele>-4.67</ele>
        <time>2019-05-08T09:41:46Z</time>
      </trkpt>
      <trkpt lat="54.518092023208737" lon="11.091598039492965">
        <ele>-5.15</ele>
        <time>2019-05-08T09:41:47Z</time>
      </trkpt>
      <trkpt lat="54.51837801374495" lon="11.091502988710999">
        <ele>-6.11</ele>
        <time>2019-05-08T09:41:51Z</time>
      </trkpt>
      <trkpt lat="54.51844397932291" lon="11.09148102812469">
        <ele>-6.59</ele>
        <time>2019-05-08T09:41:52Z</time>
      </trkpt>
      <trkpt lat="54.518508017063141" lon="11.091458983719349">
        <ele>-6.59</ele>
        <time>2019-05-08T09:41:53Z</time>
      </trkpt>
      <trkpt lat="54.518539030104876" lon="11.09139796346426">
        <ele>-7.07</ele>
        <time>2019-05-08T09:41:54Z</time>
      </trkpt>
      <trkpt lat="54.518541041761637" lon="11.09128899872303">
        <ele>-7.07</ele>
        <time>2019-05-08T09:41:55Z</time>
      </trkpt>
      <trkpt lat="54.518543975427747" lon="11.091167964041233">
        <ele>-7.07</ele>
        <time>2019-05-08T09:41:56Z</time>
      </trkpt>
      <trkpt lat="54.51857197098434" lon="11.08971999026835">
        <ele>-7.07</ele>
        <time>2019-05-08T09:42:04Z</time>
      </trkpt>
      <trkpt lat="54.518584962934256" lon="11.08920500613749">
        <ele>-6.59</ele>
        <time>2019-05-08T09:42:07Z</time>
      </trkpt>
      <trkpt lat="54.5185930095613" lon="11.089090006425977">
        <ele>-6.59</ele>
        <time>2019-05-08T09:42:08Z</time>
      </trkpt>
      <trkpt lat="54.518602984026074" lon="11.088960003107786">
        <ele>-6.59</ele>
        <time>2019-05-08T09:42:09Z</time>
      </trkpt>
      <trkpt lat="54.518610024824739" lon="11.088889008387923">
        <ele>-6.59</ele>
        <time>2019-05-08T09:42:10Z</time>
      </trkpt>
      <trkpt lat="54.518617987632751" lon="11.08881700783968">
        <ele>-6.59</ele>
        <time>2019-05-08T09:42:11Z</time>
      </trkpt>
      <trkpt lat="54.518625028431416" lon="11.088750036433339">
        <ele>-6.59</ele>
        <time>2019-05-08T09:42:12Z</time>
      </trkpt>
      <trkpt lat="54.518633997067809" lon="11.088665965944529">
        <ele>-6.11</ele>
        <time>2019-05-08T09:42:13Z</time>
      </trkpt>
      <trkpt lat="54.518646989017725" lon="11.088549960404634">
        <ele>-6.11</ele>
        <time>2019-05-08T09:42:14Z</time>
      </trkpt>
      <trkpt lat="54.518781015649438" lon="11.087296027690172">
        <ele>-4.67</ele>
        <time>2019-05-08T09:42:20Z</time>
      </trkpt>
      <trkpt lat="54.519089972600341" lon="11.084428997710347">
        <ele>-3.23</ele>
        <time>2019-05-08T09:42:29Z</time>
      </trkpt>
      <trkpt lat="54.51943296007812" lon="11.080681029707193">
        <ele>-0.82</ele>
        <time>2019-05-08T09:42:41Z</time>
      </trkpt>
      <trkpt lat="54.519793968647718" lon="11.078151036053896">
        <ele>0.14</ele>
        <time>2019-05-08T09:42:49Z</time>
      </trkpt>
      <trkpt lat="54.519910980015993" lon="11.077330028638244">
        <ele>0.14</ele>
        <time>2019-05-08T09:42:52Z</time>
      </trkpt>
      <trkpt lat="54.520021034404635" lon="11.077111009508371">
        <ele>0.14</ele>
        <time>2019-05-08T09:42:53Z</time>
      </trkpt>
      <trkpt lat="54.520122958347201" lon="11.076907999813557">
        <ele>0.14</ele>
        <time>2019-05-08T09:42:54Z</time>
      </trkpt>
      <trkpt lat="54.521060977131128" lon="11.075136987492442">
        <ele>0.14</ele>
        <time>2019-05-08T09:43:01Z</time>
      </trkpt>
      <trkpt lat="54.521434977650642" lon="11.074183965101838">
        <ele>-0.34</ele>
        <time>2019-05-08T09:43:05Z</time>
      </trkpt>
      <trkpt lat="54.521482000127435" lon="11.073978021740913">
        <ele>-0.34</ele>
        <time>2019-05-08T09:43:06Z</time>
      </trkpt>
      <trkpt lat="54.521517036482692" lon="11.07373402453959">
        <ele>-0.34</ele>
        <time>2019-05-08T09:43:07Z</time>
      </trkpt>
      <trkpt lat="54.521505972370505" lon="11.073491033166647">
        <ele>-0.82</ele>
        <time>2019-05-08T09:43:08Z</time>
      </trkpt>
      <trkpt lat="54.52149398624897" lon="11.073230020701885">
        <ele>-0.34</ele>
        <time>2019-05-08T09:43:09Z</time>
      </trkpt>
      <trkpt lat="54.521473031491041" lon="11.070668008178473">
        <ele>-0.34</ele>
        <time>2019-05-08T09:43:17Z</time>
      </trkpt>
      <trkpt lat="54.521507984027267" lon="11.067079966887832">
        <ele>0.14</ele>
        <time>2019-05-08T09:43:28Z</time>
      </trkpt>
      <trkpt lat="54.521519970148802" lon="11.065782029181719">
        <ele>0.14</ele>
        <time>2019-05-08T09:43:33Z</time>
      </trkpt>
      <trkpt lat="54.521546959877014" lon="11.065680021420121">
        <ele>0.14</ele>
        <time>2019-05-08T09:43:34Z</time>
      </trkpt>
      <trkpt lat="54.521584007889032" lon="11.065620006993413">
        <ele>-0.34</ele>
        <time>2019-05-08T09:43:35Z</time>
      </trkpt>
      <trkpt lat="54.521619966253638" lon="11.065563010051847">
        <ele>-0.34</ele>
        <time>2019-05-08T09:43:36Z</time>
      </trkpt>
      <trkpt lat="54.521669000387192" lon="11.065565021708608">
        <ele>-0.34</ele>
        <time>2019-05-08T09:43:37Z</time>
      </trkpt>
      <trkpt lat="54.521737983450294" lon="11.065589999780059">
        <ele>-0.82</ele>
        <time>2019-05-08T09:43:38Z</time>
      </trkpt>
      <trkpt lat="54.521826999261975" lon="11.065623024478555">
        <ele>-0.82</ele>
        <time>2019-05-08T09:43:39Z</time>
      </trkpt>
      <trkpt lat="54.521937975659966" lon="11.065664011985064">
        <ele>-0.82</ele>
        <time>2019-05-08T09:43:40Z</time>
      </trkpt>
      <trkpt lat="54.522530995309353" lon="11.065884036943316">
        <ele>-1.3</ele>
        <time>2019-05-08T09:43:45Z</time>
      </trkpt>
      <trkpt lat="54.522614981979132" lon="11.065914966166019">
        <ele>-1.3</ele>
        <time>2019-05-08T09:43:46Z</time>
      </trkpt>
      <trkpt lat="54.522659992799163" lon="11.065899962559342">
        <ele>-1.3</ele>
        <time>2019-05-08T09:43:47Z</time>
      </trkpt>
      <trkpt lat="54.52269502915442" lon="11.065814970061183">
        <ele>-1.3</ele>
        <time>2019-05-08T09:43:48Z</time>
      </trkpt>
      <trkpt lat="54.522703997790813" lon="11.065729977563024">
        <ele>-1.3</ele>
        <time>2019-05-08T09:43:49Z</time>
      </trkpt>
      <trkpt lat="54.522709026932716" lon="11.065628975629807">
        <ele>-1.3</ele>
        <time>2019-05-08T09:43:50Z</time>
      </trkpt>
      <trkpt lat="54.522713972255588" lon="11.065523028373718">
        <ele>-1.3</ele>
        <time>2019-05-08T09:43:51Z</time>
      </trkpt>
      <trkpt lat="54.522719001397491" lon="11.065413979813457">
        <ele>-1.3</ele>
        <time>2019-05-08T09:43:52Z</time>
      </trkpt>
      <trkpt lat="54.522725036367774" lon="11.065293028950691">
        <ele>-1.3</ele>
        <time>2019-05-08T09:43:53Z</time>
      </trkpt>
      <trkpt lat="54.522731993347406" lon="11.065165037289262">
        <ele>-1.3</ele>
        <time>2019-05-08T09:43:54Z</time>
      </trkpt>
      <trkpt lat="54.522812040522695" lon="11.063548000529408">
        <ele>-3.71</ele>
        <time>2019-05-08T09:44:03Z</time>
      </trkpt>
      <trkpt lat="54.522949000820518" lon="11.060795970261097">
        <ele>-7.07</ele>
        <time>2019-05-08T09:44:12Z</time>
      </trkpt>
      <trkpt lat="54.522961992770433" lon="11.058035977184772">
        <ele>-7.07</ele>
        <time>2019-05-08T09:44:21Z</time>
      </trkpt>
      <trkpt lat="54.522945983335376" lon="11.057259980589151">
        <ele>-7.55</ele>
        <time>2019-05-08T09:44:25Z</time>
      </trkpt>
      <trkpt lat="54.522939026355743" lon="11.057057976722717">
        <ele>-7.55</ele>
        <time>2019-05-08T09:44:26Z</time>
      </trkpt>
      <trkpt lat="54.522873982787132" lon="11.05506501160562">
        <ele>-8.029999999999999</ele>
        <time>2019-05-08T09:44:37Z</time>
      </trkpt>
      <trkpt lat="54.52282402664423" lon="11.054981024935842">
        <ele>-8.029999999999999</ele>
        <time>2019-05-08T09:44:38Z</time>
      </trkpt>
      <trkpt lat="54.522767029702663" lon="11.05491598136723">
        <ele>-8.029999999999999</ele>
        <time>2019-05-08T09:44:39Z</time>
      </trkpt>
      <trkpt lat="54.522709026932716" lon="11.05485001578927">
        <ele>-8.029999999999999</ele>
        <time>2019-05-08T09:44:40Z</time>
      </trkpt>
      <trkpt lat="54.522645995020866" lon="11.054779021069407">
        <ele>-8.029999999999999</ele>
        <time>2019-05-08T09:44:41Z</time>
      </trkpt>
      <trkpt lat="54.522573994472623" lon="11.054697968065739">
        <ele>-7.55</ele>
        <time>2019-05-08T09:44:42Z</time>
      </trkpt>
      <trkpt lat="54.522504005581141" lon="11.054603001102805">
        <ele>-7.55</ele>
        <time>2019-05-08T09:44:43Z</time>
      </trkpt>
      <trkpt lat="54.522435022518039" lon="11.054500993341208">
        <ele>-7.55</ele>
        <time>2019-05-08T09:44:44Z</time>
      </trkpt>
      <trkpt lat="54.522363021969795" lon="11.054396973922849">
        <ele>-7.07</ele>
        <time>2019-05-08T09:44:45Z</time>
      </trkpt>
      <trkpt lat="54.522271994501352" lon="11.054263031110168">
        <ele>-7.07</ele>
        <time>2019-05-08T09:44:46Z</time>
      </trkpt>
      <trkpt lat="54.521863963454962" lon="11.053982991725206">
        <ele>-6.11</ele>
        <time>2019-05-08T09:44:51Z</time>
      </trkpt>
      <trkpt lat="54.521774025633931" lon="11.053976034745574">
        <ele>-5.63</ele>
        <time>2019-05-08T09:44:52Z</time>
      </trkpt>
      <trkpt lat="54.521678974851966" lon="11.053967988118529">
        <ele>-5.15</ele>
        <time>2019-05-08T09:44:53Z</time>
      </trkpt>
      <trkpt lat="54.521120991557837" lon="11.053923983126879">
        <ele>-3.23</ele>
        <time>2019-05-08T09:44:58Z</time>
      </trkpt>
      <trkpt lat="54.521006997674704" lon="11.053857011720538">
        <ele>-3.23</ele>
        <time>2019-05-08T09:44:59Z</time>
      </trkpt>
      <trkpt lat="54.520903984084725" lon="11.053752992302179">
        <ele>-3.23</ele>
        <time>2019-05-08T09:45:00Z</time>
      </trkpt>
      <trkpt lat="54.520713966339827" lon="11.053563980385661">
        <ele>-3.23</ele>
        <time>2019-05-08T09:45:02Z</time>
      </trkpt>
      <trkpt lat="54.520425964146852" lon="11.053275978192687">
        <ele>-3.23</ele>
        <time>2019-05-08T09:45:06Z</time>
      </trkpt>
      <trkpt lat="54.520356981083751" lon="11.053249994292855">
        <ele>-3.23</ele>
        <time>2019-05-08T09:45:07Z</time>
      </trkpt>
      <trkpt lat="54.520254973322153" lon="11.053212024271488">
        <ele>-3.23</ele>
        <time>2019-05-08T09:45:08Z</time>
      </trkpt>
      <trkpt lat="54.520194958895445" lon="11.053224010393023">
        <ele>-2.75</ele>
        <time>2019-05-08T09:45:09Z</time>
      </trkpt>
      <trkpt lat="54.520098986104131" lon="11.053243959322572">
        <ele>-2.27</ele>
        <time>2019-05-08T09:45:10Z</time>
      </trkpt>
      <trkpt lat="54.519991027191281" lon="11.053267009556293">
        <ele>-2.27</ele>
        <time>2019-05-08T09:45:11Z</time>
      </trkpt>
      <trkpt lat="54.51955902390182" lon="11.053363988175988">
        <ele>-1.79</ele>
        <time>2019-05-08T09:45:15Z</time>
      </trkpt>
      <trkpt lat="54.519474031403661" lon="11.053391983732581">
        <ele>-1.79</ele>
        <time>2019-05-08T09:45:16Z</time>
      </trkpt>
      <trkpt lat="54.51940999366343" lon="11.053455015644431">
        <ele>-1.3</ele>
        <time>2019-05-08T09:45:17Z</time>
      </trkpt>
      <trkpt lat="54.519347967579961" lon="11.053517041727901">
        <ele>-1.3</ele>
        <time>2019-05-08T09:45:18Z</time>
      </trkpt>
      <trkpt lat="54.51932399533689" lon="11.053658025339246">
        <ele>-1.3</ele>
        <time>2019-05-08T09:45:19Z</time>
      </trkpt>
      <trkpt lat="54.519313015043736" lon="11.053815018385649">
        <ele>-1.3</ele>
        <time>2019-05-08T09:45:20Z</time>
      </trkpt>
      <trkpt lat="54.5193010289222" lon="11.0539919603616">
        <ele>-1.3</ele>
        <time>2019-05-08T09:45:21Z</time>
      </trkpt>
      <trkpt lat="54.519288958981633" lon="11.054180972278118">
        <ele>-1.3</ele>
        <time>2019-05-08T09:45:22Z</time>
      </trkpt>
      <trkpt lat="54.519275967031717" lon="11.054373001679778">
        <ele>-1.3</ele>
        <time>2019-05-08T09:45:23Z</time>
      </trkpt>
      <trkpt lat="54.519264986738563" lon="11.054538041353226">
        <ele>-1.3</ele>
        <time>2019-05-08T09:45:24Z</time>
      </trkpt>
      <trkpt lat="54.51925702393055" lon="11.054659998044372">
        <ele>-1.3</ele>
        <time>2019-05-08T09:45:25Z</time>
      </trkpt>
      <trkpt lat="54.519250988960266" lon="11.054747002199292">
        <ele>-1.3</ele>
        <time>2019-05-08T09:45:26Z</time>
      </trkpt>
      <trkpt lat="54.519130038097501" lon="11.054796958342195">
        <ele>-1.3</ele>
        <time>2019-05-08T09:45:27Z</time>
      </trkpt>
      <trkpt lat="54.519078992307186" lon="11.05478597804904">
        <ele>-1.79</ele>
        <time>2019-05-08T09:45:28Z</time>
      </trkpt>
      <trkpt lat="54.519013026729226" lon="11.054771980270743">
        <ele>-1.79</ele>
        <time>2019-05-08T09:45:29Z</time>
      </trkpt>
      <trkpt lat="54.518923005089164" lon="11.054753959178925">
        <ele>-1.79</ele>
        <time>2019-05-08T09:45:30Z</time>
      </trkpt>
      <trkpt lat="54.518809011206031" lon="11.054729986935854">
        <ele>-2.27</ele>
        <time>2019-05-08T09:45:31Z</time>
      </trkpt>
      <trkpt lat="54.517697989940643" lon="11.054496970027685">
        <ele>-2.27</ele>
        <time>2019-05-08T09:45:38Z</time>
      </trkpt>
      <trkpt lat="54.515960002318025" lon="11.05379699729383">
        <ele>-2.75</ele>
        <time>2019-05-08T09:45:48Z</time>
      </trkpt>
      <trkpt lat="54.515776019543409" lon="11.053698007017374">
        <ele>-2.75</ele>
        <time>2019-05-08T09:45:49Z</time>
      </trkpt>
      <trkpt lat="54.515569992363453" lon="11.053675040602684">
        <ele>-2.75</ele>
        <time>2019-05-08T09:45:50Z</time>
      </trkpt>
      <trkpt lat="54.515352984890342" lon="11.053663976490498">
        <ele>-2.27</ele>
        <time>2019-05-08T09:45:51Z</time>
      </trkpt>
      <trkpt lat="54.513482982292771" lon="11.053951978683472">
        <ele>-1.3</ele>
        <time>2019-05-08T09:45:59Z</time>
      </trkpt>
      <trkpt lat="54.510996993631124" lon="11.055031986907125">
        <ele>-0.82</ele>
        <time>2019-05-08T09:46:10Z</time>
      </trkpt>
      <trkpt lat="54.50991396792233" lon="11.055716034024954">
        <ele>-0.34</ele>
        <time>2019-05-08T09:46:16Z</time>
      </trkpt>
      <trkpt lat="54.509020037949085" lon="11.056279968470335">
        <ele>0.14</ele>
        <time>2019-05-08T09:46:23Z</time>
      </trkpt>
      <trkpt lat="54.507739031687379" lon="11.057065017521381">
        <ele>0.14</ele>
        <time>2019-05-08T09:46:30Z</time>
      </trkpt>
      <trkpt lat="54.505859976634383" lon="11.058087022975087">
        <ele>-0.82</ele>
        <time>2019-05-08T09:46:39Z</time>
      </trkpt>
      <trkpt lat="54.503351021558046" lon="11.058669984340668">
        <ele>-1.3</ele>
        <time>2019-05-08T09:46:50Z</time>
      </trkpt>
      <trkpt lat="54.501623008400202" lon="11.059114979580045">
        <ele>-1.3</ele>
        <time>2019-05-08T09:46:58Z</time>
      </trkpt>
      <trkpt lat="54.499416975304484" lon="11.059914026409388">
        <ele>-0.34</ele>
        <time>2019-05-08T09:47:08Z</time>
      </trkpt>
      <trkpt lat="54.498199000954628" lon="11.060217032209039">
        <ele>0.62</ele>
        <time>2019-05-08T09:47:14Z</time>
      </trkpt>
      <trkpt lat="54.497530041262507" lon="11.060452982783318">
        <ele>2.06</ele>
        <time>2019-05-08T09:47:20Z</time>
      </trkpt>
      <trkpt lat="54.497015979140997" lon="11.060706032440066">
        <ele>2.54</ele>
        <time>2019-05-08T09:47:26Z</time>
      </trkpt>
      <trkpt lat="54.496952025219798" lon="11.060742996633053">
        <ele>3.02</ele>
        <time>2019-05-08T09:47:27Z</time>
      </trkpt>
      <trkpt lat="54.496844988316298" lon="11.06091096997261">
        <ele>3.02</ele>
        <time>2019-05-08T09:47:29Z</time>
      </trkpt>
      <trkpt lat="54.496651031076908" lon="11.060851039364934">
        <ele>3.5</ele>
        <time>2019-05-08T09:47:30Z</time>
      </trkpt>
      <trkpt lat="54.496651031076908" lon="11.060851039364934">
        <ele>3.5</ele>
        <time>2019-05-08T09:47:31Z</time>
      </trkpt>
      <trkpt lat="54.496542988345027" lon="11.060828994959593">
        <ele>3.5</ele>
        <time>2019-05-08T09:47:32Z</time>
      </trkpt>
      <trkpt lat="54.49639898724854" lon="11.060813991352916">
        <ele>3.02</ele>
        <time>2019-05-08T09:47:33Z</time>
      </trkpt>
      <trkpt lat="54.495075987651944" lon="11.061018006876111">
        <ele>2.54</ele>
        <time>2019-05-08T09:47:40Z</time>
      </trkpt>
      <trkpt lat="54.492624029517174" lon="11.061276001855731">
        <ele>2.54</ele>
        <time>2019-05-08T09:47:50Z</time>
      </trkpt>
      <trkpt lat="54.489753982052207" lon="11.061775982379913">
        <ele>2.06</ele>
        <time>2019-05-08T09:48:01Z</time>
      </trkpt>
      <trkpt lat="54.487532023340464" lon="11.062331032007933">
        <ele>1.58</ele>
        <time>2019-05-08T09:48:10Z</time>
      </trkpt>
      <trkpt lat="54.487321972846985" lon="11.062476960942149">
        <ele>1.58</ele>
        <time>2019-05-08T09:48:11Z</time>
      </trkpt>
      <trkpt lat="54.487102031707764" lon="11.062630014494061">
        <ele>1.58</ele>
        <time>2019-05-08T09:48:12Z</time>
      </trkpt>
      <trkpt lat="54.485179977491498" lon="11.064717024564743">
        <ele>2.54</ele>
        <time>2019-05-08T09:48:21Z</time>
      </trkpt>
      <trkpt lat="54.483545003458858" lon="11.066489964723587">
        <ele>2.54</ele>
        <time>2019-05-08T09:48:30Z</time>
      </trkpt>
      <trkpt lat="54.482754003256559" lon="11.067374004051089">
        <ele>2.06</ele>
        <time>2019-05-08T09:48:37Z</time>
      </trkpt>
      <trkpt lat="54.482259973883629" lon="11.06784900650382">
        <ele>2.54</ele>
        <time>2019-05-08T09:48:42Z</time>
      </trkpt>
      <trkpt lat="54.482157966122031" lon="11.067908015102148">
        <ele>2.54</ele>
        <time>2019-05-08T09:48:43Z</time>
      </trkpt>
      <trkpt lat="54.482057970017195" lon="11.067965012043715">
        <ele>2.54</ele>
        <time>2019-05-08T09:48:44Z</time>
      </trkpt>
      <trkpt lat="54.481785977259278" lon="11.068017985671759">
        <ele>2.06</ele>
        <time>2019-05-08T09:48:48Z</time>
      </trkpt>
      <trkpt lat="54.481754964217544" lon="11.067969035357237">
        <ele>2.06</ele>
        <time>2019-05-08T09:48:49Z</time>
      </trkpt>
      <trkpt lat="54.481714982539415" lon="11.067897034808993">
        <ele>2.06</ele>
        <time>2019-05-08T09:48:50Z</time>
      </trkpt>
      <trkpt lat="54.481495041400194" lon="11.067497972398996">
        <ele>2.06</ele>
        <time>2019-05-08T09:48:54Z</time>
      </trkpt>
      <trkpt lat="54.480827003717422" lon="11.066051004454494">
        <ele>0.62</ele>
        <time>2019-05-08T09:49:04Z</time>
      </trkpt>
      <trkpt lat="54.48037002235651" lon="11.065103011205792">
        <ele>0.14</ele>
        <time>2019-05-08T09:49:11Z</time>
      </trkpt>
      <trkpt lat="54.480314031243324" lon="11.065031010657549">
        <ele>-0.34</ele>
        <time>2019-05-08T09:49:12Z</time>
      </trkpt>
      <trkpt lat="54.480301039293408" lon="11.065013995394111">
        <ele>-0.34</ele>
        <time>2019-05-08T09:49:13Z</time>
      </trkpt>
      <trkpt lat="54.480301039293408" lon="11.065013995394111">
        <ele>-0.34</ele>
        <time>2019-05-08T09:49:14Z</time>
      </trkpt>
      <trkpt lat="54.480227027088404" lon="11.065021036192775">
        <ele>-0.82</ele>
        <time>2019-05-08T09:49:15Z</time>
      </trkpt>
      <trkpt lat="54.480227027088404" lon="11.065021036192775">
        <ele>-1.3</ele>
        <time>2019-05-08T09:49:28Z</time>
      </trkpt>
      <trkpt lat="54.480267008766532" lon="11.064901007339358">
        <ele>-1.3</ele>
        <time>2019-05-08T09:49:39Z</time>
      </trkpt>
      <trkpt lat="54.480256028473377" lon="11.06486395932734">
        <ele>-1.3</ele>
        <time>2019-05-08T09:49:40Z</time>
      </trkpt>
      <trkpt lat="54.480239013209939" lon="11.064806962385774">
        <ele>-1.3</ele>
        <time>2019-05-08T09:49:41Z</time>
      </trkpt>
      <trkpt lat="54.480214035138488" lon="11.064723981544375">
        <ele>-1.79</ele>
        <time>2019-05-08T09:49:42Z</time>
      </trkpt>
      <trkpt lat="54.48017799295485" lon="11.06460596434772">
        <ele>-1.79</ele>
        <time>2019-05-08T09:49:43Z</time>
      </trkpt>
      <trkpt lat="54.480132982134819" lon="11.064457017928362">
        <ele>-2.27</ele>
        <time>2019-05-08T09:49:44Z</time>
      </trkpt>
      <trkpt lat="54.479836011305451" lon="11.063466025516391">
        <ele>-2.75</ele>
        <time>2019-05-08T09:49:50Z</time>
      </trkpt>
      <trkpt lat="54.479645993560553" lon="11.062836041674018">
        <ele>-2.75</ele>
        <time>2019-05-08T09:50:00Z</time>
      </trkpt>
      <trkpt lat="54.479362014681101" lon="11.061890982091427">
        <ele>-2.75</ele>
        <time>2019-05-08T09:50:08Z</time>
      </trkpt>
      <trkpt lat="54.478778969496489" lon="11.059975968673825">
        <ele>-3.71</ele>
        <time>2019-05-08T09:50:19Z</time>
      </trkpt>
      <trkpt lat="54.477971037849784" lon="11.057529039680958">
        <ele>-4.19</ele>
        <time>2019-05-08T09:50:29Z</time>
      </trkpt>
      <trkpt lat="54.47755797766149" lon="11.056376025080681">
        <ele>-3.71</ele>
        <time>2019-05-08T09:50:36Z</time>
      </trkpt>
      <trkpt lat="54.477526964619756" lon="11.05628902092576">
        <ele>-2.75</ele>
        <time>2019-05-08T09:50:37Z</time>
      </trkpt>
      <trkpt lat="54.477501986548305" lon="11.056219032034278">
        <ele>-2.27</ele>
        <time>2019-05-08T09:50:38Z</time>
      </trkpt>
      <trkpt lat="54.477482037618756" lon="11.056164968758821">
        <ele>-1.79</ele>
        <time>2019-05-08T09:50:39Z</time>
      </trkpt>
      <trkpt lat="54.477465022355318" lon="11.05611702427268">
        <ele>-1.3</ele>
        <time>2019-05-08T09:50:40Z</time>
      </trkpt>
      <trkpt lat="54.477447001263499" lon="11.056065978482366">
        <ele>-0.82</ele>
        <time>2019-05-08T09:50:41Z</time>
      </trkpt>
      <trkpt lat="54.477426968514919" lon="11.056080982089043">
        <ele>-0.82</ele>
        <time>2019-05-08T09:50:42Z</time>
      </trkpt>
      <trkpt lat="54.477366032078862" lon="11.056129010394216">
        <ele>-0.34</ele>
        <time>2019-05-08T09:50:43Z</time>
      </trkpt>
      <trkpt lat="54.477285984903574" lon="11.056191036477685">
        <ele>0.14</ele>
        <time>2019-05-08T09:50:44Z</time>
      </trkpt>
      <trkpt lat="54.476746022701263" lon="11.056614993140101">
        <ele>1.1</ele>
        <time>2019-05-08T09:50:51Z</time>
      </trkpt>
      <trkpt lat="54.476710986346006" lon="11.056642988696694">
        <ele>1.1</ele>
        <time>2019-05-08T09:50:52Z</time>
      </trkpt>
      <trkpt lat="54.476630017161369" lon="11.056564031168818">
        <ele>1.58</ele>
        <time>2019-05-08T09:50:53Z</time>
      </trkpt>
      <trkpt lat="54.476617025211453" lon="11.056494964286685">
        <ele>1.58</ele>
        <time>2019-05-08T09:50:54Z</time>
      </trkpt>
      <trkpt lat="54.476596992462873" lon="11.056389017030597">
        <ele>1.58</ele>
        <time>2019-05-08T09:50:55Z</time>
      </trkpt>
      <trkpt lat="54.476571008563042" lon="11.056251972913742">
        <ele>1.58</ele>
        <time>2019-05-08T09:50:56Z</time>
      </trkpt>
      <trkpt lat="54.476208994165063" lon="11.05491598136723">
        <ele>3.5</ele>
        <time>2019-05-08T09:51:03Z</time>
      </trkpt>
      <trkpt lat="54.475585967302322" lon="11.052585979923606">
        <ele>3.02</ele>
        <time>2019-05-08T09:51:15Z</time>
      </trkpt>
      <trkpt lat="54.475330989807844" lon="11.051589958369732">
        <ele>1.58</ele>
        <time>2019-05-08T09:51:20Z</time>
      </trkpt>
      <trkpt lat="54.475274998694658" lon="11.051378985866904">
        <ele>1.1</ele>
        <time>2019-05-08T09:51:21Z</time>
      </trkpt>
      <trkpt lat="54.474385008215904" lon="11.049595987424254">
        <ele>-0.34</ele>
        <time>2019-05-08T09:51:30Z</time>
      </trkpt>
      <trkpt lat="54.473341964185238" lon="11.047569997608662">
        <ele>2.06</ele>
        <time>2019-05-08T09:51:38Z</time>
      </trkpt>
      <trkpt lat="54.473157981410623" lon="11.047326000407338">
        <ele>2.06</ele>
        <time>2019-05-08T09:51:39Z</time>
      </trkpt>
      <trkpt lat="54.472970981150866" lon="11.047078985720873">
        <ele>1.58</ele>
        <time>2019-05-08T09:51:40Z</time>
      </trkpt>
      <trkpt lat="54.472751962020993" lon="11.046895002946258">
        <ele>1.58</ele>
        <time>2019-05-08T09:51:41Z</time>
      </trkpt>
      <trkpt lat="54.472517017275095" lon="11.046786960214376">
        <ele>1.58</ele>
        <time>2019-05-08T09:51:42Z</time>
      </trkpt>
      <trkpt lat="54.472277965396643" lon="11.0467270296067">
        <ele>1.1</ele>
        <time>2019-05-08T09:51:43Z</time>
      </trkpt>
      <trkpt lat="54.472038997337222" lon="11.046667015179992">
        <ele>1.1</ele>
        <time>2019-05-08T09:51:44Z</time>
      </trkpt>
      <trkpt lat="54.471787959337234" lon="11.046688975766301">
        <ele>1.1</ele>
        <time>2019-05-08T09:51:45Z</time>
      </trkpt>
      <trkpt lat="54.471535999327898" lon="11.046711020171642">
        <ele>1.1</ele>
        <time>2019-05-08T09:51:46Z</time>
      </trkpt>
      <trkpt lat="54.471276998519897" lon="11.046738009899855">
        <ele>1.1</ele>
        <time>2019-05-08T09:51:47Z</time>
      </trkpt>
      <trkpt lat="54.471020009368658" lon="11.046789977699518">
        <ele>1.1</ele>
        <time>2019-05-08T09:51:48Z</time>
      </trkpt>
      <trkpt lat="54.470763020217419" lon="11.046842029318213">
        <ele>1.1</ele>
        <time>2019-05-08T09:51:49Z</time>
      </trkpt>
      <trkpt lat="54.467439008876681" lon="11.047336980700493">
        <ele>0.14</ele>
        <time>2019-05-08T09:52:02Z</time>
      </trkpt>
      <trkpt lat="54.467189982533455" lon="11.047305967658758">
        <ele>0.14</ele>
        <time>2019-05-08T09:52:03Z</time>
      </trkpt>
      <trkpt lat="54.466935005038977" lon="11.047189962118864">
        <ele>0.14</ele>
        <time>2019-05-08T09:52:04Z</time>
      </trkpt>
      <trkpt lat="54.466709028929472" lon="11.047011008486152">
        <ele>-0.34</ele>
        <time>2019-05-08T09:52:05Z</time>
      </trkpt>
      <trkpt lat="54.466495960950851" lon="11.046790983527899">
        <ele>-0.34</ele>
        <time>2019-05-08T09:52:06Z</time>
      </trkpt>
      <trkpt lat="54.466281970962882" lon="11.046551009640098">
        <ele>-0.34</ele>
        <time>2019-05-08T09:52:07Z</time>
      </trkpt>
      <trkpt lat="54.464603997766972" lon="11.044670026749372">
        <ele>-0.34</ele>
        <time>2019-05-08T09:52:14Z</time>
      </trkpt>
      <trkpt lat="54.463905030861497" lon="11.044022021815181">
        <ele>0.62</ele>
        <time>2019-05-08T09:52:17Z</time>
      </trkpt>
      <trkpt lat="54.463671008124948" lon="11.043881960213184">
        <ele>0.62</ele>
        <time>2019-05-08T09:52:18Z</time>
      </trkpt>
      <trkpt lat="54.463429022580385" lon="11.043758997693658">
        <ele>1.1</ele>
        <time>2019-05-08T09:52:19Z</time>
      </trkpt>
      <trkpt lat="54.463173039257526" lon="11.043668976053596">
        <ele>1.58</ele>
        <time>2019-05-08T09:52:20Z</time>
      </trkpt>
      <trkpt lat="54.462914960458875" lon="11.043577026575804">
        <ele>1.58</ele>
        <time>2019-05-08T09:52:21Z</time>
      </trkpt>
      <trkpt lat="54.46124603971839" lon="11.043165978044271">
        <ele>2.54</ele>
        <time>2019-05-08T09:52:28Z</time>
      </trkpt>
      <trkpt lat="54.460412040352821" lon="11.042990041896701">
        <ele>2.54</ele>
        <time>2019-05-08T09:52:34Z</time>
      </trkpt>
      <trkpt lat="54.46019503287971" lon="11.042955005541444">
        <ele>2.54</ele>
        <time>2019-05-08T09:52:36Z</time>
      </trkpt>
      <trkpt lat="54.46008900180459" lon="11.042964980006218">
        <ele>2.54</ele>
        <time>2019-05-08T09:52:37Z</time>
      </trkpt>
      <trkpt lat="54.459975007921457" lon="11.042975960299373">
        <ele>2.54</ele>
        <time>2019-05-08T09:52:38Z</time>
      </trkpt>
      <trkpt lat="54.459857996553183" lon="11.042987024411559">
        <ele>2.54</ele>
        <time>2019-05-08T09:52:39Z</time>
      </trkpt>
      <trkpt lat="54.459746014326811" lon="11.042998004704714">
        <ele>3.02</ele>
        <time>2019-05-08T09:52:40Z</time>
      </trkpt>
      <trkpt lat="54.459634032100439" lon="11.043007979169488">
        <ele>3.02</ele>
        <time>2019-05-08T09:52:41Z</time>
      </trkpt>
      <trkpt lat="54.45847699418664" lon="11.043264968320727">
        <ele>2.06</ele>
        <time>2019-05-08T09:52:51Z</time>
      </trkpt>
      <trkpt lat="54.458264010027051" lon="11.043410981073976">
        <ele>2.06</ele>
        <time>2019-05-08T09:52:53Z</time>
      </trkpt>
      <trkpt lat="54.458160996437073" lon="11.043502008542418">
        <ele>2.06</ele>
        <time>2019-05-08T09:52:54Z</time>
      </trkpt>
      <trkpt lat="54.457104038447142" lon="11.044830959290266">
        <ele>2.06</ele>
        <time>2019-05-08T09:53:04Z</time>
      </trkpt>
      <trkpt lat="54.455744996666908" lon="11.046603983268142">
        <ele>1.1</ele>
        <time>2019-05-08T09:53:12Z</time>
      </trkpt>
      <trkpt lat="54.454620983451605" lon="11.048052040860057">
        <ele>1.1</ele>
        <time>2019-05-08T09:53:19Z</time>
      </trkpt>
      <trkpt lat="54.454056965187192" lon="11.04853400029242">
        <ele>1.1</ele>
        <time>2019-05-08T09:53:22Z</time>
      </trkpt>
      <trkpt lat="54.453846998512745" lon="11.048696022480726">
        <ele>1.1</ele>
        <time>2019-05-08T09:53:23Z</time>
      </trkpt>
      <trkpt lat="54.452233985066414" lon="11.04937101714313">
        <ele>2.06</ele>
        <time>2019-05-08T09:53:30Z</time>
      </trkpt>
      <trkpt lat="54.450730020180345" lon="11.050629978999496">
        <ele>1.58</ele>
        <time>2019-05-08T09:53:37Z</time>
      </trkpt>
      <trkpt lat="54.449805999174714" lon="11.051385020837188">
        <ele>1.1</ele>
        <time>2019-05-08T09:53:44Z</time>
      </trkpt>
      <trkpt lat="54.449078030884266" lon="11.051906039938331">
        <ele>0.62</ele>
        <time>2019-05-08T09:53:51Z</time>
      </trkpt>
      <trkpt lat="54.447598038241267" lon="11.052395962178707">
        <ele>-1.3</ele>
        <time>2019-05-08T09:54:04Z</time>
      </trkpt>
      <trkpt lat="54.447374995797873" lon="11.052467040717602">
        <ele>-2.75</ele>
        <time>2019-05-08T09:54:06Z</time>
      </trkpt>
      <trkpt lat="54.447288997471333" lon="11.052494030445814">
        <ele>-3.23</ele>
        <time>2019-05-08T09:54:07Z</time>
      </trkpt>
      <trkpt lat="54.447191013023257" lon="11.052524959668517">
        <ele>-4.19</ele>
        <time>2019-05-08T09:54:08Z</time>
      </trkpt>
      <trkpt lat="54.447142984718084" lon="11.052504004910588">
        <ele>-4.67</ele>
        <time>2019-05-08T09:54:09Z</time>
      </trkpt>
      <trkpt lat="54.447166034951806" lon="11.052303006872535">
        <ele>-5.15</ele>
        <time>2019-05-08T09:54:10Z</time>
      </trkpt>
      <trkpt lat="54.44715497083962" lon="11.052202004939318">
        <ele>-5.63</ele>
        <time>2019-05-08T09:54:11Z</time>
      </trkpt>
      <trkpt lat="54.447142984718084" lon="11.052101003006101">
        <ele>-6.11</ele>
        <time>2019-05-08T09:54:12Z</time>
      </trkpt>
      <trkpt lat="54.447130998596549" lon="11.052000001072884">
        <ele>-6.59</ele>
        <time>2019-05-08T09:54:13Z</time>
      </trkpt>
      <trkpt lat="54.447002001106739" lon="11.050995010882616">
        <ele>-6.11</ele>
        <time>2019-05-08T09:54:23Z</time>
      </trkpt>
      <trkpt lat="54.446977023035288" lon="11.05080901645124">
        <ele>-5.15</ele>
        <time>2019-05-08T09:54:33Z</time>
      </trkpt>
      <trkpt lat="54.446977023035288" lon="11.05080901645124">
        <ele>-5.15</ele>
        <time>2019-05-08T09:55:17Z</time>
      </trkpt>
      <trkpt lat="54.446977023035288" lon="11.05080901645124">
        <ele>-4.67</ele>
        <time>2019-05-08T09:55:18Z</time>
      </trkpt>
      <trkpt lat="54.446977023035288" lon="11.05080901645124">
        <ele>-4.67</ele>
        <time>2019-05-08T09:55:19Z</time>
      </trkpt>
      <trkpt lat="54.446975011378527" lon="11.05080901645124">
        <ele>-4.67</ele>
        <time>2019-05-08T09:55:20Z</time>
      </trkpt>
      <trkpt lat="54.446977023035288" lon="11.05080901645124">
        <ele>-4.19</ele>
        <time>2019-05-08T09:55:21Z</time>
      </trkpt>
      <trkpt lat="54.446977023035288" lon="11.05080901645124">
        <ele>-4.19</ele>
        <time>2019-05-08T09:55:22Z</time>
      </trkpt>
      <trkpt lat="54.446977023035288" lon="11.05080901645124">
        <ele>-4.67</ele>
        <time>2019-05-08T09:55:23Z</time>
      </trkpt>
      <trkpt lat="54.446977023035288" lon="11.05080901645124">
        <ele>-4.67</ele>
        <time>2019-05-08T09:55:24Z</time>
      </trkpt>
      <trkpt lat="54.446979034692049" lon="11.050824020057917">
        <ele>-5.15</ele>
        <time>2019-05-08T09:55:25Z</time>
      </trkpt>
      <trkpt lat="54.44698398001492" lon="11.050865007564425">
        <ele>-5.15</ele>
        <time>2019-05-08T09:55:26Z</time>
      </trkpt>
      <trkpt lat="54.447000995278358" lon="11.050991993397474">
        <ele>-6.11</ele>
        <time>2019-05-08T09:55:28Z</time>
      </trkpt>
      <trkpt lat="54.447013987228274" lon="11.05109098367393">
        <ele>-6.11</ele>
        <time>2019-05-08T09:55:29Z</time>
      </trkpt>
      <trkpt lat="54.447128986939788" lon="11.051980974152684">
        <ele>-8.029999999999999</ele>
        <time>2019-05-08T09:55:35Z</time>
      </trkpt>
      <trkpt lat="54.44717600941658" lon="11.052395040169358">
        <ele>-8.51</ele>
        <time>2019-05-08T09:55:38Z</time>
      </trkpt>
      <trkpt lat="54.447191013023257" lon="11.052524959668517">
        <ele>-9</ele>
        <time>2019-05-08T09:55:39Z</time>
      </trkpt>
      <trkpt lat="54.447264019399881" lon="11.052501993253827">
        <ele>-9</ele>
        <time>2019-05-08T09:55:40Z</time>
      </trkpt>
      <trkpt lat="54.447337025776505" lon="11.052479026839137">
        <ele>-9</ele>
        <time>2019-05-08T09:55:41Z</time>
      </trkpt>
      <trkpt lat="54.447424029931426" lon="11.052452037110925">
        <ele>-9.48</ele>
        <time>2019-05-08T09:55:42Z</time>
      </trkpt>
      <trkpt lat="54.447523020207882" lon="11.052420018240809">
        <ele>-9.48</ele>
        <time>2019-05-08T09:55:43Z</time>
      </trkpt>
      <trkpt lat="54.448320977389812" lon="11.052166968584061">
        <ele>-9.48</ele>
        <time>2019-05-08T09:55:50Z</time>
      </trkpt>
      <trkpt lat="54.448894970118999" lon="11.051975023001432">
        <ele>-6.59</ele>
        <time>2019-05-08T09:55:57Z</time>
      </trkpt>
      <trkpt lat="54.449267964810133" lon="11.051788022741675">
        <ele>-6.11</ele>
        <time>2019-05-08T09:56:00Z</time>
      </trkpt>
      <trkpt lat="54.450196009129286" lon="11.050902977585793">
        <ele>-3.71</ele>
        <time>2019-05-08T09:56:09Z</time>
      </trkpt>
      <trkpt lat="54.450345039367676" lon="11.050904989242554">
        <ele>-3.71</ele>
        <time>2019-05-08T09:56:10Z</time>
      </trkpt>
      <trkpt lat="54.450447969138622" lon="11.05093901976943">
        <ele>-3.23</ele>
        <time>2019-05-08T09:56:11Z</time>
      </trkpt>
      <trkpt lat="54.451376013457775" lon="11.05130203999579">
        <ele>-2.75</ele>
        <time>2019-05-08T09:56:18Z</time>
      </trkpt>
      <trkpt lat="54.451460000127554" lon="11.051420979201794">
        <ele>-2.27</ele>
        <time>2019-05-08T09:56:19Z</time>
      </trkpt>
      <trkpt lat="54.451562007889152" lon="11.051564980298281">
        <ele>-2.27</ele>
        <time>2019-05-08T09:56:20Z</time>
      </trkpt>
      <trkpt lat="54.452349990606308" lon="11.05244399048388">
        <ele>-1.79</ele>
        <time>2019-05-08T09:56:26Z</time>
      </trkpt>
      <trkpt lat="54.452490974217653" lon="11.052524959668517">
        <ele>-1.79</ele>
        <time>2019-05-08T09:56:27Z</time>
      </trkpt>
      <trkpt lat="54.45265400223434" lon="11.052511967718601">
        <ele>-1.79</ele>
        <time>2019-05-08T09:56:28Z</time>
      </trkpt>
      <trkpt lat="54.452819963917136" lon="11.052498975768685">
        <ele>-1.79</ele>
        <time>2019-05-08T09:56:29Z</time>
      </trkpt>
      <trkpt lat="54.45299900136888" lon="11.052483972162008">
        <ele>-1.79</ele>
        <time>2019-05-08T09:56:30Z</time>
      </trkpt>
      <trkpt lat="54.454468013718724" lon="11.052556978538632">
        <ele>-1.3</ele>
        <time>2019-05-08T09:56:38Z</time>
      </trkpt>
      <trkpt lat="54.456104999408126" lon="11.052970960736275">
        <ele>-0.82</ele>
        <time>2019-05-08T09:56:47Z</time>
      </trkpt>
      <trkpt lat="54.456743029877543" lon="11.053055031225085">
        <ele>-0.82</ele>
        <time>2019-05-08T09:56:52Z</time>
      </trkpt>
      <trkpt lat="54.45680002681911" lon="11.053068023175001">
        <ele>-0.34</ele>
        <time>2019-05-08T09:56:53Z</time>
      </trkpt>
      <trkpt lat="54.456870015710592" lon="11.053161984309554">
        <ele>-0.34</ele>
        <time>2019-05-08T09:56:54Z</time>
      </trkpt>
      <trkpt lat="54.456872027367353" lon="11.053273966535926">
        <ele>-0.34</ele>
        <time>2019-05-08T09:56:55Z</time>
      </trkpt>
      <trkpt lat="54.456874039024115" lon="11.053418973460793">
        <ele>-0.34</ele>
        <time>2019-05-08T09:56:56Z</time>
      </trkpt>
      <trkpt lat="54.456876972690225" lon="11.053595999255776">
        <ele>-0.82</ele>
        <time>2019-05-08T09:56:57Z</time>
      </trkpt>
      <trkpt lat="54.456878984346986" lon="11.053790962323546">
        <ele>-1.3</ele>
        <time>2019-05-08T09:56:58Z</time>
      </trkpt>
      <trkpt lat="54.456907985731959" lon="11.055658031255007">
        <ele>-1.79</ele>
        <time>2019-05-08T09:57:05Z</time>
      </trkpt>
      <trkpt lat="54.457041006535292" lon="11.058443002402782">
        <ele>0.14</ele>
        <time>2019-05-08T09:57:15Z</time>
      </trkpt>
      <trkpt lat="54.457354992628098" lon="11.061672968789935">
        <ele>1.1</ele>
        <time>2019-05-08T09:57:26Z</time>
      </trkpt>
      <trkpt lat="54.457799987867475" lon="11.065176017582417">
        <ele>1.58</ele>
        <time>2019-05-08T09:57:37Z</time>
      </trkpt>
      <trkpt lat="54.45791901089251" lon="11.066378988325596">
        <ele>0.62</ele>
        <time>2019-05-08T09:57:43Z</time>
      </trkpt>
      <trkpt lat="54.45798497647047" lon="11.06673002243042">
        <ele>0.62</ele>
        <time>2019-05-08T09:57:46Z</time>
      </trkpt>
      <trkpt lat="54.458020012825727" lon="11.066790036857128">
        <ele>0.62</ele>
        <time>2019-05-08T09:57:47Z</time>
      </trkpt>
      <trkpt lat="54.458057982847095" lon="11.066856002435088">
        <ele>0.62</ele>
        <time>2019-05-08T09:57:48Z</time>
      </trkpt>
      <trkpt lat="54.458098970353603" lon="11.066926997154951">
        <ele>0.62</ele>
        <time>2019-05-08T09:57:49Z</time>
      </trkpt>
      <trkpt lat="54.458144987002015" lon="11.066991034895182">
        <ele>0.62</ele>
        <time>2019-05-08T09:57:50Z</time>
      </trkpt>
      <trkpt lat="54.458217993378639" lon="11.067019030451775">
        <ele>0.62</ele>
        <time>2019-05-08T09:57:51Z</time>
      </trkpt>
      <trkpt lat="54.458302985876799" lon="11.067050965502858">
        <ele>0.62</ele>
        <time>2019-05-08T09:57:52Z</time>
      </trkpt>
      <trkpt lat="54.45839200168848" lon="11.067084996029735">
        <ele>1.1</ele>
        <time>2019-05-08T09:57:53Z</time>
      </trkpt>
      <trkpt lat="54.458625018596649" lon="11.067174011841416">
        <ele>0.62</ele>
        <time>2019-05-08T09:57:56Z</time>
      </trkpt>
      <trkpt lat="54.458767008036375" lon="11.067262021824718">
        <ele>0.14</ele>
        <time>2019-05-08T09:57:58Z</time>
      </trkpt>
      <trkpt lat="54.458795003592968" lon="11.067365035414696">
        <ele>-0.34</ele>
        <time>2019-05-08T09:57:59Z</time>
      </trkpt>
      <trkpt lat="54.458825010806322" lon="11.067477017641068">
        <ele>-0.34</ele>
        <time>2019-05-08T09:58:00Z</time>
      </trkpt>
      <trkpt lat="54.458849988877773" lon="11.067598974332213">
        <ele>-0.82</ele>
        <time>2019-05-08T09:58:01Z</time>
      </trkpt>
      <trkpt lat="54.458868009969592" lon="11.067724032327533">
        <ele>-1.3</ele>
        <time>2019-05-08T09:58:02Z</time>
      </trkpt>
      <trkpt lat="54.458933975547552" lon="11.068200962617993">
        <ele>-1.3</ele>
        <time>2019-05-08T09:58:06Z</time>
      </trkpt>
      <trkpt lat="54.458947973325849" lon="11.06830095872283">
        <ele>-1.3</ele>
        <time>2019-05-08T09:58:07Z</time>
      </trkpt>
      <trkpt lat="54.458972029387951" lon="11.068468010053039">
        <ele>-1.3</ele>
        <time>2019-05-08T09:58:08Z</time>
      </trkpt>
      <trkpt lat="54.458976974710822" lon="11.068477984517813">
        <ele>-1.3</ele>
        <time>2019-05-08T09:58:09Z</time>
      </trkpt>
      <trkpt lat="54.459004970267415" lon="11.068534981459379">
        <ele>-1.3</ele>
        <time>2019-05-08T09:58:10Z</time>
      </trkpt>
      <trkpt lat="54.459066996350884" lon="11.068571023643017">
        <ele>-1.3</ele>
        <time>2019-05-08T09:58:11Z</time>
      </trkpt>
      <trkpt lat="54.459115024656057" lon="11.068587033078074">
        <ele>-1.3</ele>
        <time>2019-05-08T09:58:12Z</time>
      </trkpt>
      <trkpt lat="54.459161041304469" lon="11.0686029586941">
        <ele>-1.3</ele>
        <time>2019-05-08T09:58:13Z</time>
      </trkpt>
      <trkpt lat="54.459209991618991" lon="11.068662973120809">
        <ele>-1.3</ele>
        <time>2019-05-08T09:58:14Z</time>
      </trkpt>
      <trkpt lat="54.459215020760894" lon="11.068733967840672">
        <ele>-1.3</ele>
        <time>2019-05-08T09:58:15Z</time>
      </trkpt>
      <trkpt lat="54.459219966083765" lon="11.068820971995592">
        <ele>-0.82</ele>
        <time>2019-05-08T09:58:16Z</time>
      </trkpt>
      <trkpt lat="54.459226001054049" lon="11.068924991413951">
        <ele>-0.82</ele>
        <time>2019-05-08T09:58:17Z</time>
      </trkpt>
      <trkpt lat="54.459148971363902" lon="11.070139026269317">
        <ele>0.14</ele>
        <time>2019-05-08T09:58:25Z</time>
      </trkpt>
      <trkpt lat="54.458775976672769" lon="11.072280015796423">
        <ele>0.62</ele>
        <time>2019-05-08T09:58:39Z</time>
      </trkpt>
      <trkpt lat="54.458467019721866" lon="11.073708040639758">
        <ele>0.62</ele>
        <time>2019-05-08T09:58:45Z</time>
      </trkpt>
      <trkpt lat="54.457740979269147" lon="11.075899992138147">
        <ele>0.62</ele>
        <time>2019-05-08T09:58:53Z</time>
      </trkpt>
      <trkpt lat="54.4576829764992" lon="11.076212972402573">
        <ele>0.62</ele>
        <time>2019-05-08T09:58:54Z</time>
      </trkpt>
      <trkpt lat="54.457375025376678" lon="11.078525958582759">
        <ele>0.62</ele>
        <time>2019-05-08T09:59:01Z</time>
      </trkpt>
      <trkpt lat="54.456829028204083" lon="11.080561000853777">
        <ele>0.14</ele>
        <time>2019-05-08T09:59:08Z</time>
      </trkpt>
      <trkpt lat="54.456733977422118" lon="11.081057041883469">
        <ele>-0.82</ele>
        <time>2019-05-08T09:59:10Z</time>
      </trkpt>
      <trkpt lat="54.456428959965706" lon="11.083829021081328">
        <ele>-2.75</ele>
        <time>2019-05-08T09:59:19Z</time>
      </trkpt>
      <trkpt lat="54.456279007717967" lon="11.085184039548039">
        <ele>-3.23</ele>
        <time>2019-05-08T09:59:25Z</time>
      </trkpt>
      <trkpt lat="54.45624397136271" lon="11.085503976792097">
        <ele>-3.71</ele>
        <time>2019-05-08T09:59:28Z</time>
      </trkpt>
      <trkpt lat="54.456237014383078" lon="11.085568014532328">
        <ele>-3.71</ele>
        <time>2019-05-08T09:59:29Z</time>
      </trkpt>
      <trkpt lat="54.456188986077905" lon="11.085663987323642">
        <ele>-3.71</ele>
        <time>2019-05-08T09:59:30Z</time>
      </trkpt>
      <trkpt lat="54.456146992743015" lon="11.085647977888584">
        <ele>-4.19</ele>
        <time>2019-05-08T09:59:31Z</time>
      </trkpt>
      <trkpt lat="54.456087984144688" lon="11.085626017302275">
        <ele>-4.67</ele>
        <time>2019-05-08T09:59:32Z</time>
      </trkpt>
      <trkpt lat="54.45600600913167" lon="11.085612019523978">
        <ele>-5.15</ele>
        <time>2019-05-08T09:59:33Z</time>
      </trkpt>
      <trkpt lat="54.455131022259593" lon="11.085589975118637">
        <ele>-4.67</ele>
        <time>2019-05-08T09:59:40Z</time>
      </trkpt>
      <trkpt lat="54.453575005754828" lon="11.085550999268889">
        <ele>-4.19</ele>
        <time>2019-05-08T09:59:49Z</time>
      </trkpt>
      <trkpt lat="54.451804999262094" lon="11.085506994277239">
        <ele>-5.63</ele>
        <time>2019-05-08T09:59:58Z</time>
      </trkpt>
      <trkpt lat="54.44941196590662" lon="11.085446979850531">
        <ele>-8.029999999999999</ele>
        <time>2019-05-08T10:00:10Z</time>
      </trkpt>
      <trkpt lat="54.448887007310987" lon="11.085457038134336">
        <ele>-7.55</ele>
        <time>2019-05-08T10:00:13Z</time>
      </trkpt>
      <trkpt lat="54.448748035356402" lon="11.085503976792097">
        <ele>-7.55</ele>
        <time>2019-05-08T10:00:14Z</time>
      </trkpt>
      <trkpt lat="54.448627000674605" lon="11.085582012310624">
        <ele>-7.55</ele>
        <time>2019-05-08T10:00:15Z</time>
      </trkpt>
      <trkpt lat="54.448527004569769" lon="11.085671028122306">
        <ele>-7.55</ele>
        <time>2019-05-08T10:00:16Z</time>
      </trkpt>
      <trkpt lat="54.448444023728371" lon="11.085800025612116">
        <ele>-6.59</ele>
        <time>2019-05-08T10:00:17Z</time>
      </trkpt>
      <trkpt lat="54.448362970724702" lon="11.085943020880222">
        <ele>-6.11</ele>
        <time>2019-05-08T10:00:18Z</time>
      </trkpt>
      <trkpt lat="54.448312008753419" lon="11.086122980341315">
        <ele>-5.63</ele>
        <time>2019-05-08T10:00:19Z</time>
      </trkpt>
      <trkpt lat="54.448259035125375" lon="11.086309980601072">
        <ele>-5.63</ele>
        <time>2019-05-08T10:00:20Z</time>
      </trkpt>
      <trkpt lat="54.447747990489006" lon="11.088103959336877">
        <ele>-4.67</ele>
        <time>2019-05-08T10:00:30Z</time>
      </trkpt>
      <trkpt lat="54.447630979120731" lon="11.088515007868409">
        <ele>-3.23</ele>
        <time>2019-05-08T10:00:35Z</time>
      </trkpt>
      <trkpt lat="54.447608012706041" lon="11.088593965396285">
        <ele>-3.23</ele>
        <time>2019-05-08T10:00:36Z</time>
      </trkpt>
      <trkpt lat="54.447569958865643" lon="11.088709970936179">
        <ele>-2.75</ele>
        <time>2019-05-08T10:00:37Z</time>
      </trkpt>
      <trkpt lat="54.44752000272274" lon="11.088761016726494">
        <ele>-2.75</ele>
        <time>2019-05-08T10:00:38Z</time>
      </trkpt>
      <trkpt lat="54.447436016052961" lon="11.088831005617976">
        <ele>-2.75</ele>
        <time>2019-05-08T10:00:39Z</time>
      </trkpt>
      <trkpt lat="54.44732503965497" lon="11.088898982852697">
        <ele>-2.75</ele>
        <time>2019-05-08T10:00:41Z</time>
      </trkpt>
      <trkpt lat="54.447268964722753" lon="11.088934019207954">
        <ele>-2.75</ele>
        <time>2019-05-08T10:00:42Z</time>
      </trkpt>
      <trkpt lat="54.447212973609567" lon="11.08896897174418">
        <ele>-2.75</ele>
        <time>2019-05-08T10:00:43Z</time>
      </trkpt>
      <trkpt lat="54.447155976668" lon="11.088979030027986">
        <ele>-2.75</ele>
        <time>2019-05-08T10:00:44Z</time>
      </trkpt>
      <trkpt lat="54.447101997211576" lon="11.088976012542844">
        <ele>-2.75</ele>
        <time>2019-05-08T10:00:45Z</time>
      </trkpt>
      <trkpt lat="54.447050029411912" lon="11.088971989229321">
        <ele>-2.75</ele>
        <time>2019-05-08T10:00:46Z</time>
      </trkpt>
      <trkpt lat="54.446954978629947" lon="11.08896603807807">
        <ele>-3.23</ele>
        <time>2019-05-08T10:00:48Z</time>
      </trkpt>
      <trkpt lat="54.446712993085384" lon="11.088911974802613">
        <ele>-4.19</ele>
        <time>2019-05-08T10:00:53Z</time>
      </trkpt>
      <trkpt lat="54.44665901362896" lon="11.088894959539175">
        <ele>-4.19</ele>
        <time>2019-05-08T10:00:54Z</time>
      </trkpt>
      <trkpt lat="54.446390960365534" lon="11.088811978697777">
        <ele>-4.19</ele>
        <time>2019-05-08T10:00:59Z</time>
      </trkpt>
      <trkpt lat="54.44620898924768" lon="11.088781971484423">
        <ele>-4.67</ele>
        <time>2019-05-08T10:01:02Z</time>
      </trkpt>
      <trkpt lat="54.446117961779237" lon="11.088819019496441">
        <ele>-4.67</ele>
        <time>2019-05-08T10:01:04Z</time>
      </trkpt>
      <trkpt lat="54.446075968444347" lon="11.088836034759879">
        <ele>-4.67</ele>
        <time>2019-05-08T10:01:05Z</time>
      </trkpt>
      <trkpt lat="54.446027018129826" lon="11.08888003975153">
        <ele>-4.67</ele>
        <time>2019-05-08T10:01:06Z</time>
      </trkpt>
      <trkpt lat="54.446012014523149" lon="11.088954973965883">
        <ele>-4.67</ele>
        <time>2019-05-08T10:01:07Z</time>
      </trkpt>
      <trkpt lat="54.446007991209626" lon="11.089038960635662">
        <ele>-4.67</ele>
        <time>2019-05-08T10:01:08Z</time>
      </trkpt>
      <trkpt lat="54.446004973724484" lon="11.089129988104105">
        <ele>-4.19</ele>
        <time>2019-05-08T10:01:09Z</time>
      </trkpt>
      <trkpt lat="54.445991981774569" lon="11.089460989460349">
        <ele>-4.19</ele>
        <time>2019-05-08T10:01:13Z</time>
      </trkpt>
      <trkpt lat="54.445989970117807" lon="11.089535001665354">
        <ele>-4.19</ele>
        <time>2019-05-08T10:01:14Z</time>
      </trkpt>
      <trkpt lat="54.445987036451697" lon="11.089609013870358">
        <ele>-4.19</ele>
        <time>2019-05-08T10:01:15Z</time>
      </trkpt>
      <trkpt lat="54.445981001481414" lon="11.089765001088381">
        <ele>-4.19</ele>
        <time>2019-05-08T10:01:17Z</time>
      </trkpt>
      <trkpt lat="54.445990975946188" lon="11.090423986315727">
        <ele>-3.71</ele>
        <time>2019-05-08T10:01:24Z</time>
      </trkpt>
      <trkpt lat="54.446012014523149" lon="11.090721962973475">
        <ele>-3.71</ele>
        <time>2019-05-08T10:01:27Z</time>
      </trkpt>
      <trkpt lat="54.4460179656744" lon="11.090811984613538">
        <ele>-3.71</ele>
        <time>2019-05-08T10:01:28Z</time>
      </trkpt>
      <trkpt lat="54.446047972887754" lon="11.091233007609844">
        <ele>-3.71</ele>
        <time>2019-05-08T10:01:33Z</time>
      </trkpt>
      <trkpt lat="54.44606096483767" lon="11.091424031183124">
        <ele>-3.71</ele>
        <time>2019-05-08T10:01:35Z</time>
      </trkpt>
      <trkpt lat="54.446068005636334" lon="11.091525033116341">
        <ele>-3.71</ele>
        <time>2019-05-08T10:01:36Z</time>
      </trkpt>
      <trkpt lat="54.446074962615967" lon="11.091629974544048">
        <ele>-3.71</ele>
        <time>2019-05-08T10:01:37Z</time>
      </trkpt>
      <trkpt lat="54.44612399674952" lon="11.092050997540355">
        <ele>-3.23</ele>
        <time>2019-05-08T10:01:41Z</time>
      </trkpt>
      <trkpt lat="54.446149980649352" lon="11.092158034443855">
        <ele>-3.23</ele>
        <time>2019-05-08T10:01:42Z</time>
      </trkpt>
      <trkpt lat="54.446429014205933" lon="11.093507017940283">
        <ele>-0.82</ele>
        <time>2019-05-08T10:01:51Z</time>
      </trkpt>
      <trkpt lat="54.446462038904428" lon="11.093768030405045">
        <ele>-1.3</ele>
        <time>2019-05-08T10:01:53Z</time>
      </trkpt>
      <trkpt lat="54.446475030854344" lon="11.093872971832752">
        <ele>-1.3</ele>
        <time>2019-05-08T10:01:54Z</time>
      </trkpt>
      <trkpt lat="54.446396995335817" lon="11.094024013727903">
        <ele>-1.3</ele>
        <time>2019-05-08T10:01:55Z</time>
      </trkpt>
      <trkpt lat="54.446360031142831" lon="11.094111017882824">
        <ele>-1.3</ele>
        <time>2019-05-08T10:01:56Z</time>
      </trkpt>
      <trkpt lat="54.446302028372884" lon="11.094244960695505">
        <ele>-1.79</ele>
        <time>2019-05-08T10:01:57Z</time>
      </trkpt>
      <trkpt lat="54.446094995364547" lon="11.094702025875449">
        <ele>-1.3</ele>
        <time>2019-05-08T10:02:00Z</time>
      </trkpt>
      <trkpt lat="54.445998016744852" lon="11.094842003658414">
        <ele>-1.3</ele>
        <time>2019-05-08T10:02:01Z</time>
      </trkpt>
      <trkpt lat="54.445892991498113" lon="11.094977958127856">
        <ele>-1.3</ele>
        <time>2019-05-08T10:02:02Z</time>
      </trkpt>
      <trkpt lat="54.445772040635347" lon="11.09509396366775">
        <ele>-1.3</ele>
        <time>2019-05-08T10:02:03Z</time>
      </trkpt>
      <trkpt lat="54.445642959326506" lon="11.095217010006309">
        <ele>-1.3</ele>
        <time>2019-05-08T10:02:04Z</time>
      </trkpt>
      <trkpt lat="54.444246031343937" lon="11.096461974084377">
        <ele>-0.82</ele>
        <time>2019-05-08T10:02:14Z</time>
      </trkpt>
      <trkpt lat="54.443461988121271" lon="11.097149960696697">
        <ele>-0.82</ele>
        <time>2019-05-08T10:02:22Z</time>
      </trkpt>
      <trkpt lat="54.443281022831798" lon="11.097364034503698">
        <ele>-0.82</ele>
        <time>2019-05-08T10:02:25Z</time>
      </trkpt>
      <trkpt lat="54.443249003961682" lon="11.097460007295012">
        <ele>-0.82</ele>
        <time>2019-05-08T10:02:26Z</time>
      </trkpt>
      <trkpt lat="54.443234000355005" lon="11.097589004784822">
        <ele>-0.82</ele>
        <time>2019-05-08T10:02:27Z</time>
      </trkpt>
      <trkpt lat="54.443109026178718" lon="11.099059022963047">
        <ele>0.14</ele>
        <time>2019-05-08T10:02:35Z</time>
      </trkpt>
      <trkpt lat="54.443077007308602" lon="11.099446015432477">
        <ele>-0.34</ele>
        <time>2019-05-08T10:02:37Z</time>
      </trkpt>
      <trkpt lat="54.443062003701925" lon="11.099621029570699">
        <ele>-1.3</ele>
        <time>2019-05-08T10:02:38Z</time>
      </trkpt>
      <trkpt lat="54.443049011752009" lon="11.099771987646818">
        <ele>-1.79</ele>
        <time>2019-05-08T10:02:39Z</time>
      </trkpt>
      <trkpt lat="54.443039959296584" lon="11.099872989580035">
        <ele>-1.79</ele>
        <time>2019-05-08T10:02:40Z</time>
      </trkpt>
      <trkpt lat="54.442947003990412" lon="11.099942978471518">
        <ele>-2.27</ele>
        <time>2019-05-08T10:02:41Z</time>
      </trkpt>
      <trkpt lat="54.442907022312284" lon="11.099909031763673">
        <ele>-2.75</ele>
        <time>2019-05-08T10:02:42Z</time>
      </trkpt>
      <trkpt lat="54.44285798817873" lon="11.099868966266513">
        <ele>-3.23</ele>
        <time>2019-05-08T10:02:43Z</time>
      </trkpt>
      <trkpt lat="54.442798979580402" lon="11.099820015951991">
        <ele>-3.23</ele>
        <time>2019-05-08T10:02:44Z</time>
      </trkpt>
      <trkpt lat="54.442108981311321" lon="11.099397987127304">
        <ele>-3.71</ele>
        <time>2019-05-08T10:02:52Z</time>
      </trkpt>
      <trkpt lat="54.442001022398472" lon="11.099366974085569">
        <ele>-3.71</ele>
        <time>2019-05-08T10:02:53Z</time>
      </trkpt>
      <trkpt lat="54.440820012241602" lon="11.099348030984402">
        <ele>-4.19</ele>
        <time>2019-05-08T10:03:03Z</time>
      </trkpt>
      <trkpt lat="54.440295975655317" lon="11.099236970767379">
        <ele>-5.15</ele>
        <time>2019-05-08T10:03:09Z</time>
      </trkpt>
      <trkpt lat="54.440226992592216" lon="11.099219033494592">
        <ele>-5.15</ele>
        <time>2019-05-08T10:03:10Z</time>
      </trkpt>
      <trkpt lat="54.43987000733614" lon="11.099125994369388">
        <ele>-6.11</ele>
        <time>2019-05-08T10:03:16Z</time>
      </trkpt>
      <trkpt lat="54.439818961545825" lon="11.099000014364719">
        <ele>-6.59</ele>
        <time>2019-05-08T10:03:17Z</time>
      </trkpt>
      <trkpt lat="54.439824996516109" lon="11.098927007988095">
        <ele>-6.59</ele>
        <time>2019-05-08T10:03:18Z</time>
      </trkpt>
      <trkpt lat="54.439791971817613" lon="11.098828017711639">
        <ele>-6.59</ele>
        <time>2019-05-08T10:03:19Z</time>
      </trkpt>
      <trkpt lat="54.439733969047666" lon="11.098792981356382">
        <ele>-7.07</ele>
        <time>2019-05-08T10:03:20Z</time>
      </trkpt>
      <trkpt lat="54.439664985984564" lon="11.098750988021493">
        <ele>-7.07</ele>
        <time>2019-05-08T10:03:21Z</time>
      </trkpt>
      <trkpt lat="54.439582005143166" lon="11.098701031878591">
        <ele>-7.07</ele>
        <time>2019-05-08T10:03:22Z</time>
      </trkpt>
      <trkpt lat="54.439198030158877" lon="11.098482012748718">
        <ele>-7.55</ele>
        <time>2019-05-08T10:03:26Z</time>
      </trkpt>
      <trkpt lat="54.439104991033673" lon="11.098466003313661">
        <ele>-7.55</ele>
        <time>2019-05-08T10:03:27Z</time>
      </trkpt>
      <trkpt lat="54.438875997439027" lon="11.098427027463913">
        <ele>-8.51</ele>
        <time>2019-05-08T10:03:33Z</time>
      </trkpt>
      <trkpt lat="54.438848001882434" lon="11.09842199832201">
        <ele>-8.029999999999999</ele>
        <time>2019-05-08T10:03:46Z</time>
      </trkpt>
      <trkpt lat="54.438764015212655" lon="11.098408000543714">
        <ele>-7.07</ele>
        <time>2019-05-08T10:03:57Z</time>
      </trkpt>
      <trkpt lat="54.438764015212655" lon="11.098408000543714">
        <ele>-7.07</ele>
        <time>2019-05-08T10:04:05Z</time>
      </trkpt>
      <trkpt lat="54.438963001593947" lon="11.09844203107059">
        <ele>-7.07</ele>
        <time>2019-05-08T10:04:11Z</time>
      </trkpt>
      <trkpt lat="54.43905302323401" lon="11.098457034677267">
        <ele>-7.07</ele>
        <time>2019-05-08T10:04:12Z</time>
      </trkpt>
      <trkpt lat="54.439155030995607" lon="11.098473966121674">
        <ele>-7.07</ele>
        <time>2019-05-08T10:04:13Z</time>
      </trkpt>
      <trkpt lat="54.439770011231303" lon="11.098814019933343">
        <ele>-6.59</ele>
        <time>2019-05-08T10:04:20Z</time>
      </trkpt>
      <trkpt lat="54.43982700817287" lon="11.098907981067896">
        <ele>-6.59</ele>
        <time>2019-05-08T10:04:21Z</time>
      </trkpt>
      <trkpt lat="54.439821979030967" lon="11.098972018808126">
        <ele>-6.11</ele>
        <time>2019-05-08T10:04:22Z</time>
      </trkpt>
      <trkpt lat="54.439816027879715" lon="11.099037984386086">
        <ele>-5.63</ele>
        <time>2019-05-08T10:04:23Z</time>
      </trkpt>
      <trkpt lat="54.43980697542429" lon="11.099123982712626">
        <ele>-5.63</ele>
        <time>2019-05-08T10:04:24Z</time>
      </trkpt>
      <trkpt lat="54.439789038151503" lon="11.099214004352689">
        <ele>-5.15</ele>
        <time>2019-05-08T10:04:25Z</time>
      </trkpt>
      <trkpt lat="54.439766993746161" lon="11.099323974922299">
        <ele>-5.15</ele>
        <time>2019-05-08T10:04:26Z</time>
      </trkpt>
      <trkpt lat="54.439766993746161" lon="11.099451966583729">
        <ele>-5.15</ele>
        <time>2019-05-08T10:04:27Z</time>
      </trkpt>
      <trkpt lat="54.439733969047666" lon="11.10089398920536">
        <ele>-3.23</ele>
        <time>2019-05-08T10:04:34Z</time>
      </trkpt>
      <trkpt lat="54.439650988206267" lon="11.103416020050645">
        <ele>-1.3</ele>
        <time>2019-05-08T10:04:44Z</time>
      </trkpt>
      <trkpt lat="54.439615029841661" lon="11.104506002739072">
        <ele>0.62</ele>
        <time>2019-05-08T10:04:49Z</time>
      </trkpt>
      <trkpt lat="54.439606983214617" lon="11.104699959978461">
        <ele>1.1</ele>
        <time>2019-05-08T10:04:50Z</time>
      </trkpt>
      <trkpt lat="54.439599020406604" lon="11.104873968288302">
        <ele>1.58</ele>
        <time>2019-05-08T10:04:51Z</time>
      </trkpt>
      <trkpt lat="54.43954898044467" lon="11.105036996304989">
        <ele>1.58</ele>
        <time>2019-05-08T10:04:52Z</time>
      </trkpt>
      <trkpt lat="54.439478991553187" lon="11.105143027380109">
        <ele>1.58</ele>
        <time>2019-05-08T10:04:53Z</time>
      </trkpt>
      <trkpt lat="54.439404979348183" lon="11.105257021263242">
        <ele>2.06</ele>
        <time>2019-05-08T10:04:54Z</time>
      </trkpt>
      <trkpt lat="54.438848001882434" lon="11.106268968433142">
        <ele>1.58</ele>
        <time>2019-05-08T10:05:03Z</time>
      </trkpt>
      <trkpt lat="54.438821012154222" lon="11.106367036700249">
        <ele>1.58</ele>
        <time>2019-05-08T10:05:04Z</time>
      </trkpt>
      <trkpt lat="54.438810031861067" lon="11.106496034190059">
        <ele>1.58</ele>
        <time>2019-05-08T10:05:05Z</time>
      </trkpt>
      <trkpt lat="54.438805002719164" lon="11.106626037508249">
        <ele>1.58</ele>
        <time>2019-05-08T10:05:06Z</time>
      </trkpt>
      <trkpt lat="54.438824029639363" lon="11.106781018897891">
        <ele>1.58</ele>
        <time>2019-05-08T10:05:07Z</time>
      </trkpt>
      <trkpt lat="54.438844984397292" lon="11.106946980580688">
        <ele>1.58</ele>
        <time>2019-05-08T10:05:08Z</time>
      </trkpt>
      <trkpt lat="54.439037013798952" lon="11.108608022332191">
        <ele>2.06</ele>
        <time>2019-05-08T10:05:16Z</time>
      </trkpt>
      <trkpt lat="54.439245974645019" lon="11.11045103520155">
        <ele>2.06</ele>
        <time>2019-05-08T10:05:26Z</time>
      </trkpt>
      <trkpt lat="54.439352005720139" lon="11.111388970166445">
        <ele>2.54</ele>
        <time>2019-05-08T10:05:31Z</time>
      </trkpt>
      <trkpt lat="54.439364997670054" lon="11.111498018726707">
        <ele>2.54</ele>
        <time>2019-05-08T10:05:32Z</time>
      </trkpt>
      <trkpt lat="54.439374972134829" lon="11.111591979861259">
        <ele>2.54</ele>
        <time>2019-05-08T10:05:33Z</time>
      </trkpt>
      <trkpt lat="54.439363991841674" lon="11.111649982631207">
        <ele>2.54</ele>
        <time>2019-05-08T10:05:34Z</time>
      </trkpt>
      <trkpt lat="54.439314035698771" lon="11.111676972359419">
        <ele>3.02</ele>
        <time>2019-05-08T10:05:35Z</time>
      </trkpt>
      <trkpt lat="54.439249997958541" lon="11.111712008714676">
        <ele>3.02</ele>
        <time>2019-05-08T10:05:36Z</time>
      </trkpt>
      <trkpt lat="54.439171040430665" lon="11.111755007877946">
        <ele>3.02</ele>
        <time>2019-05-08T10:05:37Z</time>
      </trkpt>
      <trkpt lat="54.439071966335177" lon="11.11180798150599">
        <ele>3.02</ele>
        <time>2019-05-08T10:05:38Z</time>
      </trkpt>
      <trkpt lat="54.438956966623664" lon="11.11187101341784">
        <ele>3.02</ele>
        <time>2019-05-08T10:05:39Z</time>
      </trkpt>
      <trkpt lat="54.437861032783985" lon="11.112254988402128">
        <ele>1.58</ele>
        <time>2019-05-08T10:05:47Z</time>
      </trkpt>
      <trkpt lat="54.437757013365626" lon="11.112289018929005">
        <ele>1.1</ele>
        <time>2019-05-08T10:05:48Z</time>
      </trkpt>
      <trkpt lat="54.437673026695848" lon="11.112350961193442">
        <ele>1.1</ele>
        <time>2019-05-08T10:05:49Z</time>
      </trkpt>
      <trkpt lat="54.437617035582662" lon="11.112426985055208">
        <ele>1.1</ele>
        <time>2019-05-08T10:05:50Z</time>
      </trkpt>
      <trkpt lat="54.437587028369308" lon="11.112556988373399">
        <ele>1.1</ele>
        <time>2019-05-08T10:05:51Z</time>
      </trkpt>
      <trkpt lat="54.437601026147604" lon="11.112681962549686">
        <ele>0.62</ele>
        <time>2019-05-08T10:05:52Z</time>
      </trkpt>
      <trkpt lat="54.437618041411042" lon="11.11283702775836">
        <ele>0.62</ele>
        <time>2019-05-08T10:05:53Z</time>
      </trkpt>
      <trkpt lat="54.43763799034059" lon="11.113021010532975">
        <ele>1.1</ele>
        <time>2019-05-08T10:05:54Z</time>
      </trkpt>
      <trkpt lat="54.437833959236741" lon="11.114791017025709">
        <ele>2.54</ele>
        <time>2019-05-08T10:06:01Z</time>
      </trkpt>
      <trkpt lat="54.437963962554932" lon="11.115968003869057">
        <ele>3.98</ele>
        <time>2019-05-08T10:06:07Z</time>
      </trkpt>
      <trkpt lat="54.437978966161609" lon="11.116100018844008">
        <ele>3.98</ele>
        <time>2019-05-08T10:06:08Z</time>
      </trkpt>
      <trkpt lat="54.437990030273795" lon="11.116205966100097">
        <ele>3.98</ele>
        <time>2019-05-08T10:06:09Z</time>
      </trkpt>
      <trkpt lat="54.437963040545583" lon="11.116377040743828">
        <ele>4.46</ele>
        <time>2019-05-08T10:06:10Z</time>
      </trkpt>
      <trkpt lat="54.437911994755268" lon="11.116393972188234">
        <ele>4.46</ele>
        <time>2019-05-08T10:06:11Z</time>
      </trkpt>
      <trkpt lat="54.437843011692166" lon="11.116418028250337">
        <ele>4.46</ele>
        <time>2019-05-08T10:06:12Z</time>
      </trkpt>
      <trkpt lat="54.437755001708865" lon="11.11644702963531">
        <ele>4.46</ele>
        <time>2019-05-08T10:06:13Z</time>
      </trkpt>
      <trkpt lat="54.437653999775648" lon="11.116481982171535">
        <ele>3.98</ele>
        <time>2019-05-08T10:06:14Z</time>
      </trkpt>
      <trkpt lat="54.436634005978703" lon="11.116784987971187">
        <ele>4.46</ele>
        <time>2019-05-08T10:06:21Z</time>
      </trkpt>
      <trkpt lat="54.435729011893272" lon="11.11698498018086">
        <ele>3.02</ele>
        <time>2019-05-08T10:06:26Z</time>
      </trkpt>
      <trkpt lat="54.435596996918321" lon="11.117013981565833">
        <ele>2.54</ele>
        <time>2019-05-08T10:06:27Z</time>
      </trkpt>
      <trkpt lat="54.435491971671581" lon="11.116979029029608">
        <ele>2.54</ele>
        <time>2019-05-08T10:06:28Z</time>
      </trkpt>
      <trkpt lat="54.435395998880267" lon="11.116882972419262">
        <ele>2.06</ele>
        <time>2019-05-08T10:06:29Z</time>
      </trkpt>
      <trkpt lat="54.435312012210488" lon="11.116732014343143">
        <ele>2.06</ele>
        <time>2019-05-08T10:06:30Z</time>
      </trkpt>
      <trkpt lat="54.435215033590794" lon="11.116551971063018">
        <ele>1.58</ele>
        <time>2019-05-08T10:06:31Z</time>
      </trkpt>
      <trkpt lat="54.435106990858912" lon="11.116352984681726">
        <ele>1.58</ele>
        <time>2019-05-08T10:06:32Z</time>
      </trkpt>
      <trkpt lat="54.43479803390801" lon="11.115776980295777">
        <ele>0.62</ele>
        <time>2019-05-08T10:06:35Z</time>
      </trkpt>
      <trkpt lat="54.434696026146412" lon="11.11569500528276">
        <ele>0.62</ele>
        <time>2019-05-08T10:06:36Z</time>
      </trkpt>
      <trkpt lat="54.434639029204845" lon="11.115654017776251">
        <ele>0.14</ele>
        <time>2019-05-08T10:06:37Z</time>
      </trkpt>
      <trkpt lat="54.434537021443248" lon="11.11567597836256">
        <ele>0.14</ele>
        <time>2019-05-08T10:06:38Z</time>
      </trkpt>
      <trkpt lat="54.434437025338411" lon="11.115698022767901">
        <ele>-0.34</ele>
        <time>2019-05-08T10:06:39Z</time>
      </trkpt>
      <trkpt lat="54.434319008141756" lon="11.115723000839353">
        <ele>-0.34</ele>
        <time>2019-05-08T10:06:40Z</time>
      </trkpt>
      <trkpt lat="54.432977987453341" lon="11.11601603217423">
        <ele>-1.3</ele>
        <time>2019-05-08T10:06:49Z</time>
      </trkpt>
      <trkpt lat="54.430631976574659" lon="11.116526992991567">
        <ele>-1.3</ele>
        <time>2019-05-08T10:07:03Z</time>
      </trkpt>
      <trkpt lat="54.430458974093199" lon="11.116636963561177">
        <ele>-0.82</ele>
        <time>2019-05-08T10:07:04Z</time>
      </trkpt>
      <trkpt lat="54.428576985374093" lon="11.117884023115039">
        <ele>3.02</ele>
        <time>2019-05-08T10:07:14Z</time>
      </trkpt>
      <trkpt lat="54.426573039963841" lon="11.118638981133699">
        <ele>4.46</ele>
        <time>2019-05-08T10:07:24Z</time>
      </trkpt>
      <trkpt lat="54.426069036126137" lon="11.118830004706979">
        <ele>4.94</ele>
        <time>2019-05-08T10:07:29Z</time>
      </trkpt>
      <trkpt lat="54.425517003983259" lon="11.118979034945369">
        <ele>3.98</ele>
        <time>2019-05-08T10:07:35Z</time>
      </trkpt>
      <trkpt lat="54.42425100132823" lon="11.119307018816471">
        <ele>1.58</ele>
        <time>2019-05-08T10:07:43Z</time>
      </trkpt>
      <trkpt lat="54.421893004328012" lon="11.119569959118962">
        <ele>0.14</ele>
        <time>2019-05-08T10:07:56Z</time>
      </trkpt>
      <trkpt lat="54.420714005827904" lon="11.119365021586418">
        <ele>0.14</ele>
        <time>2019-05-08T10:08:03Z</time>
      </trkpt>
      <trkpt lat="54.41976198926568" lon="11.119173998013139">
        <ele>1.1</ele>
        <time>2019-05-08T10:08:11Z</time>
      </trkpt>
      <trkpt lat="54.41935102455318" lon="11.119076013565063">
        <ele>1.1</ele>
        <time>2019-05-08T10:08:15Z</time>
      </trkpt>
      <trkpt lat="54.419272989034653" lon="11.118992026895285">
        <ele>1.1</ele>
        <time>2019-05-08T10:08:16Z</time>
      </trkpt>
      <trkpt lat="54.419192019850016" lon="11.118903011083603">
        <ele>0.62</ele>
        <time>2019-05-08T10:08:17Z</time>
      </trkpt>
      <trkpt lat="54.419002002105117" lon="11.118755992501974">
        <ele>0.62</ele>
        <time>2019-05-08T10:08:19Z</time>
      </trkpt>
      <trkpt lat="54.418896976858377" lon="11.118692038580775">
        <ele>0.62</ele>
        <time>2019-05-08T10:08:20Z</time>
      </trkpt>
      <trkpt lat="54.417734993621707" lon="11.117989970371127">
        <ele>1.58</ele>
        <time>2019-05-08T10:08:31Z</time>
      </trkpt>
      <trkpt lat="54.417620999738574" lon="11.117920987308025">
        <ele>2.06</ele>
        <time>2019-05-08T10:08:33Z</time>
      </trkpt>
      <trkpt lat="54.41743902862072" lon="11.117811016738415">
        <ele>3.02</ele>
        <time>2019-05-08T10:08:36Z</time>
      </trkpt>
      <trkpt lat="54.416623972356319" lon="11.117344982922077">
        <ele>4.94</ele>
        <time>2019-05-08T10:08:46Z</time>
      </trkpt>
      <trkpt lat="54.416520036756992" lon="11.117297960445285">
        <ele>4.46</ele>
        <time>2019-05-08T10:08:47Z</time>
      </trkpt>
      <trkpt lat="54.416017038747668" lon="11.11715697683394">
        <ele>3.5</ele>
        <time>2019-05-08T10:08:52Z</time>
      </trkpt>
      <trkpt lat="54.415947971865535" lon="11.11704901792109">
        <ele>3.02</ele>
        <time>2019-05-08T10:08:53Z</time>
      </trkpt>
      <trkpt lat="54.415888041257858" lon="11.116952039301395">
        <ele>2.54</ele>
        <time>2019-05-08T10:08:54Z</time>
      </trkpt>
      <trkpt lat="54.415831966325641" lon="11.116862017661333">
        <ele>2.54</ele>
        <time>2019-05-08T10:08:55Z</time>
      </trkpt>
      <trkpt lat="54.415779998525977" lon="11.116777025163174">
        <ele>2.06</ele>
        <time>2019-05-08T10:08:56Z</time>
      </trkpt>
      <trkpt lat="54.415562991052866" lon="11.11642599105835">
        <ele>1.58</ele>
        <time>2019-05-08T10:09:01Z</time>
      </trkpt>
      <trkpt lat="54.415569026023149" lon="11.11627503298223">
        <ele>1.58</ele>
        <time>2019-05-08T10:09:02Z</time>
      </trkpt>
      <trkpt lat="54.41557296551764" lon="11.116157015785575">
        <ele>1.58</ele>
        <time>2019-05-08T10:09:03Z</time>
      </trkpt>
      <trkpt lat="54.415579000487924" lon="11.11601603217423">
        <ele>1.58</ele>
        <time>2019-05-08T10:09:04Z</time>
      </trkpt>
      <trkpt lat="54.415585035458207" lon="11.115856021642685">
        <ele>1.58</ele>
        <time>2019-05-08T10:09:05Z</time>
      </trkpt>
      <trkpt lat="54.415659969672561" lon="11.11391301266849">
        <ele>0.14</ele>
        <time>2019-05-08T10:09:15Z</time>
      </trkpt>
      <trkpt lat="54.415523009374738" lon="11.111751990392804">
        <ele>0.62</ele>
        <time>2019-05-08T10:09:25Z</time>
      </trkpt>
      <trkpt lat="54.415156971663237" lon="11.1088200006634">
        <ele>1.58</ele>
        <time>2019-05-08T10:09:38Z</time>
      </trkpt>
      <trkpt lat="54.414761010557413" lon="11.106463009491563">
        <ele>0.14</ele>
        <time>2019-05-08T10:09:47Z</time>
      </trkpt>
      <trkpt lat="54.414439983665943" lon="11.10519097186625">
        <ele>0.14</ele>
        <time>2019-05-08T10:09:54Z</time>
      </trkpt>
      <trkpt lat="54.414381980895996" lon="11.105060968548059">
        <ele>0.14</ele>
        <time>2019-05-08T10:09:55Z</time>
      </trkpt>
      <trkpt lat="54.414307968690991" lon="11.104943035170436">
        <ele>0.14</ele>
        <time>2019-05-08T10:09:56Z</time>
      </trkpt>
      <trkpt lat="54.413714027032256" lon="11.103988001123071">
        <ele>0.14</ele>
        <time>2019-05-08T10:10:05Z</time>
      </trkpt>
      <trkpt lat="54.413673961535096" lon="11.10383695922792">
        <ele>0.14</ele>
        <time>2019-05-08T10:10:06Z</time>
      </trkpt>
      <trkpt lat="54.413644960150123" lon="11.103681977838278">
        <ele>0.14</ele>
        <time>2019-05-08T10:10:07Z</time>
      </trkpt>
      <trkpt lat="54.413411021232605" lon="11.102413963526487">
        <ele>-0.34</ele>
        <time>2019-05-08T10:10:16Z</time>
      </trkpt>
      <trkpt lat="54.413396017625928" lon="11.102327965199947">
        <ele>-0.34</ele>
        <time>2019-05-08T10:10:17Z</time>
      </trkpt>
      <trkpt lat="54.413355030119419" lon="11.102308016270399">
        <ele>-0.34</ele>
        <time>2019-05-08T10:10:18Z</time>
      </trkpt>
      <trkpt lat="54.413300966843963" lon="11.102281026542187">
        <ele>-0.34</ele>
        <time>2019-05-08T10:10:19Z</time>
      </trkpt>
      <trkpt lat="54.413239024579525" lon="11.102250013500452">
        <ele>-0.82</ele>
        <time>2019-05-08T10:10:20Z</time>
      </trkpt>
      <trkpt lat="54.413161994889379" lon="11.102221012115479">
        <ele>-0.82</ele>
        <time>2019-05-08T10:10:21Z</time>
      </trkpt>
      <trkpt lat="54.413093011826277" lon="11.102219000458717">
        <ele>-1.3</ele>
        <time>2019-05-08T10:10:22Z</time>
      </trkpt>
      <trkpt lat="54.413023022934794" lon="11.102216988801956">
        <ele>-1.3</ele>
        <time>2019-05-08T10:10:23Z</time>
      </trkpt>
      <trkpt lat="54.41295001655817" lon="11.102215982973576">
        <ele>-1.79</ele>
        <time>2019-05-08T10:10:24Z</time>
      </trkpt>
      <trkpt lat="54.412876004353166" lon="11.102213971316814">
        <ele>-1.79</ele>
        <time>2019-05-08T10:10:25Z</time>
      </trkpt>
      <trkpt lat="54.412804003804922" lon="11.102211959660053">
        <ele>-2.27</ele>
        <time>2019-05-08T10:10:26Z</time>
      </trkpt>
      <trkpt lat="54.412652961909771" lon="11.102209025993943">
        <ele>-3.23</ele>
        <time>2019-05-08T10:10:28Z</time>
      </trkpt>
      <trkpt lat="54.412350039929152" lon="11.102200979366899">
        <ele>-3.71</ele>
        <time>2019-05-08T10:10:32Z</time>
      </trkpt>
      <trkpt lat="54.412279967218637" lon="11.102199973538518">
        <ele>-3.71</ele>
        <time>2019-05-08T10:10:33Z</time>
      </trkpt>
      <trkpt lat="54.412216013297439" lon="11.102152029052377">
        <ele>-4.19</ele>
        <time>2019-05-08T10:10:34Z</time>
      </trkpt>
      <trkpt lat="54.412167984992266" lon="11.102036023512483">
        <ele>-4.19</ele>
        <time>2019-05-08T10:10:35Z</time>
      </trkpt>
      <trkpt lat="54.412136971950531" lon="11.101920017972589">
        <ele>-3.71</ele>
        <time>2019-05-08T10:10:36Z</time>
      </trkpt>
      <trkpt lat="54.412106964737177" lon="11.101803006604314">
        <ele>-3.71</ele>
        <time>2019-05-08T10:10:37Z</time>
      </trkpt>
      <trkpt lat="54.411899009719491" lon="11.100491993129253">
        <ele>-2.75</ele>
        <time>2019-05-08T10:10:47Z</time>
      </trkpt>
      <trkpt lat="54.411848969757557" lon="11.099522961303592">
        <ele>-3.23</ele>
        <time>2019-05-08T10:10:54Z</time>
      </trkpt>
      <trkpt lat="54.411808988079429" lon="11.098661972209811">
        <ele>-3.23</ele>
        <time>2019-05-08T10:11:04Z</time>
      </trkpt>
      <trkpt lat="54.411804964765906" lon="11.098587960004807">
        <ele>-3.71</ele>
        <time>2019-05-08T10:11:06Z</time>
      </trkpt>
      <trkpt lat="54.411804964765906" lon="11.098587960004807">
        <ele>-3.23</ele>
        <time>2019-05-08T10:11:12Z</time>
      </trkpt>
      <trkpt lat="54.411799013614655" lon="11.098642023280263">
        <ele>-3.23</ele>
        <time>2019-05-08T10:11:13Z</time>
      </trkpt>
      <trkpt lat="54.411807982251048" lon="11.098645962774754">
        <ele>-3.23</ele>
        <time>2019-05-08T10:11:14Z</time>
      </trkpt>
      <trkpt lat="54.411842012777925" lon="11.099366974085569">
        <ele>-3.71</ele>
        <time>2019-05-08T10:11:20Z</time>
      </trkpt>
      <trkpt lat="54.411850981414318" lon="11.099564032629132">
        <ele>-3.71</ele>
        <time>2019-05-08T10:11:21Z</time>
      </trkpt>
      <trkpt lat="54.412008980289102" lon="11.101372009143233">
        <ele>-5.15</ele>
        <time>2019-05-08T10:11:29Z</time>
      </trkpt>
      <trkpt lat="54.412166979163885" lon="11.10203200019896">
        <ele>-5.15</ele>
        <time>2019-05-08T10:11:33Z</time>
      </trkpt>
      <trkpt lat="54.412227999418974" lon="11.10216099768877">
        <ele>-5.15</ele>
        <time>2019-05-08T10:11:34Z</time>
      </trkpt>
      <trkpt lat="54.412279967218637" lon="11.102199973538518">
        <ele>-5.15</ele>
        <time>2019-05-08T10:11:35Z</time>
      </trkpt>
      <trkpt lat="54.412417011335492" lon="11.10220299102366">
        <ele>-5.63</ele>
        <time>2019-05-08T10:11:36Z</time>
      </trkpt>
      <trkpt lat="54.412537040188909" lon="11.102206008508801">
        <ele>-5.15</ele>
        <time>2019-05-08T10:11:37Z</time>
      </trkpt>
      <trkpt lat="54.412667965516448" lon="11.102209025993943">
        <ele>-4.67</ele>
        <time>2019-05-08T10:11:38Z</time>
      </trkpt>
      <trkpt lat="54.413265008479357" lon="11.102263005450368">
        <ele>-3.71</ele>
        <time>2019-05-08T10:11:43Z</time>
      </trkpt>
      <trkpt lat="54.413352012634277" lon="11.102307010442019">
        <ele>-3.71</ele>
        <time>2019-05-08T10:11:44Z</time>
      </trkpt>
      <trkpt lat="54.413408003747463" lon="11.1023960262537">
        <ele>-3.71</ele>
        <time>2019-05-08T10:11:45Z</time>
      </trkpt>
      <trkpt lat="54.413432981818914" lon="11.102530974894762">
        <ele>-3.71</ele>
        <time>2019-05-08T10:11:46Z</time>
      </trkpt>
      <trkpt lat="54.413459971547127" lon="11.102678999304771">
        <ele>-3.71</ele>
        <time>2019-05-08T10:11:47Z</time>
      </trkpt>
      <trkpt lat="54.4134889729321" lon="11.102838004007936">
        <ele>-3.23</ele>
        <time>2019-05-08T10:11:48Z</time>
      </trkpt>
      <trkpt lat="54.413610007613897" lon="11.10349296592176">
        <ele>-2.75</ele>
        <time>2019-05-08T10:11:52Z</time>
      </trkpt>
      <trkpt lat="54.413633979856968" lon="11.103623975068331">
        <ele>-2.27</ele>
        <time>2019-05-08T10:11:57Z</time>
      </trkpt>
      <trkpt lat="54.413633979856968" lon="11.103623975068331">
        <ele>-2.27</ele>
        <time>2019-05-08T10:12:37Z</time>
      </trkpt>
      <trkpt lat="54.413646971806884" lon="11.103691030293703">
        <ele>-1.3</ele>
        <time>2019-05-08T10:12:51Z</time>
      </trkpt>
      <trkpt lat="54.413662981241941" lon="11.103779962286353">
        <ele>-1.3</ele>
        <time>2019-05-08T10:12:52Z</time>
      </trkpt>
      <trkpt lat="54.413687037304044" lon="11.103909965604544">
        <ele>-1.3</ele>
        <time>2019-05-08T10:12:53Z</time>
      </trkpt>
      <trkpt lat="54.413745040073991" lon="11.104038041085005">
        <ele>-1.3</ele>
        <time>2019-05-08T10:12:54Z</time>
      </trkpt>
      <trkpt lat="54.413828020915389" lon="11.104170978069305">
        <ele>-1.3</ele>
        <time>2019-05-08T10:12:55Z</time>
      </trkpt>
      <trkpt lat="54.413921982049942" lon="11.104322019964457">
        <ele>-1.79</ele>
        <time>2019-05-08T10:12:56Z</time>
      </trkpt>
      <trkpt lat="54.414354991167784" lon="11.105017969384789">
        <ele>-1.79</ele>
        <time>2019-05-08T10:13:00Z</time>
      </trkpt>
      <trkpt lat="54.414443001151085" lon="11.105201030150056">
        <ele>-1.79</ele>
        <time>2019-05-08T10:13:01Z</time>
      </trkpt>
      <trkpt lat="54.414521036669612" lon="11.105407979339361">
        <ele>-1.3</ele>
        <time>2019-05-08T10:13:02Z</time>
      </trkpt>
      <trkpt lat="54.41460401751101" lon="11.105646025389433">
        <ele>-1.3</ele>
        <time>2019-05-08T10:13:03Z</time>
      </trkpt>
      <trkpt lat="54.414656991139054" lon="11.105922041460872">
        <ele>-1.3</ele>
        <time>2019-05-08T10:13:04Z</time>
      </trkpt>
      <trkpt lat="54.414713988080621" lon="11.106219012290239">
        <ele>-1.3</ele>
        <time>2019-05-08T10:13:05Z</time>
      </trkpt>
      <trkpt lat="54.415242969989777" lon="11.109512010589242">
        <ele>0.62</ele>
        <time>2019-05-08T10:13:15Z</time>
      </trkpt>
      <trkpt lat="54.415595009922981" lon="11.112332018092275">
        <ele>1.1</ele>
        <time>2019-05-08T10:13:24Z</time>
      </trkpt>
      <trkpt lat="54.415637003257871" lon="11.114499997347593">
        <ele>1.1</ele>
        <time>2019-05-08T10:13:32Z</time>
      </trkpt>
      <trkpt lat="54.415581012144685" lon="11.115944031625986">
        <ele>3.02</ele>
        <time>2019-05-08T10:13:38Z</time>
      </trkpt>
      <trkpt lat="54.415569026023149" lon="11.116262041032314">
        <ele>3.5</ele>
        <time>2019-05-08T10:13:40Z</time>
      </trkpt>
      <trkpt lat="54.415580006316304" lon="11.116453986614943">
        <ele>3.98</ele>
        <time>2019-05-08T10:13:41Z</time>
      </trkpt>
      <trkpt lat="54.415647983551025" lon="11.116563035175204">
        <ele>3.98</ele>
        <time>2019-05-08T10:13:42Z</time>
      </trkpt>
      <trkpt lat="54.41589399240911" lon="11.11696201376617">
        <ele>4.94</ele>
        <time>2019-05-08T10:13:45Z</time>
      </trkpt>
      <trkpt lat="54.415974039584398" lon="11.11709101125598">
        <ele>4.94</ele>
        <time>2019-05-08T10:13:46Z</time>
      </trkpt>
      <trkpt lat="54.416078981012106" lon="11.117173992097378">
        <ele>5.42</ele>
        <time>2019-05-08T10:13:47Z</time>
      </trkpt>
      <trkpt lat="54.416184006258845" lon="11.117202993482351">
        <ele>5.42</ele>
        <time>2019-05-08T10:13:48Z</time>
      </trkpt>
      <trkpt lat="54.416290037333965" lon="11.117233000695705">
        <ele>5.91</ele>
        <time>2019-05-08T10:13:49Z</time>
      </trkpt>
      <trkpt lat="54.417391000315547" lon="11.117782015353441">
        <ele>9.75</ele>
        <time>2019-05-08T10:13:59Z</time>
      </trkpt>
      <trkpt lat="54.419026980176568" lon="11.118769990280271">
        <ele>8.310000000000001</ele>
        <time>2019-05-08T10:14:13Z</time>
      </trkpt>
      <trkpt lat="54.419129993766546" lon="11.118835033848882">
        <ele>8.310000000000001</ele>
        <time>2019-05-08T10:14:14Z</time>
      </trkpt>
      <trkpt lat="54.419224038720131" lon="11.118937041610479">
        <ele>8.310000000000001</ele>
        <time>2019-05-08T10:14:15Z</time>
      </trkpt>
      <trkpt lat="54.419314982369542" lon="11.119037037715316">
        <ele>8.310000000000001</ele>
        <time>2019-05-08T10:14:16Z</time>
      </trkpt>
      <trkpt lat="54.419407015666366" lon="11.119096968322992">
        <ele>7.83</ele>
        <time>2019-05-08T10:14:17Z</time>
      </trkpt>
      <trkpt lat="54.419518997892737" lon="11.119121024385095">
        <ele>7.83</ele>
        <time>2019-05-08T10:14:18Z</time>
      </trkpt>
      <trkpt lat="54.419645983725786" lon="11.119149019941688">
        <ele>7.35</ele>
        <time>2019-05-08T10:14:19Z</time>
      </trkpt>
      <trkpt lat="54.420720040798187" lon="11.119366027414799">
        <ele>6.39</ele>
        <time>2019-05-08T10:14:25Z</time>
      </trkpt>
      <trkpt lat="54.422514019533992" lon="11.119515979662538">
        <ele>5.91</ele>
        <time>2019-05-08T10:14:33Z</time>
      </trkpt>
      <trkpt lat="54.425335032865405" lon="11.119025973603129">
        <ele>5.42</ele>
        <time>2019-05-08T10:14:46Z</time>
      </trkpt>
      <trkpt lat="54.425899973139167" lon="11.118879960849881">
        <ele>5.91</ele>
        <time>2019-05-08T10:14:52Z</time>
      </trkpt>
      <trkpt lat="54.425950013101101" lon="11.118866968899965">
        <ele>5.91</ele>
        <time>2019-05-08T10:14:53Z</time>
      </trkpt>
      <trkpt lat="54.42601497285068" lon="11.118908040225506">
        <ele>5.91</ele>
        <time>2019-05-08T10:14:54Z</time>
      </trkpt>
      <trkpt lat="54.426018996164203" lon="11.118999989703298">
        <ele>5.91</ele>
        <time>2019-05-08T10:14:55Z</time>
      </trkpt>
      <trkpt lat="54.426024025306106" lon="11.11913301050663">
        <ele>5.91</ele>
        <time>2019-05-08T10:14:56Z</time>
      </trkpt>
      <trkpt lat="54.426030982285738" lon="11.119307018816471">
        <ele>5.91</ele>
        <time>2019-05-08T10:14:57Z</time>
      </trkpt>
      <trkpt lat="54.426039028912783" lon="11.119515979662538">
        <ele>5.42</ele>
        <time>2019-05-08T10:14:58Z</time>
      </trkpt>
      <trkpt lat="54.426110023632646" lon="11.1212810408324">
        <ele>5.91</ele>
        <time>2019-05-08T10:15:04Z</time>
      </trkpt>
      <trkpt lat="54.42629300057888" lon="11.125812968239188">
        <ele>8.310000000000001</ele>
        <time>2019-05-08T10:15:16Z</time>
      </trkpt>
      <trkpt lat="54.426438007503748" lon="11.129431016743183">
        <ele>12.15</ele>
        <time>2019-05-08T10:15:26Z</time>
      </trkpt>
      <trkpt lat="54.426400037482381" lon="11.129685994237661">
        <ele>12.15</ele>
        <time>2019-05-08T10:15:27Z</time>
      </trkpt>
      <trkpt lat="54.426343962550163" lon="11.12991901114583">
        <ele>12.15</ele>
        <time>2019-05-08T10:15:28Z</time>
      </trkpt>
      <trkpt lat="54.426114968955517" lon="11.130859041586518">
        <ele>11.19</ele>
        <time>2019-05-08T10:15:32Z</time>
      </trkpt>
      <trkpt lat="54.426065012812614" lon="11.131062973290682">
        <ele>11.19</ele>
        <time>2019-05-08T10:15:33Z</time>
      </trkpt>
      <trkpt lat="54.426027964800596" lon="11.131245028227568">
        <ele>11.67</ele>
        <time>2019-05-08T10:15:34Z</time>
      </trkpt>
      <trkpt lat="54.426007010042667" lon="11.131421970203519">
        <ele>11.67</ele>
        <time>2019-05-08T10:15:35Z</time>
      </trkpt>
      <trkpt lat="54.426010027527809" lon="11.131613999605179">
        <ele>11.67</ele>
        <time>2019-05-08T10:15:36Z</time>
      </trkpt>
      <trkpt lat="54.426061995327473" lon="11.131776021793485">
        <ele>11.67</ele>
        <time>2019-05-08T10:15:37Z</time>
      </trkpt>
      <trkpt lat="54.426113963127136" lon="11.131940977647901">
        <ele>11.19</ele>
        <time>2019-05-08T10:15:38Z</time>
      </trkpt>
      <trkpt lat="54.426197027787566" lon="11.132077015936375">
        <ele>11.67</ele>
        <time>2019-05-08T10:15:39Z</time>
      </trkpt>
      <trkpt lat="54.426299035549164" lon="11.132196038961411">
        <ele>11.67</ele>
        <time>2019-05-08T10:15:40Z</time>
      </trkpt>
      <trkpt lat="54.426418980583549" lon="11.132293017581105">
        <ele>12.15</ele>
        <time>2019-05-08T10:15:41Z</time>
      </trkpt>
      <trkpt lat="54.427037984132767" lon="11.13279702141881">
        <ele>13.119999999999999</ele>
        <time>2019-05-08T10:15:46Z</time>
      </trkpt>
      <trkpt lat="54.4271519780159" lon="11.132889976724982">
        <ele>13.6</ele>
        <time>2019-05-08T10:15:47Z</time>
      </trkpt>
      <trkpt lat="54.427282987162471" lon="11.132896011695266">
        <ele>13.6</ele>
        <time>2019-05-08T10:15:48Z</time>
      </trkpt>
      <trkpt lat="54.427401004359126" lon="11.132885031402111">
        <ele>13.119999999999999</ele>
        <time>2019-05-08T10:15:49Z</time>
      </trkpt>
      <trkpt lat="54.427518015727401" lon="11.132874973118305">
        <ele>13.119999999999999</ele>
        <time>2019-05-08T10:15:50Z</time>
      </trkpt>
      <trkpt lat="54.427634021267295" lon="11.132864998653531">
        <ele>13.119999999999999</ele>
        <time>2019-05-08T10:15:51Z</time>
      </trkpt>
      <trkpt lat="54.427739968523383" lon="11.132855024188757">
        <ele>13.119999999999999</ele>
        <time>2019-05-08T10:15:52Z</time>
      </trkpt>
      <trkpt lat="54.427828984335065" lon="11.132847983390093">
        <ele>13.119999999999999</ele>
        <time>2019-05-08T10:15:53Z</time>
      </trkpt>
      <trkpt lat="54.427900984883308" lon="11.13284102641046">
        <ele>13.119999999999999</ele>
        <time>2019-05-08T10:15:54Z</time>
      </trkpt>
      <trkpt lat="54.427944989874959" lon="11.132915038615465">
        <ele>13.119999999999999</ele>
        <time>2019-05-08T10:15:55Z</time>
      </trkpt>
      <trkpt lat="54.427985977381468" lon="11.132984021678567">
        <ele>13.6</ele>
        <time>2019-05-08T10:15:56Z</time>
      </trkpt>
      <trkpt lat="54.428029982373118" lon="11.13305602222681">
        <ele>13.6</ele>
        <time>2019-05-08T10:15:57Z</time>
      </trkpt>
      <trkpt lat="54.428039034828544" lon="11.133131040260196">
        <ele>13.6</ele>
        <time>2019-05-08T10:15:58Z</time>
      </trkpt>
      <trkpt lat="54.428048003464937" lon="11.133201029151678">
        <ele>13.6</ele>
        <time>2019-05-08T10:15:59Z</time>
      </trkpt>
      <trkpt lat="54.42798899486661" lon="11.133403033018112">
        <ele>14.08</ele>
        <time>2019-05-08T10:16:00Z</time>
      </trkpt>
      <trkpt lat="54.427948007360101" lon="11.133404038846493">
        <ele>14.08</ele>
        <time>2019-05-08T10:16:01Z</time>
      </trkpt>
      <trkpt lat="54.427888998761773" lon="11.133406972512603">
        <ele>14.08</ele>
        <time>2019-05-08T10:16:02Z</time>
      </trkpt>
      <trkpt lat="54.427813980728388" lon="11.133409989997745">
        <ele>14.08</ele>
        <time>2019-05-08T10:16:03Z</time>
      </trkpt>
      <trkpt lat="54.427725970745087" lon="11.133414013311267">
        <ele>14.08</ele>
        <time>2019-05-08T10:16:04Z</time>
      </trkpt>
      <trkpt lat="54.427501000463963" lon="11.133366990834475">
        <ele>13.6</ele>
        <time>2019-05-08T10:16:06Z</time>
      </trkpt>
      <trkpt lat="54.427383989095688" lon="11.133285015821457">
        <ele>13.6</ele>
        <time>2019-05-08T10:16:07Z</time>
      </trkpt>
      <trkpt lat="54.427252979949117" lon="11.133194994181395">
        <ele>13.6</ele>
        <time>2019-05-08T10:16:08Z</time>
      </trkpt>
      <trkpt lat="54.42627003416419" lon="11.132411034777761">
        <ele>11.67</ele>
        <time>2019-05-08T10:16:14Z</time>
      </trkpt>
      <trkpt lat="54.424643022939563" lon="11.130980998277664">
        <ele>6.87</ele>
        <time>2019-05-08T10:16:22Z</time>
      </trkpt>
      <trkpt lat="54.423581035807729" lon="11.129698986187577">
        <ele>6.39</ele>
        <time>2019-05-08T10:16:29Z</time>
      </trkpt>
      <trkpt lat="54.422499015927315" lon="11.128486962988973">
        <ele>6.39</ele>
        <time>2019-05-08T10:16:34Z</time>
      </trkpt>
      <trkpt lat="54.420989016070962" lon="11.126842014491558">
        <ele>4.94</ele>
        <time>2019-05-08T10:16:40Z</time>
      </trkpt>
      <trkpt lat="54.418755993247032" lon="11.124625001102686">
        <ele>4.46</ele>
        <time>2019-05-08T10:16:50Z</time>
      </trkpt>
      <trkpt lat="54.4166249781847" lon="11.122686015442014">
        <ele>6.39</ele>
        <time>2019-05-08T10:16:59Z</time>
      </trkpt>
      <trkpt lat="54.415287980809808" lon="11.121598966419697">
        <ele>6.87</ele>
        <time>2019-05-08T10:17:05Z</time>
      </trkpt>
      <trkpt lat="54.41409096121788" lon="11.120661031454802">
        <ele>7.83</ele>
        <time>2019-05-08T10:17:12Z</time>
      </trkpt>
      <trkpt lat="54.412958985194564" lon="11.119824014604092">
        <ele>8.789999999999999</ele>
        <time>2019-05-08T10:17:18Z</time>
      </trkpt>
      <trkpt lat="54.411708991974592" lon="11.118985991925001">
        <ele>9.27</ele>
        <time>2019-05-08T10:17:25Z</time>
      </trkpt>
      <trkpt lat="54.410480037331581" lon="11.118160961195827">
        <ele>11.19</ele>
        <time>2019-05-08T10:17:33Z</time>
      </trkpt>
      <trkpt lat="54.40863199532032" lon="11.116952039301395">
        <ele>14.56</ele>
        <time>2019-05-08T10:17:46Z</time>
      </trkpt>
      <trkpt lat="54.407575037330389" lon="11.116248965263367">
        <ele>12.15</ele>
        <time>2019-05-08T10:17:52Z</time>
      </trkpt>
      <trkpt lat="54.40622697584331" lon="11.115390993654728">
        <ele>13.119999999999999</ele>
        <time>2019-05-08T10:18:00Z</time>
      </trkpt>
      <trkpt lat="54.405498001724482" lon="11.114919008687139">
        <ele>14.08</ele>
        <time>2019-05-08T10:18:05Z</time>
      </trkpt>
      <trkpt lat="54.404105013236403" lon="11.114010997116566">
        <ele>16</ele>
        <time>2019-05-08T10:18:16Z</time>
      </trkpt>
      <trkpt lat="54.40278603695333" lon="11.113152019679546">
        <ele>16.960000000000001</ele>
        <time>2019-05-08T10:18:25Z</time>
      </trkpt>
      <trkpt lat="54.401757996529341" lon="11.112481970340014">
        <ele>17.440000000000001</ele>
        <time>2019-05-08T10:18:32Z</time>
      </trkpt>
      <trkpt lat="54.400612022727728" lon="11.111734975129366">
        <ele>18.879999999999999</ele>
        <time>2019-05-08T10:18:37Z</time>
      </trkpt>
      <trkpt lat="54.397880025207996" lon="11.109962034970522">
        <ele>17.440000000000001</ele>
        <time>2019-05-08T10:18:47Z</time>
      </trkpt>
      <trkpt lat="54.3946229852736" lon="11.107802018523216">
        <ele>15.52</ele>
        <time>2019-05-08T10:19:00Z</time>
      </trkpt>
      <trkpt lat="54.391050031408668" lon="11.105155013501644">
        <ele>6.39</ele>
        <time>2019-05-08T10:19:15Z</time>
      </trkpt>
      <trkpt lat="54.38839104026556" lon="11.102685034275055">
        <ele>3.02</ele>
        <time>2019-05-08T10:19:27Z</time>
      </trkpt>
      <trkpt lat="54.385833973065019" lon="11.099561015143991">
        <ele>1.1</ele>
        <time>2019-05-08T10:19:39Z</time>
      </trkpt>
      <trkpt lat="54.383454015478492" lon="11.095954030752182">
        <ele>0.62</ele>
        <time>2019-05-08T10:19:51Z</time>
      </trkpt>
      <trkpt lat="54.381208000704646" lon="11.091683031991124">
        <ele>4.46</ele>
        <time>2019-05-08T10:20:04Z</time>
      </trkpt>
      <trkpt lat="54.380337037146091" lon="11.089796014130116">
        <ele>4.94</ele>
        <time>2019-05-08T10:20:10Z</time>
      </trkpt>
      <trkpt lat="54.380106031894684" lon="11.089037032797933">
        <ele>4.94</ele>
        <time>2019-05-08T10:20:13Z</time>
      </trkpt>
      <trkpt lat="54.380072001367807" lon="11.088832011446357">
        <ele>4.94</ele>
        <time>2019-05-08T10:20:14Z</time>
      </trkpt>
      <trkpt lat="54.380061021074653" lon="11.0886450111866">
        <ele>4.94</ele>
        <time>2019-05-08T10:20:15Z</time>
      </trkpt>
      <trkpt lat="54.380097985267639" lon="11.088433032855392">
        <ele>4.94</ele>
        <time>2019-05-08T10:20:16Z</time>
      </trkpt>
      <trkpt lat="54.380136039108038" lon="11.088220970705152">
        <ele>4.94</ele>
        <time>2019-05-08T10:20:17Z</time>
      </trkpt>
      <trkpt lat="54.380171997472644" lon="11.088028019294143">
        <ele>4.94</ele>
        <time>2019-05-08T10:20:18Z</time>
      </trkpt>
      <trkpt lat="54.38020602799952" lon="11.087859962135553">
        <ele>5.42</ele>
        <time>2019-05-08T10:20:19Z</time>
      </trkpt>
      <trkpt lat="54.380212984979153" lon="11.087717972695827">
        <ele>5.91</ele>
        <time>2019-05-08T10:20:20Z</time>
      </trkpt>
      <trkpt lat="54.380191024392843" lon="11.087577994912863">
        <ele>5.91</ele>
        <time>2019-05-08T10:20:21Z</time>
      </trkpt>
      <trkpt lat="54.380136961117387" lon="11.087462995201349">
        <ele>6.39</ele>
        <time>2019-05-08T10:20:22Z</time>
      </trkpt>
      <trkpt lat="54.380051968619227" lon="11.087386971339583">
        <ele>6.39</ele>
        <time>2019-05-08T10:20:23Z</time>
      </trkpt>
      <trkpt lat="54.37995096668601" lon="11.087303990498185">
        <ele>6.87</ele>
        <time>2019-05-08T10:20:24Z</time>
      </trkpt>
      <trkpt lat="54.379835966974497" lon="11.087265014648437">
        <ele>7.83</ele>
        <time>2019-05-08T10:20:25Z</time>
      </trkpt>
      <trkpt lat="54.379677968099713" lon="11.087290998548269">
        <ele>7.83</ele>
        <time>2019-05-08T10:20:26Z</time>
      </trkpt>
      <trkpt lat="54.379521980881691" lon="11.087316982448101">
        <ele>8.310000000000001</ele>
        <time>2019-05-08T10:20:27Z</time>
      </trkpt>
      <trkpt lat="54.379358030855656" lon="11.087344978004694">
        <ele>8.789999999999999</ele>
        <time>2019-05-08T10:20:28Z</time>
      </trkpt>
      <trkpt lat="54.378868024796247" lon="11.08737900853157">
        <ele>9.27</ele>
        <time>2019-05-08T10:20:31Z</time>
      </trkpt>
      <trkpt lat="54.378725029528141" lon="11.087319999933243">
        <ele>9.27</ele>
        <time>2019-05-08T10:20:32Z</time>
      </trkpt>
      <trkpt lat="54.378582034260035" lon="11.087255040183663">
        <ele>8.789999999999999</ele>
        <time>2019-05-08T10:20:33Z</time>
      </trkpt>
      <trkpt lat="54.378453036770225" lon="11.087111961096525">
        <ele>8.310000000000001</ele>
        <time>2019-05-08T10:20:34Z</time>
      </trkpt>
      <trkpt lat="54.37833895906806" lon="11.086932001635432">
        <ele>7.83</ele>
        <time>2019-05-08T10:20:35Z</time>
      </trkpt>
      <trkpt lat="54.378238040953875" lon="11.086729997768998">
        <ele>7.35</ele>
        <time>2019-05-08T10:20:36Z</time>
      </trkpt>
      <trkpt lat="54.378140978515148" lon="11.086536040529609">
        <ele>6.39</ele>
        <time>2019-05-08T10:20:37Z</time>
      </trkpt>
      <trkpt lat="54.378011981025338" lon="11.086377035826445">
        <ele>5.91</ele>
        <time>2019-05-08T10:20:38Z</time>
      </trkpt>
      <trkpt lat="54.377883989363909" lon="11.086218031123281">
        <ele>5.91</ele>
        <time>2019-05-08T10:20:39Z</time>
      </trkpt>
      <trkpt lat="54.377749040722847" lon="11.086070006713271">
        <ele>5.42</ele>
        <time>2019-05-08T10:20:40Z</time>
      </trkpt>
      <trkpt lat="54.376550009474158" lon="11.085401969030499">
        <ele>5.91</ele>
        <time>2019-05-08T10:20:48Z</time>
      </trkpt>
      <trkpt lat="54.37642402946949" lon="11.085334997624159">
        <ele>5.91</ele>
        <time>2019-05-08T10:20:49Z</time>
      </trkpt>
      <trkpt lat="54.376170979812741" lon="11.085213962942362">
        <ele>5.42</ele>
        <time>2019-05-08T10:20:51Z</time>
      </trkpt>
      <trkpt lat="54.375664964318275" lon="11.085035009309649">
        <ele>3.5</ele>
        <time>2019-05-08T10:20:55Z</time>
      </trkpt>
      <trkpt lat="54.375557005405426" lon="11.085006007924676">
        <ele>3.02</ele>
        <time>2019-05-08T10:20:56Z</time>
      </trkpt>
      <trkpt lat="54.375456003472209" lon="11.08499301597476">
        <ele>2.54</ele>
        <time>2019-05-08T10:20:57Z</time>
      </trkpt>
      <trkpt lat="54.374427041038871" lon="11.084977006539702">
        <ele>1.1</ele>
        <time>2019-05-08T10:21:06Z</time>
      </trkpt>
      <trkpt lat="54.373175958171487" lon="11.084833005443215">
        <ele>1.58</ele>
        <time>2019-05-08T10:21:17Z</time>
      </trkpt>
      <trkpt lat="54.372011041268706" lon="11.084568975493312">
        <ele>0.14</ele>
        <time>2019-05-08T10:21:27Z</time>
      </trkpt>
      <trkpt lat="54.371312996372581" lon="11.084397984668612">
        <ele>-3.23</ele>
        <time>2019-05-08T10:21:34Z</time>
      </trkpt>
      <trkpt lat="54.371033040806651" lon="11.084349034354091">
        <ele>-4.19</ele>
        <time>2019-05-08T10:21:37Z</time>
      </trkpt>
      <trkpt lat="54.370791977271438" lon="11.084356997162104">
        <ele>-5.63</ele>
        <time>2019-05-08T10:21:39Z</time>
      </trkpt>
      <trkpt lat="54.369599986821413" lon="11.084264041855931">
        <ele>-11.4</ele>
        <time>2019-05-08T10:21:50Z</time>
      </trkpt>
      <trkpt lat="54.369508037343621" lon="11.084186006337404">
        <ele>-11.4</ele>
        <time>2019-05-08T10:21:51Z</time>
      </trkpt>
      <trkpt lat="54.369417009875178" lon="11.084108976647258">
        <ele>-11.4</ele>
        <time>2019-05-08T10:21:52Z</time>
      </trkpt>
      <trkpt lat="54.368527019396424" lon="11.083329962566495">
        <ele>-11.4</ele>
        <time>2019-05-08T10:22:01Z</time>
      </trkpt>
      <trkpt lat="54.367517000064254" lon="11.082425974309444">
        <ele>-9.48</ele>
        <time>2019-05-08T10:22:08Z</time>
      </trkpt>
      <trkpt lat="54.367382973432541" lon="11.082245009019971">
        <ele>-9</ele>
        <time>2019-05-08T10:22:09Z</time>
      </trkpt>
      <trkpt lat="54.36727300286293" lon="11.082011992111802">
        <ele>-9</ele>
        <time>2019-05-08T10:22:10Z</time>
      </trkpt>
      <trkpt lat="54.367159008979797" lon="11.08177000656724">
        <ele>-9</ele>
        <time>2019-05-08T10:22:11Z</time>
      </trkpt>
      <trkpt lat="54.367041997611523" lon="11.081523997709155">
        <ele>-8.51</ele>
        <time>2019-05-08T10:22:12Z</time>
      </trkpt>
      <trkpt lat="54.366062991321087" lon="11.079105986282229">
        <ele>-4.19</ele>
        <time>2019-05-08T10:22:22Z</time>
      </trkpt>
      <trkpt lat="54.365372993052006" lon="11.07738995924592">
        <ele>-2.75</ele>
        <time>2019-05-08T10:22:29Z</time>
      </trkpt>
      <trkpt lat="54.364391975104809" lon="11.075336979702115">
        <ele>-2.27</ele>
        <time>2019-05-08T10:22:36Z</time>
      </trkpt>
      <trkpt lat="54.364140015095472" lon="11.074519995599985">
        <ele>-2.27</ele>
        <time>2019-05-08T10:22:39Z</time>
      </trkpt>
      <trkpt lat="54.364088969305158" lon="11.07427298091352">
        <ele>-2.27</ele>
        <time>2019-05-08T10:22:40Z</time>
      </trkpt>
      <trkpt lat="54.364056028425694" lon="11.07403501868248">
        <ele>-2.27</ele>
        <time>2019-05-08T10:22:41Z</time>
      </trkpt>
      <trkpt lat="54.364000037312508" lon="11.073618018999696">
        <ele>-1.79</ele>
        <time>2019-05-08T10:22:43Z</time>
      </trkpt>
      <trkpt lat="54.363991990685463" lon="11.073447028174996">
        <ele>-1.79</ele>
        <time>2019-05-08T10:22:44Z</time>
      </trkpt>
      <trkpt lat="54.364034989848733" lon="11.072428040206432">
        <ele>-2.27</ele>
        <time>2019-05-08T10:22:50Z</time>
      </trkpt>
      <trkpt lat="54.364042030647397" lon="11.07233801856637">
        <ele>-2.75</ele>
        <time>2019-05-08T10:22:51Z</time>
      </trkpt>
      <trkpt lat="54.364053010940552" lon="11.072200974449515">
        <ele>-3.23</ele>
        <time>2019-05-08T10:22:53Z</time>
      </trkpt>
      <trkpt lat="54.364139009267092" lon="11.071271002292633">
        <ele>-3.23</ele>
        <time>2019-05-08T10:22:58Z</time>
      </trkpt>
      <trkpt lat="54.364288961514831" lon="11.069173011928797">
        <ele>-3.23</ele>
        <time>2019-05-08T10:23:04Z</time>
      </trkpt>
      <trkpt lat="54.364532036706805" lon="11.065971963107586">
        <ele>-1.3</ele>
        <time>2019-05-08T10:23:12Z</time>
      </trkpt>
      <trkpt lat="54.364477973431349" lon="11.063394024968147">
        <ele>-1.79</ele>
        <time>2019-05-08T10:23:19Z</time>
      </trkpt>
      <trkpt lat="54.364171028137207" lon="11.059813024476171">
        <ele>-1.3</ele>
        <time>2019-05-08T10:23:28Z</time>
      </trkpt>
      <trkpt lat="54.363747993484139" lon="11.056491024792194">
        <ele>1.58</ele>
        <time>2019-05-08T10:23:36Z</time>
      </trkpt>
      <trkpt lat="54.363570967689157" lon="11.054889997467399">
        <ele>1.58</ele>
        <time>2019-05-08T10:23:41Z</time>
      </trkpt>
      <trkpt lat="54.363700971007347" lon="11.052644988521934">
        <ele>3.02</ele>
        <time>2019-05-08T10:23:48Z</time>
      </trkpt>
      <trkpt lat="54.363730978220701" lon="11.052311975508928">
        <ele>3.02</ele>
        <time>2019-05-08T10:23:49Z</time>
      </trkpt>
      <trkpt lat="54.363753022626042" lon="11.051977034658194">
        <ele>3.02</ele>
        <time>2019-05-08T10:23:50Z</time>
      </trkpt>
      <trkpt lat="54.363750005140901" lon="11.051637986674905">
        <ele>3.02</ele>
        <time>2019-05-08T10:23:51Z</time>
      </trkpt>
      <trkpt lat="54.363721003755927" lon="11.051281001418829">
        <ele>3.02</ele>
        <time>2019-05-08T10:23:52Z</time>
      </trkpt>
      <trkpt lat="54.363670963793993" lon="11.050910018384457">
        <ele>3.02</ele>
        <time>2019-05-08T10:23:53Z</time>
      </trkpt>
      <trkpt lat="54.363181041553617" lon="11.047620037570596">
        <ele>3.5</ele>
        <time>2019-05-08T10:24:01Z</time>
      </trkpt>
      <trkpt lat="54.362726993858814" lon="11.045720027759671">
        <ele>3.98</ele>
        <time>2019-05-08T10:24:06Z</time>
      </trkpt>
      <trkpt lat="54.362669996917248" lon="11.045345021411777">
        <ele>3.98</ele>
        <time>2019-05-08T10:24:07Z</time>
      </trkpt>
      <trkpt lat="54.362295996397734" lon="11.04273397475481">
        <ele>3.98</ele>
        <time>2019-05-08T10:24:15Z</time>
      </trkpt>
      <trkpt lat="54.362176973372698" lon="11.042178003117442">
        <ele>3.5</ele>
        <time>2019-05-08T10:24:17Z</time>
      </trkpt>
      <trkpt lat="54.361715968698263" lon="11.040759030729532">
        <ele>3.5</ele>
        <time>2019-05-08T10:24:24Z</time>
      </trkpt>
      <trkpt lat="54.361240966245532" lon="11.039170995354652">
        <ele>2.06</ele>
        <time>2019-05-08T10:24:33Z</time>
      </trkpt>
      <trkpt lat="54.361108029261231" lon="11.038368009030819">
        <ele>2.54</ele>
        <time>2019-05-08T10:24:37Z</time>
      </trkpt>
      <trkpt lat="54.360920023173094" lon="11.036318968981504">
        <ele>3.02</ele>
        <time>2019-05-08T10:24:47Z</time>
      </trkpt>
      <trkpt lat="54.360876018181443" lon="11.036130962893367">
        <ele>3.02</ele>
        <time>2019-05-08T10:24:48Z</time>
      </trkpt>
      <trkpt lat="54.360822960734367" lon="11.0359410289675">
        <ele>3.02</ele>
        <time>2019-05-08T10:24:49Z</time>
      </trkpt>
      <trkpt lat="54.360758000984788" lon="11.03577196598053">
        <ele>3.02</ele>
        <time>2019-05-08T10:24:50Z</time>
      </trkpt>
      <trkpt lat="54.360696980729699" lon="11.035608015954494">
        <ele>3.5</ele>
        <time>2019-05-08T10:24:51Z</time>
      </trkpt>
      <trkpt lat="54.36063596047461" lon="11.035446999594569">
        <ele>3.5</ele>
        <time>2019-05-08T10:24:52Z</time>
      </trkpt>
      <trkpt lat="54.360479973256588" lon="11.035028994083405">
        <ele>3.98</ele>
        <time>2019-05-08T10:24:55Z</time>
      </trkpt>
      <trkpt lat="54.36046002432704" lon="11.034904019907117">
        <ele>4.46</ele>
        <time>2019-05-08T10:24:56Z</time>
      </trkpt>
      <trkpt lat="54.360457006841898" lon="11.034707967191935">
        <ele>4.46</ele>
        <time>2019-05-08T10:24:57Z</time>
      </trkpt>
      <trkpt lat="54.360502017661929" lon="11.034587016329169">
        <ele>5.42</ele>
        <time>2019-05-08T10:24:58Z</time>
      </trkpt>
      <trkpt lat="54.360609976574779" lon="11.034478973597288">
        <ele>5.42</ele>
        <time>2019-05-08T10:24:59Z</time>
      </trkpt>
      <trkpt lat="54.360706033185124" lon="11.034383000805974">
        <ele>5.91</ele>
        <time>2019-05-08T10:25:00Z</time>
      </trkpt>
      <trkpt lat="54.360811980441213" lon="11.034276969730854">
        <ele>6.39</ele>
        <time>2019-05-08T10:25:01Z</time>
      </trkpt>
      <trkpt lat="54.36093301512301" lon="11.034186026081443">
        <ele>6.39</ele>
        <time>2019-05-08T10:25:02Z</time>
      </trkpt>
      <trkpt lat="54.361064024269581" lon="11.034114025533199">
        <ele>6.87</ele>
        <time>2019-05-08T10:25:03Z</time>
      </trkpt>
      <trkpt lat="54.361201990395784" lon="11.034039007499814">
        <ele>6.87</ele>
        <time>2019-05-08T10:25:04Z</time>
      </trkpt>
      <trkpt lat="54.362519038841128" lon="11.033254964277148">
        <ele>10.23</ele>
        <time>2019-05-08T10:25:12Z</time>
      </trkpt>
      <trkpt lat="54.36374899931252" lon="11.031806990504265">
        <ele>13.6</ele>
        <time>2019-05-08T10:25:19Z</time>
      </trkpt>
      <trkpt lat="54.364590961486101" lon="11.029744958505034">
        <ele>15.039999999999999</ele>
        <time>2019-05-08T10:25:25Z</time>
      </trkpt>
      <trkpt lat="54.365352038294077" lon="11.027294006198645">
        <ele>13.119999999999999</ele>
        <time>2019-05-08T10:25:31Z</time>
      </trkpt>
      <trkpt lat="54.365419009700418" lon="11.026871977373958">
        <ele>12.630000000000001</ele>
        <time>2019-05-08T10:25:32Z</time>
      </trkpt>
      <trkpt lat="54.365475000813603" lon="11.026434022933245">
        <ele>11.67</ele>
        <time>2019-05-08T10:25:33Z</time>
      </trkpt>
      <trkpt lat="54.365534009411931" lon="11.025979975238442">
        <ele>10.710000000000001</ele>
        <time>2019-05-08T10:25:34Z</time>
      </trkpt>
      <trkpt lat="54.365564016625285" lon="11.02550002746284">
        <ele>9.75</ele>
        <time>2019-05-08T10:25:35Z</time>
      </trkpt>
      <trkpt lat="54.365597041323781" lon="11.022064033895731">
        <ele>4.94</ele>
        <time>2019-05-08T10:25:42Z</time>
      </trkpt>
      <trkpt lat="54.365430995821953" lon="11.019715005531907">
        <ele>2.06</ele>
        <time>2019-05-08T10:25:48Z</time>
      </trkpt>
      <trkpt lat="54.365323958918452" lon="11.016764994710684">
        <ele>3.5</ele>
        <time>2019-05-08T10:25:57Z</time>
      </trkpt>
      <trkpt lat="54.365454968065023" lon="11.013095984235406">
        <ele>3.02</ele>
        <time>2019-05-08T10:26:09Z</time>
      </trkpt>
      <trkpt lat="54.365405011922121" lon="11.010920964181423">
        <ele>3.5</ele>
        <time>2019-05-08T10:26:18Z</time>
      </trkpt>
      <trkpt lat="54.365367041900754" lon="11.010587029159069">
        <ele>4.46</ele>
        <time>2019-05-08T10:26:23Z</time>
      </trkpt>
      <trkpt lat="54.365342985838652" lon="11.010432969778776">
        <ele>6.39</ele>
        <time>2019-05-08T10:26:48Z</time>
      </trkpt>
      <trkpt lat="54.365285988897085" lon="11.009790999814868">
        <ele>6.39</ele>
        <time>2019-05-08T10:26:52Z</time>
      </trkpt>
      <trkpt lat="54.365218011662364" lon="11.007819995284081">
        <ele>6.39</ele>
        <time>2019-05-08T10:27:01Z</time>
      </trkpt>
      <trkpt lat="54.365182975307107" lon="11.005065031349659">
        <ele>6.39</ele>
        <time>2019-05-08T10:27:12Z</time>
      </trkpt>
      <trkpt lat="54.36523200944066" lon="11.002776017412543">
        <ele>10.23</ele>
        <time>2019-05-08T10:27:21Z</time>
      </trkpt>
      <trkpt lat="54.365261010825634" lon="11.002559009939432">
        <ele>10.710000000000001</ele>
        <time>2019-05-08T10:27:22Z</time>
      </trkpt>
      <trkpt lat="54.365539038553834" lon="11.000922024250031">
        <ele>15.039999999999999</ele>
        <time>2019-05-08T10:27:29Z</time>
      </trkpt>
      <trkpt lat="54.366259966045618" lon="10.998474005609751">
        <ele>20.809999999999999</ele>
        <time>2019-05-08T10:27:39Z</time>
      </trkpt>
      <trkpt lat="54.366698004305363" lon="10.996725959703326">
        <ele>20.32</ele>
        <time>2019-05-08T10:27:48Z</time>
      </trkpt>
      <trkpt lat="54.367183987051249" lon="10.994379026815295">
        <ele>15.039999999999999</ele>
        <time>2019-05-08T10:28:00Z</time>
      </trkpt>
      <trkpt lat="54.367222962900996" lon="10.994190014898777">
        <ele>14.56</ele>
        <time>2019-05-08T10:28:01Z</time>
      </trkpt>
      <trkpt lat="54.367456985637546" lon="10.993263982236385">
        <ele>13.119999999999999</ele>
        <time>2019-05-08T10:28:06Z</time>
      </trkpt>
      <trkpt lat="54.36823901720345" lon="10.991708971560001">
        <ele>12.15</ele>
        <time>2019-05-08T10:28:16Z</time>
      </trkpt>
      <trkpt lat="54.369689002633095" lon="10.989218959584832">
        <ele>11.19</ele>
        <time>2019-05-08T10:28:33Z</time>
      </trkpt>
      <trkpt lat="54.370322003960609" lon="10.988254034891725">
        <ele>6.39</ele>
        <time>2019-05-08T10:28:40Z</time>
      </trkpt>
      <trkpt lat="54.370400039479136" lon="10.988097963854671">
        <ele>5.91</ele>
        <time>2019-05-08T10:28:41Z</time>
      </trkpt>
      <trkpt lat="54.370712013915181" lon="10.987474014982581">
        <ele>3.98</ele>
        <time>2019-05-08T10:28:45Z</time>
      </trkpt>
      <trkpt lat="54.370802035555243" lon="10.987293971702456">
        <ele>3.5</ele>
        <time>2019-05-08T10:28:46Z</time>
      </trkpt>
      <trkpt lat="54.370891973376274" lon="10.987228006124496">
        <ele>3.98</ele>
        <time>2019-05-08T10:28:47Z</time>
      </trkpt>
      <trkpt lat="54.370999010279775" lon="10.987148964777589">
        <ele>3.98</ele>
        <time>2019-05-08T10:28:48Z</time>
      </trkpt>
      <trkpt lat="54.371108980849385" lon="10.987066989764571">
        <ele>3.98</ele>
        <time>2019-05-08T10:28:49Z</time>
      </trkpt>
      <trkpt lat="54.371217023581266" lon="10.986987026408315">
        <ele>3.98</ele>
        <time>2019-05-08T10:28:50Z</time>
      </trkpt>
      <trkpt lat="54.371295981109142" lon="10.986929023638368">
        <ele>3.98</ele>
        <time>2019-05-08T10:28:51Z</time>
      </trkpt>
      <trkpt lat="54.371395977213979" lon="10.986796002835035">
        <ele>3.98</ele>
        <time>2019-05-08T10:28:52Z</time>
      </trkpt>
      <trkpt lat="54.371472001075745" lon="10.986693995073438">
        <ele>3.5</ele>
        <time>2019-05-08T10:28:53Z</time>
      </trkpt>
      <trkpt lat="54.371520029380918" lon="10.986576983705163">
        <ele>3.5</ele>
        <time>2019-05-08T10:28:54Z</time>
      </trkpt>
      <trkpt lat="54.371559005230665" lon="10.986451003700495">
        <ele>3.5</ele>
        <time>2019-05-08T10:28:55Z</time>
      </trkpt>
      <trkpt lat="54.3715900182724" lon="10.986319994553924">
        <ele>3.02</ele>
        <time>2019-05-08T10:28:56Z</time>
      </trkpt>
      <trkpt lat="54.371670987457037" lon="10.9859689604491">
        <ele>2.54</ele>
        <time>2019-05-08T10:28:59Z</time>
      </trkpt>
      <trkpt lat="54.371789004653692" lon="10.985770979896188">
        <ele>2.06</ele>
        <time>2019-05-08T10:29:01Z</time>
      </trkpt>
      <trkpt lat="54.371809959411621" lon="10.98562303930521">
        <ele>1.58</ele>
        <time>2019-05-08T10:29:02Z</time>
      </trkpt>
      <trkpt lat="54.371872991323471" lon="10.985564030706882">
        <ele>1.58</ele>
        <time>2019-05-08T10:29:03Z</time>
      </trkpt>
      <trkpt lat="54.371937029063702" lon="10.985505022108555">
        <ele>1.1</ele>
        <time>2019-05-08T10:29:04Z</time>
      </trkpt>
      <trkpt lat="54.371998971328139" lon="10.985448025166988">
        <ele>1.1</ele>
        <time>2019-05-08T10:29:05Z</time>
      </trkpt>
      <trkpt lat="54.372068038210273" lon="10.985383987426758">
        <ele>0.62</ele>
        <time>2019-05-08T10:29:06Z</time>
      </trkpt>
      <trkpt lat="54.372124029323459" lon="10.985355991870165">
        <ele>0.14</ele>
        <time>2019-05-08T10:29:07Z</time>
      </trkpt>
      <trkpt lat="54.372183037921786" lon="10.985293965786695">
        <ele>0.14</ele>
        <time>2019-05-08T10:29:08Z</time>
      </trkpt>
      <trkpt lat="54.372233999893069" lon="10.985212996602058">
        <ele>-0.34</ele>
        <time>2019-05-08T10:29:09Z</time>
      </trkpt>
      <trkpt lat="54.37227800488472" lon="10.985118029639125">
        <ele>0.14</ele>
        <time>2019-05-08T10:29:10Z</time>
      </trkpt>
      <trkpt lat="54.372314969077706" lon="10.985008981078863">
        <ele>0.14</ele>
        <time>2019-05-08T10:29:11Z</time>
      </trkpt>
      <trkpt lat="54.372350005432963" lon="10.984902027994394">
        <ele>0.14</ele>
        <time>2019-05-08T10:29:12Z</time>
      </trkpt>
      <trkpt lat="54.372385963797569" lon="10.984794991090894">
        <ele>0.62</ele>
        <time>2019-05-08T10:29:13Z</time>
      </trkpt>
      <trkpt lat="54.372421000152826" lon="10.984689965844154">
        <ele>0.62</ele>
        <time>2019-05-08T10:29:14Z</time>
      </trkpt>
      <trkpt lat="54.372490989044309" lon="10.984479999169707">
        <ele>1.1</ele>
        <time>2019-05-08T10:29:16Z</time>
      </trkpt>
      <trkpt lat="54.372638007625937" lon="10.984000973403454">
        <ele>1.58</ele>
        <time>2019-05-08T10:29:20Z</time>
      </trkpt>
      <trkpt lat="54.372711014002562" lon="10.983566958457232">
        <ele>0.62</ele>
        <time>2019-05-08T10:29:23Z</time>
      </trkpt>
      <trkpt lat="54.372734986245632" lon="10.983419017866254">
        <ele>1.1</ele>
        <time>2019-05-08T10:29:24Z</time>
      </trkpt>
      <trkpt lat="54.372888961806893" lon="10.982344038784504">
        <ele>3.98</ele>
        <time>2019-05-08T10:29:32Z</time>
      </trkpt>
      <trkpt lat="54.372912012040615" lon="10.982221998274326">
        <ele>4.46</ele>
        <time>2019-05-08T10:29:33Z</time>
      </trkpt>
      <trkpt lat="54.372934978455305" lon="10.982098029926419">
        <ele>4.46</ele>
        <time>2019-05-08T10:29:34Z</time>
      </trkpt>
      <trkpt lat="54.372982000932097" lon="10.981845986098051">
        <ele>4.46</ele>
        <time>2019-05-08T10:29:36Z</time>
      </trkpt>
      <trkpt lat="54.373006979003549" lon="10.981723023578525">
        <ele>4.94</ele>
        <time>2019-05-08T10:29:37Z</time>
      </trkpt>
      <trkpt lat="54.373080991208553" lon="10.981368971988559">
        <ele>5.42</ele>
        <time>2019-05-08T10:29:40Z</time>
      </trkpt>
      <trkpt lat="54.373123990371823" lon="10.981253972277045">
        <ele>5.42</ele>
        <time>2019-05-08T10:29:41Z</time>
      </trkpt>
      <trkpt lat="54.373172018676996" lon="10.981193035840988">
        <ele>5.91</ele>
        <time>2019-05-08T10:29:42Z</time>
      </trkpt>
      <trkpt lat="54.37324502505362" lon="10.981189012527466">
        <ele>5.91</ele>
        <time>2019-05-08T10:29:43Z</time>
      </trkpt>
      <trkpt lat="54.373301016166806" lon="10.981199992820621">
        <ele>5.91</ele>
        <time>2019-05-08T10:29:44Z</time>
      </trkpt>
      <trkpt lat="54.373338986188173" lon="10.981206027790904">
        <ele>6.39</ele>
        <time>2019-05-08T10:29:45Z</time>
      </trkpt>
      <trkpt lat="54.373449962586164" lon="10.981222037225962">
        <ele>6.87</ele>
        <time>2019-05-08T10:29:53Z</time>
      </trkpt>
      <trkpt lat="54.37395597808063" lon="10.981238968670368">
        <ele>6.39</ele>
        <time>2019-05-08T10:30:01Z</time>
      </trkpt>
      <trkpt lat="54.37401900999248" lon="10.981240980327129">
        <ele>6.39</ele>
        <time>2019-05-08T10:30:02Z</time>
      </trkpt>
      <trkpt lat="54.374064020812511" lon="10.981242991983891">
        <ele>6.39</ele>
        <time>2019-05-08T10:30:03Z</time>
      </trkpt>
      <trkpt lat="54.374092016369104" lon="10.981181971728802">
        <ele>5.91</ele>
        <time>2019-05-08T10:30:04Z</time>
      </trkpt>
      <trkpt lat="54.374122023582458" lon="10.981117011979222">
        <ele>5.91</ele>
        <time>2019-05-08T10:30:05Z</time>
      </trkpt>
      <trkpt lat="54.374150019139051" lon="10.981056997552514">
        <ele>5.42</ele>
        <time>2019-05-08T10:30:06Z</time>
      </trkpt>
      <trkpt lat="54.374172985553741" lon="10.981008969247341">
        <ele>4.94</ele>
        <time>2019-05-08T10:30:07Z</time>
      </trkpt>
      <trkpt lat="54.374186983332038" lon="10.980978962033987">
        <ele>4.94</ele>
        <time>2019-05-08T10:30:08Z</time>
      </trkpt>
      <trkpt lat="54.37421397306025" lon="10.98092095926404">
        <ele>4.94</ele>
        <time>2019-05-08T10:30:16Z</time>
      </trkpt>
      <trkpt lat="54.37429703772068" lon="10.980817023664713">
        <ele>4.94</ele>
        <time>2019-05-08T10:30:17Z</time>
      </trkpt>
      <trkpt lat="54.374355040490627" lon="10.980744017288089">
        <ele>4.94</ele>
        <time>2019-05-08T10:30:18Z</time>
      </trkpt>
      <trkpt lat="54.37442502938211" lon="10.980685008689761">
        <ele>4.46</ele>
        <time>2019-05-08T10:30:19Z</time>
      </trkpt>
      <trkpt lat="54.374508010223508" lon="10.980638992041349">
        <ele>4.46</ele>
        <time>2019-05-08T10:30:20Z</time>
      </trkpt>
      <trkpt lat="54.374595014378428" lon="10.980591969564557">
        <ele>4.46</ele>
        <time>2019-05-08T10:30:21Z</time>
      </trkpt>
      <trkpt lat="54.375881971791387" lon="10.979941030964255">
        <ele>3.5</ele>
        <time>2019-05-08T10:30:35Z</time>
      </trkpt>
      <trkpt lat="54.377128025516868" lon="10.979238962754607">
        <ele>2.06</ele>
        <time>2019-05-08T10:30:47Z</time>
      </trkpt>
      <trkpt lat="54.378005024045706" lon="10.978389037773013">
        <ele>2.06</ele>
        <time>2019-05-08T10:30:57Z</time>
      </trkpt>
      <trkpt lat="54.378096973523498" lon="10.97821100614965">
        <ele>2.54</ele>
        <time>2019-05-08T10:31:04Z</time>
      </trkpt>
      <trkpt lat="54.378096973523498" lon="10.97821100614965">
        <ele>2.54</ele>
        <time>2019-05-08T10:31:22Z</time>
      </trkpt>
      <trkpt lat="54.378088004887104" lon="10.978345032781363">
        <ele>2.54</ele>
        <time>2019-05-08T10:31:23Z</time>
      </trkpt>
      <trkpt lat="54.378065960481763" lon="10.978332040831447">
        <ele>2.54</ele>
        <time>2019-05-08T10:31:24Z</time>
      </trkpt>
      <trkpt lat="54.378054980188608" lon="10.978325000032783">
        <ele>2.06</ele>
        <time>2019-05-08T10:31:25Z</time>
      </trkpt>
      <trkpt lat="54.378061015158892" lon="10.978306978940964">
        <ele>2.06</ele>
        <time>2019-05-08T10:31:26Z</time>
      </trkpt>
      <trkpt lat="54.378011981025338" lon="10.978379985317588">
        <ele>1.58</ele>
        <time>2019-05-08T10:31:27Z</time>
      </trkpt>
      <trkpt lat="54.3776910379529" lon="10.978796985000372">
        <ele>0.14</ele>
        <time>2019-05-08T10:31:33Z</time>
      </trkpt>
      <trkpt lat="54.37765097245574" lon="10.978849036619067">
        <ele>0.14</ele>
        <time>2019-05-08T10:31:34Z</time>
      </trkpt>
      <trkpt lat="54.37760503962636" lon="10.97889999859035">
        <ele>-0.34</ele>
        <time>2019-05-08T10:31:35Z</time>
      </trkpt>
      <trkpt lat="54.377035992220044" lon="10.979300988838077">
        <ele>-1.3</ele>
        <time>2019-05-08T10:31:43Z</time>
      </trkpt>
      <trkpt lat="54.376757964491844" lon="10.979487989097834">
        <ele>-1.3</ele>
        <time>2019-05-08T10:31:48Z</time>
      </trkpt>
      <trkpt lat="54.376352028921247" lon="10.979712037369609">
        <ele>-2.27</ele>
        <time>2019-05-08T10:31:55Z</time>
      </trkpt>
      <trkpt lat="54.376306012272835" lon="10.979735003784299">
        <ele>-2.75</ele>
        <time>2019-05-08T10:31:56Z</time>
      </trkpt>
      <trkpt lat="54.376266030594707" lon="10.979755036532879">
        <ele>-2.75</ele>
        <time>2019-05-08T10:31:57Z</time>
      </trkpt>
      <trkpt lat="54.376191012561321" lon="10.979792000725865">
        <ele>-3.71</ele>
        <time>2019-05-08T10:32:04Z</time>
      </trkpt>
      <trkpt lat="54.376191012561321" lon="10.979792000725865">
        <ele>-3.71</ele>
        <time>2019-05-08T10:32:23Z</time>
      </trkpt>
      <trkpt lat="54.376138960942626" lon="10.979816978797317">
        <ele>-2.27</ele>
        <time>2019-05-08T10:32:56Z</time>
      </trkpt>
      <trkpt lat="54.376110965386033" lon="10.979830976575613">
        <ele>-1.79</ele>
        <time>2019-05-08T10:32:57Z</time>
      </trkpt>
      <trkpt lat="54.376067966222763" lon="10.979852015152574">
        <ele>-1.3</ele>
        <time>2019-05-08T10:32:58Z</time>
      </trkpt>
      <trkpt lat="54.375998983159661" lon="10.979884034022689">
        <ele>-1.3</ele>
        <time>2019-05-08T10:32:59Z</time>
      </trkpt>
      <trkpt lat="54.375912984833121" lon="10.979926027357578">
        <ele>-1.3</ele>
        <time>2019-05-08T10:33:00Z</time>
      </trkpt>
      <trkpt lat="54.375294987112284" lon="10.980236995965242">
        <ele>-2.27</ele>
        <time>2019-05-08T10:33:08Z</time>
      </trkpt>
      <trkpt lat="54.374607000499964" lon="10.980585012584925">
        <ele>-2.75</ele>
        <time>2019-05-08T10:33:16Z</time>
      </trkpt>
      <trkpt lat="54.374542962759733" lon="10.980620970949531">
        <ele>-3.23</ele>
        <time>2019-05-08T10:33:17Z</time>
      </trkpt>
      <trkpt lat="54.374441960826516" lon="10.980675034224987">
        <ele>-3.71</ele>
        <time>2019-05-08T10:33:19Z</time>
      </trkpt>
      <trkpt lat="54.37440499663353" lon="10.980695988982916">
        <ele>-4.19</ele>
        <time>2019-05-08T10:33:20Z</time>
      </trkpt>
      <trkpt lat="54.37434297055006" lon="10.980690037831664">
        <ele>-4.67</ele>
        <time>2019-05-08T10:33:21Z</time>
      </trkpt>
      <trkpt lat="54.374311035498977" lon="10.980678973719478">
        <ele>-4.67</ele>
        <time>2019-05-08T10:33:22Z</time>
      </trkpt>
      <trkpt lat="54.374208021908998" lon="10.980523992329836">
        <ele>-5.15</ele>
        <time>2019-05-08T10:33:23Z</time>
      </trkpt>
      <trkpt lat="54.374201986938715" lon="10.980420978739858">
        <ele>-5.15</ele>
        <time>2019-05-08T10:33:24Z</time>
      </trkpt>
      <trkpt lat="54.374196035787463" lon="10.980304973199964">
        <ele>-5.15</ele>
        <time>2019-05-08T10:33:25Z</time>
      </trkpt>
      <trkpt lat="54.374188994988799" lon="10.980182010680437">
        <ele>-5.15</ele>
        <time>2019-05-08T10:33:26Z</time>
      </trkpt>
      <trkpt lat="54.374131998047233" lon="10.97911398857832">
        <ele>-4.67</ele>
        <time>2019-05-08T10:33:33Z</time>
      </trkpt>
      <trkpt lat="54.374133003875613" lon="10.978955989703536">
        <ele>-4.67</ele>
        <time>2019-05-08T10:33:34Z</time>
      </trkpt>
      <trkpt lat="54.374142978340387" lon="10.978798996657133">
        <ele>-4.67</ele>
        <time>2019-05-08T10:33:35Z</time>
      </trkpt>
      <trkpt lat="54.374328972771764" lon="10.977486977353692">
        <ele>-3.71</ele>
        <time>2019-05-08T10:33:44Z</time>
      </trkpt>
      <trkpt lat="54.374351017177105" lon="10.977339958772063">
        <ele>-3.71</ele>
        <time>2019-05-08T10:33:45Z</time>
      </trkpt>
      <trkpt lat="54.374364009127021" lon="10.97718003205955">
        <ele>-3.71</ele>
        <time>2019-05-08T10:33:46Z</time>
      </trkpt>
      <trkpt lat="54.374371971935034" lon="10.975144989788532">
        <ele>-1.79</ele>
        <time>2019-05-08T10:33:58Z</time>
      </trkpt>
      <trkpt lat="54.37434196472168" lon="10.974831003695726">
        <ele>-1.79</ele>
        <time>2019-05-08T10:34:00Z</time>
      </trkpt>
      <trkpt lat="54.374302988871932" lon="10.974689014256001">
        <ele>-1.79</ele>
        <time>2019-05-08T10:34:01Z</time>
      </trkpt>
      <trkpt lat="54.37423299998045" lon="10.97460201010108">
        <ele>-1.79</ele>
        <time>2019-05-08T10:34:02Z</time>
      </trkpt>
      <trkpt lat="54.37412797473371" lon="10.974483992904425">
        <ele>-1.3</ele>
        <time>2019-05-08T10:34:03Z</time>
      </trkpt>
      <trkpt lat="54.374050023034215" lon="10.974461026489735">
        <ele>-1.3</ele>
        <time>2019-05-08T10:34:04Z</time>
      </trkpt>
      <trkpt lat="54.373931000009179" lon="10.974434036761522">
        <ele>-1.3</ele>
        <time>2019-05-08T10:34:05Z</time>
      </trkpt>
      <trkpt lat="54.373676022514701" lon="10.974397994577885">
        <ele>-0.82</ele>
        <time>2019-05-08T10:34:07Z</time>
      </trkpt>
      <trkpt lat="54.373543001711369" lon="10.974378967657685">
        <ele>-0.34</ele>
        <time>2019-05-08T10:34:08Z</time>
      </trkpt>
      <trkpt lat="54.372315974906087" lon="10.974311996251345">
        <ele>3.5</ele>
        <time>2019-05-08T10:34:18Z</time>
      </trkpt>
      <trkpt lat="54.37223500572145" lon="10.974292969331145">
        <ele>3.98</ele>
        <time>2019-05-08T10:34:19Z</time>
      </trkpt>
      <trkpt lat="54.372174991294742" lon="10.974268997088075">
        <ele>4.46</ele>
        <time>2019-05-08T10:34:21Z</time>
      </trkpt>
      <trkpt lat="54.372109025716782" lon="10.97402298822999">
        <ele>4.46</ele>
        <time>2019-05-08T10:34:22Z</time>
      </trkpt>
      <trkpt lat="54.372078012675047" lon="10.973883010447025">
        <ele>4.94</ele>
        <time>2019-05-08T10:34:23Z</time>
      </trkpt>
      <trkpt lat="54.372044987976551" lon="10.973732974380255">
        <ele>4.94</ele>
        <time>2019-05-08T10:34:24Z</time>
      </trkpt>
      <trkpt lat="54.372010035440326" lon="10.973572041839361">
        <ele>4.94</ele>
        <time>2019-05-08T10:34:25Z</time>
      </trkpt>
      <trkpt lat="54.371972987428308" lon="10.973402978852391">
        <ele>4.46</ele>
        <time>2019-05-08T10:34:26Z</time>
      </trkpt>
      <trkpt lat="54.371900986880064" lon="10.973256966099143">
        <ele>4.46</ele>
        <time>2019-05-08T10:34:27Z</time>
      </trkpt>
      <trkpt lat="54.371815994381905" lon="10.973128974437714">
        <ele>3.98</ele>
        <time>2019-05-08T10:34:28Z</time>
      </trkpt>
      <trkpt lat="54.371740976348519" lon="10.973022021353245">
        <ele>3.98</ele>
        <time>2019-05-08T10:34:29Z</time>
      </trkpt>
      <trkpt lat="54.371666964143515" lon="10.97299100831151">
        <ele>3.5</ele>
        <time>2019-05-08T10:34:30Z</time>
      </trkpt>
      <trkpt lat="54.37161298468709" lon="10.972968963906169">
        <ele>3.02</ele>
        <time>2019-05-08T10:34:31Z</time>
      </trkpt>
      <trkpt lat="54.371582977473736" lon="10.972956977784634">
        <ele>2.54</ele>
        <time>2019-05-08T10:34:32Z</time>
      </trkpt>
      <trkpt lat="54.371582977473736" lon="10.972956977784634">
        <ele>2.06</ele>
        <time>2019-05-08T10:34:44Z</time>
      </trkpt>
      <trkpt lat="54.371574008837342" lon="10.972953038290143">
        <ele>2.06</ele>
        <time>2019-05-08T10:34:52Z</time>
      </trkpt>
      <trkpt lat="54.371536960825324" lon="10.972937028855085">
        <ele>1.58</ele>
        <time>2019-05-08T10:34:53Z</time>
      </trkpt>
      <trkpt lat="54.371411986649036" lon="10.97288497723639">
        <ele>2.54</ele>
        <time>2019-05-08T10:34:55Z</time>
      </trkpt>
      <trkpt lat="54.371350966393948" lon="10.972859999164939">
        <ele>2.54</ele>
        <time>2019-05-08T10:34:56Z</time>
      </trkpt>
      <trkpt lat="54.371296986937523" lon="10.972837032750249">
        <ele>2.54</ele>
        <time>2019-05-08T10:34:57Z</time>
      </trkpt>
      <trkpt lat="54.371288018301129" lon="10.972570991143584">
        <ele>2.54</ele>
        <time>2019-05-08T10:34:58Z</time>
      </trkpt>
      <trkpt lat="54.371317019686103" lon="10.972447022795677">
        <ele>2.54</ele>
        <time>2019-05-08T10:34:59Z</time>
      </trkpt>
      <trkpt lat="54.371352978050709" lon="10.972294975072145">
        <ele>3.02</ele>
        <time>2019-05-08T10:35:00Z</time>
      </trkpt>
      <trkpt lat="54.371393965557218" lon="10.972124990075827">
        <ele>2.54</ele>
        <time>2019-05-08T10:35:01Z</time>
      </trkpt>
      <trkpt lat="54.371647015213966" lon="10.970362024381757">
        <ele>3.5</ele>
        <time>2019-05-08T10:35:10Z</time>
      </trkpt>
      <trkpt lat="54.371638968586922" lon="10.969409001991153">
        <ele>4.46</ele>
        <time>2019-05-08T10:35:18Z</time>
      </trkpt>
      <trkpt lat="54.371637962758541" lon="10.969310011714697">
        <ele>4.46</ele>
        <time>2019-05-08T10:35:19Z</time>
      </trkpt>
      <trkpt lat="54.371635029092431" lon="10.968856969848275">
        <ele>5.42</ele>
        <time>2019-05-08T10:35:24Z</time>
      </trkpt>
      <trkpt lat="54.37163402326405" lon="10.968748005107045">
        <ele>5.42</ele>
        <time>2019-05-08T10:35:25Z</time>
      </trkpt>
      <trkpt lat="54.371631005778909" lon="10.968444999307394">
        <ele>5.91</ele>
        <time>2019-05-08T10:35:28Z</time>
      </trkpt>
      <trkpt lat="54.371622959151864" lon="10.967375971376896">
        <ele>5.91</ele>
        <time>2019-05-08T10:35:37Z</time>
      </trkpt>
      <trkpt lat="54.371617008000612" lon="10.966191021725535">
        <ele>6.39</ele>
        <time>2019-05-08T10:35:45Z</time>
      </trkpt>
      <trkpt lat="54.371617008000612" lon="10.96603000536561">
        <ele>6.39</ele>
        <time>2019-05-08T10:35:46Z</time>
      </trkpt>
      <trkpt lat="54.371617008000612" lon="10.965866977348924">
        <ele>5.91</ele>
        <time>2019-05-08T10:35:47Z</time>
      </trkpt>
      <trkpt lat="54.371598986908793" lon="10.965700009837747">
        <ele>5.91</ele>
        <time>2019-05-08T10:35:48Z</time>
      </trkpt>
      <trkpt lat="54.371567973867059" lon="10.965544022619724">
        <ele>5.91</ele>
        <time>2019-05-08T10:35:49Z</time>
      </trkpt>
      <trkpt lat="54.371527992188931" lon="10.965389041230083">
        <ele>5.91</ele>
        <time>2019-05-08T10:35:50Z</time>
      </trkpt>
      <trkpt lat="54.371466971933842" lon="10.965236993506551">
        <ele>6.39</ele>
        <time>2019-05-08T10:35:51Z</time>
      </trkpt>
      <trkpt lat="54.371378961950541" lon="10.965155018493533">
        <ele>6.87</ele>
        <time>2019-05-08T10:35:52Z</time>
      </trkpt>
      <trkpt lat="54.371285000815988" lon="10.965068014338613">
        <ele>7.35</ele>
        <time>2019-05-08T10:35:53Z</time>
      </trkpt>
      <trkpt lat="54.371191039681435" lon="10.964982016012073">
        <ele>7.83</ele>
        <time>2019-05-08T10:35:54Z</time>
      </trkpt>
      <trkpt lat="54.370911000296474" lon="10.964717986062169">
        <ele>8.789999999999999</ele>
        <time>2019-05-08T10:35:57Z</time>
      </trkpt>
      <trkpt lat="54.37081896699965" lon="10.964608015492558">
        <ele>8.789999999999999</ele>
        <time>2019-05-08T10:35:58Z</time>
      </trkpt>
      <trkpt lat="54.370727017521858" lon="10.964497039094567">
        <ele>9.27</ele>
        <time>2019-05-08T10:35:59Z</time>
      </trkpt>
      <trkpt lat="54.370669014751911" lon="10.964334011077881">
        <ele>9.75</ele>
        <time>2019-05-08T10:36:00Z</time>
      </trkpt>
      <trkpt lat="54.370611011981964" lon="10.964148016646504">
        <ele>10.710000000000001</ele>
        <time>2019-05-08T10:36:01Z</time>
      </trkpt>
      <trkpt lat="54.370571030303836" lon="10.963936960324645">
        <ele>11.19</ele>
        <time>2019-05-08T10:36:02Z</time>
      </trkpt>
      <trkpt lat="54.370528031140566" lon="10.963707966729999">
        <ele>11.67</ele>
        <time>2019-05-08T10:36:03Z</time>
      </trkpt>
      <trkpt lat="54.370047999545932" lon="10.960892988368869">
        <ele>18.399999999999999</ele>
        <time>2019-05-08T10:36:14Z</time>
      </trkpt>
      <trkpt lat="54.369505019858479" lon="10.958347991108894">
        <ele>21.77</ele>
        <time>2019-05-08T10:36:22Z</time>
      </trkpt>
      <trkpt lat="54.36871100217104" lon="10.95563099719584">
        <ele>28.02</ele>
        <time>2019-05-08T10:36:30Z</time>
      </trkpt>
      <trkpt lat="54.368556020781398" lon="10.955344000831246">
        <ele>28.98</ele>
        <time>2019-05-08T10:36:31Z</time>
      </trkpt>
      <trkpt lat="54.368396010249853" lon="10.955046024173498">
        <ele>29.940000000000001</ele>
        <time>2019-05-08T10:36:32Z</time>
      </trkpt>
      <trkpt lat="54.366798000410199" lon="10.952211013063788">
        <ele>37.630000000000003</ele>
        <time>2019-05-08T10:36:41Z</time>
      </trkpt>
      <trkpt lat="54.36520803719759" lon="10.948806032538414">
        <ele>36.189999999999998</ele>
        <time>2019-05-08T10:36:50Z</time>
      </trkpt>
      <trkpt lat="54.363818988204002" lon="10.946451975032687">
        <ele>31.859999999999999</ele>
        <time>2019-05-08T10:36:57Z</time>
      </trkpt>
      <trkpt lat="54.362472016364336" lon="10.943962968885899">
        <ele>30.420000000000002</ele>
        <time>2019-05-08T10:37:04Z</time>
      </trkpt>
      <trkpt lat="54.361427966505289" lon="10.941006001085043">
        <ele>28.98</ele>
        <time>2019-05-08T10:37:11Z</time>
      </trkpt>
      <trkpt lat="54.360387017950416" lon="10.937505969777703">
        <ele>28.02</ele>
        <time>2019-05-08T10:37:19Z</time>
      </trkpt>
      <trkpt lat="54.360077977180481" lon="10.936846984550357">
        <ele>27.050000000000001</ele>
        <time>2019-05-08T10:37:21Z</time>
      </trkpt>
      <trkpt lat="54.359890976920724" lon="10.936572980135679">
        <ele>26.57</ele>
        <time>2019-05-08T10:37:22Z</time>
      </trkpt>
      <trkpt lat="54.359698025509715" lon="10.936292018741369">
        <ele>26.09</ele>
        <time>2019-05-08T10:37:23Z</time>
      </trkpt>
      <trkpt lat="54.359481018036604" lon="10.936064030975103">
        <ele>25.129999999999999</ele>
        <time>2019-05-08T10:37:24Z</time>
      </trkpt>
      <trkpt lat="54.359243977814913" lon="10.93586697243154">
        <ele>24.649999999999999</ele>
        <time>2019-05-08T10:37:25Z</time>
      </trkpt>
      <trkpt lat="54.35900098644197" lon="10.935664968565106">
        <ele>23.690000000000001</ele>
        <time>2019-05-08T10:37:26Z</time>
      </trkpt>
      <trkpt lat="54.358033966273069" lon="10.934815965592861">
        <ele>20.809999999999999</ele>
        <time>2019-05-08T10:37:30Z</time>
      </trkpt>
      <trkpt lat="54.357828022912145" lon="10.934538021683693">
        <ele>19.84</ele>
        <time>2019-05-08T10:37:31Z</time>
      </trkpt>
      <trkpt lat="54.357636999338865" lon="10.934225963428617">
        <ele>19.359999999999999</ele>
        <time>2019-05-08T10:37:32Z</time>
      </trkpt>
      <trkpt lat="54.356133034452796" lon="10.93148298561573">
        <ele>15.52</ele>
        <time>2019-05-08T10:37:40Z</time>
      </trkpt>
      <trkpt lat="54.354584980756044" lon="10.928509002551436">
        <ele>15.039999999999999</ele>
        <time>2019-05-08T10:37:49Z</time>
      </trkpt>
      <trkpt lat="54.354481967166066" lon="10.928165009245276">
        <ele>15.52</ele>
        <time>2019-05-08T10:37:50Z</time>
      </trkpt>
      <trkpt lat="54.354411978274584" lon="10.927811963483691">
        <ele>16.48</ele>
        <time>2019-05-08T10:37:51Z</time>
      </trkpt>
      <trkpt lat="54.354342995211482" lon="10.92744299210608">
        <ele>16.960000000000001</ele>
        <time>2019-05-08T10:37:52Z</time>
      </trkpt>
      <trkpt lat="54.353557024151087" lon="10.923495031893253">
        <ele>18.399999999999999</ele>
        <time>2019-05-08T10:38:02Z</time>
      </trkpt>
      <trkpt lat="54.352433010935783" lon="10.91994202695787">
        <ele>19.84</ele>
        <time>2019-05-08T10:38:11Z</time>
      </trkpt>
      <trkpt lat="54.351634969934821" lon="10.917695006355643">
        <ele>23.210000000000001</ele>
        <time>2019-05-08T10:38:17Z</time>
      </trkpt>
      <trkpt lat="54.351477976888418" lon="10.917382026091218">
        <ele>23.690000000000001</ele>
        <time>2019-05-08T10:38:18Z</time>
      </trkpt>
      <trkpt lat="54.351305980235338" lon="10.917097041383386">
        <ele>23.690000000000001</ele>
        <time>2019-05-08T10:38:19Z</time>
      </trkpt>
      <trkpt lat="54.350956035777926" lon="10.916555989533663">
        <ele>24.170000000000002</ele>
        <time>2019-05-08T10:38:21Z</time>
      </trkpt>
      <trkpt lat="54.350802982226014" lon="10.916261030361056">
        <ele>24.170000000000002</ele>
        <time>2019-05-08T10:38:22Z</time>
      </trkpt>
      <trkpt lat="54.350670967251062" lon="10.91592701151967">
        <ele>24.170000000000002</ele>
        <time>2019-05-08T10:38:23Z</time>
      </trkpt>
      <trkpt lat="54.350568037480116" lon="10.915554016828537">
        <ele>24.170000000000002</ele>
        <time>2019-05-08T10:38:24Z</time>
      </trkpt>
      <trkpt lat="54.350466029718518" lon="10.915172975510359">
        <ele>24.170000000000002</ele>
        <time>2019-05-08T10:38:25Z</time>
      </trkpt>
      <trkpt lat="54.350372990593314" lon="10.914776008576155">
        <ele>24.170000000000002</ele>
        <time>2019-05-08T10:38:26Z</time>
      </trkpt>
      <trkpt lat="54.349607974290848" lon="10.911897998303175">
        <ele>25.129999999999999</ele>
        <time>2019-05-08T10:38:34Z</time>
      </trkpt>
      <trkpt lat="54.348417995497584" lon="10.909704035148025">
        <ele>26.09</ele>
        <time>2019-05-08T10:38:41Z</time>
      </trkpt>
      <trkpt lat="54.346143985167146" lon="10.90533597394824">
        <ele>27.530000000000001</ele>
        <time>2019-05-08T10:38:54Z</time>
      </trkpt>
      <trkpt lat="54.345740983262658" lon="10.904307011514902">
        <ele>28.98</ele>
        <time>2019-05-08T10:38:57Z</time>
      </trkpt>
      <trkpt lat="54.345582984387875" lon="10.903987996280193">
        <ele>29.460000000000001</ele>
        <time>2019-05-08T10:38:58Z</time>
      </trkpt>
      <trkpt lat="54.344430975615978" lon="10.902130985632539">
        <ele>28.5</ele>
        <time>2019-05-08T10:39:05Z</time>
      </trkpt>
      <trkpt lat="54.343493962660432" lon="10.900488970801234">
        <ele>28.98</ele>
        <time>2019-05-08T10:39:12Z</time>
      </trkpt>
      <trkpt lat="54.343387009575963" lon="10.900226030498743">
        <ele>28.98</ele>
        <time>2019-05-08T10:39:13Z</time>
      </trkpt>
      <trkpt lat="54.343301011249423" lon="10.899953031912446">
        <ele>28.5</ele>
        <time>2019-05-08T10:39:14Z</time>
      </trkpt>
      <trkpt lat="54.34325298294425" lon="10.899626975879073">
        <ele>28.5</ele>
        <time>2019-05-08T10:39:15Z</time>
      </trkpt>
      <trkpt lat="54.343205960467458" lon="10.899293962866068">
        <ele>28.5</ele>
        <time>2019-05-08T10:39:16Z</time>
      </trkpt>
      <trkpt lat="54.343181988224387" lon="10.898945024237037">
        <ele>28.5</ele>
        <time>2019-05-08T10:39:17Z</time>
      </trkpt>
      <trkpt lat="54.342962969094515" lon="10.896819038316607">
        <ele>28.02</ele>
        <time>2019-05-08T10:39:23Z</time>
      </trkpt>
      <trkpt lat="54.342872025445104" lon="10.896437996998429">
        <ele>28.02</ele>
        <time>2019-05-08T10:39:24Z</time>
      </trkpt>
      <trkpt lat="54.34273699298501" lon="10.896068019792438">
        <ele>28.02</ele>
        <time>2019-05-08T10:39:25Z</time>
      </trkpt>
      <trkpt lat="54.342578994110227" lon="10.895699970424175">
        <ele>28.5</ele>
        <time>2019-05-08T10:39:26Z</time>
      </trkpt>
      <trkpt lat="54.342416971921921" lon="10.895322030410171">
        <ele>28.98</ele>
        <time>2019-05-08T10:39:27Z</time>
      </trkpt>
      <trkpt lat="54.341783970594406" lon="10.893768025562167">
        <ele>29.460000000000001</ele>
        <time>2019-05-08T10:39:31Z</time>
      </trkpt>
      <trkpt lat="54.341653967276216" lon="10.89338899590075">
        <ele>29.940000000000001</ele>
        <time>2019-05-08T10:39:32Z</time>
      </trkpt>
      <trkpt lat="54.341321960091591" lon="10.89235601015389">
        <ele>30.420000000000002</ele>
        <time>2019-05-08T10:39:35Z</time>
      </trkpt>
      <trkpt lat="54.341181982308626" lon="10.892108995467424">
        <ele>30.420000000000002</ele>
        <time>2019-05-08T10:39:36Z</time>
      </trkpt>
      <trkpt lat="54.34103898704052" lon="10.891900034621358">
        <ele>30.899999999999999</ele>
        <time>2019-05-08T10:39:37Z</time>
      </trkpt>
      <trkpt lat="54.340886017307639" lon="10.891744969412684">
        <ele>30.899999999999999</ele>
        <time>2019-05-08T10:39:38Z</time>
      </trkpt>
      <trkpt lat="54.340705974027514" lon="10.891622006893158">
        <ele>30.899999999999999</ele>
        <time>2019-05-08T10:39:39Z</time>
      </trkpt>
      <trkpt lat="54.340512016788125" lon="10.891527961939573">
        <ele>30.420000000000002</ele>
        <time>2019-05-08T10:39:40Z</time>
      </trkpt>
      <trkpt lat="54.340304983779788" lon="10.891492003574967">
        <ele>30.420000000000002</ele>
        <time>2019-05-08T10:39:41Z</time>
      </trkpt>
      <trkpt lat="54.340080013498664" lon="10.891509018838406">
        <ele>29.940000000000001</ele>
        <time>2019-05-08T10:39:42Z</time>
      </trkpt>
      <trkpt lat="54.339841967448592" lon="10.891527961939573">
        <ele>29.940000000000001</ele>
        <time>2019-05-08T10:39:43Z</time>
      </trkpt>
      <trkpt lat="54.337421022355556" lon="10.891857035458088">
        <ele>26.57</ele>
        <time>2019-05-08T10:39:52Z</time>
      </trkpt>
      <trkpt lat="54.335960978642106" lon="10.89231301099062">
        <ele>23.690000000000001</ele>
        <time>2019-05-08T10:39:58Z</time>
      </trkpt>
      <trkpt lat="54.334096005186439" lon="10.892660021781921">
        <ele>20.32</ele>
        <time>2019-05-08T10:40:05Z</time>
      </trkpt>
      <trkpt lat="54.331316985189915" lon="10.892875017598271">
        <ele>16</ele>
        <time>2019-05-08T10:40:15Z</time>
      </trkpt>
      <trkpt lat="54.329877980053425" lon="10.892588021233678">
        <ele>16</ele>
        <time>2019-05-08T10:40:21Z</time>
      </trkpt>
      <trkpt lat="54.32877098210156" lon="10.892252996563911">
        <ele>18.879999999999999</ele>
        <time>2019-05-08T10:40:28Z</time>
      </trkpt>
      <trkpt lat="54.328636033460498" lon="10.892144031822681">
        <ele>19.84</ele>
        <time>2019-05-08T10:40:29Z</time>
      </trkpt>
      <trkpt lat="54.328499995172024" lon="10.8920359890908">
        <ele>20.32</ele>
        <time>2019-05-08T10:40:30Z</time>
      </trkpt>
      <trkpt lat="54.32836496271193" lon="10.891928030177951">
        <ele>20.809999999999999</ele>
        <time>2019-05-08T10:40:31Z</time>
      </trkpt>
      <trkpt lat="54.328242000192404" lon="10.891804983839393">
        <ele>20.809999999999999</ele>
        <time>2019-05-08T10:40:32Z</time>
      </trkpt>
      <trkpt lat="54.327638000249863" lon="10.891190003603697">
        <ele>20.809999999999999</ele>
        <time>2019-05-08T10:40:37Z</time>
      </trkpt>
      <trkpt lat="54.327505985274911" lon="10.891141975298524">
        <ele>21.289999999999999</ele>
        <time>2019-05-08T10:40:38Z</time>
      </trkpt>
      <trkpt lat="54.327368019148707" lon="10.891092019155622">
        <ele>21.289999999999999</ele>
        <time>2019-05-08T10:40:39Z</time>
      </trkpt>
      <trkpt lat="54.327226029708982" lon="10.89111004024744">
        <ele>21.289999999999999</ele>
        <time>2019-05-08T10:40:40Z</time>
      </trkpt>
      <trkpt lat="54.32707398198545" lon="10.891157984733582">
        <ele>21.289999999999999</ele>
        <time>2019-05-08T10:40:41Z</time>
      </trkpt>
      <trkpt lat="54.326920006424189" lon="10.891207018867135">
        <ele>21.289999999999999</ele>
        <time>2019-05-08T10:40:42Z</time>
      </trkpt>
      <trkpt lat="54.325943011790514" lon="10.891730971634388">
        <ele>20.809999999999999</ele>
        <time>2019-05-08T10:40:49Z</time>
      </trkpt>
      <trkpt lat="54.325673030689359" lon="10.891766007989645">
        <ele>20.809999999999999</ele>
        <time>2019-05-08T10:40:51Z</time>
      </trkpt>
      <trkpt lat="54.325544033199549" lon="10.891783023253083">
        <ele>20.809999999999999</ele>
        <time>2019-05-08T10:40:52Z</time>
      </trkpt>
      <trkpt lat="54.325023014098406" lon="10.891655031591654">
        <ele>20.809999999999999</ele>
        <time>2019-05-08T10:40:56Z</time>
      </trkpt>
      <trkpt lat="54.324888987466693" lon="10.891591999679804">
        <ele>20.809999999999999</ele>
        <time>2019-05-08T10:40:57Z</time>
      </trkpt>
      <trkpt lat="54.32475202716887" lon="10.891526034101844">
        <ele>20.32</ele>
        <time>2019-05-08T10:40:58Z</time>
      </trkpt>
      <trkpt lat="54.32462596334517" lon="10.891412040218711">
        <ele>20.32</ele>
        <time>2019-05-08T10:40:59Z</time>
      </trkpt>
      <trkpt lat="54.324505012482405" lon="10.891274996101856">
        <ele>19.84</ele>
        <time>2019-05-08T10:41:00Z</time>
      </trkpt>
      <trkpt lat="54.32436796836555" lon="10.891121020540595">
        <ele>19.84</ele>
        <time>2019-05-08T10:41:01Z</time>
      </trkpt>
      <trkpt lat="54.324273001402617" lon="10.890945000573993">
        <ele>19.84</ele>
        <time>2019-05-08T10:41:02Z</time>
      </trkpt>
      <trkpt lat="54.324166970327497" lon="10.890747020021081">
        <ele>19.84</ele>
        <time>2019-05-08T10:41:03Z</time>
      </trkpt>
      <trkpt lat="54.323038011789322" lon="10.888607958331704">
        <ele>20.32</ele>
        <time>2019-05-08T10:41:14Z</time>
      </trkpt>
      <trkpt lat="54.322563009336591" lon="10.887886025011539">
        <ele>20.32</ele>
        <time>2019-05-08T10:41:18Z</time>
      </trkpt>
      <trkpt lat="54.322416996583343" lon="10.887762978672981">
        <ele>20.32</ele>
        <time>2019-05-08T10:41:19Z</time>
      </trkpt>
      <trkpt lat="54.322256986051798" lon="10.887641021981835">
        <ele>20.809999999999999</ele>
        <time>2019-05-08T10:41:20Z</time>
      </trkpt>
      <trkpt lat="54.322092030197382" lon="10.887515963986516">
        <ele>20.809999999999999</ele>
        <time>2019-05-08T10:41:21Z</time>
      </trkpt>
      <trkpt lat="54.321922967210412" lon="10.887434994801879">
        <ele>21.289999999999999</ele>
        <time>2019-05-08T10:41:22Z</time>
      </trkpt>
      <trkpt lat="54.321739990264177" lon="10.887398030608892">
        <ele>21.77</ele>
        <time>2019-05-08T10:41:23Z</time>
      </trkpt>
      <trkpt lat="54.321560030803084" lon="10.887368023395538">
        <ele>21.77</ele>
        <time>2019-05-08T10:41:24Z</time>
      </trkpt>
      <trkpt lat="54.321366995573044" lon="10.88739300146699">
        <ele>21.77</ele>
        <time>2019-05-08T10:41:25Z</time>
      </trkpt>
      <trkpt lat="54.32116499170661" lon="10.887439018115401">
        <ele>22.25</ele>
        <time>2019-05-08T10:41:26Z</time>
      </trkpt>
      <trkpt lat="54.320945972576737" lon="10.887513030320406">
        <ele>22.25</ele>
        <time>2019-05-08T10:41:27Z</time>
      </trkpt>
      <trkpt lat="54.319199016317725" lon="10.888092974200845">
        <ele>22.25</ele>
        <time>2019-05-08T10:41:34Z</time>
      </trkpt>
      <trkpt lat="54.318439029157162" lon="10.888266982510686">
        <ele>22.25</ele>
        <time>2019-05-08T10:41:37Z</time>
      </trkpt>
      <trkpt lat="54.318188996985555" lon="10.888266982510686">
        <ele>22.25</ele>
        <time>2019-05-08T10:41:38Z</time>
      </trkpt>
      <trkpt lat="54.317946005612612" lon="10.888261031359434">
        <ele>22.73</ele>
        <time>2019-05-08T10:41:39Z</time>
      </trkpt>
      <trkpt lat="54.316807994619012" lon="10.887994989752769">
        <ele>25.609999999999999</ele>
        <time>2019-05-08T10:41:45Z</time>
      </trkpt>
      <trkpt lat="54.315502010285854" lon="10.887690978124738">
        <ele>23.690000000000001</ele>
        <time>2019-05-08T10:41:54Z</time>
      </trkpt>
      <trkpt lat="54.313956974074244" lon="10.887365005910397">
        <ele>18.399999999999999</ele>
        <time>2019-05-08T10:42:03Z</time>
      </trkpt>
      <trkpt lat="54.312058975920081" lon="10.886936020106077">
        <ele>15.52</ele>
        <time>2019-05-08T10:42:11Z</time>
      </trkpt>
      <trkpt lat="54.309149030596018" lon="10.886607030406594">
        <ele>9.75</ele>
        <time>2019-05-08T10:42:22Z</time>
      </trkpt>
      <trkpt lat="54.306137999519706" lon="10.886987987905741">
        <ele>3.98</ele>
        <time>2019-05-08T10:42:33Z</time>
      </trkpt>
      <trkpt lat="54.303174996748567" lon="10.887242965400219">
        <ele>0.62</ele>
        <time>2019-05-08T10:42:44Z</time>
      </trkpt>
      <trkpt lat="54.302227003499866" lon="10.88750196620822">
        <ele>0.62</ele>
        <time>2019-05-08T10:42:49Z</time>
      </trkpt>
      <trkpt lat="54.301368026062846" lon="10.887837996706367">
        <ele>1.58</ele>
        <time>2019-05-08T10:42:55Z</time>
      </trkpt>
      <trkpt lat="54.301214972510934" lon="10.887879990041256">
        <ele>2.06</ele>
        <time>2019-05-08T10:42:56Z</time>
      </trkpt>
      <trkpt lat="54.301084969192743" lon="10.88784403167665">
        <ele>2.06</ele>
        <time>2019-05-08T10:42:57Z</time>
      </trkpt>
      <trkpt lat="54.300936022773385" lon="10.887794997543097">
        <ele>2.54</ele>
        <time>2019-05-08T10:42:58Z</time>
      </trkpt>
      <trkpt lat="54.300791015848517" lon="10.887708999216557">
        <ele>2.54</ele>
        <time>2019-05-08T10:42:59Z</time>
      </trkpt>
      <trkpt lat="54.300651038065553" lon="10.887597016990185">
        <ele>2.54</ele>
        <time>2019-05-08T10:43:00Z</time>
      </trkpt>
      <trkpt lat="54.300513993948698" lon="10.887486962601542">
        <ele>2.06</ele>
        <time>2019-05-08T10:43:01Z</time>
      </trkpt>
      <trkpt lat="54.298897041007876" lon="10.886352974921465">
        <ele>-3.23</ele>
        <time>2019-05-08T10:43:12Z</time>
      </trkpt>
      <trkpt lat="54.297961033880711" lon="10.886071007698774">
        <ele>-5.63</ele>
        <time>2019-05-08T10:43:19Z</time>
      </trkpt>
      <trkpt lat="54.297851985320449" lon="10.88601702824235">
        <ele>-6.11</ele>
        <time>2019-05-08T10:43:20Z</time>
      </trkpt>
      <trkpt lat="54.297749977558851" lon="10.885944021865726">
        <ele>-6.59</ele>
        <time>2019-05-08T10:43:21Z</time>
      </trkpt>
      <trkpt lat="54.297100966796279" lon="10.885338010266423">
        <ele>-9.48</ele>
        <time>2019-05-08T10:43:28Z</time>
      </trkpt>
      <trkpt lat="54.297007005661726" lon="10.88524698279798">
        <ele>-9.960000000000001</ele>
        <time>2019-05-08T10:43:29Z</time>
      </trkpt>
      <trkpt lat="54.296738030388951" lon="10.884989993646741">
        <ele>-10.44</ele>
        <time>2019-05-08T10:43:32Z</time>
      </trkpt>
      <trkpt lat="54.296647002920508" lon="10.884928973391652">
        <ele>-9.48</ele>
        <time>2019-05-08T10:43:33Z</time>
      </trkpt>
      <trkpt lat="54.296553963795304" lon="10.88490298949182">
        <ele>-9</ele>
        <time>2019-05-08T10:43:34Z</time>
      </trkpt>
      <trkpt lat="54.29645799100399" lon="10.884874993935227">
        <ele>-8.51</ele>
        <time>2019-05-08T10:43:35Z</time>
      </trkpt>
      <trkpt lat="54.296360006555915" lon="10.884868958964944">
        <ele>-8.029999999999999</ele>
        <time>2019-05-08T10:43:36Z</time>
      </trkpt>
      <trkpt lat="54.29626596160233" lon="10.884921010583639">
        <ele>-8.029999999999999</ele>
        <time>2019-05-08T10:43:37Z</time>
      </trkpt>
      <trkpt lat="54.296150961890817" lon="10.884983958676457">
        <ele>-7.07</ele>
        <time>2019-05-08T10:43:38Z</time>
      </trkpt>
      <trkpt lat="54.296072004362941" lon="10.885084960609674">
        <ele>-6.59</ele>
        <time>2019-05-08T10:43:39Z</time>
      </trkpt>
      <trkpt lat="54.29598399437964" lon="10.885201971977949">
        <ele>-6.11</ele>
        <time>2019-05-08T10:43:40Z</time>
      </trkpt>
      <trkpt lat="54.295901013538241" lon="10.885327029973269">
        <ele>-6.11</ele>
        <time>2019-05-08T10:43:41Z</time>
      </trkpt>
      <trkpt lat="54.295485019683838" lon="10.885950978845358">
        <ele>-5.15</ele>
        <time>2019-05-08T10:43:46Z</time>
      </trkpt>
      <trkpt lat="54.29540497250855" lon="10.886070001870394">
        <ele>-4.67</ele>
        <time>2019-05-08T10:43:47Z</time>
      </trkpt>
      <trkpt lat="54.295322997495532" lon="10.88619296438992">
        <ele>-4.67</ele>
        <time>2019-05-08T10:43:48Z</time>
      </trkpt>
      <trkpt lat="54.294840032234788" lon="10.886897966265678">
        <ele>-3.23</ele>
        <time>2019-05-08T10:43:54Z</time>
      </trkpt>
      <trkpt lat="54.294750010594726" lon="10.886992011219263">
        <ele>-2.75</ele>
        <time>2019-05-08T10:43:55Z</time>
      </trkpt>
      <trkpt lat="54.293968984857202" lon="10.887735988944769">
        <ele>1.58</ele>
        <time>2019-05-08T10:44:04Z</time>
      </trkpt>
      <trkpt lat="54.293446959927678" lon="10.887879990041256">
        <ele>5.42</ele>
        <time>2019-05-08T10:44:10Z</time>
      </trkpt>
      <trkpt lat="54.293288039043546" lon="10.888105966150761">
        <ele>9.27</ele>
        <time>2019-05-08T10:44:12Z</time>
      </trkpt>
      <trkpt lat="54.293215032666922" lon="10.888208979740739">
        <ele>10.710000000000001</ele>
        <time>2019-05-08T10:44:13Z</time>
      </trkpt>
      <trkpt lat="54.293143032118678" lon="10.888310987502337">
        <ele>12.15</ele>
        <time>2019-05-08T10:44:14Z</time>
      </trkpt>
      <trkpt lat="54.293075976893306" lon="10.888406038284302">
        <ele>13.119999999999999</ele>
        <time>2019-05-08T10:44:15Z</time>
      </trkpt>
      <trkpt lat="54.293017974123359" lon="10.8884890191257">
        <ele>13.6</ele>
        <time>2019-05-08T10:44:16Z</time>
      </trkpt>
      <trkpt lat="54.292975980788469" lon="10.888549033552408">
        <ele>14.08</ele>
        <time>2019-05-08T10:44:17Z</time>
      </trkpt>
      <trkpt lat="54.292842959985137" lon="10.888636959716678">
        <ele>15.039999999999999</ele>
        <time>2019-05-08T10:44:20Z</time>
      </trkpt>
      <trkpt lat="54.292889982461929" lon="10.88870401494205">
        <ele>15.039999999999999</ele>
        <time>2019-05-08T10:44:21Z</time>
      </trkpt>
      <trkpt lat="54.292853018268943" lon="10.888788001611829">
        <ele>15.52</ele>
        <time>2019-05-08T10:44:22Z</time>
      </trkpt>
      <trkpt lat="54.292844971641898" lon="10.888822032138705">
        <ele>15.52</ele>
        <time>2019-05-08T10:44:23Z</time>
      </trkpt>
      <trkpt lat="54.292830973863602" lon="10.888957986608148">
        <ele>15.52</ele>
        <time>2019-05-08T10:44:24Z</time>
      </trkpt>
      <trkpt lat="54.292814964428544" lon="10.889112967997789">
        <ele>15.52</ele>
        <time>2019-05-08T10:44:25Z</time>
      </trkpt>
      <trkpt lat="54.292798032984138" lon="10.889286976307631">
        <ele>15.52</ele>
        <time>2019-05-08T10:44:26Z</time>
      </trkpt>
      <trkpt lat="54.292760984972119" lon="10.889660976827145">
        <ele>14.56</ele>
        <time>2019-05-08T10:44:28Z</time>
      </trkpt>
      <trkpt lat="54.292682027444243" lon="10.889857029542327">
        <ele>14.08</ele>
        <time>2019-05-08T10:44:29Z</time>
      </trkpt>
      <trkpt lat="54.292583037167788" lon="10.889975968748331">
        <ele>13.6</ele>
        <time>2019-05-08T10:44:30Z</time>
      </trkpt>
      <trkpt lat="54.292488992214203" lon="10.890078982338309">
        <ele>12.630000000000001</ele>
        <time>2019-05-08T10:44:31Z</time>
      </trkpt>
      <trkpt lat="54.292373992502689" lon="10.890146037563682">
        <ele>11.67</ele>
        <time>2019-05-08T10:44:32Z</time>
      </trkpt>
      <trkpt lat="54.292248012498021" lon="10.890171015635133">
        <ele>11.19</ele>
        <time>2019-05-08T10:44:33Z</time>
      </trkpt>
      <trkpt lat="54.292137958109379" lon="10.890156012028456">
        <ele>10.23</ele>
        <time>2019-05-08T10:44:34Z</time>
      </trkpt>
      <trkpt lat="54.292029999196529" lon="10.890131033957005">
        <ele>9.75</ele>
        <time>2019-05-08T10:44:35Z</time>
      </trkpt>
      <trkpt lat="54.291287027299404" lon="10.889915032312274">
        <ele>6.39</ele>
        <time>2019-05-08T10:44:44Z</time>
      </trkpt>
      <trkpt lat="54.291074965149164" lon="10.88988896459341">
        <ele>5.91</ele>
        <time>2019-05-08T10:44:47Z</time>
      </trkpt>
      <trkpt lat="54.291010005399585" lon="10.889899022877216">
        <ele>5.42</ele>
        <time>2019-05-08T10:44:48Z</time>
      </trkpt>
      <trkpt lat="54.290954014286399" lon="10.88990899734199">
        <ele>5.42</ele>
        <time>2019-05-08T10:44:49Z</time>
      </trkpt>
      <trkpt lat="54.290679004043341" lon="10.890034977346659">
        <ele>3.98</ele>
        <time>2019-05-08T10:44:59Z</time>
      </trkpt>
      <trkpt lat="54.290599040687084" lon="10.890045035630465">
        <ele>3.5</ele>
        <time>2019-05-08T10:45:23Z</time>
      </trkpt>
      <trkpt lat="54.290531985461712" lon="10.890054004266858">
        <ele>3.98</ele>
        <time>2019-05-08T10:45:25Z</time>
      </trkpt>
      <trkpt lat="54.29044196382165" lon="10.88993196375668">
        <ele>3.5</ele>
        <time>2019-05-08T10:45:27Z</time>
      </trkpt>
      <trkpt lat="54.290467025712132" lon="10.889758039265871">
        <ele>3.5</ele>
        <time>2019-05-08T10:45:28Z</time>
      </trkpt>
      <trkpt lat="54.290484040975571" lon="10.889644967392087">
        <ele>3.5</ele>
        <time>2019-05-08T10:45:29Z</time>
      </trkpt>
      <trkpt lat="54.290503989905119" lon="10.889510018751025">
        <ele>3.02</ele>
        <time>2019-05-08T10:45:30Z</time>
      </trkpt>
      <trkpt lat="54.29052896797657" lon="10.889340033754706">
        <ele>2.54</ele>
        <time>2019-05-08T10:45:31Z</time>
      </trkpt>
      <trkpt lat="54.290556041523814" lon="10.8891970384866">
        <ele>2.06</ele>
        <time>2019-05-08T10:45:32Z</time>
      </trkpt>
      <trkpt lat="54.290603986009955" lon="10.888897972181439">
        <ele>2.06</ele>
        <time>2019-05-08T10:45:34Z</time>
      </trkpt>
      <trkpt lat="54.290619995445013" lon="10.888741984963417">
        <ele>1.58</ele>
        <time>2019-05-08T10:45:35Z</time>
      </trkpt>
      <trkpt lat="54.290636004880071" lon="10.888589015230536">
        <ele>1.58</ele>
        <time>2019-05-08T10:45:36Z</time>
      </trkpt>
      <trkpt lat="54.290612032637" lon="10.888429004698992">
        <ele>1.1</ele>
        <time>2019-05-08T10:45:37Z</time>
      </trkpt>
      <trkpt lat="54.290585964918137" lon="10.888250973075628">
        <ele>1.1</ele>
        <time>2019-05-08T10:45:38Z</time>
      </trkpt>
      <trkpt lat="54.290553024038672" lon="10.888092974200845">
        <ele>1.1</ele>
        <time>2019-05-08T10:45:39Z</time>
      </trkpt>
      <trkpt lat="54.290512958541512" lon="10.887944027781487">
        <ele>1.1</ele>
        <time>2019-05-08T10:45:40Z</time>
      </trkpt>
      <trkpt lat="54.290473982691765" lon="10.887805977836251">
        <ele>1.1</ele>
        <time>2019-05-08T10:45:41Z</time>
      </trkpt>
      <trkpt lat="54.29043903015554" lon="10.887676980346441">
        <ele>0.62</ele>
        <time>2019-05-08T10:45:42Z</time>
      </trkpt>
      <trkpt lat="54.290214981883764" lon="10.886993017047644">
        <ele>-0.82</ele>
        <time>2019-05-08T10:45:49Z</time>
      </trkpt>
      <trkpt lat="54.290120014920831" lon="10.886764023452997">
        <ele>-1.79</ele>
        <time>2019-05-08T10:45:52Z</time>
      </trkpt>
      <trkpt lat="54.289986994117498" lon="10.886442996561527">
        <ele>-2.75</ele>
        <time>2019-05-08T10:46:01Z</time>
      </trkpt>
      <trkpt lat="54.289853973314166" lon="10.88619296438992">
        <ele>-3.23</ele>
        <time>2019-05-08T10:46:09Z</time>
      </trkpt>
      <trkpt lat="54.289793958887458" lon="10.886128004640341">
        <ele>-3.71</ele>
        <time>2019-05-08T10:46:48Z</time>
      </trkpt>
      <trkpt lat="54.289742996916175" lon="10.886072013527155">
        <ele>-3.71</ele>
        <time>2019-05-08T10:46:49Z</time>
      </trkpt>
      <trkpt lat="54.289678959175944" lon="10.886003030464053">
        <ele>-3.23</ele>
        <time>2019-05-08T10:46:50Z</time>
      </trkpt>
      <trkpt lat="54.289616011083126" lon="10.885956007987261">
        <ele>-3.71</ele>
        <time>2019-05-08T10:46:51Z</time>
      </trkpt>
      <trkpt lat="54.289537975564599" lon="10.885919965803623">
        <ele>-3.71</ele>
        <time>2019-05-08T10:46:52Z</time>
      </trkpt>
      <trkpt lat="54.28945298306644" lon="10.885880989953876">
        <ele>-4.19</ele>
        <time>2019-05-08T10:46:53Z</time>
      </trkpt>
      <trkpt lat="54.289357010275126" lon="10.885836984962225">
        <ele>-4.19</ele>
        <time>2019-05-08T10:46:54Z</time>
      </trkpt>
      <trkpt lat="54.288513958454132" lon="10.885303979739547">
        <ele>-5.15</ele>
        <time>2019-05-08T10:47:02Z</time>
      </trkpt>
      <trkpt lat="54.288425026461482" lon="10.885174982249737">
        <ele>-5.15</ele>
        <time>2019-05-08T10:47:03Z</time>
      </trkpt>
      <trkpt lat="54.288339028134942" lon="10.88503098115325">
        <ele>-5.63</ele>
        <time>2019-05-08T10:47:04Z</time>
      </trkpt>
      <trkpt lat="54.288259986788034" lon="10.884871976450086">
        <ele>-5.63</ele>
        <time>2019-05-08T10:47:05Z</time>
      </trkpt>
      <trkpt lat="54.28818304091692" lon="10.884684976190329">
        <ele>-6.11</ele>
        <time>2019-05-08T10:47:06Z</time>
      </trkpt>
      <trkpt lat="54.287855979055166" lon="10.883888024836779">
        <ele>-5.63</ele>
        <time>2019-05-08T10:47:10Z</time>
      </trkpt>
      <trkpt lat="54.287767969071865" lon="10.883693983778358">
        <ele>-5.63</ele>
        <time>2019-05-08T10:47:11Z</time>
      </trkpt>
      <trkpt lat="54.28766998462379" lon="10.883513018488884">
        <ele>-5.63</ele>
        <time>2019-05-08T10:47:12Z</time>
      </trkpt>
      <trkpt lat="54.287556996569037" lon="10.883356025442481">
        <ele>-5.63</ele>
        <time>2019-05-08T10:47:13Z</time>
      </trkpt>
      <trkpt lat="54.287444008514285" lon="10.883209006860852">
        <ele>-5.15</ele>
        <time>2019-05-08T10:47:14Z</time>
      </trkpt>
      <trkpt lat="54.286448992788792" lon="10.882237963378429">
        <ele>-3.23</ele>
        <time>2019-05-08T10:47:23Z</time>
      </trkpt>
      <trkpt lat="54.285363033413887" lon="10.882002012804151">
        <ele>-1.3</ele>
        <time>2019-05-08T10:47:32Z</time>
      </trkpt>
      <trkpt lat="54.284866992384195" lon="10.882060015574098">
        <ele>-0.82</ele>
        <time>2019-05-08T10:47:37Z</time>
      </trkpt>
      <trkpt lat="54.284781999886036" lon="10.882037971168756">
        <ele>-1.3</ele>
        <time>2019-05-08T10:47:38Z</time>
      </trkpt>
      <trkpt lat="54.284719973802567" lon="10.881992960348725">
        <ele>-1.3</ele>
        <time>2019-05-08T10:47:39Z</time>
      </trkpt>
      <trkpt lat="54.284658031538129" lon="10.881889024749398">
        <ele>-1.3</ele>
        <time>2019-05-08T10:47:40Z</time>
      </trkpt>
      <trkpt lat="54.284639004617929" lon="10.881780982017517">
        <ele>-1.3</ele>
        <time>2019-05-08T10:47:41Z</time>
      </trkpt>
      <trkpt lat="54.284628024324775" lon="10.881665982306004">
        <ele>-1.79</ele>
        <time>2019-05-08T10:47:42Z</time>
      </trkpt>
      <trkpt lat="54.284650990739465" lon="10.881527010351419">
        <ele>-2.27</ele>
        <time>2019-05-08T10:47:43Z</time>
      </trkpt>
      <trkpt lat="54.284702958539128" lon="10.88142198510468">
        <ele>-2.27</ele>
        <time>2019-05-08T10:47:44Z</time>
      </trkpt>
      <trkpt lat="54.284762972965837" lon="10.881302040070295">
        <ele>-2.75</ele>
        <time>2019-05-08T10:47:45Z</time>
      </trkpt>
      <trkpt lat="54.28483203984797" lon="10.881173964589834">
        <ele>-2.75</ele>
        <time>2019-05-08T10:47:46Z</time>
      </trkpt>
      <trkpt lat="54.285620022565126" lon="10.879807965829968">
        <ele>-3.23</ele>
        <time>2019-05-08T10:47:56Z</time>
      </trkpt>
      <trkpt lat="54.285816997289658" lon="10.879461038857698">
        <ele>-2.75</ele>
        <time>2019-05-08T10:48:02Z</time>
      </trkpt>
      <trkpt lat="54.285816997289658" lon="10.879461038857698">
        <ele>-2.75</ele>
        <time>2019-05-08T10:48:16Z</time>
      </trkpt>
      <trkpt lat="54.285827977582812" lon="10.879442011937499">
        <ele>-2.75</ele>
        <time>2019-05-08T10:48:37Z</time>
      </trkpt>
      <trkpt lat="54.285855973139405" lon="10.879390966147184">
        <ele>-1.79</ele>
        <time>2019-05-08T10:48:38Z</time>
      </trkpt>
      <trkpt lat="54.285892015323043" lon="10.879328018054366">
        <ele>-1.79</ele>
        <time>2019-05-08T10:48:39Z</time>
      </trkpt>
      <trkpt lat="54.285957980901003" lon="10.879212012514472">
        <ele>-1.79</ele>
        <time>2019-05-08T10:48:40Z</time>
      </trkpt>
      <trkpt lat="54.285855973139405" lon="10.879118973389268">
        <ele>-1.79</ele>
        <time>2019-05-08T10:48:41Z</time>
      </trkpt>
      <trkpt lat="54.285784978419542" lon="10.879054013639688">
        <ele>-1.3</ele>
        <time>2019-05-08T10:48:42Z</time>
      </trkpt>
      <trkpt lat="54.285698980093002" lon="10.878983018919826">
        <ele>-1.3</ele>
        <time>2019-05-08T10:48:43Z</time>
      </trkpt>
      <trkpt lat="54.285595966503024" lon="10.878920992836356">
        <ele>-1.79</ele>
        <time>2019-05-08T10:48:44Z</time>
      </trkpt>
      <trkpt lat="54.285485995933414" lon="10.878855027258396">
        <ele>-1.79</ele>
        <time>2019-05-08T10:48:45Z</time>
      </trkpt>
      <trkpt lat="54.285367978736758" lon="10.87880096398294">
        <ele>-1.79</ele>
        <time>2019-05-08T10:48:46Z</time>
      </trkpt>
      <trkpt lat="54.284309009090066" lon="10.878782020881772">
        <ele>-1.3</ele>
        <time>2019-05-08T10:48:55Z</time>
      </trkpt>
      <trkpt lat="54.284185040742159" lon="10.878843041136861">
        <ele>-0.82</ele>
        <time>2019-05-08T10:48:56Z</time>
      </trkpt>
      <trkpt lat="54.284061994403601" lon="10.878904983401299">
        <ele>-0.82</ele>
        <time>2019-05-08T10:48:57Z</time>
      </trkpt>
      <trkpt lat="54.283940037712455" lon="10.878966003656387">
        <ele>-0.34</ele>
        <time>2019-05-08T10:48:58Z</time>
      </trkpt>
      <trkpt lat="54.28384599275887" lon="10.879093995317817">
        <ele>0.14</ele>
        <time>2019-05-08T10:48:59Z</time>
      </trkpt>
      <trkpt lat="54.28375898860395" lon="10.879232967272401">
        <ele>0.14</ele>
        <time>2019-05-08T10:49:00Z</time>
      </trkpt>
      <trkpt lat="54.283671984449029" lon="10.879373028874397">
        <ele>0.62</ele>
        <time>2019-05-08T10:49:01Z</time>
      </trkpt>
      <trkpt lat="54.283590009436011" lon="10.87950998917222">
        <ele>1.1</ele>
        <time>2019-05-08T10:49:02Z</time>
      </trkpt>
      <trkpt lat="54.283519014716148" lon="10.879674023017287">
        <ele>1.58</ele>
        <time>2019-05-08T10:49:03Z</time>
      </trkpt>
      <trkpt lat="54.283425975590944" lon="10.879834033548832">
        <ele>1.58</ele>
        <time>2019-05-08T10:49:04Z</time>
      </trkpt>
      <trkpt lat="54.283323967829347" lon="10.87993604131043">
        <ele>1.58</ele>
        <time>2019-05-08T10:49:05Z</time>
      </trkpt>
      <trkpt lat="54.283254984766245" lon="10.880005024373531">
        <ele>1.58</ele>
        <time>2019-05-08T10:49:06Z</time>
      </trkpt>
      <trkpt lat="54.28317703306675" lon="10.880036037415266">
        <ele>1.58</ele>
        <time>2019-05-08T10:49:07Z</time>
      </trkpt>
      <trkpt lat="54.283153982833028" lon="10.88004601188004">
        <ele>1.58</ele>
        <time>2019-05-08T10:49:08Z</time>
      </trkpt>
      <trkpt lat="54.283147025853395" lon="10.880048023536801">
        <ele>1.58</ele>
        <time>2019-05-08T10:49:09Z</time>
      </trkpt>
      <trkpt lat="54.283147025853395" lon="10.880048023536801">
        <ele>1.58</ele>
        <time>2019-05-08T10:49:10Z</time>
      </trkpt>
      <trkpt lat="54.283107966184616" lon="10.88004601188004">
        <ele>1.1</ele>
        <time>2019-05-08T10:49:11Z</time>
      </trkpt>
      <trkpt lat="54.283076031133533" lon="10.880042994394898">
        <ele>0.14</ele>
        <time>2019-05-08T10:49:12Z</time>
      </trkpt>
      <trkpt lat="54.283024985343218" lon="10.880039976909757">
        <ele>-0.34</ele>
        <time>2019-05-08T10:49:13Z</time>
      </trkpt>
      <trkpt lat="54.282957008108497" lon="10.880035031586885">
        <ele>-0.82</ele>
        <time>2019-05-08T10:49:14Z</time>
      </trkpt>
      <trkpt lat="54.282865980640054" lon="10.880027990788221">
        <ele>-1.79</ele>
        <time>2019-05-08T10:49:15Z</time>
      </trkpt>
      <trkpt lat="54.282626006752253" lon="10.880010975524783">
        <ele>-2.75</ele>
        <time>2019-05-08T10:49:17Z</time>
      </trkpt>
      <trkpt lat="54.282332975417376" lon="10.88008800521493">
        <ele>-2.75</ele>
        <time>2019-05-08T10:49:19Z</time>
      </trkpt>
      <trkpt lat="54.281691005453467" lon="10.880238963291049">
        <ele>-2.75</ele>
        <time>2019-05-08T10:49:23Z</time>
      </trkpt>
      <trkpt lat="54.281532000750303" lon="10.88021800853312">
        <ele>-2.75</ele>
        <time>2019-05-08T10:49:24Z</time>
      </trkpt>
      <trkpt lat="54.281216003000736" lon="10.880177021026611">
        <ele>-3.23</ele>
        <time>2019-05-08T10:49:26Z</time>
      </trkpt>
      <trkpt lat="54.281047023832798" lon="10.880203004926443">
        <ele>-3.71</ele>
        <time>2019-05-08T10:49:27Z</time>
      </trkpt>
      <trkpt lat="54.280872009694576" lon="10.880241980776191">
        <ele>-3.71</ele>
        <time>2019-05-08T10:49:28Z</time>
      </trkpt>
      <trkpt lat="54.28068702109158" lon="10.880330996587873">
        <ele>-3.71</ele>
        <time>2019-05-08T10:49:29Z</time>
      </trkpt>
      <trkpt lat="54.280512006953359" lon="10.880473991855979">
        <ele>-3.71</ele>
        <time>2019-05-08T10:49:30Z</time>
      </trkpt>
      <trkpt lat="54.280331041663885" lon="10.880622016265988">
        <ele>-3.71</ele>
        <time>2019-05-08T10:49:31Z</time>
      </trkpt>
      <trkpt lat="54.280147980898619" lon="10.880800969898701">
        <ele>-3.71</ele>
        <time>2019-05-08T10:49:32Z</time>
      </trkpt>
      <trkpt lat="54.279157994315028" lon="10.881753992289305">
        <ele>-2.75</ele>
        <time>2019-05-08T10:49:37Z</time>
      </trkpt>
      <trkpt lat="54.278935035690665" lon="10.881901010870934">
        <ele>-2.75</ele>
        <time>2019-05-08T10:49:38Z</time>
      </trkpt>
      <trkpt lat="54.278718028217554" lon="10.882043000310659">
        <ele>-2.27</ele>
        <time>2019-05-08T10:49:39Z</time>
      </trkpt>
      <trkpt lat="54.278498003259301" lon="10.882081976160407">
        <ele>-1.79</ele>
        <time>2019-05-08T10:49:40Z</time>
      </trkpt>
      <trkpt lat="54.278285019099712" lon="10.882101003080606">
        <ele>-1.79</ele>
        <time>2019-05-08T10:49:41Z</time>
      </trkpt>
      <trkpt lat="54.278084021061659" lon="10.882067978382111">
        <ele>-1.3</ele>
        <time>2019-05-08T10:49:42Z</time>
      </trkpt>
      <trkpt lat="54.277881011366844" lon="10.882003018632531">
        <ele>-1.3</ele>
        <time>2019-05-08T10:49:43Z</time>
      </trkpt>
      <trkpt lat="54.277678001672029" lon="10.881919031962752">
        <ele>-0.82</ele>
        <time>2019-05-08T10:49:44Z</time>
      </trkpt>
      <trkpt lat="54.277477003633976" lon="10.881799003109336">
        <ele>0.14</ele>
        <time>2019-05-08T10:49:45Z</time>
      </trkpt>
      <trkpt lat="54.275897014886141" lon="10.881105987355113">
        <ele>1.1</ele>
        <time>2019-05-08T10:49:52Z</time>
      </trkpt>
      <trkpt lat="54.273879993706942" lon="10.880493018776178">
        <ele>0.14</ele>
        <time>2019-05-08T10:50:01Z</time>
      </trkpt>
      <trkpt lat="54.27346802316606" lon="10.88036703877151">
        <ele>1.1</ele>
        <time>2019-05-08T10:50:04Z</time>
      </trkpt>
      <trkpt lat="54.273391999304295" lon="10.880342982709408">
        <ele>1.1</ele>
        <time>2019-05-08T10:50:05Z</time>
      </trkpt>
      <trkpt lat="54.273336008191109" lon="10.880211973562837">
        <ele>1.1</ele>
        <time>2019-05-08T10:50:06Z</time>
      </trkpt>
      <trkpt lat="54.273329973220825" lon="10.880081970244646">
        <ele>1.1</ele>
        <time>2019-05-08T10:50:07Z</time>
      </trkpt>
      <trkpt lat="54.273322010412812" lon="10.879919026046991">
        <ele>1.58</ele>
        <time>2019-05-08T10:50:08Z</time>
      </trkpt>
      <trkpt lat="54.273171974346042" lon="10.879074968397617">
        <ele>1.1</ele>
        <time>2019-05-08T10:50:12Z</time>
      </trkpt>
      <trkpt lat="54.273183960467577" lon="10.878805993124843">
        <ele>1.1</ele>
        <time>2019-05-08T10:50:13Z</time>
      </trkpt>
      <trkpt lat="54.273197036236525" lon="10.878507010638714">
        <ele>0.62</ele>
        <time>2019-05-08T10:50:14Z</time>
      </trkpt>
      <trkpt lat="54.273226037621498" lon="10.877842996269464">
        <ele>-0.82</ele>
        <time>2019-05-08T10:50:16Z</time>
      </trkpt>
      <trkpt lat="54.273204999044538" lon="10.877492967993021">
        <ele>-1.3</ele>
        <time>2019-05-08T10:50:17Z</time>
      </trkpt>
      <trkpt lat="54.273148002102971" lon="10.8771469630301">
        <ele>-1.3</ele>
        <time>2019-05-08T10:50:18Z</time>
      </trkpt>
      <trkpt lat="54.273086981847882" lon="10.876786038279533">
        <ele>-1.79</ele>
        <time>2019-05-08T10:50:19Z</time>
      </trkpt>
      <trkpt lat="54.273025039583445" lon="10.876412959769368">
        <ele>-1.79</ele>
        <time>2019-05-08T10:50:20Z</time>
      </trkpt>
      <trkpt lat="54.272971982136369" lon="10.876025967299938">
        <ele>-2.27</ele>
        <time>2019-05-08T10:50:21Z</time>
      </trkpt>
      <trkpt lat="54.272765032947063" lon="10.87383502162993">
        <ele>-4.19</ele>
        <time>2019-05-08T10:50:27Z</time>
      </trkpt>
      <trkpt lat="54.272768972441554" lon="10.873465966433287">
        <ele>-4.19</ele>
        <time>2019-05-08T10:50:28Z</time>
      </trkpt>
      <trkpt lat="54.272780958563089" lon="10.872087981551886">
        <ele>-4.67</ele>
        <time>2019-05-08T10:50:32Z</time>
      </trkpt>
      <trkpt lat="54.272763021290302" lon="10.871716998517513">
        <ele>-4.67</ele>
        <time>2019-05-08T10:50:33Z</time>
      </trkpt>
      <trkpt lat="54.272698983550072" lon="10.871363030746579">
        <ele>-4.67</ele>
        <time>2019-05-08T10:50:34Z</time>
      </trkpt>
      <trkpt lat="54.272634023800492" lon="10.871007973328233">
        <ele>-4.67</ele>
        <time>2019-05-08T10:50:35Z</time>
      </trkpt>
      <trkpt lat="54.272532016038895" lon="10.870669009163976">
        <ele>-4.67</ele>
        <time>2019-05-08T10:50:36Z</time>
      </trkpt>
      <trkpt lat="54.27241500467062" lon="10.870352005586028">
        <ele>-4.19</ele>
        <time>2019-05-08T10:50:37Z</time>
      </trkpt>
      <trkpt lat="54.272287013009191" lon="10.8700339961797">
        <ele>-4.19</ele>
        <time>2019-05-08T10:50:38Z</time>
      </trkpt>
      <trkpt lat="54.272123984992504" lon="10.869783964008093">
        <ele>-4.19</ele>
        <time>2019-05-08T10:50:39Z</time>
      </trkpt>
      <trkpt lat="54.271959029138088" lon="10.869532003998756">
        <ele>-4.19</ele>
        <time>2019-05-08T10:50:40Z</time>
      </trkpt>
      <trkpt lat="54.271762976422906" lon="10.869313990697265">
        <ele>-4.19</ele>
        <time>2019-05-08T10:50:41Z</time>
      </trkpt>
      <trkpt lat="54.271545968949795" lon="10.869107963517308">
        <ele>-3.71</ele>
        <time>2019-05-08T10:50:42Z</time>
      </trkpt>
      <trkpt lat="54.269551998004317" lon="10.867572985589504">
        <ele>-7.07</ele>
        <time>2019-05-08T10:50:50Z</time>
      </trkpt>
      <trkpt lat="54.268530998378992" lon="10.866998992860317">
        <ele>-14.279999999999999</ele>
        <time>2019-05-08T10:50:54Z</time>
      </trkpt>
      <trkpt lat="54.268279960379004" lon="10.866968985646963">
        <ele>-15.24</ele>
        <time>2019-05-08T10:50:55Z</time>
      </trkpt>
      <trkpt lat="54.268020037561655" lon="10.866937972605228">
        <ele>-16.210000000000001</ele>
        <time>2019-05-08T10:50:56Z</time>
      </trkpt>
      <trkpt lat="54.266617996618152" lon="10.867295963689685">
        <ele>-16.210000000000001</ele>
        <time>2019-05-08T10:51:03Z</time>
      </trkpt>
      <trkpt lat="54.266449017450213" lon="10.867323959246278">
        <ele>-16.210000000000001</ele>
        <time>2019-05-08T10:51:04Z</time>
      </trkpt>
      <trkpt lat="54.266283977776766" lon="10.867323959246278">
        <ele>-16.210000000000001</ele>
        <time>2019-05-08T10:51:05Z</time>
      </trkpt>
      <trkpt lat="54.266114998608828" lon="10.867297975346446">
        <ele>-16.210000000000001</ele>
        <time>2019-05-08T10:51:06Z</time>
      </trkpt>
      <trkpt lat="54.265929004177451" lon="10.867217006161809">
        <ele>-15.720000000000001</ele>
        <time>2019-05-08T10:51:07Z</time>
      </trkpt>
      <trkpt lat="54.265716020017862" lon="10.867124972864985">
        <ele>-15.24</ele>
        <time>2019-05-08T10:51:08Z</time>
      </trkpt>
      <trkpt lat="54.264838015660644" lon="10.866523990407586">
        <ele>-13.32</ele>
        <time>2019-05-08T10:51:12Z</time>
      </trkpt>
      <trkpt lat="54.26465998403728" lon="10.866345958784223">
        <ele>-13.32</ele>
        <time>2019-05-08T10:51:13Z</time>
      </trkpt>
      <trkpt lat="54.264525035396218" lon="10.866128029301763">
        <ele>-12.84</ele>
        <time>2019-05-08T10:51:14Z</time>
      </trkpt>
      <trkpt lat="54.264425039291382" lon="10.86592803709209">
        <ele>-12.84</ele>
        <time>2019-05-08T10:51:15Z</time>
      </trkpt>
      <trkpt lat="54.264373993501067" lon="10.865684039890766">
        <ele>-12.84</ele>
        <time>2019-05-08T10:51:16Z</time>
      </trkpt>
      <trkpt lat="54.264329988509417" lon="10.865438031032681">
        <ele>-12.84</ele>
        <time>2019-05-08T10:51:17Z</time>
      </trkpt>
      <trkpt lat="54.264284977689385" lon="10.865185987204313">
        <ele>-12.359999999999999</ele>
        <time>2019-05-08T10:51:18Z</time>
      </trkpt>
      <trkpt lat="54.264266034588218" lon="10.864949030801654">
        <ele>-12.359999999999999</ele>
        <time>2019-05-08T10:51:19Z</time>
      </trkpt>
      <trkpt lat="54.26414298824966" lon="10.863422015681863">
        <ele>-7.07</ele>
        <time>2019-05-08T10:51:27Z</time>
      </trkpt>
      <trkpt lat="54.26410099491477" lon="10.861933976411819">
        <ele>-3.71</ele>
        <time>2019-05-08T10:51:34Z</time>
      </trkpt>
      <trkpt lat="54.264114992693067" lon="10.860115019604564">
        <ele>-3.23</ele>
        <time>2019-05-08T10:51:43Z</time>
      </trkpt>
      <trkpt lat="54.264079034328461" lon="10.859928019344807">
        <ele>-2.75</ele>
        <time>2019-05-08T10:51:44Z</time>
      </trkpt>
      <trkpt lat="54.264039974659681" lon="10.859727021306753">
        <ele>-2.75</ele>
        <time>2019-05-08T10:51:45Z</time>
      </trkpt>
      <trkpt lat="54.263888010755181" lon="10.85894800722599">
        <ele>-2.75</ele>
        <time>2019-05-08T10:51:48Z</time>
      </trkpt>
      <trkpt lat="54.26375700160861" lon="10.858327997848392">
        <ele>-3.23</ele>
        <time>2019-05-08T10:51:50Z</time>
      </trkpt>
      <trkpt lat="54.263129029422998" lon="10.855701025575399">
        <ele>-3.71</ele>
        <time>2019-05-08T10:51:57Z</time>
      </trkpt>
      <trkpt lat="54.261955982074142" lon="10.8523940294981">
        <ele>-1.3</ele>
        <time>2019-05-08T10:52:06Z</time>
      </trkpt>
      <trkpt lat="54.261897979304194" lon="10.852065961807966">
        <ele>-1.3</ele>
        <time>2019-05-08T10:52:07Z</time>
      </trkpt>
      <trkpt lat="54.261862020939589" lon="10.851752981543541">
        <ele>-1.79</ele>
        <time>2019-05-08T10:52:08Z</time>
      </trkpt>
      <trkpt lat="54.261891022324562" lon="10.851452993229032">
        <ele>-2.75</ele>
        <time>2019-05-08T10:52:09Z</time>
      </trkpt>
      <trkpt lat="54.261924969032407" lon="10.851129032671452">
        <ele>-3.71</ele>
        <time>2019-05-08T10:52:10Z</time>
      </trkpt>
      <trkpt lat="54.261976014822721" lon="10.850809011608362">
        <ele>-4.19</ele>
        <time>2019-05-08T10:52:11Z</time>
      </trkpt>
      <trkpt lat="54.262070981785655" lon="10.85048102773726">
        <ele>-5.15</ele>
        <time>2019-05-08T10:52:12Z</time>
      </trkpt>
      <trkpt lat="54.26216896623373" lon="10.85013996809721">
        <ele>-5.63</ele>
        <time>2019-05-08T10:52:13Z</time>
      </trkpt>
      <trkpt lat="54.262396031990647" lon="10.849123997613788">
        <ele>-6.11</ele>
        <time>2019-05-08T10:52:16Z</time>
      </trkpt>
      <trkpt lat="54.262414975091815" lon="10.848780004307628">
        <ele>-6.11</ele>
        <time>2019-05-08T10:52:17Z</time>
      </trkpt>
      <trkpt lat="54.262407012283802" lon="10.848414972424507">
        <ele>-5.63</ele>
        <time>2019-05-08T10:52:18Z</time>
      </trkpt>
      <trkpt lat="54.262398965656757" lon="10.848035020753741">
        <ele>-5.15</ele>
        <time>2019-05-08T10:52:19Z</time>
      </trkpt>
      <trkpt lat="54.262391002848744" lon="10.847644004970789">
        <ele>-5.15</ele>
        <time>2019-05-08T10:52:20Z</time>
      </trkpt>
      <trkpt lat="54.262383040040731" lon="10.847252989187837">
        <ele>-4.67</ele>
        <time>2019-05-08T10:52:21Z</time>
      </trkpt>
      <trkpt lat="54.262368958443403" lon="10.846878988668323">
        <ele>-4.67</ele>
        <time>2019-05-08T10:52:22Z</time>
      </trkpt>
      <trkpt lat="54.262334005907178" lon="10.846509011462331">
        <ele>-4.67</ele>
        <time>2019-05-08T10:52:23Z</time>
      </trkpt>
      <trkpt lat="54.262298969551921" lon="10.846129981800914">
        <ele>-4.19</ele>
        <time>2019-05-08T10:52:24Z</time>
      </trkpt>
      <trkpt lat="54.262229986488819" lon="10.845386004075408">
        <ele>-3.71</ele>
        <time>2019-05-08T10:52:26Z</time>
      </trkpt>
      <trkpt lat="54.262236021459103" lon="10.845033964142203">
        <ele>-3.71</ele>
        <time>2019-05-08T10:52:27Z</time>
      </trkpt>
      <trkpt lat="54.262247001752257" lon="10.844688965007663">
        <ele>-4.19</ele>
        <time>2019-05-08T10:52:28Z</time>
      </trkpt>
      <trkpt lat="54.262325037270784" lon="10.844377996399999">
        <ele>-4.19</ele>
        <time>2019-05-08T10:52:29Z</time>
      </trkpt>
      <trkpt lat="54.262414975091815" lon="10.844063004478812">
        <ele>-4.19</ele>
        <time>2019-05-08T10:52:30Z</time>
      </trkpt>
      <trkpt lat="54.262533998116851" lon="10.843751030042768">
        <ele>-4.19</ele>
        <time>2019-05-08T10:52:31Z</time>
      </trkpt>
      <trkpt lat="54.262656038627028" lon="10.843433020636439">
        <ele>-3.23</ele>
        <time>2019-05-08T10:52:32Z</time>
      </trkpt>
      <trkpt lat="54.262784030288458" lon="10.843097995966673">
        <ele>-2.27</ele>
        <time>2019-05-08T10:52:33Z</time>
      </trkpt>
      <trkpt lat="54.262886038050056" lon="10.842735981568694">
        <ele>-1.3</ele>
        <time>2019-05-08T10:52:34Z</time>
      </trkpt>
      <trkpt lat="54.263388030230999" lon="10.840906966477633">
        <ele>1.1</ele>
        <time>2019-05-08T10:52:39Z</time>
      </trkpt>
      <trkpt lat="54.263418959453702" lon="10.840518968179822">
        <ele>0.62</ele>
        <time>2019-05-08T10:52:40Z</time>
      </trkpt>
      <trkpt lat="54.263605959713459" lon="10.838524997234344">
        <ele>1.58</ele>
        <time>2019-05-08T10:52:45Z</time>
      </trkpt>
      <trkpt lat="54.263678966090083" lon="10.838145967572927">
        <ele>1.58</ele>
        <time>2019-05-08T10:52:46Z</time>
      </trkpt>
      <trkpt lat="54.263787008821964" lon="10.837781019508839">
        <ele>2.06</ele>
        <time>2019-05-08T10:52:47Z</time>
      </trkpt>
      <trkpt lat="54.264318002387881" lon="10.835987962782383">
        <ele>5.42</ele>
        <time>2019-05-08T10:52:52Z</time>
      </trkpt>
      <trkpt lat="54.264408024027944" lon="10.835683029145002">
        <ele>6.39</ele>
        <time>2019-05-08T10:52:53Z</time>
      </trkpt>
      <trkpt lat="54.264452029019594" lon="10.835364013910294">
        <ele>6.87</ele>
        <time>2019-05-08T10:52:54Z</time>
      </trkpt>
      <trkpt lat="54.264452029019594" lon="10.835026977583766">
        <ele>7.83</ele>
        <time>2019-05-08T10:52:55Z</time>
      </trkpt>
      <trkpt lat="54.26444498822093" lon="10.834675021469593">
        <ele>8.310000000000001</ele>
        <time>2019-05-08T10:52:56Z</time>
      </trkpt>
      <trkpt lat="54.264437025412917" lon="10.834312001243234">
        <ele>8.789999999999999</ele>
        <time>2019-05-08T10:52:57Z</time>
      </trkpt>
      <trkpt lat="54.264436019584537" lon="10.833953004330397">
        <ele>8.789999999999999</ele>
        <time>2019-05-08T10:52:58Z</time>
      </trkpt>
      <trkpt lat="54.264436019584537" lon="10.833601970225573">
        <ele>8.789999999999999</ele>
        <time>2019-05-08T10:52:59Z</time>
      </trkpt>
      <trkpt lat="54.26448698155582" lon="10.833279015496373">
        <ele>8.789999999999999</ele>
        <time>2019-05-08T10:53:00Z</time>
      </trkpt>
      <trkpt lat="54.264558982104063" lon="10.832955976948142">
        <ele>8.789999999999999</ele>
        <time>2019-05-08T10:53:01Z</time>
      </trkpt>
      <trkpt lat="54.264628970995545" lon="10.832640985026956">
        <ele>8.789999999999999</ele>
        <time>2019-05-08T10:53:02Z</time>
      </trkpt>
      <trkpt lat="54.264672975987196" lon="10.832322975620627">
        <ele>9.27</ele>
        <time>2019-05-08T10:53:03Z</time>
      </trkpt>
      <trkpt lat="54.264694014564157" lon="10.832002032548189">
        <ele>9.27</ele>
        <time>2019-05-08T10:53:04Z</time>
      </trkpt>
      <trkpt lat="54.264694014564157" lon="10.831664996221662">
        <ele>9.75</ele>
        <time>2019-05-08T10:53:05Z</time>
      </trkpt>
      <trkpt lat="54.264765009284019" lon="10.829010028392076">
        <ele>11.67</ele>
        <time>2019-05-08T10:53:12Z</time>
      </trkpt>
      <trkpt lat="54.264731984585524" lon="10.828620018437505">
        <ele>11.67</ele>
        <time>2019-05-08T10:53:13Z</time>
      </trkpt>
      <trkpt lat="54.264685967937112" lon="10.828230008482933">
        <ele>11.67</ele>
        <time>2019-05-08T10:53:14Z</time>
      </trkpt>
      <trkpt lat="54.264602987095714" lon="10.827870005741715">
        <ele>11.67</ele>
        <time>2019-05-08T10:53:15Z</time>
      </trkpt>
      <trkpt lat="54.264502990990877" lon="10.827511008828878">
        <ele>11.67</ele>
        <time>2019-05-08T10:53:16Z</time>
      </trkpt>
      <trkpt lat="54.264407018199563" lon="10.827166009694338">
        <ele>11.67</ele>
        <time>2019-05-08T10:53:17Z</time>
      </trkpt>
      <trkpt lat="54.264232004061341" lon="10.82648397423327">
        <ele>12.15</ele>
        <time>2019-05-08T10:53:19Z</time>
      </trkpt>
      <trkpt lat="54.264187999069691" lon="10.826122965663671">
        <ele>12.15</ele>
        <time>2019-05-08T10:53:20Z</time>
      </trkpt>
      <trkpt lat="54.264122033491731" lon="10.825038012117147">
        <ele>12.630000000000001</ele>
        <time>2019-05-08T10:53:23Z</time>
      </trkpt>
      <trkpt lat="54.264114992693067" lon="10.824701981619">
        <ele>12.630000000000001</ele>
        <time>2019-05-08T10:53:24Z</time>
      </trkpt>
      <trkpt lat="54.264148017391562" lon="10.824347008019686">
        <ele>12.630000000000001</ele>
        <time>2019-05-08T10:53:25Z</time>
      </trkpt>
      <trkpt lat="54.264213982969522" lon="10.823630020022392">
        <ele>12.630000000000001</ele>
        <time>2019-05-08T10:53:27Z</time>
      </trkpt>
      <trkpt lat="54.264203002676368" lon="10.82330203615129">
        <ele>13.119999999999999</ele>
        <time>2019-05-08T10:53:28Z</time>
      </trkpt>
      <trkpt lat="54.264180958271027" lon="10.822997018694878">
        <ele>13.119999999999999</ele>
        <time>2019-05-08T10:53:29Z</time>
      </trkpt>
      <trkpt lat="54.264122033491731" lon="10.8227230142802">
        <ele>13.119999999999999</ele>
        <time>2019-05-08T10:53:30Z</time>
      </trkpt>
      <trkpt lat="54.264061013236642" lon="10.822459990158677">
        <ele>13.119999999999999</ele>
        <time>2019-05-08T10:53:31Z</time>
      </trkpt>
      <trkpt lat="54.264003010466695" lon="10.822210041806102">
        <ele>13.119999999999999</ele>
        <time>2019-05-08T10:53:32Z</time>
      </trkpt>
      <trkpt lat="54.26382003352046" lon="10.821403032168746">
        <ele>14.08</ele>
        <time>2019-05-08T10:53:36Z</time>
      </trkpt>
      <trkpt lat="54.263700004667044" lon="10.820613959804177">
        <ele>14.56</ele>
        <time>2019-05-08T10:53:40Z</time>
      </trkpt>
      <trkpt lat="54.263719031587243" lon="10.818978985771537">
        <ele>16</ele>
        <time>2019-05-08T10:53:48Z</time>
      </trkpt>
      <trkpt lat="54.264126978814602" lon="10.816817041486502">
        <ele>17.920000000000002</ele>
        <time>2019-05-08T10:53:59Z</time>
      </trkpt>
      <trkpt lat="54.264453034847975" lon="10.814651995897293">
        <ele>21.289999999999999</ele>
        <time>2019-05-08T10:54:10Z</time>
      </trkpt>
      <trkpt lat="54.264654032886028" lon="10.812600022181869">
        <ele>24.649999999999999</ele>
        <time>2019-05-08T10:54:20Z</time>
      </trkpt>
      <trkpt lat="54.264741037040949" lon="10.810810988768935">
        <ele>26.57</ele>
        <time>2019-05-08T10:54:30Z</time>
      </trkpt>
      <trkpt lat="54.264843966811895" lon="10.809569964185357">
        <ele>28.02</ele>
        <time>2019-05-08T10:54:38Z</time>
      </trkpt>
      <trkpt lat="54.265076983720064" lon="10.808099023997784">
        <ele>24.170000000000002</ele>
        <time>2019-05-08T10:54:47Z</time>
      </trkpt>
      <trkpt lat="54.265294997021556" lon="10.806942991912365">
        <ele>23.210000000000001</ele>
        <time>2019-05-08T10:54:54Z</time>
      </trkpt>
      <trkpt lat="54.265311006456614" lon="10.806734031066298">
        <ele>23.210000000000001</ele>
        <time>2019-05-08T10:54:55Z</time>
      </trkpt>
      <trkpt lat="54.265316035598516" lon="10.806503025814891">
        <ele>23.210000000000001</ele>
        <time>2019-05-08T10:54:56Z</time>
      </trkpt>
      <trkpt lat="54.265301031991839" lon="10.806253999471664">
        <ele>23.210000000000001</ele>
        <time>2019-05-08T10:54:57Z</time>
      </trkpt>
      <trkpt lat="54.265264989808202" lon="10.805991981178522">
        <ele>23.690000000000001</ele>
        <time>2019-05-08T10:54:58Z</time>
      </trkpt>
      <trkpt lat="54.265226013958454" lon="10.805715965107083">
        <ele>23.690000000000001</ele>
        <time>2019-05-08T10:54:59Z</time>
      </trkpt>
      <trkpt lat="54.265176979824901" lon="10.805145995691419">
        <ele>24.170000000000002</ele>
        <time>2019-05-08T10:55:01Z</time>
      </trkpt>
      <trkpt lat="54.265165999531746" lon="10.804861010983586">
        <ele>24.170000000000002</ele>
        <time>2019-05-08T10:55:02Z</time>
      </trkpt>
      <trkpt lat="54.265165999531746" lon="10.804617013782263">
        <ele>24.170000000000002</ele>
        <time>2019-05-08T10:55:03Z</time>
      </trkpt>
      <trkpt lat="54.265173962339759" lon="10.804400006309152">
        <ele>24.170000000000002</ele>
        <time>2019-05-08T10:55:04Z</time>
      </trkpt>
      <trkpt lat="54.265229031443596" lon="10.80424795858562">
        <ele>24.649999999999999</ele>
        <time>2019-05-08T10:55:05Z</time>
      </trkpt>
      <trkpt lat="54.265299020335078" lon="10.804143017157912">
        <ele>24.649999999999999</ele>
        <time>2019-05-08T10:55:06Z</time>
      </trkpt>
      <trkpt lat="54.265375966206193" lon="10.804057018831372">
        <ele>24.649999999999999</ele>
        <time>2019-05-08T10:55:07Z</time>
      </trkpt>
      <trkpt lat="54.265462970361114" lon="10.803976971656084">
        <ele>24.649999999999999</ele>
        <time>2019-05-08T10:55:08Z</time>
      </trkpt>
      <trkpt lat="54.265577970072627" lon="10.803949981927872">
        <ele>24.170000000000002</ele>
        <time>2019-05-08T10:55:09Z</time>
      </trkpt>
      <trkpt lat="54.265700010582805" lon="10.803920980542898">
        <ele>23.690000000000001</ele>
        <time>2019-05-08T10:55:10Z</time>
      </trkpt>
      <trkpt lat="54.265832025557756" lon="10.803876975551248">
        <ele>23.210000000000001</ele>
        <time>2019-05-08T10:55:11Z</time>
      </trkpt>
      <trkpt lat="54.265960017219186" lon="10.803765999153256">
        <ele>22.25</ele>
        <time>2019-05-08T10:55:12Z</time>
      </trkpt>
      <trkpt lat="54.266103012487292" lon="10.80364303663373">
        <ele>21.289999999999999</ele>
        <time>2019-05-08T10:55:13Z</time>
      </trkpt>
      <trkpt lat="54.267090987414122" lon="10.802255999296904">
        <ele>16</ele>
        <time>2019-05-08T10:55:20Z</time>
      </trkpt>
      <trkpt lat="54.268423039466143" lon="10.800759997218847">
        <ele>16</ele>
        <time>2019-05-08T10:55:28Z</time>
      </trkpt>
      <trkpt lat="54.26897699944675" lon="10.800088020041585">
        <ele>16.960000000000001</ele>
        <time>2019-05-08T10:55:31Z</time>
      </trkpt>
      <trkpt lat="54.269176991656423" lon="10.79990403726697">
        <ele>17.440000000000001</ele>
        <time>2019-05-08T10:55:32Z</time>
      </trkpt>
      <trkpt lat="54.269397016614676" lon="10.799774033948779">
        <ele>17.920000000000002</ele>
        <time>2019-05-08T10:55:33Z</time>
      </trkpt>
      <trkpt lat="54.270812971517444" lon="10.798964006826282">
        <ele>19.359999999999999</ele>
        <time>2019-05-08T10:55:40Z</time>
      </trkpt>
      <trkpt lat="54.270943980664015" lon="10.798842972144485">
        <ele>19.84</ele>
        <time>2019-05-08T10:55:41Z</time>
      </trkpt>
      <trkpt lat="54.27103903144598" lon="10.798699976876378">
        <ele>20.32</ele>
        <time>2019-05-08T10:55:42Z</time>
      </trkpt>
      <trkpt lat="54.271113965660334" lon="10.798506019636989">
        <ele>20.32</ele>
        <time>2019-05-08T10:55:43Z</time>
      </trkpt>
      <trkpt lat="54.271160988137126" lon="10.798255987465382">
        <ele>20.809999999999999</ele>
        <time>2019-05-08T10:55:44Z</time>
      </trkpt>
      <trkpt lat="54.27121102809906" lon="10.79799497500062">
        <ele>20.809999999999999</ele>
        <time>2019-05-08T10:55:45Z</time>
      </trkpt>
      <trkpt lat="54.271312030032277" lon="10.79745601862669">
        <ele>21.77</ele>
        <time>2019-05-08T10:55:47Z</time>
      </trkpt>
      <trkpt lat="54.271427029743791" lon="10.797217972576618">
        <ele>21.77</ele>
        <time>2019-05-08T10:55:48Z</time>
      </trkpt>
      <trkpt lat="54.271561978384852" lon="10.796986967325211">
        <ele>22.25</ele>
        <time>2019-05-08T10:55:49Z</time>
      </trkpt>
      <trkpt lat="54.271719977259636" lon="10.796778006479144">
        <ele>22.25</ele>
        <time>2019-05-08T10:55:50Z</time>
      </trkpt>
      <trkpt lat="54.271906977519393" lon="10.796581031754613">
        <ele>21.77</ele>
        <time>2019-05-08T10:55:51Z</time>
      </trkpt>
      <trkpt lat="54.272102024406195" lon="10.796379027888179">
        <ele>21.77</ele>
        <time>2019-05-08T10:55:52Z</time>
      </trkpt>
      <trkpt lat="54.272472001612186" lon="10.795972002670169">
        <ele>20.32</ele>
        <time>2019-05-08T10:55:54Z</time>
      </trkpt>
      <trkpt lat="54.272636035457253" lon="10.795742003247142">
        <ele>19.84</ele>
        <time>2019-05-08T10:55:55Z</time>
      </trkpt>
      <trkpt lat="54.273638008162379" lon="10.794076016172767">
        <ele>18.399999999999999</ele>
        <time>2019-05-08T10:56:01Z</time>
      </trkpt>
      <trkpt lat="54.274851037189364" lon="10.792643968015909">
        <ele>16.48</ele>
        <time>2019-05-08T10:56:07Z</time>
      </trkpt>
      <trkpt lat="54.275821996852756" lon="10.791449965909123">
        <ele>14.08</ele>
        <time>2019-05-08T10:56:12Z</time>
      </trkpt>
      <trkpt lat="54.275946971029043" lon="10.791189037263393">
        <ele>13.6</ele>
        <time>2019-05-08T10:56:13Z</time>
      </trkpt>
      <trkpt lat="54.276055013760924" lon="10.790915032848716">
        <ele>13.119999999999999</ele>
        <time>2019-05-08T10:56:14Z</time>
      </trkpt>
      <trkpt lat="54.276158027350903" lon="10.790657037869096">
        <ele>13.119999999999999</ele>
        <time>2019-05-08T10:56:15Z</time>
      </trkpt>
      <trkpt lat="54.276252994313836" lon="10.790414968505502">
        <ele>13.119999999999999</ele>
        <time>2019-05-08T10:56:16Z</time>
      </trkpt>
      <trkpt lat="54.276366988196969" lon="10.790187986567616">
        <ele>12.630000000000001</ele>
        <time>2019-05-08T10:56:17Z</time>
      </trkpt>
      <trkpt lat="54.276513000950217" lon="10.790057983249426">
        <ele>12.15</ele>
        <time>2019-05-08T10:56:18Z</time>
      </trkpt>
      <trkpt lat="54.276649039238691" lon="10.789976008236408">
        <ele>12.15</ele>
        <time>2019-05-08T10:56:19Z</time>
      </trkpt>
      <trkpt lat="54.276790022850037" lon="10.789919011294842">
        <ele>11.67</ele>
        <time>2019-05-08T10:56:20Z</time>
      </trkpt>
      <trkpt lat="54.276941986754537" lon="10.789899984374642">
        <ele>11.19</ele>
        <time>2019-05-08T10:56:21Z</time>
      </trkpt>
      <trkpt lat="54.277106020599604" lon="10.789879029616714">
        <ele>10.710000000000001</ele>
        <time>2019-05-08T10:56:22Z</time>
      </trkpt>
      <trkpt lat="54.277651011943817" lon="10.789788002148271">
        <ele>10.23</ele>
        <time>2019-05-08T10:56:25Z</time>
      </trkpt>
      <trkpt lat="54.277820996940136" lon="10.789704015478492">
        <ele>10.23</ele>
        <time>2019-05-08T10:56:26Z</time>
      </trkpt>
      <trkpt lat="54.278231961652637" lon="10.789355998858809">
        <ele>11.19</ele>
        <time>2019-05-08T10:56:29Z</time>
      </trkpt>
      <trkpt lat="54.278341010212898" lon="10.789261031895876">
        <ele>11.67</ele>
        <time>2019-05-08T10:56:30Z</time>
      </trkpt>
      <trkpt lat="54.278379986062646" lon="10.789165981113911">
        <ele>12.15</ele>
        <time>2019-05-08T10:56:31Z</time>
      </trkpt>
      <trkpt lat="54.278456009924412" lon="10.788980992510915">
        <ele>13.6</ele>
        <time>2019-05-08T10:56:35Z</time>
      </trkpt>
      <trkpt lat="54.278438994660974" lon="10.788870016112924">
        <ele>14.08</ele>
        <time>2019-05-08T10:56:36Z</time>
      </trkpt>
      <trkpt lat="54.278404964134097" lon="10.788853000849485">
        <ele>14.56</ele>
        <time>2019-05-08T10:56:37Z</time>
      </trkpt>
      <trkpt lat="54.27834402769804" lon="10.788822993636131">
        <ele>14.56</ele>
        <time>2019-05-08T10:56:38Z</time>
      </trkpt>
      <trkpt lat="54.278263980522752" lon="10.788783011958003">
        <ele>14.56</ele>
        <time>2019-05-08T10:56:39Z</time>
      </trkpt>
      <trkpt lat="54.278159961104393" lon="10.788730960339308">
        <ele>15.039999999999999</ele>
        <time>2019-05-08T10:56:40Z</time>
      </trkpt>
      <trkpt lat="54.278028029948473" lon="10.788664994761348">
        <ele>15.039999999999999</ele>
        <time>2019-05-08T10:56:41Z</time>
      </trkpt>
      <trkpt lat="54.277883023023605" lon="10.788586037233472">
        <ele>15.52</ele>
        <time>2019-05-08T10:56:42Z</time>
      </trkpt>
      <trkpt lat="54.277761988341808" lon="10.788418985903263">
        <ele>16</ele>
        <time>2019-05-08T10:56:43Z</time>
      </trkpt>
      <trkpt lat="54.277611030265689" lon="10.788210025057197">
        <ele>16.48</ele>
        <time>2019-05-08T10:56:44Z</time>
      </trkpt>
      <trkpt lat="54.277532994747162" lon="10.788005003705621">
        <ele>16.960000000000001</ele>
        <time>2019-05-08T10:56:45Z</time>
      </trkpt>
      <trkpt lat="54.277462000027299" lon="10.78772597014904">
        <ele>17.440000000000001</ele>
        <time>2019-05-08T10:56:46Z</time>
      </trkpt>
      <trkpt lat="54.27739997394383" lon="10.78742397017777">
        <ele>17.920000000000002</ele>
        <time>2019-05-08T10:56:47Z</time>
      </trkpt>
      <trkpt lat="54.277066960930824" lon="10.786055959761143">
        <ele>17.920000000000002</ele>
        <time>2019-05-08T10:56:51Z</time>
      </trkpt>
      <trkpt lat="54.276526998728514" lon="10.784418974071741">
        <ele>17.440000000000001</ele>
        <time>2019-05-08T10:56:56Z</time>
      </trkpt>
      <trkpt lat="54.276385009288788" lon="10.784140024334192">
        <ele>17.440000000000001</ele>
        <time>2019-05-08T10:56:57Z</time>
      </trkpt>
      <trkpt lat="54.276223992928863" lon="10.783912958577275">
        <ele>17.440000000000001</ele>
        <time>2019-05-08T10:56:58Z</time>
      </trkpt>
      <trkpt lat="54.276057025417686" lon="10.783725036308169">
        <ele>17.440000000000001</ele>
        <time>2019-05-08T10:56:59Z</time>
      </trkpt>
      <trkpt lat="54.275887962430716" lon="10.783535018563271">
        <ele>17.440000000000001</ele>
        <time>2019-05-08T10:57:00Z</time>
      </trkpt>
      <trkpt lat="54.275714959949255" lon="10.783340977504849">
        <ele>17.920000000000002</ele>
        <time>2019-05-08T10:57:01Z</time>
      </trkpt>
      <trkpt lat="54.275377001613379" lon="10.782960020005703">
        <ele>18.399999999999999</ele>
        <time>2019-05-08T10:57:03Z</time>
      </trkpt>
      <trkpt lat="54.275236018002033" lon="10.782753992825747">
        <ele>18.879999999999999</ele>
        <time>2019-05-08T10:57:04Z</time>
      </trkpt>
      <trkpt lat="54.275113977491856" lon="10.782516030594707">
        <ele>19.359999999999999</ele>
        <time>2019-05-08T10:57:05Z</time>
      </trkpt>
      <trkpt lat="54.274099012836814" lon="10.780316032469273">
        <ele>22.25</ele>
        <time>2019-05-08T10:57:13Z</time>
      </trkpt>
      <trkpt lat="54.273508004844189" lon="10.77893603593111">
        <ele>23.690000000000001</ele>
        <time>2019-05-08T10:57:19Z</time>
      </trkpt>
      <trkpt lat="54.273454025387764" lon="10.77874400652945">
        <ele>24.170000000000002</ele>
        <time>2019-05-08T10:57:20Z</time>
      </trkpt>
      <trkpt lat="54.273442961275578" lon="10.778520964086056">
        <ele>24.170000000000002</ele>
        <time>2019-05-08T10:57:21Z</time>
      </trkpt>
      <trkpt lat="54.273434998467565" lon="10.778222987428308">
        <ele>24.170000000000002</ele>
        <time>2019-05-08T10:57:22Z</time>
      </trkpt>
      <trkpt lat="54.273434998467565" lon="10.777886034920812">
        <ele>24.170000000000002</ele>
        <time>2019-05-08T10:57:23Z</time>
      </trkpt>
      <trkpt lat="54.273474980145693" lon="10.777522008866072">
        <ele>23.690000000000001</ele>
        <time>2019-05-08T10:57:24Z</time>
      </trkpt>
      <trkpt lat="54.273515967652202" lon="10.777153959497809">
        <ele>22.73</ele>
        <time>2019-05-08T10:57:25Z</time>
      </trkpt>
      <trkpt lat="54.273555027320981" lon="10.776800997555256">
        <ele>22.25</ele>
        <time>2019-05-08T10:57:26Z</time>
      </trkpt>
      <trkpt lat="54.273610012605786" lon="10.776109993457794">
        <ele>20.32</ele>
        <time>2019-05-08T10:57:28Z</time>
      </trkpt>
      <trkpt lat="54.273613030090928" lon="10.775744039565325">
        <ele>19.84</ele>
        <time>2019-05-08T10:57:29Z</time>
      </trkpt>
      <trkpt lat="54.273582017049193" lon="10.775359980762005">
        <ele>19.359999999999999</ele>
        <time>2019-05-08T10:57:30Z</time>
      </trkpt>
      <trkpt lat="54.273491995409131" lon="10.774125996977091">
        <ele>18.399999999999999</ele>
        <time>2019-05-08T10:57:33Z</time>
      </trkpt>
      <trkpt lat="54.273491995409131" lon="10.773713020607829">
        <ele>18.399999999999999</ele>
        <time>2019-05-08T10:57:34Z</time>
      </trkpt>
      <trkpt lat="54.273491995409131" lon="10.773323010653257">
        <ele>18.399999999999999</ele>
        <time>2019-05-08T10:57:35Z</time>
      </trkpt>
      <trkpt lat="54.273481015115976" lon="10.772649021819234">
        <ele>19.359999999999999</ele>
        <time>2019-05-08T10:57:37Z</time>
      </trkpt>
      <trkpt lat="54.273433992639184" lon="10.772360013797879">
        <ele>19.359999999999999</ele>
        <time>2019-05-08T10:57:38Z</time>
      </trkpt>
      <trkpt lat="54.273370960727334" lon="10.772087015211582">
        <ele>19.84</ele>
        <time>2019-05-08T10:57:39Z</time>
      </trkpt>
      <trkpt lat="54.273272976279259" lon="10.771819967776537">
        <ele>19.84</ele>
        <time>2019-05-08T10:57:40Z</time>
      </trkpt>
      <trkpt lat="54.273177003487945" lon="10.771560966968536">
        <ele>19.84</ele>
        <time>2019-05-08T10:57:41Z</time>
      </trkpt>
      <trkpt lat="54.273089999333024" lon="10.771285034716129">
        <ele>19.84</ele>
        <time>2019-05-08T10:57:42Z</time>
      </trkpt>
      <trkpt lat="54.273040965199471" lon="10.771022010594606">
        <ele>19.84</ele>
        <time>2019-05-08T10:57:43Z</time>
      </trkpt>
      <trkpt lat="54.27305999211967" lon="10.770682962611318">
        <ele>19.359999999999999</ele>
        <time>2019-05-08T10:57:44Z</time>
      </trkpt>
      <trkpt lat="54.273077007383108" lon="10.770369982346892">
        <ele>19.359999999999999</ele>
        <time>2019-05-08T10:57:45Z</time>
      </trkpt>
      <trkpt lat="54.273109026253223" lon="10.770061025395989">
        <ele>18.879999999999999</ele>
        <time>2019-05-08T10:57:46Z</time>
      </trkpt>
      <trkpt lat="54.273153031244874" lon="10.769723989069462">
        <ele>18.399999999999999</ele>
        <time>2019-05-08T10:57:47Z</time>
      </trkpt>
      <trkpt lat="54.273197036236525" lon="10.769392987713218">
        <ele>18.399999999999999</ele>
        <time>2019-05-08T10:57:48Z</time>
      </trkpt>
      <trkpt lat="54.273236012086272" lon="10.769079001620412">
        <ele>18.879999999999999</ele>
        <time>2019-05-08T10:57:49Z</time>
      </trkpt>
      <trkpt lat="54.273313041776419" lon="10.768293030560017">
        <ele>20.32</ele>
        <time>2019-05-08T10:57:52Z</time>
      </trkpt>
      <trkpt lat="54.273480009287596" lon="10.767187038436532">
        <ele>23.210000000000001</ele>
        <time>2019-05-08T10:57:57Z</time>
      </trkpt>
      <trkpt lat="54.273488977923989" lon="10.766999032348394">
        <ele>23.690000000000001</ele>
        <time>2019-05-08T10:57:58Z</time>
      </trkpt>
      <trkpt lat="54.27346701733768" lon="10.766823012381792">
        <ele>24.170000000000002</ele>
        <time>2019-05-08T10:57:59Z</time>
      </trkpt>
      <trkpt lat="54.273422006517649" lon="10.766685968264937">
        <ele>24.170000000000002</ele>
        <time>2019-05-08T10:58:00Z</time>
      </trkpt>
      <trkpt lat="54.273356962949038" lon="10.766578009352088">
        <ele>24.649999999999999</ele>
        <time>2019-05-08T10:58:01Z</time>
      </trkpt>
      <trkpt lat="54.273280017077923" lon="10.766485976055264">
        <ele>24.170000000000002</ele>
        <time>2019-05-08T10:58:02Z</time>
      </trkpt>
      <trkpt lat="54.273186977952719" lon="10.766441971063614">
        <ele>24.170000000000002</ele>
        <time>2019-05-08T10:58:03Z</time>
      </trkpt>
      <trkpt lat="54.27308002486825" lon="10.766421016305685">
        <ele>24.170000000000002</ele>
        <time>2019-05-08T10:58:04Z</time>
      </trkpt>
      <trkpt lat="54.272867040708661" lon="10.766344992443919">
        <ele>25.129999999999999</ele>
        <time>2019-05-08T10:58:06Z</time>
      </trkpt>
      <trkpt lat="54.272756986320019" lon="10.766296964138746">
        <ele>25.609999999999999</ele>
        <time>2019-05-08T10:58:07Z</time>
      </trkpt>
      <trkpt lat="54.272456998005509" lon="10.765995969995856">
        <ele>28.5</ele>
        <time>2019-05-08T10:58:10Z</time>
      </trkpt>
      <trkpt lat="54.272355996072292" lon="10.76589597389102">
        <ele>28.98</ele>
        <time>2019-05-08T10:58:11Z</time>
      </trkpt>
      <trkpt lat="54.272261029109359" lon="10.765769993886352">
        <ele>29.940000000000001</ele>
        <time>2019-05-08T10:58:12Z</time>
      </trkpt>
      <trkpt lat="54.272183999419212" lon="10.765620041638613">
        <ele>30.420000000000002</ele>
        <time>2019-05-08T10:58:13Z</time>
      </trkpt>
      <trkpt lat="54.272128008306026" lon="10.765460031107068">
        <ele>31.379999999999999</ele>
        <time>2019-05-08T10:58:14Z</time>
      </trkpt>
      <trkpt lat="54.272073023021221" lon="10.765299014747143">
        <ele>31.379999999999999</ele>
        <time>2019-05-08T10:58:15Z</time>
      </trkpt>
      <trkpt lat="54.272009991109371" lon="10.765116959810257">
        <ele>31.859999999999999</ele>
        <time>2019-05-08T10:58:16Z</time>
      </trkpt>
      <trkpt lat="54.271970009431243" lon="10.764917973428965">
        <ele>31.859999999999999</ele>
        <time>2019-05-08T10:58:17Z</time>
      </trkpt>
      <trkpt lat="54.271887028589845" lon="10.764500973746181">
        <ele>32.82</ele>
        <time>2019-05-08T10:58:19Z</time>
      </trkpt>
      <trkpt lat="54.271712014451623" lon="10.763923041522503">
        <ele>33.780000000000001</ele>
        <time>2019-05-08T10:58:22Z</time>
      </trkpt>
      <trkpt lat="54.271645965054631" lon="10.763748027384281">
        <ele>34.259999999999998</ele>
        <time>2019-05-08T10:58:23Z</time>
      </trkpt>
      <trkpt lat="54.271544041112065" lon="10.763621041551232">
        <ele>34.740000000000002</ele>
        <time>2019-05-08T10:58:24Z</time>
      </trkpt>
      <trkpt lat="54.271437004208565" lon="10.7634880207479">
        <ele>35.229999999999997</ele>
        <time>2019-05-08T10:58:25Z</time>
      </trkpt>
      <trkpt lat="54.271332984790206" lon="10.76335902325809">
        <ele>36.189999999999998</ele>
        <time>2019-05-08T10:58:26Z</time>
      </trkpt>
      <trkpt lat="54.271122012287378" lon="10.763097004964948">
        <ele>37.630000000000003</ele>
        <time>2019-05-08T10:58:28Z</time>
      </trkpt>
      <trkpt lat="54.270492028445005" lon="10.762083968147635">
        <ele>41.950000000000003</ele>
        <time>2019-05-08T10:58:34Z</time>
      </trkpt>
      <trkpt lat="54.270167984068394" lon="10.761366980150342">
        <ele>43.880000000000003</ele>
        <time>2019-05-08T10:58:37Z</time>
      </trkpt>
      <trkpt lat="54.270090032368898" lon="10.761122982949018">
        <ele>44.359999999999999</ele>
        <time>2019-05-08T10:58:38Z</time>
      </trkpt>
      <trkpt lat="54.270027000457048" lon="10.760850990191102">
        <ele>44.840000000000003</ele>
        <time>2019-05-08T10:58:39Z</time>
      </trkpt>
      <trkpt lat="54.270000010728836" lon="10.760551001876593">
        <ele>45.32</ele>
        <time>2019-05-08T10:58:40Z</time>
      </trkpt>
      <trkpt lat="54.269972015172243" lon="10.760242966935039">
        <ele>45.799999999999997</ele>
        <time>2019-05-08T10:58:41Z</time>
      </trkpt>
      <trkpt lat="54.269898002967238" lon="10.759651958942413">
        <ele>45.799999999999997</ele>
        <time>2019-05-08T10:58:43Z</time>
      </trkpt>
      <trkpt lat="54.269800018519163" lon="10.759397987276316">
        <ele>45.799999999999997</ele>
        <time>2019-05-08T10:58:44Z</time>
      </trkpt>
      <trkpt lat="54.269671021029353" lon="10.759154995903373">
        <ele>45.799999999999997</ele>
        <time>2019-05-08T10:58:45Z</time>
      </trkpt>
      <trkpt lat="54.269283022731543" lon="10.758404983207583">
        <ele>47.240000000000002</ele>
        <time>2019-05-08T10:58:48Z</time>
      </trkpt>
      <trkpt lat="54.269190989434719" lon="10.758147994056344">
        <ele>47.719999999999999</ele>
        <time>2019-05-08T10:58:49Z</time>
      </trkpt>
      <trkpt lat="54.269130975008011" lon="10.757858986034989">
        <ele>48.200000000000003</ele>
        <time>2019-05-08T10:58:50Z</time>
      </trkpt>
      <trkpt lat="54.269065009430051" lon="10.757549023255706">
        <ele>48.68</ele>
        <time>2019-05-08T10:58:51Z</time>
      </trkpt>
      <trkpt lat="54.268996026366949" lon="10.757217016071081">
        <ele>49.159999999999997</ele>
        <time>2019-05-08T10:58:52Z</time>
      </trkpt>
      <trkpt lat="54.268843978643417" lon="10.756494998931885">
        <ele>49.159999999999997</ele>
        <time>2019-05-08T10:58:54Z</time>
      </trkpt>
      <trkpt lat="54.268709030002356" lon="10.756168020889163">
        <ele>49.159999999999997</ele>
        <time>2019-05-08T10:58:55Z</time>
      </trkpt>
      <trkpt lat="54.267761958763003" lon="10.753769958391786">
        <ele>52.530000000000001</ele>
        <time>2019-05-08T10:59:02Z</time>
      </trkpt>
      <trkpt lat="54.267466999590397" lon="10.753178028389812">
        <ele>53.969999999999999</ele>
        <time>2019-05-08T10:59:04Z</time>
      </trkpt>
      <trkpt lat="54.26732400432229" lon="10.75289798900485">
        <ele>54.93</ele>
        <time>2019-05-08T10:59:05Z</time>
      </trkpt>
      <trkpt lat="54.266202002763748" lon="10.7511340174824">
        <ele>61.659999999999997</ele>
        <time>2019-05-08T10:59:12Z</time>
      </trkpt>
      <trkpt lat="54.266075016930699" lon="10.750865964218974">
        <ele>61.659999999999997</ele>
        <time>2019-05-08T10:59:13Z</time>
      </trkpt>
      <trkpt lat="54.265836970880628" lon="10.750361960381269">
        <ele>62.140000000000001</ele>
        <time>2019-05-08T10:59:15Z</time>
      </trkpt>
      <trkpt lat="54.265707973390818" lon="10.750097008422017">
        <ele>62.619999999999997</ele>
        <time>2019-05-08T10:59:16Z</time>
      </trkpt>
      <trkpt lat="54.264482036232948" lon="10.748115023598075">
        <ele>65.510000000000005</ele>
        <time>2019-05-08T10:59:23Z</time>
      </trkpt>
      <trkpt lat="54.263581987470388" lon="10.746737038716674">
        <ele>70.790000000000006</ele>
        <time>2019-05-08T10:59:29Z</time>
      </trkpt>
      <trkpt lat="54.263417031615973" lon="10.746527994051576">
        <ele>71.269999999999996</ele>
        <time>2019-05-08T10:59:30Z</time>
      </trkpt>
      <trkpt lat="54.262201990932226" lon="10.745353018864989">
        <ele>73.200000000000003</ele>
        <time>2019-05-08T10:59:36Z</time>
      </trkpt>
      <trkpt lat="54.262006022036076" lon="10.745260985568166">
        <ele>73.680000000000007</ele>
        <time>2019-05-08T10:59:37Z</time>
      </trkpt>
      <trkpt lat="54.26180200651288" lon="10.745189990848303">
        <ele>74.159999999999997</ele>
        <time>2019-05-08T10:59:38Z</time>
      </trkpt>
      <trkpt lat="54.261385006830096" lon="10.745043978095055">
        <ele>75.599999999999994</ele>
        <time>2019-05-08T10:59:40Z</time>
      </trkpt>
      <trkpt lat="54.261180991306901" lon="10.744923027232289">
        <ele>76.079999999999998</ele>
        <time>2019-05-08T10:59:41Z</time>
      </trkpt>
      <trkpt lat="54.260977981612086" lon="10.744770979508758">
        <ele>76.560000000000002</ele>
        <time>2019-05-08T10:59:42Z</time>
      </trkpt>
      <trkpt lat="54.260581014677882" lon="10.744473002851009">
        <ele>77.040000000000006</ele>
        <time>2019-05-08T10:59:44Z</time>
      </trkpt>
      <trkpt lat="54.260378004983068" lon="10.744372000917792">
        <ele>77.519999999999996</ele>
        <time>2019-05-08T10:59:45Z</time>
      </trkpt>
      <trkpt lat="54.259559009224176" lon="10.744124986231327">
        <ele>82.329999999999998</ele>
        <time>2019-05-08T10:59:50Z</time>
      </trkpt>
      <trkpt lat="54.259324986487627" lon="10.744076035916805">
        <ele>84.25</ele>
        <time>2019-05-08T10:59:53Z</time>
      </trkpt>
      <trkpt lat="54.259277964010835" lon="10.744065977632999">
        <ele>85.209999999999994</ele>
        <time>2019-05-08T10:59:54Z</time>
      </trkpt>
      <trkpt lat="54.259210992604494" lon="10.743957012891769">
        <ele>85.689999999999998</ele>
        <time>2019-05-08T10:59:55Z</time>
      </trkpt>
      <trkpt lat="54.259220967069268" lon="10.743877971544862">
        <ele>86.180000000000007</ele>
        <time>2019-05-08T10:59:56Z</time>
      </trkpt>
      <trkpt lat="54.259234964847565" lon="10.743755009025335">
        <ele>86.659999999999997</ele>
        <time>2019-05-08T10:59:57Z</time>
      </trkpt>
      <trkpt lat="54.259253991767764" lon="10.743594998493791">
        <ele>86.659999999999997</ele>
        <time>2019-05-08T10:59:58Z</time>
      </trkpt>
      <trkpt lat="54.259276958182454" lon="10.743395006284118">
        <ele>86.659999999999997</ele>
        <time>2019-05-08T10:59:59Z</time>
      </trkpt>
      <trkpt lat="54.259340995922685" lon="10.742265963926911">
        <ele>85.209999999999994</ele>
        <time>2019-05-08T11:00:03Z</time>
      </trkpt>
      <trkpt lat="54.259333033114672" lon="10.741924988105893">
        <ele>84.25</ele>
        <time>2019-05-08T11:00:04Z</time>
      </trkpt>
      <trkpt lat="54.259308977052569" lon="10.741598010063171">
        <ele>83.769999999999996</ele>
        <time>2019-05-08T11:00:05Z</time>
      </trkpt>
      <trkpt lat="54.259264972060919" lon="10.741302967071533">
        <ele>83.290000000000006</ele>
        <time>2019-05-08T11:00:06Z</time>
      </trkpt>
      <trkpt lat="54.259202023968101" lon="10.740999961271882">
        <ele>82.329999999999998</ele>
        <time>2019-05-08T11:00:07Z</time>
      </trkpt>
      <trkpt lat="54.258933970704675" lon="10.739710992202163">
        <ele>78.969999999999999</ele>
        <time>2019-05-08T11:00:13Z</time>
      </trkpt>
      <trkpt lat="54.258811008185148" lon="10.738928960636258">
        <ele>77.040000000000006</ele>
        <time>2019-05-08T11:00:17Z</time>
      </trkpt>
      <trkpt lat="54.258797010406852" lon="10.738733997568488">
        <ele>77.040000000000006</ele>
        <time>2019-05-08T11:00:18Z</time>
      </trkpt>
      <trkpt lat="54.258805979043245" lon="10.738531993702054">
        <ele>76.560000000000002</ele>
        <time>2019-05-08T11:00:19Z</time>
      </trkpt>
      <trkpt lat="54.258819976821542" lon="10.738338036462665">
        <ele>76.560000000000002</ele>
        <time>2019-05-08T11:00:20Z</time>
      </trkpt>
      <trkpt lat="54.258858030661941" lon="10.738148018717766">
        <ele>76.079999999999998</ele>
        <time>2019-05-08T11:00:21Z</time>
      </trkpt>
      <trkpt lat="54.258897006511688" lon="10.737958000972867">
        <ele>75.599999999999994</ele>
        <time>2019-05-08T11:00:22Z</time>
      </trkpt>
      <trkpt lat="54.259132035076618" lon="10.736802974715829">
        <ele>73.680000000000007</ele>
        <time>2019-05-08T11:00:28Z</time>
      </trkpt>
      <trkpt lat="54.259412996470928" lon="10.735137993469834">
        <ele>72.239999999999995</ele>
        <time>2019-05-08T11:00:35Z</time>
      </trkpt>
      <trkpt lat="54.259720025584102" lon="10.732585033401847">
        <ele>73.680000000000007</ele>
        <time>2019-05-08T11:00:42Z</time>
      </trkpt>
      <trkpt lat="54.259951030835509" lon="10.729019958525896">
        <ele>74.159999999999997</ele>
        <time>2019-05-08T11:00:50Z</time>
      </trkpt>
      <trkpt lat="54.259713990613818" lon="10.727337962016463">
        <ele>73.680000000000007</ele>
        <time>2019-05-08T11:00:54Z</time>
      </trkpt>
      <trkpt lat="54.259526990354061" lon="10.726531036198139">
        <ele>73.200000000000003</ele>
        <time>2019-05-08T11:00:56Z</time>
      </trkpt>
      <trkpt lat="54.259422970935702" lon="10.726135997101665">
        <ele>72.239999999999995</ele>
        <time>2019-05-08T11:00:57Z</time>
      </trkpt>
      <trkpt lat="54.259208980947733" lon="10.724839987233281">
        <ele>69.829999999999998</ele>
        <time>2019-05-08T11:01:00Z</time>
      </trkpt>
      <trkpt lat="54.259171010926366" lon="10.724422987550497">
        <ele>68.870000000000005</ele>
        <time>2019-05-08T11:01:01Z</time>
      </trkpt>
      <trkpt lat="54.259160030633211" lon="10.723997019231319">
        <ele>68.390000000000001</ele>
        <time>2019-05-08T11:01:02Z</time>
      </trkpt>
      <trkpt lat="54.259178973734379" lon="10.723551018163562">
        <ele>67.909999999999997</ele>
        <time>2019-05-08T11:01:03Z</time>
      </trkpt>
      <trkpt lat="54.259199006482959" lon="10.723100993782282">
        <ele>67.430000000000007</ele>
        <time>2019-05-08T11:01:04Z</time>
      </trkpt>
      <trkpt lat="54.2593730147928" lon="10.719800032675266">
        <ele>66.469999999999999</ele>
        <time>2019-05-08T11:01:11Z</time>
      </trkpt>
      <trkpt lat="54.259676020592451" lon="10.715484023094177">
        <ele>63.100000000000001</ele>
        <time>2019-05-08T11:01:20Z</time>
      </trkpt>
      <trkpt lat="54.259947007521987" lon="10.713376980274916">
        <ele>61.18</ele>
        <time>2019-05-08T11:01:25Z</time>
      </trkpt>
      <trkpt lat="54.260059995576739" lon="10.71299702860415">
        <ele>60.700000000000003</ele>
        <time>2019-05-08T11:01:26Z</time>
      </trkpt>
      <trkpt lat="54.260185975581408" lon="10.712636020034552">
        <ele>60.219999999999999</ele>
        <time>2019-05-08T11:01:27Z</time>
      </trkpt>
      <trkpt lat="54.260326037183404" lon="10.712326979264617">
        <ele>59.740000000000002</ele>
        <time>2019-05-08T11:01:28Z</time>
      </trkpt>
      <trkpt lat="54.26046802662313" lon="10.712078958749771">
        <ele>58.780000000000001</ele>
        <time>2019-05-08T11:01:29Z</time>
      </trkpt>
      <trkpt lat="54.26059802994132" lon="10.711891036480665">
        <ele>58.780000000000001</ele>
        <time>2019-05-08T11:01:30Z</time>
      </trkpt>
      <trkpt lat="54.260713029652834" lon="10.711722979322076">
        <ele>58.299999999999997</ele>
        <time>2019-05-08T11:01:31Z</time>
      </trkpt>
      <trkpt lat="54.261592039838433" lon="10.710809016600251">
        <ele>57.82</ele>
        <time>2019-05-08T11:01:39Z</time>
      </trkpt>
      <trkpt lat="54.26220903173089" lon="10.71016201749444">
        <ele>59.740000000000002</ele>
        <time>2019-05-08T11:01:45Z</time>
      </trkpt>
      <trkpt lat="54.262785036116838" lon="10.708882017061114">
        <ele>64.549999999999997</ele>
        <time>2019-05-08T11:01:53Z</time>
      </trkpt>
      <trkpt lat="54.263290967792273" lon="10.706977983936667">
        <ele>64.549999999999997</ele>
        <time>2019-05-08T11:02:03Z</time>
      </trkpt>
      <trkpt lat="54.263846017420292" lon="10.705549037083983">
        <ele>61.659999999999997</ele>
        <time>2019-05-08T11:02:11Z</time>
      </trkpt>
      <trkpt lat="54.264138964936137" lon="10.705093983560801">
        <ele>61.18</ele>
        <time>2019-05-08T11:02:14Z</time>
      </trkpt>
      <trkpt lat="54.264240972697735" lon="10.704968003556132">
        <ele>60.700000000000003</ele>
        <time>2019-05-08T11:02:15Z</time>
      </trkpt>
      <trkpt lat="54.264712035655975" lon="10.704386970028281">
        <ele>61.18</ele>
        <time>2019-05-08T11:02:20Z</time>
      </trkpt>
      <trkpt lat="54.264813959598541" lon="10.704269036650658">
        <ele>61.18</ele>
        <time>2019-05-08T11:02:21Z</time>
      </trkpt>
      <trkpt lat="54.265489960089326" lon="10.703362030908465">
        <ele>62.140000000000001</ele>
        <time>2019-05-08T11:02:26Z</time>
      </trkpt>
      <trkpt lat="54.266541972756386" lon="10.701505020260811">
        <ele>61.18</ele>
        <time>2019-05-08T11:02:32Z</time>
      </trkpt>
      <trkpt lat="54.266976993530989" lon="10.700913006439805">
        <ele>60.219999999999999</ele>
        <time>2019-05-08T11:02:34Z</time>
      </trkpt>
      <trkpt lat="54.268525969237089" lon="10.699704000726342">
        <ele>57.82</ele>
        <time>2019-05-08T11:02:40Z</time>
      </trkpt>
      <trkpt lat="54.269930021837354" lon="10.698580993339419">
        <ele>56.859999999999999</ele>
        <time>2019-05-08T11:02:46Z</time>
      </trkpt>
      <trkpt lat="54.271003995090723" lon="10.696662040427327">
        <ele>56.369999999999997</ele>
        <time>2019-05-08T11:02:52Z</time>
      </trkpt>
      <trkpt lat="54.272777019068599" lon="10.69312403909862">
        <ele>53.490000000000002</ele>
        <time>2019-05-08T11:03:02Z</time>
      </trkpt>
      <trkpt lat="54.27464802749455" lon="10.691048009321094">
        <ele>50.130000000000003</ele>
        <time>2019-05-08T11:03:10Z</time>
      </trkpt>
      <trkpt lat="54.275039965286851" lon="10.690405033528805">
        <ele>50.130000000000003</ele>
        <time>2019-05-08T11:03:12Z</time>
      </trkpt>
      <trkpt lat="54.275503987446427" lon="10.68925897590816">
        <ele>51.090000000000003</ele>
        <time>2019-05-08T11:03:15Z</time>
      </trkpt>
      <trkpt lat="54.2757230065763" lon="10.688431011512876">
        <ele>51.090000000000003</ele>
        <time>2019-05-08T11:03:17Z</time>
      </trkpt>
      <trkpt lat="54.275800958275795" lon="10.68799096159637">
        <ele>51.57</ele>
        <time>2019-05-08T11:03:18Z</time>
      </trkpt>
      <trkpt lat="54.276012014597654" lon="10.684811035171151">
        <ele>51.57</ele>
        <time>2019-05-08T11:03:25Z</time>
      </trkpt>
      <trkpt lat="54.276141012087464" lon="10.68201600573957">
        <ele>51.090000000000003</ele>
        <time>2019-05-08T11:03:32Z</time>
      </trkpt>
      <trkpt lat="54.276684997603297" lon="10.67997601814568">
        <ele>49.649999999999999</ele>
        <time>2019-05-08T11:03:38Z</time>
      </trkpt>
      <trkpt lat="54.276946010068059" lon="10.679376963526011">
        <ele>49.159999999999997</ele>
        <time>2019-05-08T11:03:40Z</time>
      </trkpt>
      <trkpt lat="54.277109960094094" lon="10.679086027666926">
        <ele>49.159999999999997</ele>
        <time>2019-05-08T11:03:41Z</time>
      </trkpt>
      <trkpt lat="54.277290003374219" lon="10.678829038515687">
        <ele>48.68</ele>
        <time>2019-05-08T11:03:42Z</time>
      </trkpt>
      <trkpt lat="54.278450980782509" lon="10.677437977865338">
        <ele>44.359999999999999</ele>
        <time>2019-05-08T11:03:49Z</time>
      </trkpt>
      <trkpt lat="54.280088972300291" lon="10.675580967217684">
        <ele>43.399999999999999</ele>
        <time>2019-05-08T11:04:01Z</time>
      </trkpt>
      <trkpt lat="54.280905034393072" lon="10.674673039466143">
        <ele>43.399999999999999</ele>
        <time>2019-05-08T11:04:09Z</time>
      </trkpt>
      <trkpt lat="54.281047023832798" lon="10.674558961763978">
        <ele>42.920000000000002</ele>
        <time>2019-05-08T11:04:14Z</time>
      </trkpt>
      <trkpt lat="54.281068984419107" lon="10.674541024491191">
        <ele>42.439999999999998</ele>
        <time>2019-05-08T11:04:15Z</time>
      </trkpt>
      <trkpt lat="54.281091028824449" lon="10.674524009227753">
        <ele>42.439999999999998</ele>
        <time>2019-05-08T11:04:16Z</time>
      </trkpt>
      <trkpt lat="54.281108966097236" lon="10.674509005621076">
        <ele>42.439999999999998</ele>
        <time>2019-05-08T11:04:17Z</time>
      </trkpt>
      <trkpt lat="54.281131010502577" lon="10.674491990357637">
        <ele>42.439999999999998</ele>
        <time>2019-05-08T11:04:18Z</time>
      </trkpt>
      <trkpt lat="54.281165963038802" lon="10.674463994801044">
        <ele>42.439999999999998</ele>
        <time>2019-05-08T11:04:19Z</time>
      </trkpt>
      <trkpt lat="54.281174009665847" lon="10.674333991482854">
        <ele>42.439999999999998</ele>
        <time>2019-05-08T11:04:20Z</time>
      </trkpt>
      <trkpt lat="54.281150959432125" lon="10.674211028963327">
        <ele>41.950000000000003</ele>
        <time>2019-05-08T11:04:21Z</time>
      </trkpt>
      <trkpt lat="54.281122963875532" lon="10.674060992896557">
        <ele>41.950000000000003</ele>
        <time>2019-05-08T11:04:22Z</time>
      </trkpt>
      <trkpt lat="54.281090022996068" lon="10.673878015950322">
        <ele>41.469999999999999</ele>
        <time>2019-05-08T11:04:23Z</time>
      </trkpt>
      <trkpt lat="54.280933029949665" lon="10.67200499586761">
        <ele>40.030000000000001</ele>
        <time>2019-05-08T11:04:31Z</time>
      </trkpt>
      <trkpt lat="54.28094401024282" lon="10.671716993674636">
        <ele>39.549999999999997</ele>
        <time>2019-05-08T11:04:32Z</time>
      </trkpt>
      <trkpt lat="54.280954990535975" lon="10.671422034502029">
        <ele>39.549999999999997</ele>
        <time>2019-05-08T11:04:33Z</time>
      </trkpt>
      <trkpt lat="54.280980974435806" lon="10.671117017045617">
        <ele>39.549999999999997</ele>
        <time>2019-05-08T11:04:34Z</time>
      </trkpt>
      <trkpt lat="54.281035037711263" lon="10.670800013467669">
        <ele>39.549999999999997</ele>
        <time>2019-05-08T11:04:35Z</time>
      </trkpt>
      <trkpt lat="54.281400991603732" lon="10.669140983372927">
        <ele>37.630000000000003</ele>
        <time>2019-05-08T11:04:40Z</time>
      </trkpt>
      <trkpt lat="54.281432004645467" lon="10.668775029480457">
        <ele>37.149999999999999</ele>
        <time>2019-05-08T11:04:41Z</time>
      </trkpt>
      <trkpt lat="54.281462011858821" lon="10.668417038396001">
        <ele>36.670000000000002</ele>
        <time>2019-05-08T11:04:42Z</time>
      </trkpt>
      <trkpt lat="54.281458994373679" lon="10.668055023998022">
        <ele>35.710000000000001</ele>
        <time>2019-05-08T11:04:43Z</time>
      </trkpt>
      <trkpt lat="54.281434016302228" lon="10.667656967416406">
        <ele>35.229999999999997</ele>
        <time>2019-05-08T11:04:44Z</time>
      </trkpt>
      <trkpt lat="54.28139696829021" lon="10.667205015197396">
        <ele>34.259999999999998</ele>
        <time>2019-05-08T11:04:45Z</time>
      </trkpt>
      <trkpt lat="54.281313987448812" lon="10.66674099303782">
        <ele>33.780000000000001</ele>
        <time>2019-05-08T11:04:46Z</time>
      </trkpt>
      <trkpt lat="54.280890030786395" lon="10.664025004953146">
        <ele>27.530000000000001</ele>
        <time>2019-05-08T11:04:52Z</time>
      </trkpt>
      <trkpt lat="54.280991032719612" lon="10.662146033719182">
        <ele>22.25</ele>
        <time>2019-05-08T11:04:57Z</time>
      </trkpt>
      <trkpt lat="54.281064961105585" lon="10.661800028756261">
        <ele>20.809999999999999</ele>
        <time>2019-05-08T11:04:58Z</time>
      </trkpt>
      <trkpt lat="54.28113997913897" lon="10.661451006308198">
        <ele>19.84</ele>
        <time>2019-05-08T11:04:59Z</time>
      </trkpt>
      <trkpt lat="54.281249027699232" lon="10.661142971366644">
        <ele>18.879999999999999</ele>
        <time>2019-05-08T11:05:00Z</time>
      </trkpt>
      <trkpt lat="54.281367966905236" lon="10.660836026072502">
        <ele>17.440000000000001</ele>
        <time>2019-05-08T11:05:01Z</time>
      </trkpt>
      <trkpt lat="54.281481960788369" lon="10.660540983080864">
        <ele>16.48</ele>
        <time>2019-05-08T11:05:02Z</time>
      </trkpt>
      <trkpt lat="54.282213030382991" lon="10.659239022061229">
        <ele>10.23</ele>
        <time>2019-05-08T11:05:08Z</time>
      </trkpt>
      <trkpt lat="54.282515030354261" lon="10.658796038478613">
        <ele>8.310000000000001</ele>
        <time>2019-05-08T11:05:11Z</time>
      </trkpt>
      <trkpt lat="54.28257898427546" lon="10.658702999353409">
        <ele>7.35</ele>
        <time>2019-05-08T11:05:12Z</time>
      </trkpt>
      <trkpt lat="54.282625000923872" lon="10.658636027947068">
        <ele>6.87</ele>
        <time>2019-05-08T11:05:13Z</time>
      </trkpt>
      <trkpt lat="54.282588036730886" lon="10.658459002152085">
        <ele>5.91</ele>
        <time>2019-05-08T11:05:14Z</time>
      </trkpt>
      <trkpt lat="54.282551994547248" lon="10.658416002988815">
        <ele>5.42</ele>
        <time>2019-05-08T11:05:15Z</time>
      </trkpt>
      <trkpt lat="54.282501032575965" lon="10.658355988562107">
        <ele>4.94</ele>
        <time>2019-05-08T11:05:16Z</time>
      </trkpt>
      <trkpt lat="54.282428026199341" lon="10.658269990235567">
        <ele>3.98</ele>
        <time>2019-05-08T11:05:17Z</time>
      </trkpt>
      <trkpt lat="54.282328030094504" lon="10.658152978867292">
        <ele>3.5</ele>
        <time>2019-05-08T11:05:18Z</time>
      </trkpt>
      <trkpt lat="54.281272999942303" lon="10.656968029215932">
        <ele>3.5</ele>
        <time>2019-05-08T11:05:27Z</time>
      </trkpt>
      <trkpt lat="54.279948994517326" lon="10.655148988589644">
        <ele>3.02</ele>
        <time>2019-05-08T11:05:41Z</time>
      </trkpt>
      <trkpt lat="54.279070990160108" lon="10.653446037322283">
        <ele>3.02</ele>
        <time>2019-05-08T11:05:52Z</time>
      </trkpt>
      <trkpt lat="54.278960013762116" lon="10.653364984318614">
        <ele>3.02</ele>
        <time>2019-05-08T11:05:53Z</time>
      </trkpt>
      <trkpt lat="54.278851971030235" lon="10.653284015133977">
        <ele>2.54</ele>
        <time>2019-05-08T11:05:54Z</time>
      </trkpt>
      <trkpt lat="54.278743006289005" lon="10.653203967958689">
        <ele>2.54</ele>
        <time>2019-05-08T11:05:55Z</time>
      </trkpt>
      <trkpt lat="54.278628006577492" lon="10.653146971017122">
        <ele>2.06</ele>
        <time>2019-05-08T11:05:56Z</time>
      </trkpt>
      <trkpt lat="54.278510995209217" lon="10.653102966025472">
        <ele>2.06</ele>
        <time>2019-05-08T11:05:57Z</time>
      </trkpt>
      <trkpt lat="54.277949994429946" lon="10.652890987694263">
        <ele>1.58</ele>
        <time>2019-05-08T11:06:02Z</time>
      </trkpt>
      <trkpt lat="54.277843041345477" lon="10.652813035994768">
        <ele>2.06</ele>
        <time>2019-05-08T11:06:03Z</time>
      </trkpt>
      <trkpt lat="54.277740027755499" lon="10.652716979384422">
        <ele>2.54</ele>
        <time>2019-05-08T11:06:04Z</time>
      </trkpt>
      <trkpt lat="54.277631985023618" lon="10.652616983279586">
        <ele>2.54</ele>
        <time>2019-05-08T11:06:05Z</time>
      </trkpt>
      <trkpt lat="54.277541041374207" lon="10.652486979961395">
        <ele>3.02</ele>
        <time>2019-05-08T11:06:06Z</time>
      </trkpt>
      <trkpt lat="54.276416022330523" lon="10.650923000648618">
        <ele>8.310000000000001</ele>
        <time>2019-05-08T11:06:18Z</time>
      </trkpt>
      <trkpt lat="54.275986030697823" lon="10.650196960195899">
        <ele>7.83</ele>
        <time>2019-05-08T11:06:23Z</time>
      </trkpt>
      <trkpt lat="54.275909001007676" lon="10.650030998513103">
        <ele>7.35</ele>
        <time>2019-05-08T11:06:24Z</time>
      </trkpt>
      <trkpt lat="54.275869019329548" lon="10.649850033223629">
        <ele>7.35</ele>
        <time>2019-05-08T11:06:25Z</time>
      </trkpt>
      <trkpt lat="54.275833982974291" lon="10.649645011872053">
        <ele>7.35</ele>
        <time>2019-05-08T11:06:26Z</time>
      </trkpt>
      <trkpt lat="54.275799030438066" lon="10.649438984692097">
        <ele>7.83</ele>
        <time>2019-05-08T11:06:27Z</time>
      </trkpt>
      <trkpt lat="54.275611024349928" lon="10.64867396838963">
        <ele>7.83</ele>
        <time>2019-05-08T11:06:31Z</time>
      </trkpt>
      <trkpt lat="54.275546986609697" lon="10.648493003100157">
        <ele>7.83</ele>
        <time>2019-05-08T11:06:32Z</time>
      </trkpt>
      <trkpt lat="54.275403991341591" lon="10.648159990087152">
        <ele>8.789999999999999</ele>
        <time>2019-05-08T11:06:34Z</time>
      </trkpt>
      <trkpt lat="54.275314975529909" lon="10.648010959848762">
        <ele>8.789999999999999</ele>
        <time>2019-05-08T11:06:35Z</time>
      </trkpt>
      <trkpt lat="54.275224031880498" lon="10.647860001772642">
        <ele>8.789999999999999</ele>
        <time>2019-05-08T11:06:36Z</time>
      </trkpt>
      <trkpt lat="54.275107020512223" lon="10.647739972919226">
        <ele>8.789999999999999</ele>
        <time>2019-05-08T11:06:37Z</time>
      </trkpt>
      <trkpt lat="54.274984980002046" lon="10.647627990692854">
        <ele>9.27</ele>
        <time>2019-05-08T11:06:38Z</time>
      </trkpt>
      <trkpt lat="54.27391704171896" lon="10.646638004109263">
        <ele>11.19</ele>
        <time>2019-05-08T11:06:45Z</time>
      </trkpt>
      <trkpt lat="54.273137021809816" lon="10.645667966455221">
        <ele>13.119999999999999</ele>
        <time>2019-05-08T11:06:50Z</time>
      </trkpt>
      <trkpt lat="54.272472001612186" lon="10.644274977967143">
        <ele>16</ele>
        <time>2019-05-08T11:06:55Z</time>
      </trkpt>
      <trkpt lat="54.272367982193828" lon="10.643940037116408">
        <ele>16</ele>
        <time>2019-05-08T11:06:56Z</time>
      </trkpt>
      <trkpt lat="54.271913012489676" lon="10.64158002845943">
        <ele>17.440000000000001</ele>
        <time>2019-05-08T11:07:02Z</time>
      </trkpt>
      <trkpt lat="54.271659962832928" lon="10.64033699221909">
        <ele>16.48</ele>
        <time>2019-05-08T11:07:05Z</time>
      </trkpt>
      <trkpt lat="54.271530965343118" lon="10.639941031113267">
        <ele>16.48</ele>
        <time>2019-05-08T11:07:06Z</time>
      </trkpt>
      <trkpt lat="54.271382018923759" lon="10.639564013108611">
        <ele>16</ele>
        <time>2019-05-08T11:07:07Z</time>
      </trkpt>
      <trkpt lat="54.271202981472015" lon="10.639220019802451">
        <ele>15.52</ele>
        <time>2019-05-08T11:07:08Z</time>
      </trkpt>
      <trkpt lat="54.271020004525781" lon="10.638867979869246">
        <ele>15.039999999999999</ele>
        <time>2019-05-08T11:07:09Z</time>
      </trkpt>
      <trkpt lat="54.270822023972869" lon="10.638541001826525">
        <ele>14.56</ele>
        <time>2019-05-08T11:07:10Z</time>
      </trkpt>
      <trkpt lat="54.270595964044333" lon="10.638269009068608">
        <ele>14.08</ele>
        <time>2019-05-08T11:07:11Z</time>
      </trkpt>
      <trkpt lat="54.270359007641673" lon="10.637984024360776">
        <ele>14.08</ele>
        <time>2019-05-08T11:07:12Z</time>
      </trkpt>
      <trkpt lat="54.270123979076743" lon="10.637809010222554">
        <ele>13.6</ele>
        <time>2019-05-08T11:07:13Z</time>
      </trkpt>
      <trkpt lat="54.269874030724168" lon="10.637621004134417">
        <ele>13.6</ele>
        <time>2019-05-08T11:07:14Z</time>
      </trkpt>
      <trkpt lat="54.269607989117503" lon="10.637491000816226">
        <ele>13.119999999999999</ele>
        <time>2019-05-08T11:07:15Z</time>
      </trkpt>
      <trkpt lat="54.266597041860223" lon="10.636181998997927">
        <ele>18.879999999999999</ele>
        <time>2019-05-08T11:07:26Z</time>
      </trkpt>
      <trkpt lat="54.265099028125405" lon="10.63520098105073">
        <ele>23.690000000000001</ele>
        <time>2019-05-08T11:07:32Z</time>
      </trkpt>
      <trkpt lat="54.264111975207925" lon="10.633552009239793">
        <ele>27.530000000000001</ele>
        <time>2019-05-08T11:07:37Z</time>
      </trkpt>
      <trkpt lat="54.263388030230999" lon="10.631725005805492">
        <ele>28.98</ele>
        <time>2019-05-08T11:07:42Z</time>
      </trkpt>
      <trkpt lat="54.263206981122494" lon="10.6314189825207">
        <ele>28.98</ele>
        <time>2019-05-08T11:07:43Z</time>
      </trkpt>
      <trkpt lat="54.263013023883104" lon="10.631150007247925">
        <ele>28.98</ele>
        <time>2019-05-08T11:07:44Z</time>
      </trkpt>
      <trkpt lat="54.262817976996303" lon="10.63088103197515">
        <ele>29.460000000000001</ele>
        <time>2019-05-08T11:07:45Z</time>
      </trkpt>
      <trkpt lat="54.262594012543559" lon="10.630670981481671">
        <ele>29.460000000000001</ele>
        <time>2019-05-08T11:07:46Z</time>
      </trkpt>
      <trkpt lat="54.262354038655758" lon="10.630499990656972">
        <ele>29.460000000000001</ele>
        <time>2019-05-08T11:07:47Z</time>
      </trkpt>
      <trkpt lat="54.262110041454434" lon="10.630326988175511">
        <ele>29.460000000000001</ele>
        <time>2019-05-08T11:07:48Z</time>
      </trkpt>
      <trkpt lat="54.261863026767969" lon="10.63015197403729">
        <ele>29.940000000000001</ele>
        <time>2019-05-08T11:07:49Z</time>
      </trkpt>
      <trkpt lat="54.261146960780025" lon="10.629610000178218">
        <ele>30.899999999999999</ele>
        <time>2019-05-08T11:07:52Z</time>
      </trkpt>
      <trkpt lat="54.260924002155662" lon="10.629380000755191">
        <ele>30.899999999999999</ele>
        <time>2019-05-08T11:07:53Z</time>
      </trkpt>
      <trkpt lat="54.260724009945989" lon="10.629122005775571">
        <ele>31.379999999999999</ele>
        <time>2019-05-08T11:07:54Z</time>
      </trkpt>
      <trkpt lat="54.260536003857851" lon="10.628815982490778">
        <ele>31.859999999999999</ele>
        <time>2019-05-08T11:07:55Z</time>
      </trkpt>
      <trkpt lat="54.260350009426475" lon="10.628508031368256">
        <ele>31.859999999999999</ele>
        <time>2019-05-08T11:07:56Z</time>
      </trkpt>
      <trkpt lat="54.259439986199141" lon="10.626885965466499">
        <ele>33.299999999999997</ele>
        <time>2019-05-08T11:08:02Z</time>
      </trkpt>
      <trkpt lat="54.258598024025559" lon="10.625422988086939">
        <ele>32.82</ele>
        <time>2019-05-08T11:08:10Z</time>
      </trkpt>
      <trkpt lat="54.258008021861315" lon="10.624545989558101">
        <ele>33.299999999999997</ele>
        <time>2019-05-08T11:08:14Z</time>
      </trkpt>
      <trkpt lat="54.257825966924429" lon="10.624345997348428">
        <ele>33.780000000000001</ele>
        <time>2019-05-08T11:08:15Z</time>
      </trkpt>
      <trkpt lat="54.257625974714756" lon="10.624190010130405">
        <ele>34.259999999999998</ele>
        <time>2019-05-08T11:08:16Z</time>
      </trkpt>
      <trkpt lat="54.256223011761904" lon="10.623392974957824">
        <ele>37.630000000000003</ele>
        <time>2019-05-08T11:08:23Z</time>
      </trkpt>
      <trkpt lat="54.25507603213191" lon="10.622541960328817">
        <ele>41.469999999999999</ele>
        <time>2019-05-08T11:08:29Z</time>
      </trkpt>
      <trkpt lat="54.254910992458463" lon="10.622281031683087">
        <ele>42.439999999999998</ele>
        <time>2019-05-08T11:08:30Z</time>
      </trkpt>
      <trkpt lat="54.254741007462144" lon="10.622012978419662">
        <ele>43.399999999999999</ele>
        <time>2019-05-08T11:08:31Z</time>
      </trkpt>
      <trkpt lat="54.253707015886903" lon="10.620070975273848">
        <ele>50.609999999999999</ele>
        <time>2019-05-08T11:08:38Z</time>
      </trkpt>
      <trkpt lat="54.253146015107632" lon="10.618564998731017">
        <ele>56.369999999999997</ele>
        <time>2019-05-08T11:08:45Z</time>
      </trkpt>
      <trkpt lat="54.252449981868267" lon="10.616562981158495">
        <ele>58.299999999999997</ele>
        <time>2019-05-08T11:08:57Z</time>
      </trkpt>
      <trkpt lat="54.252232974395156" lon="10.616148998960853">
        <ele>57.82</ele>
        <time>2019-05-08T11:09:00Z</time>
      </trkpt>
      <trkpt lat="54.252157034352422" lon="10.616042967885733">
        <ele>57.340000000000003</ele>
        <time>2019-05-08T11:09:01Z</time>
      </trkpt>
      <trkpt lat="54.251882024109364" lon="10.615825960412621">
        <ele>55.409999999999997</ele>
        <time>2019-05-08T11:09:07Z</time>
      </trkpt>
      <trkpt lat="54.251841036602855" lon="10.615796959027648">
        <ele>54.93</ele>
        <time>2019-05-08T11:09:08Z</time>
      </trkpt>
      <trkpt lat="54.251787979155779" lon="10.615796959027648">
        <ele>54.93</ele>
        <time>2019-05-08T11:09:09Z</time>
      </trkpt>
      <trkpt lat="54.251708015799522" lon="10.615796959027648">
        <ele>54.93</ele>
        <time>2019-05-08T11:09:10Z</time>
      </trkpt>
      <trkpt lat="54.250852977856994" lon="10.615796959027648">
        <ele>53.009999999999998</ele>
        <time>2019-05-08T11:09:17Z</time>
      </trkpt>
      <trkpt lat="54.249481027945876" lon="10.61562797985971">
        <ele>52.530000000000001</ele>
        <time>2019-05-08T11:09:26Z</time>
      </trkpt>
      <trkpt lat="54.248347962275147" lon="10.614933958277106">
        <ele>55.890000000000001</ele>
        <time>2019-05-08T11:09:32Z</time>
      </trkpt>
      <trkpt lat="54.248182000592351" lon="10.614751987159252">
        <ele>56.369999999999997</ele>
        <time>2019-05-08T11:09:33Z</time>
      </trkpt>
      <trkpt lat="54.248020984232426" lon="10.614545959979296">
        <ele>56.859999999999999</ele>
        <time>2019-05-08T11:09:34Z</time>
      </trkpt>
      <trkpt lat="54.247867008671165" lon="10.614349991083145">
        <ele>57.340000000000003</ele>
        <time>2019-05-08T11:09:35Z</time>
      </trkpt>
      <trkpt lat="54.247744968160987" lon="10.614142036065459">
        <ele>57.82</ele>
        <time>2019-05-08T11:09:36Z</time>
      </trkpt>
      <trkpt lat="54.247645977884531" lon="10.61393198557198">
        <ele>58.780000000000001</ele>
        <time>2019-05-08T11:09:37Z</time>
      </trkpt>
      <trkpt lat="54.247576994821429" lon="10.613698968663812">
        <ele>59.259999999999998</ele>
        <time>2019-05-08T11:09:38Z</time>
      </trkpt>
      <trkpt lat="54.24751304090023" lon="10.613464023917913">
        <ele>60.219999999999999</ele>
        <time>2019-05-08T11:09:39Z</time>
      </trkpt>
      <trkpt lat="54.24744900316" lon="10.613231007009745">
        <ele>60.219999999999999</ele>
        <time>2019-05-08T11:09:40Z</time>
      </trkpt>
      <trkpt lat="54.247392006218433" lon="10.612987009808421">
        <ele>60.700000000000003</ele>
        <time>2019-05-08T11:09:41Z</time>
      </trkpt>
      <trkpt lat="54.247360993176699" lon="10.61270697042346">
        <ele>61.18</ele>
        <time>2019-05-08T11:09:42Z</time>
      </trkpt>
      <trkpt lat="54.247326962649822" lon="10.612401030957699">
        <ele>61.659999999999997</ele>
        <time>2019-05-08T11:09:43Z</time>
      </trkpt>
      <trkpt lat="54.247071985155344" lon="10.610565980896354">
        <ele>62.140000000000001</ele>
        <time>2019-05-08T11:09:48Z</time>
      </trkpt>
      <trkpt lat="54.24697601236403" lon="10.610172031447291">
        <ele>62.140000000000001</ele>
        <time>2019-05-08T11:09:49Z</time>
      </trkpt>
      <trkpt lat="54.246864030137658" lon="10.609773974865675">
        <ele>61.659999999999997</ele>
        <time>2019-05-08T11:09:50Z</time>
      </trkpt>
      <trkpt lat="54.246714999899268" lon="10.6093979626894">
        <ele>61.18</ele>
        <time>2019-05-08T11:09:51Z</time>
      </trkpt>
      <trkpt lat="54.246562030166388" lon="10.609014993533492">
        <ele>61.18</ele>
        <time>2019-05-08T11:09:52Z</time>
      </trkpt>
      <trkpt lat="54.244825970381498" lon="10.604666965082288">
        <ele>66.950000000000003</ele>
        <time>2019-05-08T11:10:03Z</time>
      </trkpt>
      <trkpt lat="54.244542997330427" lon="10.603902032598853">
        <ele>68.870000000000005</ele>
        <time>2019-05-08T11:10:05Z</time>
      </trkpt>
      <trkpt lat="54.244455993175507" lon="10.603484027087688">
        <ele>69.829999999999998</ele>
        <time>2019-05-08T11:10:06Z</time>
      </trkpt>
      <trkpt lat="54.244371000677347" lon="10.603071972727776">
        <ele>70.310000000000002</ele>
        <time>2019-05-08T11:10:07Z</time>
      </trkpt>
      <trkpt lat="54.244325989857316" lon="10.602653967216611">
        <ele>70.790000000000006</ele>
        <time>2019-05-08T11:10:08Z</time>
      </trkpt>
      <trkpt lat="54.244317021220922" lon="10.60222296975553">
        <ele>71.269999999999996</ele>
        <time>2019-05-08T11:10:09Z</time>
      </trkpt>
      <trkpt lat="54.244307968765497" lon="10.601775962859392">
        <ele>71.760000000000005</ele>
        <time>2019-05-08T11:10:10Z</time>
      </trkpt>
      <trkpt lat="54.244086015969515" lon="10.598047021776438">
        <ele>70.310000000000002</ele>
        <time>2019-05-08T11:10:18Z</time>
      </trkpt>
      <trkpt lat="54.243770018219948" lon="10.594463003799319">
        <ele>60.219999999999999</ele>
        <time>2019-05-08T11:10:26Z</time>
      </trkpt>
      <trkpt lat="54.243658035993576" lon="10.592801962047815">
        <ele>56.369999999999997</ele>
        <time>2019-05-08T11:10:30Z</time>
      </trkpt>
      <trkpt lat="54.243682008236647" lon="10.592425027862191">
        <ele>55.890000000000001</ele>
        <time>2019-05-08T11:10:31Z</time>
      </trkpt>
      <trkpt lat="54.24379600211978" lon="10.590600958094001">
        <ele>54.93</ele>
        <time>2019-05-08T11:10:37Z</time>
      </trkpt>
      <trkpt lat="54.243815029039979" lon="10.588702037930489">
        <ele>53.009999999999998</ele>
        <time>2019-05-08T11:10:46Z</time>
      </trkpt>
      <trkpt lat="54.243786027655005" lon="10.588529035449028">
        <ele>52.530000000000001</ele>
        <time>2019-05-08T11:10:47Z</time>
      </trkpt>
      <trkpt lat="54.243755014613271" lon="10.588344968855381">
        <ele>52.049999999999997</ele>
        <time>2019-05-08T11:10:48Z</time>
      </trkpt>
      <trkpt lat="54.243715032935143" lon="10.588170038536191">
        <ele>51.57</ele>
        <time>2019-05-08T11:10:49Z</time>
      </trkpt>
      <trkpt lat="54.243641020730138" lon="10.588014973327518">
        <ele>50.609999999999999</ele>
        <time>2019-05-08T11:10:50Z</time>
      </trkpt>
      <trkpt lat="54.243567008525133" lon="10.587857980281115">
        <ele>50.130000000000003</ele>
        <time>2019-05-08T11:10:51Z</time>
      </trkpt>
      <trkpt lat="54.243482016026974" lon="10.587726971134543">
        <ele>49.159999999999997</ele>
        <time>2019-05-08T11:10:52Z</time>
      </trkpt>
      <trkpt lat="54.243391994386911" lon="10.587613983079791">
        <ele>48.200000000000003</ele>
        <time>2019-05-08T11:10:53Z</time>
      </trkpt>
      <trkpt lat="54.243156965821981" lon="10.587297985330224">
        <ele>43.399999999999999</ele>
        <time>2019-05-08T11:10:56Z</time>
      </trkpt>
      <trkpt lat="54.243101980537176" lon="10.587196983397007">
        <ele>41.469999999999999</ele>
        <time>2019-05-08T11:10:57Z</time>
      </trkpt>
      <trkpt lat="54.242954961955547" lon="10.587087012827396">
        <ele>40.030000000000001</ele>
        <time>2019-05-08T11:10:58Z</time>
      </trkpt>
      <trkpt lat="54.242848008871078" lon="10.587087012827396">
        <ele>39.07</ele>
        <time>2019-05-08T11:10:59Z</time>
      </trkpt>
      <trkpt lat="54.242763016372919" lon="10.587043007835746">
        <ele>37.630000000000003</ele>
        <time>2019-05-08T11:11:00Z</time>
      </trkpt>
      <trkpt lat="54.242652961984277" lon="10.586932031437755">
        <ele>36.670000000000002</ele>
        <time>2019-05-08T11:11:01Z</time>
      </trkpt>
      <trkpt lat="54.242539973929524" lon="10.586819965392351">
        <ele>35.710000000000001</ele>
        <time>2019-05-08T11:11:02Z</time>
      </trkpt>
      <trkpt lat="54.242428997531533" lon="10.58670898899436">
        <ele>34.740000000000002</ele>
        <time>2019-05-08T11:11:03Z</time>
      </trkpt>
      <trkpt lat="54.242324978113174" lon="10.586604969576001">
        <ele>34.259999999999998</ele>
        <time>2019-05-08T11:11:04Z</time>
      </trkpt>
      <trkpt lat="54.242183994501829" lon="10.586554007604718">
        <ele>33.780000000000001</ele>
        <time>2019-05-08T11:11:05Z</time>
      </trkpt>
      <trkpt lat="54.242051979526877" lon="10.586559036746621">
        <ele>32.82</ele>
        <time>2019-05-08T11:11:06Z</time>
      </trkpt>
      <trkpt lat="54.241909990087152" lon="10.586564987897873">
        <ele>32.82</ele>
        <time>2019-05-08T11:11:07Z</time>
      </trkpt>
      <trkpt lat="54.241615030914545" lon="10.586516037583351">
        <ele>31.379999999999999</ele>
        <time>2019-05-08T11:11:09Z</time>
      </trkpt>
      <trkpt lat="54.241459965705872" lon="10.586442025378346">
        <ele>30.420000000000002</ele>
        <time>2019-05-08T11:11:10Z</time>
      </trkpt>
      <trkpt lat="54.241164000704885" lon="10.586362984031439">
        <ele>28.98</ele>
        <time>2019-05-08T11:11:12Z</time>
      </trkpt>
      <trkpt lat="54.241029974073172" lon="10.586400032043457">
        <ele>28.5</ele>
        <time>2019-05-08T11:11:13Z</time>
      </trkpt>
      <trkpt lat="54.239952983334661" lon="10.586957009509206">
        <ele>33.299999999999997</ele>
        <time>2019-05-08T11:11:20Z</time>
      </trkpt>
      <trkpt lat="54.239125018939376" lon="10.587405022233725">
        <ele>38.109999999999999</ele>
        <time>2019-05-08T11:11:26Z</time>
      </trkpt>
      <trkpt lat="54.238409958779812" lon="10.587839959189296">
        <ele>42.920000000000002</ele>
        <time>2019-05-08T11:11:33Z</time>
      </trkpt>
      <trkpt lat="54.238323960453272" lon="10.587873989716172">
        <ele>43.399999999999999</ele>
        <time>2019-05-08T11:11:34Z</time>
      </trkpt>
      <trkpt lat="54.238247014582157" lon="10.587757984176278">
        <ele>43.880000000000003</ele>
        <time>2019-05-08T11:11:35Z</time>
      </trkpt>
      <trkpt lat="54.2382119782269" lon="10.587649019435048">
        <ele>44.359999999999999</ele>
        <time>2019-05-08T11:11:36Z</time>
      </trkpt>
      <trkpt lat="54.23816797323525" lon="10.587509963661432">
        <ele>44.840000000000003</ele>
        <time>2019-05-08T11:11:37Z</time>
      </trkpt>
      <trkpt lat="54.237792966887355" lon="10.586251001805067">
        <ele>47.719999999999999</ele>
        <time>2019-05-08T11:11:42Z</time>
      </trkpt>
      <trkpt lat="54.237186033278704" lon="10.583982020616531">
        <ele>49.159999999999997</ele>
        <time>2019-05-08T11:11:49Z</time>
      </trkpt>
      <trkpt lat="54.237035997211933" lon="10.583513975143433">
        <ele>49.649999999999999</ele>
        <time>2019-05-08T11:11:51Z</time>
      </trkpt>
      <trkpt lat="54.236938012763858" lon="10.583308031782508">
        <ele>50.130000000000003</ele>
        <time>2019-05-08T11:11:52Z</time>
      </trkpt>
      <trkpt lat="54.236055985093117" lon="10.582052003592253">
        <ele>51.090000000000003</ele>
        <time>2019-05-08T11:11:58Z</time>
      </trkpt>
      <trkpt lat="54.234461998566985" lon="10.580301024019718">
        <ele>50.130000000000003</ele>
        <time>2019-05-08T11:12:07Z</time>
      </trkpt>
      <trkpt lat="54.234340963885188" lon="10.580113017931581">
        <ele>50.130000000000003</ele>
        <time>2019-05-08T11:12:08Z</time>
      </trkpt>
      <trkpt lat="54.234270974993706" lon="10.579885030165315">
        <ele>50.130000000000003</ele>
        <time>2019-05-08T11:12:09Z</time>
      </trkpt>
      <trkpt lat="54.234116999432445" lon="10.579387983307242">
        <ele>50.130000000000003</ele>
        <time>2019-05-08T11:12:11Z</time>
      </trkpt>
      <trkpt lat="54.234041981399059" lon="10.57914599776268">
        <ele>50.130000000000003</ele>
        <time>2019-05-08T11:12:12Z</time>
      </trkpt>
      <trkpt lat="54.233994036912918" lon="10.578894037753344">
        <ele>49.649999999999999</ele>
        <time>2019-05-08T11:12:13Z</time>
      </trkpt>
      <trkpt lat="54.233966041356325" lon="10.578624978661537">
        <ele>49.649999999999999</ele>
        <time>2019-05-08T11:12:14Z</time>
      </trkpt>
      <trkpt lat="54.233939973637462" lon="10.578368995338678">
        <ele>50.130000000000003</ele>
        <time>2019-05-08T11:12:15Z</time>
      </trkpt>
      <trkpt lat="54.233916001394391" lon="10.578138995915651">
        <ele>50.130000000000003</ele>
        <time>2019-05-08T11:12:16Z</time>
      </trkpt>
      <trkpt lat="54.233867973089218" lon="10.577926011756063">
        <ele>49.649999999999999</ele>
        <time>2019-05-08T11:12:17Z</time>
      </trkpt>
      <trkpt lat="54.233787003904581" lon="10.57772995904088">
        <ele>49.649999999999999</ele>
        <time>2019-05-08T11:12:18Z</time>
      </trkpt>
      <trkpt lat="54.233161965385079" lon="10.576164973899722">
        <ele>50.130000000000003</ele>
        <time>2019-05-08T11:12:25Z</time>
      </trkpt>
      <trkpt lat="54.232921991497278" lon="10.575672034174204">
        <ele>50.609999999999999</ele>
        <time>2019-05-08T11:12:27Z</time>
      </trkpt>
      <trkpt lat="54.231881964951754" lon="10.573473041877151">
        <ele>49.649999999999999</ele>
        <time>2019-05-08T11:12:35Z</time>
      </trkpt>
      <trkpt lat="54.231046959757805" lon="10.570969032123685">
        <ele>52.049999999999997</ele>
        <time>2019-05-08T11:12:43Z</time>
      </trkpt>
      <trkpt lat="54.230383029207587" lon="10.569405974820256">
        <ele>52.049999999999997</ele>
        <time>2019-05-08T11:12:50Z</time>
      </trkpt>
      <trkpt lat="54.230240033939481" lon="10.569249987602234">
        <ele>51.090000000000003</ele>
        <time>2019-05-08T11:12:51Z</time>
      </trkpt>
      <trkpt lat="54.230126040056348" lon="10.569127025082707">
        <ele>50.609999999999999</ele>
        <time>2019-05-08T11:12:52Z</time>
      </trkpt>
      <trkpt lat="54.230010034516454" lon="10.569074973464012">
        <ele>50.130000000000003</ele>
        <time>2019-05-08T11:12:53Z</time>
      </trkpt>
      <trkpt lat="54.229877013713121" lon="10.569015964865685">
        <ele>49.159999999999997</ele>
        <time>2019-05-08T11:12:54Z</time>
      </trkpt>
      <trkpt lat="54.229738963767886" lon="10.568955028429627">
        <ele>48.68</ele>
        <time>2019-05-08T11:12:55Z</time>
      </trkpt>
      <trkpt lat="54.229645002633333" lon="10.568967014551163">
        <ele>48.200000000000003</ele>
        <time>2019-05-08T11:12:56Z</time>
      </trkpt>
      <trkpt lat="54.229541989043355" lon="10.569000039249659">
        <ele>47.719999999999999</ele>
        <time>2019-05-08T11:12:57Z</time>
      </trkpt>
      <trkpt lat="54.229430006816983" lon="10.569100035354495">
        <ele>47.240000000000002</ele>
        <time>2019-05-08T11:12:58Z</time>
      </trkpt>
      <trkpt lat="54.229308972135186" lon="10.569210005924106">
        <ele>46.759999999999998</ele>
        <time>2019-05-08T11:12:59Z</time>
      </trkpt>
      <trkpt lat="54.22918701544404" lon="10.569318970665336">
        <ele>46.759999999999998</ele>
        <time>2019-05-08T11:13:00Z</time>
      </trkpt>
      <trkpt lat="54.229055000469089" lon="10.569396000355482">
        <ele>46.759999999999998</ele>
        <time>2019-05-08T11:13:01Z</time>
      </trkpt>
      <trkpt lat="54.228932037949562" lon="10.569445034489036">
        <ele>46.280000000000001</ele>
        <time>2019-05-08T11:13:02Z</time>
      </trkpt>
      <trkpt lat="54.228795999661088" lon="10.569448973983526">
        <ele>46.280000000000001</ele>
        <time>2019-05-08T11:13:03Z</time>
      </trkpt>
      <trkpt lat="54.228646969422698" lon="10.569427013397217">
        <ele>46.759999999999998</ele>
        <time>2019-05-08T11:13:04Z</time>
      </trkpt>
      <trkpt lat="54.228493999689817" lon="10.569347972050309">
        <ele>46.759999999999998</ele>
        <time>2019-05-08T11:13:05Z</time>
      </trkpt>
      <trkpt lat="54.228328038007021" lon="10.569260967895389">
        <ele>46.759999999999998</ele>
        <time>2019-05-08T11:13:06Z</time>
      </trkpt>
      <trkpt lat="54.228142965584993" lon="10.569162983447313">
        <ele>46.280000000000001</ele>
        <time>2019-05-08T11:13:07Z</time>
      </trkpt>
      <trkpt lat="54.22796200029552" lon="10.569008002057672">
        <ele>46.280000000000001</ele>
        <time>2019-05-08T11:13:08Z</time>
      </trkpt>
      <trkpt lat="54.227773994207382" lon="10.568847991526127">
        <ele>46.280000000000001</ele>
        <time>2019-05-08T11:13:09Z</time>
      </trkpt>
      <trkpt lat="54.226875035092235" lon="10.568194035440683">
        <ele>45.799999999999997</ele>
        <time>2019-05-08T11:13:14Z</time>
      </trkpt>
      <trkpt lat="54.226387040689588" lon="10.567981973290443">
        <ele>45.32</ele>
        <time>2019-05-08T11:13:18Z</time>
      </trkpt>
      <trkpt lat="54.226292995736003" lon="10.567922964692116">
        <ele>44.840000000000003</ele>
        <time>2019-05-08T11:13:19Z</time>
      </trkpt>
      <trkpt lat="54.226245973259211" lon="10.567841995507479">
        <ele>44.840000000000003</ele>
        <time>2019-05-08T11:13:20Z</time>
      </trkpt>
      <trkpt lat="54.226211020722985" lon="10.567706041038036">
        <ele>44.359999999999999</ele>
        <time>2019-05-08T11:13:21Z</time>
      </trkpt>
      <trkpt lat="54.22619903460145" lon="10.567571008577943">
        <ele>44.359999999999999</ele>
        <time>2019-05-08T11:13:22Z</time>
      </trkpt>
      <trkpt lat="54.22619903460145" lon="10.567417033016682">
        <ele>43.880000000000003</ele>
        <time>2019-05-08T11:13:23Z</time>
      </trkpt>
      <trkpt lat="54.22619903460145" lon="10.567247970029712">
        <ele>43.880000000000003</ele>
        <time>2019-05-08T11:13:24Z</time>
      </trkpt>
      <trkpt lat="54.22619903460145" lon="10.566886961460114">
        <ele>44.359999999999999</ele>
        <time>2019-05-08T11:13:26Z</time>
      </trkpt>
      <trkpt lat="54.226189982146025" lon="10.566688980907202">
        <ele>44.359999999999999</ele>
        <time>2019-05-08T11:13:27Z</time>
      </trkpt>
      <trkpt lat="54.226079005748034" lon="10.565692037343979">
        <ele>43.880000000000003</ele>
        <time>2019-05-08T11:13:32Z</time>
      </trkpt>
      <trkpt lat="54.225863004103303" lon="10.564903970807791">
        <ele>45.32</ele>
        <time>2019-05-08T11:13:37Z</time>
      </trkpt>
      <trkpt lat="54.225774994120002" lon="10.564797017723322">
        <ele>45.799999999999997</ele>
        <time>2019-05-08T11:13:38Z</time>
      </trkpt>
      <trkpt lat="54.225673992186785" lon="10.564677994698286">
        <ele>46.280000000000001</ele>
        <time>2019-05-08T11:13:39Z</time>
      </trkpt>
      <trkpt lat="54.225550023838878" lon="10.564588978886604">
        <ele>45.799999999999997</ele>
        <time>2019-05-08T11:13:40Z</time>
      </trkpt>
      <trkpt lat="54.225425971671939" lon="10.564500968903303">
        <ele>44.840000000000003</ele>
        <time>2019-05-08T11:13:41Z</time>
      </trkpt>
      <trkpt lat="54.224498011171818" lon="10.563438981771469">
        <ele>37.149999999999999</ele>
        <time>2019-05-08T11:13:47Z</time>
      </trkpt>
      <trkpt lat="54.223326975479722" lon="10.562233999371529">
        <ele>30.899999999999999</ele>
        <time>2019-05-08T11:13:54Z</time>
      </trkpt>
      <trkpt lat="54.222163986414671" lon="10.561252981424332">
        <ele>28.02</ele>
        <time>2019-05-08T11:14:01Z</time>
      </trkpt>
      <trkpt lat="54.22134599648416" lon="10.560578992590308">
        <ele>21.289999999999999</ele>
        <time>2019-05-08T11:14:08Z</time>
      </trkpt>
      <trkpt lat="54.221221022307873" lon="10.56047597900033">
        <ele>20.32</ele>
        <time>2019-05-08T11:14:09Z</time>
      </trkpt>
      <trkpt lat="54.22112999483943" lon="10.560322003439069">
        <ele>19.359999999999999</ele>
        <time>2019-05-08T11:14:10Z</time>
      </trkpt>
      <trkpt lat="54.221039973199368" lon="10.560147995129228">
        <ele>18.879999999999999</ele>
        <time>2019-05-08T11:14:11Z</time>
      </trkpt>
      <trkpt lat="54.220061972737312" lon="10.55832602083683">
        <ele>20.32</ele>
        <time>2019-05-08T11:14:20Z</time>
      </trkpt>
      <trkpt lat="54.219374991953373" lon="10.556874023750424">
        <ele>22.73</ele>
        <time>2019-05-08T11:14:27Z</time>
      </trkpt>
      <trkpt lat="54.219342973083258" lon="10.556655004620552">
        <ele>22.73</ele>
        <time>2019-05-08T11:14:28Z</time>
      </trkpt>
      <trkpt lat="54.219269966706634" lon="10.556154018267989">
        <ele>23.690000000000001</ele>
        <time>2019-05-08T11:14:31Z</time>
      </trkpt>
      <trkpt lat="54.219236019998789" lon="10.555981015786529">
        <ele>24.170000000000002</ele>
        <time>2019-05-08T11:14:32Z</time>
      </trkpt>
      <trkpt lat="54.219188997521996" lon="10.55592100135982">
        <ele>24.649999999999999</ele>
        <time>2019-05-08T11:14:33Z</time>
      </trkpt>
      <trkpt lat="54.219078021124005" lon="10.55581203661859">
        <ele>24.170000000000002</ele>
        <time>2019-05-08T11:14:35Z</time>
      </trkpt>
      <trkpt lat="54.219049019739032" lon="10.555827962234616">
        <ele>24.170000000000002</ele>
        <time>2019-05-08T11:14:36Z</time>
      </trkpt>
      <trkpt lat="54.219006020575762" lon="10.555851012468338">
        <ele>23.690000000000001</ele>
        <time>2019-05-08T11:14:37Z</time>
      </trkpt>
      <trkpt lat="54.218942988663912" lon="10.555885965004563">
        <ele>23.690000000000001</ele>
        <time>2019-05-08T11:14:38Z</time>
      </trkpt>
      <trkpt lat="54.218865958973765" lon="10.555927958339453">
        <ele>23.690000000000001</ele>
        <time>2019-05-08T11:14:39Z</time>
      </trkpt>
      <trkpt lat="54.218371007591486" lon="10.55613499134779">
        <ele>24.649999999999999</ele>
        <time>2019-05-08T11:14:44Z</time>
      </trkpt>
      <trkpt lat="54.21825198456645" lon="10.556124011054635">
        <ele>24.170000000000002</ele>
        <time>2019-05-08T11:14:45Z</time>
      </trkpt>
      <trkpt lat="54.217074997723103" lon="10.555852018296719">
        <ele>20.32</ele>
        <time>2019-05-08T11:14:54Z</time>
      </trkpt>
      <trkpt lat="54.216056009754539" lon="10.55546703748405">
        <ele>16.48</ele>
        <time>2019-05-08T11:15:02Z</time>
      </trkpt>
      <trkpt lat="54.214798975735903" lon="10.554952975362539">
        <ele>19.84</ele>
        <time>2019-05-08T11:15:12Z</time>
      </trkpt>
      <trkpt lat="54.213441023603082" lon="10.554648963734508">
        <ele>22.25</ele>
        <time>2019-05-08T11:15:22Z</time>
      </trkpt>
      <trkpt lat="54.212799975648522" lon="10.554392980411649">
        <ele>22.25</ele>
        <time>2019-05-08T11:15:27Z</time>
      </trkpt>
      <trkpt lat="54.212677013128996" lon="10.554403960704803">
        <ele>22.25</ele>
        <time>2019-05-08T11:15:28Z</time>
      </trkpt>
      <trkpt lat="54.212550027295947" lon="10.554424999281764">
        <ele>22.25</ele>
        <time>2019-05-08T11:15:29Z</time>
      </trkpt>
      <trkpt lat="54.212425975129008" lon="10.554445032030344">
        <ele>22.25</ele>
        <time>2019-05-08T11:15:30Z</time>
      </trkpt>
      <trkpt lat="54.212332013994455" lon="10.554548967629671">
        <ele>22.25</ele>
        <time>2019-05-08T11:15:31Z</time>
      </trkpt>
      <trkpt lat="54.212242998182774" lon="10.554675031453371">
        <ele>22.73</ele>
        <time>2019-05-08T11:15:32Z</time>
      </trkpt>
      <trkpt lat="54.212158005684614" lon="10.554794976487756">
        <ele>23.210000000000001</ele>
        <time>2019-05-08T11:15:33Z</time>
      </trkpt>
      <trkpt lat="54.212075024843216" lon="10.55491198785603">
        <ele>23.690000000000001</ele>
        <time>2019-05-08T11:15:34Z</time>
      </trkpt>
      <trkpt lat="54.211991960182786" lon="10.555028999224305">
        <ele>24.170000000000002</ele>
        <time>2019-05-08T11:15:35Z</time>
      </trkpt>
      <trkpt lat="54.211899004876614" lon="10.555162020027637">
        <ele>25.129999999999999</ele>
        <time>2019-05-08T11:15:36Z</time>
      </trkpt>
      <trkpt lat="54.21178299933672" lon="10.555266039445996">
        <ele>25.609999999999999</ele>
        <time>2019-05-08T11:15:37Z</time>
      </trkpt>
      <trkpt lat="54.211645033210516" lon="10.555381961166859">
        <ele>26.09</ele>
        <time>2019-05-08T11:15:38Z</time>
      </trkpt>
      <trkpt lat="54.21150203794241" lon="10.555501990020275">
        <ele>26.09</ele>
        <time>2019-05-08T11:15:39Z</time>
      </trkpt>
      <trkpt lat="54.211369017139077" lon="10.555613972246647">
        <ele>26.09</ele>
        <time>2019-05-08T11:15:40Z</time>
      </trkpt>
      <trkpt lat="54.21124798245728" lon="10.555737018585205">
        <ele>25.609999999999999</ele>
        <time>2019-05-08T11:15:41Z</time>
      </trkpt>
      <trkpt lat="54.211123008280993" lon="10.555869033560157">
        <ele>25.129999999999999</ele>
        <time>2019-05-08T11:15:42Z</time>
      </trkpt>
      <trkpt lat="54.210997028276324" lon="10.555999958887696">
        <ele>25.129999999999999</ele>
        <time>2019-05-08T11:15:43Z</time>
      </trkpt>
      <trkpt lat="54.210864007472992" lon="10.556109007447958">
        <ele>24.649999999999999</ele>
        <time>2019-05-08T11:15:44Z</time>
      </trkpt>
      <trkpt lat="54.210713971406221" lon="10.556184025481343">
        <ele>24.649999999999999</ele>
        <time>2019-05-08T11:15:45Z</time>
      </trkpt>
      <trkpt lat="54.210535017773509" lon="10.556273963302374">
        <ele>24.649999999999999</ele>
        <time>2019-05-08T11:15:46Z</time>
      </trkpt>
      <trkpt lat="54.210380958393216" lon="10.556299025192857">
        <ele>24.649999999999999</ele>
        <time>2019-05-08T11:15:47Z</time>
      </trkpt>
      <trkpt lat="54.209170024842024" lon="10.556458029896021">
        <ele>24.649999999999999</ele>
        <time>2019-05-08T11:15:53Z</time>
      </trkpt>
      <trkpt lat="54.208996016532183" lon="10.556402960792184">
        <ele>24.649999999999999</ele>
        <time>2019-05-08T11:15:54Z</time>
      </trkpt>
      <trkpt lat="54.208817984908819" lon="10.556317968294024">
        <ele>24.649999999999999</ele>
        <time>2019-05-08T11:15:55Z</time>
      </trkpt>
      <trkpt lat="54.208437027409673" lon="10.556090986356139">
        <ele>25.129999999999999</ele>
        <time>2019-05-08T11:15:57Z</time>
      </trkpt>
      <trkpt lat="54.208241980522871" lon="10.556031977757812">
        <ele>25.129999999999999</ele>
        <time>2019-05-08T11:15:58Z</time>
      </trkpt>
      <trkpt lat="54.208051040768623" lon="10.556019991636276">
        <ele>25.129999999999999</ele>
        <time>2019-05-08T11:15:59Z</time>
      </trkpt>
      <trkpt lat="54.207863034680486" lon="10.556079000234604">
        <ele>25.609999999999999</ele>
        <time>2019-05-08T11:16:00Z</time>
      </trkpt>
      <trkpt lat="54.207676034420729" lon="10.556191988289356">
        <ele>25.609999999999999</ele>
        <time>2019-05-08T11:16:01Z</time>
      </trkpt>
      <trkpt lat="54.207499008625746" lon="10.556362979114056">
        <ele>26.09</ele>
        <time>2019-05-08T11:16:02Z</time>
      </trkpt>
      <trkpt lat="54.207327011972666" lon="10.556529024615884">
        <ele>26.09</ele>
        <time>2019-05-08T11:16:03Z</time>
      </trkpt>
      <trkpt lat="54.206688981503248" lon="10.557068986818194">
        <ele>26.57</ele>
        <time>2019-05-08T11:16:08Z</time>
      </trkpt>
      <trkpt lat="54.20647700317204" lon="10.557206030935049">
        <ele>26.57</ele>
        <time>2019-05-08T11:16:10Z</time>
      </trkpt>
      <trkpt lat="54.206352028995752" lon="10.557232014834881">
        <ele>26.09</ele>
        <time>2019-05-08T11:16:11Z</time>
      </trkpt>
      <trkpt lat="54.206222025677562" lon="10.557261016219854">
        <ele>25.609999999999999</ele>
        <time>2019-05-08T11:16:12Z</time>
      </trkpt>
      <trkpt lat="54.205151991918683" lon="10.557320024818182">
        <ele>23.210000000000001</ele>
        <time>2019-05-08T11:16:21Z</time>
      </trkpt>
      <trkpt lat="54.204911012202501" lon="10.55733896791935">
        <ele>22.25</ele>
        <time>2019-05-08T11:16:23Z</time>
      </trkpt>
      <trkpt lat="54.204790983349085" lon="10.557376015931368">
        <ele>22.25</ele>
        <time>2019-05-08T11:16:24Z</time>
      </trkpt>
      <trkpt lat="54.20467397198081" lon="10.557440975680947">
        <ele>21.77</ele>
        <time>2019-05-08T11:16:25Z</time>
      </trkpt>
      <trkpt lat="54.204015992581844" lon="10.557894017547369">
        <ele>18.879999999999999</ele>
        <time>2019-05-08T11:16:31Z</time>
      </trkpt>
      <trkpt lat="54.203882971778512" lon="10.558012034744024">
        <ele>18.879999999999999</ele>
        <time>2019-05-08T11:16:32Z</time>
      </trkpt>
      <trkpt lat="54.203798985108733" lon="10.558171961456537">
        <ele>19.359999999999999</ele>
        <time>2019-05-08T11:16:33Z</time>
      </trkpt>
      <trkpt lat="54.202918969094753" lon="10.559767037630081">
        <ele>23.210000000000001</ele>
        <time>2019-05-08T11:16:42Z</time>
      </trkpt>
      <trkpt lat="54.202458970248699" lon="10.560224018990993">
        <ele>25.129999999999999</ele>
        <time>2019-05-08T11:16:46Z</time>
      </trkpt>
      <trkpt lat="54.202323015779257" lon="10.560313034802675">
        <ele>26.09</ele>
        <time>2019-05-08T11:16:47Z</time>
      </trkpt>
      <trkpt lat="54.202175997197628" lon="10.560369025915861">
        <ele>26.57</ele>
        <time>2019-05-08T11:16:48Z</time>
      </trkpt>
      <trkpt lat="54.2014089692384" lon="10.560610005632043">
        <ele>27.050000000000001</ele>
        <time>2019-05-08T11:16:53Z</time>
      </trkpt>
      <trkpt lat="54.201259016990662" lon="10.560649987310171">
        <ele>26.57</ele>
        <time>2019-05-08T11:16:54Z</time>
      </trkpt>
      <trkpt lat="54.20110797509551" lon="10.560678988695145">
        <ele>26.09</ele>
        <time>2019-05-08T11:16:55Z</time>
      </trkpt>
      <trkpt lat="54.199675004929304" lon="10.560823995620012">
        <ele>22.25</ele>
        <time>2019-05-08T11:17:03Z</time>
      </trkpt>
      <trkpt lat="54.197800979018211" lon="10.561002027243376">
        <ele>21.289999999999999</ele>
        <time>2019-05-08T11:17:11Z</time>
      </trkpt>
      <trkpt lat="54.197351960465312" lon="10.561082996428013">
        <ele>20.809999999999999</ele>
        <time>2019-05-08T11:17:13Z</time>
      </trkpt>
      <trkpt lat="54.197135958820581" lon="10.561186010017991">
        <ele>20.32</ele>
        <time>2019-05-08T11:17:14Z</time>
      </trkpt>
      <trkpt lat="54.196922974660993" lon="10.561288017779589">
        <ele>20.32</ele>
        <time>2019-05-08T11:17:15Z</time>
      </trkpt>
      <trkpt lat="54.196733040735126" lon="10.561439981684089">
        <ele>20.32</ele>
        <time>2019-05-08T11:17:16Z</time>
      </trkpt>
      <trkpt lat="54.196555009111762" lon="10.561587000265718">
        <ele>20.32</ele>
        <time>2019-05-08T11:17:17Z</time>
      </trkpt>
      <trkpt lat="54.195321025326848" lon="10.562389986589551">
        <ele>19.84</ele>
        <time>2019-05-08T11:17:24Z</time>
      </trkpt>
      <trkpt lat="54.193622013553977" lon="10.563077973201871">
        <ele>16.960000000000001</ele>
        <time>2019-05-08T11:17:32Z</time>
      </trkpt>
      <trkpt lat="54.19154598377645" lon="10.563457002863288">
        <ele>14.56</ele>
        <time>2019-05-08T11:17:41Z</time>
      </trkpt>
      <trkpt lat="54.19096696190536" lon="10.563601003959775">
        <ele>15.039999999999999</ele>
        <time>2019-05-08T11:17:44Z</time>
      </trkpt>
      <trkpt lat="54.189655026420951" lon="10.563694965094328">
        <ele>16.48</ele>
        <time>2019-05-08T11:17:52Z</time>
      </trkpt>
      <trkpt lat="54.18872999958694" lon="10.563736958429217">
        <ele>16.960000000000001</ele>
        <time>2019-05-08T11:17:59Z</time>
      </trkpt>
      <trkpt lat="54.187501966953278" lon="10.563658000901341">
        <ele>19.359999999999999</ele>
        <time>2019-05-08T11:18:10Z</time>
      </trkpt>
      <trkpt lat="54.186147032305598" lon="10.563555993139744">
        <ele>21.289999999999999</ele>
        <time>2019-05-08T11:18:21Z</time>
      </trkpt>
      <trkpt lat="54.184457994997501" lon="10.563361030071974">
        <ele>22.73</ele>
        <time>2019-05-08T11:18:35Z</time>
      </trkpt>
      <trkpt lat="54.183319984003901" lon="10.563250975683331">
        <ele>23.210000000000001</ele>
        <time>2019-05-08T11:18:44Z</time>
      </trkpt>
      <trkpt lat="54.181688027456403" lon="10.563061041757464">
        <ele>22.25</ele>
        <time>2019-05-08T11:18:57Z</time>
      </trkpt>
      <trkpt lat="54.180199988186359" lon="10.562893990427256">
        <ele>23.210000000000001</ele>
        <time>2019-05-08T11:19:09Z</time>
      </trkpt>
      <trkpt lat="54.179208995774388" lon="10.562764992937446">
        <ele>27.530000000000001</ele>
        <time>2019-05-08T11:19:18Z</time>
      </trkpt>
      <trkpt lat="54.179120985791087" lon="10.562754012644291">
        <ele>28.02</ele>
        <time>2019-05-08T11:19:19Z</time>
      </trkpt>
      <trkpt lat="54.17906298302114" lon="10.562680000439286">
        <ele>28.5</ele>
        <time>2019-05-08T11:19:20Z</time>
      </trkpt>
      <trkpt lat="54.178414978086948" lon="10.561855975538492">
        <ele>28.02</ele>
        <time>2019-05-08T11:19:27Z</time>
      </trkpt>
      <trkpt lat="54.177421974018216" lon="10.56073397397995">
        <ele>22.73</ele>
        <time>2019-05-08T11:19:36Z</time>
      </trkpt>
      <trkpt lat="54.177146963775158" lon="10.560398027300835">
        <ele>22.25</ele>
        <time>2019-05-08T11:19:39Z</time>
      </trkpt>
      <trkpt lat="54.177056020125747" lon="10.560311023145914">
        <ele>21.77</ele>
        <time>2019-05-08T11:19:40Z</time>
      </trkpt>
      <trkpt lat="54.1761380340904" lon="10.559548018500209">
        <ele>20.32</ele>
        <time>2019-05-08T11:19:50Z</time>
      </trkpt>
      <trkpt lat="54.176058992743492" lon="10.559511976316571">
        <ele>20.809999999999999</ele>
        <time>2019-05-08T11:19:51Z</time>
      </trkpt>
      <trkpt lat="54.175995038822293" lon="10.559481969103217">
        <ele>20.809999999999999</ele>
        <time>2019-05-08T11:19:52Z</time>
      </trkpt>
      <trkpt lat="54.17594701051712" lon="10.559460008516908">
        <ele>20.809999999999999</ele>
        <time>2019-05-08T11:19:53Z</time>
      </trkpt>
      <trkpt lat="54.175948016345501" lon="10.559333022683859">
        <ele>20.809999999999999</ele>
        <time>2019-05-08T11:19:54Z</time>
      </trkpt>
      <trkpt lat="54.175965031608939" lon="10.559253981336951">
        <ele>20.32</ele>
        <time>2019-05-08T11:19:55Z</time>
      </trkpt>
      <trkpt lat="54.175986992195249" lon="10.559150967746973">
        <ele>20.32</ele>
        <time>2019-05-08T11:19:56Z</time>
      </trkpt>
      <trkpt lat="54.176015993580222" lon="10.559015013277531">
        <ele>20.32</ele>
        <time>2019-05-08T11:19:57Z</time>
      </trkpt>
      <trkpt lat="54.176048012450337" lon="10.558860031887889">
        <ele>20.809999999999999</ele>
        <time>2019-05-08T11:19:58Z</time>
      </trkpt>
      <trkpt lat="54.17607600800693" lon="10.558686023578048">
        <ele>20.809999999999999</ele>
        <time>2019-05-08T11:19:59Z</time>
      </trkpt>
      <trkpt lat="54.176084976643324" lon="10.558515032753348">
        <ele>20.809999999999999</ele>
        <time>2019-05-08T11:20:00Z</time>
      </trkpt>
      <trkpt lat="54.176092017441988" lon="10.558364996686578">
        <ele>20.809999999999999</ele>
        <time>2019-05-08T11:20:01Z</time>
      </trkpt>
      <trkpt lat="54.176109032705426" lon="10.558027038350701">
        <ele>21.289999999999999</ele>
        <time>2019-05-08T11:20:04Z</time>
      </trkpt>
      <trkpt lat="54.176036026328802" lon="10.557873984798789">
        <ele>21.289999999999999</ele>
        <time>2019-05-08T11:20:05Z</time>
      </trkpt>
      <trkpt lat="54.175967965275049" lon="10.557866021990776">
        <ele>21.289999999999999</ele>
        <time>2019-05-08T11:20:06Z</time>
      </trkpt>
      <trkpt lat="54.17560201138258" lon="10.557824028655887">
        <ele>21.289999999999999</ele>
        <time>2019-05-08T11:20:10Z</time>
      </trkpt>
      <trkpt lat="54.175107982009649" lon="10.557678015902638">
        <ele>22.25</ele>
        <time>2019-05-08T11:20:15Z</time>
      </trkpt>
      <trkpt lat="54.175027012825012" lon="10.557613978162408">
        <ele>22.73</ele>
        <time>2019-05-08T11:20:16Z</time>
      </trkpt>
      <trkpt lat="54.174948977306485" lon="10.557553041726351">
        <ele>23.210000000000001</ele>
        <time>2019-05-08T11:20:17Z</time>
      </trkpt>
      <trkpt lat="54.17489399202168" lon="10.557281970977783">
        <ele>23.690000000000001</ele>
        <time>2019-05-08T11:20:18Z</time>
      </trkpt>
      <trkpt lat="54.174884017556906" lon="10.557211982086301">
        <ele>24.170000000000002</ele>
        <time>2019-05-08T11:20:19Z</time>
      </trkpt>
      <trkpt lat="54.174859961494803" lon="10.557049037888646">
        <ele>24.170000000000002</ele>
        <time>2019-05-08T11:20:20Z</time>
      </trkpt>
      <trkpt lat="54.174835989251733" lon="10.556879974901676">
        <ele>24.649999999999999</ele>
        <time>2019-05-08T11:20:21Z</time>
      </trkpt>
      <trkpt lat="54.174782009795308" lon="10.556526007130742">
        <ele>25.129999999999999</ele>
        <time>2019-05-08T11:20:23Z</time>
      </trkpt>
      <trkpt lat="54.174466012045741" lon="10.55486798286438">
        <ele>30.899999999999999</ele>
        <time>2019-05-08T11:20:32Z</time>
      </trkpt>
      <trkpt lat="54.174426030367613" lon="10.554685005918145">
        <ele>31.859999999999999</ele>
        <time>2019-05-08T11:20:33Z</time>
      </trkpt>
      <trkpt lat="54.17435796931386" lon="10.5545249953866">
        <ele>32.82</ele>
        <time>2019-05-08T11:20:34Z</time>
      </trkpt>
      <trkpt lat="54.174313964322209" lon="10.554428016766906">
        <ele>33.780000000000001</ele>
        <time>2019-05-08T11:20:35Z</time>
      </trkpt>
      <trkpt lat="54.174212962388992" lon="10.554331038147211">
        <ele>34.259999999999998</ele>
        <time>2019-05-08T11:20:36Z</time>
      </trkpt>
      <trkpt lat="54.174144985154271" lon="10.554263982921839">
        <ele>35.229999999999997</ele>
        <time>2019-05-08T11:20:37Z</time>
      </trkpt>
      <trkpt lat="54.174079019576311" lon="10.55420002900064">
        <ele>35.710000000000001</ele>
        <time>2019-05-08T11:20:38Z</time>
      </trkpt>
      <trkpt lat="54.174016993492842" lon="10.554140014573932">
        <ele>36.189999999999998</ele>
        <time>2019-05-08T11:20:39Z</time>
      </trkpt>
      <trkpt lat="54.173956979066133" lon="10.554082011803985">
        <ele>36.189999999999998</ele>
        <time>2019-05-08T11:20:40Z</time>
      </trkpt>
      <trkpt lat="54.173899982124567" lon="10.554027026519179">
        <ele>36.670000000000002</ele>
        <time>2019-05-08T11:20:41Z</time>
      </trkpt>
      <trkpt lat="54.173779031261802" lon="10.553909009322524">
        <ele>37.149999999999999</ele>
        <time>2019-05-08T11:20:43Z</time>
      </trkpt>
      <trkpt lat="54.173715999349952" lon="10.553847989067435">
        <ele>37.149999999999999</ele>
        <time>2019-05-08T11:20:44Z</time>
      </trkpt>
      <trkpt lat="54.173655984923244" lon="10.553788980469108">
        <ele>37.630000000000003</ele>
        <time>2019-05-08T11:20:45Z</time>
      </trkpt>
      <trkpt lat="54.172978978604078" lon="10.552854984998703">
        <ele>37.630000000000003</ele>
        <time>2019-05-08T11:20:54Z</time>
      </trkpt>
      <trkpt lat="54.172898009419441" lon="10.55267795920372">
        <ele>37.630000000000003</ele>
        <time>2019-05-08T11:20:55Z</time>
      </trkpt>
      <trkpt lat="54.172675972804427" lon="10.552038000896573">
        <ele>35.229999999999997</ele>
        <time>2019-05-08T11:20:59Z</time>
      </trkpt>
      <trkpt lat="54.172639008611441" lon="10.551878996193409">
        <ele>33.780000000000001</ele>
        <time>2019-05-08T11:21:00Z</time>
      </trkpt>
      <trkpt lat="54.172598021104932" lon="10.551702976226807">
        <ele>33.299999999999997</ele>
        <time>2019-05-08T11:21:01Z</time>
      </trkpt>
      <trkpt lat="54.172344971448183" lon="10.54999097250402">
        <ele>32.82</ele>
        <time>2019-05-08T11:21:12Z</time>
      </trkpt>
      <trkpt lat="54.172310018911958" lon="10.549760973080993">
        <ele>33.780000000000001</ele>
        <time>2019-05-08T11:21:14Z</time>
      </trkpt>
      <trkpt lat="54.172108015045524" lon="10.548462029546499">
        <ele>41.469999999999999</ele>
        <time>2019-05-08T11:21:23Z</time>
      </trkpt>
      <trkpt lat="54.172092005610466" lon="10.548350969329476">
        <ele>42.439999999999998</ele>
        <time>2019-05-08T11:21:24Z</time>
      </trkpt>
      <trkpt lat="54.172116983681917" lon="10.548225995153189">
        <ele>42.920000000000002</ele>
        <time>2019-05-08T11:21:25Z</time>
      </trkpt>
      <trkpt lat="54.17214397341013" lon="10.548175033181906">
        <ele>43.399999999999999</ele>
        <time>2019-05-08T11:21:26Z</time>
      </trkpt>
      <trkpt lat="54.172178003937006" lon="10.548108983784914">
        <ele>43.880000000000003</ele>
        <time>2019-05-08T11:21:27Z</time>
      </trkpt>
      <trkpt lat="54.172225026413798" lon="10.548019967973232">
        <ele>43.880000000000003</ele>
        <time>2019-05-08T11:21:28Z</time>
      </trkpt>
      <trkpt lat="54.172286968678236" lon="10.547903962433338">
        <ele>44.359999999999999</ele>
        <time>2019-05-08T11:21:29Z</time>
      </trkpt>
      <trkpt lat="54.172661975026131" lon="10.546828983351588">
        <ele>42.920000000000002</ele>
        <time>2019-05-08T11:21:35Z</time>
      </trkpt>
      <trkpt lat="54.172714026644826" lon="10.546605018898845">
        <ele>42.920000000000002</ele>
        <time>2019-05-08T11:21:36Z</time>
      </trkpt>
      <trkpt lat="54.172825003042817" lon="10.546133033931255">
        <ele>41.950000000000003</ele>
        <time>2019-05-08T11:21:38Z</time>
      </trkpt>
      <trkpt lat="54.172932039946318" lon="10.545673035085201">
        <ele>40.509999999999998</ele>
        <time>2019-05-08T11:21:40Z</time>
      </trkpt>
      <trkpt lat="54.173084003850818" lon="10.545325018465519">
        <ele>38.590000000000003</ele>
        <time>2019-05-08T11:21:42Z</time>
      </trkpt>
      <trkpt lat="54.17317695915699" lon="10.545158972963691">
        <ele>37.149999999999999</ele>
        <time>2019-05-08T11:21:43Z</time>
      </trkpt>
      <trkpt lat="54.173296988010406" lon="10.545072974637151">
        <ele>36.189999999999998</ele>
        <time>2019-05-08T11:21:44Z</time>
      </trkpt>
      <trkpt lat="54.173429002985358" lon="10.54504900239408">
        <ele>35.229999999999997</ele>
        <time>2019-05-08T11:21:45Z</time>
      </trkpt>
      <trkpt lat="54.173545008525252" lon="10.545045984908938">
        <ele>34.740000000000002</ele>
        <time>2019-05-08T11:21:46Z</time>
      </trkpt>
      <trkpt lat="54.173657996580005" lon="10.545042967423797">
        <ele>33.780000000000001</ele>
        <time>2019-05-08T11:21:47Z</time>
      </trkpt>
      <trkpt lat="54.173780037090182" lon="10.545040033757687">
        <ele>32.82</ele>
        <time>2019-05-08T11:21:48Z</time>
      </trkpt>
      <trkpt lat="54.17390501126647" lon="10.545037016272545">
        <ele>32.340000000000003</ele>
        <time>2019-05-08T11:21:49Z</time>
      </trkpt>
      <trkpt lat="54.174148002639413" lon="10.545030981302261">
        <ele>30.899999999999999</ele>
        <time>2019-05-08T11:21:51Z</time>
      </trkpt>
      <trkpt lat="54.174285968765616" lon="10.54502796381712">
        <ele>30.420000000000002</ele>
        <time>2019-05-08T11:21:52Z</time>
      </trkpt>
      <trkpt lat="54.174432987347245" lon="10.545024024322629">
        <ele>29.940000000000001</ele>
        <time>2019-05-08T11:21:53Z</time>
      </trkpt>
      <trkpt lat="54.175192974507809" lon="10.544980019330978">
        <ele>28.02</ele>
        <time>2019-05-08T11:21:58Z</time>
      </trkpt>
      <trkpt lat="54.175351979210973" lon="10.544937020167708">
        <ele>27.530000000000001</ele>
        <time>2019-05-08T11:21:59Z</time>
      </trkpt>
      <trkpt lat="54.175506960600615" lon="10.544866025447845">
        <ele>27.530000000000001</ele>
        <time>2019-05-08T11:22:00Z</time>
      </trkpt>
      <trkpt lat="54.176452020183206" lon="10.544265964999795">
        <ele>28.5</ele>
        <time>2019-05-08T11:22:07Z</time>
      </trkpt>
      <trkpt lat="54.176559979096055" lon="10.544158006086946">
        <ele>28.98</ele>
        <time>2019-05-08T11:22:08Z</time>
      </trkpt>
      <trkpt lat="54.176662992686033" lon="10.543975029140711">
        <ele>28.5</ele>
        <time>2019-05-08T11:22:09Z</time>
      </trkpt>
      <trkpt lat="54.176734993234277" lon="10.54375902749598">
        <ele>28.5</ele>
        <time>2019-05-08T11:22:10Z</time>
      </trkpt>
      <trkpt lat="54.176807999610901" lon="10.543506983667612">
        <ele>28.5</ele>
        <time>2019-05-08T11:22:11Z</time>
      </trkpt>
      <trkpt lat="54.177258023992181" lon="10.541977034881711">
        <ele>28.5</ele>
        <time>2019-05-08T11:22:16Z</time>
      </trkpt>
      <trkpt lat="54.17738500982523" lon="10.54178399965167">
        <ele>28.5</ele>
        <time>2019-05-08T11:22:17Z</time>
      </trkpt>
      <trkpt lat="54.177520964294672" lon="10.541578978300095">
        <ele>28.98</ele>
        <time>2019-05-08T11:22:18Z</time>
      </trkpt>
      <trkpt lat="54.177662031725049" lon="10.541366999968886">
        <ele>29.460000000000001</ele>
        <time>2019-05-08T11:22:19Z</time>
      </trkpt>
      <trkpt lat="54.177806032821536" lon="10.541148986667395">
        <ele>29.940000000000001</ele>
        <time>2019-05-08T11:22:20Z</time>
      </trkpt>
      <trkpt lat="54.177950033918023" lon="10.540931979194283">
        <ele>30.420000000000002</ele>
        <time>2019-05-08T11:22:21Z</time>
      </trkpt>
      <trkpt lat="54.178439034149051" lon="10.54021499119699">
        <ele>32.82</ele>
        <time>2019-05-08T11:22:25Z</time>
      </trkpt>
      <trkpt lat="54.178558979183435" lon="10.54008599370718">
        <ele>32.82</ele>
        <time>2019-05-08T11:22:26Z</time>
      </trkpt>
      <trkpt lat="54.178662998601794" lon="10.539974011480808">
        <ele>33.299999999999997</ele>
        <time>2019-05-08T11:22:27Z</time>
      </trkpt>
      <trkpt lat="54.178759977221489" lon="10.53993402980268">
        <ele>33.780000000000001</ele>
        <time>2019-05-08T11:22:28Z</time>
      </trkpt>
      <trkpt lat="54.178863996639848" lon="10.539918020367622">
        <ele>33.780000000000001</ele>
        <time>2019-05-08T11:22:29Z</time>
      </trkpt>
      <trkpt lat="54.178971033543348" lon="10.539902010932565">
        <ele>34.259999999999998</ele>
        <time>2019-05-08T11:22:30Z</time>
      </trkpt>
      <trkpt lat="54.179120985791087" lon="10.539879966527224">
        <ele>34.259999999999998</ele>
        <time>2019-05-08T11:22:31Z</time>
      </trkpt>
      <trkpt lat="54.180184984579682" lon="10.540431998670101">
        <ele>34.740000000000002</ele>
        <time>2019-05-08T11:22:40Z</time>
      </trkpt>
      <trkpt lat="54.180295960977674" lon="10.540466029196978">
        <ele>35.229999999999997</ele>
        <time>2019-05-08T11:22:41Z</time>
      </trkpt>
      <trkpt lat="54.180391011759639" lon="10.540473992004991">
        <ele>35.229999999999997</ele>
        <time>2019-05-08T11:22:42Z</time>
      </trkpt>
      <trkpt lat="54.181214030832052" lon="10.540323033928871">
        <ele>38.590000000000003</ele>
        <time>2019-05-08T11:22:49Z</time>
      </trkpt>
      <trkpt lat="54.181460039690137" lon="10.540266036987305">
        <ele>39.549999999999997</ele>
        <time>2019-05-08T11:22:51Z</time>
      </trkpt>
      <trkpt lat="54.181545032188296" lon="10.540205016732216">
        <ele>40.509999999999998</ele>
        <time>2019-05-08T11:22:52Z</time>
      </trkpt>
      <trkpt lat="54.181635975837708" lon="10.540107032284141">
        <ele>40.990000000000002</ele>
        <time>2019-05-08T11:22:53Z</time>
      </trkpt>
      <trkpt lat="54.181716023012996" lon="10.539946015924215">
        <ele>41.469999999999999</ele>
        <time>2019-05-08T11:22:54Z</time>
      </trkpt>
      <trkpt lat="54.181775031611323" lon="10.539750969037414">
        <ele>41.950000000000003</ele>
        <time>2019-05-08T11:22:55Z</time>
      </trkpt>
      <trkpt lat="54.181829011067748" lon="10.539522981271148">
        <ele>42.439999999999998</ele>
        <time>2019-05-08T11:22:56Z</time>
      </trkpt>
      <trkpt lat="54.181882990524173" lon="10.539285019040108">
        <ele>42.439999999999998</ele>
        <time>2019-05-08T11:22:57Z</time>
      </trkpt>
      <trkpt lat="54.18234801851213" lon="10.536873964592814">
        <ele>39.549999999999997</ele>
        <time>2019-05-08T11:23:06Z</time>
      </trkpt>
      <trkpt lat="54.183050002902746" lon="10.534126041457057">
        <ele>32.82</ele>
        <time>2019-05-08T11:23:16Z</time>
      </trkpt>
      <trkpt lat="54.183254018425941" lon="10.533565040677786">
        <ele>31.379999999999999</ele>
        <time>2019-05-08T11:23:18Z</time>
      </trkpt>
      <trkpt lat="54.183455016463995" lon="10.533163966611028">
        <ele>28.98</ele>
        <time>2019-05-08T11:23:20Z</time>
      </trkpt>
      <trkpt lat="54.183511007577181" lon="10.532936984673142">
        <ele>28.5</ele>
        <time>2019-05-08T11:23:21Z</time>
      </trkpt>
      <trkpt lat="54.183571022003889" lon="10.532691981643438">
        <ele>28.02</ele>
        <time>2019-05-08T11:23:22Z</time>
      </trkpt>
      <trkpt lat="54.18370102532208" lon="10.532162999734282">
        <ele>27.050000000000001</ele>
        <time>2019-05-08T11:23:24Z</time>
      </trkpt>
      <trkpt lat="54.18376799672842" lon="10.53192000836134">
        <ele>27.050000000000001</ele>
        <time>2019-05-08T11:23:25Z</time>
      </trkpt>
      <trkpt lat="54.183899005874991" lon="10.531701995059848">
        <ele>27.050000000000001</ele>
        <time>2019-05-08T11:23:26Z</time>
      </trkpt>
      <trkpt lat="54.184044012799859" lon="10.531482975929976">
        <ele>27.050000000000001</ele>
        <time>2019-05-08T11:23:27Z</time>
      </trkpt>
      <trkpt lat="54.184233024716377" lon="10.531306033954024">
        <ele>27.050000000000001</ele>
        <time>2019-05-08T11:23:28Z</time>
      </trkpt>
      <trkpt lat="54.18443301692605" lon="10.531120039522648">
        <ele>27.050000000000001</ele>
        <time>2019-05-08T11:23:29Z</time>
      </trkpt>
      <trkpt lat="54.184632003307343" lon="10.53093496710062">
        <ele>27.530000000000001</ele>
        <time>2019-05-08T11:23:30Z</time>
      </trkpt>
      <trkpt lat="54.184800982475281" lon="10.53069700486958">
        <ele>28.02</ele>
        <time>2019-05-08T11:23:31Z</time>
      </trkpt>
      <trkpt lat="54.184944983571768" lon="10.530432974919677">
        <ele>28.98</ele>
        <time>2019-05-08T11:23:32Z</time>
      </trkpt>
      <trkpt lat="54.185063000768423" lon="10.530128041282296">
        <ele>29.940000000000001</ele>
        <time>2019-05-08T11:23:33Z</time>
      </trkpt>
      <trkpt lat="54.185181017965078" lon="10.529821012169123">
        <ele>30.899999999999999</ele>
        <time>2019-05-08T11:23:34Z</time>
      </trkpt>
      <trkpt lat="54.185586031526327" lon="10.528830019757152">
        <ele>36.189999999999998</ele>
        <time>2019-05-08T11:23:38Z</time>
      </trkpt>
      <trkpt lat="54.185694996267557" lon="10.528633967041969">
        <ele>37.630000000000003</ele>
        <time>2019-05-08T11:23:39Z</time>
      </trkpt>
      <trkpt lat="54.185813013464212" lon="10.528476973995566">
        <ele>38.590000000000003</ele>
        <time>2019-05-08T11:23:40Z</time>
      </trkpt>
      <trkpt lat="54.185939999297261" lon="10.52833397872746">
        <ele>39.549999999999997</ele>
        <time>2019-05-08T11:23:41Z</time>
      </trkpt>
      <trkpt lat="54.186051981523633" lon="10.528206992894411">
        <ele>40.509999999999998</ele>
        <time>2019-05-08T11:23:42Z</time>
      </trkpt>
      <trkpt lat="54.186212997883558" lon="10.528174974024296">
        <ele>41.469999999999999</ele>
        <time>2019-05-08T11:23:43Z</time>
      </trkpt>
      <trkpt lat="54.1863679792732" lon="10.528144966810942">
        <ele>42.439999999999998</ele>
        <time>2019-05-08T11:23:44Z</time>
      </trkpt>
      <trkpt lat="54.186522038653493" lon="10.528114959597588">
        <ele>43.399999999999999</ele>
        <time>2019-05-08T11:23:45Z</time>
      </trkpt>
      <trkpt lat="54.187300968915224" lon="10.527880014851689">
        <ele>47.719999999999999</ele>
        <time>2019-05-08T11:23:50Z</time>
      </trkpt>
      <trkpt lat="54.187470031902194" lon="10.527758980169892">
        <ele>48.200000000000003</ele>
        <time>2019-05-08T11:23:51Z</time>
      </trkpt>
      <trkpt lat="54.187644040212035" lon="10.527568962424994">
        <ele>49.159999999999997</ele>
        <time>2019-05-08T11:23:53Z</time>
      </trkpt>
      <trkpt lat="54.188734022900462" lon="10.526083018630743">
        <ele>52.049999999999997</ele>
        <time>2019-05-08T11:23:58Z</time>
      </trkpt>
      <trkpt lat="54.188868971541524" lon="10.525782024487853">
        <ele>53.009999999999998</ele>
        <time>2019-05-08T11:23:59Z</time>
      </trkpt>
      <trkpt lat="54.190025003626943" lon="10.52278901450336">
        <ele>56.859999999999999</ele>
        <time>2019-05-08T11:24:08Z</time>
      </trkpt>
      <trkpt lat="54.191001998260617" lon="10.520745003595948">
        <ele>54.450000000000003</ele>
        <time>2019-05-08T11:24:15Z</time>
      </trkpt>
      <trkpt lat="54.191180029883981" lon="10.520560014992952">
        <ele>53.969999999999999</ele>
        <time>2019-05-08T11:24:16Z</time>
      </trkpt>
      <trkpt lat="54.191538020968437" lon="10.520158018916845">
        <ele>52.049999999999997</ele>
        <time>2019-05-08T11:24:18Z</time>
      </trkpt>
      <trkpt lat="54.191675987094641" lon="10.519900023937225">
        <ele>51.57</ele>
        <time>2019-05-08T11:24:19Z</time>
      </trkpt>
      <trkpt lat="54.191941022872925" lon="10.519404988735914">
        <ele>49.649999999999999</ele>
        <time>2019-05-08T11:24:21Z</time>
      </trkpt>
      <trkpt lat="54.192116959020495" lon="10.519213965162635">
        <ele>48.200000000000003</ele>
        <time>2019-05-08T11:24:22Z</time>
      </trkpt>
      <trkpt lat="54.192305970937014" lon="10.519040040671825">
        <ele>47.240000000000002</ele>
        <time>2019-05-08T11:24:23Z</time>
      </trkpt>
      <trkpt lat="54.19283595867455" lon="10.518484991043806">
        <ele>43.880000000000003</ele>
        <time>2019-05-08T11:24:26Z</time>
      </trkpt>
      <trkpt lat="54.192970991134644" lon="10.51825599744916">
        <ele>42.920000000000002</ele>
        <time>2019-05-08T11:24:27Z</time>
      </trkpt>
      <trkpt lat="54.193094037473202" lon="10.517985010519624">
        <ele>41.469999999999999</ele>
        <time>2019-05-08T11:24:28Z</time>
      </trkpt>
      <trkpt lat="54.193768026307225" lon="10.515706976875663">
        <ele>37.630000000000003</ele>
        <time>2019-05-08T11:24:34Z</time>
      </trkpt>
      <trkpt lat="54.19395100325346" lon="10.514932991936803">
        <ele>36.189999999999998</ele>
        <time>2019-05-08T11:24:36Z</time>
      </trkpt>
      <trkpt lat="54.194074971601367" lon="10.514644989743829">
        <ele>35.710000000000001</ele>
        <time>2019-05-08T11:24:37Z</time>
      </trkpt>
      <trkpt lat="54.194185025990009" lon="10.514390012249351">
        <ele>35.710000000000001</ele>
        <time>2019-05-08T11:24:38Z</time>
      </trkpt>
      <trkpt lat="54.194283010438085" lon="10.514163030311465">
        <ele>35.229999999999997</ele>
        <time>2019-05-08T11:24:39Z</time>
      </trkpt>
      <trkpt lat="54.194350987672806" lon="10.513921966776252">
        <ele>35.229999999999997</ele>
        <time>2019-05-08T11:24:40Z</time>
      </trkpt>
      <trkpt lat="54.194389041513205" lon="10.513638993725181">
        <ele>35.229999999999997</ele>
        <time>2019-05-08T11:24:41Z</time>
      </trkpt>
      <trkpt lat="54.194430029019713" lon="10.513333976268768">
        <ele>34.740000000000002</ele>
        <time>2019-05-08T11:24:42Z</time>
      </trkpt>
      <trkpt lat="54.194472022354603" lon="10.51301596686244">
        <ele>34.740000000000002</ele>
        <time>2019-05-08T11:24:43Z</time>
      </trkpt>
      <trkpt lat="54.194514015689492" lon="10.512703992426395">
        <ele>34.740000000000002</ele>
        <time>2019-05-08T11:24:44Z</time>
      </trkpt>
      <trkpt lat="54.194601019844413" lon="10.512435017153621">
        <ele>34.740000000000002</ele>
        <time>2019-05-08T11:24:45Z</time>
      </trkpt>
      <trkpt lat="54.194709984585643" lon="10.512178028002381">
        <ele>34.740000000000002</ele>
        <time>2019-05-08T11:24:46Z</time>
      </trkpt>
      <trkpt lat="54.194823978468776" lon="10.511910980567336">
        <ele>34.259999999999998</ele>
        <time>2019-05-08T11:24:47Z</time>
      </trkpt>
      <trkpt lat="54.195062024518847" lon="10.511352997273207">
        <ele>34.259999999999998</ele>
        <time>2019-05-08T11:24:49Z</time>
      </trkpt>
      <trkpt lat="54.195181969553232" lon="10.51106097176671">
        <ele>34.259999999999998</ele>
        <time>2019-05-08T11:24:50Z</time>
      </trkpt>
      <trkpt lat="54.195622019469738" lon="10.509881973266602">
        <ele>33.780000000000001</ele>
        <time>2019-05-08T11:24:54Z</time>
      </trkpt>
      <trkpt lat="54.195794016122818" lon="10.509678041562438">
        <ele>33.780000000000001</ele>
        <time>2019-05-08T11:24:55Z</time>
      </trkpt>
      <trkpt lat="54.195947991684079" lon="10.509494980797172">
        <ele>33.780000000000001</ele>
        <time>2019-05-08T11:24:56Z</time>
      </trkpt>
      <trkpt lat="54.196238005533814" lon="10.509115029126406">
        <ele>33.299999999999997</ele>
        <time>2019-05-08T11:24:58Z</time>
      </trkpt>
      <trkpt lat="54.196349987760186" lon="10.508871031925082">
        <ele>33.299999999999997</ele>
        <time>2019-05-08T11:24:59Z</time>
      </trkpt>
      <trkpt lat="54.196454007178545" lon="10.508600967004895">
        <ele>33.299999999999997</ele>
        <time>2019-05-08T11:25:00Z</time>
      </trkpt>
      <trkpt lat="54.196521984413266" lon="10.508278012275696">
        <ele>33.299999999999997</ele>
        <time>2019-05-08T11:25:01Z</time>
      </trkpt>
      <trkpt lat="54.19659398496151" lon="10.507941981777549">
        <ele>33.299999999999997</ele>
        <time>2019-05-08T11:25:02Z</time>
      </trkpt>
      <trkpt lat="54.196815015748143" lon="10.506572965532541">
        <ele>33.299999999999997</ele>
        <time>2019-05-08T11:25:06Z</time>
      </trkpt>
      <trkpt lat="54.196990029886365" lon="10.504000978544354">
        <ele>26.57</ele>
        <time>2019-05-08T11:25:15Z</time>
      </trkpt>
      <trkpt lat="54.197351960465312" lon="10.502212028950453">
        <ele>22.73</ele>
        <time>2019-05-08T11:25:24Z</time>
      </trkpt>
      <trkpt lat="54.197551030665636" lon="10.501448018476367">
        <ele>21.289999999999999</ele>
        <time>2019-05-08T11:25:28Z</time>
      </trkpt>
      <trkpt lat="54.197575002908707" lon="10.501242997124791">
        <ele>20.809999999999999</ele>
        <time>2019-05-08T11:25:29Z</time>
      </trkpt>
      <trkpt lat="54.197597969323397" lon="10.501036969944835">
        <ele>21.289999999999999</ele>
        <time>2019-05-08T11:25:30Z</time>
      </trkpt>
      <trkpt lat="54.1976029984653" lon="10.500601027160883">
        <ele>21.77</ele>
        <time>2019-05-08T11:25:32Z</time>
      </trkpt>
      <trkpt lat="54.197591012343764" lon="10.500384019687772">
        <ele>21.77</ele>
        <time>2019-05-08T11:25:33Z</time>
      </trkpt>
      <trkpt lat="54.197572991251945" lon="10.499318009242415">
        <ele>23.210000000000001</ele>
        <time>2019-05-08T11:25:38Z</time>
      </trkpt>
      <trkpt lat="54.197642980143428" lon="10.498458025977015">
        <ele>22.25</ele>
        <time>2019-05-08T11:25:42Z</time>
      </trkpt>
      <trkpt lat="54.197687990963459" lon="10.498257027938962">
        <ele>21.289999999999999</ele>
        <time>2019-05-08T11:25:43Z</time>
      </trkpt>
      <trkpt lat="54.198194006457925" lon="10.496602021157742">
        <ele>18.399999999999999</ele>
        <time>2019-05-08T11:25:52Z</time>
      </trkpt>
      <trkpt lat="54.198514027521014" lon="10.495651010423899">
        <ele>19.359999999999999</ele>
        <time>2019-05-08T11:25:57Z</time>
      </trkpt>
      <trkpt lat="54.198541017249227" lon="10.495445989072323">
        <ele>19.359999999999999</ele>
        <time>2019-05-08T11:25:58Z</time>
      </trkpt>
      <trkpt lat="54.198559960350394" lon="10.495247002691031">
        <ele>19.84</ele>
        <time>2019-05-08T11:25:59Z</time>
      </trkpt>
      <trkpt lat="54.198546968400478" lon="10.495038963854313">
        <ele>19.84</ele>
        <time>2019-05-08T11:26:00Z</time>
      </trkpt>
      <trkpt lat="54.198511010035872" lon="10.494852969422936">
        <ele>19.84</ele>
        <time>2019-05-08T11:26:01Z</time>
      </trkpt>
      <trkpt lat="54.198439009487629" lon="10.494665969163179">
        <ele>19.359999999999999</ele>
        <time>2019-05-08T11:26:02Z</time>
      </trkpt>
      <trkpt lat="54.198360973969102" lon="10.494465976953506">
        <ele>19.359999999999999</ele>
        <time>2019-05-08T11:26:03Z</time>
      </trkpt>
      <trkpt lat="54.198278998956084" lon="10.494255004450679">
        <ele>19.359999999999999</ele>
        <time>2019-05-08T11:26:04Z</time>
      </trkpt>
      <trkpt lat="54.198041958734393" lon="10.493599958717823">
        <ele>19.359999999999999</ele>
        <time>2019-05-08T11:26:07Z</time>
      </trkpt>
      <trkpt lat="54.197980016469955" lon="10.493384962901473">
        <ele>19.359999999999999</ele>
        <time>2019-05-08T11:26:08Z</time>
      </trkpt>
      <trkpt lat="54.197931988164783" lon="10.493169967085123">
        <ele>18.879999999999999</ele>
        <time>2019-05-08T11:26:09Z</time>
      </trkpt>
      <trkpt lat="54.197891000658274" lon="10.492953965440392">
        <ele>18.879999999999999</ele>
        <time>2019-05-08T11:26:10Z</time>
      </trkpt>
      <trkpt lat="54.197854036465287" lon="10.492733018472791">
        <ele>19.359999999999999</ele>
        <time>2019-05-08T11:26:11Z</time>
      </trkpt>
      <trkpt lat="54.197858981788158" lon="10.492513999342918">
        <ele>19.359999999999999</ele>
        <time>2019-05-08T11:26:12Z</time>
      </trkpt>
      <trkpt lat="54.197863005101681" lon="10.492303026840091">
        <ele>19.84</ele>
        <time>2019-05-08T11:26:13Z</time>
      </trkpt>
      <trkpt lat="54.197868034243584" lon="10.492096999660134">
        <ele>20.32</ele>
        <time>2019-05-08T11:26:14Z</time>
      </trkpt>
      <trkpt lat="54.197930982336402" lon="10.489655015990138">
        <ele>26.09</ele>
        <time>2019-05-08T11:26:24Z</time>
      </trkpt>
      <trkpt lat="54.197939028963447" lon="10.489389980211854">
        <ele>26.57</ele>
        <time>2019-05-08T11:26:25Z</time>
      </trkpt>
      <trkpt lat="54.197899969294667" lon="10.488924030214548">
        <ele>27.530000000000001</ele>
        <time>2019-05-08T11:26:27Z</time>
      </trkpt>
      <trkpt lat="54.197872979566455" lon="10.48873501829803">
        <ele>28.02</ele>
        <time>2019-05-08T11:26:28Z</time>
      </trkpt>
      <trkpt lat="54.197569973766804" lon="10.487419981509447">
        <ele>30.899999999999999</ele>
        <time>2019-05-08T11:26:33Z</time>
      </trkpt>
      <trkpt lat="54.197512976825237" lon="10.487101972103119">
        <ele>30.899999999999999</ele>
        <time>2019-05-08T11:26:34Z</time>
      </trkpt>
      <trkpt lat="54.197455979883671" lon="10.486777005717158">
        <ele>31.379999999999999</ele>
        <time>2019-05-08T11:26:35Z</time>
      </trkpt>
      <trkpt lat="54.197423961013556" lon="10.486420020461082">
        <ele>31.379999999999999</ele>
        <time>2019-05-08T11:26:36Z</time>
      </trkpt>
      <trkpt lat="54.197452962398529" lon="10.486053982749581">
        <ele>30.899999999999999</ele>
        <time>2019-05-08T11:26:37Z</time>
      </trkpt>
      <trkpt lat="54.197499984875321" lon="10.485689034685493">
        <ele>30.899999999999999</ele>
        <time>2019-05-08T11:26:38Z</time>
      </trkpt>
      <trkpt lat="54.197584977373481" lon="10.485328026115894">
        <ele>31.379999999999999</ele>
        <time>2019-05-08T11:26:39Z</time>
      </trkpt>
      <trkpt lat="54.197680028155446" lon="10.484966011717916">
        <ele>31.379999999999999</ele>
        <time>2019-05-08T11:26:40Z</time>
      </trkpt>
      <trkpt lat="54.197778012603521" lon="10.484595028683543">
        <ele>31.379999999999999</ele>
        <time>2019-05-08T11:26:41Z</time>
      </trkpt>
      <trkpt lat="54.19863497838378" lon="10.481313010677695">
        <ele>27.530000000000001</ele>
        <time>2019-05-08T11:26:50Z</time>
      </trkpt>
      <trkpt lat="54.198650987818837" lon="10.481054009869695">
        <ele>26.57</ele>
        <time>2019-05-08T11:26:51Z</time>
      </trkpt>
      <trkpt lat="54.19865601696074" lon="10.480821998789907">
        <ele>25.609999999999999</ele>
        <time>2019-05-08T11:26:52Z</time>
      </trkpt>
      <trkpt lat="54.198660962283611" lon="10.480186985805631">
        <ele>23.690000000000001</ele>
        <time>2019-05-08T11:26:55Z</time>
      </trkpt>
      <trkpt lat="54.198622992262244" lon="10.47999101690948">
        <ele>22.73</ele>
        <time>2019-05-08T11:26:56Z</time>
      </trkpt>
      <trkpt lat="54.198479996994138" lon="10.47923899255693">
        <ele>20.809999999999999</ele>
        <time>2019-05-08T11:27:00Z</time>
      </trkpt>
      <trkpt lat="54.198445966467261" lon="10.479062972590327">
        <ele>20.809999999999999</ele>
        <time>2019-05-08T11:27:01Z</time>
      </trkpt>
      <trkpt lat="54.198412019759417" lon="10.478887036442757">
        <ele>20.32</ele>
        <time>2019-05-08T11:27:02Z</time>
      </trkpt>
      <trkpt lat="54.198381006717682" lon="10.478713028132915">
        <ele>20.32</ele>
        <time>2019-05-08T11:27:03Z</time>
      </trkpt>
      <trkpt lat="54.198353011161089" lon="10.478534996509552">
        <ele>19.84</ele>
        <time>2019-05-08T11:27:04Z</time>
      </trkpt>
      <trkpt lat="54.198326021432877" lon="10.478361994028091">
        <ele>19.84</ele>
        <time>2019-05-08T11:27:05Z</time>
      </trkpt>
      <trkpt lat="54.198337001726031" lon="10.478169964626431">
        <ele>19.84</ele>
        <time>2019-05-08T11:27:06Z</time>
      </trkpt>
      <trkpt lat="54.198350999504328" lon="10.477984976023436">
        <ele>19.84</ele>
        <time>2019-05-08T11:27:07Z</time>
      </trkpt>
      <trkpt lat="54.198372960090637" lon="10.47780099324882">
        <ele>19.84</ele>
        <time>2019-05-08T11:27:08Z</time>
      </trkpt>
      <trkpt lat="54.198395004495978" lon="10.477617010474205">
        <ele>19.359999999999999</ele>
        <time>2019-05-08T11:27:09Z</time>
      </trkpt>
      <trkpt lat="54.198448983952403" lon="10.477257007732987">
        <ele>18.879999999999999</ele>
        <time>2019-05-08T11:27:11Z</time>
      </trkpt>
      <trkpt lat="54.198597008362412" lon="10.476767001673579">
        <ele>18.399999999999999</ele>
        <time>2019-05-08T11:27:14Z</time>
      </trkpt>
      <trkpt lat="54.198952987790108" lon="10.475874999538064">
        <ele>19.359999999999999</ele>
        <time>2019-05-08T11:27:19Z</time>
      </trkpt>
      <trkpt lat="54.199050972238183" lon="10.475696967914701">
        <ele>19.359999999999999</ele>
        <time>2019-05-08T11:27:20Z</time>
      </trkpt>
      <trkpt lat="54.199163960292935" lon="10.475532012060285">
        <ele>19.84</ele>
        <time>2019-05-08T11:27:21Z</time>
      </trkpt>
      <trkpt lat="54.199268985539675" lon="10.475378036499023">
        <ele>20.32</ele>
        <time>2019-05-08T11:27:22Z</time>
      </trkpt>
      <trkpt lat="54.199432013556361" lon="10.475248033180833">
        <ele>20.809999999999999</ele>
        <time>2019-05-08T11:27:23Z</time>
      </trkpt>
      <trkpt lat="54.1995819658041" lon="10.475128004327416">
        <ele>21.289999999999999</ele>
        <time>2019-05-08T11:27:24Z</time>
      </trkpt>
      <trkpt lat="54.199735019356012" lon="10.475005963817239">
        <ele>21.77</ele>
        <time>2019-05-08T11:27:25Z</time>
      </trkpt>
      <trkpt lat="54.199895029887557" lon="10.474906973540783">
        <ele>22.25</ele>
        <time>2019-05-08T11:27:26Z</time>
      </trkpt>
      <trkpt lat="54.200066020712256" lon="10.474827010184526">
        <ele>22.25</ele>
        <time>2019-05-08T11:27:27Z</time>
      </trkpt>
      <trkpt lat="54.201220963150263" lon="10.474310014396906">
        <ele>24.649999999999999</ele>
        <time>2019-05-08T11:27:35Z</time>
      </trkpt>
      <trkpt lat="54.201409975066781" lon="10.474150003865361">
        <ele>25.609999999999999</ele>
        <time>2019-05-08T11:27:40Z</time>
      </trkpt>
      <trkpt lat="54.201432019472122" lon="10.474130976945162">
        <ele>26.09</ele>
        <time>2019-05-08T11:27:48Z</time>
      </trkpt>
      <trkpt lat="54.201436964794993" lon="10.474027041345835">
        <ele>26.09</ele>
        <time>2019-05-08T11:27:49Z</time>
      </trkpt>
      <trkpt lat="54.201402012258768" lon="10.473973983898759">
        <ele>26.57</ele>
        <time>2019-05-08T11:27:50Z</time>
      </trkpt>
      <trkpt lat="54.201353983953595" lon="10.473901983350515">
        <ele>26.57</ele>
        <time>2019-05-08T11:27:51Z</time>
      </trkpt>
      <trkpt lat="54.201294975355268" lon="10.473823025822639">
        <ele>27.050000000000001</ele>
        <time>2019-05-08T11:27:52Z</time>
      </trkpt>
      <trkpt lat="54.201217023655772" lon="10.473719006404281">
        <ele>27.530000000000001</ele>
        <time>2019-05-08T11:27:53Z</time>
      </trkpt>
      <trkpt lat="54.201119039207697" lon="10.473579028621316">
        <ele>27.530000000000001</ele>
        <time>2019-05-08T11:27:54Z</time>
      </trkpt>
      <trkpt lat="54.200185965746641" lon="10.472323000431061">
        <ele>28.98</ele>
        <time>2019-05-08T11:28:01Z</time>
      </trkpt>
      <trkpt lat="54.198640007525682" lon="10.470170024782419">
        <ele>28.5</ele>
        <time>2019-05-08T11:28:10Z</time>
      </trkpt>
      <trkpt lat="54.196648970246315" lon="10.467473985627294">
        <ele>29.940000000000001</ele>
        <time>2019-05-08T11:28:19Z</time>
      </trkpt>
      <trkpt lat="54.194399015977979" lon="10.464391959831119">
        <ele>28.5</ele>
        <time>2019-05-08T11:28:29Z</time>
      </trkpt>
      <trkpt lat="54.191789980977774" lon="10.460787992924452">
        <ele>28.98</ele>
        <time>2019-05-08T11:28:41Z</time>
      </trkpt>
      <trkpt lat="54.190074959769845" lon="10.458418009802699">
        <ele>34.740000000000002</ele>
        <time>2019-05-08T11:28:49Z</time>
      </trkpt>
      <trkpt lat="54.18828098103404" lon="10.455994969233871">
        <ele>43.880000000000003</ele>
        <time>2019-05-08T11:28:57Z</time>
      </trkpt>
      <trkpt lat="54.185525011271238" lon="10.452222023159266">
        <ele>49.159999999999997</ele>
        <time>2019-05-08T11:29:09Z</time>
      </trkpt>
      <trkpt lat="54.184051975607872" lon="10.450646979734302">
        <ele>45.32</ele>
        <time>2019-05-08T11:29:15Z</time>
      </trkpt>
      <trkpt lat="54.181879973039031" lon="10.44924602843821">
        <ele>45.32</ele>
        <time>2019-05-08T11:29:23Z</time>
      </trkpt>
      <trkpt lat="54.180627968162298" lon="10.448283031582832">
        <ele>45.799999999999997</ele>
        <time>2019-05-08T11:29:28Z</time>
      </trkpt>
      <trkpt lat="54.179567992687225" lon="10.447206040844321">
        <ele>46.759999999999998</ele>
        <time>2019-05-08T11:29:33Z</time>
      </trkpt>
      <trkpt lat="54.178827032446861" lon="10.446478994563222">
        <ele>48.200000000000003</ele>
        <time>2019-05-08T11:29:37Z</time>
      </trkpt>
      <trkpt lat="54.178733993321657" lon="10.44638897292316">
        <ele>48.68</ele>
        <time>2019-05-08T11:29:38Z</time>
      </trkpt>
      <trkpt lat="54.178541963919997" lon="10.446063000708818">
        <ele>49.159999999999997</ele>
        <time>2019-05-08T11:29:39Z</time>
      </trkpt>
      <trkpt lat="54.1782689653337" lon="10.445597972720861">
        <ele>50.609999999999999</ele>
        <time>2019-05-08T11:29:41Z</time>
      </trkpt>
      <trkpt lat="54.17813896201551" lon="10.44537702575326">
        <ele>51.090000000000003</ele>
        <time>2019-05-08T11:29:42Z</time>
      </trkpt>
      <trkpt lat="54.177912985906005" lon="10.444911997765303">
        <ele>52.049999999999997</ele>
        <time>2019-05-08T11:29:44Z</time>
      </trkpt>
      <trkpt lat="54.177234973758459" lon="10.44363803230226">
        <ele>52.530000000000001</ele>
        <time>2019-05-08T11:29:50Z</time>
      </trkpt>
      <trkpt lat="54.177114022895694" lon="10.443460000678897">
        <ele>52.530000000000001</ele>
        <time>2019-05-08T11:29:51Z</time>
      </trkpt>
      <trkpt lat="54.176964992657304" lon="10.443323962390423">
        <ele>52.530000000000001</ele>
        <time>2019-05-08T11:29:52Z</time>
      </trkpt>
      <trkpt lat="54.176803976297379" lon="10.443214997649193">
        <ele>52.530000000000001</ele>
        <time>2019-05-08T11:29:53Z</time>
      </trkpt>
      <trkpt lat="54.176627034321427" lon="10.44316504150629">
        <ele>52.049999999999997</ele>
        <time>2019-05-08T11:29:54Z</time>
      </trkpt>
      <trkpt lat="54.17644003406167" lon="10.443125981837511">
        <ele>51.090000000000003</ele>
        <time>2019-05-08T11:29:55Z</time>
      </trkpt>
      <trkpt lat="54.175678035244346" lon="10.442868992686272">
        <ele>49.159999999999997</ele>
        <time>2019-05-08T11:29:59Z</time>
      </trkpt>
      <trkpt lat="54.175497991964221" lon="10.44275801628828">
        <ele>48.68</ele>
        <time>2019-05-08T11:30:00Z</time>
      </trkpt>
      <trkpt lat="54.175321971997619" lon="10.442623989656568">
        <ele>48.68</ele>
        <time>2019-05-08T11:30:01Z</time>
      </trkpt>
      <trkpt lat="54.175162967294455" lon="10.442431038245559">
        <ele>48.68</ele>
        <time>2019-05-08T11:30:02Z</time>
      </trkpt>
      <trkpt lat="54.175003040581942" lon="10.442238003015518">
        <ele>49.159999999999997</ele>
        <time>2019-05-08T11:30:03Z</time>
      </trkpt>
      <trkpt lat="54.174853004515171" lon="10.44202602468431">
        <ele>49.649999999999999</ele>
        <time>2019-05-08T11:30:04Z</time>
      </trkpt>
      <trkpt lat="54.173950022086501" lon="10.440627001225948">
        <ele>54.93</ele>
        <time>2019-05-08T11:30:11Z</time>
      </trkpt>
      <trkpt lat="54.172817040234804" lon="10.438775019720197">
        <ele>55.890000000000001</ele>
        <time>2019-05-08T11:30:20Z</time>
      </trkpt>
      <trkpt lat="54.171666959300637" lon="10.436955979093909">
        <ele>50.130000000000003</ele>
        <time>2019-05-08T11:30:29Z</time>
      </trkpt>
      <trkpt lat="54.170571025460958" lon="10.435541030019522">
        <ele>46.759999999999998</ele>
        <time>2019-05-08T11:30:39Z</time>
      </trkpt>
      <trkpt lat="54.169553965330124" lon="10.434970976784825">
        <ele>44.840000000000003</ele>
        <time>2019-05-08T11:30:49Z</time>
      </trkpt>
      <trkpt lat="54.168537994846702" lon="10.434469990432262">
        <ele>42.439999999999998</ele>
        <time>2019-05-08T11:30:58Z</time>
      </trkpt>
      <trkpt lat="54.168051006272435" lon="10.434204032644629">
        <ele>41.469999999999999</ele>
        <time>2019-05-08T11:31:02Z</time>
      </trkpt>
      <trkpt lat="54.167945981025696" lon="10.434107976034284">
        <ele>41.469999999999999</ele>
        <time>2019-05-08T11:31:03Z</time>
      </trkpt>
      <trkpt lat="54.167842967435718" lon="10.433985013514757">
        <ele>40.990000000000002</ele>
        <time>2019-05-08T11:31:04Z</time>
      </trkpt>
      <trkpt lat="54.167753029614687" lon="10.433854004368186">
        <ele>40.990000000000002</ele>
        <time>2019-05-08T11:31:05Z</time>
      </trkpt>
      <trkpt lat="54.167668959125876" lon="10.433702962473035">
        <ele>40.509999999999998</ele>
        <time>2019-05-08T11:31:06Z</time>
      </trkpt>
      <trkpt lat="54.167582960799336" lon="10.433548986911774">
        <ele>40.509999999999998</ele>
        <time>2019-05-08T11:31:07Z</time>
      </trkpt>
      <trkpt lat="54.166677966713905" lon="10.432048039510846">
        <ele>42.439999999999998</ele>
        <time>2019-05-08T11:31:17Z</time>
      </trkpt>
      <trkpt lat="54.16608695872128" lon="10.431334991008043">
        <ele>40.990000000000002</ele>
        <time>2019-05-08T11:31:23Z</time>
      </trkpt>
      <trkpt lat="54.165992997586727" lon="10.431238012388349">
        <ele>40.030000000000001</ele>
        <time>2019-05-08T11:31:24Z</time>
      </trkpt>
      <trkpt lat="54.165885038673878" lon="10.431125024333596">
        <ele>39.549999999999997</ele>
        <time>2019-05-08T11:31:25Z</time>
      </trkpt>
      <trkpt lat="54.165454963222146" lon="10.430699978023767">
        <ele>35.710000000000001</ele>
        <time>2019-05-08T11:31:29Z</time>
      </trkpt>
      <trkpt lat="54.164217039942741" lon="10.429675038903952">
        <ele>29.940000000000001</ele>
        <time>2019-05-08T11:31:40Z</time>
      </trkpt>
      <trkpt lat="54.162963023409247" lon="10.428622020408511">
        <ele>30.899999999999999</ele>
        <time>2019-05-08T11:31:51Z</time>
      </trkpt>
      <trkpt lat="54.162299009039998" lon="10.428021959960461">
        <ele>31.859999999999999</ele>
        <time>2019-05-08T11:31:58Z</time>
      </trkpt>
      <trkpt lat="54.162171017378569" lon="10.427893968299031">
        <ele>31.379999999999999</ele>
        <time>2019-05-08T11:32:05Z</time>
      </trkpt>
      <trkpt lat="54.162077978253365" lon="10.427791038528085">
        <ele>30.420000000000002</ele>
        <time>2019-05-08T11:32:39Z</time>
      </trkpt>
      <trkpt lat="54.162030033767223" lon="10.427736975252628">
        <ele>29.460000000000001</ele>
        <time>2019-05-08T11:32:40Z</time>
      </trkpt>
      <trkpt lat="54.161955015733838" lon="10.427849041298032">
        <ele>28.98</ele>
        <time>2019-05-08T11:32:41Z</time>
      </trkpt>
      <trkpt lat="54.161933977156878" lon="10.427981978282332">
        <ele>28.02</ele>
        <time>2019-05-08T11:32:42Z</time>
      </trkpt>
      <trkpt lat="54.161898018792272" lon="10.428167972713709">
        <ele>27.530000000000001</ele>
        <time>2019-05-08T11:32:43Z</time>
      </trkpt>
      <trkpt lat="54.161846973001957" lon="10.428338963538408">
        <ele>27.530000000000001</ele>
        <time>2019-05-08T11:32:44Z</time>
      </trkpt>
      <trkpt lat="54.161796011030674" lon="10.428535016253591">
        <ele>27.050000000000001</ele>
        <time>2019-05-08T11:32:45Z</time>
      </trkpt>
      <trkpt lat="54.161067036911845" lon="10.430193040519953">
        <ele>22.25</ele>
        <time>2019-05-08T11:32:53Z</time>
      </trkpt>
      <trkpt lat="54.160252986475825" lon="10.431491984054446">
        <ele>18.399999999999999</ele>
        <time>2019-05-08T11:33:02Z</time>
      </trkpt>
      <trkpt lat="54.159337012097239" lon="10.433113966137171">
        <ele>18.399999999999999</ele>
        <time>2019-05-08T11:33:13Z</time>
      </trkpt>
      <trkpt lat="54.159280015155673" lon="10.433290991932154">
        <ele>18.879999999999999</ele>
        <time>2019-05-08T11:33:14Z</time>
      </trkpt>
      <trkpt lat="54.159225029870868" lon="10.433461982756853">
        <ele>18.879999999999999</ele>
        <time>2019-05-08T11:33:15Z</time>
      </trkpt>
      <trkpt lat="54.158891011029482" lon="10.434953961521387">
        <ele>23.690000000000001</ele>
        <time>2019-05-08T11:33:24Z</time>
      </trkpt>
      <trkpt lat="54.158424977213144" lon="10.436724973842502">
        <ele>27.530000000000001</ele>
        <time>2019-05-08T11:33:35Z</time>
      </trkpt>
      <trkpt lat="54.15830897167325" lon="10.437047006562352">
        <ele>28.02</ele>
        <time>2019-05-08T11:33:37Z</time>
      </trkpt>
      <trkpt lat="54.158251974731684" lon="10.437205005437136">
        <ele>28.5</ele>
        <time>2019-05-08T11:33:38Z</time>
      </trkpt>
      <trkpt lat="54.15791803970933" lon="10.43811603449285">
        <ele>31.379999999999999</ele>
        <time>2019-05-08T11:33:45Z</time>
      </trkpt>
      <trkpt lat="54.157872023060918" lon="10.438241008669138">
        <ele>31.859999999999999</ele>
        <time>2019-05-08T11:33:46Z</time>
      </trkpt>
      <trkpt lat="54.15738302282989" lon="10.439612036570907">
        <ele>33.780000000000001</ele>
        <time>2019-05-08T11:33:56Z</time>
      </trkpt>
      <trkpt lat="54.156930986791849" lon="10.440904023125768">
        <ele>31.859999999999999</ele>
        <time>2019-05-08T11:34:05Z</time>
      </trkpt>
      <trkpt lat="54.156550029292703" lon="10.441970033571124">
        <ele>31.379999999999999</ele>
        <time>2019-05-08T11:34:12Z</time>
      </trkpt>
      <trkpt lat="54.156504012644291" lon="10.442097019404173">
        <ele>31.379999999999999</ele>
        <time>2019-05-08T11:34:13Z</time>
      </trkpt>
      <trkpt lat="54.156437963247299" lon="10.442297011613846">
        <ele>31.379999999999999</ele>
        <time>2019-05-08T11:34:14Z</time>
      </trkpt>
      <trkpt lat="54.156336961314082" lon="10.442608986049891">
        <ele>31.379999999999999</ele>
        <time>2019-05-08T11:34:16Z</time>
      </trkpt>
      <trkpt lat="54.156283987686038" lon="10.442773019894958">
        <ele>30.899999999999999</ele>
        <time>2019-05-08T11:34:17Z</time>
      </trkpt>
      <trkpt lat="54.156102016568184" lon="10.44344499707222">
        <ele>28.98</ele>
        <time>2019-05-08T11:34:21Z</time>
      </trkpt>
      <trkpt lat="54.155761962756515" lon="10.445140991359949">
        <ele>25.129999999999999</ele>
        <time>2019-05-08T11:34:30Z</time>
      </trkpt>
      <trkpt lat="54.155635982751846" lon="10.445733005180955">
        <ele>24.649999999999999</ele>
        <time>2019-05-08T11:34:33Z</time>
      </trkpt>
      <trkpt lat="54.155590971931815" lon="10.445944983512163">
        <ele>24.649999999999999</ele>
        <time>2019-05-08T11:34:34Z</time>
      </trkpt>
      <trkpt lat="54.155354015529156" lon="10.446762973442674">
        <ele>24.170000000000002</ele>
        <time>2019-05-08T11:34:38Z</time>
      </trkpt>
      <trkpt lat="54.155286960303783" lon="10.44696900062263">
        <ele>23.690000000000001</ele>
        <time>2019-05-08T11:34:39Z</time>
      </trkpt>
      <trkpt lat="54.154277024790645" lon="10.448879990726709">
        <ele>19.359999999999999</ele>
        <time>2019-05-08T11:34:49Z</time>
      </trkpt>
      <trkpt lat="54.153103977441788" lon="10.449996041134">
        <ele>17.920000000000002</ele>
        <time>2019-05-08T11:34:58Z</time>
      </trkpt>
      <trkpt lat="54.151881979778409" lon="10.450528040528297">
        <ele>18.399999999999999</ele>
        <time>2019-05-08T11:35:06Z</time>
      </trkpt>
      <trkpt lat="54.15053098462522" lon="10.451247040182352">
        <ele>16.960000000000001</ele>
        <time>2019-05-08T11:35:14Z</time>
      </trkpt>
      <trkpt lat="54.149218965321779" lon="10.452773971483111">
        <ele>20.32</ele>
        <time>2019-05-08T11:35:23Z</time>
      </trkpt>
      <trkpt lat="54.148048013448715" lon="10.453387023881078">
        <ele>23.690000000000001</ele>
        <time>2019-05-08T11:35:30Z</time>
      </trkpt>
      <trkpt lat="54.146622000262141" lon="10.454190010204911">
        <ele>22.73</ele>
        <time>2019-05-08T11:35:38Z</time>
      </trkpt>
      <trkpt lat="54.146489985287189" lon="10.454349014908075">
        <ele>22.25</ele>
        <time>2019-05-08T11:35:39Z</time>
      </trkpt>
      <trkpt lat="54.146375991404057" lon="10.454553030431271">
        <ele>22.25</ele>
        <time>2019-05-08T11:35:40Z</time>
      </trkpt>
      <trkpt lat="54.146263003349304" lon="10.454754028469324">
        <ele>21.77</ele>
        <time>2019-05-08T11:35:41Z</time>
      </trkpt>
      <trkpt lat="54.146151021122932" lon="10.454952009022236">
        <ele>21.289999999999999</ele>
        <time>2019-05-08T11:35:42Z</time>
      </trkpt>
      <trkpt lat="54.146071979776025" lon="10.455165999010205">
        <ele>21.289999999999999</ele>
        <time>2019-05-08T11:35:43Z</time>
      </trkpt>
      <trkpt lat="54.146004002541304" lon="10.455380994826555">
        <ele>21.289999999999999</ele>
        <time>2019-05-08T11:35:44Z</time>
      </trkpt>
      <trkpt lat="54.145964020863175" lon="10.455622980371118">
        <ele>21.289999999999999</ele>
        <time>2019-05-08T11:35:45Z</time>
      </trkpt>
      <trkpt lat="54.145929990336299" lon="10.455859014764428">
        <ele>20.809999999999999</ele>
        <time>2019-05-08T11:35:46Z</time>
      </trkpt>
      <trkpt lat="54.145895959809422" lon="10.456087002530694">
        <ele>20.809999999999999</ele>
        <time>2019-05-08T11:35:47Z</time>
      </trkpt>
      <trkpt lat="54.145861007273197" lon="10.456323958933353">
        <ele>20.809999999999999</ele>
        <time>2019-05-08T11:35:48Z</time>
      </trkpt>
      <trkpt lat="54.145861007273197" lon="10.456531997770071">
        <ele>21.289999999999999</ele>
        <time>2019-05-08T11:35:49Z</time>
      </trkpt>
      <trkpt lat="54.145897971466184" lon="10.458265962079167">
        <ele>21.289999999999999</ele>
        <time>2019-05-08T11:35:55Z</time>
      </trkpt>
      <trkpt lat="54.145747013390064" lon="10.46009698882699">
        <ele>22.25</ele>
        <time>2019-05-08T11:36:00Z</time>
      </trkpt>
      <trkpt lat="54.145484995096922" lon="10.461977971717715">
        <ele>24.649999999999999</ele>
        <time>2019-05-08T11:36:05Z</time>
      </trkpt>
      <trkpt lat="54.145401008427143" lon="10.462324982509017">
        <ele>25.129999999999999</ele>
        <time>2019-05-08T11:36:06Z</time>
      </trkpt>
      <trkpt lat="54.145292965695262" lon="10.462648021057248">
        <ele>25.129999999999999</ele>
        <time>2019-05-08T11:36:07Z</time>
      </trkpt>
      <trkpt lat="54.145130021497607" lon="10.46291003935039">
        <ele>25.609999999999999</ele>
        <time>2019-05-08T11:36:08Z</time>
      </trkpt>
      <trkpt lat="54.14496498182416" lon="10.46316702850163">
        <ele>26.09</ele>
        <time>2019-05-08T11:36:09Z</time>
      </trkpt>
      <trkpt lat="54.14479298517108" lon="10.463417982682586">
        <ele>26.57</ele>
        <time>2019-05-08T11:36:10Z</time>
      </trkpt>
      <trkpt lat="54.143232023343444" lon="10.465813027694821">
        <ele>25.609999999999999</ele>
        <time>2019-05-08T11:36:19Z</time>
      </trkpt>
      <trkpt lat="54.142089989036322" lon="10.467912023887038">
        <ele>24.649999999999999</ele>
        <time>2019-05-08T11:36:27Z</time>
      </trkpt>
      <trkpt lat="54.141716994345188" lon="10.468850964680314">
        <ele>24.170000000000002</ele>
        <time>2019-05-08T11:36:30Z</time>
      </trkpt>
      <trkpt lat="54.141627978533506" lon="10.469221025705338">
        <ele>24.170000000000002</ele>
        <time>2019-05-08T11:36:31Z</time>
      </trkpt>
      <trkpt lat="54.141563018783927" lon="10.469609024003148">
        <ele>24.170000000000002</ele>
        <time>2019-05-08T11:36:32Z</time>
      </trkpt>
      <trkpt lat="54.141503004357219" lon="10.470005990937352">
        <ele>24.170000000000002</ele>
        <time>2019-05-08T11:36:33Z</time>
      </trkpt>
      <trkpt lat="54.14144198410213" lon="10.470403963699937">
        <ele>24.170000000000002</ele>
        <time>2019-05-08T11:36:34Z</time>
      </trkpt>
      <trkpt lat="54.141413988545537" lon="10.470805037766695">
        <ele>24.170000000000002</ele>
        <time>2019-05-08T11:36:35Z</time>
      </trkpt>
      <trkpt lat="54.141365038231015" lon="10.472920965403318">
        <ele>23.690000000000001</ele>
        <time>2019-05-08T11:36:41Z</time>
      </trkpt>
      <trkpt lat="54.141311980783939" lon="10.475773997604847">
        <ele>21.77</ele>
        <time>2019-05-08T11:36:50Z</time>
      </trkpt>
      <trkpt lat="54.141335031017661" lon="10.477999979630113">
        <ele>22.25</ele>
        <time>2019-05-08T11:36:58Z</time>
      </trkpt>
      <trkpt lat="54.141224976629019" lon="10.478890975937247">
        <ele>22.73</ele>
        <time>2019-05-08T11:37:01Z</time>
      </trkpt>
      <trkpt lat="54.14116102270782" lon="10.47917403280735">
        <ele>22.73</ele>
        <time>2019-05-08T11:37:02Z</time>
      </trkpt>
      <trkpt lat="54.141098996624351" lon="10.479447031393647">
        <ele>23.210000000000001</ele>
        <time>2019-05-08T11:37:03Z</time>
      </trkpt>
      <trkpt lat="54.140967987477779" lon="10.479951035231352">
        <ele>23.690000000000001</ele>
        <time>2019-05-08T11:37:05Z</time>
      </trkpt>
      <trkpt lat="54.1409030277282" lon="10.480167958885431">
        <ele>24.170000000000002</ele>
        <time>2019-05-08T11:37:06Z</time>
      </trkpt>
      <trkpt lat="54.14083999581635" lon="10.48037800937891">
        <ele>24.649999999999999</ele>
        <time>2019-05-08T11:37:07Z</time>
      </trkpt>
      <trkpt lat="54.140790961682796" lon="10.480514969676733">
        <ele>25.129999999999999</ele>
        <time>2019-05-08T11:37:08Z</time>
      </trkpt>
      <trkpt lat="54.140636986121535" lon="10.480654025450349">
        <ele>25.609999999999999</ele>
        <time>2019-05-08T11:37:09Z</time>
      </trkpt>
      <trkpt lat="54.140545036643744" lon="10.480630975216627">
        <ele>26.09</ele>
        <time>2019-05-08T11:37:10Z</time>
      </trkpt>
      <trkpt lat="54.140444034710526" lon="10.480613959953189">
        <ele>26.09</ele>
        <time>2019-05-08T11:37:11Z</time>
      </trkpt>
      <trkpt lat="54.140319982543588" lon="10.480617983266711">
        <ele>25.609999999999999</ele>
        <time>2019-05-08T11:37:12Z</time>
      </trkpt>
      <trkpt lat="54.1401950083673" lon="10.480706999078393">
        <ele>25.129999999999999</ele>
        <time>2019-05-08T11:37:13Z</time>
      </trkpt>
      <trkpt lat="54.139279033988714" lon="10.481142019852996">
        <ele>22.73</ele>
        <time>2019-05-08T11:37:19Z</time>
      </trkpt>
      <trkpt lat="54.138865973800421" lon="10.48125802539289">
        <ele>22.25</ele>
        <time>2019-05-08T11:37:22Z</time>
      </trkpt>
      <trkpt lat="54.138729013502598" lon="10.481340000405908">
        <ele>21.77</ele>
        <time>2019-05-08T11:37:23Z</time>
      </trkpt>
      <trkpt lat="54.137344993650913" lon="10.482191015034914">
        <ele>22.73</ele>
        <time>2019-05-08T11:37:31Z</time>
      </trkpt>
      <trkpt lat="54.137012986466289" lon="10.482309032231569">
        <ele>22.25</ele>
        <time>2019-05-08T11:37:33Z</time>
      </trkpt>
      <trkpt lat="54.136838978156447" lon="10.48233300447464">
        <ele>22.73</ele>
        <time>2019-05-08T11:37:34Z</time>
      </trkpt>
      <trkpt lat="54.136665975674987" lon="10.482336021959782">
        <ele>22.25</ele>
        <time>2019-05-08T11:37:35Z</time>
      </trkpt>
      <trkpt lat="54.136311002075672" lon="10.482157990336418">
        <ele>22.25</ele>
        <time>2019-05-08T11:37:37Z</time>
      </trkpt>
      <trkpt lat="54.135225964710116" lon="10.481348969042301">
        <ele>21.289999999999999</ele>
        <time>2019-05-08T11:37:43Z</time>
      </trkpt>
      <trkpt lat="54.135079029947519" lon="10.481101032346487">
        <ele>20.809999999999999</ele>
        <time>2019-05-08T11:37:44Z</time>
      </trkpt>
      <trkpt lat="54.134918013587594" lon="10.48082803376019">
        <ele>20.32</ele>
        <time>2019-05-08T11:37:45Z</time>
      </trkpt>
      <trkpt lat="54.134338991716504" lon="10.479722963646054">
        <ele>18.399999999999999</ele>
        <time>2019-05-08T11:37:49Z</time>
      </trkpt>
      <trkpt lat="54.133446989580989" lon="10.478749992325902">
        <ele>17.920000000000002</ele>
        <time>2019-05-08T11:37:55Z</time>
      </trkpt>
      <trkpt lat="54.133373983204365" lon="10.478691989555955">
        <ele>17.920000000000002</ele>
        <time>2019-05-08T11:37:56Z</time>
      </trkpt>
      <trkpt lat="54.133298965170979" lon="10.478532984852791">
        <ele>17.920000000000002</ele>
        <time>2019-05-08T11:37:57Z</time>
      </trkpt>
      <trkpt lat="54.133243979886174" lon="10.477932002395391">
        <ele>17.440000000000001</ele>
        <time>2019-05-08T11:38:00Z</time>
      </trkpt>
      <trkpt lat="54.133206009864807" lon="10.477710971608758">
        <ele>16.960000000000001</ele>
        <time>2019-05-08T11:38:01Z</time>
      </trkpt>
      <trkpt lat="54.133160999044776" lon="10.477446019649506">
        <ele>16.960000000000001</ele>
        <time>2019-05-08T11:38:02Z</time>
      </trkpt>
      <trkpt lat="54.133111964911222" lon="10.477159023284912">
        <ele>16.48</ele>
        <time>2019-05-08T11:38:03Z</time>
      </trkpt>
      <trkpt lat="54.133058991283178" lon="10.476851994171739">
        <ele>16</ele>
        <time>2019-05-08T11:38:04Z</time>
      </trkpt>
      <trkpt lat="54.132527997717261" lon="10.473753036931157">
        <ele>16.960000000000001</ele>
        <time>2019-05-08T11:38:13Z</time>
      </trkpt>
      <trkpt lat="54.132099011912942" lon="10.472007002681494">
        <ele>19.359999999999999</ele>
        <time>2019-05-08T11:38:18Z</time>
      </trkpt>
      <trkpt lat="54.131988035514951" lon="10.471672983840108">
        <ele>20.32</ele>
        <time>2019-05-08T11:38:19Z</time>
      </trkpt>
      <trkpt lat="54.131144983693957" lon="10.469061015173793">
        <ele>24.649999999999999</ele>
        <time>2019-05-08T11:38:27Z</time>
      </trkpt>
      <trkpt lat="54.131006011739373" lon="10.468820035457611">
        <ele>24.170000000000002</ele>
        <time>2019-05-08T11:38:28Z</time>
      </trkpt>
      <trkpt lat="54.13087097927928" lon="10.468592969700694">
        <ele>24.170000000000002</ele>
        <time>2019-05-08T11:38:29Z</time>
      </trkpt>
      <trkpt lat="54.130734018981457" lon="10.468360958620906">
        <ele>23.690000000000001</ele>
        <time>2019-05-08T11:38:30Z</time>
      </trkpt>
      <trkpt lat="54.130563028156757" lon="10.468245036900043">
        <ele>23.210000000000001</ele>
        <time>2019-05-08T11:38:31Z</time>
      </trkpt>
      <trkpt lat="54.130373010411859" lon="10.468116039410233">
        <ele>22.73</ele>
        <time>2019-05-08T11:38:32Z</time>
      </trkpt>
      <trkpt lat="54.130178969353437" lon="10.46800103969872">
        <ele>21.77</ele>
        <time>2019-05-08T11:38:33Z</time>
      </trkpt>
      <trkpt lat="54.129978977143764" lon="10.467908000573516">
        <ele>20.809999999999999</ele>
        <time>2019-05-08T11:38:34Z</time>
      </trkpt>
      <trkpt lat="54.129785019904375" lon="10.467816973105073">
        <ele>20.32</ele>
        <time>2019-05-08T11:38:35Z</time>
      </trkpt>
      <trkpt lat="54.129445971921086" lon="10.467568030580878">
        <ele>18.879999999999999</ele>
        <time>2019-05-08T11:38:37Z</time>
      </trkpt>
      <trkpt lat="54.129330972209573" lon="10.467338031157851">
        <ele>17.920000000000002</ele>
        <time>2019-05-08T11:38:38Z</time>
      </trkpt>
      <trkpt lat="54.129243968054652" lon="10.467111971229315">
        <ele>17.920000000000002</ele>
        <time>2019-05-08T11:38:39Z</time>
      </trkpt>
      <trkpt lat="54.129166016355157" lon="10.466870991513133">
        <ele>17.440000000000001</ele>
        <time>2019-05-08T11:38:40Z</time>
      </trkpt>
      <trkpt lat="54.129125028848648" lon="10.466582989320159">
        <ele>17.440000000000001</ele>
        <time>2019-05-08T11:38:41Z</time>
      </trkpt>
      <trkpt lat="54.12913198582828" lon="10.466275038197637">
        <ele>17.440000000000001</ele>
        <time>2019-05-08T11:38:42Z</time>
      </trkpt>
      <trkpt lat="54.129141038283706" lon="10.465932972729206">
        <ele>17.920000000000002</ele>
        <time>2019-05-08T11:38:43Z</time>
      </trkpt>
      <trkpt lat="54.12915101274848" lon="10.465581016615033">
        <ele>17.920000000000002</ele>
        <time>2019-05-08T11:38:44Z</time>
      </trkpt>
      <trkpt lat="54.129159981384873" lon="10.465224031358957">
        <ele>18.399999999999999</ele>
        <time>2019-05-08T11:38:45Z</time>
      </trkpt>
      <trkpt lat="54.129156041890383" lon="10.464860005304217">
        <ele>19.359999999999999</ele>
        <time>2019-05-08T11:38:46Z</time>
      </trkpt>
      <trkpt lat="54.129113964736462" lon="10.464508971199393">
        <ele>19.84</ele>
        <time>2019-05-08T11:38:47Z</time>
      </trkpt>
      <trkpt lat="54.129054034128785" lon="10.464161038398743">
        <ele>20.32</ele>
        <time>2019-05-08T11:38:48Z</time>
      </trkpt>
      <trkpt lat="54.128946997225285" lon="10.463837999850512">
        <ele>20.32</ele>
        <time>2019-05-08T11:38:49Z</time>
      </trkpt>
      <trkpt lat="54.128834009170532" lon="10.463498029857874">
        <ele>20.809999999999999</ele>
        <time>2019-05-08T11:38:50Z</time>
      </trkpt>
      <trkpt lat="54.128068992868066" lon="10.461463993415236">
        <ele>24.649999999999999</ele>
        <time>2019-05-08T11:38:56Z</time>
      </trkpt>
      <trkpt lat="54.127984000369906" lon="10.461150007322431">
        <ele>25.129999999999999</ele>
        <time>2019-05-08T11:38:57Z</time>
      </trkpt>
      <trkpt lat="54.127944018691778" lon="10.460823029279709">
        <ele>25.129999999999999</ele>
        <time>2019-05-08T11:38:58Z</time>
      </trkpt>
      <trkpt lat="54.127944018691778" lon="10.46048398129642">
        <ele>25.129999999999999</ele>
        <time>2019-05-08T11:38:59Z</time>
      </trkpt>
      <trkpt lat="54.127944018691778" lon="10.460136970505118">
        <ele>24.649999999999999</ele>
        <time>2019-05-08T11:39:00Z</time>
      </trkpt>
      <trkpt lat="54.128018030896783" lon="10.459780991077423">
        <ele>24.649999999999999</ele>
        <time>2019-05-08T11:39:01Z</time>
      </trkpt>
      <trkpt lat="54.128102017566562" lon="10.459418976679444">
        <ele>24.649999999999999</ele>
        <time>2019-05-08T11:39:02Z</time>
      </trkpt>
      <trkpt lat="54.128189021721482" lon="10.45904397033155">
        <ele>24.170000000000002</ele>
        <time>2019-05-08T11:39:03Z</time>
      </trkpt>
      <trkpt lat="54.128419021144509" lon="10.457935966551304">
        <ele>24.170000000000002</ele>
        <time>2019-05-08T11:39:06Z</time>
      </trkpt>
      <trkpt lat="54.128471994772553" lon="10.457563977688551">
        <ele>24.170000000000002</ele>
        <time>2019-05-08T11:39:07Z</time>
      </trkpt>
      <trkpt lat="54.128508036956191" lon="10.457191988825798">
        <ele>23.690000000000001</ele>
        <time>2019-05-08T11:39:08Z</time>
      </trkpt>
      <trkpt lat="54.128630999475718" lon="10.454933987930417">
        <ele>23.690000000000001</ele>
        <time>2019-05-08T11:39:15Z</time>
      </trkpt>
      <trkpt lat="54.128844989463687" lon="10.452826023101807">
        <ele>19.84</ele>
        <time>2019-05-08T11:39:23Z</time>
      </trkpt>
      <trkpt lat="54.128809031099081" lon="10.452071987092495">
        <ele>18.879999999999999</ele>
        <time>2019-05-08T11:39:26Z</time>
      </trkpt>
      <trkpt lat="54.128537960350513" lon="10.450947973877192">
        <ele>17.440000000000001</ele>
        <time>2019-05-08T11:39:31Z</time>
      </trkpt>
      <trkpt lat="54.128457996994257" lon="10.450758039951324">
        <ele>17.440000000000001</ele>
        <time>2019-05-08T11:39:32Z</time>
      </trkpt>
      <trkpt lat="54.128379039466381" lon="10.450571961700916">
        <ele>17.440000000000001</ele>
        <time>2019-05-08T11:39:33Z</time>
      </trkpt>
      <trkpt lat="54.128283988684416" lon="10.45040600001812">
        <ele>17.920000000000002</ele>
        <time>2019-05-08T11:39:34Z</time>
      </trkpt>
      <trkpt lat="54.128163959830999" lon="10.450226962566376">
        <ele>18.399999999999999</ele>
        <time>2019-05-08T11:39:35Z</time>
      </trkpt>
      <trkpt lat="54.128028005361557" lon="10.450023030862212">
        <ele>18.879999999999999</ele>
        <time>2019-05-08T11:39:36Z</time>
      </trkpt>
      <trkpt lat="54.127021003514528" lon="10.448513031005859">
        <ele>22.25</ele>
        <time>2019-05-08T11:39:42Z</time>
      </trkpt>
      <trkpt lat="54.125703033059835" lon="10.446583013981581">
        <ele>24.649999999999999</ele>
        <time>2019-05-08T11:39:48Z</time>
      </trkpt>
      <trkpt lat="54.12554101087153" lon="10.44634597375989">
        <ele>24.649999999999999</ele>
        <time>2019-05-08T11:39:49Z</time>
      </trkpt>
      <trkpt lat="54.125335989519954" lon="10.44617397710681">
        <ele>24.649999999999999</ele>
        <time>2019-05-08T11:39:50Z</time>
      </trkpt>
      <trkpt lat="54.12515502423048" lon="10.446021007373929">
        <ele>24.649999999999999</ele>
        <time>2019-05-08T11:39:51Z</time>
      </trkpt>
      <trkpt lat="54.124958971515298" lon="10.445970967411995">
        <ele>25.129999999999999</ele>
        <time>2019-05-08T11:39:52Z</time>
      </trkpt>
      <trkpt lat="54.124752022325993" lon="10.445932997390628">
        <ele>25.129999999999999</ele>
        <time>2019-05-08T11:39:53Z</time>
      </trkpt>
      <trkpt lat="54.124539960175753" lon="10.445925034582615">
        <ele>25.129999999999999</ele>
        <time>2019-05-08T11:39:54Z</time>
      </trkpt>
      <trkpt lat="54.124323036521673" lon="10.445940038189292">
        <ele>25.129999999999999</ele>
        <time>2019-05-08T11:39:55Z</time>
      </trkpt>
      <trkpt lat="54.123893966898322" lon="10.445909025147557">
        <ele>24.649999999999999</ele>
        <time>2019-05-08T11:39:57Z</time>
      </trkpt>
      <trkpt lat="54.122976986691356" lon="10.445662010461092">
        <ele>24.649999999999999</ele>
        <time>2019-05-08T11:40:01Z</time>
      </trkpt>
      <trkpt lat="54.122761990875006" lon="10.445646001026034">
        <ele>24.649999999999999</ele>
        <time>2019-05-08T11:40:02Z</time>
      </trkpt>
      <trkpt lat="54.121926985681057" lon="10.445613982155919">
        <ele>24.170000000000002</ele>
        <time>2019-05-08T11:40:06Z</time>
      </trkpt>
      <trkpt lat="54.121711989864707" lon="10.445521026849747">
        <ele>24.649999999999999</ele>
        <time>2019-05-08T11:40:07Z</time>
      </trkpt>
      <trkpt lat="54.120400976389647" lon="10.444729020819068">
        <ele>24.649999999999999</ele>
        <time>2019-05-08T11:40:14Z</time>
      </trkpt>
      <trkpt lat="54.119485002011061" lon="10.444120997563004">
        <ele>23.690000000000001</ele>
        <time>2019-05-08T11:40:22Z</time>
      </trkpt>
      <trkpt lat="54.118456039577723" lon="10.443694023415446">
        <ele>24.649999999999999</ele>
        <time>2019-05-08T11:40:29Z</time>
      </trkpt>
      <trkpt lat="54.117089034989476" lon="10.4432940389961">
        <ele>25.609999999999999</ele>
        <time>2019-05-08T11:40:36Z</time>
      </trkpt>
      <trkpt lat="54.116923995316029" lon="10.443225977942348">
        <ele>25.609999999999999</ele>
        <time>2019-05-08T11:40:37Z</time>
      </trkpt>
      <trkpt lat="54.116773037239909" lon="10.443093040958047">
        <ele>25.609999999999999</ele>
        <time>2019-05-08T11:40:38Z</time>
      </trkpt>
      <trkpt lat="54.116616966202855" lon="10.442936969920993">
        <ele>26.09</ele>
        <time>2019-05-08T11:40:39Z</time>
      </trkpt>
      <trkpt lat="54.116313960403204" lon="10.442602029070258">
        <ele>26.09</ele>
        <time>2019-05-08T11:40:41Z</time>
      </trkpt>
      <trkpt lat="54.116166019812226" lon="10.442384015768766">
        <ele>26.09</ele>
        <time>2019-05-08T11:40:42Z</time>
      </trkpt>
      <trkpt lat="54.116009026765823" lon="10.442150998860598">
        <ele>26.09</ele>
        <time>2019-05-08T11:40:43Z</time>
      </trkpt>
      <trkpt lat="54.115841975435615" lon="10.441903984174132">
        <ele>26.09</ele>
        <time>2019-05-08T11:40:44Z</time>
      </trkpt>
      <trkpt lat="54.115695040673018" lon="10.441627968102694">
        <ele>26.09</ele>
        <time>2019-05-08T11:40:45Z</time>
      </trkpt>
      <trkpt lat="54.114680998027325" lon="10.439718989655375">
        <ele>27.530000000000001</ele>
        <time>2019-05-08T11:40:52Z</time>
      </trkpt>
      <trkpt lat="54.114553006365895" lon="10.439477004110813">
        <ele>28.02</ele>
        <time>2019-05-08T11:40:53Z</time>
      </trkpt>
      <trkpt lat="54.113696040585637" lon="10.437891986221075">
        <ele>28.02</ele>
        <time>2019-05-08T11:41:00Z</time>
      </trkpt>
      <trkpt lat="54.113628985360265" lon="10.43768897652626">
        <ele>28.02</ele>
        <time>2019-05-08T11:41:01Z</time>
      </trkpt>
      <trkpt lat="54.113580035045743" lon="10.437542963773012">
        <ele>27.530000000000001</ele>
        <time>2019-05-08T11:41:02Z</time>
      </trkpt>
      <trkpt lat="54.113569976761937" lon="10.437383037060499">
        <ele>27.050000000000001</ele>
        <time>2019-05-08T11:41:03Z</time>
      </trkpt>
      <trkpt lat="54.113572994247079" lon="10.437188996002078">
        <ele>27.050000000000001</ele>
        <time>2019-05-08T11:41:04Z</time>
      </trkpt>
      <trkpt lat="54.113578023388982" lon="10.436970982700586">
        <ele>26.57</ele>
        <time>2019-05-08T11:41:05Z</time>
      </trkpt>
      <trkpt lat="54.113581962883472" lon="10.43674299493432">
        <ele>26.57</ele>
        <time>2019-05-08T11:41:06Z</time>
      </trkpt>
      <trkpt lat="54.113550027832389" lon="10.436151986941695">
        <ele>24.170000000000002</ele>
        <time>2019-05-08T11:41:09Z</time>
      </trkpt>
      <trkpt lat="54.113519014790654" lon="10.435977978631854">
        <ele>23.210000000000001</ele>
        <time>2019-05-08T11:41:10Z</time>
      </trkpt>
      <trkpt lat="54.113488001748919" lon="10.435801036655903">
        <ele>22.73</ele>
        <time>2019-05-08T11:41:11Z</time>
      </trkpt>
      <trkpt lat="54.113408038392663" lon="10.435661980882287">
        <ele>21.77</ele>
        <time>2019-05-08T11:41:12Z</time>
      </trkpt>
      <trkpt lat="54.113319022580981" lon="10.435534995049238">
        <ele>20.809999999999999</ele>
        <time>2019-05-08T11:41:13Z</time>
      </trkpt>
      <trkpt lat="54.113236041739583" lon="10.435415972024202">
        <ele>20.32</ele>
        <time>2019-05-08T11:41:14Z</time>
      </trkpt>
      <trkpt lat="54.113121964037418" lon="10.435327040031552">
        <ele>19.84</ele>
        <time>2019-05-08T11:41:15Z</time>
      </trkpt>
      <trkpt lat="54.113003024831414" lon="10.435304995626211">
        <ele>18.399999999999999</ele>
        <time>2019-05-08T11:41:16Z</time>
      </trkpt>
      <trkpt lat="54.112885007634759" lon="10.435283035039902">
        <ele>16.960000000000001</ele>
        <time>2019-05-08T11:41:17Z</time>
      </trkpt>
      <trkpt lat="54.112288970500231" lon="10.435298038646579">
        <ele>9.75</ele>
        <time>2019-05-08T11:41:22Z</time>
      </trkpt>
      <trkpt lat="54.112167013809085" lon="10.43530298396945">
        <ele>8.310000000000001</ele>
        <time>2019-05-08T11:41:23Z</time>
      </trkpt>
      <trkpt lat="54.111391017213464" lon="10.435177003964782">
        <ele>-0.34</ele>
        <time>2019-05-08T11:41:29Z</time>
      </trkpt>
      <trkpt lat="54.111257996410131" lon="10.435106009244919">
        <ele>-1.79</ele>
        <time>2019-05-08T11:41:30Z</time>
      </trkpt>
      <trkpt lat="54.111115001142025" lon="10.435019005089998">
        <ele>-2.75</ele>
        <time>2019-05-08T11:41:31Z</time>
      </trkpt>
      <trkpt lat="54.110971000045538" lon="10.434929989278316">
        <ele>-3.71</ele>
        <time>2019-05-08T11:41:32Z</time>
      </trkpt>
      <trkpt lat="54.110828004777431" lon="10.434795962646604">
        <ele>-4.67</ele>
        <time>2019-05-08T11:41:33Z</time>
      </trkpt>
      <trkpt lat="54.110676040872931" lon="10.434654979035258">
        <ele>-5.63</ele>
        <time>2019-05-08T11:41:34Z</time>
      </trkpt>
      <trkpt lat="54.110092995688319" lon="10.434107976034284">
        <ele>-8.029999999999999</ele>
        <time>2019-05-08T11:41:38Z</time>
      </trkpt>
      <trkpt lat="54.109973972663283" lon="10.433996999636292">
        <ele>-8.51</ele>
        <time>2019-05-08T11:41:39Z</time>
      </trkpt>
      <trkpt lat="54.109725030139089" lon="10.433751996606588">
        <ele>-9</ele>
        <time>2019-05-08T11:41:42Z</time>
      </trkpt>
      <trkpt lat="54.10942898131907" lon="10.433468017727137">
        <ele>-8.029999999999999</ele>
        <time>2019-05-08T11:41:47Z</time>
      </trkpt>
      <trkpt lat="54.109378019347787" lon="10.433418983593583">
        <ele>-7.55</ele>
        <time>2019-05-08T11:41:48Z</time>
      </trkpt>
      <trkpt lat="54.109329991042614" lon="10.433373972773552">
        <ele>-7.07</ele>
        <time>2019-05-08T11:41:49Z</time>
      </trkpt>
      <trkpt lat="54.109286991879344" lon="10.433331979438663">
        <ele>-6.11</ele>
        <time>2019-05-08T11:41:50Z</time>
      </trkpt>
      <trkpt lat="54.109231000766158" lon="10.433279005810618">
        <ele>-5.63</ele>
        <time>2019-05-08T11:41:51Z</time>
      </trkpt>
      <trkpt lat="54.109169980511069" lon="10.433219997212291">
        <ele>-4.67</ele>
        <time>2019-05-08T11:41:52Z</time>
      </trkpt>
      <trkpt lat="54.10910896025598" lon="10.433161994442344">
        <ele>-4.67</ele>
        <time>2019-05-08T11:41:53Z</time>
      </trkpt>
      <trkpt lat="54.108993038535118" lon="10.433051018044353">
        <ele>-3.71</ele>
        <time>2019-05-08T11:41:55Z</time>
      </trkpt>
      <trkpt lat="54.108788017183542" lon="10.43285496532917">
        <ele>-2.75</ele>
        <time>2019-05-08T11:41:59Z</time>
      </trkpt>
      <trkpt lat="54.108694978058338" lon="10.432749018073082">
        <ele>-2.75</ele>
        <time>2019-05-08T11:42:01Z</time>
      </trkpt>
      <trkpt lat="54.108647033572197" lon="10.432694032788277">
        <ele>-2.27</ele>
        <time>2019-05-08T11:42:02Z</time>
      </trkpt>
      <trkpt lat="54.107986036688089" lon="10.431932033970952">
        <ele>2.06</ele>
        <time>2019-05-08T11:42:13Z</time>
      </trkpt>
      <trkpt lat="54.107222026214004" lon="10.431023016571999">
        <ele>1.1</ele>
        <time>2019-05-08T11:42:24Z</time>
      </trkpt>
      <trkpt lat="54.106644010171294" lon="10.430310973897576">
        <ele>3.02</ele>
        <time>2019-05-08T11:42:32Z</time>
      </trkpt>
      <trkpt lat="54.10655097104609" lon="10.43023101054132">
        <ele>3.02</ele>
        <time>2019-05-08T11:42:33Z</time>
      </trkpt>
      <trkpt lat="54.106465978547931" lon="10.430267974734306">
        <ele>3.5</ele>
        <time>2019-05-08T11:42:34Z</time>
      </trkpt>
      <trkpt lat="54.106353996321559" lon="10.43031700886786">
        <ele>3.5</ele>
        <time>2019-05-08T11:42:35Z</time>
      </trkpt>
      <trkpt lat="54.106242014095187" lon="10.430365959182382">
        <ele>3.98</ele>
        <time>2019-05-08T11:42:36Z</time>
      </trkpt>
      <trkpt lat="54.106133971363306" lon="10.430359002202749">
        <ele>3.98</ele>
        <time>2019-05-08T11:42:37Z</time>
      </trkpt>
      <trkpt lat="54.10603397525847" lon="10.430327989161015">
        <ele>4.46</ele>
        <time>2019-05-08T11:42:38Z</time>
      </trkpt>
      <trkpt lat="54.10592601634562" lon="10.430294964462519">
        <ele>4.94</ele>
        <time>2019-05-08T11:42:39Z</time>
      </trkpt>
      <trkpt lat="54.105499964207411" lon="10.430196980014443">
        <ele>6.39</ele>
        <time>2019-05-08T11:42:43Z</time>
      </trkpt>
      <trkpt lat="54.104483993723989" lon="10.430106036365032">
        <ele>11.19</ele>
        <time>2019-05-08T11:42:53Z</time>
      </trkpt>
      <trkpt lat="54.104448035359383" lon="10.43010201305151">
        <ele>11.67</ele>
        <time>2019-05-08T11:42:54Z</time>
      </trkpt>
      <trkpt lat="54.104448035359383" lon="10.43010201305151">
        <ele>11.67</ele>
        <time>2019-05-08T11:42:55Z</time>
      </trkpt>
      <trkpt lat="54.104448035359383" lon="10.43010201305151">
        <ele>12.15</ele>
        <time>2019-05-08T11:42:56Z</time>
      </trkpt>
      <trkpt lat="54.104307973757386" lon="10.429975027218461">
        <ele>12.630000000000001</ele>
        <time>2019-05-08T11:42:57Z</time>
      </trkpt>
      <trkpt lat="54.104321971535683" lon="10.429919036105275">
        <ele>12.630000000000001</ele>
        <time>2019-05-08T11:42:58Z</time>
      </trkpt>
      <trkpt lat="54.104340998455882" lon="10.429843012243509">
        <ele>13.119999999999999</ele>
        <time>2019-05-08T11:42:59Z</time>
      </trkpt>
      <trkpt lat="54.104360025376081" lon="10.429769000038505">
        <ele>13.119999999999999</ele>
        <time>2019-05-08T11:43:00Z</time>
      </trkpt>
      <trkpt lat="54.104299005120993" lon="10.429717032238841">
        <ele>13.6</ele>
        <time>2019-05-08T11:43:01Z</time>
      </trkpt>
      <trkpt lat="54.104245025664568" lon="10.429680990055203">
        <ele>13.6</ele>
        <time>2019-05-08T11:43:02Z</time>
      </trkpt>
      <trkpt lat="54.104169001802802" lon="10.42963002808392">
        <ele>13.6</ele>
        <time>2019-05-08T11:43:03Z</time>
      </trkpt>
      <trkpt lat="54.104135977104306" lon="10.429632961750031">
        <ele>13.6</ele>
        <time>2019-05-08T11:43:04Z</time>
      </trkpt>
      <trkpt lat="54.104071017354727" lon="10.429637990891933">
        <ele>13.6</ele>
        <time>2019-05-08T11:43:05Z</time>
      </trkpt>
      <trkpt lat="54.104003962129354" lon="10.429643020033836">
        <ele>13.6</ele>
        <time>2019-05-08T11:43:06Z</time>
      </trkpt>
      <trkpt lat="54.103867001831532" lon="10.429660035297275">
        <ele>14.08</ele>
        <time>2019-05-08T11:43:08Z</time>
      </trkpt>
      <trkpt lat="54.103728029876947" lon="10.429707979783416">
        <ele>15.039999999999999</ele>
        <time>2019-05-08T11:43:10Z</time>
      </trkpt>
      <trkpt lat="54.103595009073615" lon="10.429752990603447">
        <ele>15.52</ele>
        <time>2019-05-08T11:43:12Z</time>
      </trkpt>
      <trkpt lat="54.103458970785141" lon="10.429800013080239">
        <ele>16</ele>
        <time>2019-05-08T11:43:14Z</time>
      </trkpt>
      <trkpt lat="54.103316981345415" lon="10.429848963394761">
        <ele>16.48</ele>
        <time>2019-05-08T11:43:16Z</time>
      </trkpt>
      <trkpt lat="54.103247998282313" lon="10.429873019456863">
        <ele>16.960000000000001</ele>
        <time>2019-05-08T11:43:17Z</time>
      </trkpt>
      <trkpt lat="54.103183038532734" lon="10.429895985871553">
        <ele>17.440000000000001</ele>
        <time>2019-05-08T11:43:18Z</time>
      </trkpt>
      <trkpt lat="54.103043982759118" lon="10.429944014176726">
        <ele>17.920000000000002</ele>
        <time>2019-05-08T11:43:20Z</time>
      </trkpt>
      <trkpt lat="54.102970976382494" lon="10.429968992248178">
        <ele>18.399999999999999</ele>
        <time>2019-05-08T11:43:21Z</time>
      </trkpt>
      <trkpt lat="54.102638969197869" lon="10.430080974474549">
        <ele>19.84</ele>
        <time>2019-05-08T11:43:26Z</time>
      </trkpt>
      <trkpt lat="54.102501003071666" lon="10.430080974474549">
        <ele>19.84</ele>
        <time>2019-05-08T11:43:28Z</time>
      </trkpt>
      <trkpt lat="54.102409975603223" lon="10.430080974474549">
        <ele>20.32</ele>
        <time>2019-05-08T11:43:29Z</time>
      </trkpt>
      <trkpt lat="54.102333029732108" lon="10.430052978917956">
        <ele>20.32</ele>
        <time>2019-05-08T11:43:30Z</time>
      </trkpt>
      <trkpt lat="54.101363997906446" lon="10.429703034460545">
        <ele>21.289999999999999</ele>
        <time>2019-05-08T11:43:39Z</time>
      </trkpt>
      <trkpt lat="54.100384991616011" lon="10.429341020062566">
        <ele>22.25</ele>
        <time>2019-05-08T11:43:46Z</time>
      </trkpt>
      <trkpt lat="54.099188977852464" lon="10.428911028429866">
        <ele>22.73</ele>
        <time>2019-05-08T11:43:55Z</time>
      </trkpt>
      <trkpt lat="54.09894498065114" lon="10.428841039538383">
        <ele>22.73</ele>
        <time>2019-05-08T11:43:57Z</time>
      </trkpt>
      <trkpt lat="54.098709030076861" lon="10.428879009559751">
        <ele>21.77</ele>
        <time>2019-05-08T11:43:59Z</time>
      </trkpt>
      <trkpt lat="54.098364030942321" lon="10.428935000672936">
        <ele>20.809999999999999</ele>
        <time>2019-05-08T11:44:02Z</time>
      </trkpt>
      <trkpt lat="54.098242996260524" lon="10.428931983187795">
        <ele>20.32</ele>
        <time>2019-05-08T11:44:03Z</time>
      </trkpt>
      <trkpt lat="54.097888022661209" lon="10.428870040923357">
        <ele>19.359999999999999</ele>
        <time>2019-05-08T11:44:06Z</time>
      </trkpt>
      <trkpt lat="54.097792971879244" lon="10.428854031488299">
        <ele>19.359999999999999</ele>
        <time>2019-05-08T11:44:07Z</time>
      </trkpt>
      <trkpt lat="54.097690964117646" lon="10.428836010396481">
        <ele>19.359999999999999</ele>
        <time>2019-05-08T11:44:08Z</time>
      </trkpt>
      <trkpt lat="54.097583005204797" lon="10.428816983476281">
        <ele>19.359999999999999</ele>
        <time>2019-05-08T11:44:09Z</time>
      </trkpt>
      <trkpt lat="54.097468005493283" lon="10.428797034546733">
        <ele>19.359999999999999</ele>
        <time>2019-05-08T11:44:10Z</time>
      </trkpt>
      <trkpt lat="54.097324004396796" lon="10.42877197265625">
        <ele>19.359999999999999</ele>
        <time>2019-05-08T11:44:11Z</time>
      </trkpt>
      <trkpt lat="54.097245968878269" lon="10.428796028718352">
        <ele>19.359999999999999</ele>
        <time>2019-05-08T11:44:12Z</time>
      </trkpt>
      <trkpt lat="54.096113992854953" lon="10.429319981485605">
        <ele>19.359999999999999</ele>
        <time>2019-05-08T11:44:23Z</time>
      </trkpt>
      <trkpt lat="54.096005028113723" lon="10.42935099452734">
        <ele>19.359999999999999</ele>
        <time>2019-05-08T11:44:24Z</time>
      </trkpt>
      <trkpt lat="54.095900002866983" lon="10.429370021447539">
        <ele>19.359999999999999</ele>
        <time>2019-05-08T11:44:25Z</time>
      </trkpt>
      <trkpt lat="54.095803024247289" lon="10.429361974820495">
        <ele>19.359999999999999</ele>
        <time>2019-05-08T11:44:26Z</time>
      </trkpt>
      <trkpt lat="54.095709985122085" lon="10.429353006184101">
        <ele>19.359999999999999</ele>
        <time>2019-05-08T11:44:27Z</time>
      </trkpt>
      <trkpt lat="54.094998026266694" lon="10.429149996489286">
        <ele>20.809999999999999</ele>
        <time>2019-05-08T11:44:35Z</time>
      </trkpt>
      <trkpt lat="54.094902975484729" lon="10.429085036739707">
        <ele>20.809999999999999</ele>
        <time>2019-05-08T11:44:36Z</time>
      </trkpt>
      <trkpt lat="54.094682028517127" lon="10.428930977359414">
        <ele>20.809999999999999</ele>
        <time>2019-05-08T11:44:38Z</time>
      </trkpt>
      <trkpt lat="54.094577003270388" lon="10.42885797098279">
        <ele>20.32</ele>
        <time>2019-05-08T11:44:39Z</time>
      </trkpt>
      <trkpt lat="54.094462003558874" lon="10.428815977647901">
        <ele>20.32</ele>
        <time>2019-05-08T11:44:40Z</time>
      </trkpt>
      <trkpt lat="54.094348009675741" lon="10.428774990141392">
        <ele>19.84</ele>
        <time>2019-05-08T11:44:41Z</time>
      </trkpt>
      <trkpt lat="54.094238039106131" lon="10.428736014291644">
        <ele>19.359999999999999</ele>
        <time>2019-05-08T11:44:42Z</time>
      </trkpt>
      <trkpt lat="54.094133013859391" lon="10.428697960451245">
        <ele>18.879999999999999</ele>
        <time>2019-05-08T11:44:43Z</time>
      </trkpt>
      <trkpt lat="54.093146966770291" lon="10.428465027362108">
        <ele>16.48</ele>
        <time>2019-05-08T11:44:52Z</time>
      </trkpt>
      <trkpt lat="54.091903008520603" lon="10.428428985178471">
        <ele>16.48</ele>
        <time>2019-05-08T11:45:03Z</time>
      </trkpt>
      <trkpt lat="54.091612994670868" lon="10.428314991295338">
        <ele>16.48</ele>
        <time>2019-05-08T11:45:06Z</time>
      </trkpt>
      <trkpt lat="54.090287983417511" lon="10.427777962759137">
        <ele>20.809999999999999</ele>
        <time>2019-05-08T11:45:18Z</time>
      </trkpt>
      <trkpt lat="54.089755984023213" lon="10.42763396166265">
        <ele>24.649999999999999</ele>
        <time>2019-05-08T11:45:23Z</time>
      </trkpt>
      <trkpt lat="54.089088030159473" lon="10.427515022456646">
        <ele>30.420000000000002</ele>
        <time>2019-05-08T11:45:30Z</time>
      </trkpt>
      <trkpt lat="54.088193010538816" lon="10.427350988611579">
        <ele>35.229999999999997</ele>
        <time>2019-05-08T11:45:37Z</time>
      </trkpt>
      <trkpt lat="54.086895994842052" lon="10.427083019167185">
        <ele>34.259999999999998</ele>
        <time>2019-05-08T11:45:45Z</time>
      </trkpt>
      <trkpt lat="54.086037017405033" lon="10.427013030275702">
        <ele>31.379999999999999</ele>
        <time>2019-05-08T11:45:49Z</time>
      </trkpt>
      <trkpt lat="54.085819004103541" lon="10.427091987803578">
        <ele>30.899999999999999</ele>
        <time>2019-05-08T11:45:50Z</time>
      </trkpt>
      <trkpt lat="54.085604008287191" lon="10.427170023322105">
        <ele>30.899999999999999</ele>
        <time>2019-05-08T11:45:51Z</time>
      </trkpt>
      <trkpt lat="54.085007971152663" lon="10.427387030795217">
        <ele>29.460000000000001</ele>
        <time>2019-05-08T11:45:54Z</time>
      </trkpt>
      <trkpt lat="54.084835974499583" lon="10.4274379927665">
        <ele>28.98</ele>
        <time>2019-05-08T11:45:55Z</time>
      </trkpt>
      <trkpt lat="54.084672024473548" lon="10.427407985553145">
        <ele>28.98</ele>
        <time>2019-05-08T11:45:56Z</time>
      </trkpt>
      <trkpt lat="54.084517965093255" lon="10.427379989996552">
        <ele>28.5</ele>
        <time>2019-05-08T11:45:57Z</time>
      </trkpt>
      <trkpt lat="54.084385028108954" lon="10.427356017753482">
        <ele>28.5</ele>
        <time>2019-05-08T11:45:58Z</time>
      </trkpt>
      <trkpt lat="54.084126027300954" lon="10.427188966423273">
        <ele>27.530000000000001</ele>
        <time>2019-05-08T11:46:00Z</time>
      </trkpt>
      <trkpt lat="54.084016978740692" lon="10.427112020552158">
        <ele>27.050000000000001</ele>
        <time>2019-05-08T11:46:01Z</time>
      </trkpt>
      <trkpt lat="54.083936009556055" lon="10.426936000585556">
        <ele>26.57</ele>
        <time>2019-05-08T11:46:02Z</time>
      </trkpt>
      <trkpt lat="54.083866020664573" lon="10.426719998940825">
        <ele>26.09</ele>
        <time>2019-05-08T11:46:03Z</time>
      </trkpt>
      <trkpt lat="54.083810029551387" lon="10.426452029496431">
        <ele>26.09</ele>
        <time>2019-05-08T11:46:04Z</time>
      </trkpt>
      <trkpt lat="54.083612971007824" lon="10.42511997744441">
        <ele>25.129999999999999</ele>
        <time>2019-05-08T11:46:08Z</time>
      </trkpt>
      <trkpt lat="54.083615988492966" lon="10.4247319791466">
        <ele>25.609999999999999</ele>
        <time>2019-05-08T11:46:09Z</time>
      </trkpt>
      <trkpt lat="54.083684971556067" lon="10.421447027474642">
        <ele>23.690000000000001</ele>
        <time>2019-05-08T11:46:17Z</time>
      </trkpt>
      <trkpt lat="54.083754038438201" lon="10.42015596292913">
        <ele>21.77</ele>
        <time>2019-05-08T11:46:21Z</time>
      </trkpt>
      <trkpt lat="54.083743980154395" lon="10.419914983212948">
        <ele>20.809999999999999</ele>
        <time>2019-05-08T11:46:22Z</time>
      </trkpt>
      <trkpt lat="54.083713972941041" lon="10.419710967689753">
        <ele>20.32</ele>
        <time>2019-05-08T11:46:23Z</time>
      </trkpt>
      <trkpt lat="54.083637027069926" lon="10.419544000178576">
        <ele>19.359999999999999</ele>
        <time>2019-05-08T11:46:24Z</time>
      </trkpt>
      <trkpt lat="54.08353703096509" lon="10.41940301656723">
        <ele>18.879999999999999</ele>
        <time>2019-05-08T11:46:25Z</time>
      </trkpt>
      <trkpt lat="54.083424964919686" lon="10.419251974672079">
        <ele>18.399999999999999</ele>
        <time>2019-05-08T11:46:26Z</time>
      </trkpt>
      <trkpt lat="54.083313988521695" lon="10.419150972738862">
        <ele>17.440000000000001</ele>
        <time>2019-05-08T11:46:27Z</time>
      </trkpt>
      <trkpt lat="54.083207035437226" lon="10.419053994119167">
        <ele>16.960000000000001</ele>
        <time>2019-05-08T11:46:28Z</time>
      </trkpt>
      <trkpt lat="54.082998996600509" lon="10.418863976374269">
        <ele>15.52</ele>
        <time>2019-05-08T11:46:30Z</time>
      </trkpt>
      <trkpt lat="54.082904029637575" lon="10.4187570232898">
        <ele>15.039999999999999</ele>
        <time>2019-05-08T11:46:31Z</time>
      </trkpt>
      <trkpt lat="54.082816019654274" lon="10.418649986386299">
        <ele>14.56</ele>
        <time>2019-05-08T11:46:32Z</time>
      </trkpt>
      <trkpt lat="54.082736978307366" lon="10.418550996109843">
        <ele>14.08</ele>
        <time>2019-05-08T11:46:33Z</time>
      </trkpt>
      <trkpt lat="54.082661960273981" lon="10.418443037196994">
        <ele>13.6</ele>
        <time>2019-05-08T11:46:34Z</time>
      </trkpt>
      <trkpt lat="54.082601023837924" lon="10.418332982808352">
        <ele>12.630000000000001</ele>
        <time>2019-05-08T11:46:35Z</time>
      </trkpt>
      <trkpt lat="54.08255198970437" lon="10.41819803416729">
        <ele>12.15</ele>
        <time>2019-05-08T11:46:36Z</time>
      </trkpt>
      <trkpt lat="54.082336993888021" lon="10.417481968179345">
        <ele>9.75</ele>
        <time>2019-05-08T11:46:42Z</time>
      </trkpt>
      <trkpt lat="54.082306986674666" lon="10.417381972074509">
        <ele>9.75</ele>
        <time>2019-05-08T11:46:43Z</time>
      </trkpt>
      <trkpt lat="54.082279996946454" lon="10.417293962091208">
        <ele>9.75</ele>
        <time>2019-05-08T11:46:44Z</time>
      </trkpt>
      <trkpt lat="54.082258036360145" lon="10.417219027876854">
        <ele>9.75</ele>
        <time>2019-05-08T11:46:45Z</time>
      </trkpt>
      <trkpt lat="54.082238003611565" lon="10.417160019278526">
        <ele>9.75</ele>
        <time>2019-05-08T11:46:46Z</time>
      </trkpt>
      <trkpt lat="54.082111017778516" lon="10.417184997349977">
        <ele>9.75</ele>
        <time>2019-05-08T11:46:47Z</time>
      </trkpt>
      <trkpt lat="54.082075981423259" lon="10.417231013998389">
        <ele>9.75</ele>
        <time>2019-05-08T11:46:48Z</time>
      </trkpt>
      <trkpt lat="54.082009010016918" lon="10.417327992618084">
        <ele>10.23</ele>
        <time>2019-05-08T11:46:49Z</time>
      </trkpt>
      <trkpt lat="54.081607013940811" lon="10.417969962581992">
        <ele>14.08</ele>
        <time>2019-05-08T11:46:54Z</time>
      </trkpt>
      <trkpt lat="54.081558985635638" lon="10.418144976720214">
        <ele>14.56</ele>
        <time>2019-05-08T11:46:55Z</time>
      </trkpt>
      <trkpt lat="54.081387994810939" lon="10.418641017749906">
        <ele>16.48</ele>
        <time>2019-05-08T11:46:58Z</time>
      </trkpt>
      <trkpt lat="54.081332003697753" lon="10.418761968612671">
        <ele>16.48</ele>
        <time>2019-05-08T11:46:59Z</time>
      </trkpt>
      <trkpt lat="54.081243993714452" lon="10.418805973604321">
        <ele>16.960000000000001</ele>
        <time>2019-05-08T11:47:00Z</time>
      </trkpt>
      <trkpt lat="54.081122959032655" lon="10.418826006352901">
        <ele>16.960000000000001</ele>
        <time>2019-05-08T11:47:01Z</time>
      </trkpt>
      <trkpt lat="54.080985998734832" lon="10.418848972767591">
        <ele>16.960000000000001</ele>
        <time>2019-05-08T11:47:02Z</time>
      </trkpt>
      <trkpt lat="54.079719996079803" lon="10.419002026319504">
        <ele>19.84</ele>
        <time>2019-05-08T11:47:09Z</time>
      </trkpt>
      <trkpt lat="54.078914998099208" lon="10.419196989387274">
        <ele>20.809999999999999</ele>
        <time>2019-05-08T11:47:13Z</time>
      </trkpt>
      <trkpt lat="54.078763034194708" lon="10.419331016018987">
        <ele>21.289999999999999</ele>
        <time>2019-05-08T11:47:14Z</time>
      </trkpt>
      <trkpt lat="54.078625990077853" lon="10.419547017663717">
        <ele>21.289999999999999</ele>
        <time>2019-05-08T11:47:15Z</time>
      </trkpt>
      <trkpt lat="54.078500010073185" lon="10.419743992388248">
        <ele>21.289999999999999</ele>
        <time>2019-05-08T11:47:16Z</time>
      </trkpt>
      <trkpt lat="54.078406970947981" lon="10.420001987367868">
        <ele>21.289999999999999</ele>
        <time>2019-05-08T11:47:17Z</time>
      </trkpt>
      <trkpt lat="54.07833999954164" lon="10.42028596624732">
        <ele>21.289999999999999</ele>
        <time>2019-05-08T11:47:18Z</time>
      </trkpt>
      <trkpt lat="54.078290965408087" lon="10.420595007017255">
        <ele>21.289999999999999</ele>
        <time>2019-05-08T11:47:19Z</time>
      </trkpt>
      <trkpt lat="54.078238997608423" lon="10.420917961746454">
        <ele>21.289999999999999</ele>
        <time>2019-05-08T11:47:20Z</time>
      </trkpt>
      <trkpt lat="54.078186023980379" lon="10.421249968931079">
        <ele>21.289999999999999</ele>
        <time>2019-05-08T11:47:21Z</time>
      </trkpt>
      <trkpt lat="54.078133972361684" lon="10.421578958630562">
        <ele>20.809999999999999</ele>
        <time>2019-05-08T11:47:22Z</time>
      </trkpt>
      <trkpt lat="54.078057026490569" lon="10.421879030764103">
        <ele>20.809999999999999</ele>
        <time>2019-05-08T11:47:23Z</time>
      </trkpt>
      <trkpt lat="54.07797496765852" lon="10.422158986330032">
        <ele>20.32</ele>
        <time>2019-05-08T11:47:24Z</time>
      </trkpt>
      <trkpt lat="54.077856028452516" lon="10.422382028773427">
        <ele>20.32</ele>
        <time>2019-05-08T11:47:25Z</time>
      </trkpt>
      <trkpt lat="54.0777169726789" lon="10.422583026811481">
        <ele>20.809999999999999</ele>
        <time>2019-05-08T11:47:26Z</time>
      </trkpt>
      <trkpt lat="54.077574983239174" lon="10.422788970172405">
        <ele>21.289999999999999</ele>
        <time>2019-05-08T11:47:27Z</time>
      </trkpt>
      <trkpt lat="54.077403992414474" lon="10.422951998189092">
        <ele>21.77</ele>
        <time>2019-05-08T11:47:28Z</time>
      </trkpt>
      <trkpt lat="54.077215986326337" lon="10.423085018992424">
        <ele>22.73</ele>
        <time>2019-05-08T11:47:29Z</time>
      </trkpt>
      <trkpt lat="54.077021023258567" lon="10.423222985118628">
        <ele>23.210000000000001</ele>
        <time>2019-05-08T11:47:30Z</time>
      </trkpt>
      <trkpt lat="54.075618982315063" lon="10.424212971702218">
        <ele>27.530000000000001</ele>
        <time>2019-05-08T11:47:37Z</time>
      </trkpt>
      <trkpt lat="54.075413960963488" lon="10.424273991957307">
        <ele>28.02</ele>
        <time>2019-05-08T11:47:38Z</time>
      </trkpt>
      <trkpt lat="54.075211035087705" lon="10.424286983907223">
        <ele>28.02</ele>
        <time>2019-05-08T11:47:39Z</time>
      </trkpt>
      <trkpt lat="54.073619982227683" lon="10.424349009990692">
        <ele>30.420000000000002</ele>
        <time>2019-05-08T11:47:47Z</time>
      </trkpt>
      <trkpt lat="54.072791012004018" lon="10.42406695894897">
        <ele>30.899999999999999</ele>
        <time>2019-05-08T11:47:53Z</time>
      </trkpt>
      <trkpt lat="54.07241097651422" lon="10.423929998651147">
        <ele>31.379999999999999</ele>
        <time>2019-05-08T11:47:56Z</time>
      </trkpt>
      <trkpt lat="54.07228097319603" lon="10.423908038064837">
        <ele>31.859999999999999</ele>
        <time>2019-05-08T11:47:57Z</time>
      </trkpt>
      <trkpt lat="54.072154993191361" lon="10.423921030014753">
        <ele>31.859999999999999</ele>
        <time>2019-05-08T11:47:58Z</time>
      </trkpt>
      <trkpt lat="54.071895992383361" lon="10.423980038613081">
        <ele>31.379999999999999</ele>
        <time>2019-05-08T11:48:00Z</time>
      </trkpt>
      <trkpt lat="54.070757981389761" lon="10.42451798915863">
        <ele>27.050000000000001</ele>
        <time>2019-05-08T11:48:09Z</time>
      </trkpt>
      <trkpt lat="54.070644993335009" lon="10.424586972221732">
        <ele>26.09</ele>
        <time>2019-05-08T11:48:10Z</time>
      </trkpt>
      <trkpt lat="54.070534016937017" lon="10.424654027447104">
        <ele>25.609999999999999</ele>
        <time>2019-05-08T11:48:11Z</time>
      </trkpt>
      <trkpt lat="54.070409964770079" lon="10.424648998305202">
        <ele>24.649999999999999</ele>
        <time>2019-05-08T11:48:12Z</time>
      </trkpt>
      <trkpt lat="54.07028398476541" lon="10.424615973606706">
        <ele>24.170000000000002</ele>
        <time>2019-05-08T11:48:13Z</time>
      </trkpt>
      <trkpt lat="54.07015398144722" lon="10.424571968615055">
        <ele>23.690000000000001</ele>
        <time>2019-05-08T11:48:14Z</time>
      </trkpt>
      <trkpt lat="54.070026995614171" lon="10.424496028572321">
        <ele>23.210000000000001</ele>
        <time>2019-05-08T11:48:15Z</time>
      </trkpt>
      <trkpt lat="54.069897998124361" lon="10.424417993053794">
        <ele>22.73</ele>
        <time>2019-05-08T11:48:16Z</time>
      </trkpt>
      <trkpt lat="54.069156032055616" lon="10.423974003642797">
        <ele>22.73</ele>
        <time>2019-05-08T11:48:22Z</time>
      </trkpt>
      <trkpt lat="54.069030974060297" lon="10.423943996429443">
        <ele>23.210000000000001</ele>
        <time>2019-05-08T11:48:23Z</time>
      </trkpt>
      <trkpt lat="54.068911029025912" lon="10.424009962007403">
        <ele>23.690000000000001</ele>
        <time>2019-05-08T11:48:24Z</time>
      </trkpt>
      <trkpt lat="54.068787982687354" lon="10.424083974212408">
        <ele>24.170000000000002</ele>
        <time>2019-05-08T11:48:25Z</time>
      </trkpt>
      <trkpt lat="54.068659991025925" lon="10.424180030822754">
        <ele>25.609999999999999</ele>
        <time>2019-05-08T11:48:26Z</time>
      </trkpt>
      <trkpt lat="54.068533005192876" lon="10.424313973635435">
        <ele>26.57</ele>
        <time>2019-05-08T11:48:27Z</time>
      </trkpt>
      <trkpt lat="54.0676199644804" lon="10.42528904043138">
        <ele>31.859999999999999</ele>
        <time>2019-05-08T11:48:35Z</time>
      </trkpt>
      <trkpt lat="54.066300988197327" lon="10.426353039219975">
        <ele>31.379999999999999</ele>
        <time>2019-05-08T11:48:45Z</time>
      </trkpt>
      <trkpt lat="54.06467498280108" lon="10.427207993343472">
        <ele>29.940000000000001</ele>
        <time>2019-05-08T11:48:54Z</time>
      </trkpt>
      <trkpt lat="54.064084980636835" lon="10.427488032728434">
        <ele>29.460000000000001</ele>
        <time>2019-05-08T11:48:57Z</time>
      </trkpt>
      <trkpt lat="54.062671037390828" lon="10.427768994122744">
        <ele>28.98</ele>
        <time>2019-05-08T11:49:04Z</time>
      </trkpt>
      <trkpt lat="54.061275031417608" lon="10.427957000210881">
        <ele>26.57</ele>
        <time>2019-05-08T11:49:12Z</time>
      </trkpt>
      <trkpt lat="54.059981033205986" lon="10.428109969943762">
        <ele>27.530000000000001</ele>
        <time>2019-05-08T11:49:18Z</time>
      </trkpt>
      <trkpt lat="54.057817999273539" lon="10.428366037085652">
        <ele>26.57</ele>
        <time>2019-05-08T11:49:28Z</time>
      </trkpt>
      <trkpt lat="54.055828973650932" lon="10.428600981831551">
        <ele>27.530000000000001</ele>
        <time>2019-05-08T11:49:38Z</time>
      </trkpt>
      <trkpt lat="54.053325969725847" lon="10.428801979869604">
        <ele>24.649999999999999</ele>
        <time>2019-05-08T11:49:50Z</time>
      </trkpt>
      <trkpt lat="54.052633959800005" lon="10.428866017609835">
        <ele>24.170000000000002</ele>
        <time>2019-05-08T11:49:54Z</time>
      </trkpt>
      <trkpt lat="54.052490964531898" lon="10.428912034258246">
        <ele>24.170000000000002</ele>
        <time>2019-05-08T11:49:55Z</time>
      </trkpt>
      <trkpt lat="54.052369007840753" lon="10.428969031199813">
        <ele>24.649999999999999</ele>
        <time>2019-05-08T11:49:56Z</time>
      </trkpt>
      <trkpt lat="54.052267000079155" lon="10.429083025082946">
        <ele>24.649999999999999</ele>
        <time>2019-05-08T11:49:57Z</time>
      </trkpt>
      <trkpt lat="54.052159963175654" lon="10.429202970117331">
        <ele>24.649999999999999</ele>
        <time>2019-05-08T11:49:58Z</time>
      </trkpt>
      <trkpt lat="54.052027026191354" lon="10.42935099452734">
        <ele>25.129999999999999</ele>
        <time>2019-05-08T11:49:59Z</time>
      </trkpt>
      <trkpt lat="54.051932981237769" lon="10.42950002476573">
        <ele>25.129999999999999</ele>
        <time>2019-05-08T11:50:00Z</time>
      </trkpt>
      <trkpt lat="54.051817981526256" lon="10.429683001711965">
        <ele>25.129999999999999</ele>
        <time>2019-05-08T11:50:01Z</time>
      </trkpt>
      <trkpt lat="54.050892032682896" lon="10.431086970493197">
        <ele>26.09</ele>
        <time>2019-05-08T11:50:08Z</time>
      </trkpt>
      <trkpt lat="54.050722969695926" lon="10.431222002953291">
        <ele>26.09</ele>
        <time>2019-05-08T11:50:09Z</time>
      </trkpt>
      <trkpt lat="54.050548039376736" lon="10.431347982957959">
        <ele>26.57</ele>
        <time>2019-05-08T11:50:10Z</time>
      </trkpt>
      <trkpt lat="54.048976013436913" lon="10.432195980101824">
        <ele>28.02</ele>
        <time>2019-05-08T11:50:18Z</time>
      </trkpt>
      <trkpt lat="54.0471859741956" lon="10.433374978601933">
        <ele>31.859999999999999</ele>
        <time>2019-05-08T11:50:26Z</time>
      </trkpt>
      <trkpt lat="54.045716961845756" lon="10.434152986854315">
        <ele>33.780000000000001</ele>
        <time>2019-05-08T11:50:33Z</time>
      </trkpt>
      <trkpt lat="54.044911041855812" lon="10.434437971562147">
        <ele>35.229999999999997</ele>
        <time>2019-05-08T11:50:37Z</time>
      </trkpt>
      <trkpt lat="54.044753964990377" lon="10.434569986537099">
        <ele>35.710000000000001</ele>
        <time>2019-05-08T11:50:38Z</time>
      </trkpt>
      <trkpt lat="54.044609041884542" lon="10.434692027047276">
        <ele>36.189999999999998</ele>
        <time>2019-05-08T11:50:39Z</time>
      </trkpt>
      <trkpt lat="54.044505022466183" lon="10.434867041185498">
        <ele>36.670000000000002</ele>
        <time>2019-05-08T11:50:40Z</time>
      </trkpt>
      <trkpt lat="54.044405026361346" lon="10.435068039223552">
        <ele>37.149999999999999</ele>
        <time>2019-05-08T11:50:41Z</time>
      </trkpt>
      <trkpt lat="54.044352974742651" lon="10.435306001454592">
        <ele>37.630000000000003</ele>
        <time>2019-05-08T11:50:42Z</time>
      </trkpt>
      <trkpt lat="54.04432900249958" lon="10.435586040839553">
        <ele>38.109999999999999</ele>
        <time>2019-05-08T11:50:43Z</time>
      </trkpt>
      <trkpt lat="54.044302012771368" lon="10.435896003618836">
        <ele>38.590000000000003</ele>
        <time>2019-05-08T11:50:44Z</time>
      </trkpt>
      <trkpt lat="54.044321961700916" lon="10.436196997761726">
        <ele>39.07</ele>
        <time>2019-05-08T11:50:45Z</time>
      </trkpt>
      <trkpt lat="54.044344006106257" lon="10.436536967754364">
        <ele>39.549999999999997</ele>
        <time>2019-05-08T11:50:46Z</time>
      </trkpt>
      <trkpt lat="54.04452295973897" lon="10.439284974709153">
        <ele>41.469999999999999</ele>
        <time>2019-05-08T11:50:54Z</time>
      </trkpt>
      <trkpt lat="54.044528994709253" lon="10.439560990780592">
        <ele>41.469999999999999</ele>
        <time>2019-05-08T11:50:55Z</time>
      </trkpt>
      <trkpt lat="54.044473003596067" lon="10.439794007688761">
        <ele>41.469999999999999</ele>
        <time>2019-05-08T11:50:56Z</time>
      </trkpt>
      <trkpt lat="54.044407960027456" lon="10.439998023211956">
        <ele>40.990000000000002</ele>
        <time>2019-05-08T11:50:57Z</time>
      </trkpt>
      <trkpt lat="54.044302012771368" lon="10.440115034580231">
        <ele>40.990000000000002</ele>
        <time>2019-05-08T11:50:58Z</time>
      </trkpt>
      <trkpt lat="54.044191036373377" lon="10.440216036513448">
        <ele>40.990000000000002</ele>
        <time>2019-05-08T11:50:59Z</time>
      </trkpt>
      <trkpt lat="54.044062038883567" lon="10.440254006534815">
        <ele>40.990000000000002</ele>
        <time>2019-05-08T11:51:00Z</time>
      </trkpt>
      <trkpt lat="54.043929018080235" lon="10.440292982384562">
        <ele>40.509999999999998</ele>
        <time>2019-05-08T11:51:01Z</time>
      </trkpt>
      <trkpt lat="54.043786022812128" lon="10.440334975719452">
        <ele>40.509999999999998</ele>
        <time>2019-05-08T11:51:02Z</time>
      </trkpt>
      <trkpt lat="54.042362021282315" lon="10.440740995109081">
        <ele>40.509999999999998</ele>
        <time>2019-05-08T11:51:10Z</time>
      </trkpt>
      <trkpt lat="54.040577011182904" lon="10.441223038360476">
        <ele>38.109999999999999</ele>
        <time>2019-05-08T11:51:18Z</time>
      </trkpt>
      <trkpt lat="54.039716022089124" lon="10.441452031955123">
        <ele>37.149999999999999</ele>
        <time>2019-05-08T11:51:23Z</time>
      </trkpt>
      <trkpt lat="54.038445996120572" lon="10.441769035533071">
        <ele>37.149999999999999</ele>
        <time>2019-05-08T11:51:32Z</time>
      </trkpt>
      <trkpt lat="54.03712903149426" lon="10.442129960283637">
        <ele>40.030000000000001</ele>
        <time>2019-05-08T11:51:42Z</time>
      </trkpt>
      <trkpt lat="54.036836000159383" lon="10.442195003852248">
        <ele>40.509999999999998</ele>
        <time>2019-05-08T11:51:45Z</time>
      </trkpt>
      <trkpt lat="54.036748996004462" lon="10.442214030772448">
        <ele>40.509999999999998</ele>
        <time>2019-05-08T11:51:46Z</time>
      </trkpt>
      <trkpt lat="54.036670960485935" lon="10.442230962216854">
        <ele>40.030000000000001</ele>
        <time>2019-05-08T11:51:47Z</time>
      </trkpt>
      <trkpt lat="54.036531988531351" lon="10.442261975258589">
        <ele>39.07</ele>
        <time>2019-05-08T11:51:49Z</time>
      </trkpt>
      <trkpt lat="54.036483038216829" lon="10.442273039370775">
        <ele>38.590000000000003</ele>
        <time>2019-05-08T11:51:50Z</time>
      </trkpt>
      <trkpt lat="54.036412965506315" lon="10.442377980798483">
        <ele>37.630000000000003</ele>
        <time>2019-05-08T11:51:54Z</time>
      </trkpt>
      <trkpt lat="54.036435009911656" lon="10.442630024626851">
        <ele>37.149999999999999</ele>
        <time>2019-05-08T11:51:56Z</time>
      </trkpt>
      <trkpt lat="54.036561995744705" lon="10.444247983396053">
        <ele>35.229999999999997</ele>
        <time>2019-05-08T11:52:04Z</time>
      </trkpt>
      <trkpt lat="54.036580016836524" lon="10.444478988647461">
        <ele>34.259999999999998</ele>
        <time>2019-05-08T11:52:05Z</time>
      </trkpt>
      <trkpt lat="54.036626033484936" lon="10.445429999381304">
        <ele>30.420000000000002</ele>
        <time>2019-05-08T11:52:09Z</time>
      </trkpt>
      <trkpt lat="54.036603989079595" lon="10.445664022117853">
        <ele>29.940000000000001</ele>
        <time>2019-05-08T11:52:10Z</time>
      </trkpt>
      <trkpt lat="54.036581022664905" lon="10.445892009884119">
        <ele>28.98</ele>
        <time>2019-05-08T11:52:11Z</time>
      </trkpt>
      <trkpt lat="54.036555960774422" lon="10.446153022348881">
        <ele>28.02</ele>
        <time>2019-05-08T11:52:12Z</time>
      </trkpt>
      <trkpt lat="54.036509022116661" lon="10.446327030658722">
        <ele>27.530000000000001</ele>
        <time>2019-05-08T11:52:13Z</time>
      </trkpt>
      <trkpt lat="54.036450013518333" lon="10.446532974019647">
        <ele>27.050000000000001</ele>
        <time>2019-05-08T11:52:14Z</time>
      </trkpt>
      <trkpt lat="54.03637901879847" lon="10.4467339720577">
        <ele>26.57</ele>
        <time>2019-05-08T11:52:15Z</time>
      </trkpt>
      <trkpt lat="54.036306012421846" lon="10.446929018944502">
        <ele>26.09</ele>
        <time>2019-05-08T11:52:16Z</time>
      </trkpt>
      <trkpt lat="54.035680973902345" lon="10.448374981060624">
        <ele>24.649999999999999</ele>
        <time>2019-05-08T11:52:24Z</time>
      </trkpt>
      <trkpt lat="54.035575026646256" lon="10.448529962450266">
        <ele>24.649999999999999</ele>
        <time>2019-05-08T11:52:25Z</time>
      </trkpt>
      <trkpt lat="54.035357013344765" lon="10.448845038190484">
        <ele>24.170000000000002</ele>
        <time>2019-05-08T11:52:27Z</time>
      </trkpt>
      <trkpt lat="54.034625021740794" lon="10.449759000912309">
        <ele>25.129999999999999</ele>
        <time>2019-05-08T11:52:33Z</time>
      </trkpt>
      <trkpt lat="54.034513961523771" lon="10.449932003393769">
        <ele>25.609999999999999</ele>
        <time>2019-05-08T11:52:34Z</time>
      </trkpt>
      <trkpt lat="54.034433998167515" lon="10.4501480050385">
        <ele>25.609999999999999</ele>
        <time>2019-05-08T11:52:35Z</time>
      </trkpt>
      <trkpt lat="54.034353028982878" lon="10.450366018339992">
        <ele>25.609999999999999</ele>
        <time>2019-05-08T11:52:36Z</time>
      </trkpt>
      <trkpt lat="54.034279016777873" lon="10.450586965307593">
        <ele>26.09</ele>
        <time>2019-05-08T11:52:37Z</time>
      </trkpt>
      <trkpt lat="54.033309984952211" lon="10.453511998057365">
        <ele>23.690000000000001</ele>
        <time>2019-05-08T11:52:50Z</time>
      </trkpt>
      <trkpt lat="54.033237984403968" lon="10.453764041885734">
        <ele>23.210000000000001</ele>
        <time>2019-05-08T11:52:51Z</time>
      </trkpt>
      <trkpt lat="54.033164978027344" lon="10.454021031036973">
        <ele>22.25</ele>
        <time>2019-05-08T11:52:52Z</time>
      </trkpt>
      <trkpt lat="54.032904971390963" lon="10.455682994797826">
        <ele>22.25</ele>
        <time>2019-05-08T11:52:57Z</time>
      </trkpt>
      <trkpt lat="54.032887034118176" lon="10.456075016409159">
        <ele>21.77</ele>
        <time>2019-05-08T11:52:58Z</time>
      </trkpt>
      <trkpt lat="54.032846968621016" lon="10.460701994597912">
        <ele>25.129999999999999</ele>
        <time>2019-05-08T11:53:09Z</time>
      </trkpt>
      <trkpt lat="54.032789971679449" lon="10.461848974227905">
        <ele>25.609999999999999</ele>
        <time>2019-05-08T11:53:12Z</time>
      </trkpt>
      <trkpt lat="54.032721994444728" lon="10.462236972525716">
        <ele>25.609999999999999</ele>
        <time>2019-05-08T11:53:13Z</time>
      </trkpt>
      <trkpt lat="54.032647982239723" lon="10.46263201162219">
        <ele>26.09</ele>
        <time>2019-05-08T11:53:14Z</time>
      </trkpt>
      <trkpt lat="54.031664030626416" lon="10.466789016500115">
        <ele>25.609999999999999</ele>
        <time>2019-05-08T11:53:24Z</time>
      </trkpt>
      <trkpt lat="54.03109397739172" lon="10.468954984098673">
        <ele>25.609999999999999</ele>
        <time>2019-05-08T11:53:30Z</time>
      </trkpt>
      <trkpt lat="54.030971014872193" lon="10.469219014048576">
        <ele>25.609999999999999</ele>
        <time>2019-05-08T11:53:31Z</time>
      </trkpt>
      <trkpt lat="54.030809998512268" lon="10.469426969066262">
        <ele>25.609999999999999</ele>
        <time>2019-05-08T11:53:32Z</time>
      </trkpt>
      <trkpt lat="54.030639007687569" lon="10.469646994024515">
        <ele>26.09</ele>
        <time>2019-05-08T11:53:33Z</time>
      </trkpt>
      <trkpt lat="54.030457036569715" lon="10.469862995669246">
        <ele>26.57</ele>
        <time>2019-05-08T11:53:34Z</time>
      </trkpt>
      <trkpt lat="54.028556020930409" lon="10.471599977463484">
        <ele>26.09</ele>
        <time>2019-05-08T11:53:43Z</time>
      </trkpt>
      <trkpt lat="54.027886977419257" lon="10.472198026254773">
        <ele>26.09</ele>
        <time>2019-05-08T11:53:47Z</time>
      </trkpt>
      <trkpt lat="54.027562011033297" lon="10.472468007355928">
        <ele>26.57</ele>
        <time>2019-05-08T11:53:49Z</time>
      </trkpt>
      <trkpt lat="54.027389008551836" lon="10.472530033439398">
        <ele>26.57</ele>
        <time>2019-05-08T11:53:50Z</time>
      </trkpt>
      <trkpt lat="54.027206031605601" lon="10.472561968490481">
        <ele>26.57</ele>
        <time>2019-05-08T11:53:51Z</time>
      </trkpt>
      <trkpt lat="54.02701199054718" lon="10.472549982368946">
        <ele>27.050000000000001</ele>
        <time>2019-05-08T11:53:52Z</time>
      </trkpt>
      <trkpt lat="54.026824990287423" lon="10.472473036497831">
        <ele>27.050000000000001</ele>
        <time>2019-05-08T11:53:53Z</time>
      </trkpt>
      <trkpt lat="54.026636984199286" lon="10.472357030957937">
        <ele>27.530000000000001</ele>
        <time>2019-05-08T11:53:54Z</time>
      </trkpt>
      <trkpt lat="54.026441015303135" lon="10.472237002104521">
        <ele>27.530000000000001</ele>
        <time>2019-05-08T11:53:55Z</time>
      </trkpt>
      <trkpt lat="54.026241023093462" lon="10.472102975472808">
        <ele>28.02</ele>
        <time>2019-05-08T11:53:56Z</time>
      </trkpt>
      <trkpt lat="54.024676959961653" lon="10.471016010269523">
        <ele>28.98</ele>
        <time>2019-05-08T11:54:04Z</time>
      </trkpt>
      <trkpt lat="54.024321986362338" lon="10.470770001411438">
        <ele>28.98</ele>
        <time>2019-05-08T11:54:06Z</time>
      </trkpt>
      <trkpt lat="54.022947018966079" lon="10.47034596092999">
        <ele>27.530000000000001</ele>
        <time>2019-05-08T11:54:12Z</time>
      </trkpt>
      <trkpt lat="54.022451983764768" lon="10.470374040305614">
        <ele>27.050000000000001</ele>
        <time>2019-05-08T11:54:14Z</time>
      </trkpt>
      <trkpt lat="54.022214021533728" lon="10.470403963699937">
        <ele>26.57</ele>
        <time>2019-05-08T11:54:15Z</time>
      </trkpt>
      <trkpt lat="54.021990979090333" lon="10.470509994775057">
        <ele>25.609999999999999</ele>
        <time>2019-05-08T11:54:16Z</time>
      </trkpt>
      <trkpt lat="54.021777994930744" lon="10.470630023628473">
        <ele>25.129999999999999</ele>
        <time>2019-05-08T11:54:17Z</time>
      </trkpt>
      <trkpt lat="54.021602980792522" lon="10.470808977261186">
        <ele>25.129999999999999</ele>
        <time>2019-05-08T11:54:18Z</time>
      </trkpt>
      <trkpt lat="54.021443976089358" lon="10.470972005277872">
        <ele>24.649999999999999</ele>
        <time>2019-05-08T11:54:19Z</time>
      </trkpt>
      <trkpt lat="54.021285977214575" lon="10.471133021637797">
        <ele>24.170000000000002</ele>
        <time>2019-05-08T11:54:20Z</time>
      </trkpt>
      <trkpt lat="54.020582986995578" lon="10.471756970509887">
        <ele>22.73</ele>
        <time>2019-05-08T11:54:24Z</time>
      </trkpt>
      <trkpt lat="54.020397998392582" lon="10.471881022676826">
        <ele>22.25</ele>
        <time>2019-05-08T11:54:25Z</time>
      </trkpt>
      <trkpt lat="54.020173028111458" lon="10.471889991313219">
        <ele>21.77</ele>
        <time>2019-05-08T11:54:26Z</time>
      </trkpt>
      <trkpt lat="54.018784984946251" lon="10.471836011856794">
        <ele>22.73</ele>
        <time>2019-05-08T11:54:32Z</time>
      </trkpt>
      <trkpt lat="54.017968000844121" lon="10.471852021291852">
        <ele>22.73</ele>
        <time>2019-05-08T11:54:36Z</time>
      </trkpt>
      <trkpt lat="54.017788041383028" lon="10.471917986869812">
        <ele>22.73</ele>
        <time>2019-05-08T11:54:37Z</time>
      </trkpt>
      <trkpt lat="54.017617972567677" lon="10.472024017944932">
        <ele>22.73</ele>
        <time>2019-05-08T11:54:38Z</time>
      </trkpt>
      <trkpt lat="54.01744999922812" lon="10.472160978242755">
        <ele>22.25</ele>
        <time>2019-05-08T11:54:39Z</time>
      </trkpt>
      <trkpt lat="54.017292000353336" lon="10.472348984330893">
        <ele>22.25</ele>
        <time>2019-05-08T11:54:40Z</time>
      </trkpt>
      <trkpt lat="54.017144981771708" lon="10.472575966268778">
        <ele>21.77</ele>
        <time>2019-05-08T11:54:41Z</time>
      </trkpt>
      <trkpt lat="54.016996035352349" lon="10.472804959863424">
        <ele>21.77</ele>
        <time>2019-05-08T11:54:42Z</time>
      </trkpt>
      <trkpt lat="54.01588199660182" lon="10.474173976108432">
        <ele>21.289999999999999</ele>
        <time>2019-05-08T11:54:49Z</time>
      </trkpt>
      <trkpt lat="54.015453010797501" lon="10.47466398216784">
        <ele>20.32</ele>
        <time>2019-05-08T11:54:52Z</time>
      </trkpt>
      <trkpt lat="54.01532300747931" lon="10.474859029054642">
        <ele>20.32</ele>
        <time>2019-05-08T11:54:53Z</time>
      </trkpt>
      <trkpt lat="54.015209013596177" lon="10.475110989063978">
        <ele>19.84</ele>
        <time>2019-05-08T11:54:54Z</time>
      </trkpt>
      <trkpt lat="54.015112034976482" lon="10.475393962115049">
        <ele>19.84</ele>
        <time>2019-05-08T11:54:55Z</time>
      </trkpt>
      <trkpt lat="54.015011033043265" lon="10.475686993449926">
        <ele>19.84</ele>
        <time>2019-05-08T11:54:56Z</time>
      </trkpt>
      <trkpt lat="54.01431298814714" lon="10.47773402184248">
        <ele>21.289999999999999</ele>
        <time>2019-05-08T11:55:03Z</time>
      </trkpt>
      <trkpt lat="54.013951979577541" lon="10.478759966790676">
        <ele>21.289999999999999</ele>
        <time>2019-05-08T11:55:08Z</time>
      </trkpt>
      <trkpt lat="54.01386396959424" lon="10.478926012292504">
        <ele>20.809999999999999</ele>
        <time>2019-05-08T11:55:09Z</time>
      </trkpt>
      <trkpt lat="54.013770008459687" lon="10.479083005338907">
        <ele>20.809999999999999</ele>
        <time>2019-05-08T11:55:10Z</time>
      </trkpt>
      <trkpt lat="54.01366800069809" lon="10.479223988950253">
        <ele>20.32</ele>
        <time>2019-05-08T11:55:11Z</time>
      </trkpt>
      <trkpt lat="54.013572027906775" lon="10.479357009753585">
        <ele>20.32</ele>
        <time>2019-05-08T11:55:12Z</time>
      </trkpt>
      <trkpt lat="54.01347697712481" lon="10.479488018900156">
        <ele>20.32</ele>
        <time>2019-05-08T11:55:13Z</time>
      </trkpt>
      <trkpt lat="54.013378992676735" lon="10.479624979197979">
        <ele>20.32</ele>
        <time>2019-05-08T11:55:14Z</time>
      </trkpt>
      <trkpt lat="54.012279035523534" lon="10.481050992384553">
        <ele>20.809999999999999</ele>
        <time>2019-05-08T11:55:24Z</time>
      </trkpt>
      <trkpt lat="54.011116968467832" lon="10.482292016968131">
        <ele>21.77</ele>
        <time>2019-05-08T11:55:31Z</time>
      </trkpt>
      <trkpt lat="54.010912030935287" lon="10.482449010014534">
        <ele>21.77</ele>
        <time>2019-05-08T11:55:32Z</time>
      </trkpt>
      <trkpt lat="54.010691000148654" lon="10.482559986412525">
        <ele>21.77</ele>
        <time>2019-05-08T11:55:33Z</time>
      </trkpt>
      <trkpt lat="54.009076980873942" lon="10.483594983816147">
        <ele>23.210000000000001</ele>
        <time>2019-05-08T11:55:40Z</time>
      </trkpt>
      <trkpt lat="54.008824015036225" lon="10.483688022941351">
        <ele>23.690000000000001</ele>
        <time>2019-05-08T11:55:41Z</time>
      </trkpt>
      <trkpt lat="54.007247965782881" lon="10.483976025134325">
        <ele>25.129999999999999</ele>
        <time>2019-05-08T11:55:47Z</time>
      </trkpt>
      <trkpt lat="54.005146035924554" lon="10.484157996252179">
        <ele>28.98</ele>
        <time>2019-05-08T11:55:55Z</time>
      </trkpt>
      <trkpt lat="54.004226960241795" lon="10.48444096930325">
        <ele>30.420000000000002</ele>
        <time>2019-05-08T11:55:59Z</time>
      </trkpt>
      <trkpt lat="54.004055969417095" lon="10.484476005658507">
        <ele>30.899999999999999</ele>
        <time>2019-05-08T11:56:00Z</time>
      </trkpt>
      <trkpt lat="54.003622960299253" lon="10.484387995675206">
        <ele>31.379999999999999</ele>
        <time>2019-05-08T11:56:03Z</time>
      </trkpt>
      <trkpt lat="54.003488011658192" lon="10.484346002340317">
        <ele>31.859999999999999</ele>
        <time>2019-05-08T11:56:04Z</time>
      </trkpt>
      <trkpt lat="54.003363959491253" lon="10.484258998185396">
        <ele>31.859999999999999</ele>
        <time>2019-05-08T11:56:05Z</time>
      </trkpt>
      <trkpt lat="54.003237979486585" lon="10.484162019565701">
        <ele>31.859999999999999</ele>
        <time>2019-05-08T11:56:06Z</time>
      </trkpt>
      <trkpt lat="54.003116022795439" lon="10.484045008197427">
        <ele>31.859999999999999</ele>
        <time>2019-05-08T11:56:07Z</time>
      </trkpt>
      <trkpt lat="54.002992976456881" lon="10.483927996829152">
        <ele>31.859999999999999</ele>
        <time>2019-05-08T11:56:08Z</time>
      </trkpt>
      <trkpt lat="54.002212034538388" lon="10.483254007995129">
        <ele>32.82</ele>
        <time>2019-05-08T11:56:15Z</time>
      </trkpt>
      <trkpt lat="54.002117989584804" lon="10.483175972476602">
        <ele>32.340000000000003</ele>
        <time>2019-05-08T11:56:16Z</time>
      </trkpt>
      <trkpt lat="54.002017993479967" lon="10.483100032433867">
        <ele>31.859999999999999</ele>
        <time>2019-05-08T11:56:17Z</time>
      </trkpt>
      <trkpt lat="54.001901987940073" lon="10.483072958886623">
        <ele>31.859999999999999</ele>
        <time>2019-05-08T11:56:18Z</time>
      </trkpt>
      <trkpt lat="54.001752035692334" lon="10.483039012178779">
        <ele>31.379999999999999</ele>
        <time>2019-05-08T11:56:19Z</time>
      </trkpt>
      <trkpt lat="54.001650027930737" lon="10.483057033270597">
        <ele>30.899999999999999</ele>
        <time>2019-05-08T11:56:20Z</time>
      </trkpt>
      <trkpt lat="54.001532010734081" lon="10.483079999685287">
        <ele>30.420000000000002</ele>
        <time>2019-05-08T11:56:21Z</time>
      </trkpt>
      <trkpt lat="54.001407958567142" lon="10.483102966099977">
        <ele>29.940000000000001</ele>
        <time>2019-05-08T11:56:22Z</time>
      </trkpt>
      <trkpt lat="54.001303017139435" lon="10.483060972765088">
        <ele>29.940000000000001</ele>
        <time>2019-05-08T11:56:23Z</time>
      </trkpt>
      <trkpt lat="54.001195980235934" lon="10.483017973601818">
        <ele>29.940000000000001</ele>
        <time>2019-05-08T11:56:24Z</time>
      </trkpt>
      <trkpt lat="54.001105036586523" lon="10.482917977496982">
        <ele>29.460000000000001</ele>
        <time>2019-05-08T11:56:25Z</time>
      </trkpt>
      <trkpt lat="54.001024989411235" lon="10.48282996751368">
        <ele>29.460000000000001</ele>
        <time>2019-05-08T11:56:26Z</time>
      </trkpt>
      <trkpt lat="54.000943014398217" lon="10.482738018035889">
        <ele>28.98</ele>
        <time>2019-05-08T11:56:27Z</time>
      </trkpt>
      <trkpt lat="54.000850981101394" lon="10.482637016102672">
        <ele>28.98</ele>
        <time>2019-05-08T11:56:28Z</time>
      </trkpt>
      <trkpt lat="54.00075601413846" lon="10.482561998069286">
        <ele>28.98</ele>
        <time>2019-05-08T11:56:29Z</time>
      </trkpt>
      <trkpt lat="54.000645959749818" lon="10.482507012784481">
        <ele>28.98</ele>
        <time>2019-05-08T11:56:30Z</time>
      </trkpt>
      <trkpt lat="54.000532971695065" lon="10.48248496837914">
        <ele>28.98</ele>
        <time>2019-05-08T11:56:31Z</time>
      </trkpt>
      <trkpt lat="54.000413026660681" lon="10.482494020834565">
        <ele>29.460000000000001</ele>
        <time>2019-05-08T11:56:32Z</time>
      </trkpt>
      <trkpt lat="54.000296015292406" lon="10.482507012784481">
        <ele>29.940000000000001</ele>
        <time>2019-05-08T11:56:33Z</time>
      </trkpt>
      <trkpt lat="54.000183027237654" lon="10.482537019997835">
        <ele>30.420000000000002</ele>
        <time>2019-05-08T11:56:34Z</time>
      </trkpt>
      <trkpt lat="54.00006802752614" lon="10.482567027211189">
        <ele>31.379999999999999</ele>
        <time>2019-05-08T11:56:35Z</time>
      </trkpt>
      <trkpt lat="53.999598976224661" lon="10.482575995847583">
        <ele>32.82</ele>
        <time>2019-05-08T11:56:39Z</time>
      </trkpt>
      <trkpt lat="53.999492023140192" lon="10.482560992240906">
        <ele>33.299999999999997</ele>
        <time>2019-05-08T11:56:40Z</time>
      </trkpt>
      <trkpt lat="53.999396972358227" lon="10.482481028884649">
        <ele>33.299999999999997</ele>
        <time>2019-05-08T11:56:41Z</time>
      </trkpt>
      <trkpt lat="53.999306028708816" lon="10.482405005022883">
        <ele>33.780000000000001</ele>
        <time>2019-05-08T11:56:42Z</time>
      </trkpt>
      <trkpt lat="53.999215001240373" lon="10.482327975332737">
        <ele>33.780000000000001</ele>
        <time>2019-05-08T11:56:43Z</time>
      </trkpt>
      <trkpt lat="53.998589040711522" lon="10.481853978708386">
        <ele>35.710000000000001</ele>
        <time>2019-05-08T11:56:49Z</time>
      </trkpt>
      <trkpt lat="53.998470017686486" lon="10.481836041435599">
        <ele>35.710000000000001</ele>
        <time>2019-05-08T11:56:50Z</time>
      </trkpt>
      <trkpt lat="53.998354012146592" lon="10.481819026172161">
        <ele>35.710000000000001</ele>
        <time>2019-05-08T11:56:51Z</time>
      </trkpt>
      <trkpt lat="53.998240018263459" lon="10.481802010908723">
        <ele>35.710000000000001</ele>
        <time>2019-05-08T11:56:52Z</time>
      </trkpt>
      <trkpt lat="53.9981359988451" lon="10.481816008687019">
        <ele>35.710000000000001</ele>
        <time>2019-05-08T11:56:53Z</time>
      </trkpt>
      <trkpt lat="53.998037008568645" lon="10.481855990365148">
        <ele>35.710000000000001</ele>
        <time>2019-05-08T11:56:54Z</time>
      </trkpt>
      <trkpt lat="53.997610034421086" lon="10.482029998674989">
        <ele>34.259999999999998</ele>
        <time>2019-05-08T11:57:01Z</time>
      </trkpt>
      <trkpt lat="53.997610034421086" lon="10.482029998674989">
        <ele>33.780000000000001</ele>
        <time>2019-05-08T11:57:13Z</time>
      </trkpt>
      <trkpt lat="53.997545996680856" lon="10.482070986181498">
        <ele>33.299999999999997</ele>
        <time>2019-05-08T11:57:16Z</time>
      </trkpt>
      <trkpt lat="53.997498974204063" lon="10.482100993394852">
        <ele>33.299999999999997</ele>
        <time>2019-05-08T11:57:17Z</time>
      </trkpt>
      <trkpt lat="53.997444994747639" lon="10.482136029750109">
        <ele>33.299999999999997</ele>
        <time>2019-05-08T11:57:18Z</time>
      </trkpt>
      <trkpt lat="53.997393026947975" lon="10.482168970629573">
        <ele>33.299999999999997</ele>
        <time>2019-05-08T11:57:19Z</time>
      </trkpt>
      <trkpt lat="53.99727500975132" lon="10.482048019766808">
        <ele>32.82</ele>
        <time>2019-05-08T11:57:20Z</time>
      </trkpt>
      <trkpt lat="53.997250031679869" lon="10.481922039762139">
        <ele>32.82</ele>
        <time>2019-05-08T11:57:21Z</time>
      </trkpt>
      <trkpt lat="53.997218012809753" lon="10.481764962896705">
        <ele>32.82</ele>
        <time>2019-05-08T11:57:22Z</time>
      </trkpt>
      <trkpt lat="53.996897991746664" lon="10.480157984420657">
        <ele>31.859999999999999</ele>
        <time>2019-05-08T11:57:29Z</time>
      </trkpt>
      <trkpt lat="53.996407985687256" lon="10.477936025708914">
        <ele>32.340000000000003</ele>
        <time>2019-05-08T11:57:36Z</time>
      </trkpt>
      <trkpt lat="53.995769033208489" lon="10.474923988804221">
        <ele>31.859999999999999</ele>
        <time>2019-05-08T11:57:45Z</time>
      </trkpt>
      <trkpt lat="53.995649004355073" lon="10.474367011338472">
        <ele>31.859999999999999</ele>
        <time>2019-05-08T11:57:48Z</time>
      </trkpt>
      <trkpt lat="53.995627965778112" lon="10.474270032718778">
        <ele>31.379999999999999</ele>
        <time>2019-05-08T11:57:49Z</time>
      </trkpt>
      <trkpt lat="53.995483964681625" lon="10.474166013300419">
        <ele>31.379999999999999</ele>
        <time>2019-05-08T11:57:50Z</time>
      </trkpt>
      <trkpt lat="53.995407018810511" lon="10.474204989150167">
        <ele>30.899999999999999</ele>
        <time>2019-05-08T11:57:51Z</time>
      </trkpt>
      <trkpt lat="53.995321020483971" lon="10.474247988313437">
        <ele>30.899999999999999</ele>
        <time>2019-05-08T11:57:52Z</time>
      </trkpt>
      <trkpt lat="53.995222030207515" lon="10.47429702244699">
        <ele>30.420000000000002</ele>
        <time>2019-05-08T11:57:53Z</time>
      </trkpt>
      <trkpt lat="53.994463970884681" lon="10.474429037421942">
        <ele>30.420000000000002</ele>
        <time>2019-05-08T11:57:58Z</time>
      </trkpt>
      <trkpt lat="53.992809969931841" lon="10.474434988573194">
        <ele>33.299999999999997</ele>
        <time>2019-05-08T11:58:06Z</time>
      </trkpt>
      <trkpt lat="53.99259396828711" lon="10.474343039095402">
        <ele>33.780000000000001</ele>
        <time>2019-05-08T11:58:07Z</time>
      </trkpt>
      <trkpt lat="53.992379978299141" lon="10.474209012463689">
        <ele>34.259999999999998</ele>
        <time>2019-05-08T11:58:08Z</time>
      </trkpt>
      <trkpt lat="53.992166994139552" lon="10.474042966961861">
        <ele>34.259999999999998</ele>
        <time>2019-05-08T11:58:09Z</time>
      </trkpt>
      <trkpt lat="53.991954009979963" lon="10.473878011107445">
        <ele>34.740000000000002</ele>
        <time>2019-05-08T11:58:10Z</time>
      </trkpt>
      <trkpt lat="53.991529969498515" lon="10.473646000027657">
        <ele>35.710000000000001</ele>
        <time>2019-05-08T11:58:12Z</time>
      </trkpt>
      <trkpt lat="53.991317991167307" lon="10.473583973944187">
        <ele>35.710000000000001</ele>
        <time>2019-05-08T11:58:13Z</time>
      </trkpt>
      <trkpt lat="53.991106012836099" lon="10.473571987822652">
        <ele>36.189999999999998</ele>
        <time>2019-05-08T11:58:14Z</time>
      </trkpt>
      <trkpt lat="53.990890011191368" lon="10.47360903583467">
        <ele>36.189999999999998</ele>
        <time>2019-05-08T11:58:15Z</time>
      </trkpt>
      <trkpt lat="53.990667974576354" lon="10.473650023341179">
        <ele>36.670000000000002</ele>
        <time>2019-05-08T11:58:16Z</time>
      </trkpt>
      <trkpt lat="53.98880903609097" lon="10.474191997200251">
        <ele>37.149999999999999</ele>
        <time>2019-05-08T11:58:24Z</time>
      </trkpt>
      <trkpt lat="53.98859596811235" lon="10.474214963614941">
        <ele>37.149999999999999</ele>
        <time>2019-05-08T11:58:25Z</time>
      </trkpt>
      <trkpt lat="53.988386001437902" lon="10.474169030785561">
        <ele>37.630000000000003</ele>
        <time>2019-05-08T11:58:26Z</time>
      </trkpt>
      <trkpt lat="53.98728596046567" lon="10.473995022475719">
        <ele>39.549999999999997</ele>
        <time>2019-05-08T11:58:31Z</time>
      </trkpt>
      <trkpt lat="53.98707096464932" lon="10.474047996103764">
        <ele>40.030000000000001</ele>
        <time>2019-05-08T11:58:32Z</time>
      </trkpt>
      <trkpt lat="53.98685697466135" lon="10.474140029400587">
        <ele>40.509999999999998</ele>
        <time>2019-05-08T11:58:33Z</time>
      </trkpt>
      <trkpt lat="53.985345968976617" lon="10.474569015204906">
        <ele>44.840000000000003</ele>
        <time>2019-05-08T11:58:40Z</time>
      </trkpt>
      <trkpt lat="53.984510041773319" lon="10.474578989669681">
        <ele>46.759999999999998</ele>
        <time>2019-05-08T11:58:45Z</time>
      </trkpt>
      <trkpt lat="53.984377020969987" lon="10.47451201826334">
        <ele>47.240000000000002</ele>
        <time>2019-05-08T11:58:46Z</time>
      </trkpt>
      <trkpt lat="53.983497004956007" lon="10.474092001095414">
        <ele>48.68</ele>
        <time>2019-05-08T11:58:54Z</time>
      </trkpt>
      <trkpt lat="53.982843970879912" lon="10.473833000287414">
        <ele>48.200000000000003</ele>
        <time>2019-05-08T11:59:01Z</time>
      </trkpt>
      <trkpt lat="53.982075015082955" lon="10.473848003894091">
        <ele>44.359999999999999</ele>
        <time>2019-05-08T11:59:08Z</time>
      </trkpt>
      <trkpt lat="53.981974013149738" lon="10.473850015550852">
        <ele>43.880000000000003</ele>
        <time>2019-05-08T11:59:09Z</time>
      </trkpt>
      <trkpt lat="53.981663966551423" lon="10.473834006115794">
        <ele>43.399999999999999</ele>
        <time>2019-05-08T11:59:12Z</time>
      </trkpt>
      <trkpt lat="53.981550978496671" lon="10.473808022215962">
        <ele>43.399999999999999</ele>
        <time>2019-05-08T11:59:13Z</time>
      </trkpt>
      <trkpt lat="53.981448970735073" lon="10.473765023052692">
        <ele>42.920000000000002</ele>
        <time>2019-05-08T11:59:14Z</time>
      </trkpt>
      <trkpt lat="53.981349980458617" lon="10.473666032776237">
        <ele>42.920000000000002</ele>
        <time>2019-05-08T11:59:15Z</time>
      </trkpt>
      <trkpt lat="53.9812489785254" lon="10.473565030843019">
        <ele>42.920000000000002</ele>
        <time>2019-05-08T11:59:16Z</time>
      </trkpt>
      <trkpt lat="53.981130961328745" lon="10.473447013646364">
        <ele>42.439999999999998</ele>
        <time>2019-05-08T11:59:17Z</time>
      </trkpt>
      <trkpt lat="53.981062984094024" lon="10.47331097535789">
        <ele>42.439999999999998</ele>
        <time>2019-05-08T11:59:18Z</time>
      </trkpt>
      <trkpt lat="53.980984026566148" lon="10.473153982311487">
        <ele>42.439999999999998</ele>
        <time>2019-05-08T11:59:19Z</time>
      </trkpt>
      <trkpt lat="53.980905991047621" lon="10.472996989265084">
        <ele>42.439999999999998</ele>
        <time>2019-05-08T11:59:20Z</time>
      </trkpt>
      <trkpt lat="53.980223033577204" lon="10.471363021060824">
        <ele>42.439999999999998</ele>
        <time>2019-05-08T11:59:30Z</time>
      </trkpt>
      <trkpt lat="53.980032010003924" lon="10.470900004729629">
        <ele>43.399999999999999</ele>
        <time>2019-05-08T11:59:33Z</time>
      </trkpt>
      <trkpt lat="53.979970989748836" lon="10.4707339592278">
        <ele>43.399999999999999</ele>
        <time>2019-05-08T11:59:34Z</time>
      </trkpt>
      <trkpt lat="53.979396997019649" lon="10.468705035746098">
        <ele>44.359999999999999</ele>
        <time>2019-05-08T11:59:44Z</time>
      </trkpt>
      <trkpt lat="53.979333965107799" lon="10.468513006344438">
        <ele>44.359999999999999</ele>
        <time>2019-05-08T11:59:45Z</time>
      </trkpt>
      <trkpt lat="53.979232963174582" lon="10.468380991369486">
        <ele>43.880000000000003</ele>
        <time>2019-05-08T11:59:46Z</time>
      </trkpt>
      <trkpt lat="53.979126010090113" lon="10.468243025243282">
        <ele>43.880000000000003</ele>
        <time>2019-05-08T11:59:47Z</time>
      </trkpt>
      <trkpt lat="53.979016961529851" lon="10.468101035803556">
        <ele>43.399999999999999</ele>
        <time>2019-05-08T11:59:48Z</time>
      </trkpt>
      <trkpt lat="53.978654025122523" lon="10.467629972845316">
        <ele>42.439999999999998</ele>
        <time>2019-05-08T11:59:51Z</time>
      </trkpt>
      <trkpt lat="53.977849027141929" lon="10.466664964333177">
        <ele>37.149999999999999</ele>
        <time>2019-05-08T11:59:57Z</time>
      </trkpt>
      <trkpt lat="53.97772497497499" lon="10.46660796739161">
        <ele>36.189999999999998</ele>
        <time>2019-05-08T11:59:58Z</time>
      </trkpt>
      <trkpt lat="53.977590026333928" lon="10.466559017077088">
        <ele>35.229999999999997</ele>
        <time>2019-05-08T11:59:59Z</time>
      </trkpt>
      <trkpt lat="53.977475026622415" lon="10.466606039553881">
        <ele>34.740000000000002</ele>
        <time>2019-05-08T12:00:00Z</time>
      </trkpt>
      <trkpt lat="53.977334965020418" lon="10.466663036495447">
        <ele>33.780000000000001</ele>
        <time>2019-05-08T12:00:01Z</time>
      </trkpt>
      <trkpt lat="53.977192975580692" lon="10.466721039265394">
        <ele>33.299999999999997</ele>
        <time>2019-05-08T12:00:02Z</time>
      </trkpt>
      <trkpt lat="53.977041011676192" lon="10.466759009286761">
        <ele>32.82</ele>
        <time>2019-05-08T12:00:03Z</time>
      </trkpt>
      <trkpt lat="53.976882006973028" lon="10.466774012893438">
        <ele>32.340000000000003</ele>
        <time>2019-05-08T12:00:04Z</time>
      </trkpt>
      <trkpt lat="53.97671302780509" lon="10.466703018173575">
        <ele>31.859999999999999</ele>
        <time>2019-05-08T12:00:05Z</time>
      </trkpt>
      <trkpt lat="53.976560980081558" lon="10.466615008190274">
        <ele>31.379999999999999</ele>
        <time>2019-05-08T12:00:06Z</time>
      </trkpt>
      <trkpt lat="53.976399041712284" lon="10.466486010700464">
        <ele>30.899999999999999</ele>
        <time>2019-05-08T12:00:07Z</time>
      </trkpt>
      <trkpt lat="53.976218998432159" lon="10.466342009603977">
        <ele>30.420000000000002</ele>
        <time>2019-05-08T12:00:08Z</time>
      </trkpt>
      <trkpt lat="53.975444007664919" lon="10.465722000226378">
        <ele>27.050000000000001</ele>
        <time>2019-05-08T12:00:12Z</time>
      </trkpt>
      <trkpt lat="53.975224988535047" lon="10.465688975527883">
        <ele>26.57</ele>
        <time>2019-05-08T12:00:13Z</time>
      </trkpt>
      <trkpt lat="53.975003035739064" lon="10.465658968314528">
        <ele>26.57</ele>
        <time>2019-05-08T12:00:14Z</time>
      </trkpt>
      <trkpt lat="53.973228000104427" lon="10.465587973594666">
        <ele>24.649999999999999</ele>
        <time>2019-05-08T12:00:21Z</time>
      </trkpt>
      <trkpt lat="53.97297503426671" lon="10.465567018836737">
        <ele>24.649999999999999</ele>
        <time>2019-05-08T12:00:22Z</time>
      </trkpt>
      <trkpt lat="53.969978000968695" lon="10.465311035513878">
        <ele>26.57</ele>
        <time>2019-05-08T12:00:33Z</time>
      </trkpt>
      <trkpt lat="53.967499975115061" lon="10.46503895893693">
        <ele>28.98</ele>
        <time>2019-05-08T12:00:42Z</time>
      </trkpt>
      <trkpt lat="53.967265030369163" lon="10.464882971718907">
        <ele>28.98</ele>
        <time>2019-05-08T12:00:43Z</time>
      </trkpt>
      <trkpt lat="53.967023966833949" lon="10.464704018086195">
        <ele>28.98</ele>
        <time>2019-05-08T12:00:44Z</time>
      </trkpt>
      <trkpt lat="53.964472012594342" lon="10.462671993300319">
        <ele>28.5</ele>
        <time>2019-05-08T12:00:54Z</time>
      </trkpt>
      <trkpt lat="53.963197963312268" lon="10.461581004783511">
        <ele>27.050000000000001</ele>
        <time>2019-05-08T12:01:00Z</time>
      </trkpt>
      <trkpt lat="53.963001994416118" lon="10.461516967043281">
        <ele>27.050000000000001</ele>
        <time>2019-05-08T12:01:01Z</time>
      </trkpt>
      <trkpt lat="53.962790016084909" lon="10.461516967043281">
        <ele>26.57</ele>
        <time>2019-05-08T12:01:02Z</time>
      </trkpt>
      <trkpt lat="53.962580971419811" lon="10.461539011448622">
        <ele>26.57</ele>
        <time>2019-05-08T12:01:03Z</time>
      </trkpt>
      <trkpt lat="53.96238399669528" lon="10.461584022268653">
        <ele>26.09</ele>
        <time>2019-05-08T12:01:04Z</time>
      </trkpt>
      <trkpt lat="53.962188027799129" lon="10.461668008938432">
        <ele>26.09</ele>
        <time>2019-05-08T12:01:05Z</time>
      </trkpt>
      <trkpt lat="53.961990969255567" lon="10.461753001436591">
        <ele>26.09</ele>
        <time>2019-05-08T12:01:06Z</time>
      </trkpt>
      <trkpt lat="53.961806986480951" lon="10.461912006139755">
        <ele>26.09</ele>
        <time>2019-05-08T12:01:07Z</time>
      </trkpt>
      <trkpt lat="53.961424017325044" lon="10.462271003052592">
        <ele>26.09</ele>
        <time>2019-05-08T12:01:09Z</time>
      </trkpt>
      <trkpt lat="53.960157008841634" lon="10.464001027867198">
        <ele>27.050000000000001</ele>
        <time>2019-05-08T12:01:16Z</time>
      </trkpt>
      <trkpt lat="53.960030023008585" lon="10.464287018403411">
        <ele>27.050000000000001</ele>
        <time>2019-05-08T12:01:17Z</time>
      </trkpt>
      <trkpt lat="53.959180014207959" lon="10.465823002159595">
        <ele>27.050000000000001</ele>
        <time>2019-05-08T12:01:24Z</time>
      </trkpt>
      <trkpt lat="53.959055040031672" lon="10.465943031013012">
        <ele>27.050000000000001</ele>
        <time>2019-05-08T12:01:25Z</time>
      </trkpt>
      <trkpt lat="53.95849697291851" lon="10.46647796407342">
        <ele>28.02</ele>
        <time>2019-05-08T12:01:30Z</time>
      </trkpt>
      <trkpt lat="53.958385996520519" lon="10.46658399514854">
        <ele>28.5</ele>
        <time>2019-05-08T12:01:31Z</time>
      </trkpt>
      <trkpt lat="53.958299998193979" lon="10.466665970161557">
        <ele>28.98</ele>
        <time>2019-05-08T12:01:32Z</time>
      </trkpt>
      <trkpt lat="53.95819203928113" lon="10.466794967651367">
        <ele>29.460000000000001</ele>
        <time>2019-05-08T12:01:33Z</time>
      </trkpt>
      <trkpt lat="53.958096988499165" lon="10.466909967362881">
        <ele>29.940000000000001</ele>
        <time>2019-05-08T12:01:34Z</time>
      </trkpt>
      <trkpt lat="53.957448983564973" lon="10.46785200946033">
        <ele>32.340000000000003</ele>
        <time>2019-05-08T12:01:42Z</time>
      </trkpt>
      <trkpt lat="53.957388969138265" lon="10.468009002506733">
        <ele>32.82</ele>
        <time>2019-05-08T12:01:43Z</time>
      </trkpt>
      <trkpt lat="53.957330966368318" lon="10.468162978067994">
        <ele>33.299999999999997</ele>
        <time>2019-05-08T12:01:44Z</time>
      </trkpt>
      <trkpt lat="53.957259971648455" lon="10.468488028272986">
        <ele>33.780000000000001</ele>
        <time>2019-05-08T12:01:46Z</time>
      </trkpt>
      <trkpt lat="53.957227030768991" lon="10.468662036582828">
        <ele>33.780000000000001</ele>
        <time>2019-05-08T12:01:47Z</time>
      </trkpt>
      <trkpt lat="53.957231976091862" lon="10.468823974952102">
        <ele>34.259999999999998</ele>
        <time>2019-05-08T12:01:48Z</time>
      </trkpt>
      <trkpt lat="53.957251003012061" lon="10.469367038458586">
        <ele>34.740000000000002</ele>
        <time>2019-05-08T12:01:51Z</time>
      </trkpt>
      <trkpt lat="53.957280004397035" lon="10.46954900957644">
        <ele>35.229999999999997</ele>
        <time>2019-05-08T12:01:52Z</time>
      </trkpt>
      <trkpt lat="53.957525007426739" lon="10.471149031072855">
        <ele>39.07</ele>
        <time>2019-05-08T12:02:00Z</time>
      </trkpt>
      <trkpt lat="53.957554008811712" lon="10.471369978040457">
        <ele>40.030000000000001</ele>
        <time>2019-05-08T12:02:01Z</time>
      </trkpt>
      <trkpt lat="53.957537999376655" lon="10.47159100882709">
        <ele>40.990000000000002</ele>
        <time>2019-05-08T12:02:02Z</time>
      </trkpt>
      <trkpt lat="53.957479996606708" lon="10.471764011308551">
        <ele>41.469999999999999</ele>
        <time>2019-05-08T12:02:03Z</time>
      </trkpt>
      <trkpt lat="53.957418976351619" lon="10.471946988254786">
        <ele>41.469999999999999</ele>
        <time>2019-05-08T12:02:04Z</time>
      </trkpt>
      <trkpt lat="53.957345969974995" lon="10.472131976857781">
        <ele>41.469999999999999</ele>
        <time>2019-05-08T12:02:05Z</time>
      </trkpt>
      <trkpt lat="53.957249997183681" lon="10.472309002652764">
        <ele>41.469999999999999</ele>
        <time>2019-05-08T12:02:06Z</time>
      </trkpt>
      <trkpt lat="53.957052016630769" lon="10.472697000950575">
        <ele>40.990000000000002</ele>
        <time>2019-05-08T12:02:08Z</time>
      </trkpt>
      <trkpt lat="53.956449022516608" lon="10.474335998296738">
        <ele>42.439999999999998</ele>
        <time>2019-05-08T12:02:15Z</time>
      </trkpt>
      <trkpt lat="53.956419015303254" lon="10.474616959691048">
        <ele>42.439999999999998</ele>
        <time>2019-05-08T12:02:16Z</time>
      </trkpt>
      <trkpt lat="53.956404011696577" lon="10.474914014339447">
        <ele>42.439999999999998</ele>
        <time>2019-05-08T12:02:17Z</time>
      </trkpt>
      <trkpt lat="53.956352965906262" lon="10.475898971781135">
        <ele>44.359999999999999</ele>
        <time>2019-05-08T12:02:21Z</time>
      </trkpt>
      <trkpt lat="53.956341985613108" lon="10.47606099396944">
        <ele>44.840000000000003</ele>
        <time>2019-05-08T12:02:22Z</time>
      </trkpt>
      <trkpt lat="53.956335028633475" lon="10.476183034479618">
        <ele>45.32</ele>
        <time>2019-05-08T12:02:23Z</time>
      </trkpt>
      <trkpt lat="53.956242995336652" lon="10.476336004212499">
        <ele>45.32</ele>
        <time>2019-05-08T12:02:24Z</time>
      </trkpt>
      <trkpt lat="53.956155991181731" lon="10.476350001990795">
        <ele>45.799999999999997</ele>
        <time>2019-05-08T12:02:25Z</time>
      </trkpt>
      <trkpt lat="53.956048032268882" lon="10.476368023082614">
        <ele>46.280000000000001</ele>
        <time>2019-05-08T12:02:26Z</time>
      </trkpt>
      <trkpt lat="53.955922974273562" lon="10.476388977840543">
        <ele>46.759999999999998</ele>
        <time>2019-05-08T12:02:27Z</time>
      </trkpt>
      <trkpt lat="53.954887976869941" lon="10.476563991978765">
        <ele>47.240000000000002</ele>
        <time>2019-05-08T12:02:33Z</time>
      </trkpt>
      <trkpt lat="53.953833030536771" lon="10.4768540058285">
        <ele>45.799999999999997</ele>
        <time>2019-05-08T12:02:38Z</time>
      </trkpt>
      <trkpt lat="53.953667990863323" lon="10.477005969733">
        <ele>45.32</ele>
        <time>2019-05-08T12:02:39Z</time>
      </trkpt>
      <trkpt lat="53.953508986160159" lon="10.477168997749686">
        <ele>44.840000000000003</ele>
        <time>2019-05-08T12:02:40Z</time>
      </trkpt>
      <trkpt lat="53.953375965356827" lon="10.477417018264532">
        <ele>44.840000000000003</ele>
        <time>2019-05-08T12:02:41Z</time>
      </trkpt>
      <trkpt lat="53.953230958431959" lon="10.477684987708926">
        <ele>44.359999999999999</ele>
        <time>2019-05-08T12:02:42Z</time>
      </trkpt>
      <trkpt lat="53.952020024880767" lon="10.479670995846391">
        <ele>42.920000000000002</ele>
        <time>2019-05-08T12:02:49Z</time>
      </trkpt>
      <trkpt lat="53.950894000008702" lon="10.480599040165544">
        <ele>41.469999999999999</ele>
        <time>2019-05-08T12:02:54Z</time>
      </trkpt>
      <trkpt lat="53.949390035122633" lon="10.481463968753815">
        <ele>39.549999999999997</ele>
        <time>2019-05-08T12:03:00Z</time>
      </trkpt>
      <trkpt lat="53.946697013452649" lon="10.482918983325362">
        <ele>35.710000000000001</ele>
        <time>2019-05-08T12:03:11Z</time>
      </trkpt>
      <trkpt lat="53.945293966680765" lon="10.484035033732653">
        <ele>33.780000000000001</ele>
        <time>2019-05-08T12:03:18Z</time>
      </trkpt>
      <trkpt lat="53.944352008402348" lon="10.485657015815377">
        <ele>32.340000000000003</ele>
        <time>2019-05-08T12:03:24Z</time>
      </trkpt>
      <trkpt lat="53.943495964631438" lon="10.488497978076339">
        <ele>30.899999999999999</ele>
        <time>2019-05-08T12:03:32Z</time>
      </trkpt>
      <trkpt lat="53.943194970488548" lon="10.489372964948416">
        <ele>30.899999999999999</ele>
        <time>2019-05-08T12:03:35Z</time>
      </trkpt>
      <trkpt lat="53.943092040717602" lon="10.489613022655249">
        <ele>30.899999999999999</ele>
        <time>2019-05-08T12:03:36Z</time>
      </trkpt>
      <trkpt lat="53.942975029349327" lon="10.48978703096509">
        <ele>30.899999999999999</ele>
        <time>2019-05-08T12:03:37Z</time>
      </trkpt>
      <trkpt lat="53.942892970517278" lon="10.489904964342713">
        <ele>30.899999999999999</ele>
        <time>2019-05-08T12:03:38Z</time>
      </trkpt>
      <trkpt lat="53.942765984684229" lon="10.489976964890957">
        <ele>30.420000000000002</ele>
        <time>2019-05-08T12:03:39Z</time>
      </trkpt>
      <trkpt lat="53.942662971094251" lon="10.490035973489285">
        <ele>30.420000000000002</ele>
        <time>2019-05-08T12:03:40Z</time>
      </trkpt>
      <trkpt lat="53.942558029666543" lon="10.490085007622838">
        <ele>30.420000000000002</ele>
        <time>2019-05-08T12:03:41Z</time>
      </trkpt>
      <trkpt lat="53.942442024126649" lon="10.490114009007812">
        <ele>29.940000000000001</ele>
        <time>2019-05-08T12:03:42Z</time>
      </trkpt>
      <trkpt lat="53.942315960302949" lon="10.490137981250882">
        <ele>29.940000000000001</ele>
        <time>2019-05-08T12:03:43Z</time>
      </trkpt>
      <trkpt lat="53.9417589828372" lon="10.49004502594471">
        <ele>28.98</ele>
        <time>2019-05-08T12:03:47Z</time>
      </trkpt>
      <trkpt lat="53.941616993397474" lon="10.48996003344655">
        <ele>28.98</ele>
        <time>2019-05-08T12:03:48Z</time>
      </trkpt>
      <trkpt lat="53.941484978422523" lon="10.489827012643218">
        <ele>28.5</ele>
        <time>2019-05-08T12:03:49Z</time>
      </trkpt>
      <trkpt lat="53.941352041438222" lon="10.489693991839886">
        <ele>28.5</ele>
        <time>2019-05-08T12:03:50Z</time>
      </trkpt>
      <trkpt lat="53.941224971786141" lon="10.489568011835217">
        <ele>28.98</ele>
        <time>2019-05-08T12:03:51Z</time>
      </trkpt>
      <trkpt lat="53.941103015094995" lon="10.489444965496659">
        <ele>28.98</ele>
        <time>2019-05-08T12:03:52Z</time>
      </trkpt>
      <trkpt lat="53.94098499789834" lon="10.489327032119036">
        <ele>28.98</ele>
        <time>2019-05-08T12:03:53Z</time>
      </trkpt>
      <trkpt lat="53.94085499458015" lon="10.489296019077301">
        <ele>28.98</ele>
        <time>2019-05-08T12:03:54Z</time>
      </trkpt>
      <trkpt lat="53.94070697017014" lon="10.489284032955766">
        <ele>28.98</ele>
        <time>2019-05-08T12:03:55Z</time>
      </trkpt>
      <trkpt lat="53.940556012094021" lon="10.489271963015199">
        <ele>28.98</ele>
        <time>2019-05-08T12:03:56Z</time>
      </trkpt>
      <trkpt lat="53.940120991319418" lon="10.489333989098668">
        <ele>29.940000000000001</ele>
        <time>2019-05-08T12:03:59Z</time>
      </trkpt>
      <trkpt lat="53.93997497856617" lon="10.489369025453925">
        <ele>29.940000000000001</ele>
        <time>2019-05-08T12:04:00Z</time>
      </trkpt>
      <trkpt lat="53.939775992184877" lon="10.489485030993819">
        <ele>30.899999999999999</ele>
        <time>2019-05-08T12:04:02Z</time>
      </trkpt>
      <trkpt lat="53.939689993858337" lon="10.489577986299992">
        <ele>31.859999999999999</ele>
        <time>2019-05-08T12:04:03Z</time>
      </trkpt>
      <trkpt lat="53.939611036330462" lon="10.489662978798151">
        <ele>32.340000000000003</ele>
        <time>2019-05-08T12:04:04Z</time>
      </trkpt>
      <trkpt lat="53.939543981105089" lon="10.489735985174775">
        <ele>32.82</ele>
        <time>2019-05-08T12:04:05Z</time>
      </trkpt>
      <trkpt lat="53.939484972506762" lon="10.489832041785121">
        <ele>32.82</ele>
        <time>2019-05-08T12:04:06Z</time>
      </trkpt>
      <trkpt lat="53.939425963908434" lon="10.489929020404816">
        <ele>32.82</ele>
        <time>2019-05-08T12:04:07Z</time>
      </trkpt>
      <trkpt lat="53.938937969505787" lon="10.490720020607114">
        <ele>33.780000000000001</ele>
        <time>2019-05-08T12:04:16Z</time>
      </trkpt>
      <trkpt lat="53.93889999948442" lon="10.490780035033822">
        <ele>33.780000000000001</ele>
        <time>2019-05-08T12:04:17Z</time>
      </trkpt>
      <trkpt lat="53.938864963129163" lon="10.490836026147008">
        <ele>33.780000000000001</ele>
        <time>2019-05-08T12:04:18Z</time>
      </trkpt>
      <trkpt lat="53.938825987279415" lon="10.490897968411446">
        <ele>33.780000000000001</ele>
        <time>2019-05-08T12:04:19Z</time>
      </trkpt>
      <trkpt lat="53.93883503973484" lon="10.491017997264862">
        <ele>33.780000000000001</ele>
        <time>2019-05-08T12:04:20Z</time>
      </trkpt>
      <trkpt lat="53.938859011977911" lon="10.491150012239814">
        <ele>33.780000000000001</ele>
        <time>2019-05-08T12:04:21Z</time>
      </trkpt>
      <trkpt lat="53.938840990886092" lon="10.491328965872526">
        <ele>33.780000000000001</ele>
        <time>2019-05-08T12:04:22Z</time>
      </trkpt>
      <trkpt lat="53.938824981451035" lon="10.49148696474731">
        <ele>34.259999999999998</ele>
        <time>2019-05-08T12:04:23Z</time>
      </trkpt>
      <trkpt lat="53.938807966187596" lon="10.49165602773428">
        <ele>34.259999999999998</ele>
        <time>2019-05-08T12:04:24Z</time>
      </trkpt>
      <trkpt lat="53.93879103474319" lon="10.491821989417076">
        <ele>34.259999999999998</ele>
        <time>2019-05-08T12:04:25Z</time>
      </trkpt>
      <trkpt lat="53.938753986731172" lon="10.492178974673152">
        <ele>34.259999999999998</ele>
        <time>2019-05-08T12:04:27Z</time>
      </trkpt>
      <trkpt lat="53.938765972852707" lon="10.492359017953277">
        <ele>33.780000000000001</ele>
        <time>2019-05-08T12:04:28Z</time>
      </trkpt>
      <trkpt lat="53.93879103474319" lon="10.492534032091498">
        <ele>33.299999999999997</ele>
        <time>2019-05-08T12:04:29Z</time>
      </trkpt>
      <trkpt lat="53.939080964773893" lon="10.494140004739165">
        <ele>30.899999999999999</ele>
        <time>2019-05-08T12:04:38Z</time>
      </trkpt>
      <trkpt lat="53.93909303471446" lon="10.494302026927471">
        <ele>30.899999999999999</ele>
        <time>2019-05-08T12:04:39Z</time>
      </trkpt>
      <trkpt lat="53.939065961167216" lon="10.494497995823622">
        <ele>30.899999999999999</ele>
        <time>2019-05-08T12:04:40Z</time>
      </trkpt>
      <trkpt lat="53.939035031944513" lon="10.494684996083379">
        <ele>30.899999999999999</ele>
        <time>2019-05-08T12:04:41Z</time>
      </trkpt>
      <trkpt lat="53.938950039446354" lon="10.494864033535123">
        <ele>30.899999999999999</ele>
        <time>2019-05-08T12:04:42Z</time>
      </trkpt>
      <trkpt lat="53.93885700032115" lon="10.495039969682693">
        <ele>30.899999999999999</ele>
        <time>2019-05-08T12:04:43Z</time>
      </trkpt>
      <trkpt lat="53.938722973689437" lon="10.49518003128469">
        <ele>30.899999999999999</ele>
        <time>2019-05-08T12:04:44Z</time>
      </trkpt>
      <trkpt lat="53.938575033098459" lon="10.495313974097371">
        <ele>31.859999999999999</ele>
        <time>2019-05-08T12:04:45Z</time>
      </trkpt>
      <trkpt lat="53.938416028395295" lon="10.495456969365478">
        <ele>32.340000000000003</ele>
        <time>2019-05-08T12:04:46Z</time>
      </trkpt>
      <trkpt lat="53.937697028741241" lon="10.496004978194833">
        <ele>35.710000000000001</ele>
        <time>2019-05-08T12:04:50Z</time>
      </trkpt>
      <trkpt lat="53.937494019046426" lon="10.496087959036231">
        <ele>36.189999999999998</ele>
        <time>2019-05-08T12:04:51Z</time>
      </trkpt>
      <trkpt lat="53.937114989385009" lon="10.496241012588143">
        <ele>37.630000000000003</ele>
        <time>2019-05-08T12:04:53Z</time>
      </trkpt>
      <trkpt lat="53.936950033530593" lon="10.496392976492643">
        <ele>38.109999999999999</ele>
        <time>2019-05-08T12:04:54Z</time>
      </trkpt>
      <trkpt lat="53.936790022999048" lon="10.496562961488962">
        <ele>38.109999999999999</ele>
        <time>2019-05-08T12:04:55Z</time>
      </trkpt>
      <trkpt lat="53.936653984710574" lon="10.496821962296963">
        <ele>38.590000000000003</ele>
        <time>2019-05-08T12:04:56Z</time>
      </trkpt>
      <trkpt lat="53.936536973342299" lon="10.49711499363184">
        <ele>39.07</ele>
        <time>2019-05-08T12:04:57Z</time>
      </trkpt>
      <trkpt lat="53.936415016651154" lon="10.497422022745013">
        <ele>39.549999999999997</ele>
        <time>2019-05-08T12:04:58Z</time>
      </trkpt>
      <trkpt lat="53.935331990942359" lon="10.500142034143209">
        <ele>44.359999999999999</ele>
        <time>2019-05-08T12:05:06Z</time>
      </trkpt>
      <trkpt lat="53.934169001877308" lon="10.502768000587821">
        <ele>52.530000000000001</ele>
        <time>2019-05-08T12:05:14Z</time>
      </trkpt>
      <trkpt lat="53.932921020314097" lon="10.505465967580676">
        <ele>56.859999999999999</ele>
        <time>2019-05-08T12:05:23Z</time>
      </trkpt>
      <trkpt lat="53.932848013937473" lon="10.505766961723566">
        <ele>57.340000000000003</ele>
        <time>2019-05-08T12:05:24Z</time>
      </trkpt>
      <trkpt lat="53.932792022824287" lon="10.506071979179978">
        <ele>57.340000000000003</ele>
        <time>2019-05-08T12:05:25Z</time>
      </trkpt>
      <trkpt lat="53.932764027267694" lon="10.506392000243068">
        <ele>57.82</ele>
        <time>2019-05-08T12:05:26Z</time>
      </trkpt>
      <trkpt lat="53.932758998125792" lon="10.506718978285789">
        <ele>57.82</ele>
        <time>2019-05-08T12:05:27Z</time>
      </trkpt>
      <trkpt lat="53.932631006464362" lon="10.509132966399193">
        <ele>58.299999999999997</ele>
        <time>2019-05-08T12:05:34Z</time>
      </trkpt>
      <trkpt lat="53.932565962895751" lon="10.50944896414876">
        <ele>58.299999999999997</ele>
        <time>2019-05-08T12:05:35Z</time>
      </trkpt>
      <trkpt lat="53.932501003146172" lon="10.509768985211849">
        <ele>57.82</ele>
        <time>2019-05-08T12:05:36Z</time>
      </trkpt>
      <trkpt lat="53.932023989036679" lon="10.510923005640507">
        <ele>57.82</ele>
        <time>2019-05-08T12:05:40Z</time>
      </trkpt>
      <trkpt lat="53.931885017082095" lon="10.511190975084901">
        <ele>58.299999999999997</ele>
        <time>2019-05-08T12:05:41Z</time>
      </trkpt>
      <trkpt lat="53.931733975186944" lon="10.511385016143322">
        <ele>59.259999999999998</ele>
        <time>2019-05-08T12:05:42Z</time>
      </trkpt>
      <trkpt lat="53.930694032460451" lon="10.51254297606647">
        <ele>63.579999999999998</ele>
        <time>2019-05-08T12:05:49Z</time>
      </trkpt>
      <trkpt lat="53.929184032604098" lon="10.513736978173256">
        <ele>58.780000000000001</ele>
        <time>2019-05-08T12:05:57Z</time>
      </trkpt>
      <trkpt lat="53.929013041779399" lon="10.513891959562898">
        <ele>58.299999999999997</ele>
        <time>2019-05-08T12:05:58Z</time>
      </trkpt>
      <trkpt lat="53.928877003490925" lon="10.514122964814305">
        <ele>57.82</ele>
        <time>2019-05-08T12:05:59Z</time>
      </trkpt>
      <trkpt lat="53.928765021264553" lon="10.514386994764209">
        <ele>57.340000000000003</ele>
        <time>2019-05-08T12:06:00Z</time>
      </trkpt>
      <trkpt lat="53.928648009896278" lon="10.514672985300422">
        <ele>57.340000000000003</ele>
        <time>2019-05-08T12:06:01Z</time>
      </trkpt>
      <trkpt lat="53.928533010184765" lon="10.514987977221608">
        <ele>56.859999999999999</ele>
        <time>2019-05-08T12:06:02Z</time>
      </trkpt>
      <trkpt lat="53.927472028881311" lon="10.518291033804417">
        <ele>56.369999999999997</ele>
        <time>2019-05-08T12:06:11Z</time>
      </trkpt>
      <trkpt lat="53.926449017599225" lon="10.521531980484724">
        <ele>53.009999999999998</ele>
        <time>2019-05-08T12:06:20Z</time>
      </trkpt>
      <trkpt lat="53.926313985139132" lon="10.522217033430934">
        <ele>52.049999999999997</ele>
        <time>2019-05-08T12:06:22Z</time>
      </trkpt>
      <trkpt lat="53.926241984590888" lon="10.522584998980165">
        <ele>51.57</ele>
        <time>2019-05-08T12:06:23Z</time>
      </trkpt>
      <trkpt lat="53.926227986812592" lon="10.522951958701015">
        <ele>51.090000000000003</ele>
        <time>2019-05-08T12:06:24Z</time>
      </trkpt>
      <trkpt lat="53.926142994314432" lon="10.525126978754997">
        <ele>50.130000000000003</ele>
        <time>2019-05-08T12:06:30Z</time>
      </trkpt>
      <trkpt lat="53.926102006807923" lon="10.526196006685495">
        <ele>48.68</ele>
        <time>2019-05-08T12:06:35Z</time>
      </trkpt>
      <trkpt lat="53.926097983494401" lon="10.526278987526894">
        <ele>48.68</ele>
        <time>2019-05-08T12:06:36Z</time>
      </trkpt>
      <trkpt lat="53.92609697766602" lon="10.526317963376641">
        <ele>48.200000000000003</ele>
        <time>2019-05-08T12:06:37Z</time>
      </trkpt>
      <trkpt lat="53.926027994602919" lon="10.526388036087155">
        <ele>47.240000000000002</ele>
        <time>2019-05-08T12:06:45Z</time>
      </trkpt>
      <trkpt lat="53.926001004874706" lon="10.526362974196672">
        <ele>47.240000000000002</ele>
        <time>2019-05-08T12:06:46Z</time>
      </trkpt>
      <trkpt lat="53.925952976569533" lon="10.526317963376641">
        <ele>46.759999999999998</ele>
        <time>2019-05-08T12:06:47Z</time>
      </trkpt>
      <trkpt lat="53.925886005163193" lon="10.526256021112204">
        <ele>46.759999999999998</ele>
        <time>2019-05-08T12:06:48Z</time>
      </trkpt>
      <trkpt lat="53.925808975473046" lon="10.526185026392341">
        <ele>46.280000000000001</ele>
        <time>2019-05-08T12:06:49Z</time>
      </trkpt>
      <trkpt lat="53.925719037652016" lon="10.526126017794013">
        <ele>46.280000000000001</ele>
        <time>2019-05-08T12:06:50Z</time>
      </trkpt>
      <trkpt lat="53.925614012405276" lon="10.526064997538924">
        <ele>46.280000000000001</ele>
        <time>2019-05-08T12:06:51Z</time>
      </trkpt>
      <trkpt lat="53.925503036007285" lon="10.526016969233751">
        <ele>45.799999999999997</ele>
        <time>2019-05-08T12:06:52Z</time>
      </trkpt>
      <trkpt lat="53.925378983840346" lon="10.526010012254119">
        <ele>45.799999999999997</ele>
        <time>2019-05-08T12:06:53Z</time>
      </trkpt>
      <trkpt lat="53.925251998007298" lon="10.526002971455455">
        <ele>45.799999999999997</ele>
        <time>2019-05-08T12:06:54Z</time>
      </trkpt>
      <trkpt lat="53.924684040248394" lon="10.525941029191017">
        <ele>46.280000000000001</ele>
        <time>2019-05-08T12:06:58Z</time>
      </trkpt>
      <trkpt lat="53.924550013616681" lon="10.525857964530587">
        <ele>46.759999999999998</ele>
        <time>2019-05-08T12:06:59Z</time>
      </trkpt>
      <trkpt lat="53.924413975328207" lon="10.525773977860808">
        <ele>46.759999999999998</ele>
        <time>2019-05-08T12:07:00Z</time>
      </trkpt>
      <trkpt lat="53.924277015030384" lon="10.525682028383017">
        <ele>47.240000000000002</ele>
        <time>2019-05-08T12:07:01Z</time>
      </trkpt>
      <trkpt lat="53.924153968691826" lon="10.525548001751304">
        <ele>47.240000000000002</ele>
        <time>2019-05-08T12:07:02Z</time>
      </trkpt>
      <trkpt lat="53.923481991514564" lon="10.524899996817112">
        <ele>48.68</ele>
        <time>2019-05-08T12:07:08Z</time>
      </trkpt>
      <trkpt lat="53.923380989581347" lon="10.524931009858847">
        <ele>49.649999999999999</ele>
        <time>2019-05-08T12:07:09Z</time>
      </trkpt>
      <trkpt lat="53.923287028446794" lon="10.525023965165019">
        <ele>50.130000000000003</ele>
        <time>2019-05-08T12:07:10Z</time>
      </trkpt>
      <trkpt lat="53.923185020685196" lon="10.525126978754997">
        <ele>51.57</ele>
        <time>2019-05-08T12:07:11Z</time>
      </trkpt>
      <trkpt lat="53.923093993216753" lon="10.525244995951653">
        <ele>52.530000000000001</ele>
        <time>2019-05-08T12:07:12Z</time>
      </trkpt>
      <trkpt lat="53.922999026253819" lon="10.52540902979672">
        <ele>53.009999999999998</ele>
        <time>2019-05-08T12:07:13Z</time>
      </trkpt>
      <trkpt lat="53.922237027436495" lon="10.526446038857102">
        <ele>53.969999999999999</ele>
        <time>2019-05-08T12:07:20Z</time>
      </trkpt>
      <trkpt lat="53.922121021896601" lon="10.526531031355262">
        <ele>53.969999999999999</ele>
        <time>2019-05-08T12:07:21Z</time>
      </trkpt>
      <trkpt lat="53.922009961679578" lon="10.526564978063107">
        <ele>53.969999999999999</ele>
        <time>2019-05-08T12:07:22Z</time>
      </trkpt>
      <trkpt lat="53.921902002766728" lon="10.526541005820036">
        <ele>53.969999999999999</ele>
        <time>2019-05-08T12:07:23Z</time>
      </trkpt>
      <trkpt lat="53.921783985570073" lon="10.526481997221708">
        <ele>53.969999999999999</ele>
        <time>2019-05-08T12:07:24Z</time>
      </trkpt>
      <trkpt lat="53.921659011393785" lon="10.526398010551929">
        <ele>54.450000000000003</ele>
        <time>2019-05-08T12:07:25Z</time>
      </trkpt>
      <trkpt lat="53.921529008075595" lon="10.526282005012035">
        <ele>54.450000000000003</ele>
        <time>2019-05-08T12:07:26Z</time>
      </trkpt>
      <trkpt lat="53.921095998957753" lon="10.525833992287517">
        <ele>54.93</ele>
        <time>2019-05-08T12:07:29Z</time>
      </trkpt>
      <trkpt lat="53.92027297988534" lon="10.524887004867196">
        <ele>54.93</ele>
        <time>2019-05-08T12:07:34Z</time>
      </trkpt>
      <trkpt lat="53.920084973797202" lon="10.524738980457187">
        <ele>54.93</ele>
        <time>2019-05-08T12:07:35Z</time>
      </trkpt>
      <trkpt lat="53.919883975759149" lon="10.524611994624138">
        <ele>54.93</ele>
        <time>2019-05-08T12:07:36Z</time>
      </trkpt>
      <trkpt lat="53.919676020741463" lon="10.52452901378274">
        <ele>54.450000000000003</ele>
        <time>2019-05-08T12:07:37Z</time>
      </trkpt>
      <trkpt lat="53.919474016875029" lon="10.524448966607451">
        <ele>54.450000000000003</ele>
        <time>2019-05-08T12:07:38Z</time>
      </trkpt>
      <trkpt lat="53.919280981644988" lon="10.524371014907956">
        <ele>54.450000000000003</ele>
        <time>2019-05-08T12:07:39Z</time>
      </trkpt>
      <trkpt lat="53.91909196972847" lon="10.524273030459881">
        <ele>54.450000000000003</ele>
        <time>2019-05-08T12:07:40Z</time>
      </trkpt>
      <trkpt lat="53.918352015316486" lon="10.523727033287287">
        <ele>53.009999999999998</ele>
        <time>2019-05-08T12:07:44Z</time>
      </trkpt>
      <trkpt lat="53.918153028935194" lon="10.523699959740043">
        <ele>53.009999999999998</ele>
        <time>2019-05-08T12:07:45Z</time>
      </trkpt>
      <trkpt lat="53.917949013411999" lon="10.523675987496972">
        <ele>52.530000000000001</ele>
        <time>2019-05-08T12:07:46Z</time>
      </trkpt>
      <trkpt lat="53.916155034676194" lon="10.523468032479286">
        <ele>53.969999999999999</ele>
        <time>2019-05-08T12:07:54Z</time>
      </trkpt>
      <trkpt lat="53.914467003196478" lon="10.522659011185169">
        <ele>52.530000000000001</ele>
        <time>2019-05-08T12:08:02Z</time>
      </trkpt>
      <trkpt lat="53.913155989721417" lon="10.52208200097084">
        <ele>50.609999999999999</ele>
        <time>2019-05-08T12:08:11Z</time>
      </trkpt>
      <trkpt lat="53.912661960348487" lon="10.521942023187876">
        <ele>51.57</ele>
        <time>2019-05-08T12:08:17Z</time>
      </trkpt>
      <trkpt lat="53.912639999762177" lon="10.521936994045973">
        <ele>51.57</ele>
        <time>2019-05-08T12:08:21Z</time>
      </trkpt>
      <trkpt lat="53.912566993385553" lon="10.521950991824269">
        <ele>52.049999999999997</ele>
        <time>2019-05-08T12:08:22Z</time>
      </trkpt>
      <trkpt lat="53.912544026970863" lon="10.522054005414248">
        <ele>52.049999999999997</ele>
        <time>2019-05-08T12:08:23Z</time>
      </trkpt>
      <trkpt lat="53.912513013929129" lon="10.52219096571207">
        <ele>52.049999999999997</ele>
        <time>2019-05-08T12:08:24Z</time>
      </trkpt>
      <trkpt lat="53.912478983402252" lon="10.522343013435602">
        <ele>52.530000000000001</ele>
        <time>2019-05-08T12:08:25Z</time>
      </trkpt>
      <trkpt lat="53.912148987874389" lon="10.523707000538707">
        <ele>51.57</ele>
        <time>2019-05-08T12:08:31Z</time>
      </trkpt>
      <trkpt lat="53.911689994856715" lon="10.525970030575991">
        <ele>46.280000000000001</ele>
        <time>2019-05-08T12:08:39Z</time>
      </trkpt>
      <trkpt lat="53.911625035107136" lon="10.52682900801301">
        <ele>43.399999999999999</ele>
        <time>2019-05-08T12:08:43Z</time>
      </trkpt>
      <trkpt lat="53.911610031500459" lon="10.526963034644723">
        <ele>42.920000000000002</ele>
        <time>2019-05-08T12:08:44Z</time>
      </trkpt>
      <trkpt lat="53.911494025960565" lon="10.527139976620674">
        <ele>42.439999999999998</ele>
        <time>2019-05-08T12:08:45Z</time>
      </trkpt>
      <trkpt lat="53.911439040675759" lon="10.527118016034365">
        <ele>41.950000000000003</ele>
        <time>2019-05-08T12:08:46Z</time>
      </trkpt>
      <trkpt lat="53.911355976015329" lon="10.527084991335869">
        <ele>41.469999999999999</ele>
        <time>2019-05-08T12:08:47Z</time>
      </trkpt>
      <trkpt lat="53.911242987960577" lon="10.527039980515838">
        <ele>41.469999999999999</ele>
        <time>2019-05-08T12:08:48Z</time>
      </trkpt>
      <trkpt lat="53.911113990470767" lon="10.526988012716174">
        <ele>40.990000000000002</ele>
        <time>2019-05-08T12:08:49Z</time>
      </trkpt>
      <trkpt lat="53.910032976418734" lon="10.526556009426713">
        <ele>39.07</ele>
        <time>2019-05-08T12:08:55Z</time>
      </trkpt>
      <trkpt lat="53.908400014042854" lon="10.526192989200354">
        <ele>34.740000000000002</ele>
        <time>2019-05-08T12:09:02Z</time>
      </trkpt>
      <trkpt lat="53.907075002789497" lon="10.526283010840416">
        <ele>32.340000000000003</ele>
        <time>2019-05-08T12:09:08Z</time>
      </trkpt>
      <trkpt lat="53.906889008358121" lon="10.526232970878482">
        <ele>31.859999999999999</ele>
        <time>2019-05-08T12:09:09Z</time>
      </trkpt>
      <trkpt lat="53.90673503279686" lon="10.526080001145601">
        <ele>31.379999999999999</ele>
        <time>2019-05-08T12:09:10Z</time>
      </trkpt>
      <trkpt lat="53.90658700838685" lon="10.525931976735592">
        <ele>30.420000000000002</ele>
        <time>2019-05-08T12:09:11Z</time>
      </trkpt>
      <trkpt lat="53.906463962048292" lon="10.525747993960977">
        <ele>29.940000000000001</ele>
        <time>2019-05-08T12:09:12Z</time>
      </trkpt>
      <trkpt lat="53.906367989256978" lon="10.525492010638118">
        <ele>29.940000000000001</ele>
        <time>2019-05-08T12:09:13Z</time>
      </trkpt>
      <trkpt lat="53.906266987323761" lon="10.525223035365343">
        <ele>29.460000000000001</ele>
        <time>2019-05-08T12:09:14Z</time>
      </trkpt>
      <trkpt lat="53.906019972637296" lon="10.524692041799426">
        <ele>28.98</ele>
        <time>2019-05-08T12:09:16Z</time>
      </trkpt>
      <trkpt lat="53.905879994854331" lon="10.524430023506284">
        <ele>28.98</ele>
        <time>2019-05-08T12:09:17Z</time>
      </trkpt>
      <trkpt lat="53.905714033171535" lon="10.524215027689934">
        <ele>28.98</ele>
        <time>2019-05-08T12:09:18Z</time>
      </trkpt>
      <trkpt lat="53.905540024861693" lon="10.524006988853216">
        <ele>28.5</ele>
        <time>2019-05-08T12:09:19Z</time>
      </trkpt>
      <trkpt lat="53.905356964096427" lon="10.523829041048884">
        <ele>28.5</ele>
        <time>2019-05-08T12:09:20Z</time>
      </trkpt>
      <trkpt lat="53.905149009078741" lon="10.523700965568423">
        <ele>28.02</ele>
        <time>2019-05-08T12:09:21Z</time>
      </trkpt>
      <trkpt lat="53.904940970242023" lon="10.523634999990463">
        <ele>28.02</ele>
        <time>2019-05-08T12:09:22Z</time>
      </trkpt>
      <trkpt lat="53.904715999960899" lon="10.523573979735374">
        <ele>28.02</ele>
        <time>2019-05-08T12:09:23Z</time>
      </trkpt>
      <trkpt lat="53.904477031901479" lon="10.523596024140716">
        <ele>28.5</ele>
        <time>2019-05-08T12:09:25Z</time>
      </trkpt>
      <trkpt lat="53.90155702829361" lon="10.524059040471911">
        <ele>30.420000000000002</ele>
        <time>2019-05-08T12:09:35Z</time>
      </trkpt>
      <trkpt lat="53.899145973846316" lon="10.524408984929323">
        <ele>32.82</ele>
        <time>2019-05-08T12:09:44Z</time>
      </trkpt>
      <trkpt lat="53.897573025897145" lon="10.524017969146371">
        <ele>31.859999999999999</ele>
        <time>2019-05-08T12:09:50Z</time>
      </trkpt>
      <trkpt lat="53.895449973642826" lon="10.523321013897657">
        <ele>28.98</ele>
        <time>2019-05-08T12:09:58Z</time>
      </trkpt>
      <trkpt lat="53.895180998370051" lon="10.523325959220529">
        <ele>28.5</ele>
        <time>2019-05-08T12:09:59Z</time>
      </trkpt>
      <trkpt lat="53.89491998590529" lon="10.523415980860591">
        <ele>28.02</ele>
        <time>2019-05-08T12:10:00Z</time>
      </trkpt>
      <trkpt lat="53.894664002582431" lon="10.523504996672273">
        <ele>27.530000000000001</ele>
        <time>2019-05-08T12:10:01Z</time>
      </trkpt>
      <trkpt lat="53.894422017037868" lon="10.52365000359714">
        <ele>27.050000000000001</ele>
        <time>2019-05-08T12:10:02Z</time>
      </trkpt>
      <trkpt lat="53.894180031493306" lon="10.523797022178769">
        <ele>26.57</ele>
        <time>2019-05-08T12:10:03Z</time>
      </trkpt>
      <trkpt lat="53.893955983221531" lon="10.524006988853216">
        <ele>26.09</ele>
        <time>2019-05-08T12:10:04Z</time>
      </trkpt>
      <trkpt lat="53.893726989626884" lon="10.524226007983088">
        <ele>25.609999999999999</ele>
        <time>2019-05-08T12:10:05Z</time>
      </trkpt>
      <trkpt lat="53.893508976325393" lon="10.524482997134328">
        <ele>24.649999999999999</ele>
        <time>2019-05-08T12:10:06Z</time>
      </trkpt>
      <trkpt lat="53.893295992165804" lon="10.524772005155683">
        <ele>24.170000000000002</ele>
        <time>2019-05-08T12:10:07Z</time>
      </trkpt>
      <trkpt lat="53.891552975401282" lon="10.527007961645722">
        <ele>16.48</ele>
        <time>2019-05-08T12:10:15Z</time>
      </trkpt>
      <trkpt lat="53.890656027942896" lon="10.52803298458457">
        <ele>9.75</ele>
        <time>2019-05-08T12:10:21Z</time>
      </trkpt>
      <trkpt lat="53.889622958377004" lon="10.529212988913059">
        <ele>9.27</ele>
        <time>2019-05-08T12:10:30Z</time>
      </trkpt>
      <trkpt lat="53.889302015304565" lon="10.529567962512374">
        <ele>10.710000000000001</ele>
        <time>2019-05-08T12:10:33Z</time>
      </trkpt>
      <trkpt lat="53.889188021421432" lon="10.529694026336074">
        <ele>11.19</ele>
        <time>2019-05-08T12:10:34Z</time>
      </trkpt>
      <trkpt lat="53.889070004224777" lon="10.529820006340742">
        <ele>12.15</ele>
        <time>2019-05-08T12:10:35Z</time>
      </trkpt>
      <trkpt lat="53.888387968763709" lon="10.530144972726703">
        <ele>15.039999999999999</ele>
        <time>2019-05-08T12:10:40Z</time>
      </trkpt>
      <trkpt lat="53.886977965012193" lon="10.530550992116332">
        <ele>13.119999999999999</ele>
        <time>2019-05-08T12:10:50Z</time>
      </trkpt>
      <trkpt lat="53.886169027537107" lon="10.530789038166404">
        <ele>12.630000000000001</ele>
        <time>2019-05-08T12:10:56Z</time>
      </trkpt>
      <trkpt lat="53.885890999808908" lon="10.530776968225837">
        <ele>13.119999999999999</ele>
        <time>2019-05-08T12:10:58Z</time>
      </trkpt>
      <trkpt lat="53.885753033682704" lon="10.530734974890947">
        <ele>13.6</ele>
        <time>2019-05-08T12:10:59Z</time>
      </trkpt>
      <trkpt lat="53.885610960423946" lon="10.530680995434523">
        <ele>13.6</ele>
        <time>2019-05-08T12:11:00Z</time>
      </trkpt>
      <trkpt lat="53.885498978197575" lon="10.530538000166416">
        <ele>14.08</ele>
        <time>2019-05-08T12:11:01Z</time>
      </trkpt>
      <trkpt lat="53.8853819668293" lon="10.530388969928026">
        <ele>14.08</ele>
        <time>2019-05-08T12:11:02Z</time>
      </trkpt>
      <trkpt lat="53.885259004309773" lon="10.530230971053243">
        <ele>14.56</ele>
        <time>2019-05-08T12:11:03Z</time>
      </trkpt>
      <trkpt lat="53.885125983506441" lon="10.530078001320362">
        <ele>14.56</ele>
        <time>2019-05-08T12:11:04Z</time>
      </trkpt>
      <trkpt lat="53.884991034865379" lon="10.529925031587481">
        <ele>15.039999999999999</ele>
        <time>2019-05-08T12:11:05Z</time>
      </trkpt>
      <trkpt lat="53.884853990748525" lon="10.529770972207189">
        <ele>15.039999999999999</ele>
        <time>2019-05-08T12:11:06Z</time>
      </trkpt>
      <trkpt lat="53.88471401296556" lon="10.529612973332405">
        <ele>15.039999999999999</ele>
        <time>2019-05-08T12:11:07Z</time>
      </trkpt>
      <trkpt lat="53.884570011869073" lon="10.52945296280086">
        <ele>15.039999999999999</ele>
        <time>2019-05-08T12:11:08Z</time>
      </trkpt>
      <trkpt lat="53.884449983015656" lon="10.529230004176497">
        <ele>15.039999999999999</ele>
        <time>2019-05-08T12:11:09Z</time>
      </trkpt>
      <trkpt lat="53.884334983304143" lon="10.529001010581851">
        <ele>15.039999999999999</ele>
        <time>2019-05-08T12:11:10Z</time>
      </trkpt>
      <trkpt lat="53.884228030219674" lon="10.528750978410244">
        <ele>15.52</ele>
        <time>2019-05-08T12:11:11Z</time>
      </trkpt>
      <trkpt lat="53.884153012186289" lon="10.528468005359173">
        <ele>15.52</ele>
        <time>2019-05-08T12:11:12Z</time>
      </trkpt>
      <trkpt lat="53.884075982496142" lon="10.52818201482296">
        <ele>16.48</ele>
        <time>2019-05-08T12:11:13Z</time>
      </trkpt>
      <trkpt lat="53.883538031950593" lon="10.526371020823717">
        <ele>19.359999999999999</ele>
        <time>2019-05-08T12:11:19Z</time>
      </trkpt>
      <trkpt lat="53.883428983390331" lon="10.526075977832079">
        <ele>19.84</ele>
        <time>2019-05-08T12:11:20Z</time>
      </trkpt>
      <trkpt lat="53.883279031142592" lon="10.52586299367249">
        <ele>19.84</ele>
        <time>2019-05-08T12:11:21Z</time>
      </trkpt>
      <trkpt lat="53.883122038096189" lon="10.525659983977675">
        <ele>19.84</ele>
        <time>2019-05-08T12:11:22Z</time>
      </trkpt>
      <trkpt lat="53.882948029786348" lon="10.525470972061157">
        <ele>19.359999999999999</ele>
        <time>2019-05-08T12:11:23Z</time>
      </trkpt>
      <trkpt lat="53.882744014263153" lon="10.525350021198392">
        <ele>19.359999999999999</ele>
        <time>2019-05-08T12:11:24Z</time>
      </trkpt>
      <trkpt lat="53.882515020668507" lon="10.525249019265175">
        <ele>18.879999999999999</ele>
        <time>2019-05-08T12:11:25Z</time>
      </trkpt>
      <trkpt lat="53.882274962961674" lon="10.525166038423777">
        <ele>18.879999999999999</ele>
        <time>2019-05-08T12:11:26Z</time>
      </trkpt>
      <trkpt lat="53.882018979638815" lon="10.525122033432126">
        <ele>17.920000000000002</ele>
        <time>2019-05-08T12:11:27Z</time>
      </trkpt>
      <trkpt lat="53.880715006962419" lon="10.524875018745661">
        <ele>15.52</ele>
        <time>2019-05-08T12:11:32Z</time>
      </trkpt>
      <trkpt lat="53.880490958690643" lon="10.524710984900594">
        <ele>15.52</ele>
        <time>2019-05-08T12:11:33Z</time>
      </trkpt>
      <trkpt lat="53.880283003672957" lon="10.524489032104611">
        <ele>15.52</ele>
        <time>2019-05-08T12:11:34Z</time>
      </trkpt>
      <trkpt lat="53.880077982321382" lon="10.524242017418146">
        <ele>15.52</ele>
        <time>2019-05-08T12:11:35Z</time>
      </trkpt>
      <trkpt lat="53.879876984283328" lon="10.523981004953384">
        <ele>15.52</ele>
        <time>2019-05-08T12:11:36Z</time>
      </trkpt>
      <trkpt lat="53.87968897819519" lon="10.523667018860579">
        <ele>15.52</ele>
        <time>2019-05-08T12:11:37Z</time>
      </trkpt>
      <trkpt lat="53.879498960450292" lon="10.523333000019193">
        <ele>15.52</ele>
        <time>2019-05-08T12:11:38Z</time>
      </trkpt>
      <trkpt lat="53.87932201847434" lon="10.522974003106356">
        <ele>15.039999999999999</ele>
        <time>2019-05-08T12:11:39Z</time>
      </trkpt>
      <trkpt lat="53.878560019657016" lon="10.52163097076118">
        <ele>13.6</ele>
        <time>2019-05-08T12:11:43Z</time>
      </trkpt>
      <trkpt lat="53.876765035092831" lon="10.519687961786985">
        <ele>15.039999999999999</ele>
        <time>2019-05-08T12:11:51Z</time>
      </trkpt>
      <trkpt lat="53.876194981858134" lon="10.519238021224737">
        <ele>15.039999999999999</ele>
        <time>2019-05-08T12:11:54Z</time>
      </trkpt>
      <trkpt lat="53.876006975769997" lon="10.519181024283171">
        <ele>14.56</ele>
        <time>2019-05-08T12:11:55Z</time>
      </trkpt>
      <trkpt lat="53.875822992995381" lon="10.519157974049449">
        <ele>14.08</ele>
        <time>2019-05-08T12:11:56Z</time>
      </trkpt>
      <trkpt lat="53.875658959150314" lon="10.519138025119901">
        <ele>14.08</ele>
        <time>2019-05-08T12:11:57Z</time>
      </trkpt>
      <trkpt lat="53.87551898136735" lon="10.519127966836095">
        <ele>13.6</ele>
        <time>2019-05-08T12:11:58Z</time>
      </trkpt>
      <trkpt lat="53.874695962294936" lon="10.519064012914896">
        <ele>14.56</ele>
        <time>2019-05-08T12:12:05Z</time>
      </trkpt>
      <trkpt lat="53.874588003382087" lon="10.519045991823077">
        <ele>14.56</ele>
        <time>2019-05-08T12:12:06Z</time>
      </trkpt>
      <trkpt lat="53.873701030388474" lon="10.518894027918577">
        <ele>15.52</ele>
        <time>2019-05-08T12:12:15Z</time>
      </trkpt>
      <trkpt lat="53.872638959437609" lon="10.518704010173678">
        <ele>15.52</ele>
        <time>2019-05-08T12:12:25Z</time>
      </trkpt>
      <trkpt lat="53.872260013595223" lon="10.518559003248811">
        <ele>15.52</ele>
        <time>2019-05-08T12:12:28Z</time>
      </trkpt>
      <trkpt lat="53.872148031368852" lon="10.518467975780368">
        <ele>15.52</ele>
        <time>2019-05-08T12:12:29Z</time>
      </trkpt>
      <trkpt lat="53.872034959495068" lon="10.518378037959337">
        <ele>15.52</ele>
        <time>2019-05-08T12:12:30Z</time>
      </trkpt>
      <trkpt lat="53.871807977557182" lon="10.51819397136569">
        <ele>16</ele>
        <time>2019-05-08T12:12:32Z</time>
      </trkpt>
      <trkpt lat="53.871697001159191" lon="10.518121970817447">
        <ele>16</ele>
        <time>2019-05-08T12:12:33Z</time>
      </trkpt>
      <trkpt lat="53.871580995619297" lon="10.518121970817447">
        <ele>16.48</ele>
        <time>2019-05-08T12:12:34Z</time>
      </trkpt>
      <trkpt lat="53.871219987049699" lon="10.518229007720947">
        <ele>17.920000000000002</ele>
        <time>2019-05-08T12:12:37Z</time>
      </trkpt>
      <trkpt lat="53.871091995388269" lon="10.518228001892567">
        <ele>18.399999999999999</ele>
        <time>2019-05-08T12:12:38Z</time>
      </trkpt>
      <trkpt lat="53.86984602548182" lon="10.517861964181066">
        <ele>16</ele>
        <time>2019-05-08T12:12:48Z</time>
      </trkpt>
      <trkpt lat="53.869361970573664" lon="10.517663983628154">
        <ele>15.039999999999999</ele>
        <time>2019-05-08T12:12:52Z</time>
      </trkpt>
      <trkpt lat="53.869258034974337" lon="10.517555018886924">
        <ele>14.56</ele>
        <time>2019-05-08T12:12:53Z</time>
      </trkpt>
      <trkpt lat="53.869185028597713" lon="10.517399031668901">
        <ele>14.56</ele>
        <time>2019-05-08T12:12:54Z</time>
      </trkpt>
      <trkpt lat="53.869112022221088" lon="10.517233991995454">
        <ele>14.08</ele>
        <time>2019-05-08T12:12:55Z</time>
      </trkpt>
      <trkpt lat="53.869054019451141" lon="10.517049003392458">
        <ele>14.08</ele>
        <time>2019-05-08T12:12:56Z</time>
      </trkpt>
      <trkpt lat="53.868992999196053" lon="10.516855968162417">
        <ele>14.08</ele>
        <time>2019-05-08T12:12:57Z</time>
      </trkpt>
      <trkpt lat="53.868915969505906" lon="10.516693023964763">
        <ele>13.6</ele>
        <time>2019-05-08T12:12:58Z</time>
      </trkpt>
      <trkpt lat="53.868253966793418" lon="10.515737989917397">
        <ele>12.630000000000001</ele>
        <time>2019-05-08T12:13:05Z</time>
      </trkpt>
      <trkpt lat="53.867946015670896" lon="10.515404976904392">
        <ele>13.6</ele>
        <time>2019-05-08T12:13:08Z</time>
      </trkpt>
      <trkpt lat="53.867853982374072" lon="10.515264999121428">
        <ele>13.6</ele>
        <time>2019-05-08T12:13:09Z</time>
      </trkpt>
      <trkpt lat="53.867815006524324" lon="10.515073975548148">
        <ele>13.6</ele>
        <time>2019-05-08T12:13:10Z</time>
      </trkpt>
      <trkpt lat="53.867789022624493" lon="10.514874989166856">
        <ele>14.08</ele>
        <time>2019-05-08T12:13:11Z</time>
      </trkpt>
      <trkpt lat="53.867773013189435" lon="10.514678014442325">
        <ele>14.08</ele>
        <time>2019-05-08T12:13:12Z</time>
      </trkpt>
      <trkpt lat="53.86778499931097" lon="10.514466958120465">
        <ele>14.08</ele>
        <time>2019-05-08T12:13:13Z</time>
      </trkpt>
      <trkpt lat="53.867796985432506" lon="10.514249028638005">
        <ele>14.08</ele>
        <time>2019-05-08T12:13:14Z</time>
      </trkpt>
      <trkpt lat="53.867809977382421" lon="10.514026992022991">
        <ele>14.08</ele>
        <time>2019-05-08T12:13:15Z</time>
      </trkpt>
      <trkpt lat="53.868037965148687" lon="10.512202000245452">
        <ele>12.15</ele>
        <time>2019-05-08T12:13:24Z</time>
      </trkpt>
      <trkpt lat="53.868046011775732" lon="10.511999996379018">
        <ele>12.15</ele>
        <time>2019-05-08T12:13:25Z</time>
      </trkpt>
      <trkpt lat="53.868032013997436" lon="10.511793969199061">
        <ele>12.15</ele>
        <time>2019-05-08T12:13:26Z</time>
      </trkpt>
      <trkpt lat="53.867821963503957" lon="10.510165030136704">
        <ele>14.56</ele>
        <time>2019-05-08T12:13:34Z</time>
      </trkpt>
      <trkpt lat="53.867794973775744" lon="10.509952967986465">
        <ele>14.56</ele>
        <time>2019-05-08T12:13:35Z</time>
      </trkpt>
      <trkpt lat="53.867691960185766" lon="10.509562036022544">
        <ele>15.52</ele>
        <time>2019-05-08T12:13:37Z</time>
      </trkpt>
      <trkpt lat="53.86763596907258" lon="10.509355003014207">
        <ele>16</ele>
        <time>2019-05-08T12:13:38Z</time>
      </trkpt>
      <trkpt lat="53.867577966302633" lon="10.509144030511379">
        <ele>16.48</ele>
        <time>2019-05-08T12:13:39Z</time>
      </trkpt>
      <trkpt lat="53.867390966042876" lon="10.508554028347135">
        <ele>17.920000000000002</ele>
        <time>2019-05-08T12:13:42Z</time>
      </trkpt>
      <trkpt lat="53.867217963561416" lon="10.508204000070691">
        <ele>18.879999999999999</ele>
        <time>2019-05-08T12:13:44Z</time>
      </trkpt>
      <trkpt lat="53.866307018324733" lon="10.506942020729184">
        <ele>19.359999999999999</ele>
        <time>2019-05-08T12:13:53Z</time>
      </trkpt>
      <trkpt lat="53.865867974236608" lon="10.506522003561258">
        <ele>19.84</ele>
        <time>2019-05-08T12:13:57Z</time>
      </trkpt>
      <trkpt lat="53.86449602432549" lon="10.505468985065818">
        <ele>15.52</ele>
        <time>2019-05-08T12:14:07Z</time>
      </trkpt>
      <trkpt lat="53.863320965319872" lon="10.504519985988736">
        <ele>13.119999999999999</ele>
        <time>2019-05-08T12:14:14Z</time>
      </trkpt>
      <trkpt lat="53.861665036529303" lon="10.503068994730711">
        <ele>15.039999999999999</ele>
        <time>2019-05-08T12:14:22Z</time>
      </trkpt>
      <trkpt lat="53.861470995470881" lon="10.502816028892994">
        <ele>15.52</ele>
        <time>2019-05-08T12:14:23Z</time>
      </trkpt>
      <trkpt lat="53.860817961394787" lon="10.501707019284368">
        <ele>16</ele>
        <time>2019-05-08T12:14:27Z</time>
      </trkpt>
      <trkpt lat="53.860603971406817" lon="10.501547008752823">
        <ele>16</ele>
        <time>2019-05-08T12:14:28Z</time>
      </trkpt>
      <trkpt lat="53.860388975590467" lon="10.501384986564517">
        <ele>16</ele>
        <time>2019-05-08T12:14:29Z</time>
      </trkpt>
      <trkpt lat="53.859450034797192" lon="10.500852987170219">
        <ele>15.039999999999999</ele>
        <time>2019-05-08T12:14:33Z</time>
      </trkpt>
      <trkpt lat="53.859024988487363" lon="10.500428024679422">
        <ele>14.08</ele>
        <time>2019-05-08T12:14:35Z</time>
      </trkpt>
      <trkpt lat="53.858832037076354" lon="10.500149996951222">
        <ele>13.6</ele>
        <time>2019-05-08T12:14:36Z</time>
      </trkpt>
      <trkpt lat="53.858659034594893" lon="10.499826958402991">
        <ele>13.119999999999999</ele>
        <time>2019-05-08T12:14:37Z</time>
      </trkpt>
      <trkpt lat="53.857094971463084" lon="10.49692003056407">
        <ele>11.67</ele>
        <time>2019-05-08T12:14:46Z</time>
      </trkpt>
      <trkpt lat="53.856799006462097" lon="10.496441004797816">
        <ele>11.19</ele>
        <time>2019-05-08T12:14:48Z</time>
      </trkpt>
      <trkpt lat="53.856624998152256" lon="10.496290968731046">
        <ele>11.19</ele>
        <time>2019-05-08T12:14:49Z</time>
      </trkpt>
      <trkpt lat="53.856442021206021" lon="10.496174963191152">
        <ele>10.710000000000001</ele>
        <time>2019-05-08T12:14:50Z</time>
      </trkpt>
      <trkpt lat="53.856254015117884" lon="10.496076978743076">
        <ele>10.710000000000001</ele>
        <time>2019-05-08T12:14:51Z</time>
      </trkpt>
      <trkpt lat="53.85607497766614" lon="10.496009001508355">
        <ele>10.710000000000001</ele>
        <time>2019-05-08T12:14:52Z</time>
      </trkpt>
      <trkpt lat="53.855909015983343" lon="10.49597798846662">
        <ele>11.19</ele>
        <time>2019-05-08T12:14:53Z</time>
      </trkpt>
      <trkpt lat="53.855755962431431" lon="10.495993997901678">
        <ele>11.19</ele>
        <time>2019-05-08T12:14:54Z</time>
      </trkpt>
      <trkpt lat="53.855625037103891" lon="10.49601998180151">
        <ele>11.19</ele>
        <time>2019-05-08T12:14:55Z</time>
      </trkpt>
      <trkpt lat="53.855491010472178" lon="10.496118972077966">
        <ele>11.19</ele>
        <time>2019-05-08T12:14:56Z</time>
      </trkpt>
      <trkpt lat="53.855363018810749" lon="10.496214022859931">
        <ele>11.19</ele>
        <time>2019-05-08T12:14:57Z</time>
      </trkpt>
      <trkpt lat="53.855234021320939" lon="10.496308989822865">
        <ele>11.19</ele>
        <time>2019-05-08T12:14:58Z</time>
      </trkpt>
      <trkpt lat="53.85510602965951" lon="10.496415020897985">
        <ele>11.19</ele>
        <time>2019-05-08T12:14:59Z</time>
      </trkpt>
      <trkpt lat="53.85478600859642" lon="10.496827997267246">
        <ele>10.710000000000001</ele>
        <time>2019-05-08T12:15:02Z</time>
      </trkpt>
      <trkpt lat="53.854693975299597" lon="10.496990019455552">
        <ele>10.710000000000001</ele>
        <time>2019-05-08T12:15:03Z</time>
      </trkpt>
      <trkpt lat="53.854594985023141" lon="10.497162016108632">
        <ele>10.23</ele>
        <time>2019-05-08T12:15:04Z</time>
      </trkpt>
      <trkpt lat="53.854514015838504" lon="10.497363014146686">
        <ele>10.23</ele>
        <time>2019-05-08T12:15:05Z</time>
      </trkpt>
      <trkpt lat="53.854434974491596" lon="10.497581027448177">
        <ele>9.75</ele>
        <time>2019-05-08T12:15:06Z</time>
      </trkpt>
      <trkpt lat="53.854376971721649" lon="10.497822007164359">
        <ele>9.27</ele>
        <time>2019-05-08T12:15:07Z</time>
      </trkpt>
      <trkpt lat="53.854336990043521" lon="10.498058963567019">
        <ele>8.789999999999999</ele>
        <time>2019-05-08T12:15:08Z</time>
      </trkpt>
      <trkpt lat="53.854302037507296" lon="10.49831997603178">
        <ele>8.310000000000001</ele>
        <time>2019-05-08T12:15:09Z</time>
      </trkpt>
      <trkpt lat="53.854187037795782" lon="10.499152969568968">
        <ele>6.87</ele>
        <time>2019-05-08T12:15:13Z</time>
      </trkpt>
      <trkpt lat="53.854224001988769" lon="10.499385986477137">
        <ele>6.39</ele>
        <time>2019-05-08T12:15:14Z</time>
      </trkpt>
      <trkpt lat="53.854256020858884" lon="10.49958597868681">
        <ele>5.91</ele>
        <time>2019-05-08T12:15:15Z</time>
      </trkpt>
      <trkpt lat="53.854359034448862" lon="10.500464988872409">
        <ele>3.98</ele>
        <time>2019-05-08T12:15:19Z</time>
      </trkpt>
      <trkpt lat="53.854345036670566" lon="10.500923981890082">
        <ele>3.98</ele>
        <time>2019-05-08T12:15:21Z</time>
      </trkpt>
      <trkpt lat="53.854318968951702" lon="10.501152975484729">
        <ele>3.98</ele>
        <time>2019-05-08T12:15:22Z</time>
      </trkpt>
      <trkpt lat="53.854293990880251" lon="10.501363025978208">
        <ele>4.46</ele>
        <time>2019-05-08T12:15:23Z</time>
      </trkpt>
      <trkpt lat="53.854208998382092" lon="10.501563018187881">
        <ele>4.46</ele>
        <time>2019-05-08T12:15:24Z</time>
      </trkpt>
      <trkpt lat="53.854129035025835" lon="10.501749012619257">
        <ele>4.46</ele>
        <time>2019-05-08T12:15:25Z</time>
      </trkpt>
      <trkpt lat="53.854014035314322" lon="10.501881027594209">
        <ele>4.94</ele>
        <time>2019-05-08T12:15:26Z</time>
      </trkpt>
      <trkpt lat="53.853888977319002" lon="10.501977000385523">
        <ele>4.94</ele>
        <time>2019-05-08T12:15:27Z</time>
      </trkpt>
      <trkpt lat="53.853756040334702" lon="10.502033997327089">
        <ele>5.42</ele>
        <time>2019-05-08T12:15:28Z</time>
      </trkpt>
      <trkpt lat="53.853617990389466" lon="10.502044977620244">
        <ele>5.42</ele>
        <time>2019-05-08T12:15:29Z</time>
      </trkpt>
      <trkpt lat="53.853478012606502" lon="10.502011030912399">
        <ele>5.91</ele>
        <time>2019-05-08T12:15:30Z</time>
      </trkpt>
      <trkpt lat="53.853342980146408" lon="10.50194900482893">
        <ele>5.91</ele>
        <time>2019-05-08T12:15:31Z</time>
      </trkpt>
      <trkpt lat="53.853214988484979" lon="10.5018400400877">
        <ele>5.91</ele>
        <time>2019-05-08T12:15:32Z</time>
      </trkpt>
      <trkpt lat="53.853092025965452" lon="10.501730991527438">
        <ele>6.39</ele>
        <time>2019-05-08T12:15:33Z</time>
      </trkpt>
      <trkpt lat="53.852966967970133" lon="10.501619009301066">
        <ele>6.39</ele>
        <time>2019-05-08T12:15:34Z</time>
      </trkpt>
      <trkpt lat="53.851936999708414" lon="10.500433975830674">
        <ele>6.87</ele>
        <time>2019-05-08T12:15:42Z</time>
      </trkpt>
      <trkpt lat="53.851796016097069" lon="10.500335991382599">
        <ele>6.87</ele>
        <time>2019-05-08T12:15:43Z</time>
      </trkpt>
      <trkpt lat="53.851643968373537" lon="10.500281006097794">
        <ele>6.87</ele>
        <time>2019-05-08T12:15:44Z</time>
      </trkpt>
      <trkpt lat="53.851488986983895" lon="10.500269019976258">
        <ele>6.39</ele>
        <time>2019-05-08T12:15:45Z</time>
      </trkpt>
      <trkpt lat="53.851311961188912" lon="10.500269019976258">
        <ele>5.91</ele>
        <time>2019-05-08T12:15:46Z</time>
      </trkpt>
      <trkpt lat="53.851161003112793" lon="10.500328028574586">
        <ele>5.42</ele>
        <time>2019-05-08T12:15:47Z</time>
      </trkpt>
      <trkpt lat="53.850925974547863" lon="10.500418972223997">
        <ele>4.46</ele>
        <time>2019-05-08T12:15:48Z</time>
      </trkpt>
      <trkpt lat="53.850826984271407" lon="10.500499019399285">
        <ele>3.98</ele>
        <time>2019-05-08T12:15:49Z</time>
      </trkpt>
      <trkpt lat="53.850666973739862" lon="10.500631034374237">
        <ele>3.5</ele>
        <time>2019-05-08T12:15:50Z</time>
      </trkpt>
      <trkpt lat="53.849576991051435" lon="10.501431003212929">
        <ele>3.02</ele>
        <time>2019-05-08T12:15:56Z</time>
      </trkpt>
      <trkpt lat="53.849395019933581" lon="10.501457992941141">
        <ele>3.02</ele>
        <time>2019-05-08T12:15:57Z</time>
      </trkpt>
      <trkpt lat="53.849230986088514" lon="10.501483976840973">
        <ele>3.02</ele>
        <time>2019-05-08T12:15:58Z</time>
      </trkpt>
      <trkpt lat="53.849082039669156" lon="10.501507027074695">
        <ele>3.02</ele>
        <time>2019-05-08T12:15:59Z</time>
      </trkpt>
      <trkpt lat="53.848939966410398" lon="10.501463022083044">
        <ele>2.54</ele>
        <time>2019-05-08T12:16:00Z</time>
      </trkpt>
      <trkpt lat="53.848809041082859" lon="10.501395966857672">
        <ele>2.54</ele>
        <time>2019-05-08T12:16:01Z</time>
      </trkpt>
      <trkpt lat="53.848679959774017" lon="10.501328995451331">
        <ele>2.06</ele>
        <time>2019-05-08T12:16:02Z</time>
      </trkpt>
      <trkpt lat="53.847348997369409" lon="10.500607984140515">
        <ele>3.02</ele>
        <time>2019-05-08T12:16:12Z</time>
      </trkpt>
      <trkpt lat="53.845837991684675" lon="10.499904993921518">
        <ele>0.62</ele>
        <time>2019-05-08T12:16:22Z</time>
      </trkpt>
      <trkpt lat="53.844246016815305" lon="10.499795023351908">
        <ele>3.5</ele>
        <time>2019-05-08T12:16:30Z</time>
      </trkpt>
      <trkpt lat="53.842056998983026" lon="10.499667031690478">
        <ele>9.27</ele>
        <time>2019-05-08T12:16:40Z</time>
      </trkpt>
      <trkpt lat="53.841843008995056" lon="10.499544991180301">
        <ele>9.75</ele>
        <time>2019-05-08T12:16:41Z</time>
      </trkpt>
      <trkpt lat="53.841641005128622" lon="10.499375006183982">
        <ele>10.23</ele>
        <time>2019-05-08T12:16:42Z</time>
      </trkpt>
      <trkpt lat="53.841436989605427" lon="10.499203009530902">
        <ele>10.710000000000001</ele>
        <time>2019-05-08T12:16:43Z</time>
      </trkpt>
      <trkpt lat="53.841258035972714" lon="10.498980972915888">
        <ele>11.19</ele>
        <time>2019-05-08T12:16:44Z</time>
      </trkpt>
      <trkpt lat="53.841094002127647" lon="10.498740999028087">
        <ele>11.67</ele>
        <time>2019-05-08T12:16:45Z</time>
      </trkpt>
      <trkpt lat="53.840933991596103" lon="10.498506976291537">
        <ele>12.15</ele>
        <time>2019-05-08T12:16:46Z</time>
      </trkpt>
      <trkpt lat="53.840328985825181" lon="10.497623020783067">
        <ele>12.630000000000001</ele>
        <time>2019-05-08T12:16:51Z</time>
      </trkpt>
      <trkpt lat="53.839515019208193" lon="10.496323993429542">
        <ele>13.6</ele>
        <time>2019-05-08T12:17:00Z</time>
      </trkpt>
      <trkpt lat="53.838709015399218" lon="10.49479597248137">
        <ele>14.08</ele>
        <time>2019-05-08T12:17:10Z</time>
      </trkpt>
      <trkpt lat="53.838294027373195" lon="10.494014024734497">
        <ele>13.119999999999999</ele>
        <time>2019-05-08T12:17:16Z</time>
      </trkpt>
      <trkpt lat="53.838223032653332" lon="10.493897013366222">
        <ele>13.119999999999999</ele>
        <time>2019-05-08T12:17:17Z</time>
      </trkpt>
      <trkpt lat="53.837433960288763" lon="10.492784986272454">
        <ele>11.67</ele>
        <time>2019-05-08T12:17:27Z</time>
      </trkpt>
      <trkpt lat="53.836873965337873" lon="10.492002032697201">
        <ele>14.56</ele>
        <time>2019-05-08T12:17:33Z</time>
      </trkpt>
      <trkpt lat="53.83669400587678" lon="10.491773039102554">
        <ele>15.52</ele>
        <time>2019-05-08T12:17:35Z</time>
      </trkpt>
      <trkpt lat="53.836297960951924" lon="10.491280015558004">
        <ele>17.440000000000001</ele>
        <time>2019-05-08T12:17:39Z</time>
      </trkpt>
      <trkpt lat="53.836195031180978" lon="10.491146994754672">
        <ele>18.399999999999999</ele>
        <time>2019-05-08T12:17:40Z</time>
      </trkpt>
      <trkpt lat="53.835349967703223" lon="10.489979982376099">
        <ele>20.32</ele>
        <time>2019-05-08T12:17:49Z</time>
      </trkpt>
      <trkpt lat="53.834597021341324" lon="10.488968035206199">
        <ele>18.879999999999999</ele>
        <time>2019-05-08T12:17:58Z</time>
      </trkpt>
      <trkpt lat="53.834434999153018" lon="10.488750021904707">
        <ele>18.879999999999999</ele>
        <time>2019-05-08T12:18:00Z</time>
      </trkpt>
      <trkpt lat="53.83435201831162" lon="10.488637033849955">
        <ele>18.879999999999999</ele>
        <time>2019-05-08T12:18:01Z</time>
      </trkpt>
      <trkpt lat="53.83342900313437" lon="10.487492987886071">
        <ele>16.48</ele>
        <time>2019-05-08T12:18:12Z</time>
      </trkpt>
      <trkpt lat="53.833330012857914" lon="10.487372959032655">
        <ele>16</ele>
        <time>2019-05-08T12:18:13Z</time>
      </trkpt>
      <trkpt lat="53.83319104090333" lon="10.487154023721814">
        <ele>15.039999999999999</ele>
        <time>2019-05-08T12:18:15Z</time>
      </trkpt>
      <trkpt lat="53.833116022869945" lon="10.487036006525159">
        <ele>14.56</ele>
        <time>2019-05-08T12:18:16Z</time>
      </trkpt>
      <trkpt lat="53.833038993179798" lon="10.486914971843362">
        <ele>14.08</ele>
        <time>2019-05-08T12:18:17Z</time>
      </trkpt>
      <trkpt lat="53.832961041480303" lon="10.486791003495455">
        <ele>13.6</ele>
        <time>2019-05-08T12:18:18Z</time>
      </trkpt>
      <trkpt lat="53.832880994305015" lon="10.486666029319167">
        <ele>12.630000000000001</ele>
        <time>2019-05-08T12:18:19Z</time>
      </trkpt>
      <trkpt lat="53.832561979070306" lon="10.486163031309843">
        <ele>11.67</ele>
        <time>2019-05-08T12:18:23Z</time>
      </trkpt>
      <trkpt lat="53.832279006019235" lon="10.485891960561275">
        <ele>10.23</ele>
        <time>2019-05-08T12:18:26Z</time>
      </trkpt>
      <trkpt lat="53.832077002152801" lon="10.485758017748594">
        <ele>9.75</ele>
        <time>2019-05-08T12:18:28Z</time>
      </trkpt>
      <trkpt lat="53.831968959420919" lon="10.485686017200351">
        <ele>9.27</ele>
        <time>2019-05-08T12:18:29Z</time>
      </trkpt>
      <trkpt lat="53.831872986629605" lon="10.485581997781992">
        <ele>9.27</ele>
        <time>2019-05-08T12:18:30Z</time>
      </trkpt>
      <trkpt lat="53.831073017790914" lon="10.484377015382051">
        <ele>11.67</ele>
        <time>2019-05-08T12:18:40Z</time>
      </trkpt>
      <trkpt lat="53.831005962565541" lon="10.484227985143661">
        <ele>11.67</ele>
        <time>2019-05-08T12:18:41Z</time>
      </trkpt>
      <trkpt lat="53.830960029736161" lon="10.484054982662201">
        <ele>11.67</ele>
        <time>2019-05-08T12:18:42Z</time>
      </trkpt>
      <trkpt lat="53.830920970067382" lon="10.48388097435236">
        <ele>11.67</ele>
        <time>2019-05-08T12:18:43Z</time>
      </trkpt>
      <trkpt lat="53.830917030572891" lon="10.483680982142687">
        <ele>11.19</ele>
        <time>2019-05-08T12:18:44Z</time>
      </trkpt>
      <trkpt lat="53.830927005037665" lon="10.483575034886599">
        <ele>11.19</ele>
        <time>2019-05-08T12:18:45Z</time>
      </trkpt>
      <trkpt lat="53.831018032506108" lon="10.483363978564739">
        <ele>10.710000000000001</ele>
        <time>2019-05-08T12:18:46Z</time>
      </trkpt>
      <trkpt lat="53.83108701556921" lon="10.483202040195465">
        <ele>10.23</ele>
        <time>2019-05-08T12:18:47Z</time>
      </trkpt>
      <trkpt lat="53.831157004460692" lon="10.483039012178779">
        <ele>9.75</ele>
        <time>2019-05-08T12:18:48Z</time>
      </trkpt>
      <trkpt lat="53.831229005008936" lon="10.482871038839221">
        <ele>9.75</ele>
        <time>2019-05-08T12:18:49Z</time>
      </trkpt>
      <trkpt lat="53.831305028870702" lon="10.48269703052938">
        <ele>9.27</ele>
        <time>2019-05-08T12:18:50Z</time>
      </trkpt>
      <trkpt lat="53.831383986398578" lon="10.482520004734397">
        <ele>9.27</ele>
        <time>2019-05-08T12:18:51Z</time>
      </trkpt>
      <trkpt lat="53.831551037728786" lon="10.481931008398533">
        <ele>8.789999999999999</ele>
        <time>2019-05-08T12:18:54Z</time>
      </trkpt>
      <trkpt lat="53.831793023273349" lon="10.480990977957845">
        <ele>9.27</ele>
        <time>2019-05-08T12:18:59Z</time>
      </trkpt>
      <trkpt lat="53.831851026043296" lon="10.48082803376019">
        <ele>9.75</ele>
        <time>2019-05-08T12:19:00Z</time>
      </trkpt>
      <trkpt lat="53.831915985792875" lon="10.480671040713787">
        <ele>10.23</ele>
        <time>2019-05-08T12:19:01Z</time>
      </trkpt>
      <trkpt lat="53.831986980512738" lon="10.48052997328341">
        <ele>10.23</ele>
        <time>2019-05-08T12:19:02Z</time>
      </trkpt>
      <trkpt lat="53.832074990496039" lon="10.480408016592264">
        <ele>10.710000000000001</ele>
        <time>2019-05-08T12:19:03Z</time>
      </trkpt>
      <trkpt lat="53.832164006307721" lon="10.480285976082087">
        <ele>11.19</ele>
        <time>2019-05-08T12:19:04Z</time>
      </trkpt>
      <trkpt lat="53.832342037931085" lon="10.480038961395621">
        <ele>11.67</ele>
        <time>2019-05-08T12:19:06Z</time>
      </trkpt>
      <trkpt lat="53.832428958266973" lon="10.479878028854728">
        <ele>12.15</ele>
        <time>2019-05-08T12:19:07Z</time>
      </trkpt>
      <trkpt lat="53.832472041249275" lon="10.479666972532868">
        <ele>12.630000000000001</ele>
        <time>2019-05-08T12:19:08Z</time>
      </trkpt>
      <trkpt lat="53.832472041249275" lon="10.479458011686802">
        <ele>13.119999999999999</ele>
        <time>2019-05-08T12:19:09Z</time>
      </trkpt>
      <trkpt lat="53.832472041249275" lon="10.479255001991987">
        <ele>13.119999999999999</ele>
        <time>2019-05-08T12:19:10Z</time>
      </trkpt>
      <trkpt lat="53.832403980195522" lon="10.47906699590385">
        <ele>13.119999999999999</ele>
        <time>2019-05-08T12:19:11Z</time>
      </trkpt>
      <trkpt lat="53.832326028496027" lon="10.478892987594008">
        <ele>12.630000000000001</ele>
        <time>2019-05-08T12:19:12Z</time>
      </trkpt>
      <trkpt lat="53.831923026591539" lon="10.478040967136621">
        <ele>11.67</ele>
        <time>2019-05-08T12:19:17Z</time>
      </trkpt>
      <trkpt lat="53.831830993294716" lon="10.477883974090219">
        <ele>11.67</ele>
        <time>2019-05-08T12:19:18Z</time>
      </trkpt>
      <trkpt lat="53.831643993034959" lon="10.47760603018105">
        <ele>11.19</ele>
        <time>2019-05-08T12:19:20Z</time>
      </trkpt>
      <trkpt lat="53.831540979444981" lon="10.477484995499253">
        <ele>11.19</ele>
        <time>2019-05-08T12:19:21Z</time>
      </trkpt>
      <trkpt lat="53.831438971683383" lon="10.477365972474217">
        <ele>11.19</ele>
        <time>2019-05-08T12:19:22Z</time>
      </trkpt>
      <trkpt lat="53.831304023042321" lon="10.477264970541">
        <ele>11.19</ele>
        <time>2019-05-08T12:19:23Z</time>
      </trkpt>
      <trkpt lat="53.831194974482059" lon="10.477337976917624">
        <ele>10.710000000000001</ele>
        <time>2019-05-08T12:19:24Z</time>
      </trkpt>
      <trkpt lat="53.831079974770546" lon="10.477415006607771">
        <ele>11.19</ele>
        <time>2019-05-08T12:19:25Z</time>
      </trkpt>
      <trkpt lat="53.830956006422639" lon="10.477488012984395">
        <ele>12.15</ele>
        <time>2019-05-08T12:19:26Z</time>
      </trkpt>
      <trkpt lat="53.829815983772278" lon="10.477939965203404">
        <ele>15.52</ele>
        <time>2019-05-08T12:19:35Z</time>
      </trkpt>
      <trkpt lat="53.82969000376761" lon="10.47797198407352">
        <ele>15.52</ele>
        <time>2019-05-08T12:19:36Z</time>
      </trkpt>
      <trkpt lat="53.828613013029099" lon="10.477588009089231">
        <ele>17.920000000000002</ele>
        <time>2019-05-08T12:19:45Z</time>
      </trkpt>
      <trkpt lat="53.828022005036473" lon="10.477260025218129">
        <ele>18.879999999999999</ele>
        <time>2019-05-08T12:19:50Z</time>
      </trkpt>
      <trkpt lat="53.827896025031805" lon="10.477228006348014">
        <ele>18.399999999999999</ele>
        <time>2019-05-08T12:19:51Z</time>
      </trkpt>
      <trkpt lat="53.827769961208105" lon="10.477248961105943">
        <ele>17.920000000000002</ele>
        <time>2019-05-08T12:19:52Z</time>
      </trkpt>
      <trkpt lat="53.826820962131023" lon="10.47739296220243">
        <ele>13.6</ele>
        <time>2019-05-08T12:20:00Z</time>
      </trkpt>
      <trkpt lat="53.826431035995483" lon="10.477361027151346">
        <ele>10.710000000000001</ele>
        <time>2019-05-08T12:20:06Z</time>
      </trkpt>
      <trkpt lat="53.826265996322036" lon="10.47730796970427">
        <ele>10.23</ele>
        <time>2019-05-08T12:20:08Z</time>
      </trkpt>
      <trkpt lat="53.826115038245916" lon="10.477211996912956">
        <ele>10.710000000000001</ele>
        <time>2019-05-08T12:20:10Z</time>
      </trkpt>
      <trkpt lat="53.825978999957442" lon="10.477072019129992">
        <ele>11.19</ele>
        <time>2019-05-08T12:20:13Z</time>
      </trkpt>
      <trkpt lat="53.825945975258946" lon="10.477035976946354">
        <ele>11.19</ele>
        <time>2019-05-08T12:20:14Z</time>
      </trkpt>
      <trkpt lat="53.825910016894341" lon="10.476997001096606">
        <ele>11.67</ele>
        <time>2019-05-08T12:20:22Z</time>
      </trkpt>
      <trkpt lat="53.825910016894341" lon="10.476997001096606">
        <ele>11.67</ele>
        <time>2019-05-08T12:21:06Z</time>
      </trkpt>
      <trkpt lat="53.825893001630902" lon="10.476977974176407">
        <ele>11.67</ele>
        <time>2019-05-08T12:21:12Z</time>
      </trkpt>
      <trkpt lat="53.825842039659619" lon="10.476922988891602">
        <ele>11.67</ele>
        <time>2019-05-08T12:21:13Z</time>
      </trkpt>
      <trkpt lat="53.825443983078003" lon="10.476256040856242">
        <ele>10.710000000000001</ele>
        <time>2019-05-08T12:21:19Z</time>
      </trkpt>
      <trkpt lat="53.825343986973166" lon="10.476171970367432">
        <ele>10.23</ele>
        <time>2019-05-08T12:21:20Z</time>
      </trkpt>
      <trkpt lat="53.825242985039949" lon="10.476087983697653">
        <ele>10.710000000000001</ele>
        <time>2019-05-08T12:21:21Z</time>
      </trkpt>
      <trkpt lat="53.825048021972179" lon="10.475939959287643">
        <ele>10.23</ele>
        <time>2019-05-08T12:21:23Z</time>
      </trkpt>
      <trkpt lat="53.824139004573226" lon="10.475104032084346">
        <ele>8.310000000000001</ele>
        <time>2019-05-08T12:21:32Z</time>
      </trkpt>
      <trkpt lat="53.822779962792993" lon="10.473669972270727">
        <ele>3.98</ele>
        <time>2019-05-08T12:21:45Z</time>
      </trkpt>
      <trkpt lat="53.821737002581358" lon="10.472859023138881">
        <ele>3.98</ele>
        <time>2019-05-08T12:21:55Z</time>
      </trkpt>
      <trkpt lat="53.821687968447804" lon="10.472830021753907">
        <ele>3.98</ele>
        <time>2019-05-08T12:21:56Z</time>
      </trkpt>
      <trkpt lat="53.821662990376353" lon="10.47281501814723">
        <ele>3.5</ele>
        <time>2019-05-08T12:21:57Z</time>
      </trkpt>
      <trkpt lat="53.82157196290791" lon="10.472824992612004">
        <ele>2.54</ele>
        <time>2019-05-08T12:22:07Z</time>
      </trkpt>
      <trkpt lat="53.82157196290791" lon="10.472902022302151">
        <ele>2.06</ele>
        <time>2019-05-08T12:22:08Z</time>
      </trkpt>
      <trkpt lat="53.82157196290791" lon="10.473024984821677">
        <ele>2.06</ele>
        <time>2019-05-08T12:22:09Z</time>
      </trkpt>
      <trkpt lat="53.82157196290791" lon="10.473173009231687">
        <ele>1.58</ele>
        <time>2019-05-08T12:22:10Z</time>
      </trkpt>
      <trkpt lat="53.82157196290791" lon="10.473344000056386">
        <ele>1.58</ele>
        <time>2019-05-08T12:22:11Z</time>
      </trkpt>
      <trkpt lat="53.82152896374464" lon="10.475292038172483">
        <ele>2.06</ele>
        <time>2019-05-08T12:22:19Z</time>
      </trkpt>
      <trkpt lat="53.821696015074849" lon="10.4766830150038">
        <ele>3.98</ele>
        <time>2019-05-08T12:22:23Z</time>
      </trkpt>
      <trkpt lat="53.822014024481177" lon="10.478561986237764">
        <ele>10.23</ele>
        <time>2019-05-08T12:22:29Z</time>
      </trkpt>
      <trkpt lat="53.822356006130576" lon="10.481234975159168">
        <ele>15.039999999999999</ele>
        <time>2019-05-08T12:22:37Z</time>
      </trkpt>
      <trkpt lat="53.822649959474802" lon="10.483250990509987">
        <ele>17.440000000000001</ele>
        <time>2019-05-08T12:22:43Z</time>
      </trkpt>
      <trkpt lat="53.823537016287446" lon="10.486624035984278">
        <ele>17.440000000000001</ele>
        <time>2019-05-08T12:22:54Z</time>
      </trkpt>
      <trkpt lat="53.824268002063036" lon="10.488591017201543">
        <ele>14.56</ele>
        <time>2019-05-08T12:23:01Z</time>
      </trkpt>
      <trkpt lat="53.824452990666032" lon="10.4893599729985">
        <ele>13.6</ele>
        <time>2019-05-08T12:23:04Z</time>
      </trkpt>
      <trkpt lat="53.824508981779218" lon="10.489904964342713">
        <ele>13.119999999999999</ele>
        <time>2019-05-08T12:23:06Z</time>
      </trkpt>
      <trkpt lat="53.824525997042656" lon="10.490180980414152">
        <ele>13.119999999999999</ele>
        <time>2019-05-08T12:23:07Z</time>
      </trkpt>
      <trkpt lat="53.82453303784132" lon="10.490444004535675">
        <ele>13.119999999999999</ele>
        <time>2019-05-08T12:23:08Z</time>
      </trkpt>
      <trkpt lat="53.824524991214275" lon="10.492468988522887">
        <ele>15.52</ele>
        <time>2019-05-08T12:23:17Z</time>
      </trkpt>
      <trkpt lat="53.824529014527798" lon="10.49264500848949">
        <ele>16</ele>
        <time>2019-05-08T12:23:18Z</time>
      </trkpt>
      <trkpt lat="53.824534965679049" lon="10.492821028456092">
        <ele>16.48</ele>
        <time>2019-05-08T12:23:19Z</time>
      </trkpt>
      <trkpt lat="53.824595985934138" lon="10.493260994553566">
        <ele>17.920000000000002</ele>
        <time>2019-05-08T12:23:22Z</time>
      </trkpt>
      <trkpt lat="53.824608977884054" lon="10.493357973173261">
        <ele>17.920000000000002</ele>
        <time>2019-05-08T12:23:23Z</time>
      </trkpt>
      <trkpt lat="53.824504958465695" lon="10.493470961228013">
        <ele>18.399999999999999</ele>
        <time>2019-05-08T12:23:24Z</time>
      </trkpt>
      <trkpt lat="53.824450979009271" lon="10.493494011461735">
        <ele>19.359999999999999</ele>
        <time>2019-05-08T12:23:25Z</time>
      </trkpt>
      <trkpt lat="53.824417032301426" lon="10.493508009240031">
        <ele>19.84</ele>
        <time>2019-05-08T12:23:26Z</time>
      </trkpt>
      <trkpt lat="53.824393982067704" lon="10.493517983704805">
        <ele>19.84</ele>
        <time>2019-05-08T12:23:27Z</time>
      </trkpt>
      <trkpt lat="53.824369003996253" lon="10.49352795816958">
        <ele>20.32</ele>
        <time>2019-05-08T12:23:28Z</time>
      </trkpt>
      <trkpt lat="53.824351988732815" lon="10.493534998968244">
        <ele>21.289999999999999</ele>
        <time>2019-05-08T12:23:29Z</time>
      </trkpt>
      <trkpt lat="53.824336985126138" lon="10.493541033938527">
        <ele>21.77</ele>
        <time>2019-05-08T12:23:30Z</time>
      </trkpt>
      <trkpt lat="53.824315024539828" lon="10.493550002574921">
        <ele>22.25</ele>
        <time>2019-05-08T12:23:31Z</time>
      </trkpt>
      <trkpt lat="53.824279988184571" lon="10.493565006181598">
        <ele>22.73</ele>
        <time>2019-05-08T12:23:32Z</time>
      </trkpt>
      <trkpt lat="53.824229026213288" lon="10.493585960939527">
        <ele>22.73</ele>
        <time>2019-05-08T12:23:33Z</time>
      </trkpt>
      <trkpt lat="53.824155014008284" lon="10.493616973981261">
        <ele>23.210000000000001</ele>
        <time>2019-05-08T12:23:34Z</time>
      </trkpt>
      <trkpt lat="53.824067004024982" lon="10.493654021993279">
        <ele>23.690000000000001</ele>
        <time>2019-05-08T12:23:35Z</time>
      </trkpt>
      <trkpt lat="53.82397698238492" lon="10.493690986186266">
        <ele>23.690000000000001</ele>
        <time>2019-05-08T12:23:36Z</time>
      </trkpt>
      <trkpt lat="53.823190005496144" lon="10.494134975597262">
        <ele>25.609999999999999</ele>
        <time>2019-05-08T12:23:43Z</time>
      </trkpt>
      <trkpt lat="53.823062013834715" lon="10.494146961718798">
        <ele>25.609999999999999</ele>
        <time>2019-05-08T12:23:44Z</time>
      </trkpt>
      <trkpt lat="53.822939973324537" lon="10.494137993082404">
        <ele>26.09</ele>
        <time>2019-05-08T12:23:45Z</time>
      </trkpt>
      <trkpt lat="53.822823967784643" lon="10.494117960333824">
        <ele>26.09</ele>
        <time>2019-05-08T12:23:46Z</time>
      </trkpt>
      <trkpt lat="53.822713997215033" lon="10.494074039161205">
        <ele>26.57</ele>
        <time>2019-05-08T12:23:47Z</time>
      </trkpt>
      <trkpt lat="53.822604026645422" lon="10.494030034169555">
        <ele>26.57</ele>
        <time>2019-05-08T12:23:48Z</time>
      </trkpt>
      <trkpt lat="53.82249397225678" lon="10.493977982550859">
        <ele>26.57</ele>
        <time>2019-05-08T12:23:49Z</time>
      </trkpt>
      <trkpt lat="53.821728033944964" lon="10.493529969826341">
        <ele>28.5</ele>
        <time>2019-05-08T12:23:57Z</time>
      </trkpt>
      <trkpt lat="53.821620997041464" lon="10.49348303116858">
        <ele>28.02</ele>
        <time>2019-05-08T12:23:58Z</time>
      </trkpt>
      <trkpt lat="53.820620030164719" lon="10.493335006758571">
        <ele>25.129999999999999</ele>
        <time>2019-05-08T12:24:04Z</time>
      </trkpt>
      <trkpt lat="53.81993698887527" lon="10.493338024243712">
        <ele>23.210000000000001</ele>
        <time>2019-05-08T12:24:07Z</time>
      </trkpt>
      <trkpt lat="53.819415969774127" lon="10.493361996486783">
        <ele>21.77</ele>
        <time>2019-05-08T12:24:09Z</time>
      </trkpt>
      <trkpt lat="53.818533020094037" lon="10.493579003959894">
        <ele>20.32</ele>
        <time>2019-05-08T12:24:13Z</time>
      </trkpt>
      <trkpt lat="53.818330010399222" lon="10.493704983964562">
        <ele>19.84</ele>
        <time>2019-05-08T12:24:14Z</time>
      </trkpt>
      <trkpt lat="53.818127000704408" lon="10.493842028081417">
        <ele>19.84</ele>
        <time>2019-05-08T12:24:15Z</time>
      </trkpt>
      <trkpt lat="53.817928014323115" lon="10.494032967835665">
        <ele>19.84</ele>
        <time>2019-05-08T12:24:16Z</time>
      </trkpt>
      <trkpt lat="53.817725004628301" lon="10.494229020550847">
        <ele>19.84</ele>
        <time>2019-05-08T12:24:17Z</time>
      </trkpt>
      <trkpt lat="53.81639102473855" lon="10.49509403295815">
        <ele>20.32</ele>
        <time>2019-05-08T12:24:23Z</time>
      </trkpt>
      <trkpt lat="53.815607987344265" lon="10.495629971846938">
        <ele>21.77</ele>
        <time>2019-05-08T12:24:27Z</time>
      </trkpt>
      <trkpt lat="53.815443031489849" lon="10.495838010683656">
        <ele>22.25</ele>
        <time>2019-05-08T12:24:28Z</time>
      </trkpt>
      <trkpt lat="53.815297018736601" lon="10.496075972914696">
        <ele>22.25</ele>
        <time>2019-05-08T12:24:29Z</time>
      </trkpt>
      <trkpt lat="53.814561003819108" lon="10.497262012213469">
        <ele>23.690000000000001</ele>
        <time>2019-05-08T12:24:34Z</time>
      </trkpt>
      <trkpt lat="53.814391018822789" lon="10.497422022745013">
        <ele>23.690000000000001</ele>
        <time>2019-05-08T12:24:35Z</time>
      </trkpt>
      <trkpt lat="53.814211981371045" lon="10.497559988871217">
        <ele>23.690000000000001</ele>
        <time>2019-05-08T12:24:36Z</time>
      </trkpt>
      <trkpt lat="53.813242027536035" lon="10.498430030420423">
        <ele>22.73</ele>
        <time>2019-05-08T12:24:42Z</time>
      </trkpt>
      <trkpt lat="53.813096014782786" lon="10.49861703068018">
        <ele>22.73</ele>
        <time>2019-05-08T12:24:43Z</time>
      </trkpt>
      <trkpt lat="53.812233014032245" lon="10.50010004080832">
        <ele>19.84</ele>
        <time>2019-05-08T12:24:51Z</time>
      </trkpt>
      <trkpt lat="53.811561036854982" lon="10.501293959096074">
        <ele>13.6</ele>
        <time>2019-05-08T12:24:59Z</time>
      </trkpt>
      <trkpt lat="53.811215031892061" lon="10.502007007598877">
        <ele>9.75</ele>
        <time>2019-05-08T12:25:05Z</time>
      </trkpt>
      <trkpt lat="53.811175972223282" lon="10.50216400064528">
        <ele>8.789999999999999</ele>
        <time>2019-05-08T12:25:06Z</time>
      </trkpt>
      <trkpt lat="53.811150994151831" lon="10.502346977591515">
        <ele>8.310000000000001</ele>
        <time>2019-05-08T12:25:07Z</time>
      </trkpt>
      <trkpt lat="53.811124004423618" lon="10.502539006993175">
        <ele>7.83</ele>
        <time>2019-05-08T12:25:08Z</time>
      </trkpt>
      <trkpt lat="53.811096008867025" lon="10.502738999202847">
        <ele>6.87</ele>
        <time>2019-05-08T12:25:09Z</time>
      </trkpt>
      <trkpt lat="53.810793003067374" lon="10.504816034808755">
        <ele>1.1</ele>
        <time>2019-05-08T12:25:19Z</time>
      </trkpt>
      <trkpt lat="53.810735000297427" lon="10.504989959299564">
        <ele>0.62</ele>
        <time>2019-05-08T12:25:20Z</time>
      </trkpt>
      <trkpt lat="53.810651013627648" lon="10.505111999809742">
        <ele>0.62</ele>
        <time>2019-05-08T12:25:21Z</time>
      </trkpt>
      <trkpt lat="53.810564009472728" lon="10.50523697398603">
        <ele>0.62</ele>
        <time>2019-05-08T12:25:22Z</time>
      </trkpt>
      <trkpt lat="53.810465019196272" lon="10.505271004512906">
        <ele>0.62</ele>
        <time>2019-05-08T12:25:23Z</time>
      </trkpt>
      <trkpt lat="53.8103530369699" lon="10.505274021998048">
        <ele>1.1</ele>
        <time>2019-05-08T12:25:24Z</time>
      </trkpt>
      <trkpt lat="53.810234013944864" lon="10.505277961492538">
        <ele>1.1</ele>
        <time>2019-05-08T12:25:25Z</time>
      </trkpt>
      <trkpt lat="53.808578001335263" lon="10.505325989797711">
        <ele>0.14</ele>
        <time>2019-05-08T12:25:38Z</time>
      </trkpt>
      <trkpt lat="53.80844003520906" lon="10.505330013111234">
        <ele>-0.82</ele>
        <time>2019-05-08T12:25:39Z</time>
      </trkpt>
      <trkpt lat="53.808295028284192" lon="10.505296988412738">
        <ele>-1.79</ele>
        <time>2019-05-08T12:25:40Z</time>
      </trkpt>
      <trkpt lat="53.808171981945634" lon="10.505176037549973">
        <ele>-2.75</ele>
        <time>2019-05-08T12:25:41Z</time>
      </trkpt>
      <trkpt lat="53.808040972799063" lon="10.505048967897892">
        <ele>-3.23</ele>
        <time>2019-05-08T12:25:42Z</time>
      </trkpt>
      <trkpt lat="53.807906024158001" lon="10.504917036741972">
        <ele>-4.19</ele>
        <time>2019-05-08T12:25:43Z</time>
      </trkpt>
      <trkpt lat="53.806716967374086" lon="10.503831999376416">
        <ele>-4.19</ele>
        <time>2019-05-08T12:25:52Z</time>
      </trkpt>
      <trkpt lat="53.806589981541038" lon="10.50375304184854">
        <ele>-4.19</ele>
        <time>2019-05-08T12:25:53Z</time>
      </trkpt>
      <trkpt lat="53.806475987657905" lon="10.503681041300297">
        <ele>-3.23</ele>
        <time>2019-05-08T12:25:54Z</time>
      </trkpt>
      <trkpt lat="53.806259986013174" lon="10.503545003011823">
        <ele>-1.79</ele>
        <time>2019-05-08T12:25:57Z</time>
      </trkpt>
      <trkpt lat="53.806218998506665" lon="10.503519019111991">
        <ele>-1.3</ele>
        <time>2019-05-08T12:25:58Z</time>
      </trkpt>
      <trkpt lat="53.806108022108674" lon="10.503341993317008">
        <ele>-0.82</ele>
        <time>2019-05-08T12:26:00Z</time>
      </trkpt>
      <trkpt lat="53.806120008230209" lon="10.503189023584127">
        <ele>0.14</ele>
        <time>2019-05-08T12:26:02Z</time>
      </trkpt>
      <trkpt lat="53.806206006556749" lon="10.502099962905049">
        <ele>3.02</ele>
        <time>2019-05-08T12:26:08Z</time>
      </trkpt>
      <trkpt lat="53.806203994899988" lon="10.501592019572854">
        <ele>4.46</ele>
        <time>2019-05-08T12:26:10Z</time>
      </trkpt>
      <trkpt lat="53.806172981858253" lon="10.501343999058008">
        <ele>5.42</ele>
        <time>2019-05-08T12:26:11Z</time>
      </trkpt>
      <trkpt lat="53.805976007133722" lon="10.500077996402979">
        <ele>10.23</ele>
        <time>2019-05-08T12:26:18Z</time>
      </trkpt>
      <trkpt lat="53.805916998535395" lon="10.499922009184957">
        <ele>10.710000000000001</ele>
        <time>2019-05-08T12:26:19Z</time>
      </trkpt>
      <trkpt lat="53.805841980502009" lon="10.499913040548563">
        <ele>10.710000000000001</ele>
        <time>2019-05-08T12:26:20Z</time>
      </trkpt>
      <trkpt lat="53.805739972740412" lon="10.499900970607996">
        <ele>10.710000000000001</ele>
        <time>2019-05-08T12:26:21Z</time>
      </trkpt>
      <trkpt lat="53.805618016049266" lon="10.4998869728297">
        <ele>11.19</ele>
        <time>2019-05-08T12:26:22Z</time>
      </trkpt>
      <trkpt lat="53.804730959236622" lon="10.499627972021699">
        <ele>13.6</ele>
        <time>2019-05-08T12:26:28Z</time>
      </trkpt>
      <trkpt lat="53.804576983675361" lon="10.499561000615358">
        <ele>14.08</ele>
        <time>2019-05-08T12:26:29Z</time>
      </trkpt>
      <trkpt lat="53.803151976317167" lon="10.498440004885197">
        <ele>16.48</ele>
        <time>2019-05-08T12:26:39Z</time>
      </trkpt>
      <trkpt lat="53.802291993051767" lon="10.497281039133668">
        <ele>15.039999999999999</ele>
        <time>2019-05-08T12:26:45Z</time>
      </trkpt>
      <trkpt lat="53.801949005573988" lon="10.496812993660569">
        <ele>14.08</ele>
        <time>2019-05-08T12:26:47Z</time>
      </trkpt>
      <trkpt lat="53.801745995879173" lon="10.496617024764419">
        <ele>13.6</ele>
        <time>2019-05-08T12:26:48Z</time>
      </trkpt>
      <trkpt lat="53.801527982577682" lon="10.496452990919352">
        <ele>13.119999999999999</ele>
        <time>2019-05-08T12:26:49Z</time>
      </trkpt>
      <trkpt lat="53.799744984135032" lon="10.495113981887698">
        <ele>13.6</ele>
        <time>2019-05-08T12:26:57Z</time>
      </trkpt>
      <trkpt lat="53.799571981653571" lon="10.494856992736459">
        <ele>14.08</ele>
        <time>2019-05-08T12:26:58Z</time>
      </trkpt>
      <trkpt lat="53.7988590169698" lon="10.493895001709461">
        <ele>15.039999999999999</ele>
        <time>2019-05-08T12:27:02Z</time>
      </trkpt>
      <trkpt lat="53.798661958426237" lon="10.493737002834678">
        <ele>15.039999999999999</ele>
        <time>2019-05-08T12:27:03Z</time>
      </trkpt>
      <trkpt lat="53.798450985923409" lon="10.493608005344868">
        <ele>15.52</ele>
        <time>2019-05-08T12:27:04Z</time>
      </trkpt>
      <trkpt lat="53.796977028250694" lon="10.492655988782644">
        <ele>19.84</ele>
        <time>2019-05-08T12:27:11Z</time>
      </trkpt>
      <trkpt lat="53.79681701771915" lon="10.492465971037745">
        <ele>21.289999999999999</ele>
        <time>2019-05-08T12:27:12Z</time>
      </trkpt>
      <trkpt lat="53.796515017747879" lon="10.492104040458798">
        <ele>23.690000000000001</ele>
        <time>2019-05-08T12:27:14Z</time>
      </trkpt>
      <trkpt lat="53.796352995559573" lon="10.49200102686882">
        <ele>24.649999999999999</ele>
        <time>2019-05-08T12:27:15Z</time>
      </trkpt>
      <trkpt lat="53.796188961714506" lon="10.491913016885519">
        <ele>26.09</ele>
        <time>2019-05-08T12:27:16Z</time>
      </trkpt>
      <trkpt lat="53.796018976718187" lon="10.491920979693532">
        <ele>27.050000000000001</ele>
        <time>2019-05-08T12:27:17Z</time>
      </trkpt>
      <trkpt lat="53.795845974236727" lon="10.491954004392028">
        <ele>28.02</ele>
        <time>2019-05-08T12:27:18Z</time>
      </trkpt>
      <trkpt lat="53.795670960098505" lon="10.492054000496864">
        <ele>28.98</ele>
        <time>2019-05-08T12:27:19Z</time>
      </trkpt>
      <trkpt lat="53.794045960530639" lon="10.493004005402327">
        <ele>31.379999999999999</ele>
        <time>2019-05-08T12:27:27Z</time>
      </trkpt>
      <trkpt lat="53.793378006666899" lon="10.493230987340212">
        <ele>31.379999999999999</ele>
        <time>2019-05-08T12:27:30Z</time>
      </trkpt>
      <trkpt lat="53.793157981708646" lon="10.493230987340212">
        <ele>31.379999999999999</ele>
        <time>2019-05-08T12:27:31Z</time>
      </trkpt>
      <trkpt lat="53.792938040569425" lon="10.493181031197309">
        <ele>31.379999999999999</ele>
        <time>2019-05-08T12:27:32Z</time>
      </trkpt>
      <trkpt lat="53.792713992297649" lon="10.493115987628698">
        <ele>31.859999999999999</ele>
        <time>2019-05-08T12:27:33Z</time>
      </trkpt>
      <trkpt lat="53.792488016188145" lon="10.493025965988636">
        <ele>31.859999999999999</ele>
        <time>2019-05-08T12:27:34Z</time>
      </trkpt>
      <trkpt lat="53.791116988286376" lon="10.492568984627724">
        <ele>32.340000000000003</ele>
        <time>2019-05-08T12:27:40Z</time>
      </trkpt>
      <trkpt lat="53.790891012176871" lon="10.492598991841078">
        <ele>31.379999999999999</ele>
        <time>2019-05-08T12:27:41Z</time>
      </trkpt>
      <trkpt lat="53.790667969733477" lon="10.492628999054432">
        <ele>30.899999999999999</ele>
        <time>2019-05-08T12:27:42Z</time>
      </trkpt>
      <trkpt lat="53.790449034422636" lon="10.492681972682476">
        <ele>30.899999999999999</ele>
        <time>2019-05-08T12:27:43Z</time>
      </trkpt>
      <trkpt lat="53.790231021121144" lon="10.492812981829047">
        <ele>30.899999999999999</ele>
        <time>2019-05-08T12:27:44Z</time>
      </trkpt>
      <trkpt lat="53.790003033354878" lon="10.492948014289141">
        <ele>30.420000000000002</ele>
        <time>2019-05-08T12:27:45Z</time>
      </trkpt>
      <trkpt lat="53.787313029170036" lon="10.494448039680719">
        <ele>34.259999999999998</ele>
        <time>2019-05-08T12:27:57Z</time>
      </trkpt>
      <trkpt lat="53.787168022245169" lon="10.494490033015609">
        <ele>34.259999999999998</ele>
        <time>2019-05-08T12:27:58Z</time>
      </trkpt>
      <trkpt lat="53.787045981734991" lon="10.494507970288396">
        <ele>34.740000000000002</ele>
        <time>2019-05-08T12:27:59Z</time>
      </trkpt>
      <trkpt lat="53.786929976195097" lon="10.494449967518449">
        <ele>34.740000000000002</ele>
        <time>2019-05-08T12:28:00Z</time>
      </trkpt>
      <trkpt lat="53.786814976483583" lon="10.494368998333812">
        <ele>34.740000000000002</ele>
        <time>2019-05-08T12:28:01Z</time>
      </trkpt>
      <trkpt lat="53.786693019792438" lon="10.494233965873718">
        <ele>34.740000000000002</ele>
        <time>2019-05-08T12:28:02Z</time>
      </trkpt>
      <trkpt lat="53.786563016474247" lon="10.494090970605612">
        <ele>34.740000000000002</ele>
        <time>2019-05-08T12:28:03Z</time>
      </trkpt>
      <trkpt lat="53.786427984014153" lon="10.493938000872731">
        <ele>35.229999999999997</ele>
        <time>2019-05-08T12:28:04Z</time>
      </trkpt>
      <trkpt lat="53.785291984677315" lon="10.492454990744591">
        <ele>35.229999999999997</ele>
        <time>2019-05-08T12:28:12Z</time>
      </trkpt>
      <trkpt lat="53.784438036382198" lon="10.491339024156332">
        <ele>36.189999999999998</ele>
        <time>2019-05-08T12:28:17Z</time>
      </trkpt>
      <trkpt lat="53.784109968692064" lon="10.490923030301929">
        <ele>36.670000000000002</ele>
        <time>2019-05-08T12:28:19Z</time>
      </trkpt>
      <trkpt lat="53.783924980089068" lon="10.490792021155357">
        <ele>37.149999999999999</ele>
        <time>2019-05-08T12:28:20Z</time>
      </trkpt>
      <trkpt lat="53.78373496234417" lon="10.490667968988419">
        <ele>37.149999999999999</ele>
        <time>2019-05-08T12:28:21Z</time>
      </trkpt>
      <trkpt lat="53.783534970134497" lon="10.490600997582078">
        <ele>37.630000000000003</ele>
        <time>2019-05-08T12:28:22Z</time>
      </trkpt>
      <trkpt lat="53.783334977924824" lon="10.490578031167388">
        <ele>37.630000000000003</ele>
        <time>2019-05-08T12:28:23Z</time>
      </trkpt>
      <trkpt lat="53.783145966008306" lon="10.490591023117304">
        <ele>37.630000000000003</ele>
        <time>2019-05-08T12:28:24Z</time>
      </trkpt>
      <trkpt lat="53.782970029860735" lon="10.49067098647356">
        <ele>38.109999999999999</ele>
        <time>2019-05-08T12:28:25Z</time>
      </trkpt>
      <trkpt lat="53.782798033207655" lon="10.490763019770384">
        <ele>38.109999999999999</ele>
        <time>2019-05-08T12:28:26Z</time>
      </trkpt>
      <trkpt lat="53.78263802267611" lon="10.490922024473548">
        <ele>38.109999999999999</ele>
        <time>2019-05-08T12:28:27Z</time>
      </trkpt>
      <trkpt lat="53.782476000487804" lon="10.491084968671203">
        <ele>38.109999999999999</ele>
        <time>2019-05-08T12:28:28Z</time>
      </trkpt>
      <trkpt lat="53.782322024926543" lon="10.49127196893096">
        <ele>38.109999999999999</ele>
        <time>2019-05-08T12:28:29Z</time>
      </trkpt>
      <trkpt lat="53.781895972788334" lon="10.491759963333607">
        <ele>38.590000000000003</ele>
        <time>2019-05-08T12:28:32Z</time>
      </trkpt>
      <trkpt lat="53.781751971691847" lon="10.491865994408727">
        <ele>38.590000000000003</ele>
        <time>2019-05-08T12:28:33Z</time>
      </trkpt>
      <trkpt lat="53.781606964766979" lon="10.491959033533931">
        <ele>38.590000000000003</ele>
        <time>2019-05-08T12:28:34Z</time>
      </trkpt>
      <trkpt lat="53.780650002881885" lon="10.492260027676821">
        <ele>38.109999999999999</ele>
        <time>2019-05-08T12:28:41Z</time>
      </trkpt>
      <trkpt lat="53.779682982712984" lon="10.492644002661109">
        <ele>35.710000000000001</ele>
        <time>2019-05-08T12:28:49Z</time>
      </trkpt>
      <trkpt lat="53.779555996879935" lon="10.492650037631392">
        <ele>35.710000000000001</ele>
        <time>2019-05-08T12:28:50Z</time>
      </trkpt>
      <trkpt lat="53.779423981904984" lon="10.492632016539574">
        <ele>35.710000000000001</ele>
        <time>2019-05-08T12:28:51Z</time>
      </trkpt>
      <trkpt lat="53.779295990243554" lon="10.4926030151546">
        <ele>35.229999999999997</ele>
        <time>2019-05-08T12:28:52Z</time>
      </trkpt>
      <trkpt lat="53.779175961390138" lon="10.492576025426388">
        <ele>35.229999999999997</ele>
        <time>2019-05-08T12:28:53Z</time>
      </trkpt>
      <trkpt lat="53.779072025790811" lon="10.492462031543255">
        <ele>34.740000000000002</ele>
        <time>2019-05-08T12:28:54Z</time>
      </trkpt>
      <trkpt lat="53.778999019414186" lon="10.492330016568303">
        <ele>34.259999999999998</ele>
        <time>2019-05-08T12:28:55Z</time>
      </trkpt>
      <trkpt lat="53.778970018029213" lon="10.492167994379997">
        <ele>34.259999999999998</ele>
        <time>2019-05-08T12:28:56Z</time>
      </trkpt>
      <trkpt lat="53.778937999159098" lon="10.491995997726917">
        <ele>33.780000000000001</ele>
        <time>2019-05-08T12:28:57Z</time>
      </trkpt>
      <trkpt lat="53.778903968632221" lon="10.491814026609063">
        <ele>33.299999999999997</ele>
        <time>2019-05-08T12:28:58Z</time>
      </trkpt>
      <trkpt lat="53.778870021924376" lon="10.491629960015416">
        <ele>32.82</ele>
        <time>2019-05-08T12:28:59Z</time>
      </trkpt>
      <trkpt lat="53.778791986405849" lon="10.490861004218459">
        <ele>31.859999999999999</ele>
        <time>2019-05-08T12:29:03Z</time>
      </trkpt>
      <trkpt lat="53.778796009719372" lon="10.490663023665547">
        <ele>31.379999999999999</ele>
        <time>2019-05-08T12:29:04Z</time>
      </trkpt>
      <trkpt lat="53.778832973912358" lon="10.488956971094012">
        <ele>35.710000000000001</ele>
        <time>2019-05-08T12:29:13Z</time>
      </trkpt>
      <trkpt lat="53.778828028589487" lon="10.488768965005875">
        <ele>36.189999999999998</ele>
        <time>2019-05-08T12:29:14Z</time>
      </trkpt>
      <trkpt lat="53.778783017769456" lon="10.4886070266366">
        <ele>36.189999999999998</ele>
        <time>2019-05-08T12:29:15Z</time>
      </trkpt>
      <trkpt lat="53.778725014999509" lon="10.488427989184856">
        <ele>36.189999999999998</ele>
        <time>2019-05-08T12:29:16Z</time>
      </trkpt>
      <trkpt lat="53.778665000572801" lon="10.488240988925099">
        <ele>36.189999999999998</ele>
        <time>2019-05-08T12:29:17Z</time>
      </trkpt>
      <trkpt lat="53.778599034994841" lon="10.488051977008581">
        <ele>35.710000000000001</ele>
        <time>2019-05-08T12:29:18Z</time>
      </trkpt>
      <trkpt lat="53.777836030349135" lon="10.486592017114162">
        <ele>40.509999999999998</ele>
        <time>2019-05-08T12:29:27Z</time>
      </trkpt>
      <trkpt lat="53.777732010930777" lon="10.48647902905941">
        <ele>40.990000000000002</ele>
        <time>2019-05-08T12:29:28Z</time>
      </trkpt>
      <trkpt lat="53.777627991512418" lon="10.486366041004658">
        <ele>41.469999999999999</ele>
        <time>2019-05-08T12:29:29Z</time>
      </trkpt>
      <trkpt lat="53.777507040649652" lon="10.486324969679117">
        <ele>41.950000000000003</ele>
        <time>2019-05-08T12:29:30Z</time>
      </trkpt>
      <trkpt lat="53.777380976825953" lon="10.486282976344228">
        <ele>42.439999999999998</ele>
        <time>2019-05-08T12:29:31Z</time>
      </trkpt>
      <trkpt lat="53.777251979336143" lon="10.486239977180958">
        <ele>42.920000000000002</ele>
        <time>2019-05-08T12:29:32Z</time>
      </trkpt>
      <trkpt lat="53.777122981846333" lon="10.486196978017688">
        <ele>43.399999999999999</ele>
        <time>2019-05-08T12:29:33Z</time>
      </trkpt>
      <trkpt lat="53.776743030175567" lon="10.486069992184639">
        <ele>43.880000000000003</ele>
        <time>2019-05-08T12:29:36Z</time>
      </trkpt>
      <trkpt lat="53.776620989665389" lon="10.48600503243506">
        <ele>44.359999999999999</ele>
        <time>2019-05-08T12:29:37Z</time>
      </trkpt>
      <trkpt lat="53.776506995782256" lon="10.485895983874798">
        <ele>44.840000000000003</ele>
        <time>2019-05-08T12:29:38Z</time>
      </trkpt>
      <trkpt lat="53.776390990242362" lon="10.485786013305187">
        <ele>44.840000000000003</ele>
        <time>2019-05-08T12:29:39Z</time>
      </trkpt>
      <trkpt lat="53.776276996359229" lon="10.485677970573306">
        <ele>45.32</ele>
        <time>2019-05-08T12:29:40Z</time>
      </trkpt>
      <trkpt lat="53.776077004149556" lon="10.485380999743938">
        <ele>45.799999999999997</ele>
        <time>2019-05-08T12:29:42Z</time>
      </trkpt>
      <trkpt lat="53.775987988337874" lon="10.48523398116231">
        <ele>46.280000000000001</ele>
        <time>2019-05-08T12:29:43Z</time>
      </trkpt>
      <trkpt lat="53.775898972526193" lon="10.485086962580681">
        <ele>46.759999999999998</ele>
        <time>2019-05-08T12:29:44Z</time>
      </trkpt>
      <trkpt lat="53.775822026655078" lon="10.484916977584362">
        <ele>47.719999999999999</ele>
        <time>2019-05-08T12:29:45Z</time>
      </trkpt>
      <trkpt lat="53.775752959772944" lon="10.484735006466508">
        <ele>48.200000000000003</ele>
        <time>2019-05-08T12:29:46Z</time>
      </trkpt>
      <trkpt lat="53.775682970881462" lon="10.484553035348654">
        <ele>49.159999999999997</ele>
        <time>2019-05-08T12:29:47Z</time>
      </trkpt>
      <trkpt lat="53.775346018373966" lon="10.483646029606462">
        <ele>51.57</ele>
        <time>2019-05-08T12:29:52Z</time>
      </trkpt>
      <trkpt lat="53.775319028645754" lon="10.48345198854804">
        <ele>51.57</ele>
        <time>2019-05-08T12:29:53Z</time>
      </trkpt>
      <trkpt lat="53.775318022817373" lon="10.483244033530354">
        <ele>52.049999999999997</ele>
        <time>2019-05-08T12:29:54Z</time>
      </trkpt>
      <trkpt lat="53.775330008938909" lon="10.483059966936707">
        <ele>52.049999999999997</ele>
        <time>2019-05-08T12:29:55Z</time>
      </trkpt>
      <trkpt lat="53.775367978960276" lon="10.48285000026226">
        <ele>52.049999999999997</ele>
        <time>2019-05-08T12:29:56Z</time>
      </trkpt>
      <trkpt lat="53.775404021143913" lon="10.482652019709349">
        <ele>52.530000000000001</ele>
        <time>2019-05-08T12:29:57Z</time>
      </trkpt>
      <trkpt lat="53.775447020307183" lon="10.482105016708374">
        <ele>52.530000000000001</ele>
        <time>2019-05-08T12:30:00Z</time>
      </trkpt>
      <trkpt lat="53.775439979508519" lon="10.481956992298365">
        <ele>52.530000000000001</ele>
        <time>2019-05-08T12:30:01Z</time>
      </trkpt>
      <trkpt lat="53.775437967851758" lon="10.481901001185179">
        <ele>52.530000000000001</ele>
        <time>2019-05-08T12:30:02Z</time>
      </trkpt>
      <trkpt lat="53.775437967851758" lon="10.481901001185179">
        <ele>52.049999999999997</ele>
        <time>2019-05-08T12:30:03Z</time>
      </trkpt>
      <trkpt lat="53.775437967851758" lon="10.481901001185179">
        <ele>52.049999999999997</ele>
        <time>2019-05-08T12:30:04Z</time>
      </trkpt>
      <trkpt lat="53.775298995897174" lon="10.481490958482027">
        <ele>51.57</ele>
        <time>2019-05-08T12:30:05Z</time>
      </trkpt>
      <trkpt lat="53.775337971746922" lon="10.481369001790881">
        <ele>51.57</ele>
        <time>2019-05-08T12:30:06Z</time>
      </trkpt>
      <trkpt lat="53.775394968688488" lon="10.481192981824279">
        <ele>51.57</ele>
        <time>2019-05-08T12:30:07Z</time>
      </trkpt>
      <trkpt lat="53.775408966466784" lon="10.480985026806593">
        <ele>51.090000000000003</ele>
        <time>2019-05-08T12:30:08Z</time>
      </trkpt>
      <trkpt lat="53.775416007265449" lon="10.480733988806605">
        <ele>51.090000000000003</ele>
        <time>2019-05-08T12:30:09Z</time>
      </trkpt>
      <trkpt lat="53.77539899200201" lon="10.480454033240676">
        <ele>51.090000000000003</ele>
        <time>2019-05-08T12:30:10Z</time>
      </trkpt>
      <trkpt lat="53.77537602558732" lon="10.480153039097786">
        <ele>51.090000000000003</ele>
        <time>2019-05-08T12:30:11Z</time>
      </trkpt>
      <trkpt lat="53.775308970361948" lon="10.479851961135864">
        <ele>51.090000000000003</ele>
        <time>2019-05-08T12:30:12Z</time>
      </trkpt>
      <trkpt lat="53.775233030319214" lon="10.479538980871439">
        <ele>51.57</ele>
        <time>2019-05-08T12:30:13Z</time>
      </trkpt>
      <trkpt lat="53.774886019527912" lon="10.477900989353657">
        <ele>53.490000000000002</ele>
        <time>2019-05-08T12:30:18Z</time>
      </trkpt>
      <trkpt lat="53.774836985394359" lon="10.47756495885551">
        <ele>53.969999999999999</ele>
        <time>2019-05-08T12:30:19Z</time>
      </trkpt>
      <trkpt lat="53.774848971515894" lon="10.47721803188324">
        <ele>54.450000000000003</ele>
        <time>2019-05-08T12:30:20Z</time>
      </trkpt>
      <trkpt lat="53.774875039234757" lon="10.476863980293274">
        <ele>54.93</ele>
        <time>2019-05-08T12:30:21Z</time>
      </trkpt>
      <trkpt lat="53.774932036176324" lon="10.476505989208817">
        <ele>55.409999999999997</ele>
        <time>2019-05-08T12:30:22Z</time>
      </trkpt>
      <trkpt lat="53.77499096095562" lon="10.476141041144729">
        <ele>55.890000000000001</ele>
        <time>2019-05-08T12:30:23Z</time>
      </trkpt>
      <trkpt lat="53.775059022009373" lon="10.475412989035249">
        <ele>56.369999999999997</ele>
        <time>2019-05-08T12:30:25Z</time>
      </trkpt>
      <trkpt lat="53.775067990645766" lon="10.475032031536102">
        <ele>56.369999999999997</ele>
        <time>2019-05-08T12:30:26Z</time>
      </trkpt>
      <trkpt lat="53.775061033666134" lon="10.474650990217924">
        <ele>56.369999999999997</ele>
        <time>2019-05-08T12:30:27Z</time>
      </trkpt>
      <trkpt lat="53.775002025067806" lon="10.474286964163184">
        <ele>56.369999999999997</ele>
        <time>2019-05-08T12:30:28Z</time>
      </trkpt>
      <trkpt lat="53.774918960407376" lon="10.47393299639225">
        <ele>55.890000000000001</ele>
        <time>2019-05-08T12:30:29Z</time>
      </trkpt>
      <trkpt lat="53.774834973737597" lon="10.473572993651032">
        <ele>55.890000000000001</ele>
        <time>2019-05-08T12:30:30Z</time>
      </trkpt>
      <trkpt lat="53.774750987067819" lon="10.473210979253054">
        <ele>55.890000000000001</ele>
        <time>2019-05-08T12:30:31Z</time>
      </trkpt>
      <trkpt lat="53.774686027318239" lon="10.472824992612004">
        <ele>55.890000000000001</ele>
        <time>2019-05-08T12:30:32Z</time>
      </trkpt>
      <trkpt lat="53.774635987356305" lon="10.472439005970955">
        <ele>55.890000000000001</ele>
        <time>2019-05-08T12:30:33Z</time>
      </trkpt>
      <trkpt lat="53.774611009284854" lon="10.47204396687448">
        <ele>55.890000000000001</ele>
        <time>2019-05-08T12:30:34Z</time>
      </trkpt>
      <trkpt lat="53.774611009284854" lon="10.471640964969993">
        <ele>55.890000000000001</ele>
        <time>2019-05-08T12:30:35Z</time>
      </trkpt>
      <trkpt lat="53.774648979306221" lon="10.471245003864169">
        <ele>55.409999999999997</ele>
        <time>2019-05-08T12:30:36Z</time>
      </trkpt>
      <trkpt lat="53.774686027318239" lon="10.470850970596075">
        <ele>55.409999999999997</ele>
        <time>2019-05-08T12:30:37Z</time>
      </trkpt>
      <trkpt lat="53.774749981239438" lon="10.470466995611787">
        <ele>55.409999999999997</ele>
        <time>2019-05-08T12:30:38Z</time>
      </trkpt>
      <trkpt lat="53.774820975959301" lon="10.470080003142357">
        <ele>55.409999999999997</ele>
        <time>2019-05-08T12:30:39Z</time>
      </trkpt>
      <trkpt lat="53.775736028328538" lon="10.465558972209692">
        <ele>53.009999999999998</ele>
        <time>2019-05-08T12:30:50Z</time>
      </trkpt>
      <trkpt lat="53.776811007410288" lon="10.46018298715353">
        <ele>54.93</ele>
        <time>2019-05-08T12:31:02Z</time>
      </trkpt>
      <trkpt lat="53.777775010094047" lon="10.456726038828492">
        <ele>52.530000000000001</ele>
        <time>2019-05-08T12:31:10Z</time>
      </trkpt>
      <trkpt lat="53.779545016586781" lon="10.452386979013681">
        <ele>46.759999999999998</ele>
        <time>2019-05-08T12:31:21Z</time>
      </trkpt>
      <trkpt lat="53.780535003170371" lon="10.449984977021813">
        <ele>44.840000000000003</ele>
        <time>2019-05-08T12:31:28Z</time>
      </trkpt>
      <trkpt lat="53.781431028619409" lon="10.447373008355498">
        <ele>45.799999999999997</ele>
        <time>2019-05-08T12:31:38Z</time>
      </trkpt>
      <trkpt lat="53.782032011076808" lon="10.44524903409183">
        <ele>48.200000000000003</ele>
        <time>2019-05-08T12:31:47Z</time>
      </trkpt>
      <trkpt lat="53.782103005796671" lon="10.445066979154944">
        <ele>48.200000000000003</ele>
        <time>2019-05-08T12:31:48Z</time>
      </trkpt>
      <trkpt lat="53.782197972759604" lon="10.444919038563967">
        <ele>48.200000000000003</ele>
        <time>2019-05-08T12:31:49Z</time>
      </trkpt>
      <trkpt lat="53.782292017713189" lon="10.444773025810719">
        <ele>48.68</ele>
        <time>2019-05-08T12:31:50Z</time>
      </trkpt>
      <trkpt lat="53.782583037391305" lon="10.444349991157651">
        <ele>49.159999999999997</ele>
        <time>2019-05-08T12:31:53Z</time>
      </trkpt>
      <trkpt lat="53.782633999362588" lon="10.444213030859828">
        <ele>49.649999999999999</ele>
        <time>2019-05-08T12:31:54Z</time>
      </trkpt>
      <trkpt lat="53.782695019617677" lon="10.444050002843142">
        <ele>50.130000000000003</ele>
        <time>2019-05-08T12:31:55Z</time>
      </trkpt>
      <trkpt lat="53.782772971317172" lon="10.44368396513164">
        <ele>50.609999999999999</ele>
        <time>2019-05-08T12:31:57Z</time>
      </trkpt>
      <trkpt lat="53.782797027379274" lon="10.443507023155689">
        <ele>50.609999999999999</ele>
        <time>2019-05-08T12:31:58Z</time>
      </trkpt>
      <trkpt lat="53.782797027379274" lon="10.443351035937667">
        <ele>50.609999999999999</ele>
        <time>2019-05-08T12:31:59Z</time>
      </trkpt>
      <trkpt lat="53.782797027379274" lon="10.44320703484118">
        <ele>51.090000000000003</ele>
        <time>2019-05-08T12:32:00Z</time>
      </trkpt>
      <trkpt lat="53.782797027379274" lon="10.443088011816144">
        <ele>51.090000000000003</ele>
        <time>2019-05-08T12:32:01Z</time>
      </trkpt>
      <trkpt lat="53.782713040709496" lon="10.442984998226166">
        <ele>50.609999999999999</ele>
        <time>2019-05-08T12:32:02Z</time>
      </trkpt>
      <trkpt lat="53.782642967998981" lon="10.442991033196449">
        <ele>50.609999999999999</ele>
        <time>2019-05-08T12:32:03Z</time>
      </trkpt>
      <trkpt lat="53.782560992985964" lon="10.442998996004462">
        <ele>50.130000000000003</ele>
        <time>2019-05-08T12:32:04Z</time>
      </trkpt>
      <trkpt lat="53.78246502019465" lon="10.442945016548038">
        <ele>50.130000000000003</ele>
        <time>2019-05-08T12:32:05Z</time>
      </trkpt>
      <trkpt lat="53.782368041574955" lon="10.442891037091613">
        <ele>49.649999999999999</ele>
        <time>2019-05-08T12:32:06Z</time>
      </trkpt>
      <trkpt lat="53.782277014106512" lon="10.442776959389448">
        <ele>49.649999999999999</ele>
        <time>2019-05-08T12:32:07Z</time>
      </trkpt>
      <trkpt lat="53.782180035486817" lon="10.442656008526683">
        <ele>49.649999999999999</ele>
        <time>2019-05-08T12:32:08Z</time>
      </trkpt>
      <trkpt lat="53.782077021896839" lon="10.442543020471931">
        <ele>49.159999999999997</ele>
        <time>2019-05-08T12:32:09Z</time>
      </trkpt>
      <trkpt lat="53.781966967508197" lon="10.442454004660249">
        <ele>49.159999999999997</ele>
        <time>2019-05-08T12:32:10Z</time>
      </trkpt>
      <trkpt lat="53.781847022473812" lon="10.442400025203824">
        <ele>48.68</ele>
        <time>2019-05-08T12:32:11Z</time>
      </trkpt>
      <trkpt lat="53.781716013327241" lon="10.442404970526695">
        <ele>48.68</ele>
        <time>2019-05-08T12:32:12Z</time>
      </trkpt>
      <trkpt lat="53.781578969210386" lon="10.442409999668598">
        <ele>48.200000000000003</ele>
        <time>2019-05-08T12:32:13Z</time>
      </trkpt>
      <trkpt lat="53.780432995408773" lon="10.442332969978452">
        <ele>45.32</ele>
        <time>2019-05-08T12:32:21Z</time>
      </trkpt>
      <trkpt lat="53.779134973883629" lon="10.442565986886621">
        <ele>44.840000000000003</ele>
        <time>2019-05-08T12:32:29Z</time>
      </trkpt>
      <trkpt lat="53.778006015345454" lon="10.442718034610152">
        <ele>45.32</ele>
        <time>2019-05-08T12:32:35Z</time>
      </trkpt>
      <trkpt lat="53.777813985943794" lon="10.442626001313329">
        <ele>45.32</ele>
        <time>2019-05-08T12:32:36Z</time>
      </trkpt>
      <trkpt lat="53.776104999706149" lon="10.441814968362451">
        <ele>41.950000000000003</ele>
        <time>2019-05-08T12:32:44Z</time>
      </trkpt>
      <trkpt lat="53.7748400028795" lon="10.441197976469994">
        <ele>38.109999999999999</ele>
        <time>2019-05-08T12:32:51Z</time>
      </trkpt>
      <trkpt lat="53.77309899777174" lon="10.440331036224961">
        <ele>33.780000000000001</ele>
        <time>2019-05-08T12:33:02Z</time>
      </trkpt>
      <trkpt lat="53.771711038425565" lon="10.439655035734177">
        <ele>34.259999999999998</ele>
        <time>2019-05-08T12:33:11Z</time>
      </trkpt>
      <trkpt lat="53.771561002358794" lon="10.439501982182264">
        <ele>34.259999999999998</ele>
        <time>2019-05-08T12:33:12Z</time>
      </trkpt>
      <trkpt lat="53.77140199765563" lon="10.439336020499468">
        <ele>34.259999999999998</ele>
        <time>2019-05-08T12:33:13Z</time>
      </trkpt>
      <trkpt lat="53.771238969638944" lon="10.439166035503149">
        <ele>34.259999999999998</ele>
        <time>2019-05-08T12:33:14Z</time>
      </trkpt>
      <trkpt lat="53.771091029047966" lon="10.438949028030038">
        <ele>34.259999999999998</ele>
        <time>2019-05-08T12:33:15Z</time>
      </trkpt>
      <trkpt lat="53.770952979102731" lon="10.438690027222037">
        <ele>34.740000000000002</ele>
        <time>2019-05-08T12:33:16Z</time>
      </trkpt>
      <trkpt lat="53.770844014361501" lon="10.438388027250767">
        <ele>34.740000000000002</ele>
        <time>2019-05-08T12:33:17Z</time>
      </trkpt>
      <trkpt lat="53.770746029913425" lon="10.438071023672819">
        <ele>35.229999999999997</ele>
        <time>2019-05-08T12:33:18Z</time>
      </trkpt>
      <trkpt lat="53.770666988566518" lon="10.437746979296207">
        <ele>35.229999999999997</ele>
        <time>2019-05-08T12:33:19Z</time>
      </trkpt>
      <trkpt lat="53.770244959741831" lon="10.435948977246881">
        <ele>35.229999999999997</ele>
        <time>2019-05-08T12:33:26Z</time>
      </trkpt>
      <trkpt lat="53.769583962857723" lon="10.433078007772565">
        <ele>35.229999999999997</ele>
        <time>2019-05-08T12:33:40Z</time>
      </trkpt>
      <trkpt lat="53.769098985940218" lon="10.43111396022141">
        <ele>33.780000000000001</ele>
        <time>2019-05-08T12:33:47Z</time>
      </trkpt>
      <trkpt lat="53.768994966521859" lon="10.430817995220423">
        <ele>33.780000000000001</ele>
        <time>2019-05-08T12:33:48Z</time>
      </trkpt>
      <trkpt lat="53.76871501095593" lon="10.430273003876209">
        <ele>32.82</ele>
        <time>2019-05-08T12:33:50Z</time>
      </trkpt>
      <trkpt lat="53.767882017418742" lon="10.428947992622852">
        <ele>31.859999999999999</ele>
        <time>2019-05-08T12:33:56Z</time>
      </trkpt>
      <trkpt lat="53.767764000222087" lon="10.428876997902989">
        <ele>31.859999999999999</ele>
        <time>2019-05-08T12:33:57Z</time>
      </trkpt>
      <trkpt lat="53.76764103770256" lon="10.428822012618184">
        <ele>31.859999999999999</ele>
        <time>2019-05-08T12:33:58Z</time>
      </trkpt>
      <trkpt lat="53.767529977485538" lon="10.428876997902989">
        <ele>32.340000000000003</ele>
        <time>2019-05-08T12:33:59Z</time>
      </trkpt>
      <trkpt lat="53.767393017187715" lon="10.428965007886291">
        <ele>32.340000000000003</ele>
        <time>2019-05-08T12:34:00Z</time>
      </trkpt>
      <trkpt lat="53.767265025526285" lon="10.429108003154397">
        <ele>32.340000000000003</ele>
        <time>2019-05-08T12:34:01Z</time>
      </trkpt>
      <trkpt lat="53.767138961702585" lon="10.429314030334353">
        <ele>32.82</ele>
        <time>2019-05-08T12:34:02Z</time>
      </trkpt>
      <trkpt lat="53.76600899733603" lon="10.431056963279843">
        <ele>34.259999999999998</ele>
        <time>2019-05-08T12:34:09Z</time>
      </trkpt>
      <trkpt lat="53.764055008068681" lon="10.433854004368186">
        <ele>32.82</ele>
        <time>2019-05-08T12:34:19Z</time>
      </trkpt>
      <trkpt lat="53.763157976791263" lon="10.435552010312676">
        <ele>29.940000000000001</ele>
        <time>2019-05-08T12:34:26Z</time>
      </trkpt>
      <trkpt lat="53.762755980715156" lon="10.436218036338687">
        <ele>28.02</ele>
        <time>2019-05-08T12:34:30Z</time>
      </trkpt>
      <trkpt lat="53.762648021802306" lon="10.436347033828497">
        <ele>28.02</ele>
        <time>2019-05-08T12:34:31Z</time>
      </trkpt>
      <trkpt lat="53.762536961585283" lon="10.436477037146688">
        <ele>27.530000000000001</ele>
        <time>2019-05-08T12:34:32Z</time>
      </trkpt>
      <trkpt lat="53.762410981580615" lon="10.436522969976068">
        <ele>28.02</ele>
        <time>2019-05-08T12:34:33Z</time>
      </trkpt>
      <trkpt lat="53.762283995747566" lon="10.436568986624479">
        <ele>28.02</ele>
        <time>2019-05-08T12:34:34Z</time>
      </trkpt>
      <trkpt lat="53.762154998257756" lon="10.436616009101272">
        <ele>28.02</ele>
        <time>2019-05-08T12:34:35Z</time>
      </trkpt>
      <trkpt lat="53.762023989111185" lon="10.436663031578064">
        <ele>28.5</ele>
        <time>2019-05-08T12:34:36Z</time>
      </trkpt>
      <trkpt lat="53.761892979964614" lon="10.436710976064205">
        <ele>28.5</ele>
        <time>2019-05-08T12:34:37Z</time>
      </trkpt>
      <trkpt lat="53.761774962767959" lon="10.436802003532648">
        <ele>28.98</ele>
        <time>2019-05-08T12:34:38Z</time>
      </trkpt>
      <trkpt lat="53.761664992198348" lon="10.436932006850839">
        <ele>28.98</ele>
        <time>2019-05-08T12:34:39Z</time>
      </trkpt>
      <trkpt lat="53.761557033285499" lon="10.437061004340649">
        <ele>28.98</ele>
        <time>2019-05-08T12:34:40Z</time>
      </trkpt>
      <trkpt lat="53.761459970846772" lon="10.437208022922277">
        <ele>28.98</ele>
        <time>2019-05-08T12:34:41Z</time>
      </trkpt>
      <trkpt lat="53.761371960863471" lon="10.437401980161667">
        <ele>28.98</ele>
        <time>2019-05-08T12:34:42Z</time>
      </trkpt>
      <trkpt lat="53.761280011385679" lon="10.437607001513243">
        <ele>28.98</ele>
        <time>2019-05-08T12:34:43Z</time>
      </trkpt>
      <trkpt lat="53.76050803810358" lon="10.439466023817658">
        <ele>28.98</ele>
        <time>2019-05-08T12:34:50Z</time>
      </trkpt>
      <trkpt lat="53.759163999930024" lon="10.442808978259563">
        <ele>32.82</ele>
        <time>2019-05-08T12:35:00Z</time>
      </trkpt>
      <trkpt lat="53.758352966979146" lon="10.445151971653104">
        <ele>38.109999999999999</ele>
        <time>2019-05-08T12:35:07Z</time>
      </trkpt>
      <trkpt lat="53.758266968652606" lon="10.445411978289485">
        <ele>38.590000000000003</ele>
        <time>2019-05-08T12:35:08Z</time>
      </trkpt>
      <trkpt lat="53.757334984838963" lon="10.44769998639822">
        <ele>42.920000000000002</ele>
        <time>2019-05-08T12:35:18Z</time>
      </trkpt>
      <trkpt lat="53.757014041766524" lon="10.448386967182159">
        <ele>43.880000000000003</ele>
        <time>2019-05-08T12:35:21Z</time>
      </trkpt>
      <trkpt lat="53.756887977942824" lon="10.448590982705355">
        <ele>43.880000000000003</ele>
        <time>2019-05-08T12:35:22Z</time>
      </trkpt>
      <trkpt lat="53.756756968796253" lon="10.448777982965112">
        <ele>43.880000000000003</ele>
        <time>2019-05-08T12:35:23Z</time>
      </trkpt>
      <trkpt lat="53.75659603625536" lon="10.448917038738728">
        <ele>43.399999999999999</ele>
        <time>2019-05-08T12:35:24Z</time>
      </trkpt>
      <trkpt lat="53.756429990753531" lon="10.449060034006834">
        <ele>43.399999999999999</ele>
        <time>2019-05-08T12:35:25Z</time>
      </trkpt>
      <trkpt lat="53.756266040727496" lon="10.449198000133038">
        <ele>43.880000000000003</ele>
        <time>2019-05-08T12:35:27Z</time>
      </trkpt>
      <trkpt lat="53.754674987867475" lon="10.450508007779717">
        <ele>42.439999999999998</ele>
        <time>2019-05-08T12:35:37Z</time>
      </trkpt>
      <trkpt lat="53.754554037004709" lon="10.450645973905921">
        <ele>41.950000000000003</ele>
        <time>2019-05-08T12:35:38Z</time>
      </trkpt>
      <trkpt lat="53.75442897900939" lon="10.450788969174027">
        <ele>41.469999999999999</ele>
        <time>2019-05-08T12:35:39Z</time>
      </trkpt>
      <trkpt lat="53.753399010747671" lon="10.452193021774292">
        <ele>36.670000000000002</ele>
        <time>2019-05-08T12:35:48Z</time>
      </trkpt>
      <trkpt lat="53.753114026039839" lon="10.452595017850399">
        <ele>35.229999999999997</ele>
        <time>2019-05-08T12:35:51Z</time>
      </trkpt>
      <trkpt lat="53.752919984981418" lon="10.452844966202974">
        <ele>34.740000000000002</ele>
        <time>2019-05-08T12:35:53Z</time>
      </trkpt>
      <trkpt lat="53.752809008583426" lon="10.452914033085108">
        <ele>34.740000000000002</ele>
        <time>2019-05-08T12:35:54Z</time>
      </trkpt>
      <trkpt lat="53.752696020528674" lon="10.452985027804971">
        <ele>34.259999999999998</ele>
        <time>2019-05-08T12:35:55Z</time>
      </trkpt>
      <trkpt lat="53.752579009160399" lon="10.453042024746537">
        <ele>34.259999999999998</ele>
        <time>2019-05-08T12:35:56Z</time>
      </trkpt>
      <trkpt lat="53.752456968650222" lon="10.45304998755455">
        <ele>33.780000000000001</ele>
        <time>2019-05-08T12:35:57Z</time>
      </trkpt>
      <trkpt lat="53.752333000302315" lon="10.453058034181595">
        <ele>33.780000000000001</ele>
        <time>2019-05-08T12:35:58Z</time>
      </trkpt>
      <trkpt lat="53.752205008640885" lon="10.453047975897789">
        <ele>33.780000000000001</ele>
        <time>2019-05-08T12:35:59Z</time>
      </trkpt>
      <trkpt lat="53.752079028636217" lon="10.453017968684435">
        <ele>33.780000000000001</ele>
        <time>2019-05-08T12:36:00Z</time>
      </trkpt>
      <trkpt lat="53.750843033194542" lon="10.452723009511828">
        <ele>34.259999999999998</ele>
        <time>2019-05-08T12:36:10Z</time>
      </trkpt>
      <trkpt lat="53.749378966167569" lon="10.452332999557257">
        <ele>32.82</ele>
        <time>2019-05-08T12:36:22Z</time>
      </trkpt>
      <trkpt lat="53.748639011755586" lon="10.452137030661106">
        <ele>32.340000000000003</ele>
        <time>2019-05-08T12:36:28Z</time>
      </trkpt>
      <trkpt lat="53.74851998873055" lon="10.452067963778973">
        <ele>32.340000000000003</ele>
        <time>2019-05-08T12:36:29Z</time>
      </trkpt>
      <trkpt lat="53.748396020382643" lon="10.451995963230729">
        <ele>32.340000000000003</ele>
        <time>2019-05-08T12:36:30Z</time>
      </trkpt>
      <trkpt lat="53.748279009014368" lon="10.451927985996008">
        <ele>32.82</ele>
        <time>2019-05-08T12:36:31Z</time>
      </trkpt>
      <trkpt lat="53.748163003474474" lon="10.451861014589667">
        <ele>32.82</ele>
        <time>2019-05-08T12:36:32Z</time>
      </trkpt>
      <trkpt lat="53.747312994673848" lon="10.451073031872511">
        <ele>34.259999999999998</ele>
        <time>2019-05-08T12:36:39Z</time>
      </trkpt>
      <trkpt lat="53.745988989248872" lon="10.449750032275915">
        <ele>35.710000000000001</ele>
        <time>2019-05-08T12:36:47Z</time>
      </trkpt>
      <trkpt lat="53.744290983304381" lon="10.448211031034589">
        <ele>35.710000000000001</ele>
        <time>2019-05-08T12:36:56Z</time>
      </trkpt>
      <trkpt lat="53.742404971271753" lon="10.446487963199615">
        <ele>37.630000000000003</ele>
        <time>2019-05-08T12:37:06Z</time>
      </trkpt>
      <trkpt lat="53.740679975599051" lon="10.444429032504559">
        <ele>39.07</ele>
        <time>2019-05-08T12:37:16Z</time>
      </trkpt>
      <trkpt lat="53.738943999633193" lon="10.442080004140735">
        <ele>39.07</ele>
        <time>2019-05-08T12:37:27Z</time>
      </trkpt>
      <trkpt lat="53.738080998882651" lon="10.441373996436596">
        <ele>40.030000000000001</ele>
        <time>2019-05-08T12:37:32Z</time>
      </trkpt>
      <trkpt lat="53.737897016108036" lon="10.441292021423578">
        <ele>40.030000000000001</ele>
        <time>2019-05-08T12:37:33Z</time>
      </trkpt>
      <trkpt lat="53.737702975049615" lon="10.441249022260308">
        <ele>40.030000000000001</ele>
        <time>2019-05-08T12:37:34Z</time>
      </trkpt>
      <trkpt lat="53.737514968961477" lon="10.441208034753799">
        <ele>40.509999999999998</ele>
        <time>2019-05-08T12:37:35Z</time>
      </trkpt>
      <trkpt lat="53.737343978136778" lon="10.441195964813232">
        <ele>40.509999999999998</ele>
        <time>2019-05-08T12:37:36Z</time>
      </trkpt>
      <trkpt lat="53.736437978222966" lon="10.441308030858636">
        <ele>41.469999999999999</ele>
        <time>2019-05-08T12:37:43Z</time>
      </trkpt>
      <trkpt lat="53.735557040199637" lon="10.441281963139772">
        <ele>43.399999999999999</ele>
        <time>2019-05-08T12:37:50Z</time>
      </trkpt>
      <trkpt lat="53.734528999775648" lon="10.440560029819608">
        <ele>43.399999999999999</ele>
        <time>2019-05-08T12:37:59Z</time>
      </trkpt>
      <trkpt lat="53.733624005690217" lon="10.439737010747194">
        <ele>44.359999999999999</ele>
        <time>2019-05-08T12:38:08Z</time>
      </trkpt>
      <trkpt lat="53.733572037890553" lon="10.439658975228667">
        <ele>44.840000000000003</ele>
        <time>2019-05-08T12:38:09Z</time>
      </trkpt>
      <trkpt lat="53.733525015413761" lon="10.439589992165565">
        <ele>45.32</ele>
        <time>2019-05-08T12:38:10Z</time>
      </trkpt>
      <trkpt lat="53.733509005978703" lon="10.439465017989278">
        <ele>45.799999999999997</ele>
        <time>2019-05-08T12:38:11Z</time>
      </trkpt>
      <trkpt lat="53.733509005978703" lon="10.439333003014326">
        <ele>45.799999999999997</ele>
        <time>2019-05-08T12:38:12Z</time>
      </trkpt>
      <trkpt lat="53.733509005978703" lon="10.439173998311162">
        <ele>46.280000000000001</ele>
        <time>2019-05-08T12:38:13Z</time>
      </trkpt>
      <trkpt lat="53.733509005978703" lon="10.43811796233058">
        <ele>46.759999999999998</ele>
        <time>2019-05-08T12:38:18Z</time>
      </trkpt>
      <trkpt lat="53.733299961313605" lon="10.435817968100309">
        <ele>45.799999999999997</ele>
        <time>2019-05-08T12:38:29Z</time>
      </trkpt>
      <trkpt lat="53.733313959091902" lon="10.435610013082623">
        <ele>45.799999999999997</ele>
        <time>2019-05-08T12:38:30Z</time>
      </trkpt>
      <trkpt lat="53.73332804068923" lon="10.435401974245906">
        <ele>45.799999999999997</ele>
        <time>2019-05-08T12:38:31Z</time>
      </trkpt>
      <trkpt lat="53.733342038467526" lon="10.435189995914698">
        <ele>45.799999999999997</ele>
        <time>2019-05-08T12:38:32Z</time>
      </trkpt>
      <trkpt lat="53.733356036245823" lon="10.434980029240251">
        <ele>45.799999999999997</ele>
        <time>2019-05-08T12:38:33Z</time>
      </trkpt>
      <trkpt lat="53.733384031802416" lon="10.434565963223577">
        <ele>45.799999999999997</ele>
        <time>2019-05-08T12:38:35Z</time>
      </trkpt>
      <trkpt lat="53.733398029580712" lon="10.434361025691032">
        <ele>45.799999999999997</ele>
        <time>2019-05-08T12:38:36Z</time>
      </trkpt>
      <trkpt lat="53.733368022367358" lon="10.434160027652979">
        <ele>45.799999999999997</ele>
        <time>2019-05-08T12:38:37Z</time>
      </trkpt>
      <trkpt lat="53.733325023204088" lon="10.433967998251319">
        <ele>45.799999999999997</ele>
        <time>2019-05-08T12:38:38Z</time>
      </trkpt>
      <trkpt lat="53.733272971585393" lon="10.433784015476704">
        <ele>45.799999999999997</ele>
        <time>2019-05-08T12:38:39Z</time>
      </trkpt>
      <trkpt lat="53.733200971037149" lon="10.433615036308765">
        <ele>45.799999999999997</ele>
        <time>2019-05-08T12:38:40Z</time>
      </trkpt>
      <trkpt lat="53.733128970488906" lon="10.433444967493415">
        <ele>45.799999999999997</ele>
        <time>2019-05-08T12:38:41Z</time>
      </trkpt>
      <trkpt lat="53.733058981597424" lon="10.433277999982238">
        <ele>45.799999999999997</ele>
        <time>2019-05-08T12:38:42Z</time>
      </trkpt>
      <trkpt lat="53.732801992446184" lon="10.43231500312686">
        <ele>45.799999999999997</ele>
        <time>2019-05-08T12:38:47Z</time>
      </trkpt>
      <trkpt lat="53.732800986617804" lon="10.432106964290142">
        <ele>45.32</ele>
        <time>2019-05-08T12:38:48Z</time>
      </trkpt>
      <trkpt lat="53.732800986617804" lon="10.431902026757598">
        <ele>45.32</ele>
        <time>2019-05-08T12:38:49Z</time>
      </trkpt>
      <trkpt lat="53.732806015759706" lon="10.431700022891164">
        <ele>44.840000000000003</ele>
        <time>2019-05-08T12:38:50Z</time>
      </trkpt>
      <trkpt lat="53.732833005487919" lon="10.431497013196349">
        <ele>44.840000000000003</ele>
        <time>2019-05-08T12:38:51Z</time>
      </trkpt>
      <trkpt lat="53.732859995216131" lon="10.431298026815057">
        <ele>44.840000000000003</ele>
        <time>2019-05-08T12:38:52Z</time>
      </trkpt>
      <trkpt lat="53.732887990772724" lon="10.431098034605384">
        <ele>44.840000000000003</ele>
        <time>2019-05-08T12:38:53Z</time>
      </trkpt>
      <trkpt lat="53.732913974672556" lon="10.430903993546963">
        <ele>44.840000000000003</ele>
        <time>2019-05-08T12:38:54Z</time>
      </trkpt>
      <trkpt lat="53.732915986329317" lon="10.430742977187037">
        <ele>44.840000000000003</ele>
        <time>2019-05-08T12:38:55Z</time>
      </trkpt>
      <trkpt lat="53.732868963852525" lon="10.430585984140635">
        <ele>44.840000000000003</ele>
        <time>2019-05-08T12:38:56Z</time>
      </trkpt>
      <trkpt lat="53.732800986617804" lon="10.43036000803113">
        <ele>44.840000000000003</ele>
        <time>2019-05-08T12:38:57Z</time>
      </trkpt>
      <trkpt lat="53.732751030474901" lon="10.430267974734306">
        <ele>45.32</ele>
        <time>2019-05-08T12:38:58Z</time>
      </trkpt>
      <trkpt lat="53.732670983299613" lon="10.430121961981058">
        <ele>45.32</ele>
        <time>2019-05-08T12:38:59Z</time>
      </trkpt>
      <trkpt lat="53.732352973893285" lon="10.429537994787097">
        <ele>45.799999999999997</ele>
        <time>2019-05-08T12:39:03Z</time>
      </trkpt>
      <trkpt lat="53.732281979173422" lon="10.429391982033849">
        <ele>45.799999999999997</ele>
        <time>2019-05-08T12:39:04Z</time>
      </trkpt>
      <trkpt lat="53.732249038293958" lon="10.429217973724008">
        <ele>45.799999999999997</ele>
        <time>2019-05-08T12:39:05Z</time>
      </trkpt>
      <trkpt lat="53.732136972248554" lon="10.428658984601498">
        <ele>46.280000000000001</ele>
        <time>2019-05-08T12:39:08Z</time>
      </trkpt>
      <trkpt lat="53.732080981135368" lon="10.428466033190489">
        <ele>46.280000000000001</ele>
        <time>2019-05-08T12:39:09Z</time>
      </trkpt>
      <trkpt lat="53.732023984193802" lon="10.428267968818545">
        <ele>46.280000000000001</ele>
        <time>2019-05-08T12:39:10Z</time>
      </trkpt>
      <trkpt lat="53.731967993080616" lon="10.428075017407537">
        <ele>46.280000000000001</ele>
        <time>2019-05-08T12:39:11Z</time>
      </trkpt>
      <trkpt lat="53.731909990310669" lon="10.427884999662638">
        <ele>46.280000000000001</ele>
        <time>2019-05-08T12:39:12Z</time>
      </trkpt>
      <trkpt lat="53.731600027531385" lon="10.426984028890729">
        <ele>47.240000000000002</ele>
        <time>2019-05-08T12:39:17Z</time>
      </trkpt>
      <trkpt lat="53.731558034196496" lon="10.426784958690405">
        <ele>47.240000000000002</ele>
        <time>2019-05-08T12:39:18Z</time>
      </trkpt>
      <trkpt lat="53.731515035033226" lon="10.426584966480732">
        <ele>47.719999999999999</ele>
        <time>2019-05-08T12:39:19Z</time>
      </trkpt>
      <trkpt lat="53.73146197758615" lon="10.426392015069723">
        <ele>48.200000000000003</ele>
        <time>2019-05-08T12:39:20Z</time>
      </trkpt>
      <trkpt lat="53.731394000351429" lon="10.426205014809966">
        <ele>48.200000000000003</ele>
        <time>2019-05-08T12:39:21Z</time>
      </trkpt>
      <trkpt lat="53.731319988146424" lon="10.426003010943532">
        <ele>48.68</ele>
        <time>2019-05-08T12:39:22Z</time>
      </trkpt>
      <trkpt lat="53.731208005920053" lon="10.425846017897129">
        <ele>49.159999999999997</ele>
        <time>2019-05-08T12:39:23Z</time>
      </trkpt>
      <trkpt lat="53.731080014258623" lon="10.425683995708823">
        <ele>49.649999999999999</ele>
        <time>2019-05-08T12:39:24Z</time>
      </trkpt>
      <trkpt lat="53.730931989848614" lon="10.42557000182569">
        <ele>50.130000000000003</ele>
        <time>2019-05-08T12:39:25Z</time>
      </trkpt>
      <trkpt lat="53.730786982923746" lon="10.425464976578951">
        <ele>51.090000000000003</ele>
        <time>2019-05-08T12:39:26Z</time>
      </trkpt>
      <trkpt lat="53.729429030790925" lon="10.424656961113214">
        <ele>54.450000000000003</ele>
        <time>2019-05-08T12:39:34Z</time>
      </trkpt>
      <trkpt lat="53.727104980498552" lon="10.423031039535999">
        <ele>59.740000000000002</ele>
        <time>2019-05-08T12:39:47Z</time>
      </trkpt>
      <trkpt lat="53.726051039993763" lon="10.422048009932041">
        <ele>61.18</ele>
        <time>2019-05-08T12:39:53Z</time>
      </trkpt>
      <trkpt lat="53.725892035290599" lon="10.421797977760434">
        <ele>61.659999999999997</ele>
        <time>2019-05-08T12:39:54Z</time>
      </trkpt>
      <trkpt lat="53.725730013102293" lon="10.421541994437575">
        <ele>62.140000000000001</ele>
        <time>2019-05-08T12:39:55Z</time>
      </trkpt>
      <trkpt lat="53.725565979257226" lon="10.421283999457955">
        <ele>62.619999999999997</ele>
        <time>2019-05-08T12:39:56Z</time>
      </trkpt>
      <trkpt lat="53.72542298398912" lon="10.420989040285349">
        <ele>63.100000000000001</ele>
        <time>2019-05-08T12:39:57Z</time>
      </trkpt>
      <trkpt lat="53.725304966792464" lon="10.420664995908737">
        <ele>63.579999999999998</ele>
        <time>2019-05-08T12:39:58Z</time>
      </trkpt>
      <trkpt lat="53.72520798817277" lon="10.420321002602577">
        <ele>64.069999999999993</ele>
        <time>2019-05-08T12:39:59Z</time>
      </trkpt>
      <trkpt lat="53.725131964311004" lon="10.419953037053347">
        <ele>64.549999999999997</ele>
        <time>2019-05-08T12:40:00Z</time>
      </trkpt>
      <trkpt lat="53.724426040425897" lon="10.416767997667193">
        <ele>67.909999999999997</ele>
        <time>2019-05-08T12:40:09Z</time>
      </trkpt>
      <trkpt lat="53.724291007965803" lon="10.416516037657857">
        <ele>67.430000000000007</ele>
        <time>2019-05-08T12:40:10Z</time>
      </trkpt>
      <trkpt lat="53.724149018526077" lon="10.416251001879573">
        <ele>67.430000000000007</ele>
        <time>2019-05-08T12:40:11Z</time>
      </trkpt>
      <trkpt lat="53.724007029086351" lon="10.41598797775805">
        <ele>66.950000000000003</ele>
        <time>2019-05-08T12:40:12Z</time>
      </trkpt>
      <trkpt lat="53.723890017718077" lon="10.415720008313656">
        <ele>66.950000000000003</ele>
        <time>2019-05-08T12:40:13Z</time>
      </trkpt>
      <trkpt lat="53.723834026604891" lon="10.415407028049231">
        <ele>66.950000000000003</ele>
        <time>2019-05-08T12:40:14Z</time>
      </trkpt>
      <trkpt lat="53.72378901578486" lon="10.415092958137393">
        <ele>67.430000000000007</ele>
        <time>2019-05-08T12:40:15Z</time>
      </trkpt>
      <trkpt lat="53.723745010793209" lon="10.414790036156774">
        <ele>67.909999999999997</ele>
        <time>2019-05-08T12:40:16Z</time>
      </trkpt>
      <trkpt lat="53.723678961396217" lon="10.414527012035251">
        <ele>67.909999999999997</ele>
        <time>2019-05-08T12:40:17Z</time>
      </trkpt>
      <trkpt lat="53.723592041060328" lon="10.414284020662308">
        <ele>68.390000000000001</ele>
        <time>2019-05-08T12:40:18Z</time>
      </trkpt>
      <trkpt lat="53.72348902747035" lon="10.414070030674338">
        <ele>69.349999999999994</ele>
        <time>2019-05-08T12:40:19Z</time>
      </trkpt>
      <trkpt lat="53.723333040252328" lon="10.413899961858988">
        <ele>69.829999999999998</ele>
        <time>2019-05-08T12:40:20Z</time>
      </trkpt>
      <trkpt lat="53.723171018064022" lon="10.413723019883037">
        <ele>70.310000000000002</ele>
        <time>2019-05-08T12:40:21Z</time>
      </trkpt>
      <trkpt lat="53.722998015582561" lon="10.413533002138138">
        <ele>71.269999999999996</ele>
        <time>2019-05-08T12:40:22Z</time>
      </trkpt>
      <trkpt lat="53.721230020746589" lon="10.411601979285479">
        <ele>77.040000000000006</ele>
        <time>2019-05-08T12:40:31Z</time>
      </trkpt>
      <trkpt lat="53.720039036124945" lon="10.410301024094224">
        <ele>78.969999999999999</ele>
        <time>2019-05-08T12:40:38Z</time>
      </trkpt>
      <trkpt lat="53.719640979543328" lon="10.409778999164701">
        <ele>79.450000000000003</ele>
        <time>2019-05-08T12:40:42Z</time>
      </trkpt>
      <trkpt lat="53.719561016187072" lon="10.409645978361368">
        <ele>79.450000000000003</ele>
        <time>2019-05-08T12:40:43Z</time>
      </trkpt>
      <trkpt lat="53.7194490339607" lon="10.409329980611801">
        <ele>79.930000000000007</ele>
        <time>2019-05-08T12:40:45Z</time>
      </trkpt>
      <trkpt lat="53.719338979572058" lon="10.408989004790783">
        <ele>79.930000000000007</ele>
        <time>2019-05-08T12:40:47Z</time>
      </trkpt>
      <trkpt lat="53.719267984852195" lon="10.408800998702645">
        <ele>79.930000000000007</ele>
        <time>2019-05-08T12:40:48Z</time>
      </trkpt>
      <trkpt lat="53.719156002625823" lon="10.408683987334371">
        <ele>79.930000000000007</ele>
        <time>2019-05-08T12:40:49Z</time>
      </trkpt>
      <trkpt lat="53.718630038201809" lon="10.408132039010525">
        <ele>80.409999999999997</ele>
        <time>2019-05-08T12:40:54Z</time>
      </trkpt>
      <trkpt lat="53.718541022390127" lon="10.408038999885321">
        <ele>80.890000000000001</ele>
        <time>2019-05-08T12:40:55Z</time>
      </trkpt>
      <trkpt lat="53.718442032113671" lon="10.407934980466962">
        <ele>80.890000000000001</ele>
        <time>2019-05-08T12:40:56Z</time>
      </trkpt>
      <trkpt lat="53.718338012695313" lon="10.407849987968802">
        <ele>80.890000000000001</ele>
        <time>2019-05-08T12:40:57Z</time>
      </trkpt>
      <trkpt lat="53.718214966356754" lon="10.407787039875984">
        <ele>80.890000000000001</ele>
        <time>2019-05-08T12:40:58Z</time>
      </trkpt>
      <trkpt lat="53.718085968866944" lon="10.407720990478992">
        <ele>80.890000000000001</ele>
        <time>2019-05-08T12:40:59Z</time>
      </trkpt>
      <trkpt lat="53.717402005568147" lon="10.407362999394536">
        <ele>79.930000000000007</ele>
        <time>2019-05-08T12:41:04Z</time>
      </trkpt>
      <trkpt lat="53.717287005856633" lon="10.407226961106062">
        <ele>78.969999999999999</ele>
        <time>2019-05-08T12:41:05Z</time>
      </trkpt>
      <trkpt lat="53.71717200614512" lon="10.407092012465">
        <ele>78.480000000000004</ele>
        <time>2019-05-08T12:41:06Z</time>
      </trkpt>
      <trkpt lat="53.717053988948464" lon="10.406953962519765">
        <ele>77.519999999999996</ele>
        <time>2019-05-08T12:41:07Z</time>
      </trkpt>
      <trkpt lat="53.716935971751809" lon="10.406814990565181">
        <ele>77.040000000000006</ele>
        <time>2019-05-08T12:41:08Z</time>
      </trkpt>
      <trkpt lat="53.71635602787137" lon="10.406156005337834">
        <ele>74.159999999999997</ele>
        <time>2019-05-08T12:41:13Z</time>
      </trkpt>
      <trkpt lat="53.716235999017954" lon="10.406047962605953">
        <ele>73.680000000000007</ele>
        <time>2019-05-08T12:41:14Z</time>
      </trkpt>
      <trkpt lat="53.7158830370754" lon="10.405802959576249">
        <ele>72.719999999999999</ele>
        <time>2019-05-08T12:41:17Z</time>
      </trkpt>
      <trkpt lat="53.715770971029997" lon="10.405690977349877">
        <ele>72.239999999999995</ele>
        <time>2019-05-08T12:41:18Z</time>
      </trkpt>
      <trkpt lat="53.715656977146864" lon="10.405576983466744">
        <ele>71.269999999999996</ele>
        <time>2019-05-08T12:41:19Z</time>
      </trkpt>
      <trkpt lat="53.715549018234015" lon="10.405397024005651">
        <ele>70.790000000000006</ele>
        <time>2019-05-08T12:41:20Z</time>
      </trkpt>
      <trkpt lat="53.715470982715487" lon="10.40520197711885">
        <ele>70.310000000000002</ele>
        <time>2019-05-08T12:41:21Z</time>
      </trkpt>
      <trkpt lat="53.715384984388947" lon="10.404994022101164">
        <ele>69.829999999999998</ele>
        <time>2019-05-08T12:41:22Z</time>
      </trkpt>
      <trkpt lat="53.714460963383317" lon="10.402895025908947">
        <ele>62.619999999999997</ele>
        <time>2019-05-08T12:41:31Z</time>
      </trkpt>
      <trkpt lat="53.713408028706908" lon="10.401244964450598">
        <ele>56.859999999999999</ele>
        <time>2019-05-08T12:41:37Z</time>
      </trkpt>
      <trkpt lat="53.712237998843193" lon="10.399820962920785">
        <ele>54.450000000000003</ele>
        <time>2019-05-08T12:41:43Z</time>
      </trkpt>
      <trkpt lat="53.712090980261564" lon="10.399596998468041">
        <ele>54.450000000000003</ele>
        <time>2019-05-08T12:41:44Z</time>
      </trkpt>
      <trkpt lat="53.711969023570418" lon="10.39935995824635">
        <ele>53.969999999999999</ele>
        <time>2019-05-08T12:41:45Z</time>
      </trkpt>
      <trkpt lat="53.711906997486949" lon="10.399091988801956">
        <ele>53.969999999999999</ele>
        <time>2019-05-08T12:41:46Z</time>
      </trkpt>
      <trkpt lat="53.711850000545382" lon="10.398811027407646">
        <ele>53.969999999999999</ele>
        <time>2019-05-08T12:41:47Z</time>
      </trkpt>
      <trkpt lat="53.711811024695635" lon="10.398491006344557">
        <ele>53.969999999999999</ele>
        <time>2019-05-08T12:41:48Z</time>
      </trkpt>
      <trkpt lat="53.7115019839257" lon="10.396826025098562">
        <ele>53.490000000000002</ele>
        <time>2019-05-08T12:41:53Z</time>
      </trkpt>
      <trkpt lat="53.711408022791147" lon="10.39652100764215">
        <ele>53.009999999999998</ele>
        <time>2019-05-08T12:41:54Z</time>
      </trkpt>
      <trkpt lat="53.711276007816195" lon="10.396272987127304">
        <ele>53.009999999999998</ele>
        <time>2019-05-08T12:41:55Z</time>
      </trkpt>
      <trkpt lat="53.71111499145627" lon="10.396063020452857">
        <ele>52.530000000000001</ele>
        <time>2019-05-08T12:41:56Z</time>
      </trkpt>
      <trkpt lat="53.710936959832907" lon="10.395895969122648">
        <ele>52.530000000000001</ele>
        <time>2019-05-08T12:41:57Z</time>
      </trkpt>
      <trkpt lat="53.710754988715053" lon="10.395724978297949">
        <ele>52.530000000000001</ele>
        <time>2019-05-08T12:41:58Z</time>
      </trkpt>
      <trkpt lat="53.710034983232617" lon="10.394965996965766">
        <ele>51.57</ele>
        <time>2019-05-08T12:42:02Z</time>
      </trkpt>
      <trkpt lat="53.709882013499737" lon="10.394737003371119">
        <ele>51.57</ele>
        <time>2019-05-08T12:42:03Z</time>
      </trkpt>
      <trkpt lat="53.709278013557196" lon="10.393872996792197">
        <ele>51.57</ele>
        <time>2019-05-08T12:42:07Z</time>
      </trkpt>
      <trkpt lat="53.709108028560877" lon="10.393765959888697">
        <ele>51.57</ele>
        <time>2019-05-08T12:42:08Z</time>
      </trkpt>
      <trkpt lat="53.707792991772294" lon="10.393085014075041">
        <ele>50.130000000000003</ele>
        <time>2019-05-08T12:42:15Z</time>
      </trkpt>
      <trkpt lat="53.707620995119214" lon="10.393089037388563">
        <ele>49.649999999999999</ele>
        <time>2019-05-08T12:42:16Z</time>
      </trkpt>
      <trkpt lat="53.707442963495851" lon="10.393131030723453">
        <ele>49.649999999999999</ele>
        <time>2019-05-08T12:42:17Z</time>
      </trkpt>
      <trkpt lat="53.706924039870501" lon="10.393253993242979">
        <ele>48.68</ele>
        <time>2019-05-08T12:42:20Z</time>
      </trkpt>
      <trkpt lat="53.706760006025434" lon="10.393203031271696">
        <ele>48.200000000000003</ele>
        <time>2019-05-08T12:42:21Z</time>
      </trkpt>
      <trkpt lat="53.706594966351986" lon="10.393136981874704">
        <ele>47.719999999999999</ele>
        <time>2019-05-08T12:42:22Z</time>
      </trkpt>
      <trkpt lat="53.706454988569021" lon="10.393005972728133">
        <ele>47.240000000000002</ele>
        <time>2019-05-08T12:42:23Z</time>
      </trkpt>
      <trkpt lat="53.706316016614437" lon="10.39286800660193">
        <ele>47.240000000000002</ele>
        <time>2019-05-08T12:42:24Z</time>
      </trkpt>
      <trkpt lat="53.706225994974375" lon="10.392683017998934">
        <ele>47.240000000000002</ele>
        <time>2019-05-08T12:42:25Z</time>
      </trkpt>
      <trkpt lat="53.706138990819454" lon="10.392488976940513">
        <ele>47.719999999999999</ele>
        <time>2019-05-08T12:42:26Z</time>
      </trkpt>
      <trkpt lat="53.70604301802814" lon="10.392272975295782">
        <ele>47.719999999999999</ele>
        <time>2019-05-08T12:42:27Z</time>
      </trkpt>
      <trkpt lat="53.705998007208109" lon="10.392080023884773">
        <ele>47.719999999999999</ele>
        <time>2019-05-08T12:42:28Z</time>
      </trkpt>
      <trkpt lat="53.705946039408445" lon="10.39185999892652">
        <ele>47.240000000000002</ele>
        <time>2019-05-08T12:42:29Z</time>
      </trkpt>
      <trkpt lat="53.70589398778975" lon="10.391641985625029">
        <ele>47.240000000000002</ele>
        <time>2019-05-08T12:42:30Z</time>
      </trkpt>
      <trkpt lat="53.705844031646848" lon="10.39143000729382">
        <ele>47.240000000000002</ele>
        <time>2019-05-08T12:42:31Z</time>
      </trkpt>
      <trkpt lat="53.705796003341675" lon="10.391225991770625">
        <ele>47.240000000000002</ele>
        <time>2019-05-08T12:42:32Z</time>
      </trkpt>
      <trkpt lat="53.705773958936334" lon="10.390985012054443">
        <ele>47.719999999999999</ele>
        <time>2019-05-08T12:42:33Z</time>
      </trkpt>
      <trkpt lat="53.705793991684914" lon="10.390760963782668">
        <ele>47.719999999999999</ele>
        <time>2019-05-08T12:42:34Z</time>
      </trkpt>
      <trkpt lat="53.705814024433494" lon="10.390530964359641">
        <ele>47.240000000000002</ele>
        <time>2019-05-08T12:42:35Z</time>
      </trkpt>
      <trkpt lat="53.705834979191422" lon="10.390299037098885">
        <ele>47.240000000000002</ele>
        <time>2019-05-08T12:42:36Z</time>
      </trkpt>
      <trkpt lat="53.705842019990087" lon="10.390070965513587">
        <ele>47.240000000000002</ele>
        <time>2019-05-08T12:42:37Z</time>
      </trkpt>
      <trkpt lat="53.70580698363483" lon="10.389844989404082">
        <ele>47.240000000000002</ele>
        <time>2019-05-08T12:42:38Z</time>
      </trkpt>
      <trkpt lat="53.705771025270224" lon="10.389611972495914">
        <ele>47.240000000000002</ele>
        <time>2019-05-08T12:42:39Z</time>
      </trkpt>
      <trkpt lat="53.70572199113667" lon="10.389392031356692">
        <ele>47.240000000000002</ele>
        <time>2019-05-08T12:42:40Z</time>
      </trkpt>
      <trkpt lat="53.705672034993768" lon="10.389184998348355">
        <ele>46.759999999999998</ele>
        <time>2019-05-08T12:42:41Z</time>
      </trkpt>
      <trkpt lat="53.705572038888931" lon="10.388771016150713">
        <ele>47.240000000000002</ele>
        <time>2019-05-08T12:42:43Z</time>
      </trkpt>
      <trkpt lat="53.705521998926997" lon="10.388561971485615">
        <ele>46.759999999999998</ele>
        <time>2019-05-08T12:42:44Z</time>
      </trkpt>
      <trkpt lat="53.705485034734011" lon="10.388410007581115">
        <ele>47.240000000000002</ele>
        <time>2019-05-08T12:42:45Z</time>
      </trkpt>
      <trkpt lat="53.705475982278585" lon="10.388139020651579">
        <ele>47.240000000000002</ele>
        <time>2019-05-08T12:42:46Z</time>
      </trkpt>
      <trkpt lat="53.705469025298953" lon="10.387917989864945">
        <ele>47.240000000000002</ele>
        <time>2019-05-08T12:42:47Z</time>
      </trkpt>
      <trkpt lat="53.70546399615705" lon="10.38771104067564">
        <ele>46.759999999999998</ele>
        <time>2019-05-08T12:42:48Z</time>
      </trkpt>
      <trkpt lat="53.70546399615705" lon="10.387337040156126">
        <ele>46.280000000000001</ele>
        <time>2019-05-08T12:42:50Z</time>
      </trkpt>
      <trkpt lat="53.705492997542024" lon="10.387182980775833">
        <ele>45.799999999999997</ele>
        <time>2019-05-08T12:42:51Z</time>
      </trkpt>
      <trkpt lat="53.705520993098617" lon="10.387037973850965">
        <ele>45.799999999999997</ele>
        <time>2019-05-08T12:42:52Z</time>
      </trkpt>
      <trkpt lat="53.705546976998448" lon="10.386900007724762">
        <ele>45.32</ele>
        <time>2019-05-08T12:42:53Z</time>
      </trkpt>
      <trkpt lat="53.705595005303621" lon="10.386796994134784">
        <ele>44.840000000000003</ele>
        <time>2019-05-08T12:42:54Z</time>
      </trkpt>
      <trkpt lat="53.705645967274904" lon="10.386693980544806">
        <ele>44.840000000000003</ele>
        <time>2019-05-08T12:42:55Z</time>
      </trkpt>
      <trkpt lat="53.705697013065219" lon="10.386591972783208">
        <ele>44.359999999999999</ele>
        <time>2019-05-08T12:42:56Z</time>
      </trkpt>
      <trkpt lat="53.70606598444283" lon="10.386024015024304">
        <ele>42.439999999999998</ele>
        <time>2019-05-08T12:43:02Z</time>
      </trkpt>
      <trkpt lat="53.706142008304596" lon="10.385939022526145">
        <ele>42.439999999999998</ele>
        <time>2019-05-08T12:43:03Z</time>
      </trkpt>
      <trkpt lat="53.706218032166362" lon="10.385853024199605">
        <ele>41.950000000000003</ele>
        <time>2019-05-08T12:43:04Z</time>
      </trkpt>
      <trkpt lat="53.7066650390625" lon="10.38537198677659">
        <ele>40.990000000000002</ele>
        <time>2019-05-08T12:43:10Z</time>
      </trkpt>
      <trkpt lat="53.706726981326938" lon="10.385307027027011">
        <ele>40.509999999999998</ele>
        <time>2019-05-08T12:43:11Z</time>
      </trkpt>
      <trkpt lat="53.706779032945633" lon="10.385252041742206">
        <ele>40.509999999999998</ele>
        <time>2019-05-08T12:43:12Z</time>
      </trkpt>
      <trkpt lat="53.706782972440124" lon="10.38511399179697">
        <ele>40.030000000000001</ele>
        <time>2019-05-08T12:43:13Z</time>
      </trkpt>
      <trkpt lat="53.70675103738904" lon="10.385020030662417">
        <ele>40.030000000000001</ele>
        <time>2019-05-08T12:43:14Z</time>
      </trkpt>
      <trkpt lat="53.706716001033783" lon="10.384906036779284">
        <ele>40.030000000000001</ele>
        <time>2019-05-08T12:43:15Z</time>
      </trkpt>
      <trkpt lat="53.706675013527274" lon="10.384774021804333">
        <ele>39.549999999999997</ele>
        <time>2019-05-08T12:43:16Z</time>
      </trkpt>
      <trkpt lat="53.706620028242469" lon="10.384633960202336">
        <ele>39.549999999999997</ele>
        <time>2019-05-08T12:43:17Z</time>
      </trkpt>
      <trkpt lat="53.706141002476215" lon="10.383789986371994">
        <ele>39.07</ele>
        <time>2019-05-08T12:43:23Z</time>
      </trkpt>
      <trkpt lat="53.705369029194117" lon="10.382635965943336">
        <ele>39.07</ele>
        <time>2019-05-08T12:43:32Z</time>
      </trkpt>
      <trkpt lat="53.704739967361093" lon="10.381655031815171">
        <ele>40.509999999999998</ele>
        <time>2019-05-08T12:43:40Z</time>
      </trkpt>
      <trkpt lat="53.704658998176455" lon="10.381336016580462">
        <ele>41.469999999999999</ele>
        <time>2019-05-08T12:43:42Z</time>
      </trkpt>
      <trkpt lat="53.704614993184805" lon="10.381164019927382">
        <ele>41.469999999999999</ele>
        <time>2019-05-08T12:43:43Z</time>
      </trkpt>
      <trkpt lat="53.704569982364774" lon="10.380990011617541">
        <ele>41.469999999999999</ele>
        <time>2019-05-08T12:43:44Z</time>
      </trkpt>
      <trkpt lat="53.704520026221871" lon="10.38079303689301">
        <ele>41.950000000000003</ele>
        <time>2019-05-08T12:43:45Z</time>
      </trkpt>
      <trkpt lat="53.704487001523376" lon="10.380624979734421">
        <ele>41.469999999999999</ele>
        <time>2019-05-08T12:43:46Z</time>
      </trkpt>
      <trkpt lat="53.704450037330389" lon="10.380434961989522">
        <ele>41.469999999999999</ele>
        <time>2019-05-08T12:43:47Z</time>
      </trkpt>
      <trkpt lat="53.704376025125384" lon="10.380055010318756">
        <ele>41.469999999999999</ele>
        <time>2019-05-08T12:43:49Z</time>
      </trkpt>
      <trkpt lat="53.704340988770127" lon="10.379862980917096">
        <ele>41.469999999999999</ele>
        <time>2019-05-08T12:43:50Z</time>
      </trkpt>
      <trkpt lat="53.703845031559467" lon="10.377286970615387">
        <ele>40.030000000000001</ele>
        <time>2019-05-08T12:44:02Z</time>
      </trkpt>
      <trkpt lat="53.703769007697701" lon="10.377058982849121">
        <ele>40.030000000000001</ele>
        <time>2019-05-08T12:44:03Z</time>
      </trkpt>
      <trkpt lat="53.703686026856303" lon="10.376856978982687">
        <ele>40.030000000000001</ele>
        <time>2019-05-08T12:44:04Z</time>
      </trkpt>
      <trkpt lat="53.703579995781183" lon="10.376677019521594">
        <ele>40.030000000000001</ele>
        <time>2019-05-08T12:44:05Z</time>
      </trkpt>
      <trkpt lat="53.703431971371174" lon="10.376528995111585">
        <ele>40.030000000000001</ele>
        <time>2019-05-08T12:44:06Z</time>
      </trkpt>
      <trkpt lat="53.703281013295054" lon="10.376378037035465">
        <ele>40.030000000000001</ele>
        <time>2019-05-08T12:44:07Z</time>
      </trkpt>
      <trkpt lat="53.703135000541806" lon="10.376232024282217">
        <ele>39.549999999999997</ele>
        <time>2019-05-08T12:44:08Z</time>
      </trkpt>
      <trkpt lat="53.702999968081713" lon="10.376053992658854">
        <ele>39.549999999999997</ele>
        <time>2019-05-08T12:44:09Z</time>
      </trkpt>
      <trkpt lat="53.702871976420283" lon="10.375872021540999">
        <ele>39.549999999999997</ele>
        <time>2019-05-08T12:44:10Z</time>
      </trkpt>
      <trkpt lat="53.702767034992576" lon="10.375616038218141">
        <ele>39.549999999999997</ele>
        <time>2019-05-08T12:44:11Z</time>
      </trkpt>
      <trkpt lat="53.70267198421061" lon="10.375352008268237">
        <ele>39.549999999999997</ele>
        <time>2019-05-08T12:44:12Z</time>
      </trkpt>
      <trkpt lat="53.701665988191962" lon="10.372617999091744">
        <ele>40.990000000000002</ele>
        <time>2019-05-08T12:44:22Z</time>
      </trkpt>
      <trkpt lat="53.701435988768935" lon="10.371795985847712">
        <ele>40.509999999999998</ele>
        <time>2019-05-08T12:44:25Z</time>
      </trkpt>
      <trkpt lat="53.701368011534214" lon="10.371533967554569">
        <ele>40.030000000000001</ele>
        <time>2019-05-08T12:44:26Z</time>
      </trkpt>
      <trkpt lat="53.701358959078789" lon="10.371246971189976">
        <ele>40.030000000000001</ele>
        <time>2019-05-08T12:44:27Z</time>
      </trkpt>
      <trkpt lat="53.701352002099156" lon="10.370947988703847">
        <ele>40.030000000000001</ele>
        <time>2019-05-08T12:44:28Z</time>
      </trkpt>
      <trkpt lat="53.701344961300492" lon="10.370637020096183">
        <ele>40.030000000000001</ele>
        <time>2019-05-08T12:44:29Z</time>
      </trkpt>
      <trkpt lat="53.701368011534214" lon="10.370311969891191">
        <ele>39.549999999999997</ele>
        <time>2019-05-08T12:44:30Z</time>
      </trkpt>
      <trkpt lat="53.701393995434046" lon="10.369970994070172">
        <ele>39.549999999999997</ele>
        <time>2019-05-08T12:44:31Z</time>
      </trkpt>
      <trkpt lat="53.701459961012006" lon="10.367906028404832">
        <ele>38.109999999999999</ele>
        <time>2019-05-08T12:44:37Z</time>
      </trkpt>
      <trkpt lat="53.701436994597316" lon="10.367565974593163">
        <ele>37.630000000000003</ele>
        <time>2019-05-08T12:44:38Z</time>
      </trkpt>
      <trkpt lat="53.70140396989882" lon="10.367248971015215">
        <ele>37.630000000000003</ele>
        <time>2019-05-08T12:44:39Z</time>
      </trkpt>
      <trkpt lat="53.701370023190975" lon="10.36695602349937">
        <ele>37.630000000000003</ele>
        <time>2019-05-08T12:44:40Z</time>
      </trkpt>
      <trkpt lat="53.701344039291143" lon="10.366738010197878">
        <ele>37.630000000000003</ele>
        <time>2019-05-08T12:44:41Z</time>
      </trkpt>
      <trkpt lat="53.70125200599432" lon="10.36646299995482">
        <ele>38.109999999999999</ele>
        <time>2019-05-08T12:44:42Z</time>
      </trkpt>
      <trkpt lat="53.70118604041636" lon="10.366262001916766">
        <ele>38.109999999999999</ele>
        <time>2019-05-08T12:44:43Z</time>
      </trkpt>
      <trkpt lat="53.701129965484142" lon="10.36609604023397">
        <ele>38.590000000000003</ele>
        <time>2019-05-08T12:44:44Z</time>
      </trkpt>
      <trkpt lat="53.701089983806014" lon="10.365973999723792">
        <ele>38.590000000000003</ele>
        <time>2019-05-08T12:44:45Z</time>
      </trkpt>
      <trkpt lat="53.701024018228054" lon="10.365900993347168">
        <ele>38.590000000000003</ele>
        <time>2019-05-08T12:44:46Z</time>
      </trkpt>
      <trkpt lat="53.700950006023049" lon="10.365900993347168">
        <ele>39.07</ele>
        <time>2019-05-08T12:44:47Z</time>
      </trkpt>
      <trkpt lat="53.70084498077631" lon="10.365977017208934">
        <ele>38.590000000000003</ele>
        <time>2019-05-08T12:44:48Z</time>
      </trkpt>
      <trkpt lat="53.700761999934912" lon="10.366108026355505">
        <ele>38.590000000000003</ele>
        <time>2019-05-08T12:44:49Z</time>
      </trkpt>
      <trkpt lat="53.700658986344934" lon="10.366260996088386">
        <ele>38.590000000000003</ele>
        <time>2019-05-08T12:44:50Z</time>
      </trkpt>
      <trkpt lat="53.700187001377344" lon="10.367049984633923">
        <ele>39.07</ele>
        <time>2019-05-08T12:44:54Z</time>
      </trkpt>
      <trkpt lat="53.700099997222424" lon="10.367252994328737">
        <ele>39.07</ele>
        <time>2019-05-08T12:44:55Z</time>
      </trkpt>
      <trkpt lat="53.700066972523928" lon="10.36751601845026">
        <ele>39.549999999999997</ele>
        <time>2019-05-08T12:44:56Z</time>
      </trkpt>
      <trkpt lat="53.700056998059154" lon="10.367735959589481">
        <ele>40.030000000000001</ele>
        <time>2019-05-08T12:44:57Z</time>
      </trkpt>
      <trkpt lat="53.700056998059154" lon="10.367948021739721">
        <ele>40.030000000000001</ele>
        <time>2019-05-08T12:44:58Z</time>
      </trkpt>
      <trkpt lat="53.700040988624096" lon="10.368156982585788">
        <ele>40.509999999999998</ele>
        <time>2019-05-08T12:44:59Z</time>
      </trkpt>
      <trkpt lat="53.699994971975684" lon="10.368347000330687">
        <ele>40.509999999999998</ele>
        <time>2019-05-08T12:45:00Z</time>
      </trkpt>
      <trkpt lat="53.699914002791047" lon="10.368583034723997">
        <ele>40.990000000000002</ele>
        <time>2019-05-08T12:45:01Z</time>
      </trkpt>
      <trkpt lat="53.699782993644476" lon="10.368737010285258">
        <ele>41.469999999999999</ele>
        <time>2019-05-08T12:45:02Z</time>
      </trkpt>
      <trkpt lat="53.699638992547989" lon="10.368908001109958">
        <ele>41.469999999999999</ele>
        <time>2019-05-08T12:45:03Z</time>
      </trkpt>
      <trkpt lat="53.698505004867911" lon="10.370089011266828">
        <ele>41.950000000000003</ele>
        <time>2019-05-08T12:45:09Z</time>
      </trkpt>
      <trkpt lat="53.696402991190553" lon="10.372026991099119">
        <ele>40.990000000000002</ele>
        <time>2019-05-08T12:45:18Z</time>
      </trkpt>
      <trkpt lat="53.695077979937196" lon="10.373177994042635">
        <ele>40.990000000000002</ele>
        <time>2019-05-08T12:45:23Z</time>
      </trkpt>
      <trkpt lat="53.692317986860871" lon="10.375474970787764">
        <ele>42.920000000000002</ele>
        <time>2019-05-08T12:45:33Z</time>
      </trkpt>
      <trkpt lat="53.689549025148153" lon="10.377448992803693">
        <ele>43.880000000000003</ele>
        <time>2019-05-08T12:45:43Z</time>
      </trkpt>
      <trkpt lat="53.686675038188696" lon="10.378739973530173">
        <ele>43.880000000000003</ele>
        <time>2019-05-08T12:45:53Z</time>
      </trkpt>
      <trkpt lat="53.683064030483365" lon="10.380015028640628">
        <ele>47.719999999999999</ele>
        <time>2019-05-08T12:46:05Z</time>
      </trkpt>
      <trkpt lat="53.679471965879202" lon="10.380697986111045">
        <ele>54.450000000000003</ele>
        <time>2019-05-08T12:46:17Z</time>
      </trkpt>
      <trkpt lat="53.677666001021862" lon="10.380594972521067">
        <ele>58.780000000000001</ele>
        <time>2019-05-08T12:46:24Z</time>
      </trkpt>
      <trkpt lat="53.675858024507761" lon="10.380228012800217">
        <ele>63.100000000000001</ele>
        <time>2019-05-08T12:46:31Z</time>
      </trkpt>
      <trkpt lat="53.673724997788668" lon="10.379758961498737">
        <ele>66.469999999999999</ele>
        <time>2019-05-08T12:46:38Z</time>
      </trkpt>
      <trkpt lat="53.6713229957968" lon="10.379843031987548">
        <ele>69.349999999999994</ele>
        <time>2019-05-08T12:46:46Z</time>
      </trkpt>
      <trkpt lat="53.669073041528463" lon="10.380695974454284">
        <ele>67.909999999999997</ele>
        <time>2019-05-08T12:46:54Z</time>
      </trkpt>
      <trkpt lat="53.667582990601659" lon="10.381731977686286">
        <ele>64.069999999999993</ele>
        <time>2019-05-08T12:47:01Z</time>
      </trkpt>
      <trkpt lat="53.665969977155328" lon="10.383166959509254">
        <ele>59.259999999999998</ele>
        <time>2019-05-08T12:47:11Z</time>
      </trkpt>
      <trkpt lat="53.664409015327692" lon="10.384814003482461">
        <ele>55.890000000000001</ele>
        <time>2019-05-08T12:47:22Z</time>
      </trkpt>
      <trkpt lat="53.664309019222856" lon="10.384938977658749">
        <ele>55.890000000000001</ele>
        <time>2019-05-08T12:47:23Z</time>
      </trkpt>
      <trkpt lat="53.664150014519691" lon="10.38483202457428">
        <ele>55.409999999999997</ele>
        <time>2019-05-08T12:47:24Z</time>
      </trkpt>
      <trkpt lat="53.66406099870801" lon="10.384865971282125">
        <ele>54.93</ele>
        <time>2019-05-08T12:47:25Z</time>
      </trkpt>
      <trkpt lat="53.663991009816527" lon="10.384846022352576">
        <ele>54.450000000000003</ele>
        <time>2019-05-08T12:47:26Z</time>
      </trkpt>
      <trkpt lat="53.663942981511354" lon="10.384826995432377">
        <ele>53.969999999999999</ele>
        <time>2019-05-08T12:47:27Z</time>
      </trkpt>
      <trkpt lat="53.663891013711691" lon="10.384721970185637">
        <ele>53.490000000000002</ele>
        <time>2019-05-08T12:47:28Z</time>
      </trkpt>
      <trkpt lat="53.663840973749757" lon="10.384621974080801">
        <ele>53.009999999999998</ele>
        <time>2019-05-08T12:47:29Z</time>
      </trkpt>
      <trkpt lat="53.663841979578137" lon="10.384508986026049">
        <ele>52.530000000000001</ele>
        <time>2019-05-08T12:47:30Z</time>
      </trkpt>
      <trkpt lat="53.663849020376801" lon="10.384368002414703">
        <ele>52.530000000000001</ele>
        <time>2019-05-08T12:47:31Z</time>
      </trkpt>
      <trkpt lat="53.663857989013195" lon="10.384204974398017">
        <ele>52.049999999999997</ele>
        <time>2019-05-08T12:47:32Z</time>
      </trkpt>
      <trkpt lat="53.663908028975129" lon="10.384091986343265">
        <ele>51.57</ele>
        <time>2019-05-08T12:47:33Z</time>
      </trkpt>
      <trkpt lat="53.663959996774793" lon="10.383976986631751">
        <ele>51.090000000000003</ele>
        <time>2019-05-08T12:47:34Z</time>
      </trkpt>
      <trkpt lat="53.664097962900996" lon="10.383667023852468">
        <ele>49.649999999999999</ele>
        <time>2019-05-08T12:47:37Z</time>
      </trkpt>
      <trkpt lat="53.664141967892647" lon="10.383568033576012">
        <ele>49.159999999999997</ele>
        <time>2019-05-08T12:47:38Z</time>
      </trkpt>
      <trkpt lat="53.664187984541059" lon="10.383467031642795">
        <ele>49.159999999999997</ele>
        <time>2019-05-08T12:47:39Z</time>
      </trkpt>
      <trkpt lat="53.664430975914001" lon="10.383172994479537">
        <ele>48.200000000000003</ele>
        <time>2019-05-08T12:47:43Z</time>
      </trkpt>
      <trkpt lat="53.664542036131024" lon="10.383103005588055">
        <ele>46.759999999999998</ele>
        <time>2019-05-08T12:47:50Z</time>
      </trkpt>
      <trkpt lat="53.664756026118994" lon="10.382967973127961">
        <ele>45.799999999999997</ele>
        <time>2019-05-08T12:48:04Z</time>
      </trkpt>
      <trkpt lat="53.665021983906627" lon="10.382842998951674">
        <ele>45.32</ele>
        <time>2019-05-08T12:48:08Z</time>
      </trkpt>
      <trkpt lat="53.665078980848193" lon="10.382817015051842">
        <ele>45.32</ele>
        <time>2019-05-08T12:48:09Z</time>
      </trkpt>
      <trkpt lat="53.665118962526321" lon="10.382692040875554">
        <ele>45.799999999999997</ele>
        <time>2019-05-08T12:48:10Z</time>
      </trkpt>
      <trkpt lat="53.665090966969728" lon="10.382589027285576">
        <ele>46.280000000000001</ele>
        <time>2019-05-08T12:48:11Z</time>
      </trkpt>
      <trkpt lat="53.665052996948361" lon="10.382448965683579">
        <ele>46.759999999999998</ele>
        <time>2019-05-08T12:48:12Z</time>
      </trkpt>
      <trkpt lat="53.665005974471569" lon="10.382278980687261">
        <ele>47.240000000000002</ele>
        <time>2019-05-08T12:48:13Z</time>
      </trkpt>
      <trkpt lat="53.664506999775767" lon="10.380583992227912">
        <ele>50.609999999999999</ele>
        <time>2019-05-08T12:48:21Z</time>
      </trkpt>
      <trkpt lat="53.663884978741407" lon="10.379043985158205">
        <ele>53.490000000000002</ele>
        <time>2019-05-08T12:48:26Z</time>
      </trkpt>
      <trkpt lat="53.662768006324768" lon="10.376537963747978">
        <ele>55.890000000000001</ele>
        <time>2019-05-08T12:48:33Z</time>
      </trkpt>
      <trkpt lat="53.661408964544535" lon="10.374521026387811">
        <ele>56.369999999999997</ele>
        <time>2019-05-08T12:48:41Z</time>
      </trkpt>
      <trkpt lat="53.6600879766047" lon="10.372451031580567">
        <ele>57.340000000000003</ele>
        <time>2019-05-08T12:48:49Z</time>
      </trkpt>
      <trkpt lat="53.658833038061857" lon="10.370551021769643">
        <ele>58.780000000000001</ele>
        <time>2019-05-08T12:48:57Z</time>
      </trkpt>
      <trkpt lat="53.657515989616513" lon="10.369143029674888">
        <ele>55.890000000000001</ele>
        <time>2019-05-08T12:49:07Z</time>
      </trkpt>
      <trkpt lat="53.657399984076619" lon="10.369036998599768">
        <ele>54.93</ele>
        <time>2019-05-08T12:49:08Z</time>
      </trkpt>
      <trkpt lat="53.65729303099215" lon="10.368938008323312">
        <ele>53.969999999999999</ele>
        <time>2019-05-08T12:49:09Z</time>
      </trkpt>
      <trkpt lat="53.65639197640121" lon="10.368128987029195">
        <ele>46.759999999999998</ele>
        <time>2019-05-08T12:49:17Z</time>
      </trkpt>
      <trkpt lat="53.656093999743462" lon="10.367863029241562">
        <ele>44.840000000000003</ele>
        <time>2019-05-08T12:49:21Z</time>
      </trkpt>
      <trkpt lat="53.656030967831612" lon="10.367804020643234">
        <ele>44.359999999999999</ele>
        <time>2019-05-08T12:49:22Z</time>
      </trkpt>
      <trkpt lat="53.655972965061665" lon="10.367749035358429">
        <ele>43.399999999999999</ele>
        <time>2019-05-08T12:49:23Z</time>
      </trkpt>
      <trkpt lat="53.65581102669239" lon="10.367595981806517">
        <ele>42.920000000000002</ele>
        <time>2019-05-08T12:49:24Z</time>
      </trkpt>
      <trkpt lat="53.655794011428952" lon="10.367577038705349">
        <ele>42.439999999999998</ele>
        <time>2019-05-08T12:49:25Z</time>
      </trkpt>
      <trkpt lat="53.655369970947504" lon="10.367103964090347">
        <ele>40.509999999999998</ele>
        <time>2019-05-08T12:49:30Z</time>
      </trkpt>
      <trkpt lat="53.655324960127473" lon="10.367053002119064">
        <ele>40.030000000000001</ele>
        <time>2019-05-08T12:49:31Z</time>
      </trkpt>
      <trkpt lat="53.655282966792583" lon="10.367005979642272">
        <ele>39.549999999999997</ele>
        <time>2019-05-08T12:49:32Z</time>
      </trkpt>
      <trkpt lat="53.655226975679398" lon="10.366944037377834">
        <ele>39.07</ele>
        <time>2019-05-08T12:49:33Z</time>
      </trkpt>
      <trkpt lat="53.655160004273057" lon="10.366869019344449">
        <ele>38.590000000000003</ele>
        <time>2019-05-08T12:49:34Z</time>
      </trkpt>
      <trkpt lat="53.655077023431659" lon="10.366775980219245">
        <ele>38.109999999999999</ele>
        <time>2019-05-08T12:49:35Z</time>
      </trkpt>
      <trkpt lat="53.65428501740098" lon="10.365929994732141">
        <ele>40.509999999999998</ele>
        <time>2019-05-08T12:49:42Z</time>
      </trkpt>
      <trkpt lat="53.654160965234041" lon="10.365802003070712">
        <ele>40.990000000000002</ele>
        <time>2019-05-08T12:49:43Z</time>
      </trkpt>
      <trkpt lat="53.654040014371276" lon="10.365679040551186">
        <ele>41.469999999999999</ele>
        <time>2019-05-08T12:49:44Z</time>
      </trkpt>
      <trkpt lat="53.653918979689479" lon="10.365554988384247">
        <ele>42.439999999999998</ele>
        <time>2019-05-08T12:49:45Z</time>
      </trkpt>
      <trkpt lat="53.653795011341572" lon="10.36545398645103">
        <ele>42.920000000000002</ele>
        <time>2019-05-08T12:49:46Z</time>
      </trkpt>
      <trkpt lat="53.653670959174633" lon="10.365359019488096">
        <ele>43.880000000000003</ele>
        <time>2019-05-08T12:49:47Z</time>
      </trkpt>
      <trkpt lat="53.652713997289538" lon="10.364812016487122">
        <ele>49.159999999999997</ele>
        <time>2019-05-08T12:49:55Z</time>
      </trkpt>
      <trkpt lat="53.652591034770012" lon="10.3647889662534">
        <ele>49.159999999999997</ele>
        <time>2019-05-08T12:49:56Z</time>
      </trkpt>
      <trkpt lat="53.652232959866524" lon="10.364721994847059">
        <ele>49.159999999999997</ele>
        <time>2019-05-08T12:49:59Z</time>
      </trkpt>
      <trkpt lat="53.652125000953674" lon="10.364720989018679">
        <ele>50.130000000000003</ele>
        <time>2019-05-08T12:50:00Z</time>
      </trkpt>
      <trkpt lat="53.650880036875606" lon="10.364910000935197">
        <ele>54.93</ele>
        <time>2019-05-08T12:50:12Z</time>
      </trkpt>
      <trkpt lat="53.650574013590813" lon="10.364957023411989">
        <ele>55.409999999999997</ele>
        <time>2019-05-08T12:50:15Z</time>
      </trkpt>
      <trkpt lat="53.650471000000834" lon="10.364971021190286">
        <ele>54.93</ele>
        <time>2019-05-08T12:50:16Z</time>
      </trkpt>
      <trkpt lat="53.649328965693712" lon="10.365079985931516">
        <ele>52.049999999999997</ele>
        <time>2019-05-08T12:50:26Z</time>
      </trkpt>
      <trkpt lat="53.649210026487708" lon="10.36502399481833">
        <ele>52.049999999999997</ele>
        <time>2019-05-08T12:50:27Z</time>
      </trkpt>
      <trkpt lat="53.649094020947814" lon="10.364941013976932">
        <ele>51.57</ele>
        <time>2019-05-08T12:50:28Z</time>
      </trkpt>
      <trkpt lat="53.648862009868026" lon="10.364774968475103">
        <ele>51.090000000000003</ele>
        <time>2019-05-08T12:50:30Z</time>
      </trkpt>
      <trkpt lat="53.648757990449667" lon="10.364662986248732">
        <ele>50.609999999999999</ele>
        <time>2019-05-08T12:50:31Z</time>
      </trkpt>
      <trkpt lat="53.648007977753878" lon="10.363509971648455">
        <ele>50.130000000000003</ele>
        <time>2019-05-08T12:50:39Z</time>
      </trkpt>
      <trkpt lat="53.647544961422682" lon="10.362814022228122">
        <ele>49.649999999999999</ele>
        <time>2019-05-08T12:50:46Z</time>
      </trkpt>
      <trkpt lat="53.64706601947546" lon="10.362414959818125">
        <ele>49.649999999999999</ele>
        <time>2019-05-08T12:50:54Z</time>
      </trkpt>
      <trkpt lat="53.646902991458774" lon="10.362285040318966">
        <ele>51.57</ele>
        <time>2019-05-08T12:51:02Z</time>
      </trkpt>
      <trkpt lat="53.646879019215703" lon="10.362266013398767">
        <ele>51.57</ele>
        <time>2019-05-08T12:51:09Z</time>
      </trkpt>
      <trkpt lat="53.646853035315871" lon="10.362244974821806">
        <ele>51.57</ele>
        <time>2019-05-08T12:51:10Z</time>
      </trkpt>
      <trkpt lat="53.646804001182318" lon="10.362205998972058">
        <ele>52.049999999999997</ele>
        <time>2019-05-08T12:51:11Z</time>
      </trkpt>
      <trkpt lat="53.646196983754635" lon="10.36173501983285">
        <ele>52.530000000000001</ele>
        <time>2019-05-08T12:51:18Z</time>
      </trkpt>
      <trkpt lat="53.64556297659874" lon="10.361377028748393">
        <ele>53.009999999999998</ele>
        <time>2019-05-08T12:51:24Z</time>
      </trkpt>
      <trkpt lat="53.645399026572704" lon="10.361345009878278">
        <ele>53.009999999999998</ele>
        <time>2019-05-08T12:51:26Z</time>
      </trkpt>
      <trkpt lat="53.645332977175713" lon="10.361338974907994">
        <ele>53.009999999999998</ele>
        <time>2019-05-08T12:51:27Z</time>
      </trkpt>
      <trkpt lat="53.645157963037491" lon="10.361331012099981">
        <ele>52.530000000000001</ele>
        <time>2019-05-08T12:51:34Z</time>
      </trkpt>
      <trkpt lat="53.645131979137659" lon="10.361331012099981">
        <ele>52.049999999999997</ele>
        <time>2019-05-08T12:51:43Z</time>
      </trkpt>
      <trkpt lat="53.64511102437973" lon="10.361331012099981">
        <ele>52.049999999999997</ele>
        <time>2019-05-08T12:51:44Z</time>
      </trkpt>
      <trkpt lat="53.644949002191424" lon="10.361338974907994">
        <ele>51.090000000000003</ele>
        <time>2019-05-08T12:51:48Z</time>
      </trkpt>
      <trkpt lat="53.644892005249858" lon="10.361344004049897">
        <ele>50.609999999999999</ele>
        <time>2019-05-08T12:51:49Z</time>
      </trkpt>
      <trkpt lat="53.644794020801783" lon="10.361455986276269">
        <ele>50.609999999999999</ele>
        <time>2019-05-08T12:51:50Z</time>
      </trkpt>
      <trkpt lat="53.644783040508628" lon="10.361580960452557">
        <ele>50.130000000000003</ele>
        <time>2019-05-08T12:51:51Z</time>
      </trkpt>
      <trkpt lat="53.644768036901951" lon="10.361751029267907">
        <ele>50.130000000000003</ele>
        <time>2019-05-08T12:51:52Z</time>
      </trkpt>
      <trkpt lat="53.644750015810132" lon="10.361962001770735">
        <ele>49.649999999999999</ele>
        <time>2019-05-08T12:51:53Z</time>
      </trkpt>
      <trkpt lat="53.644614983350039" lon="10.362951988354325">
        <ele>47.719999999999999</ele>
        <time>2019-05-08T12:51:57Z</time>
      </trkpt>
      <trkpt lat="53.644561003893614" lon="10.363191040232778">
        <ele>47.240000000000002</ele>
        <time>2019-05-08T12:51:58Z</time>
      </trkpt>
      <trkpt lat="53.644482968375087" lon="10.363410981371999">
        <ele>46.759999999999998</ele>
        <time>2019-05-08T12:51:59Z</time>
      </trkpt>
      <trkpt lat="53.644400993362069" lon="10.363642992451787">
        <ele>45.799999999999997</ele>
        <time>2019-05-08T12:52:00Z</time>
      </trkpt>
      <trkpt lat="53.644322035834193" lon="10.363867040723562">
        <ele>44.840000000000003</ele>
        <time>2019-05-08T12:52:01Z</time>
      </trkpt>
      <trkpt lat="53.644255986437201" lon="10.364053035154939">
        <ele>43.880000000000003</ele>
        <time>2019-05-08T12:52:02Z</time>
      </trkpt>
      <trkpt lat="53.644035961478949" lon="10.364677989855409">
        <ele>40.509999999999998</ele>
        <time>2019-05-08T12:52:06Z</time>
      </trkpt>
      <trkpt lat="53.643981982022524" lon="10.364830959588289">
        <ele>39.549999999999997</ele>
        <time>2019-05-08T12:52:07Z</time>
      </trkpt>
      <trkpt lat="53.643857007846236" lon="10.365161038935184">
        <ele>38.109999999999999</ele>
        <time>2019-05-08T12:52:09Z</time>
      </trkpt>
      <trkpt lat="53.643569005653262" lon="10.36590501666069">
        <ele>36.670000000000002</ele>
        <time>2019-05-08T12:52:13Z</time>
      </trkpt>
      <trkpt lat="53.643375970423222" lon="10.366187989711761">
        <ele>35.710000000000001</ele>
        <time>2019-05-08T12:52:15Z</time>
      </trkpt>
      <trkpt lat="53.643269017338753" lon="10.366322016343474">
        <ele>35.710000000000001</ele>
        <time>2019-05-08T12:52:16Z</time>
      </trkpt>
      <trkpt lat="53.641944006085396" lon="10.367735037580132">
        <ele>40.990000000000002</ele>
        <time>2019-05-08T12:52:27Z</time>
      </trkpt>
      <trkpt lat="53.64182498306036" lon="10.367858000099659">
        <ele>41.469999999999999</ele>
        <time>2019-05-08T12:52:28Z</time>
      </trkpt>
      <trkpt lat="53.641705038025975" lon="10.367980962619185">
        <ele>42.439999999999998</ele>
        <time>2019-05-08T12:52:29Z</time>
      </trkpt>
      <trkpt lat="53.641158035025001" lon="10.368594015017152">
        <ele>43.399999999999999</ele>
        <time>2019-05-08T12:52:34Z</time>
      </trkpt>
      <trkpt lat="53.640364017337561" lon="10.369867980480194">
        <ele>43.399999999999999</ele>
        <time>2019-05-08T12:52:42Z</time>
      </trkpt>
      <trkpt lat="53.640269972383976" lon="10.370040982961655">
        <ele>43.880000000000003</ele>
        <time>2019-05-08T12:52:43Z</time>
      </trkpt>
      <trkpt lat="53.63978398963809" lon="10.370873976498842">
        <ele>44.359999999999999</ele>
        <time>2019-05-08T12:52:48Z</time>
      </trkpt>
      <trkpt lat="53.639678964391351" lon="10.371022000908852">
        <ele>44.840000000000003</ele>
        <time>2019-05-08T12:52:49Z</time>
      </trkpt>
      <trkpt lat="53.639558013528585" lon="10.371131971478462">
        <ele>44.840000000000003</ele>
        <time>2019-05-08T12:52:50Z</time>
      </trkpt>
      <trkpt lat="53.639434967190027" lon="10.371228028088808">
        <ele>44.840000000000003</ele>
        <time>2019-05-08T12:52:51Z</time>
      </trkpt>
      <trkpt lat="53.639298006892204" lon="10.371304973959923">
        <ele>45.32</ele>
        <time>2019-05-08T12:52:52Z</time>
      </trkpt>
      <trkpt lat="53.639156017452478" lon="10.371386026963592">
        <ele>45.32</ele>
        <time>2019-05-08T12:52:53Z</time>
      </trkpt>
      <trkpt lat="53.637760011479259" lon="10.372360004112124">
        <ele>46.759999999999998</ele>
        <time>2019-05-08T12:53:03Z</time>
      </trkpt>
      <trkpt lat="53.636931041255593" lon="10.372698968276381">
        <ele>47.240000000000002</ele>
        <time>2019-05-08T12:53:10Z</time>
      </trkpt>
      <trkpt lat="53.635689010843635" lon="10.37303701043129">
        <ele>44.359999999999999</ele>
        <time>2019-05-08T12:53:20Z</time>
      </trkpt>
      <trkpt lat="53.635582979768515" lon="10.373128959909081">
        <ele>44.359999999999999</ele>
        <time>2019-05-08T12:53:21Z</time>
      </trkpt>
      <trkpt lat="53.635495975613594" lon="10.373273966833949">
        <ele>43.880000000000003</ele>
        <time>2019-05-08T12:53:22Z</time>
      </trkpt>
      <trkpt lat="53.635435039177537" lon="10.373449986800551">
        <ele>43.880000000000003</ele>
        <time>2019-05-08T12:53:23Z</time>
      </trkpt>
      <trkpt lat="53.635394973680377" lon="10.373646039515734">
        <ele>43.880000000000003</ele>
        <time>2019-05-08T12:53:24Z</time>
      </trkpt>
      <trkpt lat="53.635374018922448" lon="10.373873021453619">
        <ele>43.399999999999999</ele>
        <time>2019-05-08T12:53:25Z</time>
      </trkpt>
      <trkpt lat="53.635331019759178" lon="10.374332014471292">
        <ele>42.439999999999998</ele>
        <time>2019-05-08T12:53:27Z</time>
      </trkpt>
      <trkpt lat="53.634912008419633" lon="10.375479999929667">
        <ele>40.509999999999998</ele>
        <time>2019-05-08T12:53:34Z</time>
      </trkpt>
      <trkpt lat="53.634725008159876" lon="10.375919966027141">
        <ele>39.07</ele>
        <time>2019-05-08T12:53:38Z</time>
      </trkpt>
      <trkpt lat="53.634685026481748" lon="10.376014010980725">
        <ele>38.590000000000003</ele>
        <time>2019-05-08T12:53:39Z</time>
      </trkpt>
      <trkpt lat="53.63464898429811" lon="10.376096991822124">
        <ele>38.590000000000003</ele>
        <time>2019-05-08T12:53:40Z</time>
      </trkpt>
      <trkpt lat="53.634613025933504" lon="10.376181984320283">
        <ele>38.590000000000003</ele>
        <time>2019-05-08T12:53:41Z</time>
      </trkpt>
      <trkpt lat="53.634584024548531" lon="10.376249961555004">
        <ele>39.07</ele>
        <time>2019-05-08T12:53:42Z</time>
      </trkpt>
      <trkpt lat="53.634560974314809" lon="10.376305030658841">
        <ele>39.07</ele>
        <time>2019-05-08T12:53:43Z</time>
      </trkpt>
      <trkpt lat="53.634537002071738" lon="10.376361021772027">
        <ele>39.07</ele>
        <time>2019-05-08T12:53:44Z</time>
      </trkpt>
      <trkpt lat="53.634516969323158" lon="10.376407960429788">
        <ele>39.07</ele>
        <time>2019-05-08T12:53:45Z</time>
      </trkpt>
      <trkpt lat="53.634491991251707" lon="10.376466969028115">
        <ele>39.07</ele>
        <time>2019-05-08T12:53:46Z</time>
      </trkpt>
      <trkpt lat="53.634466007351875" lon="10.376527989283204">
        <ele>38.590000000000003</ele>
        <time>2019-05-08T12:53:47Z</time>
      </trkpt>
      <trkpt lat="53.634442035108805" lon="10.37658398039639">
        <ele>38.590000000000003</ele>
        <time>2019-05-08T12:53:48Z</time>
      </trkpt>
      <trkpt lat="53.634423008188605" lon="10.376627985388041">
        <ele>38.590000000000003</ele>
        <time>2019-05-08T12:53:49Z</time>
      </trkpt>
      <trkpt lat="53.634417979046702" lon="10.376639971509576">
        <ele>38.590000000000003</ele>
        <time>2019-05-08T12:53:50Z</time>
      </trkpt>
      <trkpt lat="53.634419990703464" lon="10.376637037843466">
        <ele>38.109999999999999</ele>
        <time>2019-05-08T12:53:51Z</time>
      </trkpt>
      <trkpt lat="53.634419990703464" lon="10.376637037843466">
        <ele>38.109999999999999</ele>
        <time>2019-05-08T12:54:04Z</time>
      </trkpt>
      <trkpt lat="53.634419990703464" lon="10.376637037843466">
        <ele>38.109999999999999</ele>
        <time>2019-05-08T12:54:29Z</time>
      </trkpt>
      <trkpt lat="53.634426025673747" lon="10.376621028408408">
        <ele>38.109999999999999</ele>
        <time>2019-05-08T12:54:40Z</time>
      </trkpt>
      <trkpt lat="53.634262997657061" lon="10.377005003392696">
        <ele>40.990000000000002</ele>
        <time>2019-05-08T12:54:47Z</time>
      </trkpt>
      <trkpt lat="53.634251011535525" lon="10.377031993120909">
        <ele>40.990000000000002</ele>
        <time>2019-05-08T12:54:48Z</time>
      </trkpt>
      <trkpt lat="53.634240031242371" lon="10.37705697119236">
        <ele>40.990000000000002</ele>
        <time>2019-05-08T12:54:49Z</time>
      </trkpt>
      <trkpt lat="53.634228967130184" lon="10.377083038911223">
        <ele>40.509999999999998</ele>
        <time>2019-05-08T12:54:52Z</time>
      </trkpt>
      <trkpt lat="53.634202983230352" lon="10.377144981175661">
        <ele>38.109999999999999</ele>
        <time>2019-05-08T12:55:06Z</time>
      </trkpt>
      <trkpt lat="53.634152021259069" lon="10.377273978665471">
        <ele>36.189999999999998</ele>
        <time>2019-05-08T12:55:09Z</time>
      </trkpt>
      <trkpt lat="53.634102987125516" lon="10.377395013347268">
        <ele>35.229999999999997</ele>
        <time>2019-05-08T12:55:12Z</time>
      </trkpt>
      <trkpt lat="53.634088989347219" lon="10.377429965883493">
        <ele>34.740000000000002</ele>
        <time>2019-05-08T12:55:13Z</time>
      </trkpt>
      <trkpt lat="53.634079014882445" lon="10.377455027773976">
        <ele>34.259999999999998</ele>
        <time>2019-05-08T12:55:14Z</time>
      </trkpt>
      <trkpt lat="53.634071974083781" lon="10.377472965046763">
        <ele>33.780000000000001</ele>
        <time>2019-05-08T12:55:15Z</time>
      </trkpt>
      <trkpt lat="53.634071974083781" lon="10.377472965046763">
        <ele>32.82</ele>
        <time>2019-05-08T12:55:16Z</time>
      </trkpt>
      <trkpt lat="53.634056970477104" lon="10.377510013058782">
        <ele>32.82</ele>
        <time>2019-05-08T12:55:17Z</time>
      </trkpt>
      <trkpt lat="53.634048001840711" lon="10.377533985301852">
        <ele>32.340000000000003</ele>
        <time>2019-05-08T12:55:18Z</time>
      </trkpt>
      <trkpt lat="53.63398396410048" lon="10.377690978348255">
        <ele>30.899999999999999</ele>
        <time>2019-05-08T12:55:28Z</time>
      </trkpt>
      <trkpt lat="53.633824959397316" lon="10.378057016059756">
        <ele>30.899999999999999</ele>
        <time>2019-05-08T12:55:33Z</time>
      </trkpt>
      <trkpt lat="53.63378900103271" lon="10.378139996901155">
        <ele>31.379999999999999</ele>
        <time>2019-05-08T12:55:34Z</time>
      </trkpt>
      <trkpt lat="53.633796963840723" lon="10.378227001056075">
        <ele>31.379999999999999</ele>
        <time>2019-05-08T12:55:35Z</time>
      </trkpt>
      <trkpt lat="53.633840968832374" lon="10.378325991332531">
        <ele>31.859999999999999</ele>
        <time>2019-05-08T12:55:36Z</time>
      </trkpt>
      <trkpt lat="53.63389796577394" lon="10.37845297716558">
        <ele>31.859999999999999</ele>
        <time>2019-05-08T12:55:37Z</time>
      </trkpt>
      <trkpt lat="53.633959991857409" lon="10.37862497381866">
        <ele>31.859999999999999</ele>
        <time>2019-05-08T12:55:38Z</time>
      </trkpt>
      <trkpt lat="53.634009025990963" lon="10.378850027918816">
        <ele>31.859999999999999</ele>
        <time>2019-05-08T12:55:39Z</time>
      </trkpt>
      <trkpt lat="53.634063005447388" lon="10.379094025120139">
        <ele>31.859999999999999</ele>
        <time>2019-05-08T12:55:40Z</time>
      </trkpt>
      <trkpt lat="53.634121008217335" lon="10.379360988736153">
        <ele>31.859999999999999</ele>
        <time>2019-05-08T12:55:41Z</time>
      </trkpt>
      <trkpt lat="53.634182028472424" lon="10.379639016464353">
        <ele>31.379999999999999</ele>
        <time>2019-05-08T12:55:42Z</time>
      </trkpt>
      <trkpt lat="53.634442035108805" lon="10.380768980830908">
        <ele>30.420000000000002</ele>
        <time>2019-05-08T12:55:46Z</time>
      </trkpt>
      <trkpt lat="53.634514035657048" lon="10.381041979417205">
        <ele>29.940000000000001</ele>
        <time>2019-05-08T12:55:47Z</time>
      </trkpt>
      <trkpt lat="53.634926006197929" lon="10.382605036720634">
        <ele>27.530000000000001</ele>
        <time>2019-05-08T12:55:54Z</time>
      </trkpt>
      <trkpt lat="53.634975040331483" lon="10.38279103115201">
        <ele>27.050000000000001</ele>
        <time>2019-05-08T12:55:55Z</time>
      </trkpt>
      <trkpt lat="53.635102026164532" lon="10.383631987497211">
        <ele>25.609999999999999</ele>
        <time>2019-05-08T12:55:59Z</time>
      </trkpt>
      <trkpt lat="53.635132033377886" lon="10.383853018283844">
        <ele>25.129999999999999</ele>
        <time>2019-05-08T12:56:00Z</time>
      </trkpt>
      <trkpt lat="53.635318027809262" lon="10.385703993961215">
        <ele>24.649999999999999</ele>
        <time>2019-05-08T12:56:09Z</time>
      </trkpt>
      <trkpt lat="53.635359015315771" lon="10.386482002213597">
        <ele>24.170000000000002</ele>
        <time>2019-05-08T12:56:13Z</time>
      </trkpt>
      <trkpt lat="53.635511985048652" lon="10.388105995953083">
        <ele>26.09</ele>
        <time>2019-05-08T12:56:22Z</time>
      </trkpt>
      <trkpt lat="53.635547021403909" lon="10.38842199370265">
        <ele>28.02</ele>
        <time>2019-05-08T12:56:25Z</time>
      </trkpt>
      <trkpt lat="53.63557199947536" lon="10.388643024489284">
        <ele>28.98</ele>
        <time>2019-05-08T12:56:27Z</time>
      </trkpt>
      <trkpt lat="53.635587003082037" lon="10.388775039464235">
        <ele>29.460000000000001</ele>
        <time>2019-05-08T12:56:28Z</time>
      </trkpt>
      <trkpt lat="53.635602006688714" lon="10.388906970620155">
        <ele>29.940000000000001</ele>
        <time>2019-05-08T12:56:29Z</time>
      </trkpt>
      <trkpt lat="53.635613992810249" lon="10.389016019180417">
        <ele>29.940000000000001</ele>
        <time>2019-05-08T12:56:30Z</time>
      </trkpt>
      <trkpt lat="53.63544300198555" lon="10.389268985018134">
        <ele>30.420000000000002</ele>
        <time>2019-05-08T12:56:31Z</time>
      </trkpt>
      <trkpt lat="53.635346023365855" lon="10.389279965311289">
        <ele>30.420000000000002</ele>
        <time>2019-05-08T12:56:32Z</time>
      </trkpt>
      <trkpt lat="53.635232029482722" lon="10.389292035251856">
        <ele>29.940000000000001</ele>
        <time>2019-05-08T12:56:33Z</time>
      </trkpt>
      <trkpt lat="53.635102026164532" lon="10.389307038858533">
        <ele>29.940000000000001</ele>
        <time>2019-05-08T12:56:34Z</time>
      </trkpt>
      <trkpt lat="53.634958025068045" lon="10.389322964474559">
        <ele>29.940000000000001</ele>
        <time>2019-05-08T12:56:35Z</time>
      </trkpt>
      <trkpt lat="53.634455027058721" lon="10.389478029683232">
        <ele>29.460000000000001</ele>
        <time>2019-05-08T12:56:38Z</time>
      </trkpt>
      <trkpt lat="53.634293004870415" lon="10.389608033001423">
        <ele>29.460000000000001</ele>
        <time>2019-05-08T12:56:39Z</time>
      </trkpt>
      <trkpt lat="53.634182028472424" lon="10.389780029654503">
        <ele>29.460000000000001</ele>
        <time>2019-05-08T12:56:40Z</time>
      </trkpt>
      <trkpt lat="53.634103992953897" lon="10.389942973852158">
        <ele>29.460000000000001</ele>
        <time>2019-05-08T12:56:41Z</time>
      </trkpt>
      <trkpt lat="53.634040961042047" lon="10.390115976333618">
        <ele>28.98</ele>
        <time>2019-05-08T12:56:42Z</time>
      </trkpt>
      <trkpt lat="53.633979018777609" lon="10.390287972986698">
        <ele>28.98</ele>
        <time>2019-05-08T12:56:43Z</time>
      </trkpt>
      <trkpt lat="53.633876005187631" lon="10.390399033203721">
        <ele>28.5</ele>
        <time>2019-05-08T12:56:44Z</time>
      </trkpt>
      <trkpt lat="53.633771985769272" lon="10.390490982681513">
        <ele>28.5</ele>
        <time>2019-05-08T12:56:45Z</time>
      </trkpt>
      <trkpt lat="53.633623961359262" lon="10.390619980171323">
        <ele>28.02</ele>
        <time>2019-05-08T12:56:46Z</time>
      </trkpt>
      <trkpt lat="53.633505022153258" lon="10.39061302319169">
        <ele>27.530000000000001</ele>
        <time>2019-05-08T12:56:47Z</time>
      </trkpt>
      <trkpt lat="53.632676973938942" lon="10.390515038743615">
        <ele>27.530000000000001</ele>
        <time>2019-05-08T12:56:52Z</time>
      </trkpt>
      <trkpt lat="53.631298989057541" lon="10.390115976333618">
        <ele>28.5</ele>
        <time>2019-05-08T12:57:00Z</time>
      </trkpt>
      <trkpt lat="53.629914969205856" lon="10.389293963089585">
        <ele>29.940000000000001</ele>
        <time>2019-05-08T12:57:08Z</time>
      </trkpt>
      <trkpt lat="53.628532961010933" lon="10.388018991798162">
        <ele>31.859999999999999</ele>
        <time>2019-05-08T12:57:14Z</time>
      </trkpt>
      <trkpt lat="53.626776030287147" lon="10.38586400449276">
        <ele>31.859999999999999</ele>
        <time>2019-05-08T12:57:21Z</time>
      </trkpt>
      <trkpt lat="53.624773006886244" lon="10.383434006944299">
        <ele>33.780000000000001</ele>
        <time>2019-05-08T12:57:30Z</time>
      </trkpt>
      <trkpt lat="53.622644003480673" lon="10.38131196051836">
        <ele>35.710000000000001</ele>
        <time>2019-05-08T12:57:39Z</time>
      </trkpt>
      <trkpt lat="53.62059697508812" lon="10.379898017272353">
        <ele>41.469999999999999</ele>
        <time>2019-05-08T12:57:47Z</time>
      </trkpt>
      <trkpt lat="53.618266973644495" lon="10.378956981003284">
        <ele>47.240000000000002</ele>
        <time>2019-05-08T12:57:56Z</time>
      </trkpt>
      <trkpt lat="53.615963961929083" lon="10.378647018224001">
        <ele>54.93</ele>
        <time>2019-05-08T12:58:05Z</time>
      </trkpt>
      <trkpt lat="53.613365991041064" lon="10.378870982676744">
        <ele>62.619999999999997</ele>
        <time>2019-05-08T12:58:15Z</time>
      </trkpt>
      <trkpt lat="53.610702976584435" lon="10.379498032853007">
        <ele>64.549999999999997</ele>
        <time>2019-05-08T12:58:24Z</time>
      </trkpt>
      <trkpt lat="53.607709966599941" lon="10.38049497641623">
        <ele>55.890000000000001</ele>
        <time>2019-05-08T12:58:34Z</time>
      </trkpt>
      <trkpt lat="53.604028970003128" lon="10.382220977917314">
        <ele>41.950000000000003</ele>
        <time>2019-05-08T12:58:46Z</time>
      </trkpt>
      <trkpt lat="53.60029399394989" lon="10.384608982130885">
        <ele>31.379999999999999</ele>
        <time>2019-05-08T12:58:58Z</time>
      </trkpt>
      <trkpt lat="53.598244031891227" lon="10.386031977832317">
        <ele>29.460000000000001</ele>
        <time>2019-05-08T12:59:05Z</time>
      </trkpt>
      <trkpt lat="53.596334969624877" lon="10.387382972985506">
        <ele>28.5</ele>
        <time>2019-05-08T12:59:13Z</time>
      </trkpt>
      <trkpt lat="53.594301017001271" lon="10.38882901892066">
        <ele>28.5</ele>
        <time>2019-05-08T12:59:22Z</time>
      </trkpt>
      <trkpt lat="53.592466972768307" lon="10.390133997425437">
        <ele>28.02</ele>
        <time>2019-05-08T12:59:30Z</time>
      </trkpt>
      <trkpt lat="53.590469984337687" lon="10.391542995348573">
        <ele>26.57</ele>
        <time>2019-05-08T12:59:39Z</time>
      </trkpt>
      <trkpt lat="53.589424006640911" lon="10.392042975872755">
        <ele>24.649999999999999</ele>
        <time>2019-05-08T12:59:44Z</time>
      </trkpt>
      <trkpt lat="53.589223008602858" lon="10.3920510224998">
        <ele>24.649999999999999</ele>
        <time>2019-05-08T12:59:45Z</time>
      </trkpt>
      <trkpt lat="53.589039025828242" lon="10.392043981701136">
        <ele>24.649999999999999</ele>
        <time>2019-05-08T12:59:46Z</time>
      </trkpt>
      <trkpt lat="53.588846996426582" lon="10.391971981152892">
        <ele>24.649999999999999</ele>
        <time>2019-05-08T12:59:47Z</time>
      </trkpt>
      <trkpt lat="53.588664019480348" lon="10.391872990876436">
        <ele>24.170000000000002</ele>
        <time>2019-05-08T12:59:48Z</time>
      </trkpt>
      <trkpt lat="53.588478025048971" lon="10.391723960638046">
        <ele>24.649999999999999</ele>
        <time>2019-05-08T12:59:49Z</time>
      </trkpt>
      <trkpt lat="53.588309967890382" lon="10.391568979248405">
        <ele>24.649999999999999</ele>
        <time>2019-05-08T12:59:50Z</time>
      </trkpt>
      <trkpt lat="53.588155992329121" lon="10.391416009515524">
        <ele>25.129999999999999</ele>
        <time>2019-05-08T12:59:51Z</time>
      </trkpt>
      <trkpt lat="53.587988018989563" lon="10.391335962340236">
        <ele>25.129999999999999</ele>
        <time>2019-05-08T12:59:52Z</time>
      </trkpt>
      <trkpt lat="53.58783395960927" lon="10.391305033117533">
        <ele>25.609999999999999</ele>
        <time>2019-05-08T12:59:53Z</time>
      </trkpt>
      <trkpt lat="53.587675038725138" lon="10.391311990097165">
        <ele>26.09</ele>
        <time>2019-05-08T12:59:54Z</time>
      </trkpt>
      <trkpt lat="53.587531959638" lon="10.391388013958931">
        <ele>26.57</ele>
        <time>2019-05-08T12:59:55Z</time>
      </trkpt>
      <trkpt lat="53.58740396797657" lon="10.391456997022033">
        <ele>27.050000000000001</ele>
        <time>2019-05-08T12:59:56Z</time>
      </trkpt>
      <trkpt lat="53.587270025163889" lon="10.391617007553577">
        <ele>27.530000000000001</ele>
        <time>2019-05-08T12:59:57Z</time>
      </trkpt>
      <trkpt lat="53.587149996310472" lon="10.391761008650064">
        <ele>28.02</ele>
        <time>2019-05-08T12:59:58Z</time>
      </trkpt>
      <trkpt lat="53.5870570410043" lon="10.391953038051724">
        <ele>28.02</ele>
        <time>2019-05-08T12:59:59Z</time>
      </trkpt>
      <trkpt lat="53.587005995213985" lon="10.392170967534184">
        <ele>28.5</ele>
        <time>2019-05-08T13:00:00Z</time>
      </trkpt>
      <trkpt lat="53.586960984393954" lon="10.392364002764225">
        <ele>28.02</ele>
        <time>2019-05-08T13:00:01Z</time>
      </trkpt>
      <trkpt lat="53.586925026029348" lon="10.392517978325486">
        <ele>28.02</ele>
        <time>2019-05-08T13:00:02Z</time>
      </trkpt>
      <trkpt lat="53.586900969967246" lon="10.392620991915464">
        <ele>27.530000000000001</ele>
        <time>2019-05-08T13:00:03Z</time>
      </trkpt>
      <trkpt lat="53.586888983845711" lon="10.392674971371889">
        <ele>27.530000000000001</ele>
        <time>2019-05-08T13:00:04Z</time>
      </trkpt>
      <trkpt lat="53.586785970255733" lon="10.392736997455359">
        <ele>27.530000000000001</ele>
        <time>2019-05-08T13:00:08Z</time>
      </trkpt>
      <trkpt lat="53.586738025769591" lon="10.39271897636354">
        <ele>27.530000000000001</ele>
        <time>2019-05-08T13:00:10Z</time>
      </trkpt>
      <trkpt lat="53.586686979979277" lon="10.392700033262372">
        <ele>27.530000000000001</ele>
        <time>2019-05-08T13:00:11Z</time>
      </trkpt>
      <trkpt lat="53.586611961945891" lon="10.392672959715128">
        <ele>27.530000000000001</ele>
        <time>2019-05-08T13:00:12Z</time>
      </trkpt>
      <trkpt lat="53.585917018353939" lon="10.392399039119482">
        <ele>26.57</ele>
        <time>2019-05-08T13:00:17Z</time>
      </trkpt>
      <trkpt lat="53.584402995184064" lon="10.39175296202302">
        <ele>23.690000000000001</ele>
        <time>2019-05-08T13:00:24Z</time>
      </trkpt>
      <trkpt lat="53.583720959722996" lon="10.391432018950582">
        <ele>23.210000000000001</ele>
        <time>2019-05-08T13:00:28Z</time>
      </trkpt>
      <trkpt lat="53.58323497697711" lon="10.391201013699174">
        <ele>23.210000000000001</ele>
        <time>2019-05-08T13:00:33Z</time>
      </trkpt>
      <trkpt lat="53.582973964512348" lon="10.391076961532235">
        <ele>22.25</ele>
        <time>2019-05-08T13:00:36Z</time>
      </trkpt>
      <trkpt lat="53.582772966474295" lon="10.390980988740921">
        <ele>22.73</ele>
        <time>2019-05-08T13:00:38Z</time>
      </trkpt>
      <trkpt lat="53.582651009783149" lon="10.390923991799355">
        <ele>23.210000000000001</ele>
        <time>2019-05-08T13:00:39Z</time>
      </trkpt>
      <trkpt lat="53.581616012379527" lon="10.390170039609075">
        <ele>28.98</ele>
        <time>2019-05-08T13:00:47Z</time>
      </trkpt>
      <trkpt lat="53.581309989094734" lon="10.389733007177711">
        <ele>30.420000000000002</ele>
        <time>2019-05-08T13:00:50Z</time>
      </trkpt>
      <trkpt lat="53.580540027469397" lon="10.388073977082968">
        <ele>33.780000000000001</ele>
        <time>2019-05-08T13:01:00Z</time>
      </trkpt>
      <trkpt lat="53.580129984766245" lon="10.387058006599545">
        <ele>34.259999999999998</ele>
        <time>2019-05-08T13:01:06Z</time>
      </trkpt>
      <trkpt lat="53.5800960380584" lon="10.38698298856616">
        <ele>34.259999999999998</ele>
        <time>2019-05-08T13:01:07Z</time>
      </trkpt>
      <trkpt lat="53.580007022246718" lon="10.386989023536444">
        <ele>33.780000000000001</ele>
        <time>2019-05-08T13:01:08Z</time>
      </trkpt>
      <trkpt lat="53.579986989498138" lon="10.387053983286023">
        <ele>33.780000000000001</ele>
        <time>2019-05-08T13:01:09Z</time>
      </trkpt>
      <trkpt lat="53.579965028911829" lon="10.38715397939086">
        <ele>33.780000000000001</ele>
        <time>2019-05-08T13:01:10Z</time>
      </trkpt>
      <trkpt lat="53.579936027526855" lon="10.387306027114391">
        <ele>33.780000000000001</ele>
        <time>2019-05-08T13:01:11Z</time>
      </trkpt>
      <trkpt lat="53.579901996999979" lon="10.387483974918723">
        <ele>33.780000000000001</ele>
        <time>2019-05-08T13:01:12Z</time>
      </trkpt>
      <trkpt lat="53.579647019505501" lon="10.389293041080236">
        <ele>30.420000000000002</ele>
        <time>2019-05-08T13:01:20Z</time>
      </trkpt>
      <trkpt lat="53.579381983727217" lon="10.391196990385652">
        <ele>28.02</ele>
        <time>2019-05-08T13:01:28Z</time>
      </trkpt>
      <trkpt lat="53.579325992614031" lon="10.391638968139887">
        <ele>28.5</ele>
        <time>2019-05-08T13:01:30Z</time>
      </trkpt>
      <trkpt lat="53.579232031479478" lon="10.392540022730827">
        <ele>30.899999999999999</ele>
        <time>2019-05-08T13:01:36Z</time>
      </trkpt>
      <trkpt lat="53.579223984852433" lon="10.392629960551858">
        <ele>31.379999999999999</ele>
        <time>2019-05-08T13:01:37Z</time>
      </trkpt>
      <trkpt lat="53.579219039529562" lon="10.392703972756863">
        <ele>31.859999999999999</ele>
        <time>2019-05-08T13:01:38Z</time>
      </trkpt>
      <trkpt lat="53.579121977090836" lon="10.392748983576894">
        <ele>32.340000000000003</ele>
        <time>2019-05-08T13:01:39Z</time>
      </trkpt>
      <trkpt lat="53.579100016504526" lon="10.392716964706779">
        <ele>32.82</ele>
        <time>2019-05-08T13:01:40Z</time>
      </trkpt>
      <trkpt lat="53.579055005684495" lon="10.392652004957199">
        <ele>33.299999999999997</ele>
        <time>2019-05-08T13:01:41Z</time>
      </trkpt>
      <trkpt lat="53.578989962115884" lon="10.392557037994266">
        <ele>33.780000000000001</ele>
        <time>2019-05-08T13:01:42Z</time>
      </trkpt>
      <trkpt lat="53.578652003780007" lon="10.392064014449716">
        <ele>35.229999999999997</ele>
        <time>2019-05-08T13:01:46Z</time>
      </trkpt>
      <trkpt lat="53.578557958826423" lon="10.391926970332861">
        <ele>36.189999999999998</ele>
        <time>2019-05-08T13:01:47Z</time>
      </trkpt>
      <trkpt lat="53.577399998903275" lon="10.390371037647128">
        <ele>36.189999999999998</ele>
        <time>2019-05-08T13:01:58Z</time>
      </trkpt>
      <trkpt lat="53.576238015666604" lon="10.388879980891943">
        <ele>35.229999999999997</ele>
        <time>2019-05-08T13:02:08Z</time>
      </trkpt>
      <trkpt lat="53.575233025476336" lon="10.387748004868627">
        <ele>34.740000000000002</ele>
        <time>2019-05-08T13:02:16Z</time>
      </trkpt>
      <trkpt lat="53.574558030813932" lon="10.387210976332426">
        <ele>34.740000000000002</ele>
        <time>2019-05-08T13:02:21Z</time>
      </trkpt>
      <trkpt lat="53.57322002761066" lon="10.386242028325796">
        <ele>37.149999999999999</ele>
        <time>2019-05-08T13:02:31Z</time>
      </trkpt>
      <trkpt lat="53.571905996650457" lon="10.385393025353551">
        <ele>39.549999999999997</ele>
        <time>2019-05-08T13:02:41Z</time>
      </trkpt>
      <trkpt lat="53.570298012346029" lon="10.384922968223691">
        <ele>38.590000000000003</ele>
        <time>2019-05-08T13:02:52Z</time>
      </trkpt>
      <trkpt lat="53.568970989435911" lon="10.384225007146597">
        <ele>34.740000000000002</ele>
        <time>2019-05-08T13:03:01Z</time>
      </trkpt>
      <trkpt lat="53.567599961534142" lon="10.383252035826445">
        <ele>37.630000000000003</ele>
        <time>2019-05-08T13:03:09Z</time>
      </trkpt>
      <trkpt lat="53.566976012662053" lon="10.382745014503598">
        <ele>41.469999999999999</ele>
        <time>2019-05-08T13:03:13Z</time>
      </trkpt>
      <trkpt lat="53.566877022385597" lon="10.382574023678899">
        <ele>42.439999999999998</ele>
        <time>2019-05-08T13:03:14Z</time>
      </trkpt>
      <trkpt lat="53.566739978268743" lon="10.382337989285588">
        <ele>43.399999999999999</ele>
        <time>2019-05-08T13:03:15Z</time>
      </trkpt>
      <trkpt lat="53.565978985279799" lon="10.380694968625903">
        <ele>46.759999999999998</ele>
        <time>2019-05-08T13:03:21Z</time>
      </trkpt>
      <trkpt lat="53.564662020653486" lon="10.378035977482796">
        <ele>48.68</ele>
        <time>2019-05-08T13:03:29Z</time>
      </trkpt>
      <trkpt lat="53.563895998522639" lon="10.376237975433469">
        <ele>48.200000000000003</ele>
        <time>2019-05-08T13:03:34Z</time>
      </trkpt>
      <trkpt lat="53.562897965312004" lon="10.374150965362787">
        <ele>46.280000000000001</ele>
        <time>2019-05-08T13:03:40Z</time>
      </trkpt>
      <trkpt lat="53.561790967360139" lon="10.372224971652031">
        <ele>41.950000000000003</ele>
        <time>2019-05-08T13:03:46Z</time>
      </trkpt>
      <trkpt lat="53.560370989143848" lon="10.370594020932913">
        <ele>38.590000000000003</ele>
        <time>2019-05-08T13:03:52Z</time>
      </trkpt>
      <trkpt lat="53.559123007580638" lon="10.368647994473577">
        <ele>38.590000000000003</ele>
        <time>2019-05-08T13:03:58Z</time>
      </trkpt>
      <trkpt lat="53.55811701156199" lon="10.366577999666333">
        <ele>38.109999999999999</ele>
        <time>2019-05-08T13:04:04Z</time>
      </trkpt>
      <trkpt lat="53.556916974484921" lon="10.364109026268125">
        <ele>38.109999999999999</ele>
        <time>2019-05-08T13:04:11Z</time>
      </trkpt>
      <trkpt lat="53.555332040414214" lon="10.360758025199175">
        <ele>38.590000000000003</ele>
        <time>2019-05-08T13:04:20Z</time>
      </trkpt>
      <trkpt lat="53.554241973906755" lon="10.358048994094133">
        <ele>39.07</ele>
        <time>2019-05-08T13:04:27Z</time>
      </trkpt>
      <trkpt lat="53.553280988708138" lon="10.35561497323215">
        <ele>38.590000000000003</ele>
        <time>2019-05-08T13:04:34Z</time>
      </trkpt>
      <trkpt lat="53.553060963749886" lon="10.355046009644866">
        <ele>39.07</ele>
        <time>2019-05-08T13:04:36Z</time>
      </trkpt>
      <trkpt lat="53.55296197347343" lon="10.354812992736697">
        <ele>39.07</ele>
        <time>2019-05-08T13:04:37Z</time>
      </trkpt>
      <trkpt lat="53.552821995690465" lon="10.354595985263586">
        <ele>39.07</ele>
        <time>2019-05-08T13:04:38Z</time>
      </trkpt>
      <trkpt lat="53.552689980715513" lon="10.354447038844228">
        <ele>38.590000000000003</ele>
        <time>2019-05-08T13:04:39Z</time>
      </trkpt>
      <trkpt lat="53.552534999325871" lon="10.354292979463935">
        <ele>38.590000000000003</ele>
        <time>2019-05-08T13:04:40Z</time>
      </trkpt>
      <trkpt lat="53.552361996844411" lon="10.354179991409183">
        <ele>38.109999999999999</ele>
        <time>2019-05-08T13:04:41Z</time>
      </trkpt>
      <trkpt lat="53.55102701112628" lon="10.353288995102048">
        <ele>38.109999999999999</ele>
        <time>2019-05-08T13:04:47Z</time>
      </trkpt>
      <trkpt lat="53.548974031582475" lon="10.351859964430332">
        <ele>38.590000000000003</ele>
        <time>2019-05-08T13:04:55Z</time>
      </trkpt>
      <trkpt lat="53.547264961525798" lon="10.350732011720538">
        <ele>39.549999999999997</ele>
        <time>2019-05-08T13:05:01Z</time>
      </trkpt>
      <trkpt lat="53.545799972489476" lon="10.349764991551638">
        <ele>40.509999999999998</ele>
        <time>2019-05-08T13:05:06Z</time>
      </trkpt>
      <trkpt lat="53.543900968506932" lon="10.348510975018144">
        <ele>40.509999999999998</ele>
        <time>2019-05-08T13:05:13Z</time>
      </trkpt>
      <trkpt lat="53.541738018393517" lon="10.347096025943756">
        <ele>40.509999999999998</ele>
        <time>2019-05-08T13:05:21Z</time>
      </trkpt>
      <trkpt lat="53.53979199193418" lon="10.345835974439979">
        <ele>39.07</ele>
        <time>2019-05-08T13:05:28Z</time>
      </trkpt>
      <trkpt lat="53.537266021594405" lon="10.344192031770945">
        <ele>40.509999999999998</ele>
        <time>2019-05-08T13:05:37Z</time>
      </trkpt>
      <trkpt lat="53.534727981314063" lon="10.342560997232795">
        <ele>40.030000000000001</ele>
        <time>2019-05-08T13:05:46Z</time>
      </trkpt>
      <trkpt lat="53.533473964780569" lon="10.341804027557373">
        <ele>38.590000000000003</ele>
        <time>2019-05-08T13:05:51Z</time>
      </trkpt>
      <trkpt lat="53.53235699236393" lon="10.341088967397809">
        <ele>37.630000000000003</ele>
        <time>2019-05-08T13:05:58Z</time>
      </trkpt>
      <trkpt lat="53.531598011031747" lon="10.340759977698326">
        <ele>38.109999999999999</ele>
        <time>2019-05-08T13:06:04Z</time>
      </trkpt>
      <trkpt lat="53.531489968299866" lon="10.340699041262269">
        <ele>37.630000000000003</ele>
        <time>2019-05-08T13:06:05Z</time>
      </trkpt>
      <trkpt lat="53.531384021043777" lon="10.340608013793826">
        <ele>37.149999999999999</ele>
        <time>2019-05-08T13:06:06Z</time>
      </trkpt>
      <trkpt lat="53.531292993575335" lon="10.340454038232565">
        <ele>37.149999999999999</ele>
        <time>2019-05-08T13:06:07Z</time>
      </trkpt>
      <trkpt lat="53.531204983592033" lon="10.340299978852272">
        <ele>36.670000000000002</ele>
        <time>2019-05-08T13:06:08Z</time>
      </trkpt>
      <trkpt lat="53.531117979437113" lon="10.340150026604533">
        <ele>36.189999999999998</ele>
        <time>2019-05-08T13:06:09Z</time>
      </trkpt>
      <trkpt lat="53.530829977244139" lon="10.339793041348457">
        <ele>35.229999999999997</ele>
        <time>2019-05-08T13:06:12Z</time>
      </trkpt>
      <trkpt lat="53.530726041644812" lon="10.339678041636944">
        <ele>34.740000000000002</ele>
        <time>2019-05-08T13:06:13Z</time>
      </trkpt>
      <trkpt lat="53.530614981427789" lon="10.339589025825262">
        <ele>34.740000000000002</ele>
        <time>2019-05-08T13:06:14Z</time>
      </trkpt>
      <trkpt lat="53.530387999489903" lon="10.33947897143662">
        <ele>33.780000000000001</ele>
        <time>2019-05-08T13:06:16Z</time>
      </trkpt>
      <trkpt lat="53.530283980071545" lon="10.339444018900394">
        <ele>33.780000000000001</ele>
        <time>2019-05-08T13:06:17Z</time>
      </trkpt>
      <trkpt lat="53.530195970088243" lon="10.339505039155483">
        <ele>33.299999999999997</ele>
        <time>2019-05-08T13:06:18Z</time>
      </trkpt>
      <trkpt lat="53.530105026438832" lon="10.339568993076682">
        <ele>32.340000000000003</ele>
        <time>2019-05-08T13:06:19Z</time>
      </trkpt>
      <trkpt lat="53.530030008405447" lon="10.339654991403222">
        <ele>32.340000000000003</ele>
        <time>2019-05-08T13:06:20Z</time>
      </trkpt>
      <trkpt lat="53.52995197288692" lon="10.3397770319134">
        <ele>32.340000000000003</ele>
        <time>2019-05-08T13:06:21Z</time>
      </trkpt>
      <trkpt lat="53.529877038672566" lon="10.339893959462643">
        <ele>31.859999999999999</ele>
        <time>2019-05-08T13:06:22Z</time>
      </trkpt>
      <trkpt lat="53.529806965962052" lon="10.340004013851285">
        <ele>31.379999999999999</ele>
        <time>2019-05-08T13:06:23Z</time>
      </trkpt>
      <trkpt lat="53.529738988727331" lon="10.340109961107373">
        <ele>30.899999999999999</ele>
        <time>2019-05-08T13:06:24Z</time>
      </trkpt>
      <trkpt lat="53.529578978195786" lon="10.340277012437582">
        <ele>30.420000000000002</ele>
        <time>2019-05-08T13:06:26Z</time>
      </trkpt>
      <trkpt lat="53.529490968212485" lon="10.340317999944091">
        <ele>30.420000000000002</ele>
        <time>2019-05-08T13:06:27Z</time>
      </trkpt>
      <trkpt lat="53.529411004856229" lon="10.340338032692671">
        <ele>29.940000000000001</ele>
        <time>2019-05-08T13:06:28Z</time>
      </trkpt>
      <trkpt lat="53.529333975166082" lon="10.340356975793839">
        <ele>29.940000000000001</ele>
        <time>2019-05-08T13:06:29Z</time>
      </trkpt>
      <trkpt lat="53.529260968789458" lon="10.340394023805857">
        <ele>29.940000000000001</ele>
        <time>2019-05-08T13:06:30Z</time>
      </trkpt>
      <trkpt lat="53.529184022918344" lon="10.340454038232565">
        <ele>29.940000000000001</ele>
        <time>2019-05-08T13:06:31Z</time>
      </trkpt>
      <trkpt lat="53.529038010165095" lon="10.340609019622207">
        <ele>28.98</ele>
        <time>2019-05-08T13:06:33Z</time>
      </trkpt>
      <trkpt lat="53.528851009905338" lon="10.340876989066601">
        <ele>28.02</ele>
        <time>2019-05-08T13:06:35Z</time>
      </trkpt>
      <trkpt lat="53.528773980215192" lon="10.341028030961752">
        <ele>28.02</ele>
        <time>2019-05-08T13:06:36Z</time>
      </trkpt>
      <trkpt lat="53.528712037950754" lon="10.341203967109323">
        <ele>28.02</ele>
        <time>2019-05-08T13:06:37Z</time>
      </trkpt>
      <trkpt lat="53.528589997440577" lon="10.341551983729005">
        <ele>27.050000000000001</ele>
        <time>2019-05-08T13:06:39Z</time>
      </trkpt>
      <trkpt lat="53.528524031862617" lon="10.341739989817142">
        <ele>27.530000000000001</ele>
        <time>2019-05-08T13:06:40Z</time>
      </trkpt>
      <trkpt lat="53.528502993285656" lon="10.341893965378404">
        <ele>27.530000000000001</ele>
        <time>2019-05-08T13:06:41Z</time>
      </trkpt>
      <trkpt lat="53.528373995795846" lon="10.342856040224433">
        <ele>27.530000000000001</ele>
        <time>2019-05-08T13:06:46Z</time>
      </trkpt>
      <trkpt lat="53.528324039652944" lon="10.343034993857145">
        <ele>27.530000000000001</ele>
        <time>2019-05-08T13:06:47Z</time>
      </trkpt>
      <trkpt lat="53.528270982205868" lon="10.343228029087186">
        <ele>27.530000000000001</ele>
        <time>2019-05-08T13:06:48Z</time>
      </trkpt>
      <trkpt lat="53.528196970000863" lon="10.343402959406376">
        <ele>28.02</ele>
        <time>2019-05-08T13:06:49Z</time>
      </trkpt>
      <trkpt lat="53.528118012472987" lon="10.343566993251443">
        <ele>28.02</ele>
        <time>2019-05-08T13:06:50Z</time>
      </trkpt>
      <trkpt lat="53.528021033853292" lon="10.34369096159935">
        <ele>28.5</ele>
        <time>2019-05-08T13:06:51Z</time>
      </trkpt>
      <trkpt lat="53.527925983071327" lon="10.343811996281147">
        <ele>28.98</ele>
        <time>2019-05-08T13:06:52Z</time>
      </trkpt>
      <trkpt lat="53.527818024158478" lon="10.343895982950926">
        <ele>29.460000000000001</ele>
        <time>2019-05-08T13:06:53Z</time>
      </trkpt>
      <trkpt lat="53.527699001133442" lon="10.343973012641072">
        <ele>29.940000000000001</ele>
        <time>2019-05-08T13:06:54Z</time>
      </trkpt>
      <trkpt lat="53.527577966451645" lon="10.344044007360935">
        <ele>30.899999999999999</ele>
        <time>2019-05-08T13:06:55Z</time>
      </trkpt>
      <trkpt lat="53.527455003932118" lon="10.344089018180966">
        <ele>31.859999999999999</ele>
        <time>2019-05-08T13:06:56Z</time>
      </trkpt>
      <trkpt lat="53.52732902392745" lon="10.344126988202333">
        <ele>32.340000000000003</ele>
        <time>2019-05-08T13:06:57Z</time>
      </trkpt>
      <trkpt lat="53.526797024533153" lon="10.344150038436055">
        <ele>34.259999999999998</ele>
        <time>2019-05-08T13:07:01Z</time>
      </trkpt>
      <trkpt lat="53.526661992073059" lon="10.344137968495488">
        <ele>34.740000000000002</ele>
        <time>2019-05-08T13:07:02Z</time>
      </trkpt>
      <trkpt lat="53.526386981830001" lon="10.3440320212394">
        <ele>35.229999999999997</ele>
        <time>2019-05-08T13:07:04Z</time>
      </trkpt>
      <trkpt lat="53.526249015703797" lon="10.343966977670789">
        <ele>35.710000000000001</ele>
        <time>2019-05-08T13:07:05Z</time>
      </trkpt>
      <trkpt lat="53.525575026869774" lon="10.343421986326575">
        <ele>37.149999999999999</ele>
        <time>2019-05-08T13:07:10Z</time>
      </trkpt>
      <trkpt lat="53.524425029754639" lon="10.341739989817142">
        <ele>39.549999999999997</ele>
        <time>2019-05-08T13:07:19Z</time>
      </trkpt>
      <trkpt lat="53.523545013740659" lon="10.340439034625888">
        <ele>39.07</ele>
        <time>2019-05-08T13:07:26Z</time>
      </trkpt>
      <trkpt lat="53.523128014057875" lon="10.339770996943116">
        <ele>35.710000000000001</ele>
        <time>2019-05-08T13:07:32Z</time>
      </trkpt>
      <trkpt lat="53.523048972710967" lon="10.339640993624926">
        <ele>34.259999999999998</ele>
        <time>2019-05-08T13:07:34Z</time>
      </trkpt>
      <trkpt lat="53.523016031831503" lon="10.339588019996881">
        <ele>32.82</ele>
        <time>2019-05-08T13:07:35Z</time>
      </trkpt>
      <trkpt lat="53.522986024618149" lon="10.339539991691709">
        <ele>29.460000000000001</ele>
        <time>2019-05-08T13:07:39Z</time>
      </trkpt>
      <trkpt lat="53.522955011576414" lon="10.339529011398554">
        <ele>28.5</ele>
        <time>2019-05-08T13:07:40Z</time>
      </trkpt>
      <trkpt lat="53.522919975221157" lon="10.339591037482023">
        <ele>27.530000000000001</ele>
        <time>2019-05-08T13:07:41Z</time>
      </trkpt>
      <trkpt lat="53.522871024906635" lon="10.339679969474673">
        <ele>26.57</ele>
        <time>2019-05-08T13:07:42Z</time>
      </trkpt>
      <trkpt lat="53.522798018530011" lon="10.339809972792864">
        <ele>26.57</ele>
        <time>2019-05-08T13:07:43Z</time>
      </trkpt>
      <trkpt lat="53.522707996889949" lon="10.33997199498117">
        <ele>26.57</ele>
        <time>2019-05-08T13:07:44Z</time>
      </trkpt>
      <trkpt lat="53.521919008344412" lon="10.341208996251225">
        <ele>27.050000000000001</ele>
        <time>2019-05-08T13:07:50Z</time>
      </trkpt>
      <trkpt lat="53.520349999889731" lon="10.34356196410954">
        <ele>29.940000000000001</ele>
        <time>2019-05-08T13:07:59Z</time>
      </trkpt>
      <trkpt lat="53.519490016624331" lon="10.34521596506238">
        <ele>31.859999999999999</ele>
        <time>2019-05-08T13:08:04Z</time>
      </trkpt>
      <trkpt lat="53.518734974786639" lon="10.347141958773136">
        <ele>33.299999999999997</ele>
        <time>2019-05-08T13:08:09Z</time>
      </trkpt>
      <trkpt lat="53.517464026808739" lon="10.350373014807701">
        <ele>31.859999999999999</ele>
        <time>2019-05-08T13:08:18Z</time>
      </trkpt>
      <trkpt lat="53.516311012208462" lon="10.352963022887707">
        <ele>31.859999999999999</ele>
        <time>2019-05-08T13:08:25Z</time>
      </trkpt>
      <trkpt lat="53.515090020373464" lon="10.354513004422188">
        <ele>31.859999999999999</ele>
        <time>2019-05-08T13:08:32Z</time>
      </trkpt>
      <trkpt lat="53.513491004705429" lon="10.356573024764657">
        <ele>30.899999999999999</ele>
        <time>2019-05-08T13:08:40Z</time>
      </trkpt>
      <trkpt lat="53.512157024815679" lon="10.359161021187901">
        <ele>23.690000000000001</ele>
        <time>2019-05-08T13:08:47Z</time>
      </trkpt>
      <trkpt lat="53.510423982515931" lon="10.3626390080899">
        <ele>14.56</ele>
        <time>2019-05-08T13:08:56Z</time>
      </trkpt>
      <trkpt lat="53.509833980351686" lon="10.363616002723575">
        <ele>12.15</ele>
        <time>2019-05-08T13:08:59Z</time>
      </trkpt>
      <trkpt lat="53.508520033210516" lon="10.364992981776595">
        <ele>7.83</ele>
        <time>2019-05-08T13:09:05Z</time>
      </trkpt>
      <trkpt lat="53.508006976917386" lon="10.365263968706131">
        <ele>5.91</ele>
        <time>2019-05-08T13:09:07Z</time>
      </trkpt>
      <trkpt lat="53.506492031738162" lon="10.365620031952858">
        <ele>3.98</ele>
        <time>2019-05-08T13:09:13Z</time>
      </trkpt>
      <trkpt lat="53.505425015464425" lon="10.365730002522469">
        <ele>5.42</ele>
        <time>2019-05-08T13:09:19Z</time>
      </trkpt>
      <trkpt lat="53.504015011712909" lon="10.365860005840659">
        <ele>12.630000000000001</ele>
        <time>2019-05-08T13:09:29Z</time>
      </trkpt>
      <trkpt lat="53.502585981041193" lon="10.36596997641027">
        <ele>22.73</ele>
        <time>2019-05-08T13:09:40Z</time>
      </trkpt>
      <trkpt lat="53.501158962026238" lon="10.366086987778544">
        <ele>33.299999999999997</ele>
        <time>2019-05-08T13:09:51Z</time>
      </trkpt>
      <trkpt lat="53.499912992119789" lon="10.365879032760859">
        <ele>36.670000000000002</ele>
        <time>2019-05-08T13:10:01Z</time>
      </trkpt>
      <trkpt lat="53.498338032513857" lon="10.36523999646306">
        <ele>41.469999999999999</ele>
        <time>2019-05-08T13:10:14Z</time>
      </trkpt>
      <trkpt lat="53.49664899520576" lon="10.364541029557586">
        <ele>46.280000000000001</ele>
        <time>2019-05-08T13:10:28Z</time>
      </trkpt>
      <trkpt lat="53.495434038341045" lon="10.364060997962952">
        <ele>44.359999999999999</ele>
        <time>2019-05-08T13:10:38Z</time>
      </trkpt>
      <trkpt lat="53.495319960638881" lon="10.36401598714292">
        <ele>44.359999999999999</ele>
        <time>2019-05-08T13:10:39Z</time>
      </trkpt>
      <trkpt lat="53.494706992059946" lon="10.363770984113216">
        <ele>43.880000000000003</ele>
        <time>2019-05-08T13:10:44Z</time>
      </trkpt>
      <trkpt lat="53.494456959888339" lon="10.363671993836761">
        <ele>44.840000000000003</ele>
        <time>2019-05-08T13:10:46Z</time>
      </trkpt>
      <trkpt lat="53.493116023018956" lon="10.363377034664154">
        <ele>47.719999999999999</ele>
        <time>2019-05-08T13:10:57Z</time>
      </trkpt>
      <trkpt lat="53.492015982046723" lon="10.363275026902556">
        <ele>52.530000000000001</ele>
        <time>2019-05-08T13:11:06Z</time>
      </trkpt>
      <trkpt lat="53.490542024374008" lon="10.363139994442463">
        <ele>57.82</ele>
        <time>2019-05-08T13:11:18Z</time>
      </trkpt>
      <trkpt lat="53.490260979160666" lon="10.363119039684534">
        <ele>58.780000000000001</ele>
        <time>2019-05-08T13:11:24Z</time>
      </trkpt>
      <trkpt lat="53.490183027461171" lon="10.363114010542631">
        <ele>59.740000000000002</ele>
        <time>2019-05-08T13:11:36Z</time>
      </trkpt>
      <trkpt lat="53.489713976159692" lon="10.363090038299561">
        <ele>60.700000000000003</ele>
        <time>2019-05-08T13:11:46Z</time>
      </trkpt>
      <trkpt lat="53.48945296369493" lon="10.363073023036122">
        <ele>61.18</ele>
        <time>2019-05-08T13:11:54Z</time>
      </trkpt>
      <trkpt lat="53.489363025873899" lon="10.363058019429445">
        <ele>61.18</ele>
        <time>2019-05-08T13:11:56Z</time>
      </trkpt>
      <trkpt lat="53.489312985911965" lon="10.363045027479529">
        <ele>60.700000000000003</ele>
        <time>2019-05-08T13:12:04Z</time>
      </trkpt>
      <trkpt lat="53.489256994798779" lon="10.363031029701233">
        <ele>61.659999999999997</ele>
        <time>2019-05-08T13:12:41Z</time>
      </trkpt>
      <trkpt lat="53.489191029220819" lon="10.363015020266175">
        <ele>62.619999999999997</ele>
        <time>2019-05-08T13:12:42Z</time>
      </trkpt>
      <trkpt lat="53.489112993702292" lon="10.363006973639131">
        <ele>62.619999999999997</ele>
        <time>2019-05-08T13:12:43Z</time>
      </trkpt>
      <trkpt lat="53.489008974283934" lon="10.363014014437795">
        <ele>62.619999999999997</ele>
        <time>2019-05-08T13:12:44Z</time>
      </trkpt>
      <trkpt lat="53.488885005936027" lon="10.363022983074188">
        <ele>62.619999999999997</ele>
        <time>2019-05-08T13:12:45Z</time>
      </trkpt>
      <trkpt lat="53.48874100483954" lon="10.363032035529613">
        <ele>62.619999999999997</ele>
        <time>2019-05-08T13:12:46Z</time>
      </trkpt>
      <trkpt lat="53.487428985536098" lon="10.363090038299561">
        <ele>63.579999999999998</ele>
        <time>2019-05-08T13:12:53Z</time>
      </trkpt>
      <trkpt lat="53.485550014302135" lon="10.363341998308897">
        <ele>66.469999999999999</ele>
        <time>2019-05-08T13:13:01Z</time>
      </trkpt>
      <trkpt lat="53.483194028958678" lon="10.364199969917536">
        <ele>67.909999999999997</ele>
        <time>2019-05-08T13:13:10Z</time>
      </trkpt>
      <trkpt lat="53.481154041364789" lon="10.36496196873486">
        <ele>68.390000000000001</ele>
        <time>2019-05-08T13:13:18Z</time>
      </trkpt>
      <trkpt lat="53.479878986254334" lon="10.365446023643017">
        <ele>71.269999999999996</ele>
        <time>2019-05-08T13:13:25Z</time>
      </trkpt>
      <trkpt lat="53.479007016867399" lon="10.365757998079062">
        <ele>72.719999999999999</ele>
        <time>2019-05-08T13:13:32Z</time>
      </trkpt>
      <trkpt lat="53.478018958121538" lon="10.366092016920447">
        <ele>72.239999999999995</ele>
        <time>2019-05-08T13:13:40Z</time>
      </trkpt>
      <trkpt lat="53.476725965738297" lon="10.366866001859307">
        <ele>68.390000000000001</ele>
        <time>2019-05-08T13:13:51Z</time>
      </trkpt>
      <trkpt lat="53.475536992773414" lon="10.367462038993835">
        <ele>65.510000000000005</ele>
        <time>2019-05-08T13:14:01Z</time>
      </trkpt>
      <trkpt lat="53.474201001226902" lon="10.367427002638578">
        <ele>61.659999999999997</ele>
        <time>2019-05-08T13:14:12Z</time>
      </trkpt>
      <trkpt lat="53.473963038995862" lon="10.367331029847264">
        <ele>60.219999999999999</ele>
        <time>2019-05-08T13:14:14Z</time>
      </trkpt>
      <trkpt lat="53.473848039284348" lon="10.367284007370472">
        <ele>59.259999999999998</ele>
        <time>2019-05-08T13:14:15Z</time>
      </trkpt>
      <trkpt lat="53.473148988559842" lon="10.367034981027246">
        <ele>52.049999999999997</ele>
        <time>2019-05-08T13:14:22Z</time>
      </trkpt>
      <trkpt lat="53.472111979499459" lon="10.367011008784175">
        <ele>48.200000000000003</ele>
        <time>2019-05-08T13:14:30Z</time>
      </trkpt>
      <trkpt lat="53.470598962157965" lon="10.367254000157118">
        <ele>45.799999999999997</ele>
        <time>2019-05-08T13:14:38Z</time>
      </trkpt>
      <trkpt lat="53.468995001167059" lon="10.367517024278641">
        <ele>44.359999999999999</ele>
        <time>2019-05-08T13:14:44Z</time>
      </trkpt>
      <trkpt lat="53.466626023873687" lon="10.367907034233212">
        <ele>42.920000000000002</ele>
        <time>2019-05-08T13:14:52Z</time>
      </trkpt>
      <trkpt lat="53.464434994384646" lon="10.368277011439204">
        <ele>42.920000000000002</ele>
        <time>2019-05-08T13:15:01Z</time>
      </trkpt>
      <trkpt lat="53.462312025949359" lon="10.368645982816815">
        <ele>43.399999999999999</ele>
        <time>2019-05-08T13:15:11Z</time>
      </trkpt>
      <trkpt lat="53.460815018042922" lon="10.368908001109958">
        <ele>44.359999999999999</ele>
        <time>2019-05-08T13:15:17Z</time>
      </trkpt>
      <trkpt lat="53.458843007683754" lon="10.369262974709272">
        <ele>45.799999999999997</ele>
        <time>2019-05-08T13:15:27Z</time>
      </trkpt>
      <trkpt lat="53.457225970923901" lon="10.369658013805747">
        <ele>47.240000000000002</ele>
        <time>2019-05-08T13:15:37Z</time>
      </trkpt>
      <trkpt lat="53.457094961777329" lon="10.369677040725946">
        <ele>47.240000000000002</ele>
        <time>2019-05-08T13:15:38Z</time>
      </trkpt>
      <trkpt lat="53.456967975944281" lon="10.369694977998734">
        <ele>47.240000000000002</ele>
        <time>2019-05-08T13:15:39Z</time>
      </trkpt>
      <trkpt lat="53.456841995939612" lon="10.369637981057167">
        <ele>47.240000000000002</ele>
        <time>2019-05-08T13:15:40Z</time>
      </trkpt>
      <trkpt lat="53.456726996228099" lon="10.369566986337304">
        <ele>47.240000000000002</ele>
        <time>2019-05-08T13:15:41Z</time>
      </trkpt>
      <trkpt lat="53.456613002344966" lon="10.369495991617441">
        <ele>47.240000000000002</ele>
        <time>2019-05-08T13:15:42Z</time>
      </trkpt>
      <trkpt lat="53.456490961834788" lon="10.369419967755675">
        <ele>47.240000000000002</ele>
        <time>2019-05-08T13:15:43Z</time>
      </trkpt>
      <trkpt lat="53.456404041498899" lon="10.369306979700923">
        <ele>47.719999999999999</ele>
        <time>2019-05-08T13:15:44Z</time>
      </trkpt>
      <trkpt lat="53.456307984888554" lon="10.369182005524635">
        <ele>47.719999999999999</ele>
        <time>2019-05-08T13:15:45Z</time>
      </trkpt>
      <trkpt lat="53.456207988783717" lon="10.369046973064542">
        <ele>48.200000000000003</ele>
        <time>2019-05-08T13:15:46Z</time>
      </trkpt>
      <trkpt lat="53.456137999892235" lon="10.368875982239842">
        <ele>48.200000000000003</ele>
        <time>2019-05-08T13:15:47Z</time>
      </trkpt>
      <trkpt lat="53.456071028485894" lon="10.368713960051537">
        <ele>48.68</ele>
        <time>2019-05-08T13:15:48Z</time>
      </trkpt>
      <trkpt lat="53.455949993804097" lon="10.368425035849214">
        <ele>49.159999999999997</ele>
        <time>2019-05-08T13:15:50Z</time>
      </trkpt>
      <trkpt lat="53.455884028226137" lon="10.368310958147049">
        <ele>49.649999999999999</ele>
        <time>2019-05-08T13:15:51Z</time>
      </trkpt>
      <trkpt lat="53.45580599270761" lon="10.36822596564889">
        <ele>49.649999999999999</ele>
        <time>2019-05-08T13:15:52Z</time>
      </trkpt>
      <trkpt lat="53.455725023522973" lon="10.368152037262917">
        <ele>49.649999999999999</ele>
        <time>2019-05-08T13:15:53Z</time>
      </trkpt>
      <trkpt lat="53.455648999661207" lon="10.368081964552402">
        <ele>50.130000000000003</ele>
        <time>2019-05-08T13:15:54Z</time>
      </trkpt>
      <trkpt lat="53.455579010769725" lon="10.368033014237881">
        <ele>50.130000000000003</ele>
        <time>2019-05-08T13:15:55Z</time>
      </trkpt>
      <trkpt lat="53.455507010221481" lon="10.368000995367765">
        <ele>50.130000000000003</ele>
        <time>2019-05-08T13:15:56Z</time>
      </trkpt>
      <trkpt lat="53.455442972481251" lon="10.367971993982792">
        <ele>50.130000000000003</ele>
        <time>2019-05-08T13:15:57Z</time>
      </trkpt>
      <trkpt lat="53.45539502799511" lon="10.367837967351079">
        <ele>50.130000000000003</ele>
        <time>2019-05-08T13:15:58Z</time>
      </trkpt>
      <trkpt lat="53.455369966104627" lon="10.367719028145075">
        <ele>50.130000000000003</ele>
        <time>2019-05-08T13:15:59Z</time>
      </trkpt>
      <trkpt lat="53.455324033275247" lon="10.367662031203508">
        <ele>50.130000000000003</ele>
        <time>2019-05-08T13:16:00Z</time>
      </trkpt>
      <trkpt lat="53.455253038555384" lon="10.367632023990154">
        <ele>50.609999999999999</ele>
        <time>2019-05-08T13:16:01Z</time>
      </trkpt>
      <trkpt lat="53.455198975279927" lon="10.367653984576464">
        <ele>50.609999999999999</ele>
        <time>2019-05-08T13:16:02Z</time>
      </trkpt>
      <trkpt lat="53.455181960016489" lon="10.367661025375128">
        <ele>50.609999999999999</ele>
        <time>2019-05-08T13:16:03Z</time>
      </trkpt>
      <trkpt lat="53.455052962526679" lon="10.367766972631216">
        <ele>50.609999999999999</ele>
        <time>2019-05-08T13:16:04Z</time>
      </trkpt>
      <trkpt lat="53.45496797002852" lon="10.367720033973455">
        <ele>50.609999999999999</ele>
        <time>2019-05-08T13:16:05Z</time>
      </trkpt>
      <trkpt lat="53.454868979752064" lon="10.36766697652638">
        <ele>50.609999999999999</ele>
        <time>2019-05-08T13:16:06Z</time>
      </trkpt>
      <trkpt lat="53.453991981223226" lon="10.36755901761353">
        <ele>51.57</ele>
        <time>2019-05-08T13:16:13Z</time>
      </trkpt>
      <trkpt lat="53.452200014144182" lon="10.367509983479977">
        <ele>51.57</ele>
        <time>2019-05-08T13:16:26Z</time>
      </trkpt>
      <trkpt lat="53.451656028628349" lon="10.367509983479977">
        <ele>52.049999999999997</ele>
        <time>2019-05-08T13:16:30Z</time>
      </trkpt>
      <trkpt lat="53.451523007825017" lon="10.367533033713698">
        <ele>52.049999999999997</ele>
        <time>2019-05-08T13:16:31Z</time>
      </trkpt>
      <trkpt lat="53.451389987021685" lon="10.367588018998504">
        <ele>51.57</ele>
        <time>2019-05-08T13:16:32Z</time>
      </trkpt>
      <trkpt lat="53.451267024502158" lon="10.367660019546747">
        <ele>51.57</ele>
        <time>2019-05-08T13:16:33Z</time>
      </trkpt>
      <trkpt lat="53.451152024790645" lon="10.367751969024539">
        <ele>52.049999999999997</ele>
        <time>2019-05-08T13:16:34Z</time>
      </trkpt>
      <trkpt lat="53.451039958745241" lon="10.367840984836221">
        <ele>52.530000000000001</ele>
        <time>2019-05-08T13:16:35Z</time>
      </trkpt>
      <trkpt lat="53.450939040631056" lon="10.367960007861257">
        <ele>53.009999999999998</ele>
        <time>2019-05-08T13:16:36Z</time>
      </trkpt>
      <trkpt lat="53.450846001505852" lon="10.36809403449297">
        <ele>53.009999999999998</ele>
        <time>2019-05-08T13:16:37Z</time>
      </trkpt>
      <trkpt lat="53.450752962380648" lon="10.368227977305651">
        <ele>53.490000000000002</ele>
        <time>2019-05-08T13:16:38Z</time>
      </trkpt>
      <trkpt lat="53.450565040111542" lon="10.36848496645689">
        <ele>53.490000000000002</ele>
        <time>2019-05-08T13:16:40Z</time>
      </trkpt>
      <trkpt lat="53.450463032349944" lon="10.368599966168404">
        <ele>53.490000000000002</ele>
        <time>2019-05-08T13:16:41Z</time>
      </trkpt>
      <trkpt lat="53.450360018759966" lon="10.368715971708298">
        <ele>53.009999999999998</ele>
        <time>2019-05-08T13:16:42Z</time>
      </trkpt>
      <trkpt lat="53.450121972709894" lon="10.36886902526021">
        <ele>53.009999999999998</ele>
        <time>2019-05-08T13:16:44Z</time>
      </trkpt>
      <trkpt lat="53.44987696968019" lon="10.368954017758369">
        <ele>53.009999999999998</ele>
        <time>2019-05-08T13:16:46Z</time>
      </trkpt>
      <trkpt lat="53.44953297637403" lon="10.369124002754688">
        <ele>53.490000000000002</ele>
        <time>2019-05-08T13:16:49Z</time>
      </trkpt>
      <trkpt lat="53.449430968612432" lon="10.369205977767706">
        <ele>53.969999999999999</ele>
        <time>2019-05-08T13:16:50Z</time>
      </trkpt>
      <trkpt lat="53.449328960850835" lon="10.369349978864193">
        <ele>53.969999999999999</ele>
        <time>2019-05-08T13:16:51Z</time>
      </trkpt>
      <trkpt lat="53.44923097640276" lon="10.369489034637809">
        <ele>53.969999999999999</ele>
        <time>2019-05-08T13:16:52Z</time>
      </trkpt>
      <trkpt lat="53.449130980297923" lon="10.369629012420774">
        <ele>53.969999999999999</ele>
        <time>2019-05-08T13:16:53Z</time>
      </trkpt>
      <trkpt lat="53.449038024991751" lon="10.369782987982035">
        <ele>54.450000000000003</ele>
        <time>2019-05-08T13:16:54Z</time>
      </trkpt>
      <trkpt lat="53.448959989473224" lon="10.369953978806734">
        <ele>53.969999999999999</ele>
        <time>2019-05-08T13:16:55Z</time>
      </trkpt>
      <trkpt lat="53.448195978999138" lon="10.371662965044379">
        <ele>51.090000000000003</ele>
        <time>2019-05-08T13:17:05Z</time>
      </trkpt>
      <trkpt lat="53.447274975478649" lon="10.373196015134454">
        <ele>46.280000000000001</ele>
        <time>2019-05-08T13:17:15Z</time>
      </trkpt>
      <trkpt lat="53.446860993281007" lon="10.373860029503703">
        <ele>46.759999999999998</ele>
        <time>2019-05-08T13:17:20Z</time>
      </trkpt>
      <trkpt lat="53.446563016623259" lon="10.374351041391492">
        <ele>47.719999999999999</ele>
        <time>2019-05-08T13:17:24Z</time>
      </trkpt>
      <trkpt lat="53.446491016075015" lon="10.374440979212523">
        <ele>48.200000000000003</ele>
        <time>2019-05-08T13:17:25Z</time>
      </trkpt>
      <trkpt lat="53.446392025798559" lon="10.374507028609514">
        <ele>48.200000000000003</ele>
        <time>2019-05-08T13:17:26Z</time>
      </trkpt>
      <trkpt lat="53.446300998330116" lon="10.374567965045571">
        <ele>48.68</ele>
        <time>2019-05-08T13:17:27Z</time>
      </trkpt>
      <trkpt lat="53.446205025538802" lon="10.374612975865602">
        <ele>49.159999999999997</ele>
        <time>2019-05-08T13:17:28Z</time>
      </trkpt>
      <trkpt lat="53.446103017777205" lon="10.374611970037222">
        <ele>49.159999999999997</ele>
        <time>2019-05-08T13:17:29Z</time>
      </trkpt>
      <trkpt lat="53.446019031107426" lon="10.374591015279293">
        <ele>49.649999999999999</ele>
        <time>2019-05-08T13:17:30Z</time>
      </trkpt>
      <trkpt lat="53.445913000032306" lon="10.374511973932385">
        <ele>49.649999999999999</ele>
        <time>2019-05-08T13:17:31Z</time>
      </trkpt>
      <trkpt lat="53.445816021412611" lon="10.374438967555761">
        <ele>49.649999999999999</ele>
        <time>2019-05-08T13:17:32Z</time>
      </trkpt>
      <trkpt lat="53.445723988115788" lon="10.37436998449266">
        <ele>49.649999999999999</ele>
        <time>2019-05-08T13:17:33Z</time>
      </trkpt>
      <trkpt lat="53.445640001446009" lon="10.374307036399841">
        <ele>49.649999999999999</ele>
        <time>2019-05-08T13:17:34Z</time>
      </trkpt>
      <trkpt lat="53.445361973717809" lon="10.374010987579823">
        <ele>48.200000000000003</ele>
        <time>2019-05-08T13:17:38Z</time>
      </trkpt>
      <trkpt lat="53.445159969851375" lon="10.373761961236596">
        <ele>46.759999999999998</ele>
        <time>2019-05-08T13:17:42Z</time>
      </trkpt>
      <trkpt lat="53.444965006783605" lon="10.373539002612233">
        <ele>42.439999999999998</ele>
        <time>2019-05-08T13:17:50Z</time>
      </trkpt>
      <trkpt lat="53.444557981565595" lon="10.373071040958166">
        <ele>37.630000000000003</ele>
        <time>2019-05-08T13:17:59Z</time>
      </trkpt>
      <trkpt lat="53.444486986845732" lon="10.372999962419271">
        <ele>37.630000000000003</ele>
        <time>2019-05-08T13:18:00Z</time>
      </trkpt>
      <trkpt lat="53.443576963618398" lon="10.372296972200274">
        <ele>28.5</ele>
        <time>2019-05-08T13:18:11Z</time>
      </trkpt>
      <trkpt lat="53.443298013880849" lon="10.372083988040686">
        <ele>27.050000000000001</ele>
        <time>2019-05-08T13:18:14Z</time>
      </trkpt>
      <trkpt lat="53.443210003897548" lon="10.372018022462726">
        <ele>27.530000000000001</ele>
        <time>2019-05-08T13:18:15Z</time>
      </trkpt>
      <trkpt lat="53.442641962319613" lon="10.37162097170949">
        <ele>25.609999999999999</ele>
        <time>2019-05-08T13:18:23Z</time>
      </trkpt>
      <trkpt lat="53.442588988691568" lon="10.371583001688123">
        <ele>25.129999999999999</ele>
        <time>2019-05-08T13:18:24Z</time>
      </trkpt>
      <trkpt lat="53.442322025075555" lon="10.371559029445052">
        <ele>21.77</ele>
        <time>2019-05-08T13:18:31Z</time>
      </trkpt>
      <trkpt lat="53.442154973745346" lon="10.371609991416335">
        <ele>21.289999999999999</ele>
        <time>2019-05-08T13:18:34Z</time>
      </trkpt>
      <trkpt lat="53.442081967368722" lon="10.371632035821676">
        <ele>21.77</ele>
        <time>2019-05-08T13:18:35Z</time>
      </trkpt>
      <trkpt lat="53.442005021497607" lon="10.371655002236366">
        <ele>21.77</ele>
        <time>2019-05-08T13:18:36Z</time>
      </trkpt>
      <trkpt lat="53.441249979659915" lon="10.371883995831013">
        <ele>21.77</ele>
        <time>2019-05-08T13:18:45Z</time>
      </trkpt>
      <trkpt lat="53.441036995500326" lon="10.371949039399624">
        <ele>19.84</ele>
        <time>2019-05-08T13:18:52Z</time>
      </trkpt>
      <trkpt lat="53.440976981073618" lon="10.371966976672411">
        <ele>19.359999999999999</ele>
        <time>2019-05-08T13:19:06Z</time>
      </trkpt>
      <trkpt lat="53.440395025536418" lon="10.372149031609297">
        <ele>17.920000000000002</ele>
        <time>2019-05-08T13:19:14Z</time>
      </trkpt>
      <trkpt lat="53.439140003174543" lon="10.3725650254637">
        <ele>16.48</ele>
        <time>2019-05-08T13:19:27Z</time>
      </trkpt>
      <trkpt lat="53.438950991258025" lon="10.372631996870041">
        <ele>15.52</ele>
        <time>2019-05-08T13:19:29Z</time>
      </trkpt>
      <trkpt lat="53.438864992931485" lon="10.372662004083395">
        <ele>15.039999999999999</ele>
        <time>2019-05-08T13:19:30Z</time>
      </trkpt>
      <trkpt lat="53.438776982948184" lon="10.372692011296749">
        <ele>15.039999999999999</ele>
        <time>2019-05-08T13:19:31Z</time>
      </trkpt>
      <trkpt lat="53.437539981678128" lon="10.373094007372856">
        <ele>15.52</ele>
        <time>2019-05-08T13:19:43Z</time>
      </trkpt>
      <trkpt lat="53.437136979773641" lon="10.373225016519427">
        <ele>16.48</ele>
        <time>2019-05-08T13:19:48Z</time>
      </trkpt>
      <trkpt lat="53.437065985053778" lon="10.373247982934117">
        <ele>16.48</ele>
        <time>2019-05-08T13:19:55Z</time>
      </trkpt>
      <trkpt lat="53.437065985053778" lon="10.373247982934117">
        <ele>16</ele>
        <time>2019-05-08T13:20:40Z</time>
      </trkpt>
      <trkpt lat="53.436987027525902" lon="10.37327497266233">
        <ele>16</ele>
        <time>2019-05-08T13:20:59Z</time>
      </trkpt>
      <trkpt lat="53.436946962028742" lon="10.373287964612246">
        <ele>16</ele>
        <time>2019-05-08T13:21:00Z</time>
      </trkpt>
      <trkpt lat="53.436806984245777" lon="10.373334987089038">
        <ele>15.039999999999999</ele>
        <time>2019-05-08T13:21:04Z</time>
      </trkpt>
      <trkpt lat="53.436764990910888" lon="10.373348984867334">
        <ele>15.039999999999999</ele>
        <time>2019-05-08T13:21:05Z</time>
      </trkpt>
      <trkpt lat="53.436729032546282" lon="10.37336097098887">
        <ele>14.56</ele>
        <time>2019-05-08T13:21:06Z</time>
      </trkpt>
      <trkpt lat="53.436669018119574" lon="10.373157961294055">
        <ele>13.6</ele>
        <time>2019-05-08T13:21:07Z</time>
      </trkpt>
      <trkpt lat="53.436679998412728" lon="10.373069029301405">
        <ele>13.119999999999999</ele>
        <time>2019-05-08T13:21:08Z</time>
      </trkpt>
      <trkpt lat="53.436693996191025" lon="10.372950006276369">
        <ele>12.630000000000001</ele>
        <time>2019-05-08T13:21:09Z</time>
      </trkpt>
      <trkpt lat="53.436712017282844" lon="10.372796030715108">
        <ele>11.67</ele>
        <time>2019-05-08T13:21:10Z</time>
      </trkpt>
      <trkpt lat="53.436734983697534" lon="10.372597966343164">
        <ele>11.19</ele>
        <time>2019-05-08T13:21:11Z</time>
      </trkpt>
      <trkpt lat="53.437014017254114" lon="10.370512967929244">
        <ele>4.94</ele>
        <time>2019-05-08T13:21:19Z</time>
      </trkpt>
      <trkpt lat="53.437229013070464" lon="10.368972038850188">
        <ele>3.02</ele>
        <time>2019-05-08T13:21:26Z</time>
      </trkpt>
      <trkpt lat="53.437278969213367" lon="10.368784032762051">
        <ele>3.02</ele>
        <time>2019-05-08T13:21:27Z</time>
      </trkpt>
      <trkpt lat="53.437349963933229" lon="10.368614969775081">
        <ele>2.54</ele>
        <time>2019-05-08T13:21:28Z</time>
      </trkpt>
      <trkpt lat="53.437422970309854" lon="10.36844096146524">
        <ele>2.54</ele>
        <time>2019-05-08T13:21:29Z</time>
      </trkpt>
      <trkpt lat="53.437495976686478" lon="10.36826703697443">
        <ele>2.54</ele>
        <time>2019-05-08T13:21:30Z</time>
      </trkpt>
      <trkpt lat="53.437605025246739" lon="10.368093028664589">
        <ele>2.06</ele>
        <time>2019-05-08T13:21:31Z</time>
      </trkpt>
      <trkpt lat="53.437720024958253" lon="10.367978028953075">
        <ele>1.58</ele>
        <time>2019-05-08T13:21:32Z</time>
      </trkpt>
      <trkpt lat="53.437852961942554" lon="10.367877027019858">
        <ele>1.1</ele>
        <time>2019-05-08T13:21:33Z</time>
      </trkpt>
      <trkpt lat="53.437989000231028" lon="10.367803014814854">
        <ele>1.1</ele>
        <time>2019-05-08T13:21:34Z</time>
      </trkpt>
      <trkpt lat="53.438125960528851" lon="10.367739982903004">
        <ele>1.1</ele>
        <time>2019-05-08T13:21:35Z</time>
      </trkpt>
      <trkpt lat="53.438937999308109" lon="10.367360031232238">
        <ele>3.5</ele>
        <time>2019-05-08T13:21:41Z</time>
      </trkpt>
      <trkpt lat="53.439041012898088" lon="10.367272021248937">
        <ele>3.98</ele>
        <time>2019-05-08T13:21:42Z</time>
      </trkpt>
      <trkpt lat="53.439425993710756" lon="10.366942025721073">
        <ele>5.42</ele>
        <time>2019-05-08T13:21:48Z</time>
      </trkpt>
      <trkpt lat="53.439449965953827" lon="10.366920987144113">
        <ele>5.42</ele>
        <time>2019-05-08T13:21:49Z</time>
      </trkpt>
      <trkpt lat="53.439471004530787" lon="10.366903971880674">
        <ele>5.42</ele>
        <time>2019-05-08T13:21:50Z</time>
      </trkpt>
      <trkpt lat="53.439490031450987" lon="10.366887962445617">
        <ele>5.42</ele>
        <time>2019-05-08T13:21:51Z</time>
      </trkpt>
      <trkpt lat="53.439510986208916" lon="10.366869019344449">
        <ele>5.42</ele>
        <time>2019-05-08T13:21:52Z</time>
      </trkpt>
      <trkpt lat="53.439544010907412" lon="10.366841023787856">
        <ele>5.42</ele>
        <time>2019-05-08T13:21:53Z</time>
      </trkpt>
      <trkpt lat="53.439586004242301" lon="10.366804981604218">
        <ele>5.42</ele>
        <time>2019-05-08T13:21:54Z</time>
      </trkpt>
      <trkpt lat="53.439633026719093" lon="10.36676499992609">
        <ele>5.42</ele>
        <time>2019-05-08T13:21:55Z</time>
      </trkpt>
      <trkpt lat="53.439680971205235" lon="10.366724012419581">
        <ele>5.42</ele>
        <time>2019-05-08T13:21:56Z</time>
      </trkpt>
      <trkpt lat="53.439793959259987" lon="10.366627033799887">
        <ele>5.42</ele>
        <time>2019-05-08T13:21:58Z</time>
      </trkpt>
      <trkpt lat="53.439867971464992" lon="10.366564001888037">
        <ele>5.91</ele>
        <time>2019-05-08T13:21:59Z</time>
      </trkpt>
      <trkpt lat="53.440459985285997" lon="10.36601004190743">
        <ele>8.310000000000001</ele>
        <time>2019-05-08T13:22:06Z</time>
      </trkpt>
      <trkpt lat="53.440531985834241" lon="10.365938041359186">
        <ele>8.789999999999999</ele>
        <time>2019-05-08T13:22:07Z</time>
      </trkpt>
      <trkpt lat="53.440603986382484" lon="10.365866040810943">
        <ele>9.27</ele>
        <time>2019-05-08T13:22:08Z</time>
      </trkpt>
      <trkpt lat="53.440676992759109" lon="10.365794040262699">
        <ele>9.27</ele>
        <time>2019-05-08T13:22:09Z</time>
      </trkpt>
      <trkpt lat="53.440753016620874" lon="10.365718016400933">
        <ele>9.75</ele>
        <time>2019-05-08T13:22:10Z</time>
      </trkpt>
      <trkpt lat="53.441185019910336" lon="10.365285007283092">
        <ele>9.75</ele>
        <time>2019-05-08T13:22:18Z</time>
      </trkpt>
      <trkpt lat="53.441185019910336" lon="10.365285007283092">
        <ele>9.75</ele>
        <time>2019-05-08T13:22:29Z</time>
      </trkpt>
      <trkpt lat="53.441379982978106" lon="10.36509096622467">
        <ele>9.75</ele>
        <time>2019-05-08T13:22:42Z</time>
      </trkpt>
      <trkpt lat="53.441663039848208" lon="10.364806987345219">
        <ele>8.789999999999999</ele>
        <time>2019-05-08T13:22:47Z</time>
      </trkpt>
      <trkpt lat="53.441723976284266" lon="10.364744961261749">
        <ele>8.789999999999999</ele>
        <time>2019-05-08T13:22:48Z</time>
      </trkpt>
      <trkpt lat="53.441786002367735" lon="10.36468000151217">
        <ele>8.310000000000001</ele>
        <time>2019-05-08T13:22:49Z</time>
      </trkpt>
      <trkpt lat="53.441911982372403" lon="10.36455100402236">
        <ele>7.83</ele>
        <time>2019-05-08T13:22:51Z</time>
      </trkpt>
      <trkpt lat="53.441979959607124" lon="10.364481015130877">
        <ele>7.83</ele>
        <time>2019-05-08T13:22:52Z</time>
      </trkpt>
      <trkpt lat="53.442511959001422" lon="10.363936023786664">
        <ele>6.87</ele>
        <time>2019-05-08T13:23:00Z</time>
      </trkpt>
      <trkpt lat="53.442565016448498" lon="10.363883972167969">
        <ele>6.87</ele>
        <time>2019-05-08T13:23:01Z</time>
      </trkpt>
      <trkpt lat="53.442626958712935" lon="10.363822029903531">
        <ele>6.87</ele>
        <time>2019-05-08T13:23:02Z</time>
      </trkpt>
      <trkpt lat="53.442681021988392" lon="10.363766960799694">
        <ele>7.35</ele>
        <time>2019-05-08T13:23:03Z</time>
      </trkpt>
      <trkpt lat="53.442739024758339" lon="10.363709041848779">
        <ele>7.35</ele>
        <time>2019-05-08T13:23:04Z</time>
      </trkpt>
      <trkpt lat="53.44280700199306" lon="10.363641986623406">
        <ele>7.35</ele>
        <time>2019-05-08T13:23:05Z</time>
      </trkpt>
      <trkpt lat="53.442884031683207" lon="10.363565040752292">
        <ele>7.35</ele>
        <time>2019-05-08T13:23:06Z</time>
      </trkpt>
      <trkpt lat="53.443261971697211" lon="10.363277960568666">
        <ele>6.87</ele>
        <time>2019-05-08T13:23:10Z</time>
      </trkpt>
      <trkpt lat="53.444424038752913" lon="10.362693993374705">
        <ele>4.94</ele>
        <time>2019-05-08T13:23:20Z</time>
      </trkpt>
      <trkpt lat="53.445881986990571" lon="10.361983040347695">
        <ele>7.83</ele>
        <time>2019-05-08T13:23:32Z</time>
      </trkpt>
      <trkpt lat="53.447105996310711" lon="10.361227998510003">
        <ele>7.83</ele>
        <time>2019-05-08T13:23:42Z</time>
      </trkpt>
      <trkpt lat="53.448424972593784" lon="10.360348988324404">
        <ele>11.19</ele>
        <time>2019-05-08T13:23:53Z</time>
      </trkpt>
      <trkpt lat="53.449793988838792" lon="10.359392026439309">
        <ele>15.52</ele>
        <time>2019-05-08T13:24:03Z</time>
      </trkpt>
      <trkpt lat="53.451044987887144" lon="10.358015969395638">
        <ele>18.879999999999999</ele>
        <time>2019-05-08T13:24:13Z</time>
      </trkpt>
      <trkpt lat="53.452031034976244" lon="10.356720965355635">
        <ele>20.809999999999999</ele>
        <time>2019-05-08T13:24:21Z</time>
      </trkpt>
      <trkpt lat="53.452210994437337" lon="10.356296002864838">
        <ele>20.32</ele>
        <time>2019-05-08T13:24:23Z</time>
      </trkpt>
      <trkpt lat="53.452492961660028" lon="10.355455968528986">
        <ele>19.84</ele>
        <time>2019-05-08T13:24:27Z</time>
      </trkpt>
      <trkpt lat="53.452564040198922" lon="10.355237033218145">
        <ele>19.84</ele>
        <time>2019-05-08T13:24:28Z</time>
      </trkpt>
      <trkpt lat="53.453252026811242" lon="10.35314398817718">
        <ele>18.879999999999999</ele>
        <time>2019-05-08T13:24:38Z</time>
      </trkpt>
      <trkpt lat="53.454034980386496" lon="10.351085979491472">
        <ele>16.960000000000001</ele>
        <time>2019-05-08T13:24:48Z</time>
      </trkpt>
      <trkpt lat="53.455003006383777" lon="10.348678026348352">
        <ele>13.6</ele>
        <time>2019-05-08T13:25:00Z</time>
      </trkpt>
      <trkpt lat="53.455872964113951" lon="10.346509963274002">
        <ele>15.039999999999999</ele>
        <time>2019-05-08T13:25:10Z</time>
      </trkpt>
      <trkpt lat="53.456690032035112" lon="10.344199994578958">
        <ele>15.52</ele>
        <time>2019-05-08T13:25:20Z</time>
      </trkpt>
      <trkpt lat="53.457348011434078" lon="10.341978035867214">
        <ele>15.039999999999999</ele>
        <time>2019-05-08T13:25:30Z</time>
      </trkpt>
      <trkpt lat="53.458012025803328" lon="10.339634036645293">
        <ele>16</ele>
        <time>2019-05-08T13:25:40Z</time>
      </trkpt>
      <trkpt lat="53.458212018013" lon="10.33846702426672">
        <ele>16.48</ele>
        <time>2019-05-08T13:25:47Z</time>
      </trkpt>
      <trkpt lat="53.458229033276439" lon="10.338323023170233">
        <ele>16.48</ele>
        <time>2019-05-08T13:25:48Z</time>
      </trkpt>
      <trkpt lat="53.458229033276439" lon="10.338196959346533">
        <ele>16.48</ele>
        <time>2019-05-08T13:25:49Z</time>
      </trkpt>
      <trkpt lat="53.458229033276439" lon="10.337859001010656">
        <ele>16.48</ele>
        <time>2019-05-08T13:25:52Z</time>
      </trkpt>
      <trkpt lat="53.458229033276439" lon="10.337756993249059">
        <ele>16.48</ele>
        <time>2019-05-08T13:25:53Z</time>
      </trkpt>
      <trkpt lat="53.458229033276439" lon="10.337669989094138">
        <ele>16</ele>
        <time>2019-05-08T13:25:54Z</time>
      </trkpt>
      <trkpt lat="53.458229033276439" lon="10.337606035172939">
        <ele>16</ele>
        <time>2019-05-08T13:25:55Z</time>
      </trkpt>
      <trkpt lat="53.458229033276439" lon="10.337606035172939">
        <ele>16</ele>
        <time>2019-05-08T13:26:02Z</time>
      </trkpt>
      <trkpt lat="53.458229033276439" lon="10.337594971060753">
        <ele>16</ele>
        <time>2019-05-08T13:26:14Z</time>
      </trkpt>
      <trkpt lat="53.458229033276439" lon="10.337537974119186">
        <ele>17.440000000000001</ele>
        <time>2019-05-08T13:26:15Z</time>
      </trkpt>
      <trkpt lat="53.458157032728195" lon="10.336659969761968">
        <ele>18.879999999999999</ele>
        <time>2019-05-08T13:26:20Z</time>
      </trkpt>
      <trkpt lat="53.457799963653088" lon="10.335075035691261">
        <ele>17.920000000000002</ele>
        <time>2019-05-08T13:26:26Z</time>
      </trkpt>
      <trkpt lat="53.457085993140936" lon="10.332380002364516">
        <ele>11.67</ele>
        <time>2019-05-08T13:26:35Z</time>
      </trkpt>
      <trkpt lat="53.456989014521241" lon="10.331342993304133">
        <ele>7.83</ele>
        <time>2019-05-08T13:26:40Z</time>
      </trkpt>
      <trkpt lat="53.456974010914564" lon="10.331135038286448">
        <ele>4.94</ele>
        <time>2019-05-08T13:26:46Z</time>
      </trkpt>
      <trkpt lat="53.456974010914564" lon="10.331135038286448">
        <ele>4.46</ele>
        <time>2019-05-08T13:27:15Z</time>
      </trkpt>
      <trkpt lat="53.456954983994365" lon="10.330729018896818">
        <ele>4.46</ele>
        <time>2019-05-08T13:27:26Z</time>
      </trkpt>
      <trkpt lat="53.456942997872829" lon="10.330388965085149">
        <ele>3.98</ele>
        <time>2019-05-08T13:27:29Z</time>
      </trkpt>
      <trkpt lat="53.456940986216068" lon="10.330324005335569">
        <ele>4.46</ele>
        <time>2019-05-08T13:27:30Z</time>
      </trkpt>
      <trkpt lat="53.456829003989697" lon="10.330344038084149">
        <ele>4.46</ele>
        <time>2019-05-08T13:27:31Z</time>
      </trkpt>
      <trkpt lat="53.456759015098214" lon="10.330357030034065">
        <ele>4.46</ele>
        <time>2019-05-08T13:27:32Z</time>
      </trkpt>
      <trkpt lat="53.456691959872842" lon="10.330377984791994">
        <ele>4.46</ele>
        <time>2019-05-08T13:27:33Z</time>
      </trkpt>
      <trkpt lat="53.456588024273515" lon="10.330461971461773">
        <ele>4.46</ele>
        <time>2019-05-08T13:27:34Z</time>
      </trkpt>
      <trkpt lat="53.456470007076859" lon="10.330558028072119">
        <ele>4.46</ele>
        <time>2019-05-08T13:27:35Z</time>
      </trkpt>
      <trkpt lat="53.456355007365346" lon="10.330657018348575">
        <ele>4.94</ele>
        <time>2019-05-08T13:27:36Z</time>
      </trkpt>
      <trkpt lat="53.456245036795735" lon="10.33082096837461">
        <ele>5.42</ele>
        <time>2019-05-08T13:27:37Z</time>
      </trkpt>
      <trkpt lat="53.456132970750332" lon="10.33099296502769">
        <ele>5.91</ele>
        <time>2019-05-08T13:27:38Z</time>
      </trkpt>
      <trkpt lat="53.455128986388445" lon="10.332252010703087">
        <ele>6.87</ele>
        <time>2019-05-08T13:27:47Z</time>
      </trkpt>
      <trkpt lat="53.453823002055287" lon="10.33290202729404">
        <ele>6.39</ele>
        <time>2019-05-08T13:27:55Z</time>
      </trkpt>
      <trkpt lat="53.452074034139514" lon="10.333782965317369">
        <ele>4.94</ele>
        <time>2019-05-08T13:28:02Z</time>
      </trkpt>
      <trkpt lat="53.450661012902856" lon="10.334500959143043">
        <ele>3.98</ele>
        <time>2019-05-08T13:28:08Z</time>
      </trkpt>
      <trkpt lat="53.448977004736662" lon="10.335363959893584">
        <ele>3.98</ele>
        <time>2019-05-08T13:28:15Z</time>
      </trkpt>
      <trkpt lat="53.447697004303336" lon="10.335938036441803">
        <ele>4.94</ele>
        <time>2019-05-08T13:28:21Z</time>
      </trkpt>
      <trkpt lat="53.446392025798559" lon="10.336429970338941">
        <ele>5.42</ele>
        <time>2019-05-08T13:28:28Z</time>
      </trkpt>
      <trkpt lat="53.445143038406968" lon="10.336845964193344">
        <ele>4.46</ele>
        <time>2019-05-08T13:28:34Z</time>
      </trkpt>
      <trkpt lat="53.443432962521911" lon="10.337231028825045">
        <ele>2.06</ele>
        <time>2019-05-08T13:28:44Z</time>
      </trkpt>
      <trkpt lat="53.441951964050531" lon="10.337481983006001">
        <ele>0.14</ele>
        <time>2019-05-08T13:28:50Z</time>
      </trkpt>
      <trkpt lat="53.438769020140171" lon="10.337663032114506">
        <ele>-1.3</ele>
        <time>2019-05-08T13:29:01Z</time>
      </trkpt>
      <trkpt lat="53.437329009175301" lon="10.337633024901152">
        <ele>-0.34</ele>
        <time>2019-05-08T13:29:07Z</time>
      </trkpt>
      <trkpt lat="53.435338977724314" lon="10.337381986901164">
        <ele>2.54</ele>
        <time>2019-05-08T13:29:18Z</time>
      </trkpt>
      <trkpt lat="53.433599984273314" lon="10.336739011108875">
        <ele>6.39</ele>
        <time>2019-05-08T13:29:29Z</time>
      </trkpt>
      <trkpt lat="53.431356986984611" lon="10.335729997605085">
        <ele>9.75</ele>
        <time>2019-05-08T13:29:43Z</time>
      </trkpt>
      <trkpt lat="53.42972100712359" lon="10.335184000432491">
        <ele>9.27</ele>
        <time>2019-05-08T13:29:51Z</time>
      </trkpt>
      <trkpt lat="53.428172031417489" lon="10.335213001817465">
        <ele>8.789999999999999</ele>
        <time>2019-05-08T13:30:00Z</time>
      </trkpt>
      <trkpt lat="53.426846014335752" lon="10.335655985400081">
        <ele>9.27</ele>
        <time>2019-05-08T13:30:09Z</time>
      </trkpt>
      <trkpt lat="53.425178015604615" lon="10.336253028362989">
        <ele>10.23</ele>
        <time>2019-05-08T13:30:22Z</time>
      </trkpt>
      <trkpt lat="53.424266986548901" lon="10.336582018062472">
        <ele>9.75</ele>
        <time>2019-05-08T13:30:28Z</time>
      </trkpt>
      <trkpt lat="53.423178009688854" lon="10.336978984996676">
        <ele>8.789999999999999</ele>
        <time>2019-05-08T13:30:34Z</time>
      </trkpt>
      <trkpt lat="53.422219036146998" lon="10.337330019101501">
        <ele>5.42</ele>
        <time>2019-05-08T13:30:40Z</time>
      </trkpt>
      <trkpt lat="53.420353978872299" lon="10.337998978793621">
        <ele>4.46</ele>
        <time>2019-05-08T13:30:53Z</time>
      </trkpt>
      <trkpt lat="53.419265002012253" lon="10.337999984622002">
        <ele>3.98</ele>
        <time>2019-05-08T13:31:01Z</time>
      </trkpt>
      <trkpt lat="53.418129002675414" lon="10.337389027699828">
        <ele>2.54</ele>
        <time>2019-05-08T13:31:10Z</time>
      </trkpt>
      <trkpt lat="53.416821006685495" lon="10.336107015609741">
        <ele>1.58</ele>
        <time>2019-05-08T13:31:18Z</time>
      </trkpt>
      <trkpt lat="53.415029039606452" lon="10.33440699800849">
        <ele>0.62</ele>
        <time>2019-05-08T13:31:27Z</time>
      </trkpt>
      <trkpt lat="53.413211004808545" lon="10.333071006461978">
        <ele>0.14</ele>
        <time>2019-05-08T13:31:36Z</time>
      </trkpt>
      <trkpt lat="53.410992985591292" lon="10.332288974896073">
        <ele>1.58</ele>
        <time>2019-05-08T13:31:45Z</time>
      </trkpt>
      <trkpt lat="53.408620990812778" lon="10.331998961046338">
        <ele>2.06</ele>
        <time>2019-05-08T13:31:55Z</time>
      </trkpt>
      <trkpt lat="53.405689001083374" lon="10.331855965778232">
        <ele>2.06</ele>
        <time>2019-05-08T13:32:07Z</time>
      </trkpt>
      <trkpt lat="53.402575962245464" lon="10.33187398687005">
        <ele>3.98</ele>
        <time>2019-05-08T13:32:20Z</time>
      </trkpt>
      <trkpt lat="53.39959803968668" lon="10.332061992958188">
        <ele>3.5</ele>
        <time>2019-05-08T13:32:33Z</time>
      </trkpt>
      <trkpt lat="53.396702008321881" lon="10.332550993189216">
        <ele>3.5</ele>
        <time>2019-05-08T13:32:45Z</time>
      </trkpt>
      <trkpt lat="53.394360020756721" lon="10.33341902308166">
        <ele>3.02</ele>
        <time>2019-05-08T13:32:55Z</time>
      </trkpt>
      <trkpt lat="53.392095984891057" lon="10.335018960759044">
        <ele>2.54</ele>
        <time>2019-05-08T13:33:05Z</time>
      </trkpt>
      <trkpt lat="53.390043005347252" lon="10.337287019938231">
        <ele>2.06</ele>
        <time>2019-05-08T13:33:15Z</time>
      </trkpt>
      <trkpt lat="53.388274004682899" lon="10.339749036356807">
        <ele>3.98</ele>
        <time>2019-05-08T13:33:25Z</time>
      </trkpt>
      <trkpt lat="53.386145001277328" lon="10.342886969447136">
        <ele>6.87</ele>
        <time>2019-05-08T13:33:38Z</time>
      </trkpt>
      <trkpt lat="53.384020021185279" lon="10.345309004187584">
        <ele>8.310000000000001</ele>
        <time>2019-05-08T13:33:49Z</time>
      </trkpt>
      <trkpt lat="53.382673971354961" lon="10.346404016017914">
        <ele>5.91</ele>
        <time>2019-05-08T13:33:56Z</time>
      </trkpt>
      <trkpt lat="53.381418026983738" lon="10.347164003178477">
        <ele>2.54</ele>
        <time>2019-05-08T13:34:03Z</time>
      </trkpt>
      <trkpt lat="53.381303027272224" lon="10.347103988751769">
        <ele>2.06</ele>
        <time>2019-05-08T13:34:04Z</time>
      </trkpt>
      <trkpt lat="53.381205964833498" lon="10.34706300124526">
        <ele>1.58</ele>
        <time>2019-05-08T13:34:05Z</time>
      </trkpt>
      <trkpt lat="53.381137987598777" lon="10.347001980990171">
        <ele>1.58</ele>
        <time>2019-05-08T13:34:06Z</time>
      </trkpt>
      <trkpt lat="53.381089959293604" lon="10.346879018470645">
        <ele>1.1</ele>
        <time>2019-05-08T13:34:07Z</time>
      </trkpt>
      <trkpt lat="53.381041008979082" lon="10.346751026809216">
        <ele>1.1</ele>
        <time>2019-05-08T13:34:08Z</time>
      </trkpt>
      <trkpt lat="53.381000021472573" lon="10.346598979085684">
        <ele>0.62</ele>
        <time>2019-05-08T13:34:09Z</time>
      </trkpt>
      <trkpt lat="53.380991974845529" lon="10.346416002139449">
        <ele>0.62</ele>
        <time>2019-05-08T13:34:10Z</time>
      </trkpt>
      <trkpt lat="53.380985017865896" lon="10.346240988001227">
        <ele>0.14</ele>
        <time>2019-05-08T13:34:11Z</time>
      </trkpt>
      <trkpt lat="53.380980994552374" lon="10.34592398442328">
        <ele>0.14</ele>
        <time>2019-05-08T13:34:13Z</time>
      </trkpt>
      <trkpt lat="53.380980994552374" lon="10.345789035782218">
        <ele>0.14</ele>
        <time>2019-05-08T13:34:14Z</time>
      </trkpt>
      <trkpt lat="53.381113009527326" lon="10.345541015267372">
        <ele>0.14</ele>
        <time>2019-05-08T13:34:16Z</time>
      </trkpt>
      <trkpt lat="53.381129018962383" lon="10.345415035262704">
        <ele>0.14</ele>
        <time>2019-05-08T13:34:17Z</time>
      </trkpt>
      <trkpt lat="53.381109992042184" lon="10.34528000280261">
        <ele>0.14</ele>
        <time>2019-05-08T13:34:18Z</time>
      </trkpt>
      <trkpt lat="53.381046038120985" lon="10.34521596506238">
        <ele>0.14</ele>
        <time>2019-05-08T13:34:19Z</time>
      </trkpt>
      <trkpt lat="53.380947969853878" lon="10.345180006697774">
        <ele>0.14</ele>
        <time>2019-05-08T13:34:20Z</time>
      </trkpt>
      <trkpt lat="53.380878986790776" lon="10.345239015296102">
        <ele>0.14</ele>
        <time>2019-05-08T13:34:21Z</time>
      </trkpt>
      <trkpt lat="53.38079902343452" lon="10.345348985865712">
        <ele>0.62</ele>
        <time>2019-05-08T13:34:22Z</time>
      </trkpt>
      <trkpt lat="53.380689974874258" lon="10.345396008342505">
        <ele>0.62</ele>
        <time>2019-05-08T13:34:23Z</time>
      </trkpt>
      <trkpt lat="53.380557037889957" lon="10.345393996685743">
        <ele>0.62</ele>
        <time>2019-05-08T13:34:24Z</time>
      </trkpt>
      <trkpt lat="53.380410019308329" lon="10.345372036099434">
        <ele>0.62</ele>
        <time>2019-05-08T13:34:25Z</time>
      </trkpt>
      <trkpt lat="53.379386002197862" lon="10.34497800283134">
        <ele>-2.27</ele>
        <time>2019-05-08T13:34:31Z</time>
      </trkpt>
      <trkpt lat="53.378811003640294" lon="10.344576006755233">
        <ele>-3.23</ele>
        <time>2019-05-08T13:34:36Z</time>
      </trkpt>
      <trkpt lat="53.37830800563097" lon="10.344168981537223">
        <ele>-3.23</ele>
        <time>2019-05-08T13:34:41Z</time>
      </trkpt>
      <trkpt lat="53.377240989357233" lon="10.343305980786681">
        <ele>-2.75</ele>
        <time>2019-05-08T13:34:47Z</time>
      </trkpt>
      <trkpt lat="53.375401999801397" lon="10.34181903116405">
        <ele>-2.27</ele>
        <time>2019-05-08T13:34:55Z</time>
      </trkpt>
      <trkpt lat="53.371912026777864" lon="10.338948983699083">
        <ele>-1.3</ele>
        <time>2019-05-08T13:35:09Z</time>
      </trkpt>
      <trkpt lat="53.369309026747942" lon="10.336742028594017">
        <ele>-1.79</ele>
        <time>2019-05-08T13:35:20Z</time>
      </trkpt>
      <trkpt lat="53.368870988488197" lon="10.33638596534729">
        <ele>-2.27</ele>
        <time>2019-05-08T13:35:23Z</time>
      </trkpt>
      <trkpt lat="53.368085017427802" lon="10.335623966529965">
        <ele>-2.27</ele>
        <time>2019-05-08T13:35:29Z</time>
      </trkpt>
      <trkpt lat="53.36799499578774" lon="10.335478037595749">
        <ele>-2.27</ele>
        <time>2019-05-08T13:35:30Z</time>
      </trkpt>
      <trkpt lat="53.367830039933324" lon="10.335100013762712">
        <ele>-1.79</ele>
        <time>2019-05-08T13:35:32Z</time>
      </trkpt>
      <trkpt lat="53.367548994719982" lon="10.334272971376777">
        <ele>0.62</ele>
        <time>2019-05-08T13:35:37Z</time>
      </trkpt>
      <trkpt lat="53.367452016100287" lon="10.334156965836883">
        <ele>1.58</ele>
        <time>2019-05-08T13:35:38Z</time>
      </trkpt>
      <trkpt lat="53.367363000288606" lon="10.334127964451909">
        <ele>2.06</ele>
        <time>2019-05-08T13:35:39Z</time>
      </trkpt>
      <trkpt lat="53.367267027497292" lon="10.334109021350741">
        <ele>3.02</ele>
        <time>2019-05-08T13:35:40Z</time>
      </trkpt>
      <trkpt lat="53.367184968665242" lon="10.334126958623528">
        <ele>3.5</ele>
        <time>2019-05-08T13:35:41Z</time>
      </trkpt>
      <trkpt lat="53.367085978388786" lon="10.334189990535378">
        <ele>3.5</ele>
        <time>2019-05-08T13:35:42Z</time>
      </trkpt>
      <trkpt lat="53.366981036961079" lon="10.3342579677701">
        <ele>3.98</ele>
        <time>2019-05-08T13:35:43Z</time>
      </trkpt>
      <trkpt lat="53.366869976744056" lon="10.334342960268259">
        <ele>4.46</ele>
        <time>2019-05-08T13:35:44Z</time>
      </trkpt>
      <trkpt lat="53.366752965375781" lon="10.334434993565083">
        <ele>3.98</ele>
        <time>2019-05-08T13:35:45Z</time>
      </trkpt>
      <trkpt lat="53.36636396124959" lon="10.33470799215138">
        <ele>3.98</ele>
        <time>2019-05-08T13:35:48Z</time>
      </trkpt>
      <trkpt lat="53.366237981244922" lon="10.334775969386101">
        <ele>3.98</ele>
        <time>2019-05-08T13:35:49Z</time>
      </trkpt>
      <trkpt lat="53.366106972098351" lon="10.334808994084597">
        <ele>3.98</ele>
        <time>2019-05-08T13:35:50Z</time>
      </trkpt>
      <trkpt lat="53.365973029285669" lon="10.334792984649539">
        <ele>3.98</ele>
        <time>2019-05-08T13:35:51Z</time>
      </trkpt>
      <trkpt lat="53.365835985168815" lon="10.334770018234849">
        <ele>3.98</ele>
        <time>2019-05-08T13:35:52Z</time>
      </trkpt>
      <trkpt lat="53.365698019042611" lon="10.334746968001127">
        <ele>3.98</ele>
        <time>2019-05-08T13:35:53Z</time>
      </trkpt>
      <trkpt lat="53.365222010761499" lon="10.334704974666238">
        <ele>3.5</ele>
        <time>2019-05-08T13:35:57Z</time>
      </trkpt>
      <trkpt lat="53.365101981908083" lon="10.334745040163398">
        <ele>3.02</ele>
        <time>2019-05-08T13:35:58Z</time>
      </trkpt>
      <trkpt lat="53.365019001066685" lon="10.334851993247867">
        <ele>2.54</ele>
        <time>2019-05-08T13:35:59Z</time>
      </trkpt>
      <trkpt lat="53.364927973598242" lon="10.33498702570796">
        <ele>2.06</ele>
        <time>2019-05-08T13:36:00Z</time>
      </trkpt>
      <trkpt lat="53.364845998585224" lon="10.335149969905615">
        <ele>1.58</ele>
        <time>2019-05-08T13:36:01Z</time>
      </trkpt>
      <trkpt lat="53.363943016156554" lon="10.336547987535596">
        <ele>-0.34</ele>
        <time>2019-05-08T13:36:10Z</time>
      </trkpt>
      <trkpt lat="53.363835979253054" lon="10.336707998067141">
        <ele>-0.82</ele>
        <time>2019-05-08T13:36:11Z</time>
      </trkpt>
      <trkpt lat="53.363728020340204" lon="10.336870020255446">
        <ele>-1.3</ele>
        <time>2019-05-08T13:36:12Z</time>
      </trkpt>
      <trkpt lat="53.363424008712173" lon="10.337298000231385">
        <ele>-2.27</ele>
        <time>2019-05-08T13:36:15Z</time>
      </trkpt>
      <trkpt lat="53.363305991515517" lon="10.337404031306505">
        <ele>-2.27</ele>
        <time>2019-05-08T13:36:16Z</time>
      </trkpt>
      <trkpt lat="53.363189985975623" lon="10.337508972734213">
        <ele>-2.75</ele>
        <time>2019-05-08T13:36:17Z</time>
      </trkpt>
      <trkpt lat="53.363070962950587" lon="10.337616009637713">
        <ele>-3.23</ele>
        <time>2019-05-08T13:36:18Z</time>
      </trkpt>
      <trkpt lat="53.362942971289158" lon="10.337710976600647">
        <ele>-3.23</ele>
        <time>2019-05-08T13:36:19Z</time>
      </trkpt>
      <trkpt lat="53.361349990591407" lon="10.338818980380893">
        <ele>-6.59</ele>
        <time>2019-05-08T13:36:31Z</time>
      </trkpt>
      <trkpt lat="53.359863040968776" lon="10.339834028854966">
        <ele>-6.59</ele>
        <time>2019-05-08T13:36:41Z</time>
      </trkpt>
      <trkpt lat="53.358390005305409" lon="10.340943960472941">
        <ele>-4.19</ele>
        <time>2019-05-08T13:36:50Z</time>
      </trkpt>
      <trkpt lat="53.358267964795232" lon="10.34100498072803">
        <ele>-3.71</ele>
        <time>2019-05-08T13:36:51Z</time>
      </trkpt>
      <trkpt lat="53.358139973133802" lon="10.340990982949734">
        <ele>-3.23</ele>
        <time>2019-05-08T13:36:52Z</time>
      </trkpt>
      <trkpt lat="53.358007958158851" lon="10.340969022363424">
        <ele>-3.23</ele>
        <time>2019-05-08T13:36:53Z</time>
      </trkpt>
      <trkpt lat="53.357865968719125" lon="10.340944966301322">
        <ele>-2.75</ele>
        <time>2019-05-08T13:36:54Z</time>
      </trkpt>
      <trkpt lat="53.357715010643005" lon="10.340916970744729">
        <ele>-1.79</ele>
        <time>2019-05-08T13:36:55Z</time>
      </trkpt>
      <trkpt lat="53.356267036870122" lon="10.340581024065614">
        <ele>-2.27</ele>
        <time>2019-05-08T13:37:03Z</time>
      </trkpt>
      <trkpt lat="53.354643965139985" lon="10.340884029865265">
        <ele>-5.63</ele>
        <time>2019-05-08T13:37:10Z</time>
      </trkpt>
      <trkpt lat="53.353123990818858" lon="10.341226011514664">
        <ele>-8.51</ele>
        <time>2019-05-08T13:37:16Z</time>
      </trkpt>
      <trkpt lat="53.351464960724115" lon="10.341696990653872">
        <ele>-8.029999999999999</ele>
        <time>2019-05-08T13:37:23Z</time>
      </trkpt>
      <trkpt lat="53.350819973275065" lon="10.341966971755028">
        <ele>-8.51</ele>
        <time>2019-05-08T13:37:26Z</time>
      </trkpt>
      <trkpt lat="53.350590979680419" lon="10.342001002281904">
        <ele>-9</ele>
        <time>2019-05-08T13:37:27Z</time>
      </trkpt>
      <trkpt lat="53.350360980257392" lon="10.342007037252188">
        <ele>-9</ele>
        <time>2019-05-08T13:37:28Z</time>
      </trkpt>
      <trkpt lat="53.348919041454792" lon="10.342050036415458">
        <ele>-8.029999999999999</ele>
        <time>2019-05-08T13:37:35Z</time>
      </trkpt>
      <trkpt lat="53.348763976246119" lon="10.342108039185405">
        <ele>-8.029999999999999</ele>
        <time>2019-05-08T13:37:36Z</time>
      </trkpt>
      <trkpt lat="53.348617041483521" lon="10.34216302447021">
        <ele>-8.029999999999999</ele>
        <time>2019-05-08T13:37:37Z</time>
      </trkpt>
      <trkpt lat="53.34848502650857" lon="10.342254973948002">
        <ele>-8.029999999999999</ele>
        <time>2019-05-08T13:37:38Z</time>
      </trkpt>
      <trkpt lat="53.347888989374042" lon="10.342696029692888">
        <ele>-8.51</ele>
        <time>2019-05-08T13:37:43Z</time>
      </trkpt>
      <trkpt lat="53.34767198190093" lon="10.342856040224433">
        <ele>-9</ele>
        <time>2019-05-08T13:37:45Z</time>
      </trkpt>
      <trkpt lat="53.34756201133132" lon="10.342912031337619">
        <ele>-9</ele>
        <time>2019-05-08T13:37:46Z</time>
      </trkpt>
      <trkpt lat="53.346871007233858" lon="10.343129960820079">
        <ele>-9</ele>
        <time>2019-05-08T13:37:52Z</time>
      </trkpt>
      <trkpt lat="53.346648970618844" lon="10.343262981623411">
        <ele>-9</ele>
        <time>2019-05-08T13:37:54Z</time>
      </trkpt>
      <trkpt lat="53.346566995605826" lon="10.343368006870151">
        <ele>-8.51</ele>
        <time>2019-05-08T13:37:55Z</time>
      </trkpt>
      <trkpt lat="53.345554964616895" lon="10.344375008717179">
        <ele>-9</ele>
        <time>2019-05-08T13:38:05Z</time>
      </trkpt>
      <trkpt lat="53.345338962972164" lon="10.344541976228356">
        <ele>-9</ele>
        <time>2019-05-08T13:38:07Z</time>
      </trkpt>
      <trkpt lat="53.345235027372837" lon="10.344623029232025">
        <ele>-9</ele>
        <time>2019-05-08T13:38:08Z</time>
      </trkpt>
      <trkpt lat="53.344543017446995" lon="10.345117980614305">
        <ele>-9.960000000000001</ele>
        <time>2019-05-08T13:38:14Z</time>
      </trkpt>
      <trkpt lat="53.343471977859735" lon="10.345833040773869">
        <ele>-9.960000000000001</ele>
        <time>2019-05-08T13:38:24Z</time>
      </trkpt>
      <trkpt lat="53.342593973502517" lon="10.346383983269334">
        <ele>-9.960000000000001</ele>
        <time>2019-05-08T13:38:34Z</time>
      </trkpt>
      <trkpt lat="53.341529974713922" lon="10.347028970718384">
        <ele>-8.029999999999999</ele>
        <time>2019-05-08T13:38:45Z</time>
      </trkpt>
      <trkpt lat="53.340747021138668" lon="10.347485030069947">
        <ele>-8.51</ele>
        <time>2019-05-08T13:38:53Z</time>
      </trkpt>
      <trkpt lat="53.340190965682268" lon="10.347789041697979">
        <ele>-9.48</ele>
        <time>2019-05-08T13:38:58Z</time>
      </trkpt>
      <trkpt lat="53.340084012597799" lon="10.347822988405824">
        <ele>-9.960000000000001</ele>
        <time>2019-05-08T13:38:59Z</time>
      </trkpt>
      <trkpt lat="53.339971024543047" lon="10.347859030589461">
        <ele>-9.960000000000001</ele>
        <time>2019-05-08T13:39:00Z</time>
      </trkpt>
      <trkpt lat="53.339846972376108" lon="10.347898006439209">
        <ele>-9.960000000000001</ele>
        <time>2019-05-08T13:39:01Z</time>
      </trkpt>
      <trkpt lat="53.33972099237144" lon="10.347849978134036">
        <ele>-9.960000000000001</ele>
        <time>2019-05-08T13:39:02Z</time>
      </trkpt>
      <trkpt lat="53.339587971568108" lon="10.347799016162753">
        <ele>-9.960000000000001</ele>
        <time>2019-05-08T13:39:03Z</time>
      </trkpt>
      <trkpt lat="53.339460985735059" lon="10.347718968987465">
        <ele>-9.960000000000001</ele>
        <time>2019-05-08T13:39:04Z</time>
      </trkpt>
      <trkpt lat="53.339331988245249" lon="10.347631964832544">
        <ele>-9.960000000000001</ele>
        <time>2019-05-08T13:39:05Z</time>
      </trkpt>
      <trkpt lat="53.338488014414907" lon="10.347107006236911">
        <ele>-11.4</ele>
        <time>2019-05-08T13:39:12Z</time>
      </trkpt>
      <trkpt lat="53.337156968191266" lon="10.346872983500361">
        <ele>-9</ele>
        <time>2019-05-08T13:39:23Z</time>
      </trkpt>
      <trkpt lat="53.335800021886826" lon="10.346648013219237">
        <ele>-9.48</ele>
        <time>2019-05-08T13:39:34Z</time>
      </trkpt>
      <trkpt lat="53.334687994793057" lon="10.346140991896391">
        <ele>-7.55</ele>
        <time>2019-05-08T13:39:41Z</time>
      </trkpt>
      <trkpt lat="53.334138980135322" lon="10.345543026924133">
        <ele>-6.59</ele>
        <time>2019-05-08T13:39:45Z</time>
      </trkpt>
      <trkpt lat="53.333689961582422" lon="10.344953024759889">
        <ele>-7.07</ele>
        <time>2019-05-08T13:39:51Z</time>
      </trkpt>
      <trkpt lat="53.333606980741024" lon="10.344844982028008">
        <ele>-6.11</ele>
        <time>2019-05-08T13:39:59Z</time>
      </trkpt>
      <trkpt lat="53.333573034033179" lon="10.344800977036357">
        <ele>-4.19</ele>
        <time>2019-05-08T13:40:13Z</time>
      </trkpt>
      <trkpt lat="53.333551995456219" lon="10.344773987308145">
        <ele>-3.23</ele>
        <time>2019-05-08T13:40:14Z</time>
      </trkpt>
      <trkpt lat="53.333485024049878" lon="10.344716990366578">
        <ele>-1.3</ele>
        <time>2019-05-08T13:40:27Z</time>
      </trkpt>
      <trkpt lat="53.333444036543369" lon="10.344779016450047">
        <ele>-1.3</ele>
        <time>2019-05-08T13:40:28Z</time>
      </trkpt>
      <trkpt lat="53.333381004631519" lon="10.344878006726503">
        <ele>-1.3</ele>
        <time>2019-05-08T13:40:29Z</time>
      </trkpt>
      <trkpt lat="53.332779016345739" lon="10.345735978335142">
        <ele>-1.3</ele>
        <time>2019-05-08T13:40:34Z</time>
      </trkpt>
      <trkpt lat="53.331719040870667" lon="10.346967028453946">
        <ele>-2.27</ele>
        <time>2019-05-08T13:40:41Z</time>
      </trkpt>
      <trkpt lat="53.330293027684093" lon="10.348557997494936">
        <ele>-3.23</ele>
        <time>2019-05-08T13:40:51Z</time>
      </trkpt>
      <trkpt lat="53.328882018104196" lon="10.350126000121236">
        <ele>-3.23</ele>
        <time>2019-05-08T13:41:00Z</time>
      </trkpt>
      <trkpt lat="53.326842030510306" lon="10.352405039593577">
        <ele>0.14</ele>
        <time>2019-05-08T13:41:13Z</time>
      </trkpt>
      <trkpt lat="53.32519699819386" lon="10.354168005287647">
        <ele>2.54</ele>
        <time>2019-05-08T13:41:23Z</time>
      </trkpt>
      <trkpt lat="53.323696972802281" lon="10.355712035670877">
        <ele>2.54</ele>
        <time>2019-05-08T13:41:32Z</time>
      </trkpt>
      <trkpt lat="53.322185967117548" lon="10.357292024418712">
        <ele>1.58</ele>
        <time>2019-05-08T13:41:38Z</time>
      </trkpt>
      <trkpt lat="53.320568008348346" lon="10.358979972079396">
        <ele>0.14</ele>
        <time>2019-05-08T13:41:45Z</time>
      </trkpt>
      <trkpt lat="53.319034958258271" lon="10.360587034374475">
        <ele>-0.82</ele>
        <time>2019-05-08T13:41:51Z</time>
      </trkpt>
      <trkpt lat="53.316836971789598" lon="10.362879987806082">
        <ele>-1.79</ele>
        <time>2019-05-08T13:42:00Z</time>
      </trkpt>
      <trkpt lat="53.315840028226376" lon="10.363926971331239">
        <ele>-0.82</ele>
        <time>2019-05-08T13:42:06Z</time>
      </trkpt>
      <trkpt lat="53.314674021676183" lon="10.365149974822998">
        <ele>-1.3</ele>
        <time>2019-05-08T13:42:14Z</time>
      </trkpt>
      <trkpt lat="53.313044998794794" lon="10.366861978545785">
        <ele>-1.79</ele>
        <time>2019-05-08T13:42:25Z</time>
      </trkpt>
      <trkpt lat="53.31129401922226" lon="10.368675990030169">
        <ele>-0.34</ele>
        <time>2019-05-08T13:42:37Z</time>
      </trkpt>
      <trkpt lat="53.309161998331547" lon="10.370903983712196">
        <ele>2.54</ele>
        <time>2019-05-08T13:42:52Z</time>
      </trkpt>
      <trkpt lat="53.308259015902877" lon="10.371837979182601">
        <ele>1.1</ele>
        <time>2019-05-08T13:42:57Z</time>
      </trkpt>
      <trkpt lat="53.306599985808134" lon="10.373583007603884">
        <ele>1.1</ele>
        <time>2019-05-08T13:43:04Z</time>
      </trkpt>
      <trkpt lat="53.304930981248617" lon="10.375331975519657">
        <ele>1.58</ele>
        <time>2019-05-08T13:43:13Z</time>
      </trkpt>
      <trkpt lat="53.303446965292096" lon="10.376879023388028">
        <ele>2.54</ele>
        <time>2019-05-08T13:43:22Z</time>
      </trkpt>
      <trkpt lat="53.302882025018334" lon="10.377470031380653">
        <ele>3.02</ele>
        <time>2019-05-08T13:43:29Z</time>
      </trkpt>
      <trkpt lat="53.302219016477466" lon="10.378156006336212">
        <ele>3.5</ele>
        <time>2019-05-08T13:43:36Z</time>
      </trkpt>
      <trkpt lat="53.301021996885538" lon="10.3793999645859">
        <ele>3.5</ele>
        <time>2019-05-08T13:43:44Z</time>
      </trkpt>
      <trkpt lat="53.299822965636849" lon="10.380650041624904">
        <ele>3.98</ele>
        <time>2019-05-08T13:43:53Z</time>
      </trkpt>
      <trkpt lat="53.298741029575467" lon="10.381762990728021">
        <ele>3.98</ele>
        <time>2019-05-08T13:44:02Z</time>
      </trkpt>
      <trkpt lat="53.297682981938124" lon="10.382894966751337">
        <ele>3.5</ele>
        <time>2019-05-08T13:44:12Z</time>
      </trkpt>
      <trkpt lat="53.297245027497411" lon="10.383333005011082">
        <ele>3.5</ele>
        <time>2019-05-08T13:44:18Z</time>
      </trkpt>
      <trkpt lat="53.296772036701441" lon="10.383805995807052">
        <ele>3.02</ele>
        <time>2019-05-08T13:44:25Z</time>
      </trkpt>
      <trkpt lat="53.29638596624136" lon="10.384154012426734">
        <ele>3.5</ele>
        <time>2019-05-08T13:44:32Z</time>
      </trkpt>
      <trkpt lat="53.29634103924036" lon="10.384194999933243">
        <ele>3.5</ele>
        <time>2019-05-08T13:44:33Z</time>
      </trkpt>
      <trkpt lat="53.296308014541864" lon="10.384225007146597">
        <ele>3.98</ele>
        <time>2019-05-08T13:44:34Z</time>
      </trkpt>
      <trkpt lat="53.296285970136523" lon="10.384245039895177">
        <ele>3.98</ele>
        <time>2019-05-08T13:44:35Z</time>
      </trkpt>
      <trkpt lat="53.29619100317359" lon="10.38397204130888">
        <ele>4.46</ele>
        <time>2019-05-08T13:44:37Z</time>
      </trkpt>
      <trkpt lat="53.296179017052054" lon="10.383935999125242">
        <ele>4.94</ele>
        <time>2019-05-08T13:44:38Z</time>
      </trkpt>
      <trkpt lat="53.296120008453727" lon="10.383935999125242">
        <ele>5.42</ele>
        <time>2019-05-08T13:44:48Z</time>
      </trkpt>
      <trkpt lat="53.296006014570594" lon="10.383858969435096">
        <ele>-14.279999999999999</ele>
        <time>2019-05-08T13:49:19Z</time>
      </trkpt>
      <trkpt lat="53.296016994863749" lon="10.383991990238428">
        <ele>-8.51</ele>
        <time>2019-05-08T13:50:00Z</time>
      </trkpt>
      <trkpt lat="53.296008026227355" lon="10.3839329816401">
        <ele>-12.359999999999999</ele>
        <time>2019-05-08T13:50:15Z</time>
      </trkpt>
      <trkpt lat="53.295952035114169" lon="10.384545028209686">
        <ele>-5.63</ele>
        <time>2019-05-08T13:50:22Z</time>
      </trkpt>
      <trkpt lat="53.29593300819397" lon="10.384561959654093">
        <ele>-5.15</ele>
        <time>2019-05-08T13:50:23Z</time>
      </trkpt>
      <trkpt lat="53.29591004177928" lon="10.384582998231053">
        <ele>-5.15</ele>
        <time>2019-05-08T13:50:24Z</time>
      </trkpt>
      <trkpt lat="53.295883974060416" lon="10.384605964645743">
        <ele>-4.19</ele>
        <time>2019-05-08T13:50:25Z</time>
      </trkpt>
      <trkpt lat="53.295771991834044" lon="10.38470403291285">
        <ele>-2.27</ele>
        <time>2019-05-08T13:50:36Z</time>
      </trkpt>
      <trkpt lat="53.295585997402668" lon="10.384860020130873">
        <ele>0.14</ele>
        <time>2019-05-08T13:50:52Z</time>
      </trkpt>
      <trkpt lat="53.295105965808034" lon="10.385311972349882">
        <ele>-0.34</ele>
        <time>2019-05-08T13:51:03Z</time>
      </trkpt>
      <trkpt lat="53.294268026947975" lon="10.386086963117123">
        <ele>0.62</ele>
        <time>2019-05-08T13:51:13Z</time>
      </trkpt>
      <trkpt lat="53.293522037565708" lon="10.386772016063333">
        <ele>1.58</ele>
        <time>2019-05-08T13:51:23Z</time>
      </trkpt>
      <trkpt lat="53.293260019272566" lon="10.387012995779514">
        <ele>1.58</ele>
        <time>2019-05-08T13:51:27Z</time>
      </trkpt>
      <trkpt lat="53.293194975703955" lon="10.387073010206223">
        <ele>1.58</ele>
        <time>2019-05-08T13:51:28Z</time>
      </trkpt>
      <trkpt lat="53.293130015954375" lon="10.387133024632931">
        <ele>1.58</ele>
        <time>2019-05-08T13:51:29Z</time>
      </trkpt>
      <trkpt lat="53.292977968230844" lon="10.387274008244276">
        <ele>1.1</ele>
        <time>2019-05-08T13:51:32Z</time>
      </trkpt>
      <trkpt lat="53.292941004037857" lon="10.387308960780501">
        <ele>1.1</ele>
        <time>2019-05-08T13:51:33Z</time>
      </trkpt>
      <trkpt lat="53.292902028188109" lon="10.387345002964139">
        <ele>1.1</ele>
        <time>2019-05-08T13:51:34Z</time>
      </trkpt>
      <trkpt lat="53.292329963296652" lon="10.387883959338069">
        <ele>1.1</ele>
        <time>2019-05-08T13:51:43Z</time>
      </trkpt>
      <trkpt lat="53.291389010846615" lon="10.388730028644204">
        <ele>3.02</ele>
        <time>2019-05-08T13:51:53Z</time>
      </trkpt>
      <trkpt lat="53.290114961564541" lon="10.389902992174029">
        <ele>3.5</ele>
        <time>2019-05-08T13:52:05Z</time>
      </trkpt>
      <trkpt lat="53.288761032745242" lon="10.391139993444085">
        <ele>5.42</ele>
        <time>2019-05-08T13:52:17Z</time>
      </trkpt>
      <trkpt lat="53.286725990474224" lon="10.393036985769868">
        <ele>6.39</ele>
        <time>2019-05-08T13:52:32Z</time>
      </trkpt>
      <trkpt lat="53.285356974229217" lon="10.394303994253278">
        <ele>6.87</ele>
        <time>2019-05-08T13:52:44Z</time>
      </trkpt>
      <trkpt lat="53.284909967333078" lon="10.394748989492655">
        <ele>7.83</ele>
        <time>2019-05-08T13:52:51Z</time>
      </trkpt>
      <trkpt lat="53.284764960408211" lon="10.394783020019531">
        <ele>7.83</ele>
        <time>2019-05-08T13:52:52Z</time>
      </trkpt>
      <trkpt lat="53.284721961244941" lon="10.394804980605841">
        <ele>7.83</ele>
        <time>2019-05-08T13:52:53Z</time>
      </trkpt>
      <trkpt lat="53.284648032858968" lon="10.394961973652244">
        <ele>7.83</ele>
        <time>2019-05-08T13:52:54Z</time>
      </trkpt>
      <trkpt lat="53.284560022875667" lon="10.395028023049235">
        <ele>7.35</ele>
        <time>2019-05-08T13:52:55Z</time>
      </trkpt>
      <trkpt lat="53.284475030377507" lon="10.395092982798815">
        <ele>6.87</ele>
        <time>2019-05-08T13:52:56Z</time>
      </trkpt>
      <trkpt lat="53.284381991252303" lon="10.395175963640213">
        <ele>6.39</ele>
        <time>2019-05-08T13:52:57Z</time>
      </trkpt>
      <trkpt lat="53.283268036320806" lon="10.396196041256189">
        <ele>5.91</ele>
        <time>2019-05-08T13:53:07Z</time>
      </trkpt>
      <trkpt lat="53.281903965398669" lon="10.397579977288842">
        <ele>7.83</ele>
        <time>2019-05-08T13:53:19Z</time>
      </trkpt>
      <trkpt lat="53.280432019382715" lon="10.399038009345531">
        <ele>7.83</ele>
        <time>2019-05-08T13:53:32Z</time>
      </trkpt>
      <trkpt lat="53.279271963983774" lon="10.400019027292728">
        <ele>10.710000000000001</ele>
        <time>2019-05-08T13:53:43Z</time>
      </trkpt>
      <trkpt lat="53.278876002877951" lon="10.400263024494052">
        <ele>13.119999999999999</ele>
        <time>2019-05-08T13:53:48Z</time>
      </trkpt>
      <trkpt lat="53.278843984007835" lon="10.40028196759522">
        <ele>13.119999999999999</ele>
        <time>2019-05-08T13:53:49Z</time>
      </trkpt>
      <trkpt lat="53.278713980689645" lon="10.400357991456985">
        <ele>14.56</ele>
        <time>2019-05-08T13:53:57Z</time>
      </trkpt>
      <trkpt lat="53.278003027662635" lon="10.400700978934765">
        <ele>14.08</ele>
        <time>2019-05-08T13:54:03Z</time>
      </trkpt>
      <trkpt lat="53.276807013899088" lon="10.401186039671302">
        <ele>14.56</ele>
        <time>2019-05-08T13:54:14Z</time>
      </trkpt>
      <trkpt lat="53.27558702789247" lon="10.401795990765095">
        <ele>9.75</ele>
        <time>2019-05-08T13:54:25Z</time>
      </trkpt>
      <trkpt lat="53.274421021342278" lon="10.402374006807804">
        <ele>6.39</ele>
        <time>2019-05-08T13:54:34Z</time>
      </trkpt>
      <trkpt lat="53.273202963173389" lon="10.403151009231806">
        <ele>5.91</ele>
        <time>2019-05-08T13:54:44Z</time>
      </trkpt>
      <trkpt lat="53.272813037037849" lon="10.403423001989722">
        <ele>5.42</ele>
        <time>2019-05-08T13:54:47Z</time>
      </trkpt>
      <trkpt lat="53.272682027891278" lon="10.403516041114926">
        <ele>4.94</ele>
        <time>2019-05-08T13:54:48Z</time>
      </trkpt>
      <trkpt lat="53.271776027977467" lon="10.404093973338604">
        <ele>3.98</ele>
        <time>2019-05-08T13:54:56Z</time>
      </trkpt>
      <trkpt lat="53.270691996440291" lon="10.40453502908349">
        <ele>7.83</ele>
        <time>2019-05-08T13:55:05Z</time>
      </trkpt>
      <trkpt lat="53.269440997391939" lon="10.404742984101176">
        <ele>10.710000000000001</ele>
        <time>2019-05-08T13:55:14Z</time>
      </trkpt>
      <trkpt lat="53.26837096363306" lon="10.405085971578956">
        <ele>12.630000000000001</ele>
        <time>2019-05-08T13:55:23Z</time>
      </trkpt>
      <trkpt lat="53.267955975607038" lon="10.405247993767262">
        <ele>13.6</ele>
        <time>2019-05-08T13:55:27Z</time>
      </trkpt>
      <trkpt lat="53.266983004286885" lon="10.405649989843369">
        <ele>12.630000000000001</ele>
        <time>2019-05-08T13:55:36Z</time>
      </trkpt>
      <trkpt lat="53.266357965767384" lon="10.405904967337847">
        <ele>13.6</ele>
        <time>2019-05-08T13:55:41Z</time>
      </trkpt>
      <trkpt lat="53.265220038592815" lon="10.406435960903764">
        <ele>17.440000000000001</ele>
        <time>2019-05-08T13:55:49Z</time>
      </trkpt>
      <trkpt lat="53.263718001544476" lon="10.407164013013244">
        <ele>21.77</ele>
        <time>2019-05-08T13:55:59Z</time>
      </trkpt>
      <trkpt lat="53.262689961120486" lon="10.407668016850948">
        <ele>22.73</ele>
        <time>2019-05-08T13:56:07Z</time>
      </trkpt>
      <trkpt lat="53.261453965678811" lon="10.408334964886308">
        <ele>16.48</ele>
        <time>2019-05-08T13:56:17Z</time>
      </trkpt>
      <trkpt lat="53.260430032387376" lon="10.408769985660911">
        <ele>10.710000000000001</ele>
        <time>2019-05-08T13:56:26Z</time>
      </trkpt>
      <trkpt lat="53.260324001312256" lon="10.408809967339039">
        <ele>10.23</ele>
        <time>2019-05-08T13:56:27Z</time>
      </trkpt>
      <trkpt lat="53.259018016979098" lon="10.40926200337708">
        <ele>7.83</ele>
        <time>2019-05-08T13:56:38Z</time>
      </trkpt>
      <trkpt lat="53.257120018824935" lon="10.409857034683228">
        <ele>9.75</ele>
        <time>2019-05-08T13:56:52Z</time>
      </trkpt>
      <trkpt lat="53.256175965070724" lon="10.410017967224121">
        <ele>10.710000000000001</ele>
        <time>2019-05-08T13:56:59Z</time>
      </trkpt>
      <trkpt lat="53.256037998944521" lon="10.410017967224121">
        <ele>11.19</ele>
        <time>2019-05-08T13:57:00Z</time>
      </trkpt>
      <trkpt lat="53.254436971619725" lon="10.409844964742661">
        <ele>15.52</ele>
        <time>2019-05-08T13:57:12Z</time>
      </trkpt>
      <trkpt lat="53.253547986969352" lon="10.409668022766709">
        <ele>21.289999999999999</ele>
        <time>2019-05-08T13:57:21Z</time>
      </trkpt>
      <trkpt lat="53.25328697450459" lon="10.409514969214797">
        <ele>21.77</ele>
        <time>2019-05-08T13:57:26Z</time>
      </trkpt>
      <trkpt lat="53.25328697450459" lon="10.409447997808456">
        <ele>21.77</ele>
        <time>2019-05-08T13:57:27Z</time>
      </trkpt>
      <trkpt lat="53.25328697450459" lon="10.409366022795439">
        <ele>21.77</ele>
        <time>2019-05-08T13:57:28Z</time>
      </trkpt>
      <trkpt lat="53.25328697450459" lon="10.409256974235177">
        <ele>21.77</ele>
        <time>2019-05-08T13:57:29Z</time>
      </trkpt>
      <trkpt lat="53.253283035010099" lon="10.409124037250876">
        <ele>21.77</ele>
        <time>2019-05-08T13:57:30Z</time>
      </trkpt>
      <trkpt lat="53.253279011696577" lon="10.408970983698964">
        <ele>22.25</ele>
        <time>2019-05-08T13:57:31Z</time>
      </trkpt>
      <trkpt lat="53.253272976726294" lon="10.408805022016168">
        <ele>22.25</ele>
        <time>2019-05-08T13:57:32Z</time>
      </trkpt>
      <trkpt lat="53.253268031403422" lon="10.408630007877946">
        <ele>22.25</ele>
        <time>2019-05-08T13:57:33Z</time>
      </trkpt>
      <trkpt lat="53.253192007541656" lon="10.406767968088388">
        <ele>24.170000000000002</ele>
        <time>2019-05-08T13:57:43Z</time>
      </trkpt>
      <trkpt lat="53.253151020035148" lon="10.405787033960223">
        <ele>25.129999999999999</ele>
        <time>2019-05-08T13:57:49Z</time>
      </trkpt>
      <trkpt lat="53.253145990893245" lon="10.405639009550214">
        <ele>25.129999999999999</ele>
        <time>2019-05-08T13:57:50Z</time>
      </trkpt>
      <trkpt lat="53.253120006993413" lon="10.404956974089146">
        <ele>25.129999999999999</ele>
        <time>2019-05-08T13:57:56Z</time>
      </trkpt>
      <trkpt lat="53.253116989508271" lon="10.404890002682805">
        <ele>25.129999999999999</ele>
        <time>2019-05-08T13:57:57Z</time>
      </trkpt>
      <trkpt lat="53.25311497785151" lon="10.404824959114194">
        <ele>25.129999999999999</ele>
        <time>2019-05-08T13:57:58Z</time>
      </trkpt>
      <trkpt lat="53.253113972023129" lon="10.404802998527884">
        <ele>25.129999999999999</ele>
        <time>2019-05-08T13:57:59Z</time>
      </trkpt>
      <trkpt lat="53.253111960366368" lon="10.404769973829389">
        <ele>24.649999999999999</ele>
        <time>2019-05-08T13:58:00Z</time>
      </trkpt>
    </trkseg>
  </trk>

</gpx>